<?xml version='1.0' encoding='UTF-8' ?>
<gpx version="1.1" creator="S Health_0.2" n0:schemaLocation="http://www.topografix.com/GPX/1/1 http://www.topografix.com/GPX/1/1/gpx.xsd" xmlns="http://www.topografix.com/GPX/1/1" n1:xsi="http://www.w3.org/2001/XMLSchema-instance" n1:gpx1="http://www.topografix.com/GPX/1/0" n1:ogt10="http://gpstracker.android.sogeti.n1/GPX/1/0" xmlns:n0="xsi" xmlns:n1="xmlns">
  <metadate>2022-02-10T07:56:56Z</metadate>
  <trk>
    <name>Beauharnais20220210_085655.gpx</name>
    <trkseg>
      <trkpt lat="47.544685" lon="1.8488874">
        <ele>125.0</ele>
        <time>2022-02-10T07:56:56Z</time>
      </trkpt>
      <trkpt lat="47.544685" lon="1.8488874">
        <ele>125.0</ele>
        <time>2022-02-10T07:56:57Z</time>
      </trkpt>
      <trkpt lat="47.54469" lon="1.8488889">
        <ele>133.0</ele>
        <time>2022-02-10T07:56:58Z</time>
      </trkpt>
      <trkpt lat="47.544693" lon="1.8488971">
        <ele>136.0</ele>
        <time>2022-02-10T07:57:01Z</time>
      </trkpt>
      <trkpt lat="47.544704" lon="1.84889">
        <ele>138.0</ele>
        <time>2022-02-10T07:57:03Z</time>
      </trkpt>
      <trkpt lat="47.544704" lon="1.84889">
        <ele>138.0</ele>
        <time>2022-02-10T07:57:03Z</time>
      </trkpt>
      <trkpt lat="47.544704" lon="1.8488903">
        <ele>138.0</ele>
        <time>2022-02-10T07:57:04Z</time>
      </trkpt>
      <trkpt lat="47.544704" lon="1.8488903">
        <ele>138.0</ele>
        <time>2022-02-10T07:57:05Z</time>
      </trkpt>
      <trkpt lat="47.544704" lon="1.8488903">
        <ele>138.0</ele>
        <time>2022-02-10T07:57:06Z</time>
      </trkpt>
      <trkpt lat="47.544704" lon="1.8488903">
        <ele>138.0</ele>
        <time>2022-02-10T07:57:07Z</time>
      </trkpt>
      <trkpt lat="47.544704" lon="1.8488903">
        <ele>138.0</ele>
        <time>2022-02-10T07:57:07Z</time>
      </trkpt>
    </trkseg>
    <trkseg>
      <trkpt lat="47.544704" lon="1.8488903">
        <ele>138.0</ele>
        <time>2022-02-10T07:57:07Z</time>
      </trkpt>
      <trkpt lat="47.544704" lon="1.8488903">
        <ele>138.0</ele>
        <time>2022-02-10T07:57:20Z</time>
      </trkpt>
      <trkpt lat="47.544704" lon="1.8488903">
        <ele>138.0</ele>
        <time>2022-02-10T07:57:21Z</time>
      </trkpt>
      <trkpt lat="47.544704" lon="1.8488903">
        <ele>138.0</ele>
        <time>2022-02-10T07:57:22Z</time>
      </trkpt>
      <trkpt lat="47.544704" lon="1.8488903">
        <ele>138.0</ele>
        <time>2022-02-10T07:57:23Z</time>
      </trkpt>
      <trkpt lat="47.544704" lon="1.8488903">
        <ele>138.0</ele>
        <time>2022-02-10T07:57:24Z</time>
      </trkpt>
      <trkpt lat="47.544704" lon="1.8488903">
        <ele>138.0</ele>
        <time>2022-02-10T07:57:25Z</time>
      </trkpt>
      <trkpt lat="47.5447" lon="1.8488895">
        <ele>138.0</ele>
        <time>2022-02-10T07:57:26Z</time>
      </trkpt>
      <trkpt lat="47.5447" lon="1.8488895">
        <ele>138.0</ele>
        <time>2022-02-10T07:57:26Z</time>
      </trkpt>
    </trkseg>
    <trkseg>
      <trkpt lat="47.5447" lon="1.8488895">
        <ele>138.0</ele>
        <time>2022-02-10T07:57:26Z</time>
      </trkpt>
      <trkpt lat="47.54465" lon="1.848875">
        <ele>138.0</ele>
        <time>2022-02-10T08:01:18Z</time>
      </trkpt>
      <trkpt lat="47.54463" lon="1.8488951">
        <ele>137.0</ele>
        <time>2022-02-10T08:01:20Z</time>
      </trkpt>
      <trkpt lat="47.54461" lon="1.8489066">
        <ele>136.0</ele>
        <time>2022-02-10T08:01:22Z</time>
      </trkpt>
      <trkpt lat="47.544605" lon="1.8489066">
        <ele>137.0</ele>
        <time>2022-02-10T08:01:24Z</time>
      </trkpt>
      <trkpt lat="47.5446" lon="1.848902">
        <ele>137.0</ele>
        <time>2022-02-10T08:01:25Z</time>
      </trkpt>
      <trkpt lat="47.5446" lon="1.848902">
        <ele>137.0</ele>
        <time>2022-02-10T08:01:26Z</time>
      </trkpt>
      <trkpt lat="47.544598" lon="1.8488983">
        <ele>137.0</ele>
        <time>2022-02-10T08:01:27Z</time>
      </trkpt>
      <trkpt lat="47.544582" lon="1.8488955">
        <ele>136.0</ele>
        <time>2022-02-10T08:01:28Z</time>
      </trkpt>
      <trkpt lat="47.544575" lon="1.848892">
        <ele>136.0</ele>
        <time>2022-02-10T08:01:29Z</time>
      </trkpt>
      <trkpt lat="47.544567" lon="1.8488865">
        <ele>135.0</ele>
        <time>2022-02-10T08:01:30Z</time>
      </trkpt>
      <trkpt lat="47.544556" lon="1.8488864">
        <ele>135.0</ele>
        <time>2022-02-10T08:01:31Z</time>
      </trkpt>
      <trkpt lat="47.54455" lon="1.8488872">
        <ele>135.0</ele>
        <time>2022-02-10T08:01:32Z</time>
      </trkpt>
      <trkpt lat="47.544544" lon="1.8488858">
        <ele>135.0</ele>
        <time>2022-02-10T08:01:33Z</time>
      </trkpt>
      <trkpt lat="47.544537" lon="1.8488882">
        <ele>135.0</ele>
        <time>2022-02-10T08:01:34Z</time>
      </trkpt>
      <trkpt lat="47.54452" lon="1.8488878">
        <ele>135.0</ele>
        <time>2022-02-10T08:01:35Z</time>
      </trkpt>
      <trkpt lat="47.544514" lon="1.8488903">
        <ele>135.0</ele>
        <time>2022-02-10T08:01:36Z</time>
      </trkpt>
      <trkpt lat="47.544506" lon="1.8488901">
        <ele>135.0</ele>
        <time>2022-02-10T08:01:37Z</time>
      </trkpt>
      <trkpt lat="47.544495" lon="1.8488886">
        <ele>134.0</ele>
        <time>2022-02-10T08:01:38Z</time>
      </trkpt>
      <trkpt lat="47.544483" lon="1.8488806">
        <ele>134.0</ele>
        <time>2022-02-10T08:01:39Z</time>
      </trkpt>
      <trkpt lat="47.54447" lon="1.8488736">
        <ele>134.0</ele>
        <time>2022-02-10T08:01:40Z</time>
      </trkpt>
      <trkpt lat="47.544464" lon="1.8488708">
        <ele>134.0</ele>
        <time>2022-02-10T08:01:41Z</time>
      </trkpt>
      <trkpt lat="47.54445" lon="1.8488691">
        <ele>134.0</ele>
        <time>2022-02-10T08:01:42Z</time>
      </trkpt>
      <trkpt lat="47.544437" lon="1.8488634">
        <ele>134.0</ele>
        <time>2022-02-10T08:01:43Z</time>
      </trkpt>
      <trkpt lat="47.544422" lon="1.8488581">
        <ele>134.0</ele>
        <time>2022-02-10T08:01:44Z</time>
      </trkpt>
      <trkpt lat="47.54441" lon="1.8488543">
        <ele>134.0</ele>
        <time>2022-02-10T08:01:46Z</time>
      </trkpt>
      <trkpt lat="47.54441" lon="1.8488476">
        <ele>134.0</ele>
        <time>2022-02-10T08:01:47Z</time>
      </trkpt>
      <trkpt lat="47.54441" lon="1.8488486">
        <ele>135.0</ele>
        <time>2022-02-10T08:01:48Z</time>
      </trkpt>
      <trkpt lat="47.54441" lon="1.8488519">
        <ele>135.0</ele>
        <time>2022-02-10T08:01:49Z</time>
      </trkpt>
      <trkpt lat="47.544407" lon="1.8488584">
        <ele>136.0</ele>
        <time>2022-02-10T08:01:50Z</time>
      </trkpt>
      <trkpt lat="47.544403" lon="1.8488599">
        <ele>136.0</ele>
        <time>2022-02-10T08:01:51Z</time>
      </trkpt>
      <trkpt lat="47.544407" lon="1.8488641">
        <ele>135.0</ele>
        <time>2022-02-10T08:01:52Z</time>
      </trkpt>
      <trkpt lat="47.544407" lon="1.8488641">
        <ele>135.0</ele>
        <time>2022-02-10T08:01:53Z</time>
      </trkpt>
      <trkpt lat="47.544407" lon="1.8488641">
        <ele>135.0</ele>
        <time>2022-02-10T08:01:54Z</time>
      </trkpt>
      <trkpt lat="47.544395" lon="1.8488513">
        <ele>136.0</ele>
        <time>2022-02-10T08:01:55Z</time>
      </trkpt>
      <trkpt lat="47.544388" lon="1.8488551">
        <ele>136.0</ele>
        <time>2022-02-10T08:01:56Z</time>
      </trkpt>
      <trkpt lat="47.54438" lon="1.8488553">
        <ele>135.0</ele>
        <time>2022-02-10T08:01:57Z</time>
      </trkpt>
      <trkpt lat="47.54437" lon="1.8488592">
        <ele>136.0</ele>
        <time>2022-02-10T08:01:58Z</time>
      </trkpt>
      <trkpt lat="47.544365" lon="1.8488522">
        <ele>136.0</ele>
        <time>2022-02-10T08:01:59Z</time>
      </trkpt>
      <trkpt lat="47.544357" lon="1.8488473">
        <ele>135.0</ele>
        <time>2022-02-10T08:02:00Z</time>
      </trkpt>
      <trkpt lat="47.54435" lon="1.8488436">
        <ele>136.0</ele>
        <time>2022-02-10T08:02:01Z</time>
      </trkpt>
      <trkpt lat="47.54434" lon="1.8488352">
        <ele>135.0</ele>
        <time>2022-02-10T08:02:02Z</time>
      </trkpt>
      <trkpt lat="47.54433" lon="1.8488312">
        <ele>135.0</ele>
        <time>2022-02-10T08:02:03Z</time>
      </trkpt>
      <trkpt lat="47.544315" lon="1.8488235">
        <ele>134.0</ele>
        <time>2022-02-10T08:02:04Z</time>
      </trkpt>
      <trkpt lat="47.544308" lon="1.8488164">
        <ele>134.0</ele>
        <time>2022-02-10T08:02:05Z</time>
      </trkpt>
      <trkpt lat="47.5443" lon="1.8488054">
        <ele>135.0</ele>
        <time>2022-02-10T08:02:06Z</time>
      </trkpt>
      <trkpt lat="47.54429" lon="1.8487959">
        <ele>135.0</ele>
        <time>2022-02-10T08:02:07Z</time>
      </trkpt>
      <trkpt lat="47.544277" lon="1.8487833">
        <ele>134.0</ele>
        <time>2022-02-10T08:02:08Z</time>
      </trkpt>
      <trkpt lat="47.54427" lon="1.8487622">
        <ele>135.0</ele>
        <time>2022-02-10T08:02:10Z</time>
      </trkpt>
      <trkpt lat="47.544266" lon="1.8487507">
        <ele>136.0</ele>
        <time>2022-02-10T08:02:11Z</time>
      </trkpt>
      <trkpt lat="47.544266" lon="1.8487406">
        <ele>136.0</ele>
        <time>2022-02-10T08:02:12Z</time>
      </trkpt>
      <trkpt lat="47.544262" lon="1.8487352">
        <ele>137.0</ele>
        <time>2022-02-10T08:02:13Z</time>
      </trkpt>
      <trkpt lat="47.544254" lon="1.8487246">
        <ele>137.0</ele>
        <time>2022-02-10T08:02:14Z</time>
      </trkpt>
      <trkpt lat="47.544254" lon="1.8487118">
        <ele>137.0</ele>
        <time>2022-02-10T08:02:15Z</time>
      </trkpt>
      <trkpt lat="47.54425" lon="1.8487027">
        <ele>137.0</ele>
        <time>2022-02-10T08:02:16Z</time>
      </trkpt>
      <trkpt lat="47.544247" lon="1.8486906">
        <ele>137.0</ele>
        <time>2022-02-10T08:02:17Z</time>
      </trkpt>
      <trkpt lat="47.54424" lon="1.8486835">
        <ele>138.0</ele>
        <time>2022-02-10T08:02:18Z</time>
      </trkpt>
      <trkpt lat="47.54423" lon="1.8486726">
        <ele>137.0</ele>
        <time>2022-02-10T08:02:19Z</time>
      </trkpt>
      <trkpt lat="47.544224" lon="1.848657">
        <ele>138.0</ele>
        <time>2022-02-10T08:02:20Z</time>
      </trkpt>
      <trkpt lat="47.544216" lon="1.8486443">
        <ele>138.0</ele>
        <time>2022-02-10T08:02:21Z</time>
      </trkpt>
      <trkpt lat="47.544212" lon="1.8486291">
        <ele>138.0</ele>
        <time>2022-02-10T08:02:22Z</time>
      </trkpt>
      <trkpt lat="47.544205" lon="1.8486215">
        <ele>139.0</ele>
        <time>2022-02-10T08:02:23Z</time>
      </trkpt>
      <trkpt lat="47.5442" lon="1.8486114">
        <ele>139.0</ele>
        <time>2022-02-10T08:02:24Z</time>
      </trkpt>
      <trkpt lat="47.544197" lon="1.8485984">
        <ele>139.0</ele>
        <time>2022-02-10T08:02:25Z</time>
      </trkpt>
      <trkpt lat="47.54419" lon="1.8485833">
        <ele>139.0</ele>
        <time>2022-02-10T08:02:26Z</time>
      </trkpt>
      <trkpt lat="47.544186" lon="1.8485731">
        <ele>140.0</ele>
        <time>2022-02-10T08:02:27Z</time>
      </trkpt>
      <trkpt lat="47.544174" lon="1.8485624">
        <ele>140.0</ele>
        <time>2022-02-10T08:02:28Z</time>
      </trkpt>
      <trkpt lat="47.544163" lon="1.8485509">
        <ele>140.0</ele>
        <time>2022-02-10T08:02:29Z</time>
      </trkpt>
      <trkpt lat="47.54415" lon="1.848541">
        <ele>140.0</ele>
        <time>2022-02-10T08:02:30Z</time>
      </trkpt>
      <trkpt lat="47.544144" lon="1.8485377">
        <ele>140.0</ele>
        <time>2022-02-10T08:02:31Z</time>
      </trkpt>
      <trkpt lat="47.544132" lon="1.8485386">
        <ele>140.0</ele>
        <time>2022-02-10T08:02:32Z</time>
      </trkpt>
      <trkpt lat="47.544125" lon="1.8485416">
        <ele>140.0</ele>
        <time>2022-02-10T08:02:33Z</time>
      </trkpt>
      <trkpt lat="47.544117" lon="1.8485361">
        <ele>140.0</ele>
        <time>2022-02-10T08:02:34Z</time>
      </trkpt>
      <trkpt lat="47.544113" lon="1.8485318">
        <ele>140.0</ele>
        <time>2022-02-10T08:02:35Z</time>
      </trkpt>
      <trkpt lat="47.544106" lon="1.8485328">
        <ele>140.0</ele>
        <time>2022-02-10T08:02:36Z</time>
      </trkpt>
      <trkpt lat="47.544098" lon="1.8485284">
        <ele>140.0</ele>
        <time>2022-02-10T08:02:37Z</time>
      </trkpt>
      <trkpt lat="47.54409" lon="1.8485259">
        <ele>140.0</ele>
        <time>2022-02-10T08:02:38Z</time>
      </trkpt>
      <trkpt lat="47.544086" lon="1.8485225">
        <ele>140.0</ele>
        <time>2022-02-10T08:02:39Z</time>
      </trkpt>
      <trkpt lat="47.54408" lon="1.8485173">
        <ele>140.0</ele>
        <time>2022-02-10T08:02:40Z</time>
      </trkpt>
      <trkpt lat="47.544067" lon="1.84851">
        <ele>140.0</ele>
        <time>2022-02-10T08:02:41Z</time>
      </trkpt>
      <trkpt lat="47.54406" lon="1.8485063">
        <ele>141.0</ele>
        <time>2022-02-10T08:02:42Z</time>
      </trkpt>
      <trkpt lat="47.54405" lon="1.8485066">
        <ele>141.0</ele>
        <time>2022-02-10T08:02:43Z</time>
      </trkpt>
      <trkpt lat="47.544037" lon="1.8485035">
        <ele>141.0</ele>
        <time>2022-02-10T08:02:44Z</time>
      </trkpt>
      <trkpt lat="47.54403" lon="1.8485066">
        <ele>141.0</ele>
        <time>2022-02-10T08:02:45Z</time>
      </trkpt>
      <trkpt lat="47.544018" lon="1.84851">
        <ele>141.0</ele>
        <time>2022-02-10T08:02:46Z</time>
      </trkpt>
      <trkpt lat="47.54401" lon="1.8485051">
        <ele>141.0</ele>
        <time>2022-02-10T08:02:47Z</time>
      </trkpt>
      <trkpt lat="47.544" lon="1.848499">
        <ele>141.0</ele>
        <time>2022-02-10T08:02:48Z</time>
      </trkpt>
      <trkpt lat="47.54399" lon="1.8485038">
        <ele>142.0</ele>
        <time>2022-02-10T08:02:49Z</time>
      </trkpt>
      <trkpt lat="47.54398" lon="1.8485005">
        <ele>141.0</ele>
        <time>2022-02-10T08:02:50Z</time>
      </trkpt>
      <trkpt lat="47.543972" lon="1.8484932">
        <ele>141.0</ele>
        <time>2022-02-10T08:02:51Z</time>
      </trkpt>
      <trkpt lat="47.543964" lon="1.8484855">
        <ele>141.0</ele>
        <time>2022-02-10T08:02:52Z</time>
      </trkpt>
      <trkpt lat="47.543953" lon="1.8484787">
        <ele>141.0</ele>
        <time>2022-02-10T08:02:53Z</time>
      </trkpt>
      <trkpt lat="47.543945" lon="1.8484794">
        <ele>141.0</ele>
        <time>2022-02-10T08:02:54Z</time>
      </trkpt>
      <trkpt lat="47.543934" lon="1.848474">
        <ele>141.0</ele>
        <time>2022-02-10T08:02:55Z</time>
      </trkpt>
      <trkpt lat="47.543922" lon="1.8484731">
        <ele>141.0</ele>
        <time>2022-02-10T08:02:56Z</time>
      </trkpt>
      <trkpt lat="47.543915" lon="1.848476">
        <ele>141.0</ele>
        <time>2022-02-10T08:02:57Z</time>
      </trkpt>
      <trkpt lat="47.543907" lon="1.8484747">
        <ele>140.0</ele>
        <time>2022-02-10T08:02:58Z</time>
      </trkpt>
      <trkpt lat="47.543896" lon="1.8484753">
        <ele>140.0</ele>
        <time>2022-02-10T08:02:59Z</time>
      </trkpt>
      <trkpt lat="47.543888" lon="1.8484713">
        <ele>141.0</ele>
        <time>2022-02-10T08:03:00Z</time>
      </trkpt>
      <trkpt lat="47.543877" lon="1.8484663">
        <ele>141.0</ele>
        <time>2022-02-10T08:03:01Z</time>
      </trkpt>
      <trkpt lat="47.543865" lon="1.8484603">
        <ele>142.0</ele>
        <time>2022-02-10T08:03:02Z</time>
      </trkpt>
      <trkpt lat="47.543854" lon="1.8484566">
        <ele>142.0</ele>
        <time>2022-02-10T08:03:03Z</time>
      </trkpt>
      <trkpt lat="47.543846" lon="1.8484539">
        <ele>142.0</ele>
        <time>2022-02-10T08:03:04Z</time>
      </trkpt>
      <trkpt lat="47.543835" lon="1.8484539">
        <ele>142.0</ele>
        <time>2022-02-10T08:03:05Z</time>
      </trkpt>
      <trkpt lat="47.54383" lon="1.8484552">
        <ele>142.0</ele>
        <time>2022-02-10T08:03:06Z</time>
      </trkpt>
      <trkpt lat="47.543823" lon="1.8484566">
        <ele>141.0</ele>
        <time>2022-02-10T08:03:07Z</time>
      </trkpt>
      <trkpt lat="47.54381" lon="1.8484632">
        <ele>141.0</ele>
        <time>2022-02-10T08:03:08Z</time>
      </trkpt>
      <trkpt lat="47.543804" lon="1.8484626">
        <ele>141.0</ele>
        <time>2022-02-10T08:03:09Z</time>
      </trkpt>
      <trkpt lat="47.543793" lon="1.8484635">
        <ele>141.0</ele>
        <time>2022-02-10T08:03:10Z</time>
      </trkpt>
      <trkpt lat="47.543785" lon="1.8484671">
        <ele>141.0</ele>
        <time>2022-02-10T08:03:11Z</time>
      </trkpt>
      <trkpt lat="47.543777" lon="1.8484637">
        <ele>142.0</ele>
        <time>2022-02-10T08:03:12Z</time>
      </trkpt>
      <trkpt lat="47.54377" lon="1.8484603">
        <ele>142.0</ele>
        <time>2022-02-10T08:03:13Z</time>
      </trkpt>
      <trkpt lat="47.54376" lon="1.8484601">
        <ele>142.0</ele>
        <time>2022-02-10T08:03:14Z</time>
      </trkpt>
      <trkpt lat="47.54375" lon="1.8484637">
        <ele>141.0</ele>
        <time>2022-02-10T08:03:15Z</time>
      </trkpt>
      <trkpt lat="47.54374" lon="1.8484653">
        <ele>141.0</ele>
        <time>2022-02-10T08:03:16Z</time>
      </trkpt>
      <trkpt lat="47.543728" lon="1.8484653">
        <ele>141.0</ele>
        <time>2022-02-10T08:03:17Z</time>
      </trkpt>
      <trkpt lat="47.54372" lon="1.8484683">
        <ele>141.0</ele>
        <time>2022-02-10T08:03:18Z</time>
      </trkpt>
      <trkpt lat="47.54371" lon="1.8484694">
        <ele>141.0</ele>
        <time>2022-02-10T08:03:19Z</time>
      </trkpt>
      <trkpt lat="47.543697" lon="1.8484689">
        <ele>141.0</ele>
        <time>2022-02-10T08:03:20Z</time>
      </trkpt>
      <trkpt lat="47.543686" lon="1.8484676">
        <ele>141.0</ele>
        <time>2022-02-10T08:03:21Z</time>
      </trkpt>
      <trkpt lat="47.543674" lon="1.8484682">
        <ele>141.0</ele>
        <time>2022-02-10T08:03:22Z</time>
      </trkpt>
      <trkpt lat="47.54367" lon="1.8484704">
        <ele>140.0</ele>
        <time>2022-02-10T08:03:23Z</time>
      </trkpt>
      <trkpt lat="47.543663" lon="1.848469">
        <ele>140.0</ele>
        <time>2022-02-10T08:03:24Z</time>
      </trkpt>
      <trkpt lat="47.543663" lon="1.848466">
        <ele>140.0</ele>
        <time>2022-02-10T08:03:25Z</time>
      </trkpt>
      <trkpt lat="47.543655" lon="1.8484671">
        <ele>139.0</ele>
        <time>2022-02-10T08:03:26Z</time>
      </trkpt>
      <trkpt lat="47.543648" lon="1.8484696">
        <ele>139.0</ele>
        <time>2022-02-10T08:03:27Z</time>
      </trkpt>
      <trkpt lat="47.54364" lon="1.8484707">
        <ele>138.0</ele>
        <time>2022-02-10T08:03:28Z</time>
      </trkpt>
      <trkpt lat="47.543633" lon="1.848466">
        <ele>138.0</ele>
        <time>2022-02-10T08:03:29Z</time>
      </trkpt>
      <trkpt lat="47.54362" lon="1.8484597">
        <ele>138.0</ele>
        <time>2022-02-10T08:03:30Z</time>
      </trkpt>
      <trkpt lat="47.543613" lon="1.8484523">
        <ele>139.0</ele>
        <time>2022-02-10T08:03:31Z</time>
      </trkpt>
      <trkpt lat="47.543602" lon="1.8484461">
        <ele>139.0</ele>
        <time>2022-02-10T08:03:32Z</time>
      </trkpt>
      <trkpt lat="47.54359" lon="1.8484344">
        <ele>139.0</ele>
        <time>2022-02-10T08:03:33Z</time>
      </trkpt>
      <trkpt lat="47.543583" lon="1.848417">
        <ele>139.0</ele>
        <time>2022-02-10T08:03:34Z</time>
      </trkpt>
      <trkpt lat="47.54357" lon="1.8484002">
        <ele>139.0</ele>
        <time>2022-02-10T08:03:35Z</time>
      </trkpt>
      <trkpt lat="47.543556" lon="1.848364">
        <ele>139.0</ele>
        <time>2022-02-10T08:03:37Z</time>
      </trkpt>
      <trkpt lat="47.54355" lon="1.8483477">
        <ele>139.0</ele>
        <time>2022-02-10T08:03:38Z</time>
      </trkpt>
      <trkpt lat="47.543545" lon="1.8483284">
        <ele>138.0</ele>
        <time>2022-02-10T08:03:39Z</time>
      </trkpt>
      <trkpt lat="47.54354" lon="1.8483113">
        <ele>138.0</ele>
        <time>2022-02-10T08:03:40Z</time>
      </trkpt>
      <trkpt lat="47.543537" lon="1.8482974">
        <ele>138.0</ele>
        <time>2022-02-10T08:03:41Z</time>
      </trkpt>
      <trkpt lat="47.54353" lon="1.8482804">
        <ele>139.0</ele>
        <time>2022-02-10T08:03:42Z</time>
      </trkpt>
      <trkpt lat="47.543526" lon="1.8482604">
        <ele>139.0</ele>
        <time>2022-02-10T08:03:43Z</time>
      </trkpt>
      <trkpt lat="47.543526" lon="1.8482412">
        <ele>139.0</ele>
        <time>2022-02-10T08:03:44Z</time>
      </trkpt>
      <trkpt lat="47.54352" lon="1.8482254">
        <ele>139.0</ele>
        <time>2022-02-10T08:03:45Z</time>
      </trkpt>
      <trkpt lat="47.543518" lon="1.848213">
        <ele>139.0</ele>
        <time>2022-02-10T08:03:46Z</time>
      </trkpt>
      <trkpt lat="47.543514" lon="1.8481963">
        <ele>139.0</ele>
        <time>2022-02-10T08:03:47Z</time>
      </trkpt>
      <trkpt lat="47.543503" lon="1.8481799">
        <ele>138.0</ele>
        <time>2022-02-10T08:03:48Z</time>
      </trkpt>
      <trkpt lat="47.5435" lon="1.848163">
        <ele>138.0</ele>
        <time>2022-02-10T08:03:49Z</time>
      </trkpt>
      <trkpt lat="47.543495" lon="1.8481444">
        <ele>138.0</ele>
        <time>2022-02-10T08:03:50Z</time>
      </trkpt>
      <trkpt lat="47.543495" lon="1.8481265">
        <ele>138.0</ele>
        <time>2022-02-10T08:03:51Z</time>
      </trkpt>
      <trkpt lat="47.543495" lon="1.848108">
        <ele>139.0</ele>
        <time>2022-02-10T08:03:52Z</time>
      </trkpt>
      <trkpt lat="47.543495" lon="1.848089">
        <ele>139.0</ele>
        <time>2022-02-10T08:03:53Z</time>
      </trkpt>
      <trkpt lat="47.543495" lon="1.8480766">
        <ele>140.0</ele>
        <time>2022-02-10T08:03:54Z</time>
      </trkpt>
      <trkpt lat="47.54349" lon="1.8480661">
        <ele>141.0</ele>
        <time>2022-02-10T08:03:55Z</time>
      </trkpt>
      <trkpt lat="47.54349" lon="1.848058">
        <ele>141.0</ele>
        <time>2022-02-10T08:03:56Z</time>
      </trkpt>
      <trkpt lat="47.54349" lon="1.8480523">
        <ele>142.0</ele>
        <time>2022-02-10T08:03:57Z</time>
      </trkpt>
      <trkpt lat="47.54349" lon="1.8480523">
        <ele>142.0</ele>
        <time>2022-02-10T08:03:58Z</time>
      </trkpt>
      <trkpt lat="47.54349" lon="1.8480523">
        <ele>142.0</ele>
        <time>2022-02-10T08:03:59Z</time>
      </trkpt>
      <trkpt lat="47.543488" lon="1.8480284">
        <ele>142.0</ele>
        <time>2022-02-10T08:04:00Z</time>
      </trkpt>
      <trkpt lat="47.54348" lon="1.8480165">
        <ele>142.0</ele>
        <time>2022-02-10T08:04:01Z</time>
      </trkpt>
      <trkpt lat="47.543472" lon="1.8480031">
        <ele>142.0</ele>
        <time>2022-02-10T08:04:02Z</time>
      </trkpt>
      <trkpt lat="47.54347" lon="1.8479934">
        <ele>143.0</ele>
        <time>2022-02-10T08:04:03Z</time>
      </trkpt>
      <trkpt lat="47.54347" lon="1.8479786">
        <ele>143.0</ele>
        <time>2022-02-10T08:04:04Z</time>
      </trkpt>
      <trkpt lat="47.54347" lon="1.8479643">
        <ele>143.0</ele>
        <time>2022-02-10T08:04:05Z</time>
      </trkpt>
      <trkpt lat="47.54347" lon="1.847949">
        <ele>143.0</ele>
        <time>2022-02-10T08:04:06Z</time>
      </trkpt>
      <trkpt lat="47.54347" lon="1.8479255">
        <ele>143.0</ele>
        <time>2022-02-10T08:04:07Z</time>
      </trkpt>
      <trkpt lat="47.54347" lon="1.8479079">
        <ele>143.0</ele>
        <time>2022-02-10T08:04:08Z</time>
      </trkpt>
      <trkpt lat="47.543465" lon="1.8478895">
        <ele>143.0</ele>
        <time>2022-02-10T08:04:09Z</time>
      </trkpt>
      <trkpt lat="47.543465" lon="1.8478721">
        <ele>142.0</ele>
        <time>2022-02-10T08:04:10Z</time>
      </trkpt>
      <trkpt lat="47.54346" lon="1.8478603">
        <ele>142.0</ele>
        <time>2022-02-10T08:04:11Z</time>
      </trkpt>
      <trkpt lat="47.54346" lon="1.8478516">
        <ele>142.0</ele>
        <time>2022-02-10T08:04:12Z</time>
      </trkpt>
      <trkpt lat="47.543457" lon="1.84784">
        <ele>142.0</ele>
        <time>2022-02-10T08:04:13Z</time>
      </trkpt>
      <trkpt lat="47.543453" lon="1.8478271">
        <ele>142.0</ele>
        <time>2022-02-10T08:04:14Z</time>
      </trkpt>
      <trkpt lat="47.54345" lon="1.8478123">
        <ele>142.0</ele>
        <time>2022-02-10T08:04:15Z</time>
      </trkpt>
      <trkpt lat="47.54345" lon="1.8477966">
        <ele>143.0</ele>
        <time>2022-02-10T08:04:16Z</time>
      </trkpt>
      <trkpt lat="47.543446" lon="1.8477858">
        <ele>143.0</ele>
        <time>2022-02-10T08:04:17Z</time>
      </trkpt>
      <trkpt lat="47.543438" lon="1.8477712">
        <ele>143.0</ele>
        <time>2022-02-10T08:04:18Z</time>
      </trkpt>
      <trkpt lat="47.54343" lon="1.8477601">
        <ele>143.0</ele>
        <time>2022-02-10T08:04:19Z</time>
      </trkpt>
      <trkpt lat="47.54342" lon="1.8477565">
        <ele>142.0</ele>
        <time>2022-02-10T08:04:20Z</time>
      </trkpt>
      <trkpt lat="47.54341" lon="1.8477564">
        <ele>141.0</ele>
        <time>2022-02-10T08:04:21Z</time>
      </trkpt>
      <trkpt lat="47.5434" lon="1.8477592">
        <ele>141.0</ele>
        <time>2022-02-10T08:04:22Z</time>
      </trkpt>
      <trkpt lat="47.54339" lon="1.8477615">
        <ele>141.0</ele>
        <time>2022-02-10T08:04:23Z</time>
      </trkpt>
      <trkpt lat="47.54338" lon="1.8477634">
        <ele>141.0</ele>
        <time>2022-02-10T08:04:24Z</time>
      </trkpt>
      <trkpt lat="47.543373" lon="1.8477685">
        <ele>140.0</ele>
        <time>2022-02-10T08:04:25Z</time>
      </trkpt>
      <trkpt lat="47.543365" lon="1.847777">
        <ele>141.0</ele>
        <time>2022-02-10T08:04:26Z</time>
      </trkpt>
      <trkpt lat="47.543358" lon="1.8477832">
        <ele>141.0</ele>
        <time>2022-02-10T08:04:27Z</time>
      </trkpt>
      <trkpt lat="47.54335" lon="1.8477917">
        <ele>141.0</ele>
        <time>2022-02-10T08:04:28Z</time>
      </trkpt>
      <trkpt lat="47.54334" lon="1.8477968">
        <ele>140.0</ele>
        <time>2022-02-10T08:04:29Z</time>
      </trkpt>
      <trkpt lat="47.543324" lon="1.8478042">
        <ele>140.0</ele>
        <time>2022-02-10T08:04:30Z</time>
      </trkpt>
      <trkpt lat="47.543316" lon="1.8478141">
        <ele>139.0</ele>
        <time>2022-02-10T08:04:31Z</time>
      </trkpt>
      <trkpt lat="47.543304" lon="1.8478229">
        <ele>139.0</ele>
        <time>2022-02-10T08:04:32Z</time>
      </trkpt>
      <trkpt lat="47.543297" lon="1.8478298">
        <ele>139.0</ele>
        <time>2022-02-10T08:04:33Z</time>
      </trkpt>
      <trkpt lat="47.543285" lon="1.8478373">
        <ele>139.0</ele>
        <time>2022-02-10T08:04:34Z</time>
      </trkpt>
      <trkpt lat="47.543274" lon="1.8478397">
        <ele>139.0</ele>
        <time>2022-02-10T08:04:35Z</time>
      </trkpt>
      <trkpt lat="47.54327" lon="1.8478405">
        <ele>139.0</ele>
        <time>2022-02-10T08:04:36Z</time>
      </trkpt>
      <trkpt lat="47.54326" lon="1.8478488">
        <ele>139.0</ele>
        <time>2022-02-10T08:04:37Z</time>
      </trkpt>
      <trkpt lat="47.543247" lon="1.847855">
        <ele>139.0</ele>
        <time>2022-02-10T08:04:38Z</time>
      </trkpt>
      <trkpt lat="47.543236" lon="1.8478601">
        <ele>139.0</ele>
        <time>2022-02-10T08:04:39Z</time>
      </trkpt>
      <trkpt lat="47.54322" lon="1.8478659">
        <ele>138.0</ele>
        <time>2022-02-10T08:04:40Z</time>
      </trkpt>
      <trkpt lat="47.54321" lon="1.847869">
        <ele>138.0</ele>
        <time>2022-02-10T08:04:41Z</time>
      </trkpt>
      <trkpt lat="47.5432" lon="1.8478726">
        <ele>138.0</ele>
        <time>2022-02-10T08:04:42Z</time>
      </trkpt>
      <trkpt lat="47.543194" lon="1.8478785">
        <ele>138.0</ele>
        <time>2022-02-10T08:04:43Z</time>
      </trkpt>
      <trkpt lat="47.543186" lon="1.8478876">
        <ele>138.0</ele>
        <time>2022-02-10T08:04:44Z</time>
      </trkpt>
      <trkpt lat="47.543175" lon="1.8478905">
        <ele>138.0</ele>
        <time>2022-02-10T08:04:45Z</time>
      </trkpt>
      <trkpt lat="47.543167" lon="1.8478954">
        <ele>137.0</ele>
        <time>2022-02-10T08:04:46Z</time>
      </trkpt>
      <trkpt lat="47.543156" lon="1.8479017">
        <ele>138.0</ele>
        <time>2022-02-10T08:04:47Z</time>
      </trkpt>
      <trkpt lat="47.543144" lon="1.8479089">
        <ele>138.0</ele>
        <time>2022-02-10T08:04:48Z</time>
      </trkpt>
      <trkpt lat="47.543133" lon="1.8479185">
        <ele>138.0</ele>
        <time>2022-02-10T08:04:49Z</time>
      </trkpt>
      <trkpt lat="47.543125" lon="1.8479296">
        <ele>137.0</ele>
        <time>2022-02-10T08:04:50Z</time>
      </trkpt>
      <trkpt lat="47.543118" lon="1.8479344">
        <ele>138.0</ele>
        <time>2022-02-10T08:04:51Z</time>
      </trkpt>
      <trkpt lat="47.543106" lon="1.8479441">
        <ele>138.0</ele>
        <time>2022-02-10T08:04:52Z</time>
      </trkpt>
      <trkpt lat="47.5431" lon="1.8479538">
        <ele>138.0</ele>
        <time>2022-02-10T08:04:53Z</time>
      </trkpt>
      <trkpt lat="47.54309" lon="1.84796">
        <ele>138.0</ele>
        <time>2022-02-10T08:04:54Z</time>
      </trkpt>
      <trkpt lat="47.54308" lon="1.8479699">
        <ele>137.0</ele>
        <time>2022-02-10T08:04:55Z</time>
      </trkpt>
      <trkpt lat="47.54307" lon="1.8479755">
        <ele>138.0</ele>
        <time>2022-02-10T08:04:56Z</time>
      </trkpt>
      <trkpt lat="47.543064" lon="1.8479806">
        <ele>137.0</ele>
        <time>2022-02-10T08:04:57Z</time>
      </trkpt>
      <trkpt lat="47.543056" lon="1.8479846">
        <ele>137.0</ele>
        <time>2022-02-10T08:04:58Z</time>
      </trkpt>
      <trkpt lat="47.54305" lon="1.847985">
        <ele>137.0</ele>
        <time>2022-02-10T08:04:59Z</time>
      </trkpt>
      <trkpt lat="47.543037" lon="1.8479908">
        <ele>137.0</ele>
        <time>2022-02-10T08:05:00Z</time>
      </trkpt>
      <trkpt lat="47.54303" lon="1.8479939">
        <ele>137.0</ele>
        <time>2022-02-10T08:05:01Z</time>
      </trkpt>
      <trkpt lat="47.54302" lon="1.8479966">
        <ele>137.0</ele>
        <time>2022-02-10T08:05:02Z</time>
      </trkpt>
      <trkpt lat="47.54301" lon="1.8479998">
        <ele>137.0</ele>
        <time>2022-02-10T08:05:03Z</time>
      </trkpt>
      <trkpt lat="47.543003" lon="1.8480048">
        <ele>137.0</ele>
        <time>2022-02-10T08:05:04Z</time>
      </trkpt>
      <trkpt lat="47.54299" lon="1.8480145">
        <ele>136.0</ele>
        <time>2022-02-10T08:05:05Z</time>
      </trkpt>
      <trkpt lat="47.54298" lon="1.848026">
        <ele>136.0</ele>
        <time>2022-02-10T08:05:06Z</time>
      </trkpt>
      <trkpt lat="47.54297" lon="1.8480338">
        <ele>136.0</ele>
        <time>2022-02-10T08:05:07Z</time>
      </trkpt>
      <trkpt lat="47.54296" lon="1.8480415">
        <ele>136.0</ele>
        <time>2022-02-10T08:05:08Z</time>
      </trkpt>
      <trkpt lat="47.54295" lon="1.8480505">
        <ele>136.0</ele>
        <time>2022-02-10T08:05:09Z</time>
      </trkpt>
      <trkpt lat="47.54294" lon="1.8480552">
        <ele>136.0</ele>
        <time>2022-02-10T08:05:10Z</time>
      </trkpt>
      <trkpt lat="47.542923" lon="1.8480587">
        <ele>136.0</ele>
        <time>2022-02-10T08:05:11Z</time>
      </trkpt>
      <trkpt lat="47.542915" lon="1.8480661">
        <ele>136.0</ele>
        <time>2022-02-10T08:05:12Z</time>
      </trkpt>
      <trkpt lat="47.542904" lon="1.8480755">
        <ele>136.0</ele>
        <time>2022-02-10T08:05:13Z</time>
      </trkpt>
      <trkpt lat="47.542892" lon="1.8480831">
        <ele>136.0</ele>
        <time>2022-02-10T08:05:14Z</time>
      </trkpt>
      <trkpt lat="47.54288" lon="1.848091">
        <ele>136.0</ele>
        <time>2022-02-10T08:05:15Z</time>
      </trkpt>
      <trkpt lat="47.54287" lon="1.8480976">
        <ele>136.0</ele>
        <time>2022-02-10T08:05:16Z</time>
      </trkpt>
      <trkpt lat="47.54286" lon="1.8481095">
        <ele>136.0</ele>
        <time>2022-02-10T08:05:17Z</time>
      </trkpt>
      <trkpt lat="47.54285" lon="1.8481206">
        <ele>136.0</ele>
        <time>2022-02-10T08:05:18Z</time>
      </trkpt>
      <trkpt lat="47.54284" lon="1.8481323">
        <ele>136.0</ele>
        <time>2022-02-10T08:05:19Z</time>
      </trkpt>
      <trkpt lat="47.542828" lon="1.8481418">
        <ele>136.0</ele>
        <time>2022-02-10T08:05:20Z</time>
      </trkpt>
      <trkpt lat="47.54282" lon="1.8481511">
        <ele>136.0</ele>
        <time>2022-02-10T08:05:21Z</time>
      </trkpt>
      <trkpt lat="47.542805" lon="1.8481553">
        <ele>136.0</ele>
        <time>2022-02-10T08:05:22Z</time>
      </trkpt>
      <trkpt lat="47.542793" lon="1.8481627">
        <ele>135.0</ele>
        <time>2022-02-10T08:05:23Z</time>
      </trkpt>
      <trkpt lat="47.542786" lon="1.8481662">
        <ele>135.0</ele>
        <time>2022-02-10T08:05:24Z</time>
      </trkpt>
      <trkpt lat="47.542774" lon="1.8481675">
        <ele>136.0</ele>
        <time>2022-02-10T08:05:25Z</time>
      </trkpt>
      <trkpt lat="47.542767" lon="1.84817">
        <ele>136.0</ele>
        <time>2022-02-10T08:05:26Z</time>
      </trkpt>
      <trkpt lat="47.542755" lon="1.8481771">
        <ele>137.0</ele>
        <time>2022-02-10T08:05:27Z</time>
      </trkpt>
      <trkpt lat="47.542744" lon="1.8481874">
        <ele>137.0</ele>
        <time>2022-02-10T08:05:28Z</time>
      </trkpt>
      <trkpt lat="47.542736" lon="1.8481984">
        <ele>137.0</ele>
        <time>2022-02-10T08:05:29Z</time>
      </trkpt>
      <trkpt lat="47.54273" lon="1.8482068">
        <ele>137.0</ele>
        <time>2022-02-10T08:05:30Z</time>
      </trkpt>
      <trkpt lat="47.54272" lon="1.8482152">
        <ele>137.0</ele>
        <time>2022-02-10T08:05:31Z</time>
      </trkpt>
      <trkpt lat="47.54271" lon="1.8482203">
        <ele>137.0</ele>
        <time>2022-02-10T08:05:32Z</time>
      </trkpt>
      <trkpt lat="47.542698" lon="1.8482239">
        <ele>137.0</ele>
        <time>2022-02-10T08:05:33Z</time>
      </trkpt>
      <trkpt lat="47.542686" lon="1.848233">
        <ele>137.0</ele>
        <time>2022-02-10T08:05:34Z</time>
      </trkpt>
      <trkpt lat="47.54268" lon="1.8482432">
        <ele>137.0</ele>
        <time>2022-02-10T08:05:35Z</time>
      </trkpt>
      <trkpt lat="47.542667" lon="1.8482503">
        <ele>137.0</ele>
        <time>2022-02-10T08:05:36Z</time>
      </trkpt>
      <trkpt lat="47.54266" lon="1.8482606">
        <ele>137.0</ele>
        <time>2022-02-10T08:05:37Z</time>
      </trkpt>
      <trkpt lat="47.54265" lon="1.8482695">
        <ele>137.0</ele>
        <time>2022-02-10T08:05:38Z</time>
      </trkpt>
      <trkpt lat="47.54264" lon="1.848277">
        <ele>137.0</ele>
        <time>2022-02-10T08:05:39Z</time>
      </trkpt>
      <trkpt lat="47.54263" lon="1.8482835">
        <ele>137.0</ele>
        <time>2022-02-10T08:05:40Z</time>
      </trkpt>
      <trkpt lat="47.542618" lon="1.8482885">
        <ele>137.0</ele>
        <time>2022-02-10T08:05:41Z</time>
      </trkpt>
      <trkpt lat="47.54261" lon="1.8482921">
        <ele>137.0</ele>
        <time>2022-02-10T08:05:42Z</time>
      </trkpt>
      <trkpt lat="47.5426" lon="1.8482994">
        <ele>137.0</ele>
        <time>2022-02-10T08:05:43Z</time>
      </trkpt>
      <trkpt lat="47.54259" lon="1.8483078">
        <ele>137.0</ele>
        <time>2022-02-10T08:05:44Z</time>
      </trkpt>
      <trkpt lat="47.54258" lon="1.8483115">
        <ele>137.0</ele>
        <time>2022-02-10T08:05:45Z</time>
      </trkpt>
      <trkpt lat="47.542572" lon="1.8483164">
        <ele>137.0</ele>
        <time>2022-02-10T08:05:46Z</time>
      </trkpt>
      <trkpt lat="47.54256" lon="1.8483213">
        <ele>138.0</ele>
        <time>2022-02-10T08:05:47Z</time>
      </trkpt>
      <trkpt lat="47.54255" lon="1.8483268">
        <ele>138.0</ele>
        <time>2022-02-10T08:05:48Z</time>
      </trkpt>
      <trkpt lat="47.54254" lon="1.8483342">
        <ele>137.0</ele>
        <time>2022-02-10T08:05:49Z</time>
      </trkpt>
      <trkpt lat="47.54253" lon="1.8483406">
        <ele>137.0</ele>
        <time>2022-02-10T08:05:50Z</time>
      </trkpt>
      <trkpt lat="47.54252" lon="1.8483499">
        <ele>137.0</ele>
        <time>2022-02-10T08:05:51Z</time>
      </trkpt>
      <trkpt lat="47.542507" lon="1.8483585">
        <ele>137.0</ele>
        <time>2022-02-10T08:05:52Z</time>
      </trkpt>
      <trkpt lat="47.542496" lon="1.8483663">
        <ele>137.0</ele>
        <time>2022-02-10T08:05:53Z</time>
      </trkpt>
      <trkpt lat="47.542484" lon="1.8483764">
        <ele>137.0</ele>
        <time>2022-02-10T08:05:54Z</time>
      </trkpt>
      <trkpt lat="47.542473" lon="1.8483812">
        <ele>136.0</ele>
        <time>2022-02-10T08:05:55Z</time>
      </trkpt>
      <trkpt lat="47.54247" lon="1.8483882">
        <ele>137.0</ele>
        <time>2022-02-10T08:05:56Z</time>
      </trkpt>
      <trkpt lat="47.542458" lon="1.8483928">
        <ele>137.0</ele>
        <time>2022-02-10T08:05:57Z</time>
      </trkpt>
      <trkpt lat="47.54245" lon="1.8484011">
        <ele>136.0</ele>
        <time>2022-02-10T08:05:58Z</time>
      </trkpt>
      <trkpt lat="47.542442" lon="1.8484063">
        <ele>137.0</ele>
        <time>2022-02-10T08:05:59Z</time>
      </trkpt>
      <trkpt lat="47.54243" lon="1.8484108">
        <ele>137.0</ele>
        <time>2022-02-10T08:06:00Z</time>
      </trkpt>
      <trkpt lat="47.54242" lon="1.848418">
        <ele>137.0</ele>
        <time>2022-02-10T08:06:01Z</time>
      </trkpt>
      <trkpt lat="47.542408" lon="1.848422">
        <ele>137.0</ele>
        <time>2022-02-10T08:06:02Z</time>
      </trkpt>
      <trkpt lat="47.5424" lon="1.8484287">
        <ele>137.0</ele>
        <time>2022-02-10T08:06:03Z</time>
      </trkpt>
      <trkpt lat="47.54239" lon="1.8484341">
        <ele>136.0</ele>
        <time>2022-02-10T08:06:04Z</time>
      </trkpt>
      <trkpt lat="47.542377" lon="1.8484379">
        <ele>136.0</ele>
        <time>2022-02-10T08:06:05Z</time>
      </trkpt>
      <trkpt lat="47.54237" lon="1.8484414">
        <ele>136.0</ele>
        <time>2022-02-10T08:06:06Z</time>
      </trkpt>
      <trkpt lat="47.542355" lon="1.8484447">
        <ele>136.0</ele>
        <time>2022-02-10T08:06:07Z</time>
      </trkpt>
      <trkpt lat="47.542347" lon="1.8484526">
        <ele>136.0</ele>
        <time>2022-02-10T08:06:08Z</time>
      </trkpt>
      <trkpt lat="47.54234" lon="1.8484595">
        <ele>136.0</ele>
        <time>2022-02-10T08:06:09Z</time>
      </trkpt>
      <trkpt lat="47.542328" lon="1.8484669">
        <ele>135.0</ele>
        <time>2022-02-10T08:06:10Z</time>
      </trkpt>
      <trkpt lat="47.542316" lon="1.8484755">
        <ele>135.0</ele>
        <time>2022-02-10T08:06:11Z</time>
      </trkpt>
      <trkpt lat="47.54231" lon="1.8484834">
        <ele>135.0</ele>
        <time>2022-02-10T08:06:12Z</time>
      </trkpt>
      <trkpt lat="47.542294" lon="1.8484856">
        <ele>135.0</ele>
        <time>2022-02-10T08:06:13Z</time>
      </trkpt>
      <trkpt lat="47.54229" lon="1.8484919">
        <ele>136.0</ele>
        <time>2022-02-10T08:06:14Z</time>
      </trkpt>
      <trkpt lat="47.542282" lon="1.8484982">
        <ele>135.0</ele>
        <time>2022-02-10T08:06:15Z</time>
      </trkpt>
      <trkpt lat="47.542274" lon="1.8485051">
        <ele>135.0</ele>
        <time>2022-02-10T08:06:16Z</time>
      </trkpt>
      <trkpt lat="47.542267" lon="1.8485053">
        <ele>136.0</ele>
        <time>2022-02-10T08:06:17Z</time>
      </trkpt>
      <trkpt lat="47.54226" lon="1.8485042">
        <ele>136.0</ele>
        <time>2022-02-10T08:06:18Z</time>
      </trkpt>
      <trkpt lat="47.542248" lon="1.8485012">
        <ele>136.0</ele>
        <time>2022-02-10T08:06:19Z</time>
      </trkpt>
      <trkpt lat="47.54224" lon="1.8485001">
        <ele>136.0</ele>
        <time>2022-02-10T08:06:20Z</time>
      </trkpt>
      <trkpt lat="47.542233" lon="1.8484926">
        <ele>136.0</ele>
        <time>2022-02-10T08:06:21Z</time>
      </trkpt>
      <trkpt lat="47.54222" lon="1.8484834">
        <ele>136.0</ele>
        <time>2022-02-10T08:06:22Z</time>
      </trkpt>
      <trkpt lat="47.542213" lon="1.848473">
        <ele>136.0</ele>
        <time>2022-02-10T08:06:23Z</time>
      </trkpt>
      <trkpt lat="47.542206" lon="1.8484594">
        <ele>137.0</ele>
        <time>2022-02-10T08:06:24Z</time>
      </trkpt>
      <trkpt lat="47.542202" lon="1.8484414">
        <ele>137.0</ele>
        <time>2022-02-10T08:06:25Z</time>
      </trkpt>
      <trkpt lat="47.54219" lon="1.8484306">
        <ele>137.0</ele>
        <time>2022-02-10T08:06:26Z</time>
      </trkpt>
      <trkpt lat="47.542187" lon="1.84842">
        <ele>137.0</ele>
        <time>2022-02-10T08:06:27Z</time>
      </trkpt>
      <trkpt lat="47.542175" lon="1.8484092">
        <ele>138.0</ele>
        <time>2022-02-10T08:06:28Z</time>
      </trkpt>
      <trkpt lat="47.542168" lon="1.8483974">
        <ele>138.0</ele>
        <time>2022-02-10T08:06:29Z</time>
      </trkpt>
      <trkpt lat="47.54216" lon="1.8483865">
        <ele>138.0</ele>
        <time>2022-02-10T08:06:30Z</time>
      </trkpt>
      <trkpt lat="47.542152" lon="1.8483751">
        <ele>137.0</ele>
        <time>2022-02-10T08:06:31Z</time>
      </trkpt>
      <trkpt lat="47.54214" lon="1.8483644">
        <ele>137.0</ele>
        <time>2022-02-10T08:06:32Z</time>
      </trkpt>
      <trkpt lat="47.542133" lon="1.8483542">
        <ele>137.0</ele>
        <time>2022-02-10T08:06:33Z</time>
      </trkpt>
      <trkpt lat="47.54212" lon="1.8483435">
        <ele>137.0</ele>
        <time>2022-02-10T08:06:34Z</time>
      </trkpt>
      <trkpt lat="47.542103" lon="1.8483235">
        <ele>137.0</ele>
        <time>2022-02-10T08:06:35Z</time>
      </trkpt>
      <trkpt lat="47.542103" lon="1.8483235">
        <ele>137.0</ele>
        <time>2022-02-10T08:06:35Z</time>
      </trkpt>
      <trkpt lat="47.542095" lon="1.8483166">
        <ele>138.0</ele>
        <time>2022-02-10T08:06:37Z</time>
      </trkpt>
      <trkpt lat="47.542084" lon="1.8483069">
        <ele>138.0</ele>
        <time>2022-02-10T08:06:38Z</time>
      </trkpt>
      <trkpt lat="47.542076" lon="1.8482972">
        <ele>138.0</ele>
        <time>2022-02-10T08:06:39Z</time>
      </trkpt>
      <trkpt lat="47.542065" lon="1.848288">
        <ele>138.0</ele>
        <time>2022-02-10T08:06:40Z</time>
      </trkpt>
      <trkpt lat="47.542053" lon="1.8482732">
        <ele>139.0</ele>
        <time>2022-02-10T08:06:41Z</time>
      </trkpt>
      <trkpt lat="47.542046" lon="1.8482579">
        <ele>139.0</ele>
        <time>2022-02-10T08:06:42Z</time>
      </trkpt>
      <trkpt lat="47.542038" lon="1.8482524">
        <ele>139.0</ele>
        <time>2022-02-10T08:06:43Z</time>
      </trkpt>
      <trkpt lat="47.54203" lon="1.8482425">
        <ele>139.0</ele>
        <time>2022-02-10T08:06:44Z</time>
      </trkpt>
      <trkpt lat="47.542023" lon="1.8482299">
        <ele>140.0</ele>
        <time>2022-02-10T08:06:45Z</time>
      </trkpt>
      <trkpt lat="47.54201" lon="1.8482181">
        <ele>140.0</ele>
        <time>2022-02-10T08:06:46Z</time>
      </trkpt>
      <trkpt lat="47.542007" lon="1.8482056">
        <ele>140.0</ele>
        <time>2022-02-10T08:06:47Z</time>
      </trkpt>
      <trkpt lat="47.542" lon="1.8481919">
        <ele>140.0</ele>
        <time>2022-02-10T08:06:48Z</time>
      </trkpt>
      <trkpt lat="47.54199" lon="1.8481803">
        <ele>140.0</ele>
        <time>2022-02-10T08:06:49Z</time>
      </trkpt>
      <trkpt lat="47.541977" lon="1.8481766">
        <ele>141.0</ele>
        <time>2022-02-10T08:06:50Z</time>
      </trkpt>
      <trkpt lat="47.541965" lon="1.8481663">
        <ele>141.0</ele>
        <time>2022-02-10T08:06:51Z</time>
      </trkpt>
      <trkpt lat="47.54195" lon="1.8481407">
        <ele>141.0</ele>
        <time>2022-02-10T08:06:52Z</time>
      </trkpt>
      <trkpt lat="47.54195" lon="1.8481407">
        <ele>141.0</ele>
        <time>2022-02-10T08:06:52Z</time>
      </trkpt>
      <trkpt lat="47.54193" lon="1.8481174">
        <ele>141.0</ele>
        <time>2022-02-10T08:06:54Z</time>
      </trkpt>
      <trkpt lat="47.541916" lon="1.8481063">
        <ele>141.0</ele>
        <time>2022-02-10T08:06:55Z</time>
      </trkpt>
      <trkpt lat="47.54191" lon="1.8480967">
        <ele>141.0</ele>
        <time>2022-02-10T08:06:56Z</time>
      </trkpt>
      <trkpt lat="47.54191" lon="1.8480967">
        <ele>141.0</ele>
        <time>2022-02-10T08:06:56Z</time>
      </trkpt>
      <trkpt lat="47.54189" lon="1.8480814">
        <ele>141.0</ele>
        <time>2022-02-10T08:06:58Z</time>
      </trkpt>
      <trkpt lat="47.54188" lon="1.8480659">
        <ele>141.0</ele>
        <time>2022-02-10T08:06:59Z</time>
      </trkpt>
      <trkpt lat="47.54187" lon="1.848054">
        <ele>142.0</ele>
        <time>2022-02-10T08:07:01Z</time>
      </trkpt>
      <trkpt lat="47.541862" lon="1.8480436">
        <ele>142.0</ele>
        <time>2022-02-10T08:07:02Z</time>
      </trkpt>
      <trkpt lat="47.541855" lon="1.84803">
        <ele>142.0</ele>
        <time>2022-02-10T08:07:03Z</time>
      </trkpt>
      <trkpt lat="47.541855" lon="1.84803">
        <ele>142.0</ele>
        <time>2022-02-10T08:07:03Z</time>
      </trkpt>
      <trkpt lat="47.541836" lon="1.8479962">
        <ele>142.0</ele>
        <time>2022-02-10T08:07:05Z</time>
      </trkpt>
      <trkpt lat="47.541832" lon="1.8479819">
        <ele>143.0</ele>
        <time>2022-02-10T08:07:06Z</time>
      </trkpt>
      <trkpt lat="47.54182" lon="1.8479708">
        <ele>143.0</ele>
        <time>2022-02-10T08:07:07Z</time>
      </trkpt>
      <trkpt lat="47.541813" lon="1.8479632">
        <ele>143.0</ele>
        <time>2022-02-10T08:07:08Z</time>
      </trkpt>
      <trkpt lat="47.541805" lon="1.847957">
        <ele>143.0</ele>
        <time>2022-02-10T08:07:09Z</time>
      </trkpt>
      <trkpt lat="47.541798" lon="1.8479487">
        <ele>143.0</ele>
        <time>2022-02-10T08:07:10Z</time>
      </trkpt>
      <trkpt lat="47.541786" lon="1.8479396">
        <ele>143.0</ele>
        <time>2022-02-10T08:07:11Z</time>
      </trkpt>
      <trkpt lat="47.541786" lon="1.8479396">
        <ele>143.0</ele>
        <time>2022-02-10T08:07:11Z</time>
      </trkpt>
      <trkpt lat="47.541775" lon="1.8479189">
        <ele>144.0</ele>
        <time>2022-02-10T08:07:13Z</time>
      </trkpt>
      <trkpt lat="47.541767" lon="1.8479118">
        <ele>144.0</ele>
        <time>2022-02-10T08:07:14Z</time>
      </trkpt>
      <trkpt lat="47.54176" lon="1.8479004">
        <ele>144.0</ele>
        <time>2022-02-10T08:07:15Z</time>
      </trkpt>
      <trkpt lat="47.54175" lon="1.8478885">
        <ele>145.0</ele>
        <time>2022-02-10T08:07:16Z</time>
      </trkpt>
      <trkpt lat="47.54174" lon="1.8478675">
        <ele>145.0</ele>
        <time>2022-02-10T08:07:17Z</time>
      </trkpt>
      <trkpt lat="47.541733" lon="1.8478507">
        <ele>145.0</ele>
        <time>2022-02-10T08:07:18Z</time>
      </trkpt>
      <trkpt lat="47.541725" lon="1.8478384">
        <ele>146.0</ele>
        <time>2022-02-10T08:07:19Z</time>
      </trkpt>
      <trkpt lat="47.541718" lon="1.8478261">
        <ele>146.0</ele>
        <time>2022-02-10T08:07:20Z</time>
      </trkpt>
      <trkpt lat="47.54171" lon="1.8478146">
        <ele>146.0</ele>
        <time>2022-02-10T08:07:21Z</time>
      </trkpt>
      <trkpt lat="47.541702" lon="1.8478037">
        <ele>146.0</ele>
        <time>2022-02-10T08:07:22Z</time>
      </trkpt>
      <trkpt lat="47.541695" lon="1.8477912">
        <ele>146.0</ele>
        <time>2022-02-10T08:07:23Z</time>
      </trkpt>
      <trkpt lat="47.54169" lon="1.8477821">
        <ele>146.0</ele>
        <time>2022-02-10T08:07:24Z</time>
      </trkpt>
      <trkpt lat="47.541683" lon="1.8477794">
        <ele>145.0</ele>
        <time>2022-02-10T08:07:25Z</time>
      </trkpt>
      <trkpt lat="47.541676" lon="1.8477743">
        <ele>145.0</ele>
        <time>2022-02-10T08:07:26Z</time>
      </trkpt>
      <trkpt lat="47.54167" lon="1.8477657">
        <ele>144.0</ele>
        <time>2022-02-10T08:07:27Z</time>
      </trkpt>
      <trkpt lat="47.541664" lon="1.8477566">
        <ele>144.0</ele>
        <time>2022-02-10T08:07:28Z</time>
      </trkpt>
      <trkpt lat="47.541656" lon="1.8477486">
        <ele>144.0</ele>
        <time>2022-02-10T08:07:29Z</time>
      </trkpt>
      <trkpt lat="47.54165" lon="1.8477342">
        <ele>144.0</ele>
        <time>2022-02-10T08:07:30Z</time>
      </trkpt>
      <trkpt lat="47.54164" lon="1.8477204">
        <ele>144.0</ele>
        <time>2022-02-10T08:07:31Z</time>
      </trkpt>
      <trkpt lat="47.54163" lon="1.8477055">
        <ele>144.0</ele>
        <time>2022-02-10T08:07:32Z</time>
      </trkpt>
      <trkpt lat="47.541626" lon="1.8476887">
        <ele>144.0</ele>
        <time>2022-02-10T08:07:33Z</time>
      </trkpt>
      <trkpt lat="47.541622" lon="1.8476732">
        <ele>144.0</ele>
        <time>2022-02-10T08:07:34Z</time>
      </trkpt>
      <trkpt lat="47.541615" lon="1.8476598">
        <ele>144.0</ele>
        <time>2022-02-10T08:07:35Z</time>
      </trkpt>
      <trkpt lat="47.541603" lon="1.8476481">
        <ele>144.0</ele>
        <time>2022-02-10T08:07:36Z</time>
      </trkpt>
      <trkpt lat="47.541595" lon="1.8476303">
        <ele>145.0</ele>
        <time>2022-02-10T08:07:37Z</time>
      </trkpt>
      <trkpt lat="47.541584" lon="1.8476201">
        <ele>144.0</ele>
        <time>2022-02-10T08:07:38Z</time>
      </trkpt>
      <trkpt lat="47.541576" lon="1.8476115">
        <ele>144.0</ele>
        <time>2022-02-10T08:07:39Z</time>
      </trkpt>
      <trkpt lat="47.54157" lon="1.8476034">
        <ele>144.0</ele>
        <time>2022-02-10T08:07:40Z</time>
      </trkpt>
      <trkpt lat="47.541565" lon="1.8475888">
        <ele>144.0</ele>
        <time>2022-02-10T08:07:41Z</time>
      </trkpt>
      <trkpt lat="47.541553" lon="1.8475776">
        <ele>145.0</ele>
        <time>2022-02-10T08:07:42Z</time>
      </trkpt>
      <trkpt lat="47.541546" lon="1.8475692">
        <ele>145.0</ele>
        <time>2022-02-10T08:07:43Z</time>
      </trkpt>
      <trkpt lat="47.54154" lon="1.8475622">
        <ele>145.0</ele>
        <time>2022-02-10T08:07:44Z</time>
      </trkpt>
      <trkpt lat="47.541534" lon="1.8475494">
        <ele>144.0</ele>
        <time>2022-02-10T08:07:45Z</time>
      </trkpt>
      <trkpt lat="47.541527" lon="1.8475369">
        <ele>144.0</ele>
        <time>2022-02-10T08:07:46Z</time>
      </trkpt>
      <trkpt lat="47.54152" lon="1.8475231">
        <ele>144.0</ele>
        <time>2022-02-10T08:07:47Z</time>
      </trkpt>
      <trkpt lat="47.541504" lon="1.8475053">
        <ele>145.0</ele>
        <time>2022-02-10T08:07:48Z</time>
      </trkpt>
      <trkpt lat="47.541492" lon="1.8474911">
        <ele>145.0</ele>
        <time>2022-02-10T08:07:49Z</time>
      </trkpt>
      <trkpt lat="47.541477" lon="1.8474648">
        <ele>145.0</ele>
        <time>2022-02-10T08:07:51Z</time>
      </trkpt>
      <trkpt lat="47.541462" lon="1.8474485">
        <ele>145.0</ele>
        <time>2022-02-10T08:07:53Z</time>
      </trkpt>
      <trkpt lat="47.54145" lon="1.847438">
        <ele>145.0</ele>
        <time>2022-02-10T08:07:54Z</time>
      </trkpt>
      <trkpt lat="47.541443" lon="1.8474282">
        <ele>146.0</ele>
        <time>2022-02-10T08:07:55Z</time>
      </trkpt>
      <trkpt lat="47.541435" lon="1.8474147">
        <ele>146.0</ele>
        <time>2022-02-10T08:07:56Z</time>
      </trkpt>
      <trkpt lat="47.541424" lon="1.8474021">
        <ele>146.0</ele>
        <time>2022-02-10T08:07:57Z</time>
      </trkpt>
      <trkpt lat="47.54142" lon="1.8473852">
        <ele>147.0</ele>
        <time>2022-02-10T08:07:58Z</time>
      </trkpt>
      <trkpt lat="47.541412" lon="1.84737">
        <ele>147.0</ele>
        <time>2022-02-10T08:07:59Z</time>
      </trkpt>
      <trkpt lat="47.541405" lon="1.8473521">
        <ele>147.0</ele>
        <time>2022-02-10T08:08:00Z</time>
      </trkpt>
      <trkpt lat="47.541397" lon="1.8473365">
        <ele>147.0</ele>
        <time>2022-02-10T08:08:01Z</time>
      </trkpt>
      <trkpt lat="47.54139" lon="1.8473189">
        <ele>148.0</ele>
        <time>2022-02-10T08:08:02Z</time>
      </trkpt>
      <trkpt lat="47.54138" lon="1.847303">
        <ele>148.0</ele>
        <time>2022-02-10T08:08:03Z</time>
      </trkpt>
      <trkpt lat="47.541374" lon="1.8472881">
        <ele>148.0</ele>
        <time>2022-02-10T08:08:04Z</time>
      </trkpt>
      <trkpt lat="47.541367" lon="1.8472754">
        <ele>147.0</ele>
        <time>2022-02-10T08:08:05Z</time>
      </trkpt>
      <trkpt lat="47.541363" lon="1.8472626">
        <ele>147.0</ele>
        <time>2022-02-10T08:08:06Z</time>
      </trkpt>
      <trkpt lat="47.541355" lon="1.8472463">
        <ele>147.0</ele>
        <time>2022-02-10T08:08:07Z</time>
      </trkpt>
      <trkpt lat="47.541348" lon="1.8472327">
        <ele>147.0</ele>
        <time>2022-02-10T08:08:08Z</time>
      </trkpt>
      <trkpt lat="47.541344" lon="1.8472168">
        <ele>147.0</ele>
        <time>2022-02-10T08:08:09Z</time>
      </trkpt>
      <trkpt lat="47.54134" lon="1.8472081">
        <ele>148.0</ele>
        <time>2022-02-10T08:08:10Z</time>
      </trkpt>
      <trkpt lat="47.541336" lon="1.8471953">
        <ele>147.0</ele>
        <time>2022-02-10T08:08:11Z</time>
      </trkpt>
      <trkpt lat="47.541325" lon="1.8471832">
        <ele>147.0</ele>
        <time>2022-02-10T08:08:12Z</time>
      </trkpt>
      <trkpt lat="47.541317" lon="1.8471673">
        <ele>147.0</ele>
        <time>2022-02-10T08:08:13Z</time>
      </trkpt>
      <trkpt lat="47.541306" lon="1.8471586">
        <ele>146.0</ele>
        <time>2022-02-10T08:08:14Z</time>
      </trkpt>
      <trkpt lat="47.541298" lon="1.8471485">
        <ele>147.0</ele>
        <time>2022-02-10T08:08:15Z</time>
      </trkpt>
      <trkpt lat="47.541286" lon="1.8471364">
        <ele>147.0</ele>
        <time>2022-02-10T08:08:16Z</time>
      </trkpt>
      <trkpt lat="47.541283" lon="1.8471216">
        <ele>147.0</ele>
        <time>2022-02-10T08:08:17Z</time>
      </trkpt>
      <trkpt lat="47.54128" lon="1.8471065">
        <ele>146.0</ele>
        <time>2022-02-10T08:08:18Z</time>
      </trkpt>
      <trkpt lat="47.541275" lon="1.847093">
        <ele>146.0</ele>
        <time>2022-02-10T08:08:19Z</time>
      </trkpt>
      <trkpt lat="47.541267" lon="1.8470824">
        <ele>145.0</ele>
        <time>2022-02-10T08:08:20Z</time>
      </trkpt>
      <trkpt lat="47.541264" lon="1.8470684">
        <ele>145.0</ele>
        <time>2022-02-10T08:08:21Z</time>
      </trkpt>
      <trkpt lat="47.54126" lon="1.8470571">
        <ele>145.0</ele>
        <time>2022-02-10T08:08:22Z</time>
      </trkpt>
      <trkpt lat="47.541252" lon="1.8470469">
        <ele>145.0</ele>
        <time>2022-02-10T08:08:23Z</time>
      </trkpt>
      <trkpt lat="47.541245" lon="1.8470381">
        <ele>146.0</ele>
        <time>2022-02-10T08:08:24Z</time>
      </trkpt>
      <trkpt lat="47.54124" lon="1.8470278">
        <ele>146.0</ele>
        <time>2022-02-10T08:08:25Z</time>
      </trkpt>
      <trkpt lat="47.54123" lon="1.8470187">
        <ele>146.0</ele>
        <time>2022-02-10T08:08:26Z</time>
      </trkpt>
      <trkpt lat="47.54122" lon="1.8470052">
        <ele>146.0</ele>
        <time>2022-02-10T08:08:27Z</time>
      </trkpt>
      <trkpt lat="47.541218" lon="1.8469903">
        <ele>146.0</ele>
        <time>2022-02-10T08:08:28Z</time>
      </trkpt>
      <trkpt lat="47.541214" lon="1.8469781">
        <ele>147.0</ele>
        <time>2022-02-10T08:08:29Z</time>
      </trkpt>
      <trkpt lat="47.541203" lon="1.8469623">
        <ele>146.0</ele>
        <time>2022-02-10T08:08:30Z</time>
      </trkpt>
      <trkpt lat="47.541195" lon="1.846949">
        <ele>147.0</ele>
        <time>2022-02-10T08:08:31Z</time>
      </trkpt>
      <trkpt lat="47.541183" lon="1.8469377">
        <ele>146.0</ele>
        <time>2022-02-10T08:08:32Z</time>
      </trkpt>
      <trkpt lat="47.541176" lon="1.8469249">
        <ele>146.0</ele>
        <time>2022-02-10T08:08:33Z</time>
      </trkpt>
      <trkpt lat="47.541164" lon="1.8469152">
        <ele>146.0</ele>
        <time>2022-02-10T08:08:34Z</time>
      </trkpt>
      <trkpt lat="47.54116" lon="1.8469038">
        <ele>146.0</ele>
        <time>2022-02-10T08:08:35Z</time>
      </trkpt>
      <trkpt lat="47.541153" lon="1.8468925">
        <ele>146.0</ele>
        <time>2022-02-10T08:08:36Z</time>
      </trkpt>
      <trkpt lat="47.54115" lon="1.8468856">
        <ele>146.0</ele>
        <time>2022-02-10T08:08:37Z</time>
      </trkpt>
      <trkpt lat="47.541138" lon="1.8468832">
        <ele>146.0</ele>
        <time>2022-02-10T08:08:38Z</time>
      </trkpt>
      <trkpt lat="47.54113" lon="1.8468803">
        <ele>146.0</ele>
        <time>2022-02-10T08:08:39Z</time>
      </trkpt>
      <trkpt lat="47.541126" lon="1.8468807">
        <ele>147.0</ele>
        <time>2022-02-10T08:08:40Z</time>
      </trkpt>
      <trkpt lat="47.54112" lon="1.8468719">
        <ele>146.0</ele>
        <time>2022-02-10T08:08:41Z</time>
      </trkpt>
      <trkpt lat="47.54111" lon="1.8468562">
        <ele>146.0</ele>
        <time>2022-02-10T08:08:42Z</time>
      </trkpt>
      <trkpt lat="47.541107" lon="1.8468475">
        <ele>146.0</ele>
        <time>2022-02-10T08:08:43Z</time>
      </trkpt>
      <trkpt lat="47.541103" lon="1.8468406">
        <ele>146.0</ele>
        <time>2022-02-10T08:08:44Z</time>
      </trkpt>
      <trkpt lat="47.541096" lon="1.8468306">
        <ele>146.0</ele>
        <time>2022-02-10T08:08:45Z</time>
      </trkpt>
      <trkpt lat="47.54109" lon="1.8468153">
        <ele>146.0</ele>
        <time>2022-02-10T08:08:46Z</time>
      </trkpt>
      <trkpt lat="47.54108" lon="1.8467997">
        <ele>146.0</ele>
        <time>2022-02-10T08:08:47Z</time>
      </trkpt>
      <trkpt lat="47.541077" lon="1.8467841">
        <ele>146.0</ele>
        <time>2022-02-10T08:08:48Z</time>
      </trkpt>
      <trkpt lat="47.54107" lon="1.8467633">
        <ele>147.0</ele>
        <time>2022-02-10T08:08:49Z</time>
      </trkpt>
      <trkpt lat="47.54106" lon="1.8467491">
        <ele>147.0</ele>
        <time>2022-02-10T08:08:50Z</time>
      </trkpt>
      <trkpt lat="47.54105" lon="1.8467355">
        <ele>147.0</ele>
        <time>2022-02-10T08:08:51Z</time>
      </trkpt>
      <trkpt lat="47.541035" lon="1.8467195">
        <ele>148.0</ele>
        <time>2022-02-10T08:08:52Z</time>
      </trkpt>
      <trkpt lat="47.541027" lon="1.846707">
        <ele>148.0</ele>
        <time>2022-02-10T08:08:53Z</time>
      </trkpt>
      <trkpt lat="47.541016" lon="1.8466938">
        <ele>148.0</ele>
        <time>2022-02-10T08:08:54Z</time>
      </trkpt>
      <trkpt lat="47.541008" lon="1.8466777">
        <ele>149.0</ele>
        <time>2022-02-10T08:08:55Z</time>
      </trkpt>
      <trkpt lat="47.541" lon="1.8466635">
        <ele>149.0</ele>
        <time>2022-02-10T08:08:56Z</time>
      </trkpt>
      <trkpt lat="47.54099" lon="1.8466505">
        <ele>149.0</ele>
        <time>2022-02-10T08:08:57Z</time>
      </trkpt>
      <trkpt lat="47.540977" lon="1.8466387">
        <ele>148.0</ele>
        <time>2022-02-10T08:08:58Z</time>
      </trkpt>
      <trkpt lat="47.54097" lon="1.8466212">
        <ele>148.0</ele>
        <time>2022-02-10T08:08:59Z</time>
      </trkpt>
      <trkpt lat="47.540966" lon="1.8466057">
        <ele>148.0</ele>
        <time>2022-02-10T08:09:00Z</time>
      </trkpt>
      <trkpt lat="47.540955" lon="1.8465971">
        <ele>148.0</ele>
        <time>2022-02-10T08:09:01Z</time>
      </trkpt>
      <trkpt lat="47.540947" lon="1.8465854">
        <ele>148.0</ele>
        <time>2022-02-10T08:09:02Z</time>
      </trkpt>
      <trkpt lat="47.54094" lon="1.8465766">
        <ele>148.0</ele>
        <time>2022-02-10T08:09:03Z</time>
      </trkpt>
      <trkpt lat="47.540928" lon="1.8465648">
        <ele>148.0</ele>
        <time>2022-02-10T08:09:04Z</time>
      </trkpt>
      <trkpt lat="47.540916" lon="1.8465543">
        <ele>149.0</ele>
        <time>2022-02-10T08:09:05Z</time>
      </trkpt>
      <trkpt lat="47.54091" lon="1.8465452">
        <ele>149.0</ele>
        <time>2022-02-10T08:09:06Z</time>
      </trkpt>
      <trkpt lat="47.5409" lon="1.8465337">
        <ele>149.0</ele>
        <time>2022-02-10T08:09:07Z</time>
      </trkpt>
      <trkpt lat="47.540894" lon="1.8465219">
        <ele>149.0</ele>
        <time>2022-02-10T08:09:08Z</time>
      </trkpt>
      <trkpt lat="47.540886" lon="1.8465136">
        <ele>149.0</ele>
        <time>2022-02-10T08:09:09Z</time>
      </trkpt>
      <trkpt lat="47.540882" lon="1.8465014">
        <ele>149.0</ele>
        <time>2022-02-10T08:09:10Z</time>
      </trkpt>
      <trkpt lat="47.540874" lon="1.8464879">
        <ele>149.0</ele>
        <time>2022-02-10T08:09:11Z</time>
      </trkpt>
      <trkpt lat="47.540867" lon="1.8464749">
        <ele>149.0</ele>
        <time>2022-02-10T08:09:12Z</time>
      </trkpt>
      <trkpt lat="47.540855" lon="1.8464645">
        <ele>149.0</ele>
        <time>2022-02-10T08:09:13Z</time>
      </trkpt>
      <trkpt lat="47.540848" lon="1.8464502">
        <ele>148.0</ele>
        <time>2022-02-10T08:09:14Z</time>
      </trkpt>
      <trkpt lat="47.540836" lon="1.846438">
        <ele>148.0</ele>
        <time>2022-02-10T08:09:15Z</time>
      </trkpt>
      <trkpt lat="47.540825" lon="1.8464236">
        <ele>148.0</ele>
        <time>2022-02-10T08:09:16Z</time>
      </trkpt>
      <trkpt lat="47.540817" lon="1.8464097">
        <ele>148.0</ele>
        <time>2022-02-10T08:09:17Z</time>
      </trkpt>
      <trkpt lat="47.54081" lon="1.8463968">
        <ele>148.0</ele>
        <time>2022-02-10T08:09:18Z</time>
      </trkpt>
      <trkpt lat="47.540802" lon="1.8463839">
        <ele>148.0</ele>
        <time>2022-02-10T08:09:19Z</time>
      </trkpt>
      <trkpt lat="47.5408" lon="1.8463678">
        <ele>148.0</ele>
        <time>2022-02-10T08:09:20Z</time>
      </trkpt>
      <trkpt lat="47.54079" lon="1.8463571">
        <ele>148.0</ele>
        <time>2022-02-10T08:09:21Z</time>
      </trkpt>
      <trkpt lat="47.540775" lon="1.84635">
        <ele>148.0</ele>
        <time>2022-02-10T08:09:22Z</time>
      </trkpt>
      <trkpt lat="47.540768" lon="1.8463393">
        <ele>148.0</ele>
        <time>2022-02-10T08:09:23Z</time>
      </trkpt>
      <trkpt lat="47.540752" lon="1.8463298">
        <ele>147.0</ele>
        <time>2022-02-10T08:09:24Z</time>
      </trkpt>
      <trkpt lat="47.540745" lon="1.8463176">
        <ele>147.0</ele>
        <time>2022-02-10T08:09:25Z</time>
      </trkpt>
      <trkpt lat="47.540737" lon="1.8463119">
        <ele>147.0</ele>
        <time>2022-02-10T08:09:26Z</time>
      </trkpt>
      <trkpt lat="47.540733" lon="1.8463018">
        <ele>147.0</ele>
        <time>2022-02-10T08:09:27Z</time>
      </trkpt>
      <trkpt lat="47.540726" lon="1.8462884">
        <ele>146.0</ele>
        <time>2022-02-10T08:09:28Z</time>
      </trkpt>
      <trkpt lat="47.540718" lon="1.8462763">
        <ele>146.0</ele>
        <time>2022-02-10T08:09:29Z</time>
      </trkpt>
      <trkpt lat="47.540707" lon="1.84626">
        <ele>146.0</ele>
        <time>2022-02-10T08:09:30Z</time>
      </trkpt>
      <trkpt lat="47.5407" lon="1.846244">
        <ele>147.0</ele>
        <time>2022-02-10T08:09:31Z</time>
      </trkpt>
      <trkpt lat="47.540695" lon="1.8462276">
        <ele>147.0</ele>
        <time>2022-02-10T08:09:32Z</time>
      </trkpt>
      <trkpt lat="47.540688" lon="1.8462145">
        <ele>147.0</ele>
        <time>2022-02-10T08:09:33Z</time>
      </trkpt>
      <trkpt lat="47.540684" lon="1.8462073">
        <ele>146.0</ele>
        <time>2022-02-10T08:09:34Z</time>
      </trkpt>
      <trkpt lat="47.540676" lon="1.8461952">
        <ele>146.0</ele>
        <time>2022-02-10T08:09:35Z</time>
      </trkpt>
      <trkpt lat="47.540672" lon="1.8461808">
        <ele>147.0</ele>
        <time>2022-02-10T08:09:36Z</time>
      </trkpt>
      <trkpt lat="47.540665" lon="1.8461652">
        <ele>147.0</ele>
        <time>2022-02-10T08:09:37Z</time>
      </trkpt>
      <trkpt lat="47.540657" lon="1.8461524">
        <ele>146.0</ele>
        <time>2022-02-10T08:09:38Z</time>
      </trkpt>
      <trkpt lat="47.540646" lon="1.8461367">
        <ele>146.0</ele>
        <time>2022-02-10T08:09:39Z</time>
      </trkpt>
      <trkpt lat="47.54064" lon="1.8461248">
        <ele>147.0</ele>
        <time>2022-02-10T08:09:40Z</time>
      </trkpt>
      <trkpt lat="47.540638" lon="1.8461113">
        <ele>147.0</ele>
        <time>2022-02-10T08:09:41Z</time>
      </trkpt>
      <trkpt lat="47.540634" lon="1.846095">
        <ele>147.0</ele>
        <time>2022-02-10T08:09:42Z</time>
      </trkpt>
      <trkpt lat="47.540623" lon="1.8460816">
        <ele>148.0</ele>
        <time>2022-02-10T08:09:43Z</time>
      </trkpt>
      <trkpt lat="47.540615" lon="1.8460721">
        <ele>148.0</ele>
        <time>2022-02-10T08:09:44Z</time>
      </trkpt>
      <trkpt lat="47.540607" lon="1.846061">
        <ele>148.0</ele>
        <time>2022-02-10T08:09:45Z</time>
      </trkpt>
      <trkpt lat="47.540604" lon="1.8460491">
        <ele>148.0</ele>
        <time>2022-02-10T08:09:46Z</time>
      </trkpt>
      <trkpt lat="47.540596" lon="1.8460367">
        <ele>148.0</ele>
        <time>2022-02-10T08:09:47Z</time>
      </trkpt>
      <trkpt lat="47.540592" lon="1.8460217">
        <ele>148.0</ele>
        <time>2022-02-10T08:09:48Z</time>
      </trkpt>
      <trkpt lat="47.540585" lon="1.8460059">
        <ele>148.0</ele>
        <time>2022-02-10T08:09:49Z</time>
      </trkpt>
      <trkpt lat="47.54058" lon="1.8459932">
        <ele>148.0</ele>
        <time>2022-02-10T08:09:50Z</time>
      </trkpt>
      <trkpt lat="47.540573" lon="1.8459793">
        <ele>148.0</ele>
        <time>2022-02-10T08:09:51Z</time>
      </trkpt>
      <trkpt lat="47.54057" lon="1.8459691">
        <ele>148.0</ele>
        <time>2022-02-10T08:09:52Z</time>
      </trkpt>
      <trkpt lat="47.54056" lon="1.8459568">
        <ele>148.0</ele>
        <time>2022-02-10T08:09:53Z</time>
      </trkpt>
      <trkpt lat="47.540558" lon="1.845945">
        <ele>148.0</ele>
        <time>2022-02-10T08:09:54Z</time>
      </trkpt>
      <trkpt lat="47.54055" lon="1.8459285">
        <ele>148.0</ele>
        <time>2022-02-10T08:09:55Z</time>
      </trkpt>
      <trkpt lat="47.540543" lon="1.8459122">
        <ele>148.0</ele>
        <time>2022-02-10T08:09:56Z</time>
      </trkpt>
      <trkpt lat="47.540535" lon="1.8458915">
        <ele>148.0</ele>
        <time>2022-02-10T08:09:57Z</time>
      </trkpt>
      <trkpt lat="47.540527" lon="1.8458747">
        <ele>148.0</ele>
        <time>2022-02-10T08:09:58Z</time>
      </trkpt>
      <trkpt lat="47.540516" lon="1.8458577">
        <ele>148.0</ele>
        <time>2022-02-10T08:09:59Z</time>
      </trkpt>
      <trkpt lat="47.54051" lon="1.8458382">
        <ele>148.0</ele>
        <time>2022-02-10T08:10:00Z</time>
      </trkpt>
      <trkpt lat="47.540497" lon="1.8458246">
        <ele>148.0</ele>
        <time>2022-02-10T08:10:01Z</time>
      </trkpt>
      <trkpt lat="47.540478" lon="1.8458027">
        <ele>148.0</ele>
        <time>2022-02-10T08:10:03Z</time>
      </trkpt>
      <trkpt lat="47.54046" lon="1.8457668">
        <ele>148.0</ele>
        <time>2022-02-10T08:10:05Z</time>
      </trkpt>
      <trkpt lat="47.540436" lon="1.8457597">
        <ele>148.0</ele>
        <time>2022-02-10T08:10:07Z</time>
      </trkpt>
      <trkpt lat="47.540417" lon="1.8457905">
        <ele>148.0</ele>
        <time>2022-02-10T08:10:09Z</time>
      </trkpt>
      <trkpt lat="47.54041" lon="1.8458114">
        <ele>147.0</ele>
        <time>2022-02-10T08:10:10Z</time>
      </trkpt>
      <trkpt lat="47.540398" lon="1.845824">
        <ele>147.0</ele>
        <time>2022-02-10T08:10:11Z</time>
      </trkpt>
      <trkpt lat="47.54039" lon="1.8458328">
        <ele>147.0</ele>
        <time>2022-02-10T08:10:12Z</time>
      </trkpt>
      <trkpt lat="47.540382" lon="1.8458402">
        <ele>147.0</ele>
        <time>2022-02-10T08:10:13Z</time>
      </trkpt>
      <trkpt lat="47.54037" lon="1.845841">
        <ele>148.0</ele>
        <time>2022-02-10T08:10:14Z</time>
      </trkpt>
      <trkpt lat="47.54036" lon="1.8458344">
        <ele>147.0</ele>
        <time>2022-02-10T08:10:15Z</time>
      </trkpt>
      <trkpt lat="47.54035" lon="1.8458259">
        <ele>147.0</ele>
        <time>2022-02-10T08:10:16Z</time>
      </trkpt>
      <trkpt lat="47.540348" lon="1.845819">
        <ele>147.0</ele>
        <time>2022-02-10T08:10:17Z</time>
      </trkpt>
      <trkpt lat="47.54034" lon="1.8458114">
        <ele>147.0</ele>
        <time>2022-02-10T08:10:18Z</time>
      </trkpt>
      <trkpt lat="47.540337" lon="1.8457994">
        <ele>147.0</ele>
        <time>2022-02-10T08:10:19Z</time>
      </trkpt>
      <trkpt lat="47.54033" lon="1.8457848">
        <ele>147.0</ele>
        <time>2022-02-10T08:10:20Z</time>
      </trkpt>
      <trkpt lat="47.54032" lon="1.8457757">
        <ele>147.0</ele>
        <time>2022-02-10T08:10:21Z</time>
      </trkpt>
      <trkpt lat="47.540314" lon="1.845769">
        <ele>147.0</ele>
        <time>2022-02-10T08:10:22Z</time>
      </trkpt>
      <trkpt lat="47.54031" lon="1.845756">
        <ele>147.0</ele>
        <time>2022-02-10T08:10:23Z</time>
      </trkpt>
      <trkpt lat="47.540302" lon="1.845742">
        <ele>147.0</ele>
        <time>2022-02-10T08:10:24Z</time>
      </trkpt>
      <trkpt lat="47.540295" lon="1.845729">
        <ele>146.0</ele>
        <time>2022-02-10T08:10:25Z</time>
      </trkpt>
      <trkpt lat="47.540287" lon="1.845716">
        <ele>146.0</ele>
        <time>2022-02-10T08:10:26Z</time>
      </trkpt>
      <trkpt lat="47.54028" lon="1.8456979">
        <ele>146.0</ele>
        <time>2022-02-10T08:10:27Z</time>
      </trkpt>
      <trkpt lat="47.540276" lon="1.8456818">
        <ele>146.0</ele>
        <time>2022-02-10T08:10:28Z</time>
      </trkpt>
      <trkpt lat="47.54026" lon="1.845668">
        <ele>146.0</ele>
        <time>2022-02-10T08:10:29Z</time>
      </trkpt>
      <trkpt lat="47.540253" lon="1.8456528">
        <ele>146.0</ele>
        <time>2022-02-10T08:10:30Z</time>
      </trkpt>
      <trkpt lat="47.540245" lon="1.845637">
        <ele>146.0</ele>
        <time>2022-02-10T08:10:31Z</time>
      </trkpt>
      <trkpt lat="47.540237" lon="1.8456224">
        <ele>146.0</ele>
        <time>2022-02-10T08:10:32Z</time>
      </trkpt>
      <trkpt lat="47.54023" lon="1.845609">
        <ele>145.0</ele>
        <time>2022-02-10T08:10:33Z</time>
      </trkpt>
      <trkpt lat="47.540226" lon="1.8456011">
        <ele>145.0</ele>
        <time>2022-02-10T08:10:34Z</time>
      </trkpt>
      <trkpt lat="47.54022" lon="1.8455914">
        <ele>146.0</ele>
        <time>2022-02-10T08:10:35Z</time>
      </trkpt>
      <trkpt lat="47.540203" lon="1.8455802">
        <ele>147.0</ele>
        <time>2022-02-10T08:10:36Z</time>
      </trkpt>
      <trkpt lat="47.540195" lon="1.8455672">
        <ele>147.0</ele>
        <time>2022-02-10T08:10:37Z</time>
      </trkpt>
      <trkpt lat="47.54018" lon="1.8455557">
        <ele>146.0</ele>
        <time>2022-02-10T08:10:38Z</time>
      </trkpt>
      <trkpt lat="47.540173" lon="1.8455443">
        <ele>146.0</ele>
        <time>2022-02-10T08:10:39Z</time>
      </trkpt>
      <trkpt lat="47.54016" lon="1.8455293">
        <ele>146.0</ele>
        <time>2022-02-10T08:10:40Z</time>
      </trkpt>
      <trkpt lat="47.540154" lon="1.84552">
        <ele>146.0</ele>
        <time>2022-02-10T08:10:41Z</time>
      </trkpt>
      <trkpt lat="47.540146" lon="1.8455153">
        <ele>145.0</ele>
        <time>2022-02-10T08:10:42Z</time>
      </trkpt>
      <trkpt lat="47.54014" lon="1.8455082">
        <ele>144.0</ele>
        <time>2022-02-10T08:10:43Z</time>
      </trkpt>
      <trkpt lat="47.54013" lon="1.8454944">
        <ele>143.0</ele>
        <time>2022-02-10T08:10:44Z</time>
      </trkpt>
      <trkpt lat="47.540123" lon="1.8454912">
        <ele>144.0</ele>
        <time>2022-02-10T08:10:45Z</time>
      </trkpt>
      <trkpt lat="47.540115" lon="1.8454782">
        <ele>143.0</ele>
        <time>2022-02-10T08:10:46Z</time>
      </trkpt>
      <trkpt lat="47.540108" lon="1.8454558">
        <ele>143.0</ele>
        <time>2022-02-10T08:10:47Z</time>
      </trkpt>
      <trkpt lat="47.540096" lon="1.8454367">
        <ele>143.0</ele>
        <time>2022-02-10T08:10:48Z</time>
      </trkpt>
      <trkpt lat="47.54009" lon="1.845418">
        <ele>143.0</ele>
        <time>2022-02-10T08:10:49Z</time>
      </trkpt>
      <trkpt lat="47.54008" lon="1.8454043">
        <ele>143.0</ele>
        <time>2022-02-10T08:10:50Z</time>
      </trkpt>
      <trkpt lat="47.540073" lon="1.8453882">
        <ele>144.0</ele>
        <time>2022-02-10T08:10:51Z</time>
      </trkpt>
      <trkpt lat="47.540066" lon="1.8453692">
        <ele>144.0</ele>
        <time>2022-02-10T08:10:52Z</time>
      </trkpt>
      <trkpt lat="47.540062" lon="1.8453532">
        <ele>144.0</ele>
        <time>2022-02-10T08:10:53Z</time>
      </trkpt>
      <trkpt lat="47.540054" lon="1.845337">
        <ele>145.0</ele>
        <time>2022-02-10T08:10:54Z</time>
      </trkpt>
      <trkpt lat="47.540047" lon="1.8453184">
        <ele>145.0</ele>
        <time>2022-02-10T08:10:55Z</time>
      </trkpt>
      <trkpt lat="47.540035" lon="1.8453054">
        <ele>145.0</ele>
        <time>2022-02-10T08:10:56Z</time>
      </trkpt>
      <trkpt lat="47.54003" lon="1.8452961">
        <ele>145.0</ele>
        <time>2022-02-10T08:10:57Z</time>
      </trkpt>
      <trkpt lat="47.540024" lon="1.8452888">
        <ele>145.0</ele>
        <time>2022-02-10T08:10:58Z</time>
      </trkpt>
      <trkpt lat="47.540016" lon="1.845276">
        <ele>145.0</ele>
        <time>2022-02-10T08:10:59Z</time>
      </trkpt>
      <trkpt lat="47.54001" lon="1.8452615">
        <ele>145.0</ele>
        <time>2022-02-10T08:11:00Z</time>
      </trkpt>
      <trkpt lat="47.539997" lon="1.8452466">
        <ele>145.0</ele>
        <time>2022-02-10T08:11:01Z</time>
      </trkpt>
      <trkpt lat="47.53999" lon="1.845232">
        <ele>145.0</ele>
        <time>2022-02-10T08:11:02Z</time>
      </trkpt>
      <trkpt lat="47.53998" lon="1.8452195">
        <ele>145.0</ele>
        <time>2022-02-10T08:11:03Z</time>
      </trkpt>
      <trkpt lat="47.53997" lon="1.8452066">
        <ele>145.0</ele>
        <time>2022-02-10T08:11:04Z</time>
      </trkpt>
      <trkpt lat="47.539963" lon="1.8451939">
        <ele>145.0</ele>
        <time>2022-02-10T08:11:05Z</time>
      </trkpt>
      <trkpt lat="47.53995" lon="1.8451796">
        <ele>145.0</ele>
        <time>2022-02-10T08:11:06Z</time>
      </trkpt>
      <trkpt lat="47.539948" lon="1.8451641">
        <ele>145.0</ele>
        <time>2022-02-10T08:11:07Z</time>
      </trkpt>
      <trkpt lat="47.53994" lon="1.8451505">
        <ele>146.0</ele>
        <time>2022-02-10T08:11:08Z</time>
      </trkpt>
      <trkpt lat="47.539932" lon="1.8451382">
        <ele>146.0</ele>
        <time>2022-02-10T08:11:09Z</time>
      </trkpt>
      <trkpt lat="47.539925" lon="1.8451256">
        <ele>146.0</ele>
        <time>2022-02-10T08:11:10Z</time>
      </trkpt>
      <trkpt lat="47.539917" lon="1.8451097">
        <ele>146.0</ele>
        <time>2022-02-10T08:11:11Z</time>
      </trkpt>
      <trkpt lat="47.539913" lon="1.8450972">
        <ele>146.0</ele>
        <time>2022-02-10T08:11:12Z</time>
      </trkpt>
      <trkpt lat="47.539906" lon="1.8450832">
        <ele>146.0</ele>
        <time>2022-02-10T08:11:13Z</time>
      </trkpt>
      <trkpt lat="47.539898" lon="1.8450725">
        <ele>146.0</ele>
        <time>2022-02-10T08:11:14Z</time>
      </trkpt>
      <trkpt lat="47.539886" lon="1.8450599">
        <ele>146.0</ele>
        <time>2022-02-10T08:11:15Z</time>
      </trkpt>
      <trkpt lat="47.53988" lon="1.845048">
        <ele>146.0</ele>
        <time>2022-02-10T08:11:16Z</time>
      </trkpt>
      <trkpt lat="47.539875" lon="1.8450422">
        <ele>146.0</ele>
        <time>2022-02-10T08:11:17Z</time>
      </trkpt>
      <trkpt lat="47.539864" lon="1.8450323">
        <ele>145.0</ele>
        <time>2022-02-10T08:11:18Z</time>
      </trkpt>
      <trkpt lat="47.539852" lon="1.84502">
        <ele>145.0</ele>
        <time>2022-02-10T08:11:19Z</time>
      </trkpt>
      <trkpt lat="47.539845" lon="1.8450079">
        <ele>145.0</ele>
        <time>2022-02-10T08:11:20Z</time>
      </trkpt>
      <trkpt lat="47.53984" lon="1.8449934">
        <ele>145.0</ele>
        <time>2022-02-10T08:11:21Z</time>
      </trkpt>
      <trkpt lat="47.539833" lon="1.8449821">
        <ele>145.0</ele>
        <time>2022-02-10T08:11:22Z</time>
      </trkpt>
      <trkpt lat="47.539825" lon="1.8449724">
        <ele>145.0</ele>
        <time>2022-02-10T08:11:23Z</time>
      </trkpt>
      <trkpt lat="47.539818" lon="1.8449607">
        <ele>145.0</ele>
        <time>2022-02-10T08:11:24Z</time>
      </trkpt>
      <trkpt lat="47.539814" lon="1.8449458">
        <ele>145.0</ele>
        <time>2022-02-10T08:11:25Z</time>
      </trkpt>
      <trkpt lat="47.539806" lon="1.8449324">
        <ele>145.0</ele>
        <time>2022-02-10T08:11:26Z</time>
      </trkpt>
      <trkpt lat="47.5398" lon="1.8449177">
        <ele>145.0</ele>
        <time>2022-02-10T08:11:27Z</time>
      </trkpt>
      <trkpt lat="47.53979" lon="1.8449041">
        <ele>145.0</ele>
        <time>2022-02-10T08:11:28Z</time>
      </trkpt>
      <trkpt lat="47.539787" lon="1.8448907">
        <ele>145.0</ele>
        <time>2022-02-10T08:11:29Z</time>
      </trkpt>
      <trkpt lat="47.53978" lon="1.8448848">
        <ele>146.0</ele>
        <time>2022-02-10T08:11:30Z</time>
      </trkpt>
      <trkpt lat="47.539772" lon="1.8448771">
        <ele>146.0</ele>
        <time>2022-02-10T08:11:31Z</time>
      </trkpt>
      <trkpt lat="47.539764" lon="1.8448637">
        <ele>146.0</ele>
        <time>2022-02-10T08:11:32Z</time>
      </trkpt>
      <trkpt lat="47.539757" lon="1.8448483">
        <ele>146.0</ele>
        <time>2022-02-10T08:11:33Z</time>
      </trkpt>
      <trkpt lat="47.53975" lon="1.8448298">
        <ele>146.0</ele>
        <time>2022-02-10T08:11:34Z</time>
      </trkpt>
      <trkpt lat="47.53974" lon="1.8448188">
        <ele>146.0</ele>
        <time>2022-02-10T08:11:35Z</time>
      </trkpt>
      <trkpt lat="47.53973" lon="1.8448049">
        <ele>146.0</ele>
        <time>2022-02-10T08:11:36Z</time>
      </trkpt>
      <trkpt lat="47.53972" lon="1.844796">
        <ele>146.0</ele>
        <time>2022-02-10T08:11:37Z</time>
      </trkpt>
      <trkpt lat="47.539703" lon="1.8447874">
        <ele>146.0</ele>
        <time>2022-02-10T08:11:38Z</time>
      </trkpt>
      <trkpt lat="47.539692" lon="1.8447809">
        <ele>146.0</ele>
        <time>2022-02-10T08:11:39Z</time>
      </trkpt>
      <trkpt lat="47.53968" lon="1.844776">
        <ele>146.0</ele>
        <time>2022-02-10T08:11:40Z</time>
      </trkpt>
      <trkpt lat="47.53967" lon="1.8447702">
        <ele>145.0</ele>
        <time>2022-02-10T08:11:41Z</time>
      </trkpt>
      <trkpt lat="47.539658" lon="1.844771">
        <ele>145.0</ele>
        <time>2022-02-10T08:11:42Z</time>
      </trkpt>
      <trkpt lat="47.539646" lon="1.8447613">
        <ele>145.0</ele>
        <time>2022-02-10T08:11:43Z</time>
      </trkpt>
      <trkpt lat="47.539635" lon="1.8447608">
        <ele>146.0</ele>
        <time>2022-02-10T08:11:44Z</time>
      </trkpt>
      <trkpt lat="47.539623" lon="1.8447571">
        <ele>146.0</ele>
        <time>2022-02-10T08:11:45Z</time>
      </trkpt>
      <trkpt lat="47.539616" lon="1.8447528">
        <ele>146.0</ele>
        <time>2022-02-10T08:11:46Z</time>
      </trkpt>
      <trkpt lat="47.539604" lon="1.8447475">
        <ele>146.0</ele>
        <time>2022-02-10T08:11:47Z</time>
      </trkpt>
      <trkpt lat="47.5396" lon="1.8447543">
        <ele>146.0</ele>
        <time>2022-02-10T08:11:48Z</time>
      </trkpt>
      <trkpt lat="47.539593" lon="1.8447565">
        <ele>146.0</ele>
        <time>2022-02-10T08:11:49Z</time>
      </trkpt>
      <trkpt lat="47.53958" lon="1.84476">
        <ele>146.0</ele>
        <time>2022-02-10T08:11:50Z</time>
      </trkpt>
      <trkpt lat="47.539574" lon="1.8447505">
        <ele>146.0</ele>
        <time>2022-02-10T08:11:51Z</time>
      </trkpt>
      <trkpt lat="47.539562" lon="1.8447442">
        <ele>147.0</ele>
        <time>2022-02-10T08:11:52Z</time>
      </trkpt>
      <trkpt lat="47.539555" lon="1.8447453">
        <ele>147.0</ele>
        <time>2022-02-10T08:11:53Z</time>
      </trkpt>
      <trkpt lat="47.539547" lon="1.8447422">
        <ele>147.0</ele>
        <time>2022-02-10T08:11:54Z</time>
      </trkpt>
      <trkpt lat="47.539536" lon="1.8447479">
        <ele>147.0</ele>
        <time>2022-02-10T08:11:55Z</time>
      </trkpt>
      <trkpt lat="47.539524" lon="1.8447489">
        <ele>146.0</ele>
        <time>2022-02-10T08:11:56Z</time>
      </trkpt>
      <trkpt lat="47.539513" lon="1.8447542">
        <ele>146.0</ele>
        <time>2022-02-10T08:11:57Z</time>
      </trkpt>
      <trkpt lat="47.5395" lon="1.844761">
        <ele>146.0</ele>
        <time>2022-02-10T08:11:58Z</time>
      </trkpt>
      <trkpt lat="47.53949" lon="1.844767">
        <ele>146.0</ele>
        <time>2022-02-10T08:11:59Z</time>
      </trkpt>
      <trkpt lat="47.539482" lon="1.8447682">
        <ele>146.0</ele>
        <time>2022-02-10T08:12:00Z</time>
      </trkpt>
      <trkpt lat="47.539474" lon="1.8447689">
        <ele>146.0</ele>
        <time>2022-02-10T08:12:01Z</time>
      </trkpt>
      <trkpt lat="47.53947" lon="1.8447707">
        <ele>146.0</ele>
        <time>2022-02-10T08:12:02Z</time>
      </trkpt>
      <trkpt lat="47.53946" lon="1.8447733">
        <ele>146.0</ele>
        <time>2022-02-10T08:12:03Z</time>
      </trkpt>
      <trkpt lat="47.539448" lon="1.8447771">
        <ele>146.0</ele>
        <time>2022-02-10T08:12:04Z</time>
      </trkpt>
      <trkpt lat="47.53944" lon="1.8447827">
        <ele>146.0</ele>
        <time>2022-02-10T08:12:05Z</time>
      </trkpt>
      <trkpt lat="47.53943" lon="1.844786">
        <ele>146.0</ele>
        <time>2022-02-10T08:12:06Z</time>
      </trkpt>
      <trkpt lat="47.53942" lon="1.8447987">
        <ele>145.0</ele>
        <time>2022-02-10T08:12:07Z</time>
      </trkpt>
      <trkpt lat="47.539413" lon="1.8448112">
        <ele>146.0</ele>
        <time>2022-02-10T08:12:08Z</time>
      </trkpt>
      <trkpt lat="47.539402" lon="1.8448172">
        <ele>146.0</ele>
        <time>2022-02-10T08:12:09Z</time>
      </trkpt>
      <trkpt lat="47.53939" lon="1.8448229">
        <ele>146.0</ele>
        <time>2022-02-10T08:12:10Z</time>
      </trkpt>
      <trkpt lat="47.539383" lon="1.8448292">
        <ele>146.0</ele>
        <time>2022-02-10T08:12:11Z</time>
      </trkpt>
      <trkpt lat="47.53937" lon="1.8448374">
        <ele>146.0</ele>
        <time>2022-02-10T08:12:12Z</time>
      </trkpt>
      <trkpt lat="47.539356" lon="1.8448486">
        <ele>146.0</ele>
        <time>2022-02-10T08:12:13Z</time>
      </trkpt>
      <trkpt lat="47.539345" lon="1.8448546">
        <ele>146.0</ele>
        <time>2022-02-10T08:12:14Z</time>
      </trkpt>
      <trkpt lat="47.539333" lon="1.8448569">
        <ele>146.0</ele>
        <time>2022-02-10T08:12:15Z</time>
      </trkpt>
      <trkpt lat="47.539318" lon="1.8448588">
        <ele>147.0</ele>
        <time>2022-02-10T08:12:16Z</time>
      </trkpt>
      <trkpt lat="47.539307" lon="1.8448629">
        <ele>147.0</ele>
        <time>2022-02-10T08:12:17Z</time>
      </trkpt>
      <trkpt lat="47.539295" lon="1.844868">
        <ele>147.0</ele>
        <time>2022-02-10T08:12:18Z</time>
      </trkpt>
      <trkpt lat="47.539284" lon="1.8448726">
        <ele>147.0</ele>
        <time>2022-02-10T08:12:19Z</time>
      </trkpt>
      <trkpt lat="47.539272" lon="1.8448831">
        <ele>146.0</ele>
        <time>2022-02-10T08:12:20Z</time>
      </trkpt>
      <trkpt lat="47.539257" lon="1.844889">
        <ele>147.0</ele>
        <time>2022-02-10T08:12:21Z</time>
      </trkpt>
      <trkpt lat="47.539246" lon="1.8448958">
        <ele>147.0</ele>
        <time>2022-02-10T08:12:22Z</time>
      </trkpt>
      <trkpt lat="47.53923" lon="1.8449035">
        <ele>147.0</ele>
        <time>2022-02-10T08:12:23Z</time>
      </trkpt>
      <trkpt lat="47.53922" lon="1.8449116">
        <ele>147.0</ele>
        <time>2022-02-10T08:12:24Z</time>
      </trkpt>
      <trkpt lat="47.539207" lon="1.8449217">
        <ele>147.0</ele>
        <time>2022-02-10T08:12:25Z</time>
      </trkpt>
      <trkpt lat="47.5392" lon="1.8449289">
        <ele>146.0</ele>
        <time>2022-02-10T08:12:26Z</time>
      </trkpt>
      <trkpt lat="47.53919" lon="1.8449341">
        <ele>146.0</ele>
        <time>2022-02-10T08:12:27Z</time>
      </trkpt>
      <trkpt lat="47.53918" lon="1.8449401">
        <ele>146.0</ele>
        <time>2022-02-10T08:12:28Z</time>
      </trkpt>
      <trkpt lat="47.53917" lon="1.8449466">
        <ele>146.0</ele>
        <time>2022-02-10T08:12:29Z</time>
      </trkpt>
      <trkpt lat="47.539158" lon="1.844949">
        <ele>145.0</ele>
        <time>2022-02-10T08:12:30Z</time>
      </trkpt>
      <trkpt lat="47.539146" lon="1.8449582">
        <ele>145.0</ele>
        <time>2022-02-10T08:12:31Z</time>
      </trkpt>
      <trkpt lat="47.53913" lon="1.8449646">
        <ele>146.0</ele>
        <time>2022-02-10T08:12:32Z</time>
      </trkpt>
      <trkpt lat="47.53912" lon="1.8449676">
        <ele>146.0</ele>
        <time>2022-02-10T08:12:33Z</time>
      </trkpt>
      <trkpt lat="47.53911" lon="1.8449697">
        <ele>146.0</ele>
        <time>2022-02-10T08:12:34Z</time>
      </trkpt>
      <trkpt lat="47.539097" lon="1.8449728">
        <ele>145.0</ele>
        <time>2022-02-10T08:12:35Z</time>
      </trkpt>
      <trkpt lat="47.539085" lon="1.8449793">
        <ele>145.0</ele>
        <time>2022-02-10T08:12:36Z</time>
      </trkpt>
      <trkpt lat="47.539078" lon="1.8449806">
        <ele>145.0</ele>
        <time>2022-02-10T08:12:37Z</time>
      </trkpt>
      <trkpt lat="47.539066" lon="1.8449762">
        <ele>145.0</ele>
        <time>2022-02-10T08:12:38Z</time>
      </trkpt>
      <trkpt lat="47.539055" lon="1.8449781">
        <ele>145.0</ele>
        <time>2022-02-10T08:12:39Z</time>
      </trkpt>
      <trkpt lat="47.539047" lon="1.8449785">
        <ele>145.0</ele>
        <time>2022-02-10T08:12:40Z</time>
      </trkpt>
      <trkpt lat="47.539036" lon="1.8449838">
        <ele>145.0</ele>
        <time>2022-02-10T08:12:41Z</time>
      </trkpt>
      <trkpt lat="47.53903" lon="1.8449879">
        <ele>145.0</ele>
        <time>2022-02-10T08:12:42Z</time>
      </trkpt>
      <trkpt lat="47.53902" lon="1.844992">
        <ele>144.0</ele>
        <time>2022-02-10T08:12:43Z</time>
      </trkpt>
      <trkpt lat="47.539013" lon="1.8449931">
        <ele>144.0</ele>
        <time>2022-02-10T08:12:44Z</time>
      </trkpt>
      <trkpt lat="47.539013" lon="1.8449931">
        <ele>144.0</ele>
        <time>2022-02-10T08:12:45Z</time>
      </trkpt>
      <trkpt lat="47.539013" lon="1.8449931">
        <ele>144.0</ele>
        <time>2022-02-10T08:12:46Z</time>
      </trkpt>
      <trkpt lat="47.53899" lon="1.8450062">
        <ele>145.0</ele>
        <time>2022-02-10T08:12:47Z</time>
      </trkpt>
      <trkpt lat="47.538982" lon="1.8450147">
        <ele>144.0</ele>
        <time>2022-02-10T08:12:48Z</time>
      </trkpt>
      <trkpt lat="47.538975" lon="1.8450165">
        <ele>144.0</ele>
        <time>2022-02-10T08:12:49Z</time>
      </trkpt>
      <trkpt lat="47.538963" lon="1.8450183">
        <ele>145.0</ele>
        <time>2022-02-10T08:12:50Z</time>
      </trkpt>
      <trkpt lat="47.53895" lon="1.845023">
        <ele>145.0</ele>
        <time>2022-02-10T08:12:51Z</time>
      </trkpt>
      <trkpt lat="47.53894" lon="1.8450285">
        <ele>145.0</ele>
        <time>2022-02-10T08:12:52Z</time>
      </trkpt>
      <trkpt lat="47.53893" lon="1.8450323">
        <ele>145.0</ele>
        <time>2022-02-10T08:12:53Z</time>
      </trkpt>
      <trkpt lat="47.53892" lon="1.8450354">
        <ele>145.0</ele>
        <time>2022-02-10T08:12:54Z</time>
      </trkpt>
      <trkpt lat="47.53891" lon="1.8450401">
        <ele>145.0</ele>
        <time>2022-02-10T08:12:55Z</time>
      </trkpt>
      <trkpt lat="47.538902" lon="1.8450446">
        <ele>145.0</ele>
        <time>2022-02-10T08:12:56Z</time>
      </trkpt>
      <trkpt lat="47.538887" lon="1.8450478">
        <ele>145.0</ele>
        <time>2022-02-10T08:12:57Z</time>
      </trkpt>
      <trkpt lat="47.53888" lon="1.8450477">
        <ele>145.0</ele>
        <time>2022-02-10T08:12:58Z</time>
      </trkpt>
      <trkpt lat="47.538864" lon="1.8450472">
        <ele>144.0</ele>
        <time>2022-02-10T08:12:59Z</time>
      </trkpt>
      <trkpt lat="47.538857" lon="1.8450527">
        <ele>145.0</ele>
        <time>2022-02-10T08:13:00Z</time>
      </trkpt>
      <trkpt lat="47.538845" lon="1.8450549">
        <ele>145.0</ele>
        <time>2022-02-10T08:13:01Z</time>
      </trkpt>
      <trkpt lat="47.538837" lon="1.8450587">
        <ele>145.0</ele>
        <time>2022-02-10T08:13:02Z</time>
      </trkpt>
      <trkpt lat="47.538826" lon="1.8450596">
        <ele>145.0</ele>
        <time>2022-02-10T08:13:03Z</time>
      </trkpt>
      <trkpt lat="47.538815" lon="1.8450598">
        <ele>144.0</ele>
        <time>2022-02-10T08:13:04Z</time>
      </trkpt>
      <trkpt lat="47.538803" lon="1.8450581">
        <ele>144.0</ele>
        <time>2022-02-10T08:13:05Z</time>
      </trkpt>
      <trkpt lat="47.53879" lon="1.8450553">
        <ele>144.0</ele>
        <time>2022-02-10T08:13:06Z</time>
      </trkpt>
      <trkpt lat="47.53878" lon="1.8450549">
        <ele>144.0</ele>
        <time>2022-02-10T08:13:07Z</time>
      </trkpt>
      <trkpt lat="47.53877" lon="1.8450564">
        <ele>144.0</ele>
        <time>2022-02-10T08:13:08Z</time>
      </trkpt>
      <trkpt lat="47.538757" lon="1.8450589">
        <ele>144.0</ele>
        <time>2022-02-10T08:13:09Z</time>
      </trkpt>
      <trkpt lat="47.538742" lon="1.8450605">
        <ele>143.0</ele>
        <time>2022-02-10T08:13:10Z</time>
      </trkpt>
      <trkpt lat="47.538734" lon="1.845067">
        <ele>143.0</ele>
        <time>2022-02-10T08:13:11Z</time>
      </trkpt>
      <trkpt lat="47.538723" lon="1.8450661">
        <ele>143.0</ele>
        <time>2022-02-10T08:13:12Z</time>
      </trkpt>
      <trkpt lat="47.53871" lon="1.8450686">
        <ele>143.0</ele>
        <time>2022-02-10T08:13:13Z</time>
      </trkpt>
      <trkpt lat="47.5387" lon="1.8450745">
        <ele>143.0</ele>
        <time>2022-02-10T08:13:14Z</time>
      </trkpt>
      <trkpt lat="47.53869" lon="1.8450809">
        <ele>143.0</ele>
        <time>2022-02-10T08:13:15Z</time>
      </trkpt>
      <trkpt lat="47.538677" lon="1.8450849">
        <ele>143.0</ele>
        <time>2022-02-10T08:13:16Z</time>
      </trkpt>
      <trkpt lat="47.538666" lon="1.8450886">
        <ele>143.0</ele>
        <time>2022-02-10T08:13:17Z</time>
      </trkpt>
      <trkpt lat="47.538654" lon="1.8450948">
        <ele>144.0</ele>
        <time>2022-02-10T08:13:18Z</time>
      </trkpt>
      <trkpt lat="47.538643" lon="1.8450993">
        <ele>144.0</ele>
        <time>2022-02-10T08:13:19Z</time>
      </trkpt>
      <trkpt lat="47.538635" lon="1.8451056">
        <ele>144.0</ele>
        <time>2022-02-10T08:13:20Z</time>
      </trkpt>
      <trkpt lat="47.538624" lon="1.8451108">
        <ele>144.0</ele>
        <time>2022-02-10T08:13:21Z</time>
      </trkpt>
      <trkpt lat="47.538616" lon="1.8451128">
        <ele>144.0</ele>
        <time>2022-02-10T08:13:22Z</time>
      </trkpt>
      <trkpt lat="47.538605" lon="1.8451153">
        <ele>145.0</ele>
        <time>2022-02-10T08:13:23Z</time>
      </trkpt>
      <trkpt lat="47.538593" lon="1.8451223">
        <ele>145.0</ele>
        <time>2022-02-10T08:13:24Z</time>
      </trkpt>
      <trkpt lat="47.538574" lon="1.8451321">
        <ele>145.0</ele>
        <time>2022-02-10T08:13:25Z</time>
      </trkpt>
      <trkpt lat="47.538563" lon="1.8451389">
        <ele>145.0</ele>
        <time>2022-02-10T08:13:26Z</time>
      </trkpt>
      <trkpt lat="47.53855" lon="1.8451478">
        <ele>145.0</ele>
        <time>2022-02-10T08:13:27Z</time>
      </trkpt>
      <trkpt lat="47.53854" lon="1.8451569">
        <ele>145.0</ele>
        <time>2022-02-10T08:13:28Z</time>
      </trkpt>
      <trkpt lat="47.538525" lon="1.8451661">
        <ele>146.0</ele>
        <time>2022-02-10T08:13:29Z</time>
      </trkpt>
      <trkpt lat="47.538517" lon="1.845167">
        <ele>145.0</ele>
        <time>2022-02-10T08:13:30Z</time>
      </trkpt>
      <trkpt lat="47.538506" lon="1.8451705">
        <ele>145.0</ele>
        <time>2022-02-10T08:13:31Z</time>
      </trkpt>
      <trkpt lat="47.538494" lon="1.845178">
        <ele>145.0</ele>
        <time>2022-02-10T08:13:32Z</time>
      </trkpt>
      <trkpt lat="47.53848" lon="1.84518">
        <ele>145.0</ele>
        <time>2022-02-10T08:13:33Z</time>
      </trkpt>
      <trkpt lat="47.538464" lon="1.845185">
        <ele>145.0</ele>
        <time>2022-02-10T08:13:34Z</time>
      </trkpt>
      <trkpt lat="47.538452" lon="1.8451861">
        <ele>145.0</ele>
        <time>2022-02-10T08:13:35Z</time>
      </trkpt>
      <trkpt lat="47.538445" lon="1.8451878">
        <ele>144.0</ele>
        <time>2022-02-10T08:13:36Z</time>
      </trkpt>
      <trkpt lat="47.538433" lon="1.8451883">
        <ele>145.0</ele>
        <time>2022-02-10T08:13:37Z</time>
      </trkpt>
      <trkpt lat="47.538433" lon="1.8451883">
        <ele>145.0</ele>
        <time>2022-02-10T08:13:38Z</time>
      </trkpt>
      <trkpt lat="47.538433" lon="1.8451883">
        <ele>145.0</ele>
        <time>2022-02-10T08:13:39Z</time>
      </trkpt>
      <trkpt lat="47.53841" lon="1.8451911">
        <ele>142.0</ele>
        <time>2022-02-10T08:13:40Z</time>
      </trkpt>
      <trkpt lat="47.538403" lon="1.8451954">
        <ele>142.0</ele>
        <time>2022-02-10T08:13:41Z</time>
      </trkpt>
      <trkpt lat="47.53839" lon="1.8451984">
        <ele>142.0</ele>
        <time>2022-02-10T08:13:42Z</time>
      </trkpt>
      <trkpt lat="47.53838" lon="1.845199">
        <ele>141.0</ele>
        <time>2022-02-10T08:13:43Z</time>
      </trkpt>
      <trkpt lat="47.538372" lon="1.8452004">
        <ele>141.0</ele>
        <time>2022-02-10T08:13:44Z</time>
      </trkpt>
      <trkpt lat="47.53836" lon="1.8452117">
        <ele>141.0</ele>
        <time>2022-02-10T08:13:45Z</time>
      </trkpt>
      <trkpt lat="47.53835" lon="1.8452219">
        <ele>141.0</ele>
        <time>2022-02-10T08:13:46Z</time>
      </trkpt>
      <trkpt lat="47.538338" lon="1.8452251">
        <ele>141.0</ele>
        <time>2022-02-10T08:13:47Z</time>
      </trkpt>
      <trkpt lat="47.53833" lon="1.8452309">
        <ele>141.0</ele>
        <time>2022-02-10T08:13:48Z</time>
      </trkpt>
      <trkpt lat="47.53832" lon="1.8452362">
        <ele>141.0</ele>
        <time>2022-02-10T08:13:49Z</time>
      </trkpt>
      <trkpt lat="47.538303" lon="1.8452381">
        <ele>140.0</ele>
        <time>2022-02-10T08:13:50Z</time>
      </trkpt>
      <trkpt lat="47.538292" lon="1.8452442">
        <ele>140.0</ele>
        <time>2022-02-10T08:13:51Z</time>
      </trkpt>
      <trkpt lat="47.538277" lon="1.8452481">
        <ele>139.0</ele>
        <time>2022-02-10T08:13:52Z</time>
      </trkpt>
      <trkpt lat="47.538265" lon="1.8452529">
        <ele>139.0</ele>
        <time>2022-02-10T08:13:53Z</time>
      </trkpt>
      <trkpt lat="47.538254" lon="1.845258">
        <ele>139.0</ele>
        <time>2022-02-10T08:13:54Z</time>
      </trkpt>
      <trkpt lat="47.53824" lon="1.8452623">
        <ele>139.0</ele>
        <time>2022-02-10T08:13:55Z</time>
      </trkpt>
      <trkpt lat="47.538223" lon="1.8452668">
        <ele>139.0</ele>
        <time>2022-02-10T08:13:56Z</time>
      </trkpt>
      <trkpt lat="47.538216" lon="1.8452708">
        <ele>138.0</ele>
        <time>2022-02-10T08:13:57Z</time>
      </trkpt>
      <trkpt lat="47.5382" lon="1.8452787">
        <ele>138.0</ele>
        <time>2022-02-10T08:13:58Z</time>
      </trkpt>
      <trkpt lat="47.538185" lon="1.8452787">
        <ele>138.0</ele>
        <time>2022-02-10T08:13:59Z</time>
      </trkpt>
      <trkpt lat="47.538174" lon="1.8452818">
        <ele>139.0</ele>
        <time>2022-02-10T08:14:00Z</time>
      </trkpt>
      <trkpt lat="47.538162" lon="1.8452857">
        <ele>139.0</ele>
        <time>2022-02-10T08:14:01Z</time>
      </trkpt>
      <trkpt lat="47.538147" lon="1.8452936">
        <ele>139.0</ele>
        <time>2022-02-10T08:14:02Z</time>
      </trkpt>
      <trkpt lat="47.53814" lon="1.8453029">
        <ele>139.0</ele>
        <time>2022-02-10T08:14:03Z</time>
      </trkpt>
      <trkpt lat="47.538128" lon="1.8453091">
        <ele>139.0</ele>
        <time>2022-02-10T08:14:04Z</time>
      </trkpt>
      <trkpt lat="47.538113" lon="1.8453104">
        <ele>139.0</ele>
        <time>2022-02-10T08:14:05Z</time>
      </trkpt>
      <trkpt lat="47.538113" lon="1.8453104">
        <ele>139.0</ele>
        <time>2022-02-10T08:14:06Z</time>
      </trkpt>
      <trkpt lat="47.538113" lon="1.8453104">
        <ele>139.0</ele>
        <time>2022-02-10T08:14:07Z</time>
      </trkpt>
      <trkpt lat="47.538082" lon="1.84533">
        <ele>137.0</ele>
        <time>2022-02-10T08:14:08Z</time>
      </trkpt>
      <trkpt lat="47.53807" lon="1.8453317">
        <ele>137.0</ele>
        <time>2022-02-10T08:14:09Z</time>
      </trkpt>
      <trkpt lat="47.538063" lon="1.845332">
        <ele>136.0</ele>
        <time>2022-02-10T08:14:10Z</time>
      </trkpt>
      <trkpt lat="47.538055" lon="1.8453392">
        <ele>136.0</ele>
        <time>2022-02-10T08:14:11Z</time>
      </trkpt>
      <trkpt lat="47.538044" lon="1.8453422">
        <ele>136.0</ele>
        <time>2022-02-10T08:14:12Z</time>
      </trkpt>
      <trkpt lat="47.538033" lon="1.845342">
        <ele>136.0</ele>
        <time>2022-02-10T08:14:13Z</time>
      </trkpt>
      <trkpt lat="47.538025" lon="1.8453398">
        <ele>135.0</ele>
        <time>2022-02-10T08:14:14Z</time>
      </trkpt>
      <trkpt lat="47.538013" lon="1.8453387">
        <ele>136.0</ele>
        <time>2022-02-10T08:14:15Z</time>
      </trkpt>
      <trkpt lat="47.538002" lon="1.8453399">
        <ele>136.0</ele>
        <time>2022-02-10T08:14:16Z</time>
      </trkpt>
      <trkpt lat="47.537994" lon="1.845344">
        <ele>136.0</ele>
        <time>2022-02-10T08:14:17Z</time>
      </trkpt>
      <trkpt lat="47.537983" lon="1.8453469">
        <ele>136.0</ele>
        <time>2022-02-10T08:14:18Z</time>
      </trkpt>
      <trkpt lat="47.53797" lon="1.8453504">
        <ele>136.0</ele>
        <time>2022-02-10T08:14:19Z</time>
      </trkpt>
      <trkpt lat="47.537964" lon="1.8453547">
        <ele>135.0</ele>
        <time>2022-02-10T08:14:20Z</time>
      </trkpt>
      <trkpt lat="47.537956" lon="1.8453591">
        <ele>135.0</ele>
        <time>2022-02-10T08:14:21Z</time>
      </trkpt>
      <trkpt lat="47.537945" lon="1.8453615">
        <ele>135.0</ele>
        <time>2022-02-10T08:14:22Z</time>
      </trkpt>
      <trkpt lat="47.537933" lon="1.8453672">
        <ele>135.0</ele>
        <time>2022-02-10T08:14:23Z</time>
      </trkpt>
      <trkpt lat="47.53792" lon="1.8453704">
        <ele>135.0</ele>
        <time>2022-02-10T08:14:24Z</time>
      </trkpt>
      <trkpt lat="47.537914" lon="1.8453743">
        <ele>135.0</ele>
        <time>2022-02-10T08:14:25Z</time>
      </trkpt>
      <trkpt lat="47.537903" lon="1.8453789">
        <ele>135.0</ele>
        <time>2022-02-10T08:14:26Z</time>
      </trkpt>
      <trkpt lat="47.53789" lon="1.8453821">
        <ele>135.0</ele>
        <time>2022-02-10T08:14:27Z</time>
      </trkpt>
      <trkpt lat="47.53788" lon="1.8453808">
        <ele>135.0</ele>
        <time>2022-02-10T08:14:28Z</time>
      </trkpt>
      <trkpt lat="47.537872" lon="1.8453839">
        <ele>136.0</ele>
        <time>2022-02-10T08:14:29Z</time>
      </trkpt>
      <trkpt lat="47.537865" lon="1.8453853">
        <ele>136.0</ele>
        <time>2022-02-10T08:14:30Z</time>
      </trkpt>
      <trkpt lat="47.537853" lon="1.8453851">
        <ele>136.0</ele>
        <time>2022-02-10T08:14:31Z</time>
      </trkpt>
      <trkpt lat="47.537846" lon="1.8453856">
        <ele>136.0</ele>
        <time>2022-02-10T08:14:32Z</time>
      </trkpt>
      <trkpt lat="47.537834" lon="1.8453876">
        <ele>136.0</ele>
        <time>2022-02-10T08:14:33Z</time>
      </trkpt>
      <trkpt lat="47.537823" lon="1.8453903">
        <ele>136.0</ele>
        <time>2022-02-10T08:14:34Z</time>
      </trkpt>
      <trkpt lat="47.537807" lon="1.845393">
        <ele>135.0</ele>
        <time>2022-02-10T08:14:35Z</time>
      </trkpt>
      <trkpt lat="47.537792" lon="1.8453956">
        <ele>135.0</ele>
        <time>2022-02-10T08:14:36Z</time>
      </trkpt>
      <trkpt lat="47.53778" lon="1.8453969">
        <ele>135.0</ele>
        <time>2022-02-10T08:14:37Z</time>
      </trkpt>
      <trkpt lat="47.537766" lon="1.8453948">
        <ele>136.0</ele>
        <time>2022-02-10T08:14:38Z</time>
      </trkpt>
      <trkpt lat="47.537754" lon="1.8453925">
        <ele>136.0</ele>
        <time>2022-02-10T08:14:39Z</time>
      </trkpt>
      <trkpt lat="47.537746" lon="1.8453928">
        <ele>136.0</ele>
        <time>2022-02-10T08:14:40Z</time>
      </trkpt>
      <trkpt lat="47.537735" lon="1.8453965">
        <ele>136.0</ele>
        <time>2022-02-10T08:14:41Z</time>
      </trkpt>
      <trkpt lat="47.537724" lon="1.8453975">
        <ele>136.0</ele>
        <time>2022-02-10T08:14:42Z</time>
      </trkpt>
      <trkpt lat="47.537712" lon="1.845393">
        <ele>137.0</ele>
        <time>2022-02-10T08:14:43Z</time>
      </trkpt>
      <trkpt lat="47.537697" lon="1.8453941">
        <ele>137.0</ele>
        <time>2022-02-10T08:14:44Z</time>
      </trkpt>
      <trkpt lat="47.537685" lon="1.8453902">
        <ele>137.0</ele>
        <time>2022-02-10T08:14:45Z</time>
      </trkpt>
      <trkpt lat="47.537674" lon="1.8453858">
        <ele>137.0</ele>
        <time>2022-02-10T08:14:46Z</time>
      </trkpt>
      <trkpt lat="47.537663" lon="1.8453822">
        <ele>137.0</ele>
        <time>2022-02-10T08:14:47Z</time>
      </trkpt>
      <trkpt lat="47.537655" lon="1.8453808">
        <ele>137.0</ele>
        <time>2022-02-10T08:14:48Z</time>
      </trkpt>
      <trkpt lat="47.537643" lon="1.8453817">
        <ele>137.0</ele>
        <time>2022-02-10T08:14:49Z</time>
      </trkpt>
      <trkpt lat="47.537636" lon="1.8453821">
        <ele>137.0</ele>
        <time>2022-02-10T08:14:50Z</time>
      </trkpt>
      <trkpt lat="47.537624" lon="1.8453782">
        <ele>137.0</ele>
        <time>2022-02-10T08:14:51Z</time>
      </trkpt>
      <trkpt lat="47.537613" lon="1.8453727">
        <ele>137.0</ele>
        <time>2022-02-10T08:14:52Z</time>
      </trkpt>
      <trkpt lat="47.5376" lon="1.8453658">
        <ele>137.0</ele>
        <time>2022-02-10T08:14:53Z</time>
      </trkpt>
      <trkpt lat="47.537594" lon="1.845356">
        <ele>137.0</ele>
        <time>2022-02-10T08:14:54Z</time>
      </trkpt>
      <trkpt lat="47.537582" lon="1.8453478">
        <ele>136.0</ele>
        <time>2022-02-10T08:14:55Z</time>
      </trkpt>
      <trkpt lat="47.537575" lon="1.8453418">
        <ele>136.0</ele>
        <time>2022-02-10T08:14:56Z</time>
      </trkpt>
      <trkpt lat="47.537563" lon="1.8453363">
        <ele>137.0</ele>
        <time>2022-02-10T08:14:57Z</time>
      </trkpt>
      <trkpt lat="47.537556" lon="1.8453268">
        <ele>137.0</ele>
        <time>2022-02-10T08:14:58Z</time>
      </trkpt>
      <trkpt lat="47.537544" lon="1.8453221">
        <ele>137.0</ele>
        <time>2022-02-10T08:14:59Z</time>
      </trkpt>
      <trkpt lat="47.537537" lon="1.84532">
        <ele>136.0</ele>
        <time>2022-02-10T08:15:00Z</time>
      </trkpt>
      <trkpt lat="47.537525" lon="1.8453219">
        <ele>136.0</ele>
        <time>2022-02-10T08:15:01Z</time>
      </trkpt>
      <trkpt lat="47.537514" lon="1.8453192">
        <ele>136.0</ele>
        <time>2022-02-10T08:15:02Z</time>
      </trkpt>
      <trkpt lat="47.537502" lon="1.8453169">
        <ele>136.0</ele>
        <time>2022-02-10T08:15:03Z</time>
      </trkpt>
      <trkpt lat="47.53749" lon="1.8453184">
        <ele>136.0</ele>
        <time>2022-02-10T08:15:04Z</time>
      </trkpt>
      <trkpt lat="47.53748" lon="1.845317">
        <ele>136.0</ele>
        <time>2022-02-10T08:15:05Z</time>
      </trkpt>
      <trkpt lat="47.537464" lon="1.8453114">
        <ele>136.0</ele>
        <time>2022-02-10T08:15:06Z</time>
      </trkpt>
      <trkpt lat="47.537453" lon="1.8453046">
        <ele>135.0</ele>
        <time>2022-02-10T08:15:07Z</time>
      </trkpt>
      <trkpt lat="47.53744" lon="1.8453009">
        <ele>135.0</ele>
        <time>2022-02-10T08:15:08Z</time>
      </trkpt>
      <trkpt lat="47.53743" lon="1.8453009">
        <ele>135.0</ele>
        <time>2022-02-10T08:15:09Z</time>
      </trkpt>
      <trkpt lat="47.53742" lon="1.8452998">
        <ele>135.0</ele>
        <time>2022-02-10T08:15:10Z</time>
      </trkpt>
      <trkpt lat="47.537407" lon="1.845308">
        <ele>135.0</ele>
        <time>2022-02-10T08:15:11Z</time>
      </trkpt>
      <trkpt lat="47.53739" lon="1.8453035">
        <ele>135.0</ele>
        <time>2022-02-10T08:15:12Z</time>
      </trkpt>
      <trkpt lat="47.537376" lon="1.8452995">
        <ele>135.0</ele>
        <time>2022-02-10T08:15:13Z</time>
      </trkpt>
      <trkpt lat="47.53736" lon="1.845291">
        <ele>135.0</ele>
        <time>2022-02-10T08:15:14Z</time>
      </trkpt>
      <trkpt lat="47.53735" lon="1.8452885">
        <ele>135.0</ele>
        <time>2022-02-10T08:15:15Z</time>
      </trkpt>
      <trkpt lat="47.53734" lon="1.8452846">
        <ele>134.0</ele>
        <time>2022-02-10T08:15:16Z</time>
      </trkpt>
      <trkpt lat="47.53733" lon="1.8452758">
        <ele>135.0</ele>
        <time>2022-02-10T08:15:17Z</time>
      </trkpt>
      <trkpt lat="47.537323" lon="1.845273">
        <ele>135.0</ele>
        <time>2022-02-10T08:15:18Z</time>
      </trkpt>
      <trkpt lat="47.537308" lon="1.8452733">
        <ele>135.0</ele>
        <time>2022-02-10T08:15:19Z</time>
      </trkpt>
      <trkpt lat="47.5373" lon="1.8452749">
        <ele>135.0</ele>
        <time>2022-02-10T08:15:20Z</time>
      </trkpt>
      <trkpt lat="47.53729" lon="1.8452778">
        <ele>135.0</ele>
        <time>2022-02-10T08:15:21Z</time>
      </trkpt>
      <trkpt lat="47.537277" lon="1.8452772">
        <ele>135.0</ele>
        <time>2022-02-10T08:15:22Z</time>
      </trkpt>
      <trkpt lat="47.53727" lon="1.8452758">
        <ele>135.0</ele>
        <time>2022-02-10T08:15:23Z</time>
      </trkpt>
      <trkpt lat="47.53726" lon="1.8452781">
        <ele>135.0</ele>
        <time>2022-02-10T08:15:24Z</time>
      </trkpt>
      <trkpt lat="47.537243" lon="1.8452733">
        <ele>135.0</ele>
        <time>2022-02-10T08:15:25Z</time>
      </trkpt>
      <trkpt lat="47.53723" lon="1.8452692">
        <ele>134.0</ele>
        <time>2022-02-10T08:15:26Z</time>
      </trkpt>
      <trkpt lat="47.53722" lon="1.8452674">
        <ele>134.0</ele>
        <time>2022-02-10T08:15:27Z</time>
      </trkpt>
      <trkpt lat="47.537212" lon="1.845269">
        <ele>134.0</ele>
        <time>2022-02-10T08:15:28Z</time>
      </trkpt>
      <trkpt lat="47.5372" lon="1.8452737">
        <ele>134.0</ele>
        <time>2022-02-10T08:15:29Z</time>
      </trkpt>
      <trkpt lat="47.537193" lon="1.845273">
        <ele>134.0</ele>
        <time>2022-02-10T08:15:30Z</time>
      </trkpt>
      <trkpt lat="47.537186" lon="1.8452674">
        <ele>134.0</ele>
        <time>2022-02-10T08:15:31Z</time>
      </trkpt>
      <trkpt lat="47.537178" lon="1.8452603">
        <ele>134.0</ele>
        <time>2022-02-10T08:15:32Z</time>
      </trkpt>
      <trkpt lat="47.53717" lon="1.8452529">
        <ele>134.0</ele>
        <time>2022-02-10T08:15:33Z</time>
      </trkpt>
      <trkpt lat="47.53716" lon="1.8452474">
        <ele>134.0</ele>
        <time>2022-02-10T08:15:34Z</time>
      </trkpt>
      <trkpt lat="47.53715" lon="1.8452424">
        <ele>134.0</ele>
        <time>2022-02-10T08:15:35Z</time>
      </trkpt>
      <trkpt lat="47.537144" lon="1.8452433">
        <ele>135.0</ele>
        <time>2022-02-10T08:15:36Z</time>
      </trkpt>
      <trkpt lat="47.537136" lon="1.8452405">
        <ele>134.0</ele>
        <time>2022-02-10T08:15:37Z</time>
      </trkpt>
      <trkpt lat="47.537125" lon="1.8452352">
        <ele>134.0</ele>
        <time>2022-02-10T08:15:38Z</time>
      </trkpt>
      <trkpt lat="47.537113" lon="1.8452319">
        <ele>134.0</ele>
        <time>2022-02-10T08:15:39Z</time>
      </trkpt>
      <trkpt lat="47.537098" lon="1.8452266">
        <ele>134.0</ele>
        <time>2022-02-10T08:15:40Z</time>
      </trkpt>
      <trkpt lat="47.537086" lon="1.8452247">
        <ele>134.0</ele>
        <time>2022-02-10T08:15:41Z</time>
      </trkpt>
      <trkpt lat="47.53708" lon="1.8452231">
        <ele>133.0</ele>
        <time>2022-02-10T08:15:42Z</time>
      </trkpt>
      <trkpt lat="47.537064" lon="1.8452193">
        <ele>133.0</ele>
        <time>2022-02-10T08:15:43Z</time>
      </trkpt>
      <trkpt lat="47.537056" lon="1.845216">
        <ele>133.0</ele>
        <time>2022-02-10T08:15:44Z</time>
      </trkpt>
      <trkpt lat="47.537045" lon="1.8452126">
        <ele>133.0</ele>
        <time>2022-02-10T08:15:45Z</time>
      </trkpt>
      <trkpt lat="47.53703" lon="1.8452017">
        <ele>133.0</ele>
        <time>2022-02-10T08:15:46Z</time>
      </trkpt>
      <trkpt lat="47.537014" lon="1.8451923">
        <ele>133.0</ele>
        <time>2022-02-10T08:15:47Z</time>
      </trkpt>
      <trkpt lat="47.537003" lon="1.8451852">
        <ele>133.0</ele>
        <time>2022-02-10T08:15:48Z</time>
      </trkpt>
      <trkpt lat="47.536987" lon="1.8451807">
        <ele>134.0</ele>
        <time>2022-02-10T08:15:49Z</time>
      </trkpt>
      <trkpt lat="47.536976" lon="1.8451853">
        <ele>134.0</ele>
        <time>2022-02-10T08:15:50Z</time>
      </trkpt>
      <trkpt lat="47.53697" lon="1.845188">
        <ele>134.0</ele>
        <time>2022-02-10T08:15:51Z</time>
      </trkpt>
      <trkpt lat="47.536957" lon="1.8451829">
        <ele>134.0</ele>
        <time>2022-02-10T08:15:52Z</time>
      </trkpt>
      <trkpt lat="47.53695" lon="1.8451784">
        <ele>133.0</ele>
        <time>2022-02-10T08:15:53Z</time>
      </trkpt>
      <trkpt lat="47.536938" lon="1.8451722">
        <ele>133.0</ele>
        <time>2022-02-10T08:15:54Z</time>
      </trkpt>
      <trkpt lat="47.536922" lon="1.8451705">
        <ele>133.0</ele>
        <time>2022-02-10T08:15:55Z</time>
      </trkpt>
      <trkpt lat="47.53691" lon="1.845168">
        <ele>133.0</ele>
        <time>2022-02-10T08:15:56Z</time>
      </trkpt>
      <trkpt lat="47.5369" lon="1.845165">
        <ele>133.0</ele>
        <time>2022-02-10T08:15:57Z</time>
      </trkpt>
      <trkpt lat="47.53689" lon="1.84516">
        <ele>133.0</ele>
        <time>2022-02-10T08:15:58Z</time>
      </trkpt>
      <trkpt lat="47.536877" lon="1.8451566">
        <ele>133.0</ele>
        <time>2022-02-10T08:15:59Z</time>
      </trkpt>
      <trkpt lat="47.536865" lon="1.8451494">
        <ele>132.0</ele>
        <time>2022-02-10T08:16:00Z</time>
      </trkpt>
      <trkpt lat="47.536854" lon="1.8451419">
        <ele>133.0</ele>
        <time>2022-02-10T08:16:01Z</time>
      </trkpt>
      <trkpt lat="47.536846" lon="1.845136">
        <ele>132.0</ele>
        <time>2022-02-10T08:16:02Z</time>
      </trkpt>
      <trkpt lat="47.536835" lon="1.8451338">
        <ele>132.0</ele>
        <time>2022-02-10T08:16:03Z</time>
      </trkpt>
      <trkpt lat="47.536823" lon="1.8451313">
        <ele>132.0</ele>
        <time>2022-02-10T08:16:04Z</time>
      </trkpt>
      <trkpt lat="47.536808" lon="1.8451233">
        <ele>133.0</ele>
        <time>2022-02-10T08:16:05Z</time>
      </trkpt>
      <trkpt lat="47.5368" lon="1.8451173">
        <ele>133.0</ele>
        <time>2022-02-10T08:16:06Z</time>
      </trkpt>
      <trkpt lat="47.53679" lon="1.8451039">
        <ele>133.0</ele>
        <time>2022-02-10T08:16:07Z</time>
      </trkpt>
      <trkpt lat="47.536785" lon="1.8451035">
        <ele>134.0</ele>
        <time>2022-02-10T08:16:08Z</time>
      </trkpt>
      <trkpt lat="47.536785" lon="1.845102">
        <ele>133.0</ele>
        <time>2022-02-10T08:16:09Z</time>
      </trkpt>
      <trkpt lat="47.536785" lon="1.845102">
        <ele>133.0</ele>
        <time>2022-02-10T08:16:10Z</time>
      </trkpt>
      <trkpt lat="47.536785" lon="1.845102">
        <ele>133.0</ele>
        <time>2022-02-10T08:16:11Z</time>
      </trkpt>
      <trkpt lat="47.53677" lon="1.8451015">
        <ele>133.0</ele>
        <time>2022-02-10T08:16:12Z</time>
      </trkpt>
      <trkpt lat="47.53676" lon="1.8451023">
        <ele>133.0</ele>
        <time>2022-02-10T08:16:13Z</time>
      </trkpt>
      <trkpt lat="47.53675" lon="1.8451022">
        <ele>133.0</ele>
        <time>2022-02-10T08:16:14Z</time>
      </trkpt>
      <trkpt lat="47.536747" lon="1.8450985">
        <ele>132.0</ele>
        <time>2022-02-10T08:16:15Z</time>
      </trkpt>
      <trkpt lat="47.53674" lon="1.8450911">
        <ele>132.0</ele>
        <time>2022-02-10T08:16:16Z</time>
      </trkpt>
      <trkpt lat="47.536728" lon="1.8450797">
        <ele>132.0</ele>
        <time>2022-02-10T08:16:17Z</time>
      </trkpt>
      <trkpt lat="47.53672" lon="1.8450779">
        <ele>132.0</ele>
        <time>2022-02-10T08:16:18Z</time>
      </trkpt>
      <trkpt lat="47.536713" lon="1.8450749">
        <ele>132.0</ele>
        <time>2022-02-10T08:16:19Z</time>
      </trkpt>
      <trkpt lat="47.536705" lon="1.84507">
        <ele>132.0</ele>
        <time>2022-02-10T08:16:20Z</time>
      </trkpt>
      <trkpt lat="47.53669" lon="1.8450674">
        <ele>132.0</ele>
        <time>2022-02-10T08:16:21Z</time>
      </trkpt>
      <trkpt lat="47.53668" lon="1.8450562">
        <ele>132.0</ele>
        <time>2022-02-10T08:16:22Z</time>
      </trkpt>
      <trkpt lat="47.536667" lon="1.8450438">
        <ele>132.0</ele>
        <time>2022-02-10T08:16:23Z</time>
      </trkpt>
      <trkpt lat="47.536655" lon="1.845033">
        <ele>132.0</ele>
        <time>2022-02-10T08:16:24Z</time>
      </trkpt>
      <trkpt lat="47.536644" lon="1.8450258">
        <ele>132.0</ele>
        <time>2022-02-10T08:16:25Z</time>
      </trkpt>
      <trkpt lat="47.536633" lon="1.8450162">
        <ele>132.0</ele>
        <time>2022-02-10T08:16:26Z</time>
      </trkpt>
      <trkpt lat="47.53662" lon="1.8450059">
        <ele>132.0</ele>
        <time>2022-02-10T08:16:27Z</time>
      </trkpt>
      <trkpt lat="47.53661" lon="1.844999">
        <ele>132.0</ele>
        <time>2022-02-10T08:16:28Z</time>
      </trkpt>
      <trkpt lat="47.536602" lon="1.8449943">
        <ele>132.0</ele>
        <time>2022-02-10T08:16:29Z</time>
      </trkpt>
      <trkpt lat="47.53659" lon="1.844993">
        <ele>132.0</ele>
        <time>2022-02-10T08:16:30Z</time>
      </trkpt>
      <trkpt lat="47.53657" lon="1.8449968">
        <ele>132.0</ele>
        <time>2022-02-10T08:16:31Z</time>
      </trkpt>
      <trkpt lat="47.53656" lon="1.8449929">
        <ele>132.0</ele>
        <time>2022-02-10T08:16:32Z</time>
      </trkpt>
      <trkpt lat="47.53655" lon="1.8449919">
        <ele>132.0</ele>
        <time>2022-02-10T08:16:33Z</time>
      </trkpt>
      <trkpt lat="47.536537" lon="1.8449913">
        <ele>131.0</ele>
        <time>2022-02-10T08:16:34Z</time>
      </trkpt>
      <trkpt lat="47.536522" lon="1.8449907">
        <ele>131.0</ele>
        <time>2022-02-10T08:16:35Z</time>
      </trkpt>
      <trkpt lat="47.536507" lon="1.8449855">
        <ele>131.0</ele>
        <time>2022-02-10T08:16:36Z</time>
      </trkpt>
      <trkpt lat="47.536495" lon="1.8449856">
        <ele>131.0</ele>
        <time>2022-02-10T08:16:37Z</time>
      </trkpt>
      <trkpt lat="47.536484" lon="1.8449821">
        <ele>131.0</ele>
        <time>2022-02-10T08:16:38Z</time>
      </trkpt>
      <trkpt lat="47.536476" lon="1.8449799">
        <ele>131.0</ele>
        <time>2022-02-10T08:16:39Z</time>
      </trkpt>
      <trkpt lat="47.53646" lon="1.8449789">
        <ele>131.0</ele>
        <time>2022-02-10T08:16:40Z</time>
      </trkpt>
      <trkpt lat="47.536453" lon="1.844979">
        <ele>131.0</ele>
        <time>2022-02-10T08:16:41Z</time>
      </trkpt>
      <trkpt lat="47.536438" lon="1.8449795">
        <ele>131.0</ele>
        <time>2022-02-10T08:16:42Z</time>
      </trkpt>
      <trkpt lat="47.536427" lon="1.8449755">
        <ele>131.0</ele>
        <time>2022-02-10T08:16:43Z</time>
      </trkpt>
      <trkpt lat="47.536415" lon="1.844971">
        <ele>131.0</ele>
        <time>2022-02-10T08:16:44Z</time>
      </trkpt>
      <trkpt lat="47.536404" lon="1.8449736">
        <ele>131.0</ele>
        <time>2022-02-10T08:16:45Z</time>
      </trkpt>
      <trkpt lat="47.53639" lon="1.8449743">
        <ele>131.0</ele>
        <time>2022-02-10T08:16:46Z</time>
      </trkpt>
      <trkpt lat="47.536373" lon="1.8449699">
        <ele>130.0</ele>
        <time>2022-02-10T08:16:47Z</time>
      </trkpt>
      <trkpt lat="47.53636" lon="1.8449603">
        <ele>130.0</ele>
        <time>2022-02-10T08:16:48Z</time>
      </trkpt>
      <trkpt lat="47.536343" lon="1.8449615">
        <ele>130.0</ele>
        <time>2022-02-10T08:16:49Z</time>
      </trkpt>
      <trkpt lat="47.536324" lon="1.8449605">
        <ele>129.0</ele>
        <time>2022-02-10T08:16:50Z</time>
      </trkpt>
      <trkpt lat="47.536312" lon="1.8449612">
        <ele>129.0</ele>
        <time>2022-02-10T08:16:51Z</time>
      </trkpt>
      <trkpt lat="47.5363" lon="1.8449616">
        <ele>130.0</ele>
        <time>2022-02-10T08:16:52Z</time>
      </trkpt>
      <trkpt lat="47.53629" lon="1.8449602">
        <ele>130.0</ele>
        <time>2022-02-10T08:16:53Z</time>
      </trkpt>
      <trkpt lat="47.536274" lon="1.8449599">
        <ele>130.0</ele>
        <time>2022-02-10T08:16:54Z</time>
      </trkpt>
      <trkpt lat="47.53626" lon="1.8449547">
        <ele>131.0</ele>
        <time>2022-02-10T08:16:55Z</time>
      </trkpt>
      <trkpt lat="47.536243" lon="1.844949">
        <ele>131.0</ele>
        <time>2022-02-10T08:16:56Z</time>
      </trkpt>
      <trkpt lat="47.536232" lon="1.8449429">
        <ele>131.0</ele>
        <time>2022-02-10T08:16:57Z</time>
      </trkpt>
      <trkpt lat="47.536224" lon="1.84494">
        <ele>131.0</ele>
        <time>2022-02-10T08:16:58Z</time>
      </trkpt>
      <trkpt lat="47.536217" lon="1.8449376">
        <ele>131.0</ele>
        <time>2022-02-10T08:16:59Z</time>
      </trkpt>
      <trkpt lat="47.536205" lon="1.844933">
        <ele>132.0</ele>
        <time>2022-02-10T08:17:00Z</time>
      </trkpt>
      <trkpt lat="47.536194" lon="1.8449254">
        <ele>132.0</ele>
        <time>2022-02-10T08:17:01Z</time>
      </trkpt>
      <trkpt lat="47.536182" lon="1.8449175">
        <ele>132.0</ele>
        <time>2022-02-10T08:17:02Z</time>
      </trkpt>
      <trkpt lat="47.53618" lon="1.8449163">
        <ele>132.0</ele>
        <time>2022-02-10T08:17:03Z</time>
      </trkpt>
      <trkpt lat="47.536175" lon="1.8449197">
        <ele>133.0</ele>
        <time>2022-02-10T08:17:04Z</time>
      </trkpt>
      <trkpt lat="47.53617" lon="1.8449266">
        <ele>133.0</ele>
        <time>2022-02-10T08:17:05Z</time>
      </trkpt>
      <trkpt lat="47.53617" lon="1.844927">
        <ele>134.0</ele>
        <time>2022-02-10T08:17:06Z</time>
      </trkpt>
      <trkpt lat="47.53617" lon="1.844927">
        <ele>134.0</ele>
        <time>2022-02-10T08:17:06Z</time>
      </trkpt>
    </trkseg>
    <trkseg>
      <trkpt lat="47.53617" lon="1.844927">
        <ele>134.0</ele>
        <time>2022-02-10T08:17:06Z</time>
      </trkpt>
      <trkpt lat="47.536087" lon="1.8448749">
        <ele>132.0</ele>
        <time>2022-02-10T08:17:34Z</time>
      </trkpt>
      <trkpt lat="47.53607" lon="1.8448709">
        <ele>132.0</ele>
        <time>2022-02-10T08:17:35Z</time>
      </trkpt>
      <trkpt lat="47.536064" lon="1.844867">
        <ele>131.0</ele>
        <time>2022-02-10T08:17:36Z</time>
      </trkpt>
      <trkpt lat="47.536057" lon="1.8448653">
        <ele>131.0</ele>
        <time>2022-02-10T08:17:37Z</time>
      </trkpt>
      <trkpt lat="47.536053" lon="1.844861">
        <ele>131.0</ele>
        <time>2022-02-10T08:17:38Z</time>
      </trkpt>
      <trkpt lat="47.536045" lon="1.84486">
        <ele>130.0</ele>
        <time>2022-02-10T08:17:39Z</time>
      </trkpt>
      <trkpt lat="47.536037" lon="1.8448579">
        <ele>130.0</ele>
        <time>2022-02-10T08:17:40Z</time>
      </trkpt>
      <trkpt lat="47.536037" lon="1.8448579">
        <ele>130.0</ele>
        <time>2022-02-10T08:17:41Z</time>
      </trkpt>
      <trkpt lat="47.536037" lon="1.8448579">
        <ele>130.0</ele>
        <time>2022-02-10T08:17:42Z</time>
      </trkpt>
      <trkpt lat="47.536037" lon="1.8448579">
        <ele>130.0</ele>
        <time>2022-02-10T08:17:43Z</time>
      </trkpt>
      <trkpt lat="47.536015" lon="1.8448501">
        <ele>130.0</ele>
        <time>2022-02-10T08:17:44Z</time>
      </trkpt>
      <trkpt lat="47.536003" lon="1.8448453">
        <ele>130.0</ele>
        <time>2022-02-10T08:17:45Z</time>
      </trkpt>
      <trkpt lat="47.535995" lon="1.8448436">
        <ele>129.0</ele>
        <time>2022-02-10T08:17:46Z</time>
      </trkpt>
      <trkpt lat="47.535988" lon="1.8448385">
        <ele>129.0</ele>
        <time>2022-02-10T08:17:47Z</time>
      </trkpt>
      <trkpt lat="47.53598" lon="1.8448367">
        <ele>129.0</ele>
        <time>2022-02-10T08:17:48Z</time>
      </trkpt>
      <trkpt lat="47.53597" lon="1.8448329">
        <ele>129.0</ele>
        <time>2022-02-10T08:17:49Z</time>
      </trkpt>
      <trkpt lat="47.53596" lon="1.8448294">
        <ele>129.0</ele>
        <time>2022-02-10T08:17:50Z</time>
      </trkpt>
      <trkpt lat="47.53595" lon="1.8448198">
        <ele>128.0</ele>
        <time>2022-02-10T08:17:51Z</time>
      </trkpt>
      <trkpt lat="47.535942" lon="1.844814">
        <ele>129.0</ele>
        <time>2022-02-10T08:17:52Z</time>
      </trkpt>
      <trkpt lat="47.535934" lon="1.844811">
        <ele>128.0</ele>
        <time>2022-02-10T08:17:53Z</time>
      </trkpt>
      <trkpt lat="47.535923" lon="1.8448051">
        <ele>128.0</ele>
        <time>2022-02-10T08:17:54Z</time>
      </trkpt>
      <trkpt lat="47.53591" lon="1.8447987">
        <ele>128.0</ele>
        <time>2022-02-10T08:17:55Z</time>
      </trkpt>
      <trkpt lat="47.535904" lon="1.844791">
        <ele>128.0</ele>
        <time>2022-02-10T08:17:56Z</time>
      </trkpt>
      <trkpt lat="47.535892" lon="1.8447812">
        <ele>128.0</ele>
        <time>2022-02-10T08:17:57Z</time>
      </trkpt>
      <trkpt lat="47.53588" lon="1.8447783">
        <ele>128.0</ele>
        <time>2022-02-10T08:17:58Z</time>
      </trkpt>
      <trkpt lat="47.535873" lon="1.8447758">
        <ele>127.0</ele>
        <time>2022-02-10T08:17:59Z</time>
      </trkpt>
      <trkpt lat="47.535866" lon="1.844775">
        <ele>127.0</ele>
        <time>2022-02-10T08:18:00Z</time>
      </trkpt>
      <trkpt lat="47.535854" lon="1.8447781">
        <ele>127.0</ele>
        <time>2022-02-10T08:18:01Z</time>
      </trkpt>
      <trkpt lat="47.535854" lon="1.8447781">
        <ele>127.0</ele>
        <time>2022-02-10T08:18:02Z</time>
      </trkpt>
      <trkpt lat="47.535854" lon="1.8447781">
        <ele>127.0</ele>
        <time>2022-02-10T08:18:03Z</time>
      </trkpt>
      <trkpt lat="47.53583" lon="1.8447667">
        <ele>126.0</ele>
        <time>2022-02-10T08:18:04Z</time>
      </trkpt>
      <trkpt lat="47.535824" lon="1.8447629">
        <ele>126.0</ele>
        <time>2022-02-10T08:18:05Z</time>
      </trkpt>
      <trkpt lat="47.535812" lon="1.8447604">
        <ele>126.0</ele>
        <time>2022-02-10T08:18:06Z</time>
      </trkpt>
      <trkpt lat="47.5358" lon="1.844757">
        <ele>126.0</ele>
        <time>2022-02-10T08:18:07Z</time>
      </trkpt>
      <trkpt lat="47.53579" lon="1.8447497">
        <ele>126.0</ele>
        <time>2022-02-10T08:18:08Z</time>
      </trkpt>
      <trkpt lat="47.535778" lon="1.8447387">
        <ele>126.0</ele>
        <time>2022-02-10T08:18:09Z</time>
      </trkpt>
      <trkpt lat="47.535763" lon="1.84473">
        <ele>126.0</ele>
        <time>2022-02-10T08:18:10Z</time>
      </trkpt>
      <trkpt lat="47.535755" lon="1.8447244">
        <ele>126.0</ele>
        <time>2022-02-10T08:18:11Z</time>
      </trkpt>
      <trkpt lat="47.535744" lon="1.8447213">
        <ele>126.0</ele>
        <time>2022-02-10T08:18:12Z</time>
      </trkpt>
      <trkpt lat="47.535736" lon="1.8447219">
        <ele>126.0</ele>
        <time>2022-02-10T08:18:13Z</time>
      </trkpt>
      <trkpt lat="47.535725" lon="1.8447198">
        <ele>126.0</ele>
        <time>2022-02-10T08:18:14Z</time>
      </trkpt>
      <trkpt lat="47.535713" lon="1.8447156">
        <ele>126.0</ele>
        <time>2022-02-10T08:18:15Z</time>
      </trkpt>
      <trkpt lat="47.535706" lon="1.844713">
        <ele>126.0</ele>
        <time>2022-02-10T08:18:16Z</time>
      </trkpt>
      <trkpt lat="47.535694" lon="1.8447075">
        <ele>126.0</ele>
        <time>2022-02-10T08:18:17Z</time>
      </trkpt>
      <trkpt lat="47.535683" lon="1.8447027">
        <ele>126.0</ele>
        <time>2022-02-10T08:18:18Z</time>
      </trkpt>
      <trkpt lat="47.53567" lon="1.8447049">
        <ele>126.0</ele>
        <time>2022-02-10T08:18:19Z</time>
      </trkpt>
      <trkpt lat="47.53566" lon="1.8446978">
        <ele>126.0</ele>
        <time>2022-02-10T08:18:20Z</time>
      </trkpt>
      <trkpt lat="47.535645" lon="1.8446908">
        <ele>127.0</ele>
        <time>2022-02-10T08:18:21Z</time>
      </trkpt>
      <trkpt lat="47.535633" lon="1.8446869">
        <ele>127.0</ele>
        <time>2022-02-10T08:18:22Z</time>
      </trkpt>
      <trkpt lat="47.53562" lon="1.8446862">
        <ele>127.0</ele>
        <time>2022-02-10T08:18:23Z</time>
      </trkpt>
      <trkpt lat="47.53561" lon="1.8446835">
        <ele>126.0</ele>
        <time>2022-02-10T08:18:24Z</time>
      </trkpt>
      <trkpt lat="47.5356" lon="1.8446778">
        <ele>126.0</ele>
        <time>2022-02-10T08:18:25Z</time>
      </trkpt>
      <trkpt lat="47.535587" lon="1.8446733">
        <ele>126.0</ele>
        <time>2022-02-10T08:18:26Z</time>
      </trkpt>
      <trkpt lat="47.53558" lon="1.8446728">
        <ele>125.0</ele>
        <time>2022-02-10T08:18:27Z</time>
      </trkpt>
      <trkpt lat="47.53557" lon="1.8446655">
        <ele>125.0</ele>
        <time>2022-02-10T08:18:28Z</time>
      </trkpt>
      <trkpt lat="47.53557" lon="1.8446655">
        <ele>125.0</ele>
        <time>2022-02-10T08:18:29Z</time>
      </trkpt>
      <trkpt lat="47.53557" lon="1.8446655">
        <ele>125.0</ele>
        <time>2022-02-10T08:18:30Z</time>
      </trkpt>
      <trkpt lat="47.535545" lon="1.8446673">
        <ele>126.0</ele>
        <time>2022-02-10T08:18:31Z</time>
      </trkpt>
      <trkpt lat="47.535534" lon="1.844671">
        <ele>126.0</ele>
        <time>2022-02-10T08:18:32Z</time>
      </trkpt>
      <trkpt lat="47.535522" lon="1.8446695">
        <ele>127.0</ele>
        <time>2022-02-10T08:18:33Z</time>
      </trkpt>
      <trkpt lat="47.53551" lon="1.8446621">
        <ele>127.0</ele>
        <time>2022-02-10T08:18:34Z</time>
      </trkpt>
      <trkpt lat="47.53551" lon="1.8446621">
        <ele>127.0</ele>
        <time>2022-02-10T08:18:35Z</time>
      </trkpt>
      <trkpt lat="47.53551" lon="1.8446621">
        <ele>127.0</ele>
        <time>2022-02-10T08:18:36Z</time>
      </trkpt>
      <trkpt lat="47.535484" lon="1.8446409">
        <ele>127.0</ele>
        <time>2022-02-10T08:18:37Z</time>
      </trkpt>
      <trkpt lat="47.535473" lon="1.8446348">
        <ele>127.0</ele>
        <time>2022-02-10T08:18:38Z</time>
      </trkpt>
      <trkpt lat="47.53546" lon="1.8446307">
        <ele>127.0</ele>
        <time>2022-02-10T08:18:39Z</time>
      </trkpt>
      <trkpt lat="47.53545" lon="1.8446227">
        <ele>127.0</ele>
        <time>2022-02-10T08:18:40Z</time>
      </trkpt>
      <trkpt lat="47.535442" lon="1.8446134">
        <ele>127.0</ele>
        <time>2022-02-10T08:18:41Z</time>
      </trkpt>
      <trkpt lat="47.53543" lon="1.8446144">
        <ele>127.0</ele>
        <time>2022-02-10T08:18:42Z</time>
      </trkpt>
      <trkpt lat="47.53542" lon="1.8446121">
        <ele>127.0</ele>
        <time>2022-02-10T08:18:43Z</time>
      </trkpt>
      <trkpt lat="47.53541" lon="1.8446034">
        <ele>127.0</ele>
        <time>2022-02-10T08:18:44Z</time>
      </trkpt>
      <trkpt lat="47.5354" lon="1.844598">
        <ele>127.0</ele>
        <time>2022-02-10T08:18:45Z</time>
      </trkpt>
      <trkpt lat="47.535393" lon="1.8445977">
        <ele>127.0</ele>
        <time>2022-02-10T08:18:46Z</time>
      </trkpt>
      <trkpt lat="47.53538" lon="1.84459">
        <ele>127.0</ele>
        <time>2022-02-10T08:18:47Z</time>
      </trkpt>
      <trkpt lat="47.53538" lon="1.84459">
        <ele>127.0</ele>
        <time>2022-02-10T08:18:48Z</time>
      </trkpt>
      <trkpt lat="47.53538" lon="1.84459">
        <ele>127.0</ele>
        <time>2022-02-10T08:18:49Z</time>
      </trkpt>
      <trkpt lat="47.53536" lon="1.8445911">
        <ele>126.0</ele>
        <time>2022-02-10T08:18:50Z</time>
      </trkpt>
      <trkpt lat="47.535347" lon="1.8445859">
        <ele>126.0</ele>
        <time>2022-02-10T08:18:51Z</time>
      </trkpt>
      <trkpt lat="47.535336" lon="1.8445829">
        <ele>125.0</ele>
        <time>2022-02-10T08:18:52Z</time>
      </trkpt>
      <trkpt lat="47.535328" lon="1.8445834">
        <ele>125.0</ele>
        <time>2022-02-10T08:18:53Z</time>
      </trkpt>
      <trkpt lat="47.53532" lon="1.8445837">
        <ele>125.0</ele>
        <time>2022-02-10T08:18:54Z</time>
      </trkpt>
      <trkpt lat="47.535305" lon="1.8445848">
        <ele>125.0</ele>
        <time>2022-02-10T08:18:55Z</time>
      </trkpt>
      <trkpt lat="47.535297" lon="1.8445855">
        <ele>125.0</ele>
        <time>2022-02-10T08:18:56Z</time>
      </trkpt>
      <trkpt lat="47.535286" lon="1.8445852">
        <ele>125.0</ele>
        <time>2022-02-10T08:18:57Z</time>
      </trkpt>
      <trkpt lat="47.535275" lon="1.8445832">
        <ele>125.0</ele>
        <time>2022-02-10T08:18:58Z</time>
      </trkpt>
      <trkpt lat="47.535263" lon="1.8445835">
        <ele>125.0</ele>
        <time>2022-02-10T08:18:59Z</time>
      </trkpt>
      <trkpt lat="47.535248" lon="1.8445837">
        <ele>125.0</ele>
        <time>2022-02-10T08:19:00Z</time>
      </trkpt>
      <trkpt lat="47.535233" lon="1.8445776">
        <ele>124.0</ele>
        <time>2022-02-10T08:19:01Z</time>
      </trkpt>
      <trkpt lat="47.53522" lon="1.8445743">
        <ele>124.0</ele>
        <time>2022-02-10T08:19:02Z</time>
      </trkpt>
      <trkpt lat="47.535206" lon="1.8445663">
        <ele>123.0</ele>
        <time>2022-02-10T08:19:03Z</time>
      </trkpt>
      <trkpt lat="47.5352" lon="1.8445605">
        <ele>123.0</ele>
        <time>2022-02-10T08:19:04Z</time>
      </trkpt>
      <trkpt lat="47.535187" lon="1.844553">
        <ele>123.0</ele>
        <time>2022-02-10T08:19:05Z</time>
      </trkpt>
      <trkpt lat="47.535175" lon="1.8445472">
        <ele>122.0</ele>
        <time>2022-02-10T08:19:06Z</time>
      </trkpt>
      <trkpt lat="47.535164" lon="1.8445389">
        <ele>122.0</ele>
        <time>2022-02-10T08:19:07Z</time>
      </trkpt>
      <trkpt lat="47.53515" lon="1.8445321">
        <ele>122.0</ele>
        <time>2022-02-10T08:19:08Z</time>
      </trkpt>
      <trkpt lat="47.535137" lon="1.84453">
        <ele>122.0</ele>
        <time>2022-02-10T08:19:09Z</time>
      </trkpt>
      <trkpt lat="47.53513" lon="1.8445265">
        <ele>122.0</ele>
        <time>2022-02-10T08:19:10Z</time>
      </trkpt>
      <trkpt lat="47.535122" lon="1.8445209">
        <ele>122.0</ele>
        <time>2022-02-10T08:19:11Z</time>
      </trkpt>
      <trkpt lat="47.53511" lon="1.8445177">
        <ele>122.0</ele>
        <time>2022-02-10T08:19:12Z</time>
      </trkpt>
      <trkpt lat="47.535095" lon="1.8445129">
        <ele>122.0</ele>
        <time>2022-02-10T08:19:13Z</time>
      </trkpt>
      <trkpt lat="47.53508" lon="1.8445117">
        <ele>122.0</ele>
        <time>2022-02-10T08:19:14Z</time>
      </trkpt>
      <trkpt lat="47.53507" lon="1.8445053">
        <ele>122.0</ele>
        <time>2022-02-10T08:19:15Z</time>
      </trkpt>
      <trkpt lat="47.535057" lon="1.844503">
        <ele>122.0</ele>
        <time>2022-02-10T08:19:16Z</time>
      </trkpt>
      <trkpt lat="47.53505" lon="1.8444968">
        <ele>122.0</ele>
        <time>2022-02-10T08:19:17Z</time>
      </trkpt>
      <trkpt lat="47.535038" lon="1.8444943">
        <ele>122.0</ele>
        <time>2022-02-10T08:19:18Z</time>
      </trkpt>
      <trkpt lat="47.53503" lon="1.8444881">
        <ele>121.0</ele>
        <time>2022-02-10T08:19:19Z</time>
      </trkpt>
      <trkpt lat="47.53502" lon="1.8444822">
        <ele>121.0</ele>
        <time>2022-02-10T08:19:20Z</time>
      </trkpt>
      <trkpt lat="47.53501" lon="1.8444794">
        <ele>121.0</ele>
        <time>2022-02-10T08:19:21Z</time>
      </trkpt>
      <trkpt lat="47.535" lon="1.8444782">
        <ele>120.0</ele>
        <time>2022-02-10T08:19:22Z</time>
      </trkpt>
      <trkpt lat="47.535" lon="1.8444782">
        <ele>120.0</ele>
        <time>2022-02-10T08:19:23Z</time>
      </trkpt>
      <trkpt lat="47.535" lon="1.8444782">
        <ele>120.0</ele>
        <time>2022-02-10T08:19:24Z</time>
      </trkpt>
      <trkpt lat="47.534973" lon="1.8444542">
        <ele>119.0</ele>
        <time>2022-02-10T08:19:25Z</time>
      </trkpt>
      <trkpt lat="47.534966" lon="1.8444458">
        <ele>119.0</ele>
        <time>2022-02-10T08:19:26Z</time>
      </trkpt>
      <trkpt lat="47.534954" lon="1.8444415">
        <ele>119.0</ele>
        <time>2022-02-10T08:19:27Z</time>
      </trkpt>
      <trkpt lat="47.534943" lon="1.844438">
        <ele>119.0</ele>
        <time>2022-02-10T08:19:28Z</time>
      </trkpt>
      <trkpt lat="47.534927" lon="1.844428">
        <ele>119.0</ele>
        <time>2022-02-10T08:19:29Z</time>
      </trkpt>
      <trkpt lat="47.534916" lon="1.844422">
        <ele>119.0</ele>
        <time>2022-02-10T08:19:30Z</time>
      </trkpt>
      <trkpt lat="47.534904" lon="1.8444214">
        <ele>118.0</ele>
        <time>2022-02-10T08:19:31Z</time>
      </trkpt>
      <trkpt lat="47.534897" lon="1.844423">
        <ele>118.0</ele>
        <time>2022-02-10T08:19:32Z</time>
      </trkpt>
      <trkpt lat="47.53489" lon="1.8444215">
        <ele>118.0</ele>
        <time>2022-02-10T08:19:33Z</time>
      </trkpt>
      <trkpt lat="47.53489" lon="1.8444215">
        <ele>118.0</ele>
        <time>2022-02-10T08:19:34Z</time>
      </trkpt>
      <trkpt lat="47.53489" lon="1.8444215">
        <ele>118.0</ele>
        <time>2022-02-10T08:19:35Z</time>
      </trkpt>
      <trkpt lat="47.534863" lon="1.8444124">
        <ele>118.0</ele>
        <time>2022-02-10T08:19:36Z</time>
      </trkpt>
      <trkpt lat="47.534855" lon="1.8444073">
        <ele>119.0</ele>
        <time>2022-02-10T08:19:37Z</time>
      </trkpt>
      <trkpt lat="47.534843" lon="1.8444029">
        <ele>119.0</ele>
        <time>2022-02-10T08:19:38Z</time>
      </trkpt>
      <trkpt lat="47.534836" lon="1.8444035">
        <ele>119.0</ele>
        <time>2022-02-10T08:19:39Z</time>
      </trkpt>
      <trkpt lat="47.534836" lon="1.8444035">
        <ele>119.0</ele>
        <time>2022-02-10T08:19:40Z</time>
      </trkpt>
      <trkpt lat="47.534836" lon="1.8444035">
        <ele>119.0</ele>
        <time>2022-02-10T08:19:41Z</time>
      </trkpt>
      <trkpt lat="47.53481" lon="1.8443961">
        <ele>118.0</ele>
        <time>2022-02-10T08:19:42Z</time>
      </trkpt>
      <trkpt lat="47.5348" lon="1.844393">
        <ele>117.0</ele>
        <time>2022-02-10T08:19:43Z</time>
      </trkpt>
      <trkpt lat="47.534786" lon="1.8443921">
        <ele>117.0</ele>
        <time>2022-02-10T08:19:44Z</time>
      </trkpt>
      <trkpt lat="47.53478" lon="1.8443887">
        <ele>117.0</ele>
        <time>2022-02-10T08:19:45Z</time>
      </trkpt>
      <trkpt lat="47.53478" lon="1.8443887">
        <ele>117.0</ele>
        <time>2022-02-10T08:19:46Z</time>
      </trkpt>
      <trkpt lat="47.53478" lon="1.8443887">
        <ele>117.0</ele>
        <time>2022-02-10T08:19:47Z</time>
      </trkpt>
      <trkpt lat="47.534756" lon="1.8443785">
        <ele>117.0</ele>
        <time>2022-02-10T08:19:48Z</time>
      </trkpt>
      <trkpt lat="47.534737" lon="1.8443791">
        <ele>117.0</ele>
        <time>2022-02-10T08:19:49Z</time>
      </trkpt>
      <trkpt lat="47.534725" lon="1.8443774">
        <ele>116.0</ele>
        <time>2022-02-10T08:19:50Z</time>
      </trkpt>
      <trkpt lat="47.534718" lon="1.8443689">
        <ele>116.0</ele>
        <time>2022-02-10T08:19:51Z</time>
      </trkpt>
      <trkpt lat="47.534718" lon="1.8443689">
        <ele>116.0</ele>
        <time>2022-02-10T08:19:52Z</time>
      </trkpt>
      <trkpt lat="47.534718" lon="1.8443689">
        <ele>116.0</ele>
        <time>2022-02-10T08:19:53Z</time>
      </trkpt>
      <trkpt lat="47.53469" lon="1.8443547">
        <ele>116.0</ele>
        <time>2022-02-10T08:19:54Z</time>
      </trkpt>
      <trkpt lat="47.53468" lon="1.8443518">
        <ele>115.0</ele>
        <time>2022-02-10T08:19:55Z</time>
      </trkpt>
      <trkpt lat="47.534668" lon="1.8443478">
        <ele>114.0</ele>
        <time>2022-02-10T08:19:56Z</time>
      </trkpt>
      <trkpt lat="47.53466" lon="1.8443407">
        <ele>114.0</ele>
        <time>2022-02-10T08:19:57Z</time>
      </trkpt>
      <trkpt lat="47.53466" lon="1.8443407">
        <ele>114.0</ele>
        <time>2022-02-10T08:19:58Z</time>
      </trkpt>
      <trkpt lat="47.53463" lon="1.8443311">
        <ele>114.0</ele>
        <time>2022-02-10T08:19:59Z</time>
      </trkpt>
      <trkpt lat="47.534615" lon="1.8443248">
        <ele>114.0</ele>
        <time>2022-02-10T08:20:00Z</time>
      </trkpt>
      <trkpt lat="47.5346" lon="1.8443227">
        <ele>114.0</ele>
        <time>2022-02-10T08:20:01Z</time>
      </trkpt>
      <trkpt lat="47.534588" lon="1.8443217">
        <ele>115.0</ele>
        <time>2022-02-10T08:20:02Z</time>
      </trkpt>
      <trkpt lat="47.534576" lon="1.8443167">
        <ele>115.0</ele>
        <time>2022-02-10T08:20:03Z</time>
      </trkpt>
      <trkpt lat="47.534557" lon="1.844315">
        <ele>115.0</ele>
        <time>2022-02-10T08:20:04Z</time>
      </trkpt>
      <trkpt lat="47.534546" lon="1.8443137">
        <ele>115.0</ele>
        <time>2022-02-10T08:20:05Z</time>
      </trkpt>
      <trkpt lat="47.534546" lon="1.8443137">
        <ele>115.0</ele>
        <time>2022-02-10T08:20:06Z</time>
      </trkpt>
      <trkpt lat="47.534546" lon="1.8443137">
        <ele>115.0</ele>
        <time>2022-02-10T08:20:07Z</time>
      </trkpt>
      <trkpt lat="47.534527" lon="1.8442962">
        <ele>116.0</ele>
        <time>2022-02-10T08:20:08Z</time>
      </trkpt>
      <trkpt lat="47.53452" lon="1.8442904">
        <ele>116.0</ele>
        <time>2022-02-10T08:20:09Z</time>
      </trkpt>
      <trkpt lat="47.53451" lon="1.8442854">
        <ele>117.0</ele>
        <time>2022-02-10T08:20:10Z</time>
      </trkpt>
      <trkpt lat="47.534496" lon="1.8442783">
        <ele>117.0</ele>
        <time>2022-02-10T08:20:11Z</time>
      </trkpt>
      <trkpt lat="47.534496" lon="1.8442783">
        <ele>117.0</ele>
        <time>2022-02-10T08:20:12Z</time>
      </trkpt>
      <trkpt lat="47.534496" lon="1.8442783">
        <ele>117.0</ele>
        <time>2022-02-10T08:20:13Z</time>
      </trkpt>
      <trkpt lat="47.534462" lon="1.8442591">
        <ele>117.0</ele>
        <time>2022-02-10T08:20:14Z</time>
      </trkpt>
      <trkpt lat="47.534447" lon="1.8442538">
        <ele>117.0</ele>
        <time>2022-02-10T08:20:15Z</time>
      </trkpt>
      <trkpt lat="47.53444" lon="1.8442484">
        <ele>117.0</ele>
        <time>2022-02-10T08:20:16Z</time>
      </trkpt>
      <trkpt lat="47.534428" lon="1.8442425">
        <ele>116.0</ele>
        <time>2022-02-10T08:20:17Z</time>
      </trkpt>
      <trkpt lat="47.534416" lon="1.8442369">
        <ele>116.0</ele>
        <time>2022-02-10T08:20:18Z</time>
      </trkpt>
      <trkpt lat="47.534405" lon="1.8442351">
        <ele>116.0</ele>
        <time>2022-02-10T08:20:19Z</time>
      </trkpt>
      <trkpt lat="47.534405" lon="1.8442351">
        <ele>116.0</ele>
        <time>2022-02-10T08:20:20Z</time>
      </trkpt>
      <trkpt lat="47.534378" lon="1.8442304">
        <ele>116.0</ele>
        <time>2022-02-10T08:20:21Z</time>
      </trkpt>
      <trkpt lat="47.53436" lon="1.8442203">
        <ele>116.0</ele>
        <time>2022-02-10T08:20:22Z</time>
      </trkpt>
      <trkpt lat="47.534348" lon="1.8442116">
        <ele>116.0</ele>
        <time>2022-02-10T08:20:23Z</time>
      </trkpt>
      <trkpt lat="47.53434" lon="1.844209">
        <ele>116.0</ele>
        <time>2022-02-10T08:20:24Z</time>
      </trkpt>
      <trkpt lat="47.53433" lon="1.8442018">
        <ele>116.0</ele>
        <time>2022-02-10T08:20:25Z</time>
      </trkpt>
      <trkpt lat="47.534313" lon="1.8441983">
        <ele>116.0</ele>
        <time>2022-02-10T08:20:26Z</time>
      </trkpt>
      <trkpt lat="47.534298" lon="1.8441967">
        <ele>117.0</ele>
        <time>2022-02-10T08:20:27Z</time>
      </trkpt>
      <trkpt lat="47.534286" lon="1.8441948">
        <ele>117.0</ele>
        <time>2022-02-10T08:20:28Z</time>
      </trkpt>
      <trkpt lat="47.534275" lon="1.8441911">
        <ele>117.0</ele>
        <time>2022-02-10T08:20:29Z</time>
      </trkpt>
      <trkpt lat="47.53426" lon="1.8441886">
        <ele>118.0</ele>
        <time>2022-02-10T08:20:30Z</time>
      </trkpt>
      <trkpt lat="47.534245" lon="1.8441943">
        <ele>119.0</ele>
        <time>2022-02-10T08:20:31Z</time>
      </trkpt>
      <trkpt lat="47.53423" lon="1.8441932">
        <ele>119.0</ele>
        <time>2022-02-10T08:20:32Z</time>
      </trkpt>
      <trkpt lat="47.534214" lon="1.8441945">
        <ele>119.0</ele>
        <time>2022-02-10T08:20:33Z</time>
      </trkpt>
      <trkpt lat="47.5342" lon="1.8441913">
        <ele>119.0</ele>
        <time>2022-02-10T08:20:34Z</time>
      </trkpt>
      <trkpt lat="47.534184" lon="1.8441862">
        <ele>120.0</ele>
        <time>2022-02-10T08:20:35Z</time>
      </trkpt>
      <trkpt lat="47.534172" lon="1.8441824">
        <ele>120.0</ele>
        <time>2022-02-10T08:20:36Z</time>
      </trkpt>
      <trkpt lat="47.534157" lon="1.8441747">
        <ele>120.0</ele>
        <time>2022-02-10T08:20:37Z</time>
      </trkpt>
      <trkpt lat="47.53415" lon="1.8441731">
        <ele>120.0</ele>
        <time>2022-02-10T08:20:38Z</time>
      </trkpt>
      <trkpt lat="47.53415" lon="1.8441731">
        <ele>120.0</ele>
        <time>2022-02-10T08:20:39Z</time>
      </trkpt>
      <trkpt lat="47.53415" lon="1.8441731">
        <ele>120.0</ele>
        <time>2022-02-10T08:20:40Z</time>
      </trkpt>
      <trkpt lat="47.53411" lon="1.8441682">
        <ele>121.0</ele>
        <time>2022-02-10T08:20:41Z</time>
      </trkpt>
      <trkpt lat="47.5341" lon="1.8441619">
        <ele>121.0</ele>
        <time>2022-02-10T08:20:42Z</time>
      </trkpt>
      <trkpt lat="47.534084" lon="1.8441604">
        <ele>121.0</ele>
        <time>2022-02-10T08:20:43Z</time>
      </trkpt>
      <trkpt lat="47.534073" lon="1.8441576">
        <ele>121.0</ele>
        <time>2022-02-10T08:20:44Z</time>
      </trkpt>
      <trkpt lat="47.53406" lon="1.8441559">
        <ele>121.0</ele>
        <time>2022-02-10T08:20:45Z</time>
      </trkpt>
      <trkpt lat="47.53405" lon="1.8441495">
        <ele>121.0</ele>
        <time>2022-02-10T08:20:46Z</time>
      </trkpt>
      <trkpt lat="47.53404" lon="1.8441421">
        <ele>121.0</ele>
        <time>2022-02-10T08:20:47Z</time>
      </trkpt>
      <trkpt lat="47.53404" lon="1.8441421">
        <ele>121.0</ele>
        <time>2022-02-10T08:20:48Z</time>
      </trkpt>
      <trkpt lat="47.53404" lon="1.8441421">
        <ele>121.0</ele>
        <time>2022-02-10T08:20:49Z</time>
      </trkpt>
      <trkpt lat="47.534008" lon="1.844123">
        <ele>121.0</ele>
        <time>2022-02-10T08:20:50Z</time>
      </trkpt>
      <trkpt lat="47.533997" lon="1.8441174">
        <ele>121.0</ele>
        <time>2022-02-10T08:20:51Z</time>
      </trkpt>
      <trkpt lat="47.53399" lon="1.8441125">
        <ele>121.0</ele>
        <time>2022-02-10T08:20:52Z</time>
      </trkpt>
      <trkpt lat="47.533978" lon="1.8441077">
        <ele>121.0</ele>
        <time>2022-02-10T08:20:53Z</time>
      </trkpt>
      <trkpt lat="47.53397" lon="1.8441087">
        <ele>121.0</ele>
        <time>2022-02-10T08:20:54Z</time>
      </trkpt>
      <trkpt lat="47.53396" lon="1.8441056">
        <ele>121.0</ele>
        <time>2022-02-10T08:20:55Z</time>
      </trkpt>
      <trkpt lat="47.53395" lon="1.8441043">
        <ele>121.0</ele>
        <time>2022-02-10T08:20:56Z</time>
      </trkpt>
      <trkpt lat="47.533943" lon="1.8440921">
        <ele>120.0</ele>
        <time>2022-02-10T08:20:57Z</time>
      </trkpt>
      <trkpt lat="47.53393" lon="1.8440853">
        <ele>120.0</ele>
        <time>2022-02-10T08:20:58Z</time>
      </trkpt>
      <trkpt lat="47.533924" lon="1.844082">
        <ele>120.0</ele>
        <time>2022-02-10T08:20:59Z</time>
      </trkpt>
      <trkpt lat="47.533913" lon="1.8440793">
        <ele>120.0</ele>
        <time>2022-02-10T08:21:00Z</time>
      </trkpt>
      <trkpt lat="47.53391" lon="1.8440775">
        <ele>120.0</ele>
        <time>2022-02-10T08:21:01Z</time>
      </trkpt>
      <trkpt lat="47.533897" lon="1.844074">
        <ele>119.0</ele>
        <time>2022-02-10T08:21:02Z</time>
      </trkpt>
      <trkpt lat="47.533897" lon="1.844074">
        <ele>119.0</ele>
        <time>2022-02-10T08:21:03Z</time>
      </trkpt>
      <trkpt lat="47.533897" lon="1.844074">
        <ele>119.0</ele>
        <time>2022-02-10T08:21:04Z</time>
      </trkpt>
      <trkpt lat="47.533863" lon="1.8440621">
        <ele>119.0</ele>
        <time>2022-02-10T08:21:05Z</time>
      </trkpt>
      <trkpt lat="47.533848" lon="1.8440541">
        <ele>119.0</ele>
        <time>2022-02-10T08:21:06Z</time>
      </trkpt>
      <trkpt lat="47.533836" lon="1.8440499">
        <ele>119.0</ele>
        <time>2022-02-10T08:21:07Z</time>
      </trkpt>
      <trkpt lat="47.53382" lon="1.8440406">
        <ele>119.0</ele>
        <time>2022-02-10T08:21:08Z</time>
      </trkpt>
      <trkpt lat="47.533806" lon="1.8440378">
        <ele>118.0</ele>
        <time>2022-02-10T08:21:09Z</time>
      </trkpt>
      <trkpt lat="47.53379" lon="1.8440303">
        <ele>117.0</ele>
        <time>2022-02-10T08:21:10Z</time>
      </trkpt>
      <trkpt lat="47.533775" lon="1.8440257">
        <ele>118.0</ele>
        <time>2022-02-10T08:21:11Z</time>
      </trkpt>
      <trkpt lat="47.533768" lon="1.8440224">
        <ele>118.0</ele>
        <time>2022-02-10T08:21:12Z</time>
      </trkpt>
      <trkpt lat="47.533756" lon="1.8440219">
        <ele>119.0</ele>
        <time>2022-02-10T08:21:13Z</time>
      </trkpt>
      <trkpt lat="47.53375" lon="1.8440193">
        <ele>119.0</ele>
        <time>2022-02-10T08:21:14Z</time>
      </trkpt>
      <trkpt lat="47.533733" lon="1.8440163">
        <ele>119.0</ele>
        <time>2022-02-10T08:21:15Z</time>
      </trkpt>
      <trkpt lat="47.533722" lon="1.8440129">
        <ele>119.0</ele>
        <time>2022-02-10T08:21:16Z</time>
      </trkpt>
      <trkpt lat="47.53371" lon="1.8440058">
        <ele>118.0</ele>
        <time>2022-02-10T08:21:17Z</time>
      </trkpt>
      <trkpt lat="47.5337" lon="1.8440036">
        <ele>118.0</ele>
        <time>2022-02-10T08:21:18Z</time>
      </trkpt>
      <trkpt lat="47.5337" lon="1.8440036">
        <ele>118.0</ele>
        <time>2022-02-10T08:21:19Z</time>
      </trkpt>
      <trkpt lat="47.5337" lon="1.8440036">
        <ele>118.0</ele>
        <time>2022-02-10T08:21:20Z</time>
      </trkpt>
      <trkpt lat="47.533665" lon="1.8439986">
        <ele>118.0</ele>
        <time>2022-02-10T08:21:21Z</time>
      </trkpt>
      <trkpt lat="47.533653" lon="1.8439986">
        <ele>117.0</ele>
        <time>2022-02-10T08:21:22Z</time>
      </trkpt>
      <trkpt lat="47.533638" lon="1.8439894">
        <ele>117.0</ele>
        <time>2022-02-10T08:21:23Z</time>
      </trkpt>
      <trkpt lat="47.533627" lon="1.8439854">
        <ele>118.0</ele>
        <time>2022-02-10T08:21:24Z</time>
      </trkpt>
      <trkpt lat="47.53361" lon="1.8439794">
        <ele>117.0</ele>
        <time>2022-02-10T08:21:25Z</time>
      </trkpt>
      <trkpt lat="47.5336" lon="1.8439769">
        <ele>117.0</ele>
        <time>2022-02-10T08:21:26Z</time>
      </trkpt>
      <trkpt lat="47.533585" lon="1.8439758">
        <ele>117.0</ele>
        <time>2022-02-10T08:21:27Z</time>
      </trkpt>
      <trkpt lat="47.533577" lon="1.8439767">
        <ele>117.0</ele>
        <time>2022-02-10T08:21:28Z</time>
      </trkpt>
      <trkpt lat="47.533566" lon="1.843973">
        <ele>118.0</ele>
        <time>2022-02-10T08:21:29Z</time>
      </trkpt>
      <trkpt lat="47.53355" lon="1.8439667">
        <ele>118.0</ele>
        <time>2022-02-10T08:21:30Z</time>
      </trkpt>
      <trkpt lat="47.53354" lon="1.8439621">
        <ele>119.0</ele>
        <time>2022-02-10T08:21:31Z</time>
      </trkpt>
      <trkpt lat="47.53353" lon="1.8439624">
        <ele>119.0</ele>
        <time>2022-02-10T08:21:32Z</time>
      </trkpt>
      <trkpt lat="47.53352" lon="1.8439592">
        <ele>119.0</ele>
        <time>2022-02-10T08:21:33Z</time>
      </trkpt>
      <trkpt lat="47.53352" lon="1.8439592">
        <ele>119.0</ele>
        <time>2022-02-10T08:21:34Z</time>
      </trkpt>
      <trkpt lat="47.53352" lon="1.8439592">
        <ele>119.0</ele>
        <time>2022-02-10T08:21:35Z</time>
      </trkpt>
      <trkpt lat="47.533493" lon="1.8439573">
        <ele>120.0</ele>
        <time>2022-02-10T08:21:36Z</time>
      </trkpt>
      <trkpt lat="47.53348" lon="1.843956">
        <ele>121.0</ele>
        <time>2022-02-10T08:21:37Z</time>
      </trkpt>
      <trkpt lat="47.53347" lon="1.8439566">
        <ele>121.0</ele>
        <time>2022-02-10T08:21:38Z</time>
      </trkpt>
      <trkpt lat="47.53346" lon="1.8439536">
        <ele>121.0</ele>
        <time>2022-02-10T08:21:39Z</time>
      </trkpt>
      <trkpt lat="47.53346" lon="1.8439536">
        <ele>121.0</ele>
        <time>2022-02-10T08:21:40Z</time>
      </trkpt>
      <trkpt lat="47.53346" lon="1.8439536">
        <ele>121.0</ele>
        <time>2022-02-10T08:21:41Z</time>
      </trkpt>
      <trkpt lat="47.533424" lon="1.8439442">
        <ele>122.0</ele>
        <time>2022-02-10T08:21:42Z</time>
      </trkpt>
      <trkpt lat="47.533413" lon="1.8439415">
        <ele>122.0</ele>
        <time>2022-02-10T08:21:43Z</time>
      </trkpt>
      <trkpt lat="47.533398" lon="1.8439372">
        <ele>122.0</ele>
        <time>2022-02-10T08:21:44Z</time>
      </trkpt>
      <trkpt lat="47.533382" lon="1.843935">
        <ele>122.0</ele>
        <time>2022-02-10T08:21:45Z</time>
      </trkpt>
      <trkpt lat="47.533367" lon="1.8439322">
        <ele>121.0</ele>
        <time>2022-02-10T08:21:46Z</time>
      </trkpt>
      <trkpt lat="47.53336" lon="1.8439234">
        <ele>121.0</ele>
        <time>2022-02-10T08:21:47Z</time>
      </trkpt>
      <trkpt lat="47.533348" lon="1.8439183">
        <ele>120.0</ele>
        <time>2022-02-10T08:21:48Z</time>
      </trkpt>
      <trkpt lat="47.533337" lon="1.8439102">
        <ele>120.0</ele>
        <time>2022-02-10T08:21:49Z</time>
      </trkpt>
      <trkpt lat="47.53332" lon="1.8439084">
        <ele>120.0</ele>
        <time>2022-02-10T08:21:50Z</time>
      </trkpt>
      <trkpt lat="47.533302" lon="1.8438997">
        <ele>120.0</ele>
        <time>2022-02-10T08:21:51Z</time>
      </trkpt>
      <trkpt lat="47.533295" lon="1.8438966">
        <ele>119.0</ele>
        <time>2022-02-10T08:21:52Z</time>
      </trkpt>
      <trkpt lat="47.533283" lon="1.8438896">
        <ele>119.0</ele>
        <time>2022-02-10T08:21:53Z</time>
      </trkpt>
      <trkpt lat="47.533268" lon="1.8438816">
        <ele>119.0</ele>
        <time>2022-02-10T08:21:54Z</time>
      </trkpt>
      <trkpt lat="47.533257" lon="1.8438764">
        <ele>119.0</ele>
        <time>2022-02-10T08:21:55Z</time>
      </trkpt>
      <trkpt lat="47.53324" lon="1.843876">
        <ele>119.0</ele>
        <time>2022-02-10T08:21:56Z</time>
      </trkpt>
      <trkpt lat="47.53323" lon="1.8438747">
        <ele>119.0</ele>
        <time>2022-02-10T08:21:57Z</time>
      </trkpt>
      <trkpt lat="47.53321" lon="1.8438764">
        <ele>119.0</ele>
        <time>2022-02-10T08:21:58Z</time>
      </trkpt>
      <trkpt lat="47.5332" lon="1.8438729">
        <ele>118.0</ele>
        <time>2022-02-10T08:21:59Z</time>
      </trkpt>
      <trkpt lat="47.533188" lon="1.8438756">
        <ele>118.0</ele>
        <time>2022-02-10T08:22:00Z</time>
      </trkpt>
      <trkpt lat="47.533176" lon="1.8438776">
        <ele>118.0</ele>
        <time>2022-02-10T08:22:01Z</time>
      </trkpt>
      <trkpt lat="47.533165" lon="1.8438734">
        <ele>117.0</ele>
        <time>2022-02-10T08:22:02Z</time>
      </trkpt>
      <trkpt lat="47.53315" lon="1.8438725">
        <ele>118.0</ele>
        <time>2022-02-10T08:22:03Z</time>
      </trkpt>
      <trkpt lat="47.53314" lon="1.8438675">
        <ele>118.0</ele>
        <time>2022-02-10T08:22:04Z</time>
      </trkpt>
      <trkpt lat="47.533127" lon="1.8438685">
        <ele>118.0</ele>
        <time>2022-02-10T08:22:05Z</time>
      </trkpt>
      <trkpt lat="47.533127" lon="1.8438685">
        <ele>118.0</ele>
        <time>2022-02-10T08:22:06Z</time>
      </trkpt>
      <trkpt lat="47.533127" lon="1.8438685">
        <ele>118.0</ele>
        <time>2022-02-10T08:22:07Z</time>
      </trkpt>
      <trkpt lat="47.533092" lon="1.8438586">
        <ele>118.0</ele>
        <time>2022-02-10T08:22:08Z</time>
      </trkpt>
      <trkpt lat="47.53308" lon="1.8438556">
        <ele>118.0</ele>
        <time>2022-02-10T08:22:09Z</time>
      </trkpt>
      <trkpt lat="47.53307" lon="1.8438513">
        <ele>119.0</ele>
        <time>2022-02-10T08:22:10Z</time>
      </trkpt>
      <trkpt lat="47.53306" lon="1.8438505">
        <ele>119.0</ele>
        <time>2022-02-10T08:22:11Z</time>
      </trkpt>
      <trkpt lat="47.533047" lon="1.8438517">
        <ele>120.0</ele>
        <time>2022-02-10T08:22:12Z</time>
      </trkpt>
      <trkpt lat="47.533035" lon="1.8438493">
        <ele>120.0</ele>
        <time>2022-02-10T08:22:13Z</time>
      </trkpt>
      <trkpt lat="47.533035" lon="1.8438493">
        <ele>120.0</ele>
        <time>2022-02-10T08:22:14Z</time>
      </trkpt>
      <trkpt lat="47.533035" lon="1.8438493">
        <ele>120.0</ele>
        <time>2022-02-10T08:22:15Z</time>
      </trkpt>
      <trkpt lat="47.53301" lon="1.8438447">
        <ele>120.0</ele>
        <time>2022-02-10T08:22:16Z</time>
      </trkpt>
      <trkpt lat="47.532997" lon="1.8438431">
        <ele>120.0</ele>
        <time>2022-02-10T08:22:17Z</time>
      </trkpt>
      <trkpt lat="47.53298" lon="1.8438455">
        <ele>120.0</ele>
        <time>2022-02-10T08:22:18Z</time>
      </trkpt>
      <trkpt lat="47.53297" lon="1.8438463">
        <ele>120.0</ele>
        <time>2022-02-10T08:22:19Z</time>
      </trkpt>
      <trkpt lat="47.53297" lon="1.8438463">
        <ele>120.0</ele>
        <time>2022-02-10T08:22:20Z</time>
      </trkpt>
      <trkpt lat="47.53297" lon="1.8438463">
        <ele>120.0</ele>
        <time>2022-02-10T08:22:21Z</time>
      </trkpt>
      <trkpt lat="47.532944" lon="1.8438486">
        <ele>120.0</ele>
        <time>2022-02-10T08:22:22Z</time>
      </trkpt>
      <trkpt lat="47.532932" lon="1.843844">
        <ele>120.0</ele>
        <time>2022-02-10T08:22:23Z</time>
      </trkpt>
      <trkpt lat="47.532925" lon="1.8438369">
        <ele>120.0</ele>
        <time>2022-02-10T08:22:24Z</time>
      </trkpt>
      <trkpt lat="47.532913" lon="1.843835">
        <ele>120.0</ele>
        <time>2022-02-10T08:22:25Z</time>
      </trkpt>
      <trkpt lat="47.532913" lon="1.843835">
        <ele>120.0</ele>
        <time>2022-02-10T08:22:26Z</time>
      </trkpt>
      <trkpt lat="47.532913" lon="1.843835">
        <ele>120.0</ele>
        <time>2022-02-10T08:22:27Z</time>
      </trkpt>
      <trkpt lat="47.532883" lon="1.8438286">
        <ele>121.0</ele>
        <time>2022-02-10T08:22:28Z</time>
      </trkpt>
      <trkpt lat="47.532867" lon="1.8438246">
        <ele>121.0</ele>
        <time>2022-02-10T08:22:29Z</time>
      </trkpt>
      <trkpt lat="47.532856" lon="1.8438214">
        <ele>121.0</ele>
        <time>2022-02-10T08:22:30Z</time>
      </trkpt>
      <trkpt lat="47.532845" lon="1.8438163">
        <ele>122.0</ele>
        <time>2022-02-10T08:22:31Z</time>
      </trkpt>
      <trkpt lat="47.532833" lon="1.8438102">
        <ele>122.0</ele>
        <time>2022-02-10T08:22:32Z</time>
      </trkpt>
      <trkpt lat="47.532833" lon="1.8438102">
        <ele>122.0</ele>
        <time>2022-02-10T08:22:33Z</time>
      </trkpt>
      <trkpt lat="47.532833" lon="1.8438102">
        <ele>122.0</ele>
        <time>2022-02-10T08:22:34Z</time>
      </trkpt>
      <trkpt lat="47.532806" lon="1.8438101">
        <ele>121.0</ele>
        <time>2022-02-10T08:22:35Z</time>
      </trkpt>
      <trkpt lat="47.53279" lon="1.8438065">
        <ele>121.0</ele>
        <time>2022-02-10T08:22:36Z</time>
      </trkpt>
      <trkpt lat="47.532784" lon="1.8437978">
        <ele>121.0</ele>
        <time>2022-02-10T08:22:37Z</time>
      </trkpt>
      <trkpt lat="47.532772" lon="1.8437902">
        <ele>121.0</ele>
        <time>2022-02-10T08:22:38Z</time>
      </trkpt>
      <trkpt lat="47.532772" lon="1.8437902">
        <ele>121.0</ele>
        <time>2022-02-10T08:22:39Z</time>
      </trkpt>
      <trkpt lat="47.532772" lon="1.8437902">
        <ele>121.0</ele>
        <time>2022-02-10T08:22:40Z</time>
      </trkpt>
      <trkpt lat="47.532738" lon="1.8437775">
        <ele>120.0</ele>
        <time>2022-02-10T08:22:41Z</time>
      </trkpt>
      <trkpt lat="47.532722" lon="1.8437696">
        <ele>121.0</ele>
        <time>2022-02-10T08:22:42Z</time>
      </trkpt>
      <trkpt lat="47.532707" lon="1.8437636">
        <ele>121.0</ele>
        <time>2022-02-10T08:22:43Z</time>
      </trkpt>
      <trkpt lat="47.53269" lon="1.8437551">
        <ele>121.0</ele>
        <time>2022-02-10T08:22:44Z</time>
      </trkpt>
      <trkpt lat="47.532677" lon="1.8437495">
        <ele>122.0</ele>
        <time>2022-02-10T08:22:45Z</time>
      </trkpt>
      <trkpt lat="47.53266" lon="1.8437436">
        <ele>122.0</ele>
        <time>2022-02-10T08:22:46Z</time>
      </trkpt>
      <trkpt lat="47.532654" lon="1.8437365">
        <ele>122.0</ele>
        <time>2022-02-10T08:22:47Z</time>
      </trkpt>
      <trkpt lat="47.532642" lon="1.8437238">
        <ele>121.0</ele>
        <time>2022-02-10T08:22:48Z</time>
      </trkpt>
      <trkpt lat="47.53263" lon="1.8437142">
        <ele>122.0</ele>
        <time>2022-02-10T08:22:49Z</time>
      </trkpt>
      <trkpt lat="47.532616" lon="1.8437055">
        <ele>122.0</ele>
        <time>2022-02-10T08:22:50Z</time>
      </trkpt>
      <trkpt lat="47.532604" lon="1.8437071">
        <ele>122.0</ele>
        <time>2022-02-10T08:22:51Z</time>
      </trkpt>
      <trkpt lat="47.53259" lon="1.8437054">
        <ele>122.0</ele>
        <time>2022-02-10T08:22:52Z</time>
      </trkpt>
      <trkpt lat="47.532574" lon="1.8436991">
        <ele>122.0</ele>
        <time>2022-02-10T08:22:53Z</time>
      </trkpt>
      <trkpt lat="47.53257" lon="1.843691">
        <ele>122.0</ele>
        <time>2022-02-10T08:22:54Z</time>
      </trkpt>
      <trkpt lat="47.53256" lon="1.8436899">
        <ele>122.0</ele>
        <time>2022-02-10T08:22:55Z</time>
      </trkpt>
      <trkpt lat="47.532547" lon="1.8436885">
        <ele>121.0</ele>
        <time>2022-02-10T08:22:56Z</time>
      </trkpt>
      <trkpt lat="47.532536" lon="1.8436817">
        <ele>121.0</ele>
        <time>2022-02-10T08:22:57Z</time>
      </trkpt>
      <trkpt lat="47.532516" lon="1.8436731">
        <ele>121.0</ele>
        <time>2022-02-10T08:22:58Z</time>
      </trkpt>
      <trkpt lat="47.5325" lon="1.8436716">
        <ele>121.0</ele>
        <time>2022-02-10T08:22:59Z</time>
      </trkpt>
      <trkpt lat="47.53249" lon="1.8436695">
        <ele>121.0</ele>
        <time>2022-02-10T08:23:00Z</time>
      </trkpt>
      <trkpt lat="47.532482" lon="1.8436595">
        <ele>121.0</ele>
        <time>2022-02-10T08:23:01Z</time>
      </trkpt>
      <trkpt lat="47.53247" lon="1.8436524">
        <ele>121.0</ele>
        <time>2022-02-10T08:23:02Z</time>
      </trkpt>
      <trkpt lat="47.53246" lon="1.8436482">
        <ele>121.0</ele>
        <time>2022-02-10T08:23:03Z</time>
      </trkpt>
      <trkpt lat="47.532448" lon="1.8436482">
        <ele>121.0</ele>
        <time>2022-02-10T08:23:04Z</time>
      </trkpt>
      <trkpt lat="47.532433" lon="1.843648">
        <ele>122.0</ele>
        <time>2022-02-10T08:23:05Z</time>
      </trkpt>
      <trkpt lat="47.532413" lon="1.843645">
        <ele>122.0</ele>
        <time>2022-02-10T08:23:06Z</time>
      </trkpt>
      <trkpt lat="47.532402" lon="1.8436377">
        <ele>123.0</ele>
        <time>2022-02-10T08:23:07Z</time>
      </trkpt>
      <trkpt lat="47.532387" lon="1.8436325">
        <ele>123.0</ele>
        <time>2022-02-10T08:23:08Z</time>
      </trkpt>
      <trkpt lat="47.53237" lon="1.8436283">
        <ele>124.0</ele>
        <time>2022-02-10T08:23:09Z</time>
      </trkpt>
      <trkpt lat="47.532356" lon="1.8436208">
        <ele>125.0</ele>
        <time>2022-02-10T08:23:10Z</time>
      </trkpt>
      <trkpt lat="47.532345" lon="1.8436191">
        <ele>126.0</ele>
        <time>2022-02-10T08:23:11Z</time>
      </trkpt>
      <trkpt lat="47.53233" lon="1.8436159">
        <ele>126.0</ele>
        <time>2022-02-10T08:23:12Z</time>
      </trkpt>
      <trkpt lat="47.53232" lon="1.8436146">
        <ele>126.0</ele>
        <time>2022-02-10T08:23:13Z</time>
      </trkpt>
      <trkpt lat="47.5323" lon="1.8436142">
        <ele>126.0</ele>
        <time>2022-02-10T08:23:14Z</time>
      </trkpt>
      <trkpt lat="47.532284" lon="1.84361">
        <ele>126.0</ele>
        <time>2022-02-10T08:23:15Z</time>
      </trkpt>
      <trkpt lat="47.532272" lon="1.8436072">
        <ele>126.0</ele>
        <time>2022-02-10T08:23:16Z</time>
      </trkpt>
      <trkpt lat="47.532257" lon="1.8436044">
        <ele>127.0</ele>
        <time>2022-02-10T08:23:17Z</time>
      </trkpt>
      <trkpt lat="47.53224" lon="1.843599">
        <ele>127.0</ele>
        <time>2022-02-10T08:23:18Z</time>
      </trkpt>
      <trkpt lat="47.532227" lon="1.8435955">
        <ele>128.0</ele>
        <time>2022-02-10T08:23:19Z</time>
      </trkpt>
      <trkpt lat="47.532215" lon="1.8435926">
        <ele>128.0</ele>
        <time>2022-02-10T08:23:20Z</time>
      </trkpt>
      <trkpt lat="47.532204" lon="1.8435909">
        <ele>128.0</ele>
        <time>2022-02-10T08:23:21Z</time>
      </trkpt>
      <trkpt lat="47.532192" lon="1.8435882">
        <ele>128.0</ele>
        <time>2022-02-10T08:23:22Z</time>
      </trkpt>
      <trkpt lat="47.53218" lon="1.8435878">
        <ele>129.0</ele>
        <time>2022-02-10T08:23:23Z</time>
      </trkpt>
      <trkpt lat="47.532173" lon="1.8435841">
        <ele>129.0</ele>
        <time>2022-02-10T08:23:24Z</time>
      </trkpt>
      <trkpt lat="47.53216" lon="1.8435845">
        <ele>129.0</ele>
        <time>2022-02-10T08:23:25Z</time>
      </trkpt>
      <trkpt lat="47.532146" lon="1.8435793">
        <ele>129.0</ele>
        <time>2022-02-10T08:23:26Z</time>
      </trkpt>
      <trkpt lat="47.53213" lon="1.8435752">
        <ele>130.0</ele>
        <time>2022-02-10T08:23:27Z</time>
      </trkpt>
      <trkpt lat="47.532124" lon="1.8435781">
        <ele>130.0</ele>
        <time>2022-02-10T08:23:28Z</time>
      </trkpt>
      <trkpt lat="47.532112" lon="1.8435795">
        <ele>129.0</ele>
        <time>2022-02-10T08:23:29Z</time>
      </trkpt>
      <trkpt lat="47.532112" lon="1.8435795">
        <ele>129.0</ele>
        <time>2022-02-10T08:23:30Z</time>
      </trkpt>
      <trkpt lat="47.532112" lon="1.8435795">
        <ele>129.0</ele>
        <time>2022-02-10T08:23:31Z</time>
      </trkpt>
      <trkpt lat="47.532093" lon="1.8435779">
        <ele>130.0</ele>
        <time>2022-02-10T08:23:32Z</time>
      </trkpt>
      <trkpt lat="47.53208" lon="1.843574">
        <ele>130.0</ele>
        <time>2022-02-10T08:23:33Z</time>
      </trkpt>
      <trkpt lat="47.532063" lon="1.8435683">
        <ele>130.0</ele>
        <time>2022-02-10T08:23:34Z</time>
      </trkpt>
      <trkpt lat="47.532047" lon="1.8435682">
        <ele>130.0</ele>
        <time>2022-02-10T08:23:35Z</time>
      </trkpt>
      <trkpt lat="47.532032" lon="1.8435674">
        <ele>130.0</ele>
        <time>2022-02-10T08:23:36Z</time>
      </trkpt>
      <trkpt lat="47.532017" lon="1.8435643">
        <ele>131.0</ele>
        <time>2022-02-10T08:23:37Z</time>
      </trkpt>
      <trkpt lat="47.532" lon="1.843565">
        <ele>131.0</ele>
        <time>2022-02-10T08:23:38Z</time>
      </trkpt>
      <trkpt lat="47.531994" lon="1.8435602">
        <ele>131.0</ele>
        <time>2022-02-10T08:23:39Z</time>
      </trkpt>
      <trkpt lat="47.53198" lon="1.8435569">
        <ele>131.0</ele>
        <time>2022-02-10T08:23:40Z</time>
      </trkpt>
      <trkpt lat="47.531967" lon="1.8435515">
        <ele>132.0</ele>
        <time>2022-02-10T08:23:41Z</time>
      </trkpt>
      <trkpt lat="47.53196" lon="1.8435489">
        <ele>131.0</ele>
        <time>2022-02-10T08:23:42Z</time>
      </trkpt>
      <trkpt lat="47.531948" lon="1.8435471">
        <ele>132.0</ele>
        <time>2022-02-10T08:23:43Z</time>
      </trkpt>
      <trkpt lat="47.531937" lon="1.8435457">
        <ele>132.0</ele>
        <time>2022-02-10T08:23:44Z</time>
      </trkpt>
      <trkpt lat="47.53193" lon="1.8435417">
        <ele>131.0</ele>
        <time>2022-02-10T08:23:45Z</time>
      </trkpt>
      <trkpt lat="47.53192" lon="1.8435341">
        <ele>131.0</ele>
        <time>2022-02-10T08:23:46Z</time>
      </trkpt>
      <trkpt lat="47.531914" lon="1.8435267">
        <ele>131.0</ele>
        <time>2022-02-10T08:23:47Z</time>
      </trkpt>
      <trkpt lat="47.531902" lon="1.8435235">
        <ele>131.0</ele>
        <time>2022-02-10T08:23:48Z</time>
      </trkpt>
      <trkpt lat="47.531895" lon="1.8435225">
        <ele>131.0</ele>
        <time>2022-02-10T08:23:49Z</time>
      </trkpt>
      <trkpt lat="47.531895" lon="1.8435225">
        <ele>131.0</ele>
        <time>2022-02-10T08:23:50Z</time>
      </trkpt>
      <trkpt lat="47.531895" lon="1.8435225">
        <ele>131.0</ele>
        <time>2022-02-10T08:23:51Z</time>
      </trkpt>
      <trkpt lat="47.53187" lon="1.8435135">
        <ele>132.0</ele>
        <time>2022-02-10T08:23:52Z</time>
      </trkpt>
      <trkpt lat="47.53186" lon="1.8435048">
        <ele>133.0</ele>
        <time>2022-02-10T08:23:53Z</time>
      </trkpt>
      <trkpt lat="47.531853" lon="1.8434979">
        <ele>133.0</ele>
        <time>2022-02-10T08:23:54Z</time>
      </trkpt>
      <trkpt lat="47.53184" lon="1.8434979">
        <ele>133.0</ele>
        <time>2022-02-10T08:23:55Z</time>
      </trkpt>
      <trkpt lat="47.53184" lon="1.8434979">
        <ele>133.0</ele>
        <time>2022-02-10T08:23:56Z</time>
      </trkpt>
      <trkpt lat="47.53184" lon="1.8434979">
        <ele>133.0</ele>
        <time>2022-02-10T08:23:57Z</time>
      </trkpt>
      <trkpt lat="47.531815" lon="1.8434937">
        <ele>132.0</ele>
        <time>2022-02-10T08:23:58Z</time>
      </trkpt>
      <trkpt lat="47.531803" lon="1.8434851">
        <ele>132.0</ele>
        <time>2022-02-10T08:23:59Z</time>
      </trkpt>
      <trkpt lat="47.531796" lon="1.8434772">
        <ele>132.0</ele>
        <time>2022-02-10T08:24:00Z</time>
      </trkpt>
      <trkpt lat="47.531784" lon="1.843477">
        <ele>132.0</ele>
        <time>2022-02-10T08:24:01Z</time>
      </trkpt>
      <trkpt lat="47.531773" lon="1.8434724">
        <ele>132.0</ele>
        <time>2022-02-10T08:24:02Z</time>
      </trkpt>
      <trkpt lat="47.53176" lon="1.8434683">
        <ele>132.0</ele>
        <time>2022-02-10T08:24:03Z</time>
      </trkpt>
      <trkpt lat="47.53175" lon="1.8434625">
        <ele>131.0</ele>
        <time>2022-02-10T08:24:04Z</time>
      </trkpt>
      <trkpt lat="47.53174" lon="1.8434608">
        <ele>131.0</ele>
        <time>2022-02-10T08:24:05Z</time>
      </trkpt>
      <trkpt lat="47.53173" lon="1.8434573">
        <ele>131.0</ele>
        <time>2022-02-10T08:24:06Z</time>
      </trkpt>
      <trkpt lat="47.53172" lon="1.8434548">
        <ele>131.0</ele>
        <time>2022-02-10T08:24:07Z</time>
      </trkpt>
      <trkpt lat="47.53172" lon="1.8434548">
        <ele>131.0</ele>
        <time>2022-02-10T08:24:08Z</time>
      </trkpt>
      <trkpt lat="47.53172" lon="1.8434548">
        <ele>131.0</ele>
        <time>2022-02-10T08:24:09Z</time>
      </trkpt>
      <trkpt lat="47.531693" lon="1.8434457">
        <ele>130.0</ele>
        <time>2022-02-10T08:24:10Z</time>
      </trkpt>
      <trkpt lat="47.53168" lon="1.843442">
        <ele>130.0</ele>
        <time>2022-02-10T08:24:11Z</time>
      </trkpt>
      <trkpt lat="47.53167" lon="1.8434404">
        <ele>129.0</ele>
        <time>2022-02-10T08:24:12Z</time>
      </trkpt>
      <trkpt lat="47.53166" lon="1.8434398">
        <ele>129.0</ele>
        <time>2022-02-10T08:24:13Z</time>
      </trkpt>
      <trkpt lat="47.531647" lon="1.8434331">
        <ele>129.0</ele>
        <time>2022-02-10T08:24:14Z</time>
      </trkpt>
      <trkpt lat="47.531635" lon="1.8434284">
        <ele>129.0</ele>
        <time>2022-02-10T08:24:15Z</time>
      </trkpt>
      <trkpt lat="47.531624" lon="1.8434225">
        <ele>129.0</ele>
        <time>2022-02-10T08:24:16Z</time>
      </trkpt>
      <trkpt lat="47.531612" lon="1.8434163">
        <ele>129.0</ele>
        <time>2022-02-10T08:24:17Z</time>
      </trkpt>
      <trkpt lat="47.5316" lon="1.8434058">
        <ele>128.0</ele>
        <time>2022-02-10T08:24:18Z</time>
      </trkpt>
      <trkpt lat="47.53159" lon="1.8434005">
        <ele>129.0</ele>
        <time>2022-02-10T08:24:19Z</time>
      </trkpt>
      <trkpt lat="47.531578" lon="1.8433926">
        <ele>129.0</ele>
        <time>2022-02-10T08:24:20Z</time>
      </trkpt>
      <trkpt lat="47.531567" lon="1.8433857">
        <ele>129.0</ele>
        <time>2022-02-10T08:24:21Z</time>
      </trkpt>
      <trkpt lat="47.531555" lon="1.843381">
        <ele>128.0</ele>
        <time>2022-02-10T08:24:22Z</time>
      </trkpt>
      <trkpt lat="47.531548" lon="1.8433781">
        <ele>128.0</ele>
        <time>2022-02-10T08:24:23Z</time>
      </trkpt>
      <trkpt lat="47.531536" lon="1.8433748">
        <ele>128.0</ele>
        <time>2022-02-10T08:24:24Z</time>
      </trkpt>
      <trkpt lat="47.53152" lon="1.8433684">
        <ele>128.0</ele>
        <time>2022-02-10T08:24:25Z</time>
      </trkpt>
      <trkpt lat="47.531506" lon="1.8433595">
        <ele>129.0</ele>
        <time>2022-02-10T08:24:26Z</time>
      </trkpt>
      <trkpt lat="47.531494" lon="1.8433553">
        <ele>129.0</ele>
        <time>2022-02-10T08:24:27Z</time>
      </trkpt>
      <trkpt lat="47.531483" lon="1.843352">
        <ele>129.0</ele>
        <time>2022-02-10T08:24:28Z</time>
      </trkpt>
      <trkpt lat="47.53147" lon="1.8433508">
        <ele>129.0</ele>
        <time>2022-02-10T08:24:29Z</time>
      </trkpt>
      <trkpt lat="47.531464" lon="1.8433466">
        <ele>128.0</ele>
        <time>2022-02-10T08:24:30Z</time>
      </trkpt>
      <trkpt lat="47.53145" lon="1.8433396">
        <ele>128.0</ele>
        <time>2022-02-10T08:24:31Z</time>
      </trkpt>
      <trkpt lat="47.531433" lon="1.8433332">
        <ele>127.0</ele>
        <time>2022-02-10T08:24:32Z</time>
      </trkpt>
      <trkpt lat="47.53142" lon="1.843327">
        <ele>127.0</ele>
        <time>2022-02-10T08:24:33Z</time>
      </trkpt>
      <trkpt lat="47.531406" lon="1.84332">
        <ele>127.0</ele>
        <time>2022-02-10T08:24:34Z</time>
      </trkpt>
      <trkpt lat="47.531395" lon="1.8433172">
        <ele>128.0</ele>
        <time>2022-02-10T08:24:35Z</time>
      </trkpt>
      <trkpt lat="47.531384" lon="1.8433155">
        <ele>128.0</ele>
        <time>2022-02-10T08:24:36Z</time>
      </trkpt>
      <trkpt lat="47.531372" lon="1.8433108">
        <ele>128.0</ele>
        <time>2022-02-10T08:24:37Z</time>
      </trkpt>
      <trkpt lat="47.53136" lon="1.8433099">
        <ele>128.0</ele>
        <time>2022-02-10T08:24:38Z</time>
      </trkpt>
      <trkpt lat="47.53135" lon="1.8433084">
        <ele>128.0</ele>
        <time>2022-02-10T08:24:39Z</time>
      </trkpt>
      <trkpt lat="47.531334" lon="1.8433092">
        <ele>128.0</ele>
        <time>2022-02-10T08:24:40Z</time>
      </trkpt>
      <trkpt lat="47.53132" lon="1.8433039">
        <ele>128.0</ele>
        <time>2022-02-10T08:24:41Z</time>
      </trkpt>
      <trkpt lat="47.531303" lon="1.843302">
        <ele>128.0</ele>
        <time>2022-02-10T08:24:42Z</time>
      </trkpt>
      <trkpt lat="47.53129" lon="1.8433007">
        <ele>128.0</ele>
        <time>2022-02-10T08:24:43Z</time>
      </trkpt>
      <trkpt lat="47.531277" lon="1.8432994">
        <ele>128.0</ele>
        <time>2022-02-10T08:24:44Z</time>
      </trkpt>
      <trkpt lat="47.531265" lon="1.843297">
        <ele>128.0</ele>
        <time>2022-02-10T08:24:45Z</time>
      </trkpt>
      <trkpt lat="47.531254" lon="1.8432963">
        <ele>128.0</ele>
        <time>2022-02-10T08:24:46Z</time>
      </trkpt>
      <trkpt lat="47.531242" lon="1.8432904">
        <ele>128.0</ele>
        <time>2022-02-10T08:24:47Z</time>
      </trkpt>
      <trkpt lat="47.53123" lon="1.8432842">
        <ele>129.0</ele>
        <time>2022-02-10T08:24:48Z</time>
      </trkpt>
      <trkpt lat="47.53122" lon="1.8432782">
        <ele>129.0</ele>
        <time>2022-02-10T08:24:49Z</time>
      </trkpt>
      <trkpt lat="47.531204" lon="1.8432776">
        <ele>129.0</ele>
        <time>2022-02-10T08:24:50Z</time>
      </trkpt>
      <trkpt lat="47.531193" lon="1.8432758">
        <ele>129.0</ele>
        <time>2022-02-10T08:24:51Z</time>
      </trkpt>
      <trkpt lat="47.53118" lon="1.8432741">
        <ele>129.0</ele>
        <time>2022-02-10T08:24:52Z</time>
      </trkpt>
      <trkpt lat="47.53117" lon="1.8432667">
        <ele>129.0</ele>
        <time>2022-02-10T08:24:53Z</time>
      </trkpt>
      <trkpt lat="47.531155" lon="1.8432583">
        <ele>129.0</ele>
        <time>2022-02-10T08:24:54Z</time>
      </trkpt>
      <trkpt lat="47.531147" lon="1.8432567">
        <ele>128.0</ele>
        <time>2022-02-10T08:24:55Z</time>
      </trkpt>
      <trkpt lat="47.53114" lon="1.8432512">
        <ele>129.0</ele>
        <time>2022-02-10T08:24:56Z</time>
      </trkpt>
      <trkpt lat="47.531128" lon="1.8432478">
        <ele>129.0</ele>
        <time>2022-02-10T08:24:57Z</time>
      </trkpt>
      <trkpt lat="47.531116" lon="1.8432451">
        <ele>130.0</ele>
        <time>2022-02-10T08:24:58Z</time>
      </trkpt>
      <trkpt lat="47.531097" lon="1.8432407">
        <ele>130.0</ele>
        <time>2022-02-10T08:24:59Z</time>
      </trkpt>
      <trkpt lat="47.53109" lon="1.8432362">
        <ele>130.0</ele>
        <time>2022-02-10T08:25:00Z</time>
      </trkpt>
      <trkpt lat="47.53108" lon="1.8432351">
        <ele>131.0</ele>
        <time>2022-02-10T08:25:01Z</time>
      </trkpt>
      <trkpt lat="47.531063" lon="1.8432336">
        <ele>131.0</ele>
        <time>2022-02-10T08:25:02Z</time>
      </trkpt>
      <trkpt lat="47.53105" lon="1.8432294">
        <ele>131.0</ele>
        <time>2022-02-10T08:25:03Z</time>
      </trkpt>
      <trkpt lat="47.531036" lon="1.8432212">
        <ele>131.0</ele>
        <time>2022-02-10T08:25:04Z</time>
      </trkpt>
      <trkpt lat="47.53102" lon="1.8432134">
        <ele>131.0</ele>
        <time>2022-02-10T08:25:05Z</time>
      </trkpt>
      <trkpt lat="47.531006" lon="1.8432114">
        <ele>131.0</ele>
        <time>2022-02-10T08:25:06Z</time>
      </trkpt>
      <trkpt lat="47.530994" lon="1.8432094">
        <ele>131.0</ele>
        <time>2022-02-10T08:25:07Z</time>
      </trkpt>
      <trkpt lat="47.53098" lon="1.843208">
        <ele>131.0</ele>
        <time>2022-02-10T08:25:08Z</time>
      </trkpt>
      <trkpt lat="47.53096" lon="1.8432022">
        <ele>131.0</ele>
        <time>2022-02-10T08:25:09Z</time>
      </trkpt>
      <trkpt lat="47.53095" lon="1.8432002">
        <ele>131.0</ele>
        <time>2022-02-10T08:25:10Z</time>
      </trkpt>
      <trkpt lat="47.530937" lon="1.8431976">
        <ele>131.0</ele>
        <time>2022-02-10T08:25:11Z</time>
      </trkpt>
      <trkpt lat="47.530926" lon="1.8431939">
        <ele>131.0</ele>
        <time>2022-02-10T08:25:12Z</time>
      </trkpt>
      <trkpt lat="47.530914" lon="1.8431904">
        <ele>131.0</ele>
        <time>2022-02-10T08:25:13Z</time>
      </trkpt>
      <trkpt lat="47.5309" lon="1.8431863">
        <ele>131.0</ele>
        <time>2022-02-10T08:25:14Z</time>
      </trkpt>
      <trkpt lat="47.530888" lon="1.8431792">
        <ele>131.0</ele>
        <time>2022-02-10T08:25:15Z</time>
      </trkpt>
      <trkpt lat="47.530876" lon="1.8431724">
        <ele>131.0</ele>
        <time>2022-02-10T08:25:16Z</time>
      </trkpt>
      <trkpt lat="47.530865" lon="1.8431665">
        <ele>132.0</ele>
        <time>2022-02-10T08:25:17Z</time>
      </trkpt>
      <trkpt lat="47.530857" lon="1.843164">
        <ele>132.0</ele>
        <time>2022-02-10T08:25:18Z</time>
      </trkpt>
      <trkpt lat="47.530846" lon="1.8431618">
        <ele>132.0</ele>
        <time>2022-02-10T08:25:19Z</time>
      </trkpt>
      <trkpt lat="47.530838" lon="1.8431622">
        <ele>132.0</ele>
        <time>2022-02-10T08:25:20Z</time>
      </trkpt>
      <trkpt lat="47.530827" lon="1.8431588">
        <ele>132.0</ele>
        <time>2022-02-10T08:25:21Z</time>
      </trkpt>
      <trkpt lat="47.53081" lon="1.8431624">
        <ele>132.0</ele>
        <time>2022-02-10T08:25:22Z</time>
      </trkpt>
      <trkpt lat="47.530796" lon="1.8431602">
        <ele>132.0</ele>
        <time>2022-02-10T08:25:23Z</time>
      </trkpt>
      <trkpt lat="47.530785" lon="1.8431557">
        <ele>132.0</ele>
        <time>2022-02-10T08:25:24Z</time>
      </trkpt>
      <trkpt lat="47.530777" lon="1.8431532">
        <ele>132.0</ele>
        <time>2022-02-10T08:25:25Z</time>
      </trkpt>
      <trkpt lat="47.53076" lon="1.8431461">
        <ele>132.0</ele>
        <time>2022-02-10T08:25:26Z</time>
      </trkpt>
      <trkpt lat="47.530754" lon="1.8431456">
        <ele>132.0</ele>
        <time>2022-02-10T08:25:27Z</time>
      </trkpt>
      <trkpt lat="47.530746" lon="1.8431395">
        <ele>132.0</ele>
        <time>2022-02-10T08:25:28Z</time>
      </trkpt>
      <trkpt lat="47.530735" lon="1.8431312">
        <ele>132.0</ele>
        <time>2022-02-10T08:25:29Z</time>
      </trkpt>
      <trkpt lat="47.530724" lon="1.8431305">
        <ele>132.0</ele>
        <time>2022-02-10T08:25:30Z</time>
      </trkpt>
      <trkpt lat="47.530716" lon="1.8431283">
        <ele>131.0</ele>
        <time>2022-02-10T08:25:31Z</time>
      </trkpt>
      <trkpt lat="47.53071" lon="1.84313">
        <ele>131.0</ele>
        <time>2022-02-10T08:25:32Z</time>
      </trkpt>
      <trkpt lat="47.5307" lon="1.8431278">
        <ele>131.0</ele>
        <time>2022-02-10T08:25:33Z</time>
      </trkpt>
      <trkpt lat="47.530693" lon="1.8431258">
        <ele>130.0</ele>
        <time>2022-02-10T08:25:34Z</time>
      </trkpt>
      <trkpt lat="47.530693" lon="1.8431258">
        <ele>130.0</ele>
        <time>2022-02-10T08:25:35Z</time>
      </trkpt>
      <trkpt lat="47.53067" lon="1.8431208">
        <ele>130.0</ele>
        <time>2022-02-10T08:25:36Z</time>
      </trkpt>
      <trkpt lat="47.53066" lon="1.8431151">
        <ele>130.0</ele>
        <time>2022-02-10T08:25:37Z</time>
      </trkpt>
      <trkpt lat="47.530647" lon="1.8431058">
        <ele>130.0</ele>
        <time>2022-02-10T08:25:38Z</time>
      </trkpt>
      <trkpt lat="47.530636" lon="1.8431019">
        <ele>130.0</ele>
        <time>2022-02-10T08:25:39Z</time>
      </trkpt>
      <trkpt lat="47.53062" lon="1.8430972">
        <ele>130.0</ele>
        <time>2022-02-10T08:25:40Z</time>
      </trkpt>
      <trkpt lat="47.53061" lon="1.8430951">
        <ele>129.0</ele>
        <time>2022-02-10T08:25:41Z</time>
      </trkpt>
      <trkpt lat="47.5306" lon="1.8430935">
        <ele>129.0</ele>
        <time>2022-02-10T08:25:42Z</time>
      </trkpt>
      <trkpt lat="47.530594" lon="1.8430965">
        <ele>129.0</ele>
        <time>2022-02-10T08:25:43Z</time>
      </trkpt>
      <trkpt lat="47.530594" lon="1.8430965">
        <ele>129.0</ele>
        <time>2022-02-10T08:25:44Z</time>
      </trkpt>
      <trkpt lat="47.530594" lon="1.8430965">
        <ele>129.0</ele>
        <time>2022-02-10T08:25:45Z</time>
      </trkpt>
      <trkpt lat="47.53056" lon="1.8430877">
        <ele>129.0</ele>
        <time>2022-02-10T08:25:46Z</time>
      </trkpt>
      <trkpt lat="47.53055" lon="1.8430784">
        <ele>129.0</ele>
        <time>2022-02-10T08:25:47Z</time>
      </trkpt>
      <trkpt lat="47.530537" lon="1.8430736">
        <ele>129.0</ele>
        <time>2022-02-10T08:25:48Z</time>
      </trkpt>
      <trkpt lat="47.530525" lon="1.8430709">
        <ele>128.0</ele>
        <time>2022-02-10T08:25:49Z</time>
      </trkpt>
      <trkpt lat="47.530514" lon="1.8430675">
        <ele>128.0</ele>
        <time>2022-02-10T08:25:50Z</time>
      </trkpt>
      <trkpt lat="47.530502" lon="1.8430679">
        <ele>128.0</ele>
        <time>2022-02-10T08:25:51Z</time>
      </trkpt>
      <trkpt lat="47.53049" lon="1.8430668">
        <ele>128.0</ele>
        <time>2022-02-10T08:25:52Z</time>
      </trkpt>
      <trkpt lat="47.530487" lon="1.8430636">
        <ele>128.0</ele>
        <time>2022-02-10T08:25:53Z</time>
      </trkpt>
      <trkpt lat="47.530487" lon="1.8430636">
        <ele>128.0</ele>
        <time>2022-02-10T08:25:54Z</time>
      </trkpt>
      <trkpt lat="47.530487" lon="1.8430636">
        <ele>128.0</ele>
        <time>2022-02-10T08:25:55Z</time>
      </trkpt>
      <trkpt lat="47.530464" lon="1.8430651">
        <ele>129.0</ele>
        <time>2022-02-10T08:25:56Z</time>
      </trkpt>
      <trkpt lat="47.530457" lon="1.8430587">
        <ele>129.0</ele>
        <time>2022-02-10T08:25:57Z</time>
      </trkpt>
      <trkpt lat="47.530445" lon="1.8430561">
        <ele>130.0</ele>
        <time>2022-02-10T08:25:58Z</time>
      </trkpt>
      <trkpt lat="47.530437" lon="1.8430568">
        <ele>130.0</ele>
        <time>2022-02-10T08:25:59Z</time>
      </trkpt>
      <trkpt lat="47.530437" lon="1.8430568">
        <ele>130.0</ele>
        <time>2022-02-10T08:26:00Z</time>
      </trkpt>
      <trkpt lat="47.53042" lon="1.8430556">
        <ele>129.0</ele>
        <time>2022-02-10T08:26:01Z</time>
      </trkpt>
      <trkpt lat="47.53041" lon="1.843045">
        <ele>129.0</ele>
        <time>2022-02-10T08:26:02Z</time>
      </trkpt>
      <trkpt lat="47.5304" lon="1.8430398">
        <ele>129.0</ele>
        <time>2022-02-10T08:26:03Z</time>
      </trkpt>
      <trkpt lat="47.530388" lon="1.8430318">
        <ele>129.0</ele>
        <time>2022-02-10T08:26:04Z</time>
      </trkpt>
      <trkpt lat="47.530376" lon="1.8430274">
        <ele>129.0</ele>
        <time>2022-02-10T08:26:05Z</time>
      </trkpt>
      <trkpt lat="47.530365" lon="1.8430253">
        <ele>129.0</ele>
        <time>2022-02-10T08:26:06Z</time>
      </trkpt>
      <trkpt lat="47.530365" lon="1.8430253">
        <ele>129.0</ele>
        <time>2022-02-10T08:26:07Z</time>
      </trkpt>
      <trkpt lat="47.530365" lon="1.8430253">
        <ele>129.0</ele>
        <time>2022-02-10T08:26:08Z</time>
      </trkpt>
      <trkpt lat="47.530334" lon="1.8430226">
        <ele>128.0</ele>
        <time>2022-02-10T08:26:09Z</time>
      </trkpt>
      <trkpt lat="47.530323" lon="1.8430191">
        <ele>128.0</ele>
        <time>2022-02-10T08:26:10Z</time>
      </trkpt>
      <trkpt lat="47.53031" lon="1.8430151">
        <ele>127.0</ele>
        <time>2022-02-10T08:26:11Z</time>
      </trkpt>
      <trkpt lat="47.530304" lon="1.8430102">
        <ele>127.0</ele>
        <time>2022-02-10T08:26:12Z</time>
      </trkpt>
      <trkpt lat="47.530304" lon="1.8430102">
        <ele>127.0</ele>
        <time>2022-02-10T08:26:13Z</time>
      </trkpt>
      <trkpt lat="47.530304" lon="1.8430102">
        <ele>127.0</ele>
        <time>2022-02-10T08:26:14Z</time>
      </trkpt>
      <trkpt lat="47.530277" lon="1.8429973">
        <ele>127.0</ele>
        <time>2022-02-10T08:26:15Z</time>
      </trkpt>
      <trkpt lat="47.530262" lon="1.8429984">
        <ele>127.0</ele>
        <time>2022-02-10T08:26:16Z</time>
      </trkpt>
      <trkpt lat="47.53025" lon="1.8429968">
        <ele>126.0</ele>
        <time>2022-02-10T08:26:17Z</time>
      </trkpt>
      <trkpt lat="47.53024" lon="1.8429942">
        <ele>126.0</ele>
        <time>2022-02-10T08:26:18Z</time>
      </trkpt>
      <trkpt lat="47.530228" lon="1.8429884">
        <ele>126.0</ele>
        <time>2022-02-10T08:26:19Z</time>
      </trkpt>
      <trkpt lat="47.530216" lon="1.8429831">
        <ele>126.0</ele>
        <time>2022-02-10T08:26:20Z</time>
      </trkpt>
      <trkpt lat="47.530205" lon="1.8429788">
        <ele>126.0</ele>
        <time>2022-02-10T08:26:21Z</time>
      </trkpt>
      <trkpt lat="47.530186" lon="1.8429714">
        <ele>126.0</ele>
        <time>2022-02-10T08:26:22Z</time>
      </trkpt>
      <trkpt lat="47.530174" lon="1.8429611">
        <ele>125.0</ele>
        <time>2022-02-10T08:26:23Z</time>
      </trkpt>
      <trkpt lat="47.530163" lon="1.8429551">
        <ele>126.0</ele>
        <time>2022-02-10T08:26:24Z</time>
      </trkpt>
      <trkpt lat="47.53015" lon="1.8429489">
        <ele>125.0</ele>
        <time>2022-02-10T08:26:25Z</time>
      </trkpt>
      <trkpt lat="47.530136" lon="1.8429416">
        <ele>125.0</ele>
        <time>2022-02-10T08:26:26Z</time>
      </trkpt>
      <trkpt lat="47.530125" lon="1.8429329">
        <ele>125.0</ele>
        <time>2022-02-10T08:26:27Z</time>
      </trkpt>
      <trkpt lat="47.530113" lon="1.842925">
        <ele>126.0</ele>
        <time>2022-02-10T08:26:28Z</time>
      </trkpt>
      <trkpt lat="47.5301" lon="1.8429189">
        <ele>126.0</ele>
        <time>2022-02-10T08:26:29Z</time>
      </trkpt>
      <trkpt lat="47.53009" lon="1.8429143">
        <ele>126.0</ele>
        <time>2022-02-10T08:26:30Z</time>
      </trkpt>
      <trkpt lat="47.53008" lon="1.8429024">
        <ele>126.0</ele>
        <time>2022-02-10T08:26:31Z</time>
      </trkpt>
      <trkpt lat="47.53007" lon="1.8428953">
        <ele>126.0</ele>
        <time>2022-02-10T08:26:32Z</time>
      </trkpt>
      <trkpt lat="47.53006" lon="1.8428863">
        <ele>125.0</ele>
        <time>2022-02-10T08:26:33Z</time>
      </trkpt>
      <trkpt lat="47.530045" lon="1.842881">
        <ele>125.0</ele>
        <time>2022-02-10T08:26:34Z</time>
      </trkpt>
      <trkpt lat="47.530033" lon="1.8428732">
        <ele>124.0</ele>
        <time>2022-02-10T08:26:35Z</time>
      </trkpt>
      <trkpt lat="47.530018" lon="1.8428707">
        <ele>124.0</ele>
        <time>2022-02-10T08:26:36Z</time>
      </trkpt>
      <trkpt lat="47.53001" lon="1.8428625">
        <ele>124.0</ele>
        <time>2022-02-10T08:26:37Z</time>
      </trkpt>
      <trkpt lat="47.53" lon="1.8428586">
        <ele>124.0</ele>
        <time>2022-02-10T08:26:38Z</time>
      </trkpt>
      <trkpt lat="47.529987" lon="1.8428564">
        <ele>124.0</ele>
        <time>2022-02-10T08:26:39Z</time>
      </trkpt>
      <trkpt lat="47.529976" lon="1.8428551">
        <ele>123.0</ele>
        <time>2022-02-10T08:26:40Z</time>
      </trkpt>
      <trkpt lat="47.52997" lon="1.8428499">
        <ele>123.0</ele>
        <time>2022-02-10T08:26:41Z</time>
      </trkpt>
      <trkpt lat="47.529953" lon="1.8428439">
        <ele>123.0</ele>
        <time>2022-02-10T08:26:42Z</time>
      </trkpt>
      <trkpt lat="47.529953" lon="1.8428439">
        <ele>123.0</ele>
        <time>2022-02-10T08:26:43Z</time>
      </trkpt>
      <trkpt lat="47.529953" lon="1.8428439">
        <ele>123.0</ele>
        <time>2022-02-10T08:26:44Z</time>
      </trkpt>
      <trkpt lat="47.529926" lon="1.8428403">
        <ele>122.0</ele>
        <time>2022-02-10T08:26:45Z</time>
      </trkpt>
      <trkpt lat="47.529915" lon="1.8428416">
        <ele>122.0</ele>
        <time>2022-02-10T08:26:46Z</time>
      </trkpt>
      <trkpt lat="47.529907" lon="1.8428441">
        <ele>122.0</ele>
        <time>2022-02-10T08:26:47Z</time>
      </trkpt>
      <trkpt lat="47.529896" lon="1.8428428">
        <ele>122.0</ele>
        <time>2022-02-10T08:26:48Z</time>
      </trkpt>
      <trkpt lat="47.529896" lon="1.8428428">
        <ele>122.0</ele>
        <time>2022-02-10T08:26:49Z</time>
      </trkpt>
      <trkpt lat="47.52988" lon="1.84284">
        <ele>121.0</ele>
        <time>2022-02-10T08:26:50Z</time>
      </trkpt>
      <trkpt lat="47.52987" lon="1.8428386">
        <ele>122.0</ele>
        <time>2022-02-10T08:26:51Z</time>
      </trkpt>
      <trkpt lat="47.529858" lon="1.8428319">
        <ele>122.0</ele>
        <time>2022-02-10T08:26:52Z</time>
      </trkpt>
      <trkpt lat="47.529842" lon="1.8428265">
        <ele>123.0</ele>
        <time>2022-02-10T08:26:53Z</time>
      </trkpt>
      <trkpt lat="47.529827" lon="1.8428184">
        <ele>123.0</ele>
        <time>2022-02-10T08:26:54Z</time>
      </trkpt>
      <trkpt lat="47.52981" lon="1.8428141">
        <ele>122.0</ele>
        <time>2022-02-10T08:26:55Z</time>
      </trkpt>
      <trkpt lat="47.529804" lon="1.8428129">
        <ele>122.0</ele>
        <time>2022-02-10T08:26:56Z</time>
      </trkpt>
      <trkpt lat="47.529793" lon="1.842811">
        <ele>123.0</ele>
        <time>2022-02-10T08:26:57Z</time>
      </trkpt>
      <trkpt lat="47.529778" lon="1.8428081">
        <ele>123.0</ele>
        <time>2022-02-10T08:26:58Z</time>
      </trkpt>
      <trkpt lat="47.529766" lon="1.8428073">
        <ele>123.0</ele>
        <time>2022-02-10T08:26:59Z</time>
      </trkpt>
      <trkpt lat="47.52975" lon="1.8428062">
        <ele>123.0</ele>
        <time>2022-02-10T08:27:00Z</time>
      </trkpt>
      <trkpt lat="47.529747" lon="1.842807">
        <ele>123.0</ele>
        <time>2022-02-10T08:27:01Z</time>
      </trkpt>
      <trkpt lat="47.529736" lon="1.8428037">
        <ele>123.0</ele>
        <time>2022-02-10T08:27:02Z</time>
      </trkpt>
      <trkpt lat="47.529736" lon="1.8428037">
        <ele>123.0</ele>
        <time>2022-02-10T08:27:03Z</time>
      </trkpt>
      <trkpt lat="47.529736" lon="1.8428037">
        <ele>123.0</ele>
        <time>2022-02-10T08:27:04Z</time>
      </trkpt>
      <trkpt lat="47.529705" lon="1.84279">
        <ele>123.0</ele>
        <time>2022-02-10T08:27:05Z</time>
      </trkpt>
      <trkpt lat="47.529694" lon="1.842787">
        <ele>123.0</ele>
        <time>2022-02-10T08:27:06Z</time>
      </trkpt>
      <trkpt lat="47.52968" lon="1.8427817">
        <ele>123.0</ele>
        <time>2022-02-10T08:27:07Z</time>
      </trkpt>
      <trkpt lat="47.529667" lon="1.8427763">
        <ele>123.0</ele>
        <time>2022-02-10T08:27:08Z</time>
      </trkpt>
      <trkpt lat="47.529667" lon="1.8427763">
        <ele>123.0</ele>
        <time>2022-02-10T08:27:09Z</time>
      </trkpt>
      <trkpt lat="47.529667" lon="1.8427763">
        <ele>123.0</ele>
        <time>2022-02-10T08:27:10Z</time>
      </trkpt>
      <trkpt lat="47.52964" lon="1.8427669">
        <ele>123.0</ele>
        <time>2022-02-10T08:27:11Z</time>
      </trkpt>
      <trkpt lat="47.52963" lon="1.8427609">
        <ele>123.0</ele>
        <time>2022-02-10T08:27:12Z</time>
      </trkpt>
      <trkpt lat="47.529613" lon="1.8427578">
        <ele>122.0</ele>
        <time>2022-02-10T08:27:13Z</time>
      </trkpt>
      <trkpt lat="47.529602" lon="1.8427545">
        <ele>122.0</ele>
        <time>2022-02-10T08:27:14Z</time>
      </trkpt>
      <trkpt lat="47.529587" lon="1.8427466">
        <ele>122.0</ele>
        <time>2022-02-10T08:27:15Z</time>
      </trkpt>
      <trkpt lat="47.52957" lon="1.8427417">
        <ele>122.0</ele>
        <time>2022-02-10T08:27:16Z</time>
      </trkpt>
      <trkpt lat="47.529556" lon="1.8427355">
        <ele>122.0</ele>
        <time>2022-02-10T08:27:17Z</time>
      </trkpt>
      <trkpt lat="47.52954" lon="1.8427272">
        <ele>123.0</ele>
        <time>2022-02-10T08:27:18Z</time>
      </trkpt>
      <trkpt lat="47.52953" lon="1.842718">
        <ele>123.0</ele>
        <time>2022-02-10T08:27:19Z</time>
      </trkpt>
      <trkpt lat="47.52952" lon="1.8427103">
        <ele>124.0</ele>
        <time>2022-02-10T08:27:20Z</time>
      </trkpt>
      <trkpt lat="47.529507" lon="1.8427029">
        <ele>124.0</ele>
        <time>2022-02-10T08:27:21Z</time>
      </trkpt>
      <trkpt lat="47.529495" lon="1.8426986">
        <ele>124.0</ele>
        <time>2022-02-10T08:27:22Z</time>
      </trkpt>
      <trkpt lat="47.529488" lon="1.842697">
        <ele>123.0</ele>
        <time>2022-02-10T08:27:23Z</time>
      </trkpt>
      <trkpt lat="47.529472" lon="1.8426975">
        <ele>123.0</ele>
        <time>2022-02-10T08:27:24Z</time>
      </trkpt>
      <trkpt lat="47.529457" lon="1.8426938">
        <ele>123.0</ele>
        <time>2022-02-10T08:27:25Z</time>
      </trkpt>
      <trkpt lat="47.529446" lon="1.8426878">
        <ele>123.0</ele>
        <time>2022-02-10T08:27:26Z</time>
      </trkpt>
      <trkpt lat="47.529434" lon="1.8426843">
        <ele>123.0</ele>
        <time>2022-02-10T08:27:27Z</time>
      </trkpt>
      <trkpt lat="47.529423" lon="1.8426859">
        <ele>123.0</ele>
        <time>2022-02-10T08:27:28Z</time>
      </trkpt>
      <trkpt lat="47.529415" lon="1.8426845">
        <ele>123.0</ele>
        <time>2022-02-10T08:27:29Z</time>
      </trkpt>
      <trkpt lat="47.529404" lon="1.8426841">
        <ele>123.0</ele>
        <time>2022-02-10T08:27:30Z</time>
      </trkpt>
      <trkpt lat="47.529392" lon="1.8426793">
        <ele>123.0</ele>
        <time>2022-02-10T08:27:31Z</time>
      </trkpt>
      <trkpt lat="47.52938" lon="1.8426746">
        <ele>124.0</ele>
        <time>2022-02-10T08:27:32Z</time>
      </trkpt>
      <trkpt lat="47.52938" lon="1.8426746">
        <ele>124.0</ele>
        <time>2022-02-10T08:27:33Z</time>
      </trkpt>
      <trkpt lat="47.52938" lon="1.8426746">
        <ele>124.0</ele>
        <time>2022-02-10T08:27:34Z</time>
      </trkpt>
      <trkpt lat="47.52935" lon="1.8426622">
        <ele>124.0</ele>
        <time>2022-02-10T08:27:35Z</time>
      </trkpt>
      <trkpt lat="47.529335" lon="1.8426538">
        <ele>125.0</ele>
        <time>2022-02-10T08:27:36Z</time>
      </trkpt>
      <trkpt lat="47.529324" lon="1.842648">
        <ele>125.0</ele>
        <time>2022-02-10T08:27:37Z</time>
      </trkpt>
      <trkpt lat="47.529316" lon="1.8426443">
        <ele>125.0</ele>
        <time>2022-02-10T08:27:38Z</time>
      </trkpt>
      <trkpt lat="47.529305" lon="1.8426408">
        <ele>125.0</ele>
        <time>2022-02-10T08:27:39Z</time>
      </trkpt>
      <trkpt lat="47.52929" lon="1.8426385">
        <ele>125.0</ele>
        <time>2022-02-10T08:27:40Z</time>
      </trkpt>
      <trkpt lat="47.529274" lon="1.8426399">
        <ele>125.0</ele>
        <time>2022-02-10T08:27:41Z</time>
      </trkpt>
      <trkpt lat="47.529263" lon="1.8426371">
        <ele>124.0</ele>
        <time>2022-02-10T08:27:42Z</time>
      </trkpt>
      <trkpt lat="47.52925" lon="1.8426346">
        <ele>124.0</ele>
        <time>2022-02-10T08:27:43Z</time>
      </trkpt>
      <trkpt lat="47.52925" lon="1.8426346">
        <ele>124.0</ele>
        <time>2022-02-10T08:27:44Z</time>
      </trkpt>
      <trkpt lat="47.52925" lon="1.8426346">
        <ele>124.0</ele>
        <time>2022-02-10T08:27:45Z</time>
      </trkpt>
      <trkpt lat="47.529213" lon="1.8426361">
        <ele>125.0</ele>
        <time>2022-02-10T08:27:46Z</time>
      </trkpt>
      <trkpt lat="47.5292" lon="1.842636">
        <ele>125.0</ele>
        <time>2022-02-10T08:27:47Z</time>
      </trkpt>
      <trkpt lat="47.52919" lon="1.8426371">
        <ele>125.0</ele>
        <time>2022-02-10T08:27:48Z</time>
      </trkpt>
      <trkpt lat="47.529175" lon="1.8426373">
        <ele>126.0</ele>
        <time>2022-02-10T08:27:49Z</time>
      </trkpt>
      <trkpt lat="47.529175" lon="1.8426373">
        <ele>126.0</ele>
        <time>2022-02-10T08:27:50Z</time>
      </trkpt>
      <trkpt lat="47.529175" lon="1.8426373">
        <ele>126.0</ele>
        <time>2022-02-10T08:27:51Z</time>
      </trkpt>
      <trkpt lat="47.529152" lon="1.842632">
        <ele>126.0</ele>
        <time>2022-02-10T08:27:52Z</time>
      </trkpt>
      <trkpt lat="47.529133" lon="1.8426228">
        <ele>126.0</ele>
        <time>2022-02-10T08:27:53Z</time>
      </trkpt>
      <trkpt lat="47.52912" lon="1.8426182">
        <ele>126.0</ele>
        <time>2022-02-10T08:27:54Z</time>
      </trkpt>
      <trkpt lat="47.529118" lon="1.8426129">
        <ele>126.0</ele>
        <time>2022-02-10T08:27:55Z</time>
      </trkpt>
      <trkpt lat="47.52911" lon="1.842604">
        <ele>126.0</ele>
        <time>2022-02-10T08:27:56Z</time>
      </trkpt>
      <trkpt lat="47.5291" lon="1.8426001">
        <ele>126.0</ele>
        <time>2022-02-10T08:27:57Z</time>
      </trkpt>
      <trkpt lat="47.5291" lon="1.8426001">
        <ele>126.0</ele>
        <time>2022-02-10T08:27:58Z</time>
      </trkpt>
      <trkpt lat="47.5291" lon="1.8426001">
        <ele>126.0</ele>
        <time>2022-02-10T08:27:59Z</time>
      </trkpt>
      <trkpt lat="47.52907" lon="1.8425939">
        <ele>125.0</ele>
        <time>2022-02-10T08:28:00Z</time>
      </trkpt>
      <trkpt lat="47.529057" lon="1.8425891">
        <ele>125.0</ele>
        <time>2022-02-10T08:28:01Z</time>
      </trkpt>
      <trkpt lat="47.529045" lon="1.8425859">
        <ele>126.0</ele>
        <time>2022-02-10T08:28:02Z</time>
      </trkpt>
      <trkpt lat="47.529034" lon="1.8425819">
        <ele>126.0</ele>
        <time>2022-02-10T08:28:03Z</time>
      </trkpt>
      <trkpt lat="47.52902" lon="1.8425801">
        <ele>126.0</ele>
        <time>2022-02-10T08:28:04Z</time>
      </trkpt>
      <trkpt lat="47.529007" lon="1.8425783">
        <ele>125.0</ele>
        <time>2022-02-10T08:28:05Z</time>
      </trkpt>
      <trkpt lat="47.52899" lon="1.8425756">
        <ele>125.0</ele>
        <time>2022-02-10T08:28:06Z</time>
      </trkpt>
      <trkpt lat="47.52898" lon="1.8425729">
        <ele>125.0</ele>
        <time>2022-02-10T08:28:07Z</time>
      </trkpt>
      <trkpt lat="47.528965" lon="1.842567">
        <ele>125.0</ele>
        <time>2022-02-10T08:28:08Z</time>
      </trkpt>
      <trkpt lat="47.528954" lon="1.842564">
        <ele>125.0</ele>
        <time>2022-02-10T08:28:09Z</time>
      </trkpt>
      <trkpt lat="47.52894" lon="1.8425592">
        <ele>125.0</ele>
        <time>2022-02-10T08:28:10Z</time>
      </trkpt>
      <trkpt lat="47.528927" lon="1.8425531">
        <ele>125.0</ele>
        <time>2022-02-10T08:28:11Z</time>
      </trkpt>
      <trkpt lat="47.52891" lon="1.8425484">
        <ele>125.0</ele>
        <time>2022-02-10T08:28:12Z</time>
      </trkpt>
      <trkpt lat="47.528896" lon="1.8425413">
        <ele>126.0</ele>
        <time>2022-02-10T08:28:13Z</time>
      </trkpt>
      <trkpt lat="47.528885" lon="1.8425364">
        <ele>127.0</ele>
        <time>2022-02-10T08:28:14Z</time>
      </trkpt>
      <trkpt lat="47.528873" lon="1.8425328">
        <ele>127.0</ele>
        <time>2022-02-10T08:28:15Z</time>
      </trkpt>
      <trkpt lat="47.528862" lon="1.8425251">
        <ele>128.0</ele>
        <time>2022-02-10T08:28:16Z</time>
      </trkpt>
      <trkpt lat="47.528847" lon="1.8425227">
        <ele>128.0</ele>
        <time>2022-02-10T08:28:17Z</time>
      </trkpt>
      <trkpt lat="47.528835" lon="1.8425158">
        <ele>129.0</ele>
        <time>2022-02-10T08:28:18Z</time>
      </trkpt>
      <trkpt lat="47.528824" lon="1.8425114">
        <ele>128.0</ele>
        <time>2022-02-10T08:28:19Z</time>
      </trkpt>
      <trkpt lat="47.5288" lon="1.8425035">
        <ele>128.0</ele>
        <time>2022-02-10T08:28:20Z</time>
      </trkpt>
      <trkpt lat="47.528786" lon="1.8424993">
        <ele>128.0</ele>
        <time>2022-02-10T08:28:21Z</time>
      </trkpt>
      <trkpt lat="47.528774" lon="1.8424952">
        <ele>127.0</ele>
        <time>2022-02-10T08:28:22Z</time>
      </trkpt>
      <trkpt lat="47.52876" lon="1.8424922">
        <ele>127.0</ele>
        <time>2022-02-10T08:28:23Z</time>
      </trkpt>
      <trkpt lat="47.52875" lon="1.8424915">
        <ele>127.0</ele>
        <time>2022-02-10T08:28:24Z</time>
      </trkpt>
      <trkpt lat="47.52874" lon="1.8424835">
        <ele>127.0</ele>
        <time>2022-02-10T08:28:25Z</time>
      </trkpt>
      <trkpt lat="47.52873" lon="1.8424822">
        <ele>127.0</ele>
        <time>2022-02-10T08:28:26Z</time>
      </trkpt>
      <trkpt lat="47.528717" lon="1.8424804">
        <ele>127.0</ele>
        <time>2022-02-10T08:28:27Z</time>
      </trkpt>
      <trkpt lat="47.528717" lon="1.8424804">
        <ele>127.0</ele>
        <time>2022-02-10T08:28:28Z</time>
      </trkpt>
      <trkpt lat="47.528717" lon="1.8424804">
        <ele>127.0</ele>
        <time>2022-02-10T08:28:29Z</time>
      </trkpt>
      <trkpt lat="47.528698" lon="1.8424683">
        <ele>128.0</ele>
        <time>2022-02-10T08:28:30Z</time>
      </trkpt>
      <trkpt lat="47.52869" lon="1.8424604">
        <ele>128.0</ele>
        <time>2022-02-10T08:28:31Z</time>
      </trkpt>
      <trkpt lat="47.52868" lon="1.8424536">
        <ele>129.0</ele>
        <time>2022-02-10T08:28:32Z</time>
      </trkpt>
      <trkpt lat="47.528667" lon="1.8424474">
        <ele>129.0</ele>
        <time>2022-02-10T08:28:33Z</time>
      </trkpt>
      <trkpt lat="47.528667" lon="1.8424474">
        <ele>129.0</ele>
        <time>2022-02-10T08:28:34Z</time>
      </trkpt>
      <trkpt lat="47.528667" lon="1.8424474">
        <ele>129.0</ele>
        <time>2022-02-10T08:28:35Z</time>
      </trkpt>
      <trkpt lat="47.52863" lon="1.8424419">
        <ele>130.0</ele>
        <time>2022-02-10T08:28:36Z</time>
      </trkpt>
      <trkpt lat="47.528614" lon="1.8424343">
        <ele>131.0</ele>
        <time>2022-02-10T08:28:37Z</time>
      </trkpt>
      <trkpt lat="47.528603" lon="1.8424294">
        <ele>131.0</ele>
        <time>2022-02-10T08:28:38Z</time>
      </trkpt>
      <trkpt lat="47.528595" lon="1.8424263">
        <ele>132.0</ele>
        <time>2022-02-10T08:28:39Z</time>
      </trkpt>
      <trkpt lat="47.528584" lon="1.8424227">
        <ele>132.0</ele>
        <time>2022-02-10T08:28:40Z</time>
      </trkpt>
      <trkpt lat="47.528572" lon="1.8424225">
        <ele>132.0</ele>
        <time>2022-02-10T08:28:41Z</time>
      </trkpt>
      <trkpt lat="47.528557" lon="1.8424168">
        <ele>132.0</ele>
        <time>2022-02-10T08:28:42Z</time>
      </trkpt>
      <trkpt lat="47.528557" lon="1.8424168">
        <ele>132.0</ele>
        <time>2022-02-10T08:28:43Z</time>
      </trkpt>
      <trkpt lat="47.528557" lon="1.8424168">
        <ele>132.0</ele>
        <time>2022-02-10T08:28:44Z</time>
      </trkpt>
      <trkpt lat="47.528522" lon="1.8424147">
        <ele>132.0</ele>
        <time>2022-02-10T08:28:45Z</time>
      </trkpt>
      <trkpt lat="47.528515" lon="1.8424106">
        <ele>132.0</ele>
        <time>2022-02-10T08:28:46Z</time>
      </trkpt>
      <trkpt lat="47.528503" lon="1.8424076">
        <ele>131.0</ele>
        <time>2022-02-10T08:28:47Z</time>
      </trkpt>
      <trkpt lat="47.528492" lon="1.8424093">
        <ele>131.0</ele>
        <time>2022-02-10T08:28:48Z</time>
      </trkpt>
      <trkpt lat="47.528477" lon="1.8424093">
        <ele>131.0</ele>
        <time>2022-02-10T08:28:49Z</time>
      </trkpt>
      <trkpt lat="47.528465" lon="1.8424101">
        <ele>130.0</ele>
        <time>2022-02-10T08:28:50Z</time>
      </trkpt>
      <trkpt lat="47.528465" lon="1.8424101">
        <ele>130.0</ele>
        <time>2022-02-10T08:28:51Z</time>
      </trkpt>
      <trkpt lat="47.528465" lon="1.8424101">
        <ele>130.0</ele>
        <time>2022-02-10T08:28:52Z</time>
      </trkpt>
      <trkpt lat="47.52843" lon="1.8424019">
        <ele>131.0</ele>
        <time>2022-02-10T08:28:53Z</time>
      </trkpt>
      <trkpt lat="47.52842" lon="1.8423948">
        <ele>131.0</ele>
        <time>2022-02-10T08:28:54Z</time>
      </trkpt>
      <trkpt lat="47.528404" lon="1.8423905">
        <ele>131.0</ele>
        <time>2022-02-10T08:28:55Z</time>
      </trkpt>
      <trkpt lat="47.528393" lon="1.8423839">
        <ele>130.0</ele>
        <time>2022-02-10T08:28:56Z</time>
      </trkpt>
      <trkpt lat="47.528378" lon="1.8423774">
        <ele>131.0</ele>
        <time>2022-02-10T08:28:57Z</time>
      </trkpt>
      <trkpt lat="47.52837" lon="1.8423696">
        <ele>131.0</ele>
        <time>2022-02-10T08:28:58Z</time>
      </trkpt>
      <trkpt lat="47.528355" lon="1.8423624">
        <ele>131.0</ele>
        <time>2022-02-10T08:28:59Z</time>
      </trkpt>
      <trkpt lat="47.528343" lon="1.8423561">
        <ele>131.0</ele>
        <time>2022-02-10T08:29:00Z</time>
      </trkpt>
      <trkpt lat="47.52833" lon="1.8423513">
        <ele>132.0</ele>
        <time>2022-02-10T08:29:01Z</time>
      </trkpt>
      <trkpt lat="47.52832" lon="1.842349">
        <ele>131.0</ele>
        <time>2022-02-10T08:29:02Z</time>
      </trkpt>
      <trkpt lat="47.528305" lon="1.8423514">
        <ele>132.0</ele>
        <time>2022-02-10T08:29:03Z</time>
      </trkpt>
      <trkpt lat="47.528294" lon="1.8423477">
        <ele>132.0</ele>
        <time>2022-02-10T08:29:04Z</time>
      </trkpt>
      <trkpt lat="47.528294" lon="1.8423477">
        <ele>132.0</ele>
        <time>2022-02-10T08:29:05Z</time>
      </trkpt>
      <trkpt lat="47.528294" lon="1.8423477">
        <ele>132.0</ele>
        <time>2022-02-10T08:29:06Z</time>
      </trkpt>
      <trkpt lat="47.528263" lon="1.8423351">
        <ele>132.0</ele>
        <time>2022-02-10T08:29:07Z</time>
      </trkpt>
      <trkpt lat="47.52825" lon="1.8423314">
        <ele>132.0</ele>
        <time>2022-02-10T08:29:08Z</time>
      </trkpt>
      <trkpt lat="47.52824" lon="1.8423303">
        <ele>132.0</ele>
        <time>2022-02-10T08:29:09Z</time>
      </trkpt>
      <trkpt lat="47.52823" lon="1.8423289">
        <ele>133.0</ele>
        <time>2022-02-10T08:29:10Z</time>
      </trkpt>
      <trkpt lat="47.528214" lon="1.8423266">
        <ele>133.0</ele>
        <time>2022-02-10T08:29:11Z</time>
      </trkpt>
      <trkpt lat="47.5282" lon="1.8423218">
        <ele>133.0</ele>
        <time>2022-02-10T08:29:12Z</time>
      </trkpt>
      <trkpt lat="47.528187" lon="1.8423176">
        <ele>133.0</ele>
        <time>2022-02-10T08:29:13Z</time>
      </trkpt>
      <trkpt lat="47.528175" lon="1.842311">
        <ele>134.0</ele>
        <time>2022-02-10T08:29:14Z</time>
      </trkpt>
      <trkpt lat="47.52816" lon="1.842309">
        <ele>134.0</ele>
        <time>2022-02-10T08:29:15Z</time>
      </trkpt>
      <trkpt lat="47.528152" lon="1.8423058">
        <ele>134.0</ele>
        <time>2022-02-10T08:29:16Z</time>
      </trkpt>
      <trkpt lat="47.528145" lon="1.8423065">
        <ele>134.0</ele>
        <time>2022-02-10T08:29:17Z</time>
      </trkpt>
      <trkpt lat="47.528137" lon="1.8423076">
        <ele>134.0</ele>
        <time>2022-02-10T08:29:18Z</time>
      </trkpt>
      <trkpt lat="47.528137" lon="1.8423076">
        <ele>134.0</ele>
        <time>2022-02-10T08:29:19Z</time>
      </trkpt>
      <trkpt lat="47.528137" lon="1.8423076">
        <ele>134.0</ele>
        <time>2022-02-10T08:29:20Z</time>
      </trkpt>
      <trkpt lat="47.528103" lon="1.8423028">
        <ele>135.0</ele>
        <time>2022-02-10T08:29:21Z</time>
      </trkpt>
      <trkpt lat="47.528088" lon="1.8422968">
        <ele>135.0</ele>
        <time>2022-02-10T08:29:22Z</time>
      </trkpt>
      <trkpt lat="47.52808" lon="1.842294">
        <ele>135.0</ele>
        <time>2022-02-10T08:29:23Z</time>
      </trkpt>
      <trkpt lat="47.52807" lon="1.842287">
        <ele>135.0</ele>
        <time>2022-02-10T08:29:24Z</time>
      </trkpt>
      <trkpt lat="47.528053" lon="1.8422761">
        <ele>135.0</ele>
        <time>2022-02-10T08:29:25Z</time>
      </trkpt>
      <trkpt lat="47.52804" lon="1.84227">
        <ele>136.0</ele>
        <time>2022-02-10T08:29:26Z</time>
      </trkpt>
      <trkpt lat="47.528023" lon="1.8422585">
        <ele>135.0</ele>
        <time>2022-02-10T08:29:27Z</time>
      </trkpt>
      <trkpt lat="47.528004" lon="1.8422519">
        <ele>135.0</ele>
        <time>2022-02-10T08:29:28Z</time>
      </trkpt>
      <trkpt lat="47.52799" lon="1.842247">
        <ele>136.0</ele>
        <time>2022-02-10T08:29:29Z</time>
      </trkpt>
      <trkpt lat="47.527977" lon="1.8422438">
        <ele>135.0</ele>
        <time>2022-02-10T08:29:30Z</time>
      </trkpt>
      <trkpt lat="47.527966" lon="1.8422359">
        <ele>135.0</ele>
        <time>2022-02-10T08:29:31Z</time>
      </trkpt>
      <trkpt lat="47.527954" lon="1.8422332">
        <ele>136.0</ele>
        <time>2022-02-10T08:29:32Z</time>
      </trkpt>
      <trkpt lat="47.527943" lon="1.8422263">
        <ele>136.0</ele>
        <time>2022-02-10T08:29:33Z</time>
      </trkpt>
      <trkpt lat="47.52793" lon="1.8422225">
        <ele>136.0</ele>
        <time>2022-02-10T08:29:34Z</time>
      </trkpt>
      <trkpt lat="47.527916" lon="1.8422176">
        <ele>136.0</ele>
        <time>2022-02-10T08:29:35Z</time>
      </trkpt>
      <trkpt lat="47.527905" lon="1.8422122">
        <ele>136.0</ele>
        <time>2022-02-10T08:29:36Z</time>
      </trkpt>
      <trkpt lat="47.527905" lon="1.8422122">
        <ele>136.0</ele>
        <time>2022-02-10T08:29:37Z</time>
      </trkpt>
      <trkpt lat="47.527905" lon="1.8422122">
        <ele>136.0</ele>
        <time>2022-02-10T08:29:38Z</time>
      </trkpt>
      <trkpt lat="47.527878" lon="1.8421953">
        <ele>136.0</ele>
        <time>2022-02-10T08:29:39Z</time>
      </trkpt>
      <trkpt lat="47.527863" lon="1.842187">
        <ele>136.0</ele>
        <time>2022-02-10T08:29:40Z</time>
      </trkpt>
      <trkpt lat="47.527847" lon="1.842178">
        <ele>137.0</ele>
        <time>2022-02-10T08:29:41Z</time>
      </trkpt>
      <trkpt lat="47.52784" lon="1.8421694">
        <ele>137.0</ele>
        <time>2022-02-10T08:29:42Z</time>
      </trkpt>
      <trkpt lat="47.52784" lon="1.8421694">
        <ele>137.0</ele>
        <time>2022-02-10T08:29:43Z</time>
      </trkpt>
      <trkpt lat="47.52784" lon="1.8421694">
        <ele>137.0</ele>
        <time>2022-02-10T08:29:44Z</time>
      </trkpt>
      <trkpt lat="47.52782" lon="1.8421504">
        <ele>137.0</ele>
        <time>2022-02-10T08:29:45Z</time>
      </trkpt>
      <trkpt lat="47.527813" lon="1.8421379">
        <ele>137.0</ele>
        <time>2022-02-10T08:29:46Z</time>
      </trkpt>
      <trkpt lat="47.52781" lon="1.8421292">
        <ele>137.0</ele>
        <time>2022-02-10T08:29:47Z</time>
      </trkpt>
      <trkpt lat="47.5278" lon="1.8421183">
        <ele>138.0</ele>
        <time>2022-02-10T08:29:48Z</time>
      </trkpt>
      <trkpt lat="47.527798" lon="1.8421081">
        <ele>138.0</ele>
        <time>2022-02-10T08:29:49Z</time>
      </trkpt>
      <trkpt lat="47.52779" lon="1.8420974">
        <ele>138.0</ele>
        <time>2022-02-10T08:29:50Z</time>
      </trkpt>
      <trkpt lat="47.527786" lon="1.8420879">
        <ele>138.0</ele>
        <time>2022-02-10T08:29:51Z</time>
      </trkpt>
      <trkpt lat="47.527786" lon="1.8420879">
        <ele>138.0</ele>
        <time>2022-02-10T08:29:52Z</time>
      </trkpt>
      <trkpt lat="47.527786" lon="1.8420879">
        <ele>138.0</ele>
        <time>2022-02-10T08:29:53Z</time>
      </trkpt>
      <trkpt lat="47.52778" lon="1.8420637">
        <ele>139.0</ele>
        <time>2022-02-10T08:29:54Z</time>
      </trkpt>
      <trkpt lat="47.527775" lon="1.8420563">
        <ele>139.0</ele>
        <time>2022-02-10T08:29:55Z</time>
      </trkpt>
      <trkpt lat="47.52778" lon="1.8420447">
        <ele>139.0</ele>
        <time>2022-02-10T08:29:56Z</time>
      </trkpt>
      <trkpt lat="47.52778" lon="1.8420392">
        <ele>139.0</ele>
        <time>2022-02-10T08:29:57Z</time>
      </trkpt>
      <trkpt lat="47.52778" lon="1.8420392">
        <ele>139.0</ele>
        <time>2022-02-10T08:29:58Z</time>
      </trkpt>
      <trkpt lat="47.52778" lon="1.8420392">
        <ele>139.0</ele>
        <time>2022-02-10T08:29:59Z</time>
      </trkpt>
      <trkpt lat="47.52777" lon="1.8420087">
        <ele>139.0</ele>
        <time>2022-02-10T08:30:00Z</time>
      </trkpt>
      <trkpt lat="47.527767" lon="1.8419975">
        <ele>139.0</ele>
        <time>2022-02-10T08:30:01Z</time>
      </trkpt>
      <trkpt lat="47.527767" lon="1.8419793">
        <ele>139.0</ele>
        <time>2022-02-10T08:30:02Z</time>
      </trkpt>
      <trkpt lat="47.527767" lon="1.8419603">
        <ele>139.0</ele>
        <time>2022-02-10T08:30:03Z</time>
      </trkpt>
      <trkpt lat="47.527763" lon="1.841946">
        <ele>138.0</ele>
        <time>2022-02-10T08:30:04Z</time>
      </trkpt>
      <trkpt lat="47.527763" lon="1.8419312">
        <ele>138.0</ele>
        <time>2022-02-10T08:30:05Z</time>
      </trkpt>
      <trkpt lat="47.527763" lon="1.8419312">
        <ele>138.0</ele>
        <time>2022-02-10T08:30:06Z</time>
      </trkpt>
      <trkpt lat="47.527763" lon="1.8419312">
        <ele>138.0</ele>
        <time>2022-02-10T08:30:07Z</time>
      </trkpt>
      <trkpt lat="47.52776" lon="1.8419075">
        <ele>138.0</ele>
        <time>2022-02-10T08:30:08Z</time>
      </trkpt>
      <trkpt lat="47.527756" lon="1.8418964">
        <ele>138.0</ele>
        <time>2022-02-10T08:30:09Z</time>
      </trkpt>
      <trkpt lat="47.527752" lon="1.8418846">
        <ele>138.0</ele>
        <time>2022-02-10T08:30:10Z</time>
      </trkpt>
      <trkpt lat="47.527756" lon="1.8418717">
        <ele>138.0</ele>
        <time>2022-02-10T08:30:11Z</time>
      </trkpt>
      <trkpt lat="47.527756" lon="1.8418717">
        <ele>138.0</ele>
        <time>2022-02-10T08:30:12Z</time>
      </trkpt>
      <trkpt lat="47.527756" lon="1.8418717">
        <ele>138.0</ele>
        <time>2022-02-10T08:30:13Z</time>
      </trkpt>
      <trkpt lat="47.527752" lon="1.841842">
        <ele>139.0</ele>
        <time>2022-02-10T08:30:14Z</time>
      </trkpt>
      <trkpt lat="47.527752" lon="1.841831">
        <ele>139.0</ele>
        <time>2022-02-10T08:30:15Z</time>
      </trkpt>
      <trkpt lat="47.527752" lon="1.8418214">
        <ele>139.0</ele>
        <time>2022-02-10T08:30:16Z</time>
      </trkpt>
      <trkpt lat="47.527752" lon="1.8418118">
        <ele>139.0</ele>
        <time>2022-02-10T08:30:17Z</time>
      </trkpt>
      <trkpt lat="47.527752" lon="1.8418118">
        <ele>139.0</ele>
        <time>2022-02-10T08:30:18Z</time>
      </trkpt>
      <trkpt lat="47.527752" lon="1.8418118">
        <ele>139.0</ele>
        <time>2022-02-10T08:30:19Z</time>
      </trkpt>
      <trkpt lat="47.52775" lon="1.8417811">
        <ele>138.0</ele>
        <time>2022-02-10T08:30:20Z</time>
      </trkpt>
      <trkpt lat="47.52775" lon="1.8417672">
        <ele>138.0</ele>
        <time>2022-02-10T08:30:21Z</time>
      </trkpt>
      <trkpt lat="47.527744" lon="1.8417528">
        <ele>138.0</ele>
        <time>2022-02-10T08:30:22Z</time>
      </trkpt>
      <trkpt lat="47.527744" lon="1.8417324">
        <ele>138.0</ele>
        <time>2022-02-10T08:30:23Z</time>
      </trkpt>
      <trkpt lat="47.527744" lon="1.8417324">
        <ele>138.0</ele>
        <time>2022-02-10T08:30:24Z</time>
      </trkpt>
      <trkpt lat="47.527744" lon="1.8417324">
        <ele>138.0</ele>
        <time>2022-02-10T08:30:25Z</time>
      </trkpt>
      <trkpt lat="47.52774" lon="1.8416972">
        <ele>138.0</ele>
        <time>2022-02-10T08:30:26Z</time>
      </trkpt>
      <trkpt lat="47.527737" lon="1.8416797">
        <ele>138.0</ele>
        <time>2022-02-10T08:30:27Z</time>
      </trkpt>
      <trkpt lat="47.527733" lon="1.8416637">
        <ele>138.0</ele>
        <time>2022-02-10T08:30:28Z</time>
      </trkpt>
      <trkpt lat="47.52773" lon="1.8416506">
        <ele>138.0</ele>
        <time>2022-02-10T08:30:29Z</time>
      </trkpt>
      <trkpt lat="47.52773" lon="1.8416506">
        <ele>138.0</ele>
        <time>2022-02-10T08:30:30Z</time>
      </trkpt>
      <trkpt lat="47.52773" lon="1.8416506">
        <ele>138.0</ele>
        <time>2022-02-10T08:30:31Z</time>
      </trkpt>
      <trkpt lat="47.527725" lon="1.8416122">
        <ele>138.0</ele>
        <time>2022-02-10T08:30:32Z</time>
      </trkpt>
      <trkpt lat="47.52773" lon="1.8415898">
        <ele>138.0</ele>
        <time>2022-02-10T08:30:33Z</time>
      </trkpt>
      <trkpt lat="47.527725" lon="1.8415695">
        <ele>137.0</ele>
        <time>2022-02-10T08:30:34Z</time>
      </trkpt>
      <trkpt lat="47.527725" lon="1.8415495">
        <ele>137.0</ele>
        <time>2022-02-10T08:30:35Z</time>
      </trkpt>
      <trkpt lat="47.52772" lon="1.8415264">
        <ele>137.0</ele>
        <time>2022-02-10T08:30:36Z</time>
      </trkpt>
      <trkpt lat="47.527718" lon="1.841508">
        <ele>137.0</ele>
        <time>2022-02-10T08:30:37Z</time>
      </trkpt>
      <trkpt lat="47.527714" lon="1.841489">
        <ele>137.0</ele>
        <time>2022-02-10T08:30:38Z</time>
      </trkpt>
      <trkpt lat="47.52771" lon="1.841465">
        <ele>137.0</ele>
        <time>2022-02-10T08:30:39Z</time>
      </trkpt>
      <trkpt lat="47.527702" lon="1.8414493">
        <ele>137.0</ele>
        <time>2022-02-10T08:30:40Z</time>
      </trkpt>
      <trkpt lat="47.5277" lon="1.8414339">
        <ele>137.0</ele>
        <time>2022-02-10T08:30:41Z</time>
      </trkpt>
      <trkpt lat="47.52769" lon="1.8414233">
        <ele>136.0</ele>
        <time>2022-02-10T08:30:42Z</time>
      </trkpt>
      <trkpt lat="47.52768" lon="1.8414057">
        <ele>137.0</ele>
        <time>2022-02-10T08:30:43Z</time>
      </trkpt>
      <trkpt lat="47.52768" lon="1.8414057">
        <ele>137.0</ele>
        <time>2022-02-10T08:30:44Z</time>
      </trkpt>
      <trkpt lat="47.52768" lon="1.8414057">
        <ele>137.0</ele>
        <time>2022-02-10T08:30:45Z</time>
      </trkpt>
      <trkpt lat="47.527653" lon="1.8413587">
        <ele>136.0</ele>
        <time>2022-02-10T08:30:46Z</time>
      </trkpt>
      <trkpt lat="47.52764" lon="1.8413464">
        <ele>136.0</ele>
        <time>2022-02-10T08:30:47Z</time>
      </trkpt>
      <trkpt lat="47.52763" lon="1.8413345">
        <ele>137.0</ele>
        <time>2022-02-10T08:30:48Z</time>
      </trkpt>
      <trkpt lat="47.527622" lon="1.8413197">
        <ele>136.0</ele>
        <time>2022-02-10T08:30:49Z</time>
      </trkpt>
      <trkpt lat="47.52761" lon="1.8412986">
        <ele>136.0</ele>
        <time>2022-02-10T08:30:50Z</time>
      </trkpt>
      <trkpt lat="47.527603" lon="1.8412805">
        <ele>136.0</ele>
        <time>2022-02-10T08:30:51Z</time>
      </trkpt>
      <trkpt lat="47.527596" lon="1.8412622">
        <ele>137.0</ele>
        <time>2022-02-10T08:30:52Z</time>
      </trkpt>
      <trkpt lat="47.527588" lon="1.8412439">
        <ele>137.0</ele>
        <time>2022-02-10T08:30:53Z</time>
      </trkpt>
      <trkpt lat="47.52758" lon="1.8412347">
        <ele>136.0</ele>
        <time>2022-02-10T08:30:54Z</time>
      </trkpt>
      <trkpt lat="47.52757" lon="1.8412268">
        <ele>135.0</ele>
        <time>2022-02-10T08:30:55Z</time>
      </trkpt>
      <trkpt lat="47.52756" lon="1.8412158">
        <ele>135.0</ele>
        <time>2022-02-10T08:30:56Z</time>
      </trkpt>
      <trkpt lat="47.52756" lon="1.8412158">
        <ele>135.0</ele>
        <time>2022-02-10T08:30:57Z</time>
      </trkpt>
      <trkpt lat="47.52756" lon="1.8412158">
        <ele>135.0</ele>
        <time>2022-02-10T08:30:58Z</time>
      </trkpt>
      <trkpt lat="47.52753" lon="1.8411838">
        <ele>136.0</ele>
        <time>2022-02-10T08:30:59Z</time>
      </trkpt>
      <trkpt lat="47.52752" lon="1.8411691">
        <ele>136.0</ele>
        <time>2022-02-10T08:31:00Z</time>
      </trkpt>
      <trkpt lat="47.527508" lon="1.8411496">
        <ele>136.0</ele>
        <time>2022-02-10T08:31:01Z</time>
      </trkpt>
      <trkpt lat="47.527493" lon="1.8411303">
        <ele>137.0</ele>
        <time>2022-02-10T08:31:02Z</time>
      </trkpt>
      <trkpt lat="47.527485" lon="1.8411118">
        <ele>136.0</ele>
        <time>2022-02-10T08:31:03Z</time>
      </trkpt>
      <trkpt lat="47.527477" lon="1.8410999">
        <ele>136.0</ele>
        <time>2022-02-10T08:31:04Z</time>
      </trkpt>
      <trkpt lat="47.52747" lon="1.841086">
        <ele>136.0</ele>
        <time>2022-02-10T08:31:05Z</time>
      </trkpt>
      <trkpt lat="47.527466" lon="1.8410666">
        <ele>136.0</ele>
        <time>2022-02-10T08:31:06Z</time>
      </trkpt>
      <trkpt lat="47.52746" lon="1.8410484">
        <ele>136.0</ele>
        <time>2022-02-10T08:31:07Z</time>
      </trkpt>
      <trkpt lat="47.52745" lon="1.8410311">
        <ele>136.0</ele>
        <time>2022-02-10T08:31:08Z</time>
      </trkpt>
      <trkpt lat="47.52744" lon="1.8410168">
        <ele>137.0</ele>
        <time>2022-02-10T08:31:09Z</time>
      </trkpt>
      <trkpt lat="47.527428" lon="1.8410039">
        <ele>137.0</ele>
        <time>2022-02-10T08:31:10Z</time>
      </trkpt>
      <trkpt lat="47.52742" lon="1.8409922">
        <ele>137.0</ele>
        <time>2022-02-10T08:31:11Z</time>
      </trkpt>
      <trkpt lat="47.527412" lon="1.8409784">
        <ele>137.0</ele>
        <time>2022-02-10T08:31:12Z</time>
      </trkpt>
      <trkpt lat="47.527412" lon="1.8409784">
        <ele>137.0</ele>
        <time>2022-02-10T08:31:13Z</time>
      </trkpt>
      <trkpt lat="47.527397" lon="1.8409549">
        <ele>137.0</ele>
        <time>2022-02-10T08:31:14Z</time>
      </trkpt>
      <trkpt lat="47.52739" lon="1.840947">
        <ele>137.0</ele>
        <time>2022-02-10T08:31:15Z</time>
      </trkpt>
      <trkpt lat="47.527378" lon="1.8409349">
        <ele>138.0</ele>
        <time>2022-02-10T08:31:16Z</time>
      </trkpt>
      <trkpt lat="47.527367" lon="1.8409233">
        <ele>139.0</ele>
        <time>2022-02-10T08:31:17Z</time>
      </trkpt>
      <trkpt lat="47.527355" lon="1.8409154">
        <ele>138.0</ele>
        <time>2022-02-10T08:31:18Z</time>
      </trkpt>
      <trkpt lat="47.527348" lon="1.840905">
        <ele>138.0</ele>
        <time>2022-02-10T08:31:19Z</time>
      </trkpt>
      <trkpt lat="47.527336" lon="1.8408946">
        <ele>138.0</ele>
        <time>2022-02-10T08:31:20Z</time>
      </trkpt>
      <trkpt lat="47.52732" lon="1.840882">
        <ele>138.0</ele>
        <time>2022-02-10T08:31:21Z</time>
      </trkpt>
      <trkpt lat="47.52731" lon="1.8408697">
        <ele>138.0</ele>
        <time>2022-02-10T08:31:22Z</time>
      </trkpt>
      <trkpt lat="47.527298" lon="1.8408526">
        <ele>139.0</ele>
        <time>2022-02-10T08:31:23Z</time>
      </trkpt>
      <trkpt lat="47.527287" lon="1.8408386">
        <ele>139.0</ele>
        <time>2022-02-10T08:31:24Z</time>
      </trkpt>
      <trkpt lat="47.527267" lon="1.840826">
        <ele>139.0</ele>
        <time>2022-02-10T08:31:25Z</time>
      </trkpt>
      <trkpt lat="47.527256" lon="1.8408128">
        <ele>139.0</ele>
        <time>2022-02-10T08:31:26Z</time>
      </trkpt>
      <trkpt lat="47.52724" lon="1.840799">
        <ele>140.0</ele>
        <time>2022-02-10T08:31:27Z</time>
      </trkpt>
      <trkpt lat="47.52723" lon="1.8407856">
        <ele>139.0</ele>
        <time>2022-02-10T08:31:28Z</time>
      </trkpt>
      <trkpt lat="47.527218" lon="1.8407723">
        <ele>140.0</ele>
        <time>2022-02-10T08:31:29Z</time>
      </trkpt>
      <trkpt lat="47.527206" lon="1.8407617">
        <ele>140.0</ele>
        <time>2022-02-10T08:31:30Z</time>
      </trkpt>
      <trkpt lat="47.527195" lon="1.8407509">
        <ele>141.0</ele>
        <time>2022-02-10T08:31:31Z</time>
      </trkpt>
      <trkpt lat="47.527187" lon="1.8407452">
        <ele>141.0</ele>
        <time>2022-02-10T08:31:32Z</time>
      </trkpt>
      <trkpt lat="47.527187" lon="1.8407452">
        <ele>141.0</ele>
        <time>2022-02-10T08:31:33Z</time>
      </trkpt>
      <trkpt lat="47.527187" lon="1.8407452">
        <ele>141.0</ele>
        <time>2022-02-10T08:31:34Z</time>
      </trkpt>
      <trkpt lat="47.52717" lon="1.8407203">
        <ele>140.0</ele>
        <time>2022-02-10T08:31:35Z</time>
      </trkpt>
      <trkpt lat="47.527157" lon="1.8407073">
        <ele>140.0</ele>
        <time>2022-02-10T08:31:36Z</time>
      </trkpt>
      <trkpt lat="47.52715" lon="1.8406992">
        <ele>140.0</ele>
        <time>2022-02-10T08:31:37Z</time>
      </trkpt>
      <trkpt lat="47.52714" lon="1.8406898">
        <ele>140.0</ele>
        <time>2022-02-10T08:31:38Z</time>
      </trkpt>
      <trkpt lat="47.52713" lon="1.8406774">
        <ele>141.0</ele>
        <time>2022-02-10T08:31:39Z</time>
      </trkpt>
      <trkpt lat="47.52712" lon="1.8406639">
        <ele>141.0</ele>
        <time>2022-02-10T08:31:40Z</time>
      </trkpt>
      <trkpt lat="47.52711" lon="1.8406532">
        <ele>141.0</ele>
        <time>2022-02-10T08:31:41Z</time>
      </trkpt>
      <trkpt lat="47.527103" lon="1.8406394">
        <ele>141.0</ele>
        <time>2022-02-10T08:31:42Z</time>
      </trkpt>
      <trkpt lat="47.527096" lon="1.8406214">
        <ele>141.0</ele>
        <time>2022-02-10T08:31:43Z</time>
      </trkpt>
      <trkpt lat="47.527096" lon="1.8406214">
        <ele>141.0</ele>
        <time>2022-02-10T08:31:44Z</time>
      </trkpt>
      <trkpt lat="47.527073" lon="1.8405926">
        <ele>141.0</ele>
        <time>2022-02-10T08:31:45Z</time>
      </trkpt>
      <trkpt lat="47.52706" lon="1.8405792">
        <ele>142.0</ele>
        <time>2022-02-10T08:31:46Z</time>
      </trkpt>
      <trkpt lat="47.527046" lon="1.840568">
        <ele>142.0</ele>
        <time>2022-02-10T08:31:47Z</time>
      </trkpt>
      <trkpt lat="47.527035" lon="1.840552">
        <ele>142.0</ele>
        <time>2022-02-10T08:31:48Z</time>
      </trkpt>
      <trkpt lat="47.527027" lon="1.840539">
        <ele>142.0</ele>
        <time>2022-02-10T08:31:49Z</time>
      </trkpt>
      <trkpt lat="47.527016" lon="1.8405304">
        <ele>142.0</ele>
        <time>2022-02-10T08:31:50Z</time>
      </trkpt>
      <trkpt lat="47.527004" lon="1.8405194">
        <ele>142.0</ele>
        <time>2022-02-10T08:31:51Z</time>
      </trkpt>
      <trkpt lat="47.526997" lon="1.8405122">
        <ele>142.0</ele>
        <time>2022-02-10T08:31:52Z</time>
      </trkpt>
      <trkpt lat="47.526985" lon="1.840502">
        <ele>142.0</ele>
        <time>2022-02-10T08:31:53Z</time>
      </trkpt>
      <trkpt lat="47.526974" lon="1.8404949">
        <ele>141.0</ele>
        <time>2022-02-10T08:31:54Z</time>
      </trkpt>
      <trkpt lat="47.526966" lon="1.840483">
        <ele>141.0</ele>
        <time>2022-02-10T08:31:55Z</time>
      </trkpt>
      <trkpt lat="47.526955" lon="1.840469">
        <ele>142.0</ele>
        <time>2022-02-10T08:31:56Z</time>
      </trkpt>
      <trkpt lat="47.52694" lon="1.8404548">
        <ele>142.0</ele>
        <time>2022-02-10T08:31:57Z</time>
      </trkpt>
      <trkpt lat="47.526924" lon="1.8404405">
        <ele>142.0</ele>
        <time>2022-02-10T08:31:58Z</time>
      </trkpt>
      <trkpt lat="47.526917" lon="1.8404309">
        <ele>142.0</ele>
        <time>2022-02-10T08:31:59Z</time>
      </trkpt>
      <trkpt lat="47.526905" lon="1.8404222">
        <ele>143.0</ele>
        <time>2022-02-10T08:32:00Z</time>
      </trkpt>
      <trkpt lat="47.52689" lon="1.8404119">
        <ele>143.0</ele>
        <time>2022-02-10T08:32:01Z</time>
      </trkpt>
      <trkpt lat="47.52688" lon="1.8404007">
        <ele>143.0</ele>
        <time>2022-02-10T08:32:02Z</time>
      </trkpt>
      <trkpt lat="47.52687" lon="1.8403877">
        <ele>143.0</ele>
        <time>2022-02-10T08:32:03Z</time>
      </trkpt>
      <trkpt lat="47.52687" lon="1.8403877">
        <ele>143.0</ele>
        <time>2022-02-10T08:32:04Z</time>
      </trkpt>
      <trkpt lat="47.52687" lon="1.8403877">
        <ele>143.0</ele>
        <time>2022-02-10T08:32:05Z</time>
      </trkpt>
      <trkpt lat="47.52685" lon="1.8403496">
        <ele>143.0</ele>
        <time>2022-02-10T08:32:06Z</time>
      </trkpt>
      <trkpt lat="47.526836" lon="1.840338">
        <ele>143.0</ele>
        <time>2022-02-10T08:32:07Z</time>
      </trkpt>
      <trkpt lat="47.526825" lon="1.840327">
        <ele>143.0</ele>
        <time>2022-02-10T08:32:08Z</time>
      </trkpt>
      <trkpt lat="47.52681" lon="1.8403175">
        <ele>143.0</ele>
        <time>2022-02-10T08:32:09Z</time>
      </trkpt>
      <trkpt lat="47.5268" lon="1.840309">
        <ele>143.0</ele>
        <time>2022-02-10T08:32:10Z</time>
      </trkpt>
      <trkpt lat="47.526787" lon="1.8403025">
        <ele>143.0</ele>
        <time>2022-02-10T08:32:11Z</time>
      </trkpt>
      <trkpt lat="47.526787" lon="1.8403025">
        <ele>143.0</ele>
        <time>2022-02-10T08:32:12Z</time>
      </trkpt>
      <trkpt lat="47.52677" lon="1.8402846">
        <ele>142.0</ele>
        <time>2022-02-10T08:32:13Z</time>
      </trkpt>
      <trkpt lat="47.526764" lon="1.8402739">
        <ele>143.0</ele>
        <time>2022-02-10T08:32:14Z</time>
      </trkpt>
      <trkpt lat="47.526752" lon="1.8402629">
        <ele>143.0</ele>
        <time>2022-02-10T08:32:15Z</time>
      </trkpt>
      <trkpt lat="47.526745" lon="1.8402512">
        <ele>143.0</ele>
        <time>2022-02-10T08:32:16Z</time>
      </trkpt>
      <trkpt lat="47.526733" lon="1.8402369">
        <ele>143.0</ele>
        <time>2022-02-10T08:32:17Z</time>
      </trkpt>
      <trkpt lat="47.526722" lon="1.8402255">
        <ele>143.0</ele>
        <time>2022-02-10T08:32:18Z</time>
      </trkpt>
      <trkpt lat="47.52671" lon="1.8402138">
        <ele>143.0</ele>
        <time>2022-02-10T08:32:19Z</time>
      </trkpt>
      <trkpt lat="47.526703" lon="1.8402027">
        <ele>143.0</ele>
        <time>2022-02-10T08:32:20Z</time>
      </trkpt>
      <trkpt lat="47.52669" lon="1.8401916">
        <ele>143.0</ele>
        <time>2022-02-10T08:32:21Z</time>
      </trkpt>
      <trkpt lat="47.52668" lon="1.8401811">
        <ele>143.0</ele>
        <time>2022-02-10T08:32:22Z</time>
      </trkpt>
      <trkpt lat="47.52667" lon="1.8401697">
        <ele>143.0</ele>
        <time>2022-02-10T08:32:23Z</time>
      </trkpt>
      <trkpt lat="47.526657" lon="1.8401558">
        <ele>143.0</ele>
        <time>2022-02-10T08:32:24Z</time>
      </trkpt>
      <trkpt lat="47.52665" lon="1.8401418">
        <ele>143.0</ele>
        <time>2022-02-10T08:32:25Z</time>
      </trkpt>
      <trkpt lat="47.526638" lon="1.8401321">
        <ele>143.0</ele>
        <time>2022-02-10T08:32:26Z</time>
      </trkpt>
      <trkpt lat="47.52663" lon="1.8401226">
        <ele>143.0</ele>
        <time>2022-02-10T08:32:27Z</time>
      </trkpt>
      <trkpt lat="47.526623" lon="1.8401157">
        <ele>143.0</ele>
        <time>2022-02-10T08:32:28Z</time>
      </trkpt>
      <trkpt lat="47.526615" lon="1.8401065">
        <ele>143.0</ele>
        <time>2022-02-10T08:32:29Z</time>
      </trkpt>
      <trkpt lat="47.526608" lon="1.8400979">
        <ele>142.0</ele>
        <time>2022-02-10T08:32:30Z</time>
      </trkpt>
      <trkpt lat="47.526608" lon="1.8400979">
        <ele>142.0</ele>
        <time>2022-02-10T08:32:31Z</time>
      </trkpt>
      <trkpt lat="47.526608" lon="1.8400979">
        <ele>142.0</ele>
        <time>2022-02-10T08:32:32Z</time>
      </trkpt>
      <trkpt lat="47.52659" lon="1.8400669">
        <ele>142.0</ele>
        <time>2022-02-10T08:32:33Z</time>
      </trkpt>
      <trkpt lat="47.52658" lon="1.8400531">
        <ele>142.0</ele>
        <time>2022-02-10T08:32:34Z</time>
      </trkpt>
      <trkpt lat="47.52657" lon="1.8400375">
        <ele>141.0</ele>
        <time>2022-02-10T08:32:35Z</time>
      </trkpt>
      <trkpt lat="47.52656" lon="1.840025">
        <ele>141.0</ele>
        <time>2022-02-10T08:32:36Z</time>
      </trkpt>
      <trkpt lat="47.526554" lon="1.8400158">
        <ele>141.0</ele>
        <time>2022-02-10T08:32:37Z</time>
      </trkpt>
      <trkpt lat="47.526546" lon="1.84">
        <ele>142.0</ele>
        <time>2022-02-10T08:32:38Z</time>
      </trkpt>
      <trkpt lat="47.526543" lon="1.8399899">
        <ele>141.0</ele>
        <time>2022-02-10T08:32:39Z</time>
      </trkpt>
      <trkpt lat="47.52654" lon="1.8399835">
        <ele>141.0</ele>
        <time>2022-02-10T08:32:40Z</time>
      </trkpt>
      <trkpt lat="47.526535" lon="1.839977">
        <ele>141.0</ele>
        <time>2022-02-10T08:32:41Z</time>
      </trkpt>
      <trkpt lat="47.526524" lon="1.8399647">
        <ele>141.0</ele>
        <time>2022-02-10T08:32:42Z</time>
      </trkpt>
      <trkpt lat="47.526512" lon="1.839954">
        <ele>141.0</ele>
        <time>2022-02-10T08:32:43Z</time>
      </trkpt>
      <trkpt lat="47.5265" lon="1.8399432">
        <ele>141.0</ele>
        <time>2022-02-10T08:32:44Z</time>
      </trkpt>
      <trkpt lat="47.526493" lon="1.8399315">
        <ele>141.0</ele>
        <time>2022-02-10T08:32:45Z</time>
      </trkpt>
      <trkpt lat="47.52648" lon="1.8399199">
        <ele>141.0</ele>
        <time>2022-02-10T08:32:46Z</time>
      </trkpt>
      <trkpt lat="47.52647" lon="1.8399111">
        <ele>141.0</ele>
        <time>2022-02-10T08:32:47Z</time>
      </trkpt>
      <trkpt lat="47.526463" lon="1.8399059">
        <ele>141.0</ele>
        <time>2022-02-10T08:32:48Z</time>
      </trkpt>
      <trkpt lat="47.52645" lon="1.8398981">
        <ele>141.0</ele>
        <time>2022-02-10T08:32:49Z</time>
      </trkpt>
      <trkpt lat="47.526436" lon="1.8398864">
        <ele>141.0</ele>
        <time>2022-02-10T08:32:50Z</time>
      </trkpt>
      <trkpt lat="47.526424" lon="1.8398752">
        <ele>141.0</ele>
        <time>2022-02-10T08:32:51Z</time>
      </trkpt>
      <trkpt lat="47.52641" lon="1.8398646">
        <ele>141.0</ele>
        <time>2022-02-10T08:32:52Z</time>
      </trkpt>
      <trkpt lat="47.526398" lon="1.8398582">
        <ele>141.0</ele>
        <time>2022-02-10T08:32:53Z</time>
      </trkpt>
      <trkpt lat="47.526386" lon="1.8398501">
        <ele>141.0</ele>
        <time>2022-02-10T08:32:54Z</time>
      </trkpt>
      <trkpt lat="47.526375" lon="1.8398482">
        <ele>141.0</ele>
        <time>2022-02-10T08:32:55Z</time>
      </trkpt>
      <trkpt lat="47.526363" lon="1.8398422">
        <ele>141.0</ele>
        <time>2022-02-10T08:32:56Z</time>
      </trkpt>
      <trkpt lat="47.526363" lon="1.8398422">
        <ele>141.0</ele>
        <time>2022-02-10T08:32:57Z</time>
      </trkpt>
      <trkpt lat="47.526363" lon="1.8398422">
        <ele>141.0</ele>
        <time>2022-02-10T08:32:58Z</time>
      </trkpt>
      <trkpt lat="47.526337" lon="1.8398205">
        <ele>141.0</ele>
        <time>2022-02-10T08:32:59Z</time>
      </trkpt>
      <trkpt lat="47.526325" lon="1.8398156">
        <ele>141.0</ele>
        <time>2022-02-10T08:33:00Z</time>
      </trkpt>
      <trkpt lat="47.526318" lon="1.8398108">
        <ele>141.0</ele>
        <time>2022-02-10T08:33:01Z</time>
      </trkpt>
      <trkpt lat="47.526306" lon="1.8398046">
        <ele>140.0</ele>
        <time>2022-02-10T08:33:02Z</time>
      </trkpt>
      <trkpt lat="47.5263" lon="1.8397973">
        <ele>140.0</ele>
        <time>2022-02-10T08:33:03Z</time>
      </trkpt>
      <trkpt lat="47.5263" lon="1.8397973">
        <ele>140.0</ele>
        <time>2022-02-10T08:33:04Z</time>
      </trkpt>
      <trkpt lat="47.5263" lon="1.8397973">
        <ele>140.0</ele>
        <time>2022-02-10T08:33:05Z</time>
      </trkpt>
      <trkpt lat="47.526276" lon="1.8397784">
        <ele>140.0</ele>
        <time>2022-02-10T08:33:06Z</time>
      </trkpt>
      <trkpt lat="47.526268" lon="1.8397709">
        <ele>139.0</ele>
        <time>2022-02-10T08:33:07Z</time>
      </trkpt>
      <trkpt lat="47.52626" lon="1.8397617">
        <ele>139.0</ele>
        <time>2022-02-10T08:33:08Z</time>
      </trkpt>
      <trkpt lat="47.526253" lon="1.839755">
        <ele>139.0</ele>
        <time>2022-02-10T08:33:09Z</time>
      </trkpt>
      <trkpt lat="47.52624" lon="1.8397417">
        <ele>139.0</ele>
        <time>2022-02-10T08:33:10Z</time>
      </trkpt>
      <trkpt lat="47.52623" lon="1.8397282">
        <ele>138.0</ele>
        <time>2022-02-10T08:33:11Z</time>
      </trkpt>
      <trkpt lat="47.526222" lon="1.8397146">
        <ele>138.0</ele>
        <time>2022-02-10T08:33:12Z</time>
      </trkpt>
      <trkpt lat="47.52621" lon="1.8397056">
        <ele>138.0</ele>
        <time>2022-02-10T08:33:13Z</time>
      </trkpt>
      <trkpt lat="47.526203" lon="1.8396926">
        <ele>138.0</ele>
        <time>2022-02-10T08:33:14Z</time>
      </trkpt>
      <trkpt lat="47.526196" lon="1.8396784">
        <ele>138.0</ele>
        <time>2022-02-10T08:33:15Z</time>
      </trkpt>
      <trkpt lat="47.52619" lon="1.8396759">
        <ele>137.0</ele>
        <time>2022-02-10T08:33:16Z</time>
      </trkpt>
      <trkpt lat="47.526184" lon="1.8396691">
        <ele>137.0</ele>
        <time>2022-02-10T08:33:17Z</time>
      </trkpt>
      <trkpt lat="47.526176" lon="1.839659">
        <ele>136.0</ele>
        <time>2022-02-10T08:33:18Z</time>
      </trkpt>
      <trkpt lat="47.52617" lon="1.8396482">
        <ele>136.0</ele>
        <time>2022-02-10T08:33:19Z</time>
      </trkpt>
      <trkpt lat="47.526157" lon="1.8396363">
        <ele>136.0</ele>
        <time>2022-02-10T08:33:20Z</time>
      </trkpt>
      <trkpt lat="47.52615" lon="1.8396223">
        <ele>136.0</ele>
        <time>2022-02-10T08:33:21Z</time>
      </trkpt>
      <trkpt lat="47.52614" lon="1.839606">
        <ele>136.0</ele>
        <time>2022-02-10T08:33:22Z</time>
      </trkpt>
      <trkpt lat="47.52613" lon="1.8395959">
        <ele>136.0</ele>
        <time>2022-02-10T08:33:23Z</time>
      </trkpt>
      <trkpt lat="47.526127" lon="1.8395901">
        <ele>136.0</ele>
        <time>2022-02-10T08:33:24Z</time>
      </trkpt>
      <trkpt lat="47.52612" lon="1.8395838">
        <ele>136.0</ele>
        <time>2022-02-10T08:33:25Z</time>
      </trkpt>
      <trkpt lat="47.526108" lon="1.8395752">
        <ele>136.0</ele>
        <time>2022-02-10T08:33:26Z</time>
      </trkpt>
      <trkpt lat="47.526096" lon="1.8395655">
        <ele>136.0</ele>
        <time>2022-02-10T08:33:27Z</time>
      </trkpt>
      <trkpt lat="47.52609" lon="1.8395537">
        <ele>136.0</ele>
        <time>2022-02-10T08:33:28Z</time>
      </trkpt>
      <trkpt lat="47.52608" lon="1.839544">
        <ele>136.0</ele>
        <time>2022-02-10T08:33:29Z</time>
      </trkpt>
      <trkpt lat="47.526077" lon="1.8395346">
        <ele>136.0</ele>
        <time>2022-02-10T08:33:30Z</time>
      </trkpt>
      <trkpt lat="47.52607" lon="1.8395271">
        <ele>136.0</ele>
        <time>2022-02-10T08:33:31Z</time>
      </trkpt>
      <trkpt lat="47.526066" lon="1.8395175">
        <ele>136.0</ele>
        <time>2022-02-10T08:33:32Z</time>
      </trkpt>
      <trkpt lat="47.52606" lon="1.8395191">
        <ele>136.0</ele>
        <time>2022-02-10T08:33:33Z</time>
      </trkpt>
      <trkpt lat="47.526054" lon="1.8395127">
        <ele>136.0</ele>
        <time>2022-02-10T08:33:34Z</time>
      </trkpt>
      <trkpt lat="47.526043" lon="1.8394976">
        <ele>136.0</ele>
        <time>2022-02-10T08:33:35Z</time>
      </trkpt>
      <trkpt lat="47.52603" lon="1.8394815">
        <ele>135.0</ele>
        <time>2022-02-10T08:33:36Z</time>
      </trkpt>
      <trkpt lat="47.526016" lon="1.8394663">
        <ele>134.0</ele>
        <time>2022-02-10T08:33:37Z</time>
      </trkpt>
      <trkpt lat="47.52601" lon="1.8394563">
        <ele>135.0</ele>
        <time>2022-02-10T08:33:38Z</time>
      </trkpt>
      <trkpt lat="47.525997" lon="1.8394425">
        <ele>134.0</ele>
        <time>2022-02-10T08:33:39Z</time>
      </trkpt>
      <trkpt lat="47.525986" lon="1.8394289">
        <ele>134.0</ele>
        <time>2022-02-10T08:33:40Z</time>
      </trkpt>
      <trkpt lat="47.525974" lon="1.8394177">
        <ele>134.0</ele>
        <time>2022-02-10T08:33:41Z</time>
      </trkpt>
      <trkpt lat="47.52597" lon="1.8394096">
        <ele>134.0</ele>
        <time>2022-02-10T08:33:42Z</time>
      </trkpt>
      <trkpt lat="47.52596" lon="1.8394017">
        <ele>134.0</ele>
        <time>2022-02-10T08:33:43Z</time>
      </trkpt>
      <trkpt lat="47.525944" lon="1.8393856">
        <ele>134.0</ele>
        <time>2022-02-10T08:33:44Z</time>
      </trkpt>
      <trkpt lat="47.525936" lon="1.8393741">
        <ele>134.0</ele>
        <time>2022-02-10T08:33:45Z</time>
      </trkpt>
      <trkpt lat="47.52592" lon="1.8393626">
        <ele>135.0</ele>
        <time>2022-02-10T08:33:46Z</time>
      </trkpt>
      <trkpt lat="47.52591" lon="1.8393505">
        <ele>135.0</ele>
        <time>2022-02-10T08:33:47Z</time>
      </trkpt>
      <trkpt lat="47.525894" lon="1.8393373">
        <ele>135.0</ele>
        <time>2022-02-10T08:33:48Z</time>
      </trkpt>
      <trkpt lat="47.525883" lon="1.8393292">
        <ele>135.0</ele>
        <time>2022-02-10T08:33:49Z</time>
      </trkpt>
      <trkpt lat="47.525875" lon="1.8393338">
        <ele>134.0</ele>
        <time>2022-02-10T08:33:50Z</time>
      </trkpt>
      <trkpt lat="47.525864" lon="1.8393347">
        <ele>134.0</ele>
        <time>2022-02-10T08:33:51Z</time>
      </trkpt>
      <trkpt lat="47.52585" lon="1.8393297">
        <ele>134.0</ele>
        <time>2022-02-10T08:33:52Z</time>
      </trkpt>
      <trkpt lat="47.52584" lon="1.8393177">
        <ele>134.0</ele>
        <time>2022-02-10T08:33:53Z</time>
      </trkpt>
      <trkpt lat="47.525833" lon="1.8393111">
        <ele>134.0</ele>
        <time>2022-02-10T08:33:54Z</time>
      </trkpt>
      <trkpt lat="47.525833" lon="1.8393111">
        <ele>134.0</ele>
        <time>2022-02-10T08:33:55Z</time>
      </trkpt>
      <trkpt lat="47.525833" lon="1.8393111">
        <ele>134.0</ele>
        <time>2022-02-10T08:33:56Z</time>
      </trkpt>
      <trkpt lat="47.525803" lon="1.8393016">
        <ele>133.0</ele>
        <time>2022-02-10T08:33:57Z</time>
      </trkpt>
      <trkpt lat="47.525795" lon="1.8392928">
        <ele>133.0</ele>
        <time>2022-02-10T08:33:58Z</time>
      </trkpt>
      <trkpt lat="47.525784" lon="1.8392897">
        <ele>133.0</ele>
        <time>2022-02-10T08:33:59Z</time>
      </trkpt>
      <trkpt lat="47.525772" lon="1.8392887">
        <ele>132.0</ele>
        <time>2022-02-10T08:34:00Z</time>
      </trkpt>
      <trkpt lat="47.525764" lon="1.8392885">
        <ele>133.0</ele>
        <time>2022-02-10T08:34:01Z</time>
      </trkpt>
      <trkpt lat="47.525764" lon="1.8392814">
        <ele>132.0</ele>
        <time>2022-02-10T08:34:02Z</time>
      </trkpt>
      <trkpt lat="47.525757" lon="1.8392794">
        <ele>132.0</ele>
        <time>2022-02-10T08:34:03Z</time>
      </trkpt>
      <trkpt lat="47.52575" lon="1.8392761">
        <ele>132.0</ele>
        <time>2022-02-10T08:34:04Z</time>
      </trkpt>
      <trkpt lat="47.52575" lon="1.8392761">
        <ele>132.0</ele>
        <time>2022-02-10T08:34:04Z</time>
      </trkpt>
    </trkseg>
    <trkseg>
      <trkpt lat="47.52575" lon="1.8392761">
        <ele>132.0</ele>
        <time>2022-02-10T08:34:04Z</time>
      </trkpt>
      <trkpt lat="47.525646" lon="1.8391445">
        <ele>134.0</ele>
        <time>2022-02-10T08:34:42Z</time>
      </trkpt>
      <trkpt lat="47.52564" lon="1.8391455">
        <ele>134.0</ele>
        <time>2022-02-10T08:34:43Z</time>
      </trkpt>
      <trkpt lat="47.52564" lon="1.8391455">
        <ele>134.0</ele>
        <time>2022-02-10T08:34:44Z</time>
      </trkpt>
      <trkpt lat="47.52564" lon="1.8391455">
        <ele>134.0</ele>
        <time>2022-02-10T08:34:45Z</time>
      </trkpt>
      <trkpt lat="47.525616" lon="1.8391511">
        <ele>135.0</ele>
        <time>2022-02-10T08:34:46Z</time>
      </trkpt>
      <trkpt lat="47.525604" lon="1.8391523">
        <ele>135.0</ele>
        <time>2022-02-10T08:34:47Z</time>
      </trkpt>
      <trkpt lat="47.525597" lon="1.839154">
        <ele>135.0</ele>
        <time>2022-02-10T08:34:48Z</time>
      </trkpt>
      <trkpt lat="47.52559" lon="1.8391556">
        <ele>135.0</ele>
        <time>2022-02-10T08:34:49Z</time>
      </trkpt>
      <trkpt lat="47.525578" lon="1.8391515">
        <ele>135.0</ele>
        <time>2022-02-10T08:34:50Z</time>
      </trkpt>
      <trkpt lat="47.52557" lon="1.8391442">
        <ele>135.0</ele>
        <time>2022-02-10T08:34:51Z</time>
      </trkpt>
      <trkpt lat="47.525562" lon="1.8391317">
        <ele>135.0</ele>
        <time>2022-02-10T08:34:52Z</time>
      </trkpt>
      <trkpt lat="47.525555" lon="1.8391213">
        <ele>136.0</ele>
        <time>2022-02-10T08:34:53Z</time>
      </trkpt>
      <trkpt lat="47.525547" lon="1.8391141">
        <ele>137.0</ele>
        <time>2022-02-10T08:34:54Z</time>
      </trkpt>
      <trkpt lat="47.52554" lon="1.8391068">
        <ele>137.0</ele>
        <time>2022-02-10T08:34:55Z</time>
      </trkpt>
      <trkpt lat="47.52554" lon="1.8390977">
        <ele>137.0</ele>
        <time>2022-02-10T08:34:56Z</time>
      </trkpt>
      <trkpt lat="47.525536" lon="1.8390882">
        <ele>137.0</ele>
        <time>2022-02-10T08:34:57Z</time>
      </trkpt>
      <trkpt lat="47.52553" lon="1.8390812">
        <ele>137.0</ele>
        <time>2022-02-10T08:34:58Z</time>
      </trkpt>
      <trkpt lat="47.52553" lon="1.8390812">
        <ele>137.0</ele>
        <time>2022-02-10T08:34:59Z</time>
      </trkpt>
      <trkpt lat="47.52553" lon="1.8390812">
        <ele>137.0</ele>
        <time>2022-02-10T08:35:00Z</time>
      </trkpt>
      <trkpt lat="47.52552" lon="1.8390627">
        <ele>138.0</ele>
        <time>2022-02-10T08:35:01Z</time>
      </trkpt>
      <trkpt lat="47.525513" lon="1.8390516">
        <ele>138.0</ele>
        <time>2022-02-10T08:35:02Z</time>
      </trkpt>
      <trkpt lat="47.52551" lon="1.839043">
        <ele>138.0</ele>
        <time>2022-02-10T08:35:03Z</time>
      </trkpt>
      <trkpt lat="47.52551" lon="1.8390311">
        <ele>138.0</ele>
        <time>2022-02-10T08:35:04Z</time>
      </trkpt>
      <trkpt lat="47.52551" lon="1.8390311">
        <ele>138.0</ele>
        <time>2022-02-10T08:35:05Z</time>
      </trkpt>
      <trkpt lat="47.52551" lon="1.8390311">
        <ele>138.0</ele>
        <time>2022-02-10T08:35:06Z</time>
      </trkpt>
      <trkpt lat="47.525513" lon="1.839008">
        <ele>138.0</ele>
        <time>2022-02-10T08:35:07Z</time>
      </trkpt>
      <trkpt lat="47.52551" lon="1.8389974">
        <ele>138.0</ele>
        <time>2022-02-10T08:35:08Z</time>
      </trkpt>
      <trkpt lat="47.525505" lon="1.8389862">
        <ele>137.0</ele>
        <time>2022-02-10T08:35:09Z</time>
      </trkpt>
      <trkpt lat="47.525505" lon="1.8389775">
        <ele>137.0</ele>
        <time>2022-02-10T08:35:10Z</time>
      </trkpt>
      <trkpt lat="47.525505" lon="1.8389775">
        <ele>137.0</ele>
        <time>2022-02-10T08:35:11Z</time>
      </trkpt>
      <trkpt lat="47.525505" lon="1.8389775">
        <ele>137.0</ele>
        <time>2022-02-10T08:35:12Z</time>
      </trkpt>
      <trkpt lat="47.525505" lon="1.8389525">
        <ele>137.0</ele>
        <time>2022-02-10T08:35:13Z</time>
      </trkpt>
      <trkpt lat="47.52551" lon="1.8389492">
        <ele>137.0</ele>
        <time>2022-02-10T08:35:14Z</time>
      </trkpt>
      <trkpt lat="47.525505" lon="1.8389349">
        <ele>136.0</ele>
        <time>2022-02-10T08:35:15Z</time>
      </trkpt>
      <trkpt lat="47.5255" lon="1.8389224">
        <ele>136.0</ele>
        <time>2022-02-10T08:35:16Z</time>
      </trkpt>
      <trkpt lat="47.5255" lon="1.8389224">
        <ele>136.0</ele>
        <time>2022-02-10T08:35:17Z</time>
      </trkpt>
      <trkpt lat="47.5255" lon="1.8389224">
        <ele>136.0</ele>
        <time>2022-02-10T08:35:18Z</time>
      </trkpt>
      <trkpt lat="47.52549" lon="1.8388824">
        <ele>135.0</ele>
        <time>2022-02-10T08:35:19Z</time>
      </trkpt>
      <trkpt lat="47.525486" lon="1.8388681">
        <ele>135.0</ele>
        <time>2022-02-10T08:35:20Z</time>
      </trkpt>
      <trkpt lat="47.525486" lon="1.8388544">
        <ele>135.0</ele>
        <time>2022-02-10T08:35:21Z</time>
      </trkpt>
      <trkpt lat="47.525482" lon="1.8388481">
        <ele>135.0</ele>
        <time>2022-02-10T08:35:22Z</time>
      </trkpt>
      <trkpt lat="47.525482" lon="1.8388481">
        <ele>135.0</ele>
        <time>2022-02-10T08:35:23Z</time>
      </trkpt>
      <trkpt lat="47.525482" lon="1.8388481">
        <ele>135.0</ele>
        <time>2022-02-10T08:35:24Z</time>
      </trkpt>
      <trkpt lat="47.52548" lon="1.8388141">
        <ele>133.0</ele>
        <time>2022-02-10T08:35:25Z</time>
      </trkpt>
      <trkpt lat="47.525475" lon="1.838797">
        <ele>133.0</ele>
        <time>2022-02-10T08:35:26Z</time>
      </trkpt>
      <trkpt lat="47.525475" lon="1.8387804">
        <ele>133.0</ele>
        <time>2022-02-10T08:35:27Z</time>
      </trkpt>
      <trkpt lat="47.52547" lon="1.8387609">
        <ele>132.0</ele>
        <time>2022-02-10T08:35:28Z</time>
      </trkpt>
      <trkpt lat="47.525467" lon="1.8387419">
        <ele>132.0</ele>
        <time>2022-02-10T08:35:29Z</time>
      </trkpt>
      <trkpt lat="47.525463" lon="1.838726">
        <ele>133.0</ele>
        <time>2022-02-10T08:35:30Z</time>
      </trkpt>
      <trkpt lat="47.525463" lon="1.8387117">
        <ele>132.0</ele>
        <time>2022-02-10T08:35:31Z</time>
      </trkpt>
      <trkpt lat="47.525463" lon="1.8387">
        <ele>132.0</ele>
        <time>2022-02-10T08:35:32Z</time>
      </trkpt>
      <trkpt lat="47.52546" lon="1.838687">
        <ele>132.0</ele>
        <time>2022-02-10T08:35:33Z</time>
      </trkpt>
      <trkpt lat="47.525455" lon="1.8386668">
        <ele>132.0</ele>
        <time>2022-02-10T08:35:34Z</time>
      </trkpt>
      <trkpt lat="47.525455" lon="1.8386487">
        <ele>131.0</ele>
        <time>2022-02-10T08:35:35Z</time>
      </trkpt>
      <trkpt lat="47.525448" lon="1.8386323">
        <ele>131.0</ele>
        <time>2022-02-10T08:35:36Z</time>
      </trkpt>
      <trkpt lat="47.525444" lon="1.8386165">
        <ele>131.0</ele>
        <time>2022-02-10T08:35:37Z</time>
      </trkpt>
      <trkpt lat="47.525436" lon="1.8386005">
        <ele>131.0</ele>
        <time>2022-02-10T08:35:38Z</time>
      </trkpt>
      <trkpt lat="47.525433" lon="1.8385807">
        <ele>131.0</ele>
        <time>2022-02-10T08:35:39Z</time>
      </trkpt>
      <trkpt lat="47.52543" lon="1.8385603">
        <ele>131.0</ele>
        <time>2022-02-10T08:35:40Z</time>
      </trkpt>
      <trkpt lat="47.52543" lon="1.8385407">
        <ele>132.0</ele>
        <time>2022-02-10T08:35:41Z</time>
      </trkpt>
      <trkpt lat="47.52543" lon="1.8385203">
        <ele>131.0</ele>
        <time>2022-02-10T08:35:42Z</time>
      </trkpt>
      <trkpt lat="47.525425" lon="1.8385025">
        <ele>131.0</ele>
        <time>2022-02-10T08:35:43Z</time>
      </trkpt>
      <trkpt lat="47.525425" lon="1.8384933">
        <ele>131.0</ele>
        <time>2022-02-10T08:35:44Z</time>
      </trkpt>
      <trkpt lat="47.52542" lon="1.8384771">
        <ele>131.0</ele>
        <time>2022-02-10T08:35:45Z</time>
      </trkpt>
      <trkpt lat="47.52542" lon="1.8384545">
        <ele>131.0</ele>
        <time>2022-02-10T08:35:46Z</time>
      </trkpt>
      <trkpt lat="47.525425" lon="1.8384426">
        <ele>131.0</ele>
        <time>2022-02-10T08:35:47Z</time>
      </trkpt>
      <trkpt lat="47.52543" lon="1.8384258">
        <ele>131.0</ele>
        <time>2022-02-10T08:35:48Z</time>
      </trkpt>
      <trkpt lat="47.52543" lon="1.8384079">
        <ele>131.0</ele>
        <time>2022-02-10T08:35:49Z</time>
      </trkpt>
      <trkpt lat="47.52543" lon="1.8383887">
        <ele>131.0</ele>
        <time>2022-02-10T08:35:50Z</time>
      </trkpt>
      <trkpt lat="47.525433" lon="1.8383752">
        <ele>132.0</ele>
        <time>2022-02-10T08:35:51Z</time>
      </trkpt>
      <trkpt lat="47.52544" lon="1.8383642">
        <ele>132.0</ele>
        <time>2022-02-10T08:35:52Z</time>
      </trkpt>
      <trkpt lat="47.52544" lon="1.8383527">
        <ele>132.0</ele>
        <time>2022-02-10T08:35:53Z</time>
      </trkpt>
      <trkpt lat="47.525444" lon="1.8383391">
        <ele>132.0</ele>
        <time>2022-02-10T08:35:54Z</time>
      </trkpt>
      <trkpt lat="47.525448" lon="1.8383299">
        <ele>132.0</ele>
        <time>2022-02-10T08:35:55Z</time>
      </trkpt>
      <trkpt lat="47.52545" lon="1.8383154">
        <ele>132.0</ele>
        <time>2022-02-10T08:35:56Z</time>
      </trkpt>
      <trkpt lat="47.52546" lon="1.8383048">
        <ele>132.0</ele>
        <time>2022-02-10T08:35:57Z</time>
      </trkpt>
      <trkpt lat="47.525463" lon="1.83829">
        <ele>132.0</ele>
        <time>2022-02-10T08:35:58Z</time>
      </trkpt>
      <trkpt lat="47.52547" lon="1.838278">
        <ele>132.0</ele>
        <time>2022-02-10T08:35:59Z</time>
      </trkpt>
      <trkpt lat="47.525475" lon="1.8382643">
        <ele>132.0</ele>
        <time>2022-02-10T08:36:00Z</time>
      </trkpt>
      <trkpt lat="47.525482" lon="1.8382491">
        <ele>131.0</ele>
        <time>2022-02-10T08:36:01Z</time>
      </trkpt>
      <trkpt lat="47.525486" lon="1.8382374">
        <ele>132.0</ele>
        <time>2022-02-10T08:36:02Z</time>
      </trkpt>
      <trkpt lat="47.525494" lon="1.8382254">
        <ele>132.0</ele>
        <time>2022-02-10T08:36:03Z</time>
      </trkpt>
      <trkpt lat="47.5255" lon="1.8382136">
        <ele>132.0</ele>
        <time>2022-02-10T08:36:04Z</time>
      </trkpt>
      <trkpt lat="47.52551" lon="1.8382004">
        <ele>132.0</ele>
        <time>2022-02-10T08:36:05Z</time>
      </trkpt>
      <trkpt lat="47.525517" lon="1.8381846">
        <ele>133.0</ele>
        <time>2022-02-10T08:36:06Z</time>
      </trkpt>
      <trkpt lat="47.525517" lon="1.838172">
        <ele>133.0</ele>
        <time>2022-02-10T08:36:07Z</time>
      </trkpt>
      <trkpt lat="47.52552" lon="1.8381642">
        <ele>133.0</ele>
        <time>2022-02-10T08:36:08Z</time>
      </trkpt>
      <trkpt lat="47.525524" lon="1.8381485">
        <ele>133.0</ele>
        <time>2022-02-10T08:36:09Z</time>
      </trkpt>
      <trkpt lat="47.525528" lon="1.838135">
        <ele>133.0</ele>
        <time>2022-02-10T08:36:10Z</time>
      </trkpt>
      <trkpt lat="47.52553" lon="1.838121">
        <ele>134.0</ele>
        <time>2022-02-10T08:36:11Z</time>
      </trkpt>
      <trkpt lat="47.52554" lon="1.8381058">
        <ele>134.0</ele>
        <time>2022-02-10T08:36:12Z</time>
      </trkpt>
      <trkpt lat="47.525547" lon="1.8380944">
        <ele>133.0</ele>
        <time>2022-02-10T08:36:13Z</time>
      </trkpt>
      <trkpt lat="47.525555" lon="1.8380816">
        <ele>133.0</ele>
        <time>2022-02-10T08:36:14Z</time>
      </trkpt>
      <trkpt lat="47.525562" lon="1.838066">
        <ele>133.0</ele>
        <time>2022-02-10T08:36:15Z</time>
      </trkpt>
      <trkpt lat="47.525562" lon="1.8380439">
        <ele>134.0</ele>
        <time>2022-02-10T08:36:16Z</time>
      </trkpt>
      <trkpt lat="47.52557" lon="1.8380244">
        <ele>135.0</ele>
        <time>2022-02-10T08:36:17Z</time>
      </trkpt>
      <trkpt lat="47.525574" lon="1.8380047">
        <ele>135.0</ele>
        <time>2022-02-10T08:36:18Z</time>
      </trkpt>
      <trkpt lat="47.525578" lon="1.837983">
        <ele>135.0</ele>
        <time>2022-02-10T08:36:19Z</time>
      </trkpt>
      <trkpt lat="47.525578" lon="1.837961">
        <ele>135.0</ele>
        <time>2022-02-10T08:36:20Z</time>
      </trkpt>
      <trkpt lat="47.525578" lon="1.8379422">
        <ele>136.0</ele>
        <time>2022-02-10T08:36:21Z</time>
      </trkpt>
      <trkpt lat="47.52558" lon="1.8379242">
        <ele>136.0</ele>
        <time>2022-02-10T08:36:22Z</time>
      </trkpt>
      <trkpt lat="47.52558" lon="1.8379014">
        <ele>136.0</ele>
        <time>2022-02-10T08:36:23Z</time>
      </trkpt>
      <trkpt lat="47.525585" lon="1.8378769">
        <ele>136.0</ele>
        <time>2022-02-10T08:36:24Z</time>
      </trkpt>
      <trkpt lat="47.52558" lon="1.837851">
        <ele>137.0</ele>
        <time>2022-02-10T08:36:25Z</time>
      </trkpt>
      <trkpt lat="47.525585" lon="1.8378288">
        <ele>137.0</ele>
        <time>2022-02-10T08:36:26Z</time>
      </trkpt>
      <trkpt lat="47.525585" lon="1.8378079">
        <ele>137.0</ele>
        <time>2022-02-10T08:36:27Z</time>
      </trkpt>
      <trkpt lat="47.525585" lon="1.8377843">
        <ele>138.0</ele>
        <time>2022-02-10T08:36:28Z</time>
      </trkpt>
      <trkpt lat="47.52559" lon="1.8377645">
        <ele>138.0</ele>
        <time>2022-02-10T08:36:29Z</time>
      </trkpt>
      <trkpt lat="47.525593" lon="1.837742">
        <ele>138.0</ele>
        <time>2022-02-10T08:36:30Z</time>
      </trkpt>
      <trkpt lat="47.525597" lon="1.8377279">
        <ele>138.0</ele>
        <time>2022-02-10T08:36:31Z</time>
      </trkpt>
      <trkpt lat="47.5256" lon="1.8377113">
        <ele>138.0</ele>
        <time>2022-02-10T08:36:32Z</time>
      </trkpt>
      <trkpt lat="47.5256" lon="1.8376871">
        <ele>139.0</ele>
        <time>2022-02-10T08:36:33Z</time>
      </trkpt>
      <trkpt lat="47.525604" lon="1.8376671">
        <ele>139.0</ele>
        <time>2022-02-10T08:36:34Z</time>
      </trkpt>
      <trkpt lat="47.525604" lon="1.8376479">
        <ele>139.0</ele>
        <time>2022-02-10T08:36:35Z</time>
      </trkpt>
      <trkpt lat="47.525608" lon="1.8376346">
        <ele>139.0</ele>
        <time>2022-02-10T08:36:36Z</time>
      </trkpt>
      <trkpt lat="47.525616" lon="1.837614">
        <ele>139.0</ele>
        <time>2022-02-10T08:36:37Z</time>
      </trkpt>
      <trkpt lat="47.525616" lon="1.8375959">
        <ele>139.0</ele>
        <time>2022-02-10T08:36:38Z</time>
      </trkpt>
      <trkpt lat="47.525616" lon="1.8375779">
        <ele>139.0</ele>
        <time>2022-02-10T08:36:39Z</time>
      </trkpt>
      <trkpt lat="47.525616" lon="1.8375639">
        <ele>139.0</ele>
        <time>2022-02-10T08:36:40Z</time>
      </trkpt>
      <trkpt lat="47.52562" lon="1.8375497">
        <ele>139.0</ele>
        <time>2022-02-10T08:36:41Z</time>
      </trkpt>
      <trkpt lat="47.52562" lon="1.8375344">
        <ele>140.0</ele>
        <time>2022-02-10T08:36:42Z</time>
      </trkpt>
      <trkpt lat="47.525627" lon="1.8375057">
        <ele>140.0</ele>
        <time>2022-02-10T08:36:43Z</time>
      </trkpt>
      <trkpt lat="47.525627" lon="1.8375057">
        <ele>140.0</ele>
        <time>2022-02-10T08:36:43Z</time>
      </trkpt>
      <trkpt lat="47.52564" lon="1.8374884">
        <ele>140.0</ele>
        <time>2022-02-10T08:36:45Z</time>
      </trkpt>
      <trkpt lat="47.525654" lon="1.8374702">
        <ele>139.0</ele>
        <time>2022-02-10T08:36:46Z</time>
      </trkpt>
      <trkpt lat="47.52566" lon="1.83746">
        <ele>139.0</ele>
        <time>2022-02-10T08:36:47Z</time>
      </trkpt>
      <trkpt lat="47.52567" lon="1.8374497">
        <ele>140.0</ele>
        <time>2022-02-10T08:36:48Z</time>
      </trkpt>
      <trkpt lat="47.52567" lon="1.837441">
        <ele>140.0</ele>
        <time>2022-02-10T08:36:49Z</time>
      </trkpt>
      <trkpt lat="47.525673" lon="1.8374295">
        <ele>140.0</ele>
        <time>2022-02-10T08:36:50Z</time>
      </trkpt>
      <trkpt lat="47.525677" lon="1.8374146">
        <ele>141.0</ele>
        <time>2022-02-10T08:36:51Z</time>
      </trkpt>
      <trkpt lat="47.525684" lon="1.837409">
        <ele>142.0</ele>
        <time>2022-02-10T08:36:52Z</time>
      </trkpt>
      <trkpt lat="47.525684" lon="1.837409">
        <ele>142.0</ele>
        <time>2022-02-10T08:36:52Z</time>
      </trkpt>
      <trkpt lat="47.52569" lon="1.8373953">
        <ele>142.0</ele>
        <time>2022-02-10T08:36:54Z</time>
      </trkpt>
      <trkpt lat="47.525692" lon="1.8373789">
        <ele>142.0</ele>
        <time>2022-02-10T08:36:55Z</time>
      </trkpt>
      <trkpt lat="47.525696" lon="1.8373617">
        <ele>142.0</ele>
        <time>2022-02-10T08:36:56Z</time>
      </trkpt>
      <trkpt lat="47.5257" lon="1.8373466">
        <ele>142.0</ele>
        <time>2022-02-10T08:36:57Z</time>
      </trkpt>
      <trkpt lat="47.525703" lon="1.8373269">
        <ele>142.0</ele>
        <time>2022-02-10T08:36:58Z</time>
      </trkpt>
      <trkpt lat="47.525707" lon="1.8373141">
        <ele>143.0</ele>
        <time>2022-02-10T08:36:59Z</time>
      </trkpt>
      <trkpt lat="47.52571" lon="1.8373029">
        <ele>143.0</ele>
        <time>2022-02-10T08:37:00Z</time>
      </trkpt>
      <trkpt lat="47.52571" lon="1.8372821">
        <ele>143.0</ele>
        <time>2022-02-10T08:37:01Z</time>
      </trkpt>
      <trkpt lat="47.525715" lon="1.8372636">
        <ele>143.0</ele>
        <time>2022-02-10T08:37:02Z</time>
      </trkpt>
      <trkpt lat="47.52572" lon="1.8372399">
        <ele>143.0</ele>
        <time>2022-02-10T08:37:03Z</time>
      </trkpt>
      <trkpt lat="47.525723" lon="1.8372235">
        <ele>143.0</ele>
        <time>2022-02-10T08:37:04Z</time>
      </trkpt>
      <trkpt lat="47.525726" lon="1.8372068">
        <ele>144.0</ele>
        <time>2022-02-10T08:37:05Z</time>
      </trkpt>
      <trkpt lat="47.525734" lon="1.8371903">
        <ele>144.0</ele>
        <time>2022-02-10T08:37:06Z</time>
      </trkpt>
      <trkpt lat="47.525734" lon="1.8371716">
        <ele>143.0</ele>
        <time>2022-02-10T08:37:07Z</time>
      </trkpt>
      <trkpt lat="47.525734" lon="1.8371522">
        <ele>143.0</ele>
        <time>2022-02-10T08:37:08Z</time>
      </trkpt>
      <trkpt lat="47.525738" lon="1.8371316">
        <ele>143.0</ele>
        <time>2022-02-10T08:37:09Z</time>
      </trkpt>
      <trkpt lat="47.525738" lon="1.8371136">
        <ele>143.0</ele>
        <time>2022-02-10T08:37:10Z</time>
      </trkpt>
      <trkpt lat="47.525734" lon="1.8370938">
        <ele>142.0</ele>
        <time>2022-02-10T08:37:11Z</time>
      </trkpt>
      <trkpt lat="47.525734" lon="1.8370742">
        <ele>142.0</ele>
        <time>2022-02-10T08:37:12Z</time>
      </trkpt>
      <trkpt lat="47.525734" lon="1.8370575">
        <ele>142.0</ele>
        <time>2022-02-10T08:37:13Z</time>
      </trkpt>
      <trkpt lat="47.525738" lon="1.8370413">
        <ele>142.0</ele>
        <time>2022-02-10T08:37:14Z</time>
      </trkpt>
      <trkpt lat="47.525738" lon="1.8370222">
        <ele>142.0</ele>
        <time>2022-02-10T08:37:15Z</time>
      </trkpt>
      <trkpt lat="47.525738" lon="1.8370061">
        <ele>142.0</ele>
        <time>2022-02-10T08:37:16Z</time>
      </trkpt>
      <trkpt lat="47.525734" lon="1.8369863">
        <ele>142.0</ele>
        <time>2022-02-10T08:37:17Z</time>
      </trkpt>
      <trkpt lat="47.525734" lon="1.836965">
        <ele>142.0</ele>
        <time>2022-02-10T08:37:18Z</time>
      </trkpt>
      <trkpt lat="47.525734" lon="1.8369446">
        <ele>143.0</ele>
        <time>2022-02-10T08:37:19Z</time>
      </trkpt>
      <trkpt lat="47.525738" lon="1.8369315">
        <ele>143.0</ele>
        <time>2022-02-10T08:37:20Z</time>
      </trkpt>
      <trkpt lat="47.525738" lon="1.836918">
        <ele>142.0</ele>
        <time>2022-02-10T08:37:21Z</time>
      </trkpt>
      <trkpt lat="47.525734" lon="1.8368905">
        <ele>143.0</ele>
        <time>2022-02-10T08:37:22Z</time>
      </trkpt>
      <trkpt lat="47.525734" lon="1.8368905">
        <ele>143.0</ele>
        <time>2022-02-10T08:37:22Z</time>
      </trkpt>
      <trkpt lat="47.525734" lon="1.8368827">
        <ele>143.0</ele>
        <time>2022-02-10T08:37:24Z</time>
      </trkpt>
      <trkpt lat="47.525734" lon="1.8368734">
        <ele>143.0</ele>
        <time>2022-02-10T08:37:25Z</time>
      </trkpt>
      <trkpt lat="47.52573" lon="1.836855">
        <ele>143.0</ele>
        <time>2022-02-10T08:37:26Z</time>
      </trkpt>
      <trkpt lat="47.525734" lon="1.8368475">
        <ele>143.0</ele>
        <time>2022-02-10T08:37:27Z</time>
      </trkpt>
      <trkpt lat="47.525734" lon="1.8368475">
        <ele>143.0</ele>
        <time>2022-02-10T08:37:28Z</time>
      </trkpt>
      <trkpt lat="47.525734" lon="1.8368475">
        <ele>143.0</ele>
        <time>2022-02-10T08:37:29Z</time>
      </trkpt>
      <trkpt lat="47.525734" lon="1.8368192">
        <ele>142.0</ele>
        <time>2022-02-10T08:37:30Z</time>
      </trkpt>
      <trkpt lat="47.525734" lon="1.8368067">
        <ele>142.0</ele>
        <time>2022-02-10T08:37:31Z</time>
      </trkpt>
      <trkpt lat="47.525734" lon="1.8367944">
        <ele>142.0</ele>
        <time>2022-02-10T08:37:32Z</time>
      </trkpt>
      <trkpt lat="47.525738" lon="1.8367825">
        <ele>142.0</ele>
        <time>2022-02-10T08:37:33Z</time>
      </trkpt>
      <trkpt lat="47.525738" lon="1.8367705">
        <ele>141.0</ele>
        <time>2022-02-10T08:37:34Z</time>
      </trkpt>
      <trkpt lat="47.525745" lon="1.836743">
        <ele>141.0</ele>
        <time>2022-02-10T08:37:35Z</time>
      </trkpt>
      <trkpt lat="47.525745" lon="1.836743">
        <ele>141.0</ele>
        <time>2022-02-10T08:37:35Z</time>
      </trkpt>
      <trkpt lat="47.525745" lon="1.8367308">
        <ele>141.0</ele>
        <time>2022-02-10T08:37:37Z</time>
      </trkpt>
      <trkpt lat="47.525745" lon="1.8367116">
        <ele>141.0</ele>
        <time>2022-02-10T08:37:38Z</time>
      </trkpt>
      <trkpt lat="47.525745" lon="1.8366958">
        <ele>140.0</ele>
        <time>2022-02-10T08:37:39Z</time>
      </trkpt>
      <trkpt lat="47.52574" lon="1.8366799">
        <ele>140.0</ele>
        <time>2022-02-10T08:37:40Z</time>
      </trkpt>
      <trkpt lat="47.52574" lon="1.8366634">
        <ele>140.0</ele>
        <time>2022-02-10T08:37:41Z</time>
      </trkpt>
      <trkpt lat="47.52574" lon="1.8366462">
        <ele>139.0</ele>
        <time>2022-02-10T08:37:42Z</time>
      </trkpt>
      <trkpt lat="47.52574" lon="1.8366295">
        <ele>139.0</ele>
        <time>2022-02-10T08:37:43Z</time>
      </trkpt>
      <trkpt lat="47.525745" lon="1.8366174">
        <ele>139.0</ele>
        <time>2022-02-10T08:37:44Z</time>
      </trkpt>
      <trkpt lat="47.525753" lon="1.8365945">
        <ele>139.0</ele>
        <time>2022-02-10T08:37:45Z</time>
      </trkpt>
      <trkpt lat="47.52575" lon="1.8365725">
        <ele>139.0</ele>
        <time>2022-02-10T08:37:46Z</time>
      </trkpt>
      <trkpt lat="47.52575" lon="1.8365519">
        <ele>139.0</ele>
        <time>2022-02-10T08:37:47Z</time>
      </trkpt>
      <trkpt lat="47.52575" lon="1.8365519">
        <ele>139.0</ele>
        <time>2022-02-10T08:37:47Z</time>
      </trkpt>
      <trkpt lat="47.525745" lon="1.8365113">
        <ele>139.0</ele>
        <time>2022-02-10T08:37:49Z</time>
      </trkpt>
      <trkpt lat="47.525745" lon="1.8365113">
        <ele>139.0</ele>
        <time>2022-02-10T08:37:49Z</time>
      </trkpt>
      <trkpt lat="47.525745" lon="1.8364948">
        <ele>139.0</ele>
        <time>2022-02-10T08:37:51Z</time>
      </trkpt>
      <trkpt lat="47.52574" lon="1.8364818">
        <ele>140.0</ele>
        <time>2022-02-10T08:37:52Z</time>
      </trkpt>
      <trkpt lat="47.52575" lon="1.8364582">
        <ele>140.0</ele>
        <time>2022-02-10T08:37:53Z</time>
      </trkpt>
      <trkpt lat="47.52575" lon="1.8364582">
        <ele>140.0</ele>
        <time>2022-02-10T08:37:53Z</time>
      </trkpt>
      <trkpt lat="47.52575" lon="1.8364439">
        <ele>141.0</ele>
        <time>2022-02-10T08:37:55Z</time>
      </trkpt>
      <trkpt lat="47.52575" lon="1.8364439">
        <ele>141.0</ele>
        <time>2022-02-10T08:37:56Z</time>
      </trkpt>
      <trkpt lat="47.52575" lon="1.8364439">
        <ele>141.0</ele>
        <time>2022-02-10T08:37:56Z</time>
      </trkpt>
      <trkpt lat="47.525753" lon="1.8364133">
        <ele>141.0</ele>
        <time>2022-02-10T08:37:58Z</time>
      </trkpt>
      <trkpt lat="47.52575" lon="1.8363994">
        <ele>141.0</ele>
        <time>2022-02-10T08:37:59Z</time>
      </trkpt>
      <trkpt lat="47.525753" lon="1.8363861">
        <ele>140.0</ele>
        <time>2022-02-10T08:38:00Z</time>
      </trkpt>
      <trkpt lat="47.525753" lon="1.8363779">
        <ele>141.0</ele>
        <time>2022-02-10T08:38:01Z</time>
      </trkpt>
      <trkpt lat="47.525753" lon="1.8363566">
        <ele>141.0</ele>
        <time>2022-02-10T08:38:02Z</time>
      </trkpt>
      <trkpt lat="47.525757" lon="1.8363392">
        <ele>141.0</ele>
        <time>2022-02-10T08:38:03Z</time>
      </trkpt>
      <trkpt lat="47.525757" lon="1.8363283">
        <ele>141.0</ele>
        <time>2022-02-10T08:38:04Z</time>
      </trkpt>
      <trkpt lat="47.525757" lon="1.8363136">
        <ele>141.0</ele>
        <time>2022-02-10T08:38:05Z</time>
      </trkpt>
      <trkpt lat="47.525757" lon="1.8362992">
        <ele>141.0</ele>
        <time>2022-02-10T08:38:06Z</time>
      </trkpt>
      <trkpt lat="47.52576" lon="1.8362827">
        <ele>141.0</ele>
        <time>2022-02-10T08:38:07Z</time>
      </trkpt>
      <trkpt lat="47.52576" lon="1.836267">
        <ele>142.0</ele>
        <time>2022-02-10T08:38:08Z</time>
      </trkpt>
      <trkpt lat="47.525764" lon="1.8362448">
        <ele>141.0</ele>
        <time>2022-02-10T08:38:09Z</time>
      </trkpt>
      <trkpt lat="47.525764" lon="1.836222">
        <ele>141.0</ele>
        <time>2022-02-10T08:38:10Z</time>
      </trkpt>
      <trkpt lat="47.525764" lon="1.836222">
        <ele>141.0</ele>
        <time>2022-02-10T08:38:10Z</time>
      </trkpt>
      <trkpt lat="47.525764" lon="1.8361834">
        <ele>141.0</ele>
        <time>2022-02-10T08:38:12Z</time>
      </trkpt>
      <trkpt lat="47.52576" lon="1.8361626">
        <ele>141.0</ele>
        <time>2022-02-10T08:38:13Z</time>
      </trkpt>
      <trkpt lat="47.525757" lon="1.8361424">
        <ele>142.0</ele>
        <time>2022-02-10T08:38:14Z</time>
      </trkpt>
      <trkpt lat="47.525753" lon="1.8361237">
        <ele>142.0</ele>
        <time>2022-02-10T08:38:15Z</time>
      </trkpt>
      <trkpt lat="47.525753" lon="1.836105">
        <ele>142.0</ele>
        <time>2022-02-10T08:38:16Z</time>
      </trkpt>
      <trkpt lat="47.52575" lon="1.8360873">
        <ele>141.0</ele>
        <time>2022-02-10T08:38:17Z</time>
      </trkpt>
      <trkpt lat="47.52575" lon="1.8360723">
        <ele>141.0</ele>
        <time>2022-02-10T08:38:18Z</time>
      </trkpt>
      <trkpt lat="47.52575" lon="1.8360606">
        <ele>141.0</ele>
        <time>2022-02-10T08:38:19Z</time>
      </trkpt>
      <trkpt lat="47.525745" lon="1.8360465">
        <ele>141.0</ele>
        <time>2022-02-10T08:38:20Z</time>
      </trkpt>
      <trkpt lat="47.525745" lon="1.8360271">
        <ele>141.0</ele>
        <time>2022-02-10T08:38:21Z</time>
      </trkpt>
      <trkpt lat="47.525745" lon="1.8360147">
        <ele>142.0</ele>
        <time>2022-02-10T08:38:22Z</time>
      </trkpt>
      <trkpt lat="47.52574" lon="1.835998">
        <ele>142.0</ele>
        <time>2022-02-10T08:38:23Z</time>
      </trkpt>
      <trkpt lat="47.52574" lon="1.8359871">
        <ele>141.0</ele>
        <time>2022-02-10T08:38:24Z</time>
      </trkpt>
      <trkpt lat="47.52574" lon="1.8359734">
        <ele>141.0</ele>
        <time>2022-02-10T08:38:25Z</time>
      </trkpt>
      <trkpt lat="47.52574" lon="1.8359598">
        <ele>141.0</ele>
        <time>2022-02-10T08:38:26Z</time>
      </trkpt>
      <trkpt lat="47.52574" lon="1.8359456">
        <ele>141.0</ele>
        <time>2022-02-10T08:38:27Z</time>
      </trkpt>
      <trkpt lat="47.525738" lon="1.8359326">
        <ele>141.0</ele>
        <time>2022-02-10T08:38:28Z</time>
      </trkpt>
      <trkpt lat="47.525738" lon="1.8359144">
        <ele>141.0</ele>
        <time>2022-02-10T08:38:29Z</time>
      </trkpt>
      <trkpt lat="47.525738" lon="1.8359144">
        <ele>141.0</ele>
        <time>2022-02-10T08:38:30Z</time>
      </trkpt>
      <trkpt lat="47.525738" lon="1.835879">
        <ele>141.0</ele>
        <time>2022-02-10T08:38:31Z</time>
      </trkpt>
      <trkpt lat="47.525738" lon="1.8358545">
        <ele>141.0</ele>
        <time>2022-02-10T08:38:32Z</time>
      </trkpt>
      <trkpt lat="47.525734" lon="1.8358357">
        <ele>141.0</ele>
        <time>2022-02-10T08:38:33Z</time>
      </trkpt>
      <trkpt lat="47.525734" lon="1.8358155">
        <ele>142.0</ele>
        <time>2022-02-10T08:38:34Z</time>
      </trkpt>
      <trkpt lat="47.525734" lon="1.8357991">
        <ele>142.0</ele>
        <time>2022-02-10T08:38:35Z</time>
      </trkpt>
      <trkpt lat="47.525734" lon="1.835785">
        <ele>142.0</ele>
        <time>2022-02-10T08:38:36Z</time>
      </trkpt>
      <trkpt lat="47.525734" lon="1.8357695">
        <ele>141.0</ele>
        <time>2022-02-10T08:38:37Z</time>
      </trkpt>
      <trkpt lat="47.525734" lon="1.8357526">
        <ele>141.0</ele>
        <time>2022-02-10T08:38:38Z</time>
      </trkpt>
      <trkpt lat="47.52573" lon="1.8357342">
        <ele>142.0</ele>
        <time>2022-02-10T08:38:39Z</time>
      </trkpt>
      <trkpt lat="47.52573" lon="1.8357108">
        <ele>142.0</ele>
        <time>2022-02-10T08:38:40Z</time>
      </trkpt>
      <trkpt lat="47.52573" lon="1.8356895">
        <ele>142.0</ele>
        <time>2022-02-10T08:38:41Z</time>
      </trkpt>
      <trkpt lat="47.52573" lon="1.8356731">
        <ele>142.0</ele>
        <time>2022-02-10T08:38:43Z</time>
      </trkpt>
      <trkpt lat="47.525726" lon="1.8356543">
        <ele>142.0</ele>
        <time>2022-02-10T08:38:44Z</time>
      </trkpt>
      <trkpt lat="47.525723" lon="1.8356396">
        <ele>142.0</ele>
        <time>2022-02-10T08:38:45Z</time>
      </trkpt>
      <trkpt lat="47.525723" lon="1.8356396">
        <ele>142.0</ele>
        <time>2022-02-10T08:38:46Z</time>
      </trkpt>
      <trkpt lat="47.525723" lon="1.8356396">
        <ele>142.0</ele>
        <time>2022-02-10T08:38:47Z</time>
      </trkpt>
      <trkpt lat="47.52573" lon="1.8355933">
        <ele>143.0</ele>
        <time>2022-02-10T08:38:48Z</time>
      </trkpt>
      <trkpt lat="47.52573" lon="1.8355838">
        <ele>143.0</ele>
        <time>2022-02-10T08:38:49Z</time>
      </trkpt>
      <trkpt lat="47.52573" lon="1.8355715">
        <ele>143.0</ele>
        <time>2022-02-10T08:38:50Z</time>
      </trkpt>
      <trkpt lat="47.52573" lon="1.8355505">
        <ele>143.0</ele>
        <time>2022-02-10T08:38:51Z</time>
      </trkpt>
      <trkpt lat="47.52573" lon="1.8355249">
        <ele>143.0</ele>
        <time>2022-02-10T08:38:52Z</time>
      </trkpt>
      <trkpt lat="47.52573" lon="1.8355063">
        <ele>143.0</ele>
        <time>2022-02-10T08:38:53Z</time>
      </trkpt>
      <trkpt lat="47.525726" lon="1.8354872">
        <ele>143.0</ele>
        <time>2022-02-10T08:38:54Z</time>
      </trkpt>
      <trkpt lat="47.52573" lon="1.8354673">
        <ele>144.0</ele>
        <time>2022-02-10T08:38:55Z</time>
      </trkpt>
      <trkpt lat="47.525723" lon="1.8354466">
        <ele>144.0</ele>
        <time>2022-02-10T08:38:56Z</time>
      </trkpt>
      <trkpt lat="47.52572" lon="1.835428">
        <ele>144.0</ele>
        <time>2022-02-10T08:38:57Z</time>
      </trkpt>
      <trkpt lat="47.52572" lon="1.8354132">
        <ele>144.0</ele>
        <time>2022-02-10T08:38:58Z</time>
      </trkpt>
      <trkpt lat="47.525715" lon="1.8354021">
        <ele>144.0</ele>
        <time>2022-02-10T08:38:59Z</time>
      </trkpt>
      <trkpt lat="47.525715" lon="1.8353894">
        <ele>144.0</ele>
        <time>2022-02-10T08:39:00Z</time>
      </trkpt>
      <trkpt lat="47.525715" lon="1.8353815">
        <ele>143.0</ele>
        <time>2022-02-10T08:39:01Z</time>
      </trkpt>
      <trkpt lat="47.525707" lon="1.8353629">
        <ele>143.0</ele>
        <time>2022-02-10T08:39:02Z</time>
      </trkpt>
      <trkpt lat="47.525707" lon="1.8353629">
        <ele>143.0</ele>
        <time>2022-02-10T08:39:03Z</time>
      </trkpt>
      <trkpt lat="47.525707" lon="1.8353629">
        <ele>143.0</ele>
        <time>2022-02-10T08:39:04Z</time>
      </trkpt>
      <trkpt lat="47.525703" lon="1.8353179">
        <ele>143.0</ele>
        <time>2022-02-10T08:39:05Z</time>
      </trkpt>
      <trkpt lat="47.5257" lon="1.8352957">
        <ele>143.0</ele>
        <time>2022-02-10T08:39:06Z</time>
      </trkpt>
      <trkpt lat="47.5257" lon="1.8352723">
        <ele>143.0</ele>
        <time>2022-02-10T08:39:07Z</time>
      </trkpt>
      <trkpt lat="47.5257" lon="1.8352599">
        <ele>143.0</ele>
        <time>2022-02-10T08:39:08Z</time>
      </trkpt>
      <trkpt lat="47.525703" lon="1.8352492">
        <ele>143.0</ele>
        <time>2022-02-10T08:39:09Z</time>
      </trkpt>
      <trkpt lat="47.525703" lon="1.8352337">
        <ele>142.0</ele>
        <time>2022-02-10T08:39:10Z</time>
      </trkpt>
      <trkpt lat="47.525703" lon="1.8352176">
        <ele>142.0</ele>
        <time>2022-02-10T08:39:11Z</time>
      </trkpt>
      <trkpt lat="47.52571" lon="1.8352042">
        <ele>142.0</ele>
        <time>2022-02-10T08:39:12Z</time>
      </trkpt>
      <trkpt lat="47.52572" lon="1.8351893">
        <ele>142.0</ele>
        <time>2022-02-10T08:39:13Z</time>
      </trkpt>
      <trkpt lat="47.525726" lon="1.8351759">
        <ele>142.0</ele>
        <time>2022-02-10T08:39:14Z</time>
      </trkpt>
      <trkpt lat="47.52573" lon="1.8351573">
        <ele>141.0</ele>
        <time>2022-02-10T08:39:15Z</time>
      </trkpt>
      <trkpt lat="47.525734" lon="1.8351424">
        <ele>141.0</ele>
        <time>2022-02-10T08:39:16Z</time>
      </trkpt>
      <trkpt lat="47.52574" lon="1.8351296">
        <ele>141.0</ele>
        <time>2022-02-10T08:39:17Z</time>
      </trkpt>
      <trkpt lat="47.525745" lon="1.8351129">
        <ele>141.0</ele>
        <time>2022-02-10T08:39:18Z</time>
      </trkpt>
      <trkpt lat="47.52575" lon="1.8350972">
        <ele>140.0</ele>
        <time>2022-02-10T08:39:19Z</time>
      </trkpt>
      <trkpt lat="47.52575" lon="1.8350809">
        <ele>141.0</ele>
        <time>2022-02-10T08:39:20Z</time>
      </trkpt>
      <trkpt lat="47.52575" lon="1.8350667">
        <ele>141.0</ele>
        <time>2022-02-10T08:39:21Z</time>
      </trkpt>
      <trkpt lat="47.525745" lon="1.8350561">
        <ele>142.0</ele>
        <time>2022-02-10T08:39:22Z</time>
      </trkpt>
      <trkpt lat="47.525745" lon="1.8350455">
        <ele>142.0</ele>
        <time>2022-02-10T08:39:23Z</time>
      </trkpt>
      <trkpt lat="47.52574" lon="1.835021">
        <ele>143.0</ele>
        <time>2022-02-10T08:39:24Z</time>
      </trkpt>
      <trkpt lat="47.525745" lon="1.835004">
        <ele>142.0</ele>
        <time>2022-02-10T08:39:25Z</time>
      </trkpt>
      <trkpt lat="47.525745" lon="1.8349874">
        <ele>142.0</ele>
        <time>2022-02-10T08:39:26Z</time>
      </trkpt>
      <trkpt lat="47.52575" lon="1.8349744">
        <ele>142.0</ele>
        <time>2022-02-10T08:39:27Z</time>
      </trkpt>
      <trkpt lat="47.52575" lon="1.834959">
        <ele>142.0</ele>
        <time>2022-02-10T08:39:28Z</time>
      </trkpt>
      <trkpt lat="47.525753" lon="1.8349422">
        <ele>142.0</ele>
        <time>2022-02-10T08:39:29Z</time>
      </trkpt>
      <trkpt lat="47.525753" lon="1.8349271">
        <ele>142.0</ele>
        <time>2022-02-10T08:39:30Z</time>
      </trkpt>
      <trkpt lat="47.525753" lon="1.834906">
        <ele>141.0</ele>
        <time>2022-02-10T08:39:31Z</time>
      </trkpt>
      <trkpt lat="47.525757" lon="1.8348871">
        <ele>141.0</ele>
        <time>2022-02-10T08:39:32Z</time>
      </trkpt>
      <trkpt lat="47.525757" lon="1.8348753">
        <ele>141.0</ele>
        <time>2022-02-10T08:39:33Z</time>
      </trkpt>
      <trkpt lat="47.52576" lon="1.834864">
        <ele>140.0</ele>
        <time>2022-02-10T08:39:34Z</time>
      </trkpt>
      <trkpt lat="47.525764" lon="1.8348517">
        <ele>140.0</ele>
        <time>2022-02-10T08:39:35Z</time>
      </trkpt>
      <trkpt lat="47.525764" lon="1.8348517">
        <ele>140.0</ele>
        <time>2022-02-10T08:39:36Z</time>
      </trkpt>
      <trkpt lat="47.525764" lon="1.8348517">
        <ele>140.0</ele>
        <time>2022-02-10T08:39:37Z</time>
      </trkpt>
      <trkpt lat="47.525776" lon="1.8348064">
        <ele>139.0</ele>
        <time>2022-02-10T08:39:38Z</time>
      </trkpt>
      <trkpt lat="47.525776" lon="1.834794">
        <ele>139.0</ele>
        <time>2022-02-10T08:39:39Z</time>
      </trkpt>
      <trkpt lat="47.525776" lon="1.834782">
        <ele>140.0</ele>
        <time>2022-02-10T08:39:40Z</time>
      </trkpt>
      <trkpt lat="47.525776" lon="1.8347722">
        <ele>140.0</ele>
        <time>2022-02-10T08:39:41Z</time>
      </trkpt>
      <trkpt lat="47.525776" lon="1.8347652">
        <ele>139.0</ele>
        <time>2022-02-10T08:39:42Z</time>
      </trkpt>
      <trkpt lat="47.525776" lon="1.8347652">
        <ele>139.0</ele>
        <time>2022-02-10T08:39:43Z</time>
      </trkpt>
      <trkpt lat="47.525776" lon="1.8347652">
        <ele>139.0</ele>
        <time>2022-02-10T08:39:44Z</time>
      </trkpt>
      <trkpt lat="47.525784" lon="1.834722">
        <ele>139.0</ele>
        <time>2022-02-10T08:39:45Z</time>
      </trkpt>
      <trkpt lat="47.52579" lon="1.8347093">
        <ele>139.0</ele>
        <time>2022-02-10T08:39:46Z</time>
      </trkpt>
      <trkpt lat="47.52579" lon="1.8346993">
        <ele>139.0</ele>
        <time>2022-02-10T08:39:47Z</time>
      </trkpt>
      <trkpt lat="47.52579" lon="1.8346822">
        <ele>138.0</ele>
        <time>2022-02-10T08:39:48Z</time>
      </trkpt>
      <trkpt lat="47.52579" lon="1.834667">
        <ele>138.0</ele>
        <time>2022-02-10T08:39:49Z</time>
      </trkpt>
      <trkpt lat="47.525795" lon="1.8346499">
        <ele>138.0</ele>
        <time>2022-02-10T08:39:50Z</time>
      </trkpt>
      <trkpt lat="47.5258" lon="1.8346336">
        <ele>138.0</ele>
        <time>2022-02-10T08:39:51Z</time>
      </trkpt>
      <trkpt lat="47.525803" lon="1.8346162">
        <ele>139.0</ele>
        <time>2022-02-10T08:39:52Z</time>
      </trkpt>
      <trkpt lat="47.525803" lon="1.8345966">
        <ele>139.0</ele>
        <time>2022-02-10T08:39:53Z</time>
      </trkpt>
      <trkpt lat="47.525803" lon="1.8345855">
        <ele>139.0</ele>
        <time>2022-02-10T08:39:54Z</time>
      </trkpt>
      <trkpt lat="47.525803" lon="1.8345733">
        <ele>139.0</ele>
        <time>2022-02-10T08:39:55Z</time>
      </trkpt>
      <trkpt lat="47.525803" lon="1.8345559">
        <ele>139.0</ele>
        <time>2022-02-10T08:39:56Z</time>
      </trkpt>
      <trkpt lat="47.525806" lon="1.8345406">
        <ele>139.0</ele>
        <time>2022-02-10T08:39:57Z</time>
      </trkpt>
      <trkpt lat="47.525806" lon="1.8345286">
        <ele>139.0</ele>
        <time>2022-02-10T08:39:58Z</time>
      </trkpt>
      <trkpt lat="47.525806" lon="1.8345182">
        <ele>139.0</ele>
        <time>2022-02-10T08:39:59Z</time>
      </trkpt>
      <trkpt lat="47.525806" lon="1.8345004">
        <ele>139.0</ele>
        <time>2022-02-10T08:40:00Z</time>
      </trkpt>
      <trkpt lat="47.52581" lon="1.8344831">
        <ele>139.0</ele>
        <time>2022-02-10T08:40:01Z</time>
      </trkpt>
      <trkpt lat="47.525814" lon="1.8344727">
        <ele>139.0</ele>
        <time>2022-02-10T08:40:02Z</time>
      </trkpt>
      <trkpt lat="47.525814" lon="1.8344635">
        <ele>139.0</ele>
        <time>2022-02-10T08:40:03Z</time>
      </trkpt>
      <trkpt lat="47.525814" lon="1.8344524">
        <ele>138.0</ele>
        <time>2022-02-10T08:40:04Z</time>
      </trkpt>
      <trkpt lat="47.525818" lon="1.8344319">
        <ele>138.0</ele>
        <time>2022-02-10T08:40:05Z</time>
      </trkpt>
      <trkpt lat="47.525818" lon="1.8344097">
        <ele>138.0</ele>
        <time>2022-02-10T08:40:06Z</time>
      </trkpt>
      <trkpt lat="47.52582" lon="1.8343898">
        <ele>138.0</ele>
        <time>2022-02-10T08:40:07Z</time>
      </trkpt>
      <trkpt lat="47.525826" lon="1.8343756">
        <ele>138.0</ele>
        <time>2022-02-10T08:40:08Z</time>
      </trkpt>
      <trkpt lat="47.525826" lon="1.834355">
        <ele>139.0</ele>
        <time>2022-02-10T08:40:09Z</time>
      </trkpt>
      <trkpt lat="47.52582" lon="1.8343343">
        <ele>140.0</ele>
        <time>2022-02-10T08:40:10Z</time>
      </trkpt>
      <trkpt lat="47.525826" lon="1.8343128">
        <ele>140.0</ele>
        <time>2022-02-10T08:40:11Z</time>
      </trkpt>
      <trkpt lat="47.525826" lon="1.8342948">
        <ele>140.0</ele>
        <time>2022-02-10T08:40:12Z</time>
      </trkpt>
      <trkpt lat="47.525826" lon="1.834277">
        <ele>141.0</ele>
        <time>2022-02-10T08:40:13Z</time>
      </trkpt>
      <trkpt lat="47.52583" lon="1.8342665">
        <ele>141.0</ele>
        <time>2022-02-10T08:40:14Z</time>
      </trkpt>
      <trkpt lat="47.52583" lon="1.8342524">
        <ele>141.0</ele>
        <time>2022-02-10T08:40:15Z</time>
      </trkpt>
      <trkpt lat="47.52583" lon="1.8342385">
        <ele>142.0</ele>
        <time>2022-02-10T08:40:16Z</time>
      </trkpt>
      <trkpt lat="47.52583" lon="1.8342385">
        <ele>142.0</ele>
        <time>2022-02-10T08:40:17Z</time>
      </trkpt>
      <trkpt lat="47.52583" lon="1.8342385">
        <ele>142.0</ele>
        <time>2022-02-10T08:40:18Z</time>
      </trkpt>
      <trkpt lat="47.52583" lon="1.8342047">
        <ele>142.0</ele>
        <time>2022-02-10T08:40:19Z</time>
      </trkpt>
      <trkpt lat="47.52583" lon="1.8341873">
        <ele>142.0</ele>
        <time>2022-02-10T08:40:20Z</time>
      </trkpt>
      <trkpt lat="47.525833" lon="1.8341707">
        <ele>142.0</ele>
        <time>2022-02-10T08:40:21Z</time>
      </trkpt>
      <trkpt lat="47.52583" lon="1.8341506">
        <ele>142.0</ele>
        <time>2022-02-10T08:40:22Z</time>
      </trkpt>
      <trkpt lat="47.525826" lon="1.8341289">
        <ele>142.0</ele>
        <time>2022-02-10T08:40:23Z</time>
      </trkpt>
      <trkpt lat="47.525826" lon="1.8341048">
        <ele>142.0</ele>
        <time>2022-02-10T08:40:24Z</time>
      </trkpt>
      <trkpt lat="47.52583" lon="1.834086">
        <ele>143.0</ele>
        <time>2022-02-10T08:40:25Z</time>
      </trkpt>
      <trkpt lat="47.525833" lon="1.8340756">
        <ele>144.0</ele>
        <time>2022-02-10T08:40:26Z</time>
      </trkpt>
      <trkpt lat="47.525837" lon="1.8340607">
        <ele>144.0</ele>
        <time>2022-02-10T08:40:27Z</time>
      </trkpt>
      <trkpt lat="47.52584" lon="1.8340507">
        <ele>145.0</ele>
        <time>2022-02-10T08:40:28Z</time>
      </trkpt>
      <trkpt lat="47.52584" lon="1.8340507">
        <ele>145.0</ele>
        <time>2022-02-10T08:40:28Z</time>
      </trkpt>
    </trkseg>
    <trkseg>
      <trkpt lat="47.52584" lon="1.8340507">
        <ele>145.0</ele>
        <time>2022-02-10T08:40:28Z</time>
      </trkpt>
      <trkpt lat="47.525818" lon="1.83399">
        <ele>146.0</ele>
        <time>2022-02-10T08:40:36Z</time>
      </trkpt>
      <trkpt lat="47.525814" lon="1.8339665">
        <ele>146.0</ele>
        <time>2022-02-10T08:40:37Z</time>
      </trkpt>
      <trkpt lat="47.525814" lon="1.8339603">
        <ele>146.0</ele>
        <time>2022-02-10T08:40:38Z</time>
      </trkpt>
      <trkpt lat="47.525818" lon="1.8339561">
        <ele>146.0</ele>
        <time>2022-02-10T08:40:39Z</time>
      </trkpt>
      <trkpt lat="47.525814" lon="1.833944">
        <ele>146.0</ele>
        <time>2022-02-10T08:40:40Z</time>
      </trkpt>
      <trkpt lat="47.525814" lon="1.8339255">
        <ele>146.0</ele>
        <time>2022-02-10T08:40:41Z</time>
      </trkpt>
      <trkpt lat="47.525818" lon="1.8339102">
        <ele>146.0</ele>
        <time>2022-02-10T08:40:42Z</time>
      </trkpt>
      <trkpt lat="47.525826" lon="1.833896">
        <ele>146.0</ele>
        <time>2022-02-10T08:40:43Z</time>
      </trkpt>
      <trkpt lat="47.525826" lon="1.8338886">
        <ele>146.0</ele>
        <time>2022-02-10T08:40:44Z</time>
      </trkpt>
      <trkpt lat="47.525826" lon="1.8338886">
        <ele>146.0</ele>
        <time>2022-02-10T08:40:45Z</time>
      </trkpt>
      <trkpt lat="47.525826" lon="1.8338886">
        <ele>146.0</ele>
        <time>2022-02-10T08:40:46Z</time>
      </trkpt>
      <trkpt lat="47.525833" lon="1.8338593">
        <ele>146.0</ele>
        <time>2022-02-10T08:40:47Z</time>
      </trkpt>
      <trkpt lat="47.525837" lon="1.8338423">
        <ele>146.0</ele>
        <time>2022-02-10T08:40:48Z</time>
      </trkpt>
      <trkpt lat="47.525837" lon="1.8338289">
        <ele>146.0</ele>
        <time>2022-02-10T08:40:49Z</time>
      </trkpt>
      <trkpt lat="47.52584" lon="1.8338146">
        <ele>145.0</ele>
        <time>2022-02-10T08:40:50Z</time>
      </trkpt>
      <trkpt lat="47.52584" lon="1.8338146">
        <ele>145.0</ele>
        <time>2022-02-10T08:40:51Z</time>
      </trkpt>
      <trkpt lat="47.525845" lon="1.8337965">
        <ele>145.0</ele>
        <time>2022-02-10T08:40:52Z</time>
      </trkpt>
      <trkpt lat="47.52585" lon="1.8337806">
        <ele>145.0</ele>
        <time>2022-02-10T08:40:53Z</time>
      </trkpt>
      <trkpt lat="47.525852" lon="1.8337657">
        <ele>145.0</ele>
        <time>2022-02-10T08:40:54Z</time>
      </trkpt>
      <trkpt lat="47.525856" lon="1.833748">
        <ele>144.0</ele>
        <time>2022-02-10T08:40:55Z</time>
      </trkpt>
      <trkpt lat="47.52586" lon="1.83374">
        <ele>144.0</ele>
        <time>2022-02-10T08:40:56Z</time>
      </trkpt>
      <trkpt lat="47.525856" lon="1.8337282">
        <ele>143.0</ele>
        <time>2022-02-10T08:40:57Z</time>
      </trkpt>
      <trkpt lat="47.52586" lon="1.8337172">
        <ele>143.0</ele>
        <time>2022-02-10T08:40:58Z</time>
      </trkpt>
      <trkpt lat="47.52586" lon="1.8337172">
        <ele>143.0</ele>
        <time>2022-02-10T08:40:59Z</time>
      </trkpt>
      <trkpt lat="47.52586" lon="1.8337172">
        <ele>143.0</ele>
        <time>2022-02-10T08:41:00Z</time>
      </trkpt>
      <trkpt lat="47.525864" lon="1.8336881">
        <ele>143.0</ele>
        <time>2022-02-10T08:41:01Z</time>
      </trkpt>
      <trkpt lat="47.525864" lon="1.8336806">
        <ele>143.0</ele>
        <time>2022-02-10T08:41:02Z</time>
      </trkpt>
      <trkpt lat="47.525864" lon="1.8336707">
        <ele>143.0</ele>
        <time>2022-02-10T08:41:03Z</time>
      </trkpt>
      <trkpt lat="47.525864" lon="1.8336582">
        <ele>142.0</ele>
        <time>2022-02-10T08:41:04Z</time>
      </trkpt>
      <trkpt lat="47.52586" lon="1.8336415">
        <ele>142.0</ele>
        <time>2022-02-10T08:41:05Z</time>
      </trkpt>
      <trkpt lat="47.525856" lon="1.8336184">
        <ele>142.0</ele>
        <time>2022-02-10T08:41:06Z</time>
      </trkpt>
      <trkpt lat="47.525856" lon="1.8335994">
        <ele>142.0</ele>
        <time>2022-02-10T08:41:07Z</time>
      </trkpt>
      <trkpt lat="47.525856" lon="1.8335769">
        <ele>143.0</ele>
        <time>2022-02-10T08:41:08Z</time>
      </trkpt>
      <trkpt lat="47.52586" lon="1.8335594">
        <ele>143.0</ele>
        <time>2022-02-10T08:41:09Z</time>
      </trkpt>
      <trkpt lat="47.52586" lon="1.8335594">
        <ele>143.0</ele>
        <time>2022-02-10T08:41:10Z</time>
      </trkpt>
      <trkpt lat="47.52586" lon="1.8335594">
        <ele>143.0</ele>
        <time>2022-02-10T08:41:11Z</time>
      </trkpt>
      <trkpt lat="47.525867" lon="1.8335246">
        <ele>143.0</ele>
        <time>2022-02-10T08:41:12Z</time>
      </trkpt>
      <trkpt lat="47.52587" lon="1.8335106">
        <ele>143.0</ele>
        <time>2022-02-10T08:41:13Z</time>
      </trkpt>
      <trkpt lat="47.525875" lon="1.8334996">
        <ele>143.0</ele>
        <time>2022-02-10T08:41:14Z</time>
      </trkpt>
      <trkpt lat="47.52588" lon="1.8334883">
        <ele>143.0</ele>
        <time>2022-02-10T08:41:15Z</time>
      </trkpt>
      <trkpt lat="47.52588" lon="1.8334883">
        <ele>143.0</ele>
        <time>2022-02-10T08:41:16Z</time>
      </trkpt>
      <trkpt lat="47.525894" lon="1.8334597">
        <ele>143.0</ele>
        <time>2022-02-10T08:41:17Z</time>
      </trkpt>
      <trkpt lat="47.5259" lon="1.8334402">
        <ele>143.0</ele>
        <time>2022-02-10T08:41:18Z</time>
      </trkpt>
      <trkpt lat="47.5259" lon="1.8334193">
        <ele>143.0</ele>
        <time>2022-02-10T08:41:19Z</time>
      </trkpt>
      <trkpt lat="47.5259" lon="1.8334041">
        <ele>143.0</ele>
        <time>2022-02-10T08:41:20Z</time>
      </trkpt>
      <trkpt lat="47.525906" lon="1.8333857">
        <ele>143.0</ele>
        <time>2022-02-10T08:41:21Z</time>
      </trkpt>
      <trkpt lat="47.5259" lon="1.8333662">
        <ele>143.0</ele>
        <time>2022-02-10T08:41:22Z</time>
      </trkpt>
      <trkpt lat="47.5259" lon="1.8333586">
        <ele>144.0</ele>
        <time>2022-02-10T08:41:23Z</time>
      </trkpt>
      <trkpt lat="47.525906" lon="1.833349">
        <ele>144.0</ele>
        <time>2022-02-10T08:41:24Z</time>
      </trkpt>
      <trkpt lat="47.52591" lon="1.8333365">
        <ele>144.0</ele>
        <time>2022-02-10T08:41:25Z</time>
      </trkpt>
      <trkpt lat="47.52591" lon="1.8333223">
        <ele>144.0</ele>
        <time>2022-02-10T08:41:26Z</time>
      </trkpt>
      <trkpt lat="47.52591" lon="1.8333223">
        <ele>144.0</ele>
        <time>2022-02-10T08:41:27Z</time>
      </trkpt>
      <trkpt lat="47.52591" lon="1.8333223">
        <ele>144.0</ele>
        <time>2022-02-10T08:41:28Z</time>
      </trkpt>
      <trkpt lat="47.525913" lon="1.8332821">
        <ele>144.0</ele>
        <time>2022-02-10T08:41:29Z</time>
      </trkpt>
      <trkpt lat="47.525917" lon="1.8332635">
        <ele>144.0</ele>
        <time>2022-02-10T08:41:30Z</time>
      </trkpt>
      <trkpt lat="47.52592" lon="1.8332471">
        <ele>144.0</ele>
        <time>2022-02-10T08:41:31Z</time>
      </trkpt>
      <trkpt lat="47.525925" lon="1.8332328">
        <ele>144.0</ele>
        <time>2022-02-10T08:41:32Z</time>
      </trkpt>
      <trkpt lat="47.525925" lon="1.8332328">
        <ele>144.0</ele>
        <time>2022-02-10T08:41:33Z</time>
      </trkpt>
      <trkpt lat="47.525925" lon="1.8332328">
        <ele>144.0</ele>
        <time>2022-02-10T08:41:34Z</time>
      </trkpt>
      <trkpt lat="47.525932" lon="1.8331934">
        <ele>143.0</ele>
        <time>2022-02-10T08:41:35Z</time>
      </trkpt>
      <trkpt lat="47.525936" lon="1.8331817">
        <ele>143.0</ele>
        <time>2022-02-10T08:41:36Z</time>
      </trkpt>
      <trkpt lat="47.52594" lon="1.8331637">
        <ele>143.0</ele>
        <time>2022-02-10T08:41:37Z</time>
      </trkpt>
      <trkpt lat="47.525948" lon="1.8331504">
        <ele>143.0</ele>
        <time>2022-02-10T08:41:38Z</time>
      </trkpt>
      <trkpt lat="47.525948" lon="1.8331332">
        <ele>143.0</ele>
        <time>2022-02-10T08:41:39Z</time>
      </trkpt>
      <trkpt lat="47.52595" lon="1.8331138">
        <ele>142.0</ele>
        <time>2022-02-10T08:41:40Z</time>
      </trkpt>
      <trkpt lat="47.525955" lon="1.8330932">
        <ele>142.0</ele>
        <time>2022-02-10T08:41:41Z</time>
      </trkpt>
      <trkpt lat="47.52596" lon="1.8330711">
        <ele>142.0</ele>
        <time>2022-02-10T08:41:42Z</time>
      </trkpt>
      <trkpt lat="47.52596" lon="1.8330528">
        <ele>141.0</ele>
        <time>2022-02-10T08:41:43Z</time>
      </trkpt>
      <trkpt lat="47.52596" lon="1.833029">
        <ele>141.0</ele>
        <time>2022-02-10T08:41:44Z</time>
      </trkpt>
      <trkpt lat="47.525963" lon="1.8330176">
        <ele>141.0</ele>
        <time>2022-02-10T08:41:45Z</time>
      </trkpt>
      <trkpt lat="47.525967" lon="1.8330092">
        <ele>141.0</ele>
        <time>2022-02-10T08:41:46Z</time>
      </trkpt>
      <trkpt lat="47.525967" lon="1.8329897">
        <ele>141.0</ele>
        <time>2022-02-10T08:41:47Z</time>
      </trkpt>
      <trkpt lat="47.52597" lon="1.8329768">
        <ele>141.0</ele>
        <time>2022-02-10T08:41:48Z</time>
      </trkpt>
      <trkpt lat="47.52597" lon="1.8329768">
        <ele>141.0</ele>
        <time>2022-02-10T08:41:49Z</time>
      </trkpt>
      <trkpt lat="47.52597" lon="1.8329427">
        <ele>141.0</ele>
        <time>2022-02-10T08:41:50Z</time>
      </trkpt>
      <trkpt lat="47.52597" lon="1.8329229">
        <ele>141.0</ele>
        <time>2022-02-10T08:41:51Z</time>
      </trkpt>
      <trkpt lat="47.525974" lon="1.8328981">
        <ele>141.0</ele>
        <time>2022-02-10T08:41:52Z</time>
      </trkpt>
      <trkpt lat="47.525978" lon="1.8328763">
        <ele>141.0</ele>
        <time>2022-02-10T08:41:53Z</time>
      </trkpt>
      <trkpt lat="47.525978" lon="1.8328592">
        <ele>141.0</ele>
        <time>2022-02-10T08:41:54Z</time>
      </trkpt>
      <trkpt lat="47.52598" lon="1.8328428">
        <ele>141.0</ele>
        <time>2022-02-10T08:41:55Z</time>
      </trkpt>
      <trkpt lat="47.52598" lon="1.8328276">
        <ele>141.0</ele>
        <time>2022-02-10T08:41:56Z</time>
      </trkpt>
      <trkpt lat="47.525986" lon="1.8328133">
        <ele>142.0</ele>
        <time>2022-02-10T08:41:57Z</time>
      </trkpt>
      <trkpt lat="47.52599" lon="1.8328">
        <ele>142.0</ele>
        <time>2022-02-10T08:41:58Z</time>
      </trkpt>
      <trkpt lat="47.52599" lon="1.8327873">
        <ele>142.0</ele>
        <time>2022-02-10T08:41:59Z</time>
      </trkpt>
      <trkpt lat="47.52599" lon="1.83277">
        <ele>142.0</ele>
        <time>2022-02-10T08:42:00Z</time>
      </trkpt>
      <trkpt lat="47.525993" lon="1.832754">
        <ele>142.0</ele>
        <time>2022-02-10T08:42:01Z</time>
      </trkpt>
      <trkpt lat="47.52599" lon="1.832736">
        <ele>141.0</ele>
        <time>2022-02-10T08:42:02Z</time>
      </trkpt>
      <trkpt lat="47.52599" lon="1.8327277">
        <ele>141.0</ele>
        <time>2022-02-10T08:42:03Z</time>
      </trkpt>
      <trkpt lat="47.52599" lon="1.8327199">
        <ele>141.0</ele>
        <time>2022-02-10T08:42:04Z</time>
      </trkpt>
      <trkpt lat="47.52599" lon="1.8327037">
        <ele>140.0</ele>
        <time>2022-02-10T08:42:05Z</time>
      </trkpt>
      <trkpt lat="47.52599" lon="1.8327037">
        <ele>140.0</ele>
        <time>2022-02-10T08:42:06Z</time>
      </trkpt>
      <trkpt lat="47.52599" lon="1.8327037">
        <ele>140.0</ele>
        <time>2022-02-10T08:42:07Z</time>
      </trkpt>
      <trkpt lat="47.525997" lon="1.8326607">
        <ele>140.0</ele>
        <time>2022-02-10T08:42:08Z</time>
      </trkpt>
      <trkpt lat="47.526005" lon="1.832646">
        <ele>140.0</ele>
        <time>2022-02-10T08:42:09Z</time>
      </trkpt>
      <trkpt lat="47.526012" lon="1.832632">
        <ele>140.0</ele>
        <time>2022-02-10T08:42:10Z</time>
      </trkpt>
      <trkpt lat="47.52602" lon="1.8326263">
        <ele>140.0</ele>
        <time>2022-02-10T08:42:11Z</time>
      </trkpt>
      <trkpt lat="47.52602" lon="1.8326135">
        <ele>140.0</ele>
        <time>2022-02-10T08:42:12Z</time>
      </trkpt>
      <trkpt lat="47.526016" lon="1.8325975">
        <ele>140.0</ele>
        <time>2022-02-10T08:42:13Z</time>
      </trkpt>
      <trkpt lat="47.526012" lon="1.8325804">
        <ele>140.0</ele>
        <time>2022-02-10T08:42:14Z</time>
      </trkpt>
      <trkpt lat="47.526012" lon="1.8325624">
        <ele>139.0</ele>
        <time>2022-02-10T08:42:15Z</time>
      </trkpt>
      <trkpt lat="47.526012" lon="1.8325624">
        <ele>139.0</ele>
        <time>2022-02-10T08:42:16Z</time>
      </trkpt>
      <trkpt lat="47.526012" lon="1.8325624">
        <ele>139.0</ele>
        <time>2022-02-10T08:42:17Z</time>
      </trkpt>
      <trkpt lat="47.526016" lon="1.8325173">
        <ele>138.0</ele>
        <time>2022-02-10T08:42:18Z</time>
      </trkpt>
      <trkpt lat="47.52602" lon="1.8325033">
        <ele>138.0</ele>
        <time>2022-02-10T08:42:19Z</time>
      </trkpt>
      <trkpt lat="47.526024" lon="1.8324904">
        <ele>138.0</ele>
        <time>2022-02-10T08:42:20Z</time>
      </trkpt>
      <trkpt lat="47.526028" lon="1.8324783">
        <ele>138.0</ele>
        <time>2022-02-10T08:42:21Z</time>
      </trkpt>
      <trkpt lat="47.526028" lon="1.8324783">
        <ele>138.0</ele>
        <time>2022-02-10T08:42:22Z</time>
      </trkpt>
      <trkpt lat="47.526028" lon="1.8324783">
        <ele>138.0</ele>
        <time>2022-02-10T08:42:23Z</time>
      </trkpt>
      <trkpt lat="47.52603" lon="1.8324456">
        <ele>138.0</ele>
        <time>2022-02-10T08:42:24Z</time>
      </trkpt>
      <trkpt lat="47.526035" lon="1.83243">
        <ele>138.0</ele>
        <time>2022-02-10T08:42:25Z</time>
      </trkpt>
      <trkpt lat="47.526035" lon="1.8324145">
        <ele>138.0</ele>
        <time>2022-02-10T08:42:26Z</time>
      </trkpt>
      <trkpt lat="47.52604" lon="1.832403">
        <ele>138.0</ele>
        <time>2022-02-10T08:42:27Z</time>
      </trkpt>
      <trkpt lat="47.52604" lon="1.832403">
        <ele>138.0</ele>
        <time>2022-02-10T08:42:28Z</time>
      </trkpt>
      <trkpt lat="47.52604" lon="1.832403">
        <ele>138.0</ele>
        <time>2022-02-10T08:42:29Z</time>
      </trkpt>
      <trkpt lat="47.52605" lon="1.8323655">
        <ele>138.0</ele>
        <time>2022-02-10T08:42:30Z</time>
      </trkpt>
      <trkpt lat="47.526054" lon="1.8323503">
        <ele>138.0</ele>
        <time>2022-02-10T08:42:31Z</time>
      </trkpt>
      <trkpt lat="47.526062" lon="1.8323325">
        <ele>138.0</ele>
        <time>2022-02-10T08:42:32Z</time>
      </trkpt>
      <trkpt lat="47.526062" lon="1.8323184">
        <ele>139.0</ele>
        <time>2022-02-10T08:42:33Z</time>
      </trkpt>
      <trkpt lat="47.526062" lon="1.8323058">
        <ele>139.0</ele>
        <time>2022-02-10T08:42:34Z</time>
      </trkpt>
      <trkpt lat="47.526062" lon="1.8323058">
        <ele>139.0</ele>
        <time>2022-02-10T08:42:35Z</time>
      </trkpt>
      <trkpt lat="47.526062" lon="1.8323058">
        <ele>139.0</ele>
        <time>2022-02-10T08:42:36Z</time>
      </trkpt>
      <trkpt lat="47.526066" lon="1.8322594">
        <ele>139.0</ele>
        <time>2022-02-10T08:42:37Z</time>
      </trkpt>
      <trkpt lat="47.52607" lon="1.8322425">
        <ele>139.0</ele>
        <time>2022-02-10T08:42:38Z</time>
      </trkpt>
      <trkpt lat="47.526073" lon="1.8322302">
        <ele>139.0</ele>
        <time>2022-02-10T08:42:39Z</time>
      </trkpt>
      <trkpt lat="47.526073" lon="1.8322155">
        <ele>138.0</ele>
        <time>2022-02-10T08:42:40Z</time>
      </trkpt>
      <trkpt lat="47.526077" lon="1.8322023">
        <ele>138.0</ele>
        <time>2022-02-10T08:42:41Z</time>
      </trkpt>
      <trkpt lat="47.52608" lon="1.8321869">
        <ele>139.0</ele>
        <time>2022-02-10T08:42:42Z</time>
      </trkpt>
      <trkpt lat="47.526085" lon="1.8321679">
        <ele>139.0</ele>
        <time>2022-02-10T08:42:43Z</time>
      </trkpt>
      <trkpt lat="47.526085" lon="1.8321459">
        <ele>139.0</ele>
        <time>2022-02-10T08:42:44Z</time>
      </trkpt>
      <trkpt lat="47.526085" lon="1.8321259">
        <ele>139.0</ele>
        <time>2022-02-10T08:42:45Z</time>
      </trkpt>
      <trkpt lat="47.52608" lon="1.832109">
        <ele>139.0</ele>
        <time>2022-02-10T08:42:46Z</time>
      </trkpt>
      <trkpt lat="47.52608" lon="1.832109">
        <ele>139.0</ele>
        <time>2022-02-10T08:42:47Z</time>
      </trkpt>
      <trkpt lat="47.52608" lon="1.832109">
        <ele>139.0</ele>
        <time>2022-02-10T08:42:48Z</time>
      </trkpt>
      <trkpt lat="47.526085" lon="1.8320719">
        <ele>139.0</ele>
        <time>2022-02-10T08:42:49Z</time>
      </trkpt>
      <trkpt lat="47.52609" lon="1.8320532">
        <ele>139.0</ele>
        <time>2022-02-10T08:42:50Z</time>
      </trkpt>
      <trkpt lat="47.526093" lon="1.8320411">
        <ele>139.0</ele>
        <time>2022-02-10T08:42:51Z</time>
      </trkpt>
      <trkpt lat="47.526093" lon="1.8320289">
        <ele>139.0</ele>
        <time>2022-02-10T08:42:52Z</time>
      </trkpt>
      <trkpt lat="47.526096" lon="1.8320093">
        <ele>139.0</ele>
        <time>2022-02-10T08:42:53Z</time>
      </trkpt>
      <trkpt lat="47.526096" lon="1.8320093">
        <ele>139.0</ele>
        <time>2022-02-10T08:42:54Z</time>
      </trkpt>
      <trkpt lat="47.526096" lon="1.8320093">
        <ele>139.0</ele>
        <time>2022-02-10T08:42:55Z</time>
      </trkpt>
      <trkpt lat="47.5261" lon="1.8319666">
        <ele>139.0</ele>
        <time>2022-02-10T08:42:56Z</time>
      </trkpt>
      <trkpt lat="47.5261" lon="1.8319545">
        <ele>139.0</ele>
        <time>2022-02-10T08:42:57Z</time>
      </trkpt>
      <trkpt lat="47.526096" lon="1.8319443">
        <ele>139.0</ele>
        <time>2022-02-10T08:42:58Z</time>
      </trkpt>
      <trkpt lat="47.5261" lon="1.831933">
        <ele>139.0</ele>
        <time>2022-02-10T08:42:59Z</time>
      </trkpt>
      <trkpt lat="47.5261" lon="1.8319203">
        <ele>139.0</ele>
        <time>2022-02-10T08:43:00Z</time>
      </trkpt>
      <trkpt lat="47.5261" lon="1.8319018">
        <ele>138.0</ele>
        <time>2022-02-10T08:43:01Z</time>
      </trkpt>
      <trkpt lat="47.5261" lon="1.831891">
        <ele>137.0</ele>
        <time>2022-02-10T08:43:02Z</time>
      </trkpt>
      <trkpt lat="47.526096" lon="1.8318765">
        <ele>136.0</ele>
        <time>2022-02-10T08:43:03Z</time>
      </trkpt>
      <trkpt lat="47.526096" lon="1.8318765">
        <ele>136.0</ele>
        <time>2022-02-10T08:43:04Z</time>
      </trkpt>
      <trkpt lat="47.526096" lon="1.8318765">
        <ele>136.0</ele>
        <time>2022-02-10T08:43:05Z</time>
      </trkpt>
      <trkpt lat="47.5261" lon="1.8318425">
        <ele>136.0</ele>
        <time>2022-02-10T08:43:06Z</time>
      </trkpt>
      <trkpt lat="47.526104" lon="1.8318261">
        <ele>136.0</ele>
        <time>2022-02-10T08:43:07Z</time>
      </trkpt>
      <trkpt lat="47.526108" lon="1.8318132">
        <ele>135.0</ele>
        <time>2022-02-10T08:43:08Z</time>
      </trkpt>
      <trkpt lat="47.526108" lon="1.8318">
        <ele>135.0</ele>
        <time>2022-02-10T08:43:09Z</time>
      </trkpt>
      <trkpt lat="47.526108" lon="1.8318">
        <ele>135.0</ele>
        <time>2022-02-10T08:43:10Z</time>
      </trkpt>
      <trkpt lat="47.526108" lon="1.8318">
        <ele>135.0</ele>
        <time>2022-02-10T08:43:11Z</time>
      </trkpt>
      <trkpt lat="47.526108" lon="1.8317611">
        <ele>134.0</ele>
        <time>2022-02-10T08:43:12Z</time>
      </trkpt>
      <trkpt lat="47.526108" lon="1.8317453">
        <ele>134.0</ele>
        <time>2022-02-10T08:43:13Z</time>
      </trkpt>
      <trkpt lat="47.526104" lon="1.8317239">
        <ele>134.0</ele>
        <time>2022-02-10T08:43:14Z</time>
      </trkpt>
      <trkpt lat="47.526104" lon="1.8317018">
        <ele>135.0</ele>
        <time>2022-02-10T08:43:15Z</time>
      </trkpt>
      <trkpt lat="47.526108" lon="1.8316834">
        <ele>135.0</ele>
        <time>2022-02-10T08:43:16Z</time>
      </trkpt>
      <trkpt lat="47.526115" lon="1.8316633">
        <ele>135.0</ele>
        <time>2022-02-10T08:43:17Z</time>
      </trkpt>
      <trkpt lat="47.52612" lon="1.8316457">
        <ele>135.0</ele>
        <time>2022-02-10T08:43:18Z</time>
      </trkpt>
      <trkpt lat="47.526123" lon="1.831628">
        <ele>135.0</ele>
        <time>2022-02-10T08:43:19Z</time>
      </trkpt>
      <trkpt lat="47.526127" lon="1.8316087">
        <ele>135.0</ele>
        <time>2022-02-10T08:43:20Z</time>
      </trkpt>
      <trkpt lat="47.52613" lon="1.8315893">
        <ele>135.0</ele>
        <time>2022-02-10T08:43:21Z</time>
      </trkpt>
      <trkpt lat="47.526134" lon="1.831569">
        <ele>135.0</ele>
        <time>2022-02-10T08:43:22Z</time>
      </trkpt>
      <trkpt lat="47.526134" lon="1.8315501">
        <ele>135.0</ele>
        <time>2022-02-10T08:43:23Z</time>
      </trkpt>
      <trkpt lat="47.526134" lon="1.8315333">
        <ele>135.0</ele>
        <time>2022-02-10T08:43:24Z</time>
      </trkpt>
      <trkpt lat="47.52614" lon="1.8315151">
        <ele>135.0</ele>
        <time>2022-02-10T08:43:25Z</time>
      </trkpt>
      <trkpt lat="47.52614" lon="1.8314939">
        <ele>135.0</ele>
        <time>2022-02-10T08:43:26Z</time>
      </trkpt>
      <trkpt lat="47.52614" lon="1.8314697">
        <ele>134.0</ele>
        <time>2022-02-10T08:43:27Z</time>
      </trkpt>
      <trkpt lat="47.52614" lon="1.8314527">
        <ele>134.0</ele>
        <time>2022-02-10T08:43:28Z</time>
      </trkpt>
      <trkpt lat="47.526134" lon="1.831434">
        <ele>135.0</ele>
        <time>2022-02-10T08:43:29Z</time>
      </trkpt>
      <trkpt lat="47.52614" lon="1.8314133">
        <ele>134.0</ele>
        <time>2022-02-10T08:43:30Z</time>
      </trkpt>
      <trkpt lat="47.52614" lon="1.8313951">
        <ele>133.0</ele>
        <time>2022-02-10T08:43:31Z</time>
      </trkpt>
      <trkpt lat="47.52614" lon="1.831379">
        <ele>133.0</ele>
        <time>2022-02-10T08:43:32Z</time>
      </trkpt>
      <trkpt lat="47.526142" lon="1.8313607">
        <ele>133.0</ele>
        <time>2022-02-10T08:43:33Z</time>
      </trkpt>
      <trkpt lat="47.526146" lon="1.8313406">
        <ele>133.0</ele>
        <time>2022-02-10T08:43:34Z</time>
      </trkpt>
      <trkpt lat="47.52615" lon="1.831323">
        <ele>133.0</ele>
        <time>2022-02-10T08:43:35Z</time>
      </trkpt>
      <trkpt lat="47.526154" lon="1.8313037">
        <ele>133.0</ele>
        <time>2022-02-10T08:43:36Z</time>
      </trkpt>
      <trkpt lat="47.526157" lon="1.8312827">
        <ele>133.0</ele>
        <time>2022-02-10T08:43:37Z</time>
      </trkpt>
      <trkpt lat="47.526154" lon="1.8312565">
        <ele>134.0</ele>
        <time>2022-02-10T08:43:38Z</time>
      </trkpt>
      <trkpt lat="47.526154" lon="1.8312353">
        <ele>134.0</ele>
        <time>2022-02-10T08:43:39Z</time>
      </trkpt>
      <trkpt lat="47.52616" lon="1.8312198">
        <ele>134.0</ele>
        <time>2022-02-10T08:43:40Z</time>
      </trkpt>
      <trkpt lat="47.526165" lon="1.8312047">
        <ele>135.0</ele>
        <time>2022-02-10T08:43:41Z</time>
      </trkpt>
      <trkpt lat="47.526165" lon="1.8311878">
        <ele>135.0</ele>
        <time>2022-02-10T08:43:42Z</time>
      </trkpt>
      <trkpt lat="47.52617" lon="1.831166">
        <ele>135.0</ele>
        <time>2022-02-10T08:43:43Z</time>
      </trkpt>
      <trkpt lat="47.526173" lon="1.8311489">
        <ele>136.0</ele>
        <time>2022-02-10T08:43:44Z</time>
      </trkpt>
      <trkpt lat="47.526176" lon="1.8311327">
        <ele>136.0</ele>
        <time>2022-02-10T08:43:45Z</time>
      </trkpt>
      <trkpt lat="47.526176" lon="1.8311193">
        <ele>137.0</ele>
        <time>2022-02-10T08:43:46Z</time>
      </trkpt>
      <trkpt lat="47.526176" lon="1.831094">
        <ele>137.0</ele>
        <time>2022-02-10T08:43:47Z</time>
      </trkpt>
      <trkpt lat="47.526176" lon="1.831071">
        <ele>137.0</ele>
        <time>2022-02-10T08:43:48Z</time>
      </trkpt>
      <trkpt lat="47.526176" lon="1.8310525">
        <ele>138.0</ele>
        <time>2022-02-10T08:43:49Z</time>
      </trkpt>
      <trkpt lat="47.526176" lon="1.8310354">
        <ele>138.0</ele>
        <time>2022-02-10T08:43:50Z</time>
      </trkpt>
      <trkpt lat="47.526173" lon="1.8310192">
        <ele>138.0</ele>
        <time>2022-02-10T08:43:51Z</time>
      </trkpt>
      <trkpt lat="47.526173" lon="1.8310192">
        <ele>138.0</ele>
        <time>2022-02-10T08:43:52Z</time>
      </trkpt>
      <trkpt lat="47.526173" lon="1.8310192">
        <ele>138.0</ele>
        <time>2022-02-10T08:43:53Z</time>
      </trkpt>
      <trkpt lat="47.526173" lon="1.830974">
        <ele>139.0</ele>
        <time>2022-02-10T08:43:54Z</time>
      </trkpt>
      <trkpt lat="47.526176" lon="1.830957">
        <ele>139.0</ele>
        <time>2022-02-10T08:43:55Z</time>
      </trkpt>
      <trkpt lat="47.526176" lon="1.8309406">
        <ele>139.0</ele>
        <time>2022-02-10T08:43:56Z</time>
      </trkpt>
      <trkpt lat="47.526176" lon="1.8309276">
        <ele>139.0</ele>
        <time>2022-02-10T08:43:57Z</time>
      </trkpt>
      <trkpt lat="47.526173" lon="1.8309172">
        <ele>139.0</ele>
        <time>2022-02-10T08:43:58Z</time>
      </trkpt>
      <trkpt lat="47.526176" lon="1.8309026">
        <ele>139.0</ele>
        <time>2022-02-10T08:43:59Z</time>
      </trkpt>
      <trkpt lat="47.526176" lon="1.8308858">
        <ele>139.0</ele>
        <time>2022-02-10T08:44:00Z</time>
      </trkpt>
      <trkpt lat="47.526176" lon="1.8308698">
        <ele>139.0</ele>
        <time>2022-02-10T08:44:01Z</time>
      </trkpt>
      <trkpt lat="47.526176" lon="1.830852">
        <ele>139.0</ele>
        <time>2022-02-10T08:44:02Z</time>
      </trkpt>
      <trkpt lat="47.526173" lon="1.8308296">
        <ele>139.0</ele>
        <time>2022-02-10T08:44:03Z</time>
      </trkpt>
      <trkpt lat="47.526176" lon="1.8308076">
        <ele>139.0</ele>
        <time>2022-02-10T08:44:04Z</time>
      </trkpt>
      <trkpt lat="47.526173" lon="1.8307856">
        <ele>139.0</ele>
        <time>2022-02-10T08:44:05Z</time>
      </trkpt>
      <trkpt lat="47.526176" lon="1.8307683">
        <ele>139.0</ele>
        <time>2022-02-10T08:44:06Z</time>
      </trkpt>
      <trkpt lat="47.526176" lon="1.8307498">
        <ele>138.0</ele>
        <time>2022-02-10T08:44:07Z</time>
      </trkpt>
      <trkpt lat="47.526176" lon="1.8307278">
        <ele>138.0</ele>
        <time>2022-02-10T08:44:08Z</time>
      </trkpt>
      <trkpt lat="47.52618" lon="1.830707">
        <ele>139.0</ele>
        <time>2022-02-10T08:44:09Z</time>
      </trkpt>
      <trkpt lat="47.526184" lon="1.8306947">
        <ele>139.0</ele>
        <time>2022-02-10T08:44:10Z</time>
      </trkpt>
      <trkpt lat="47.526184" lon="1.830673">
        <ele>139.0</ele>
        <time>2022-02-10T08:44:11Z</time>
      </trkpt>
      <trkpt lat="47.526184" lon="1.8306562">
        <ele>139.0</ele>
        <time>2022-02-10T08:44:12Z</time>
      </trkpt>
      <trkpt lat="47.526184" lon="1.8306435">
        <ele>138.0</ele>
        <time>2022-02-10T08:44:13Z</time>
      </trkpt>
      <trkpt lat="47.526184" lon="1.8306214">
        <ele>138.0</ele>
        <time>2022-02-10T08:44:14Z</time>
      </trkpt>
      <trkpt lat="47.526184" lon="1.8306023">
        <ele>138.0</ele>
        <time>2022-02-10T08:44:15Z</time>
      </trkpt>
      <trkpt lat="47.526184" lon="1.8305876">
        <ele>138.0</ele>
        <time>2022-02-10T08:44:16Z</time>
      </trkpt>
      <trkpt lat="47.52618" lon="1.8305655">
        <ele>138.0</ele>
        <time>2022-02-10T08:44:17Z</time>
      </trkpt>
      <trkpt lat="47.526184" lon="1.8305483">
        <ele>138.0</ele>
        <time>2022-02-10T08:44:18Z</time>
      </trkpt>
      <trkpt lat="47.526184" lon="1.8305312">
        <ele>137.0</ele>
        <time>2022-02-10T08:44:19Z</time>
      </trkpt>
      <trkpt lat="47.526184" lon="1.8305132">
        <ele>137.0</ele>
        <time>2022-02-10T08:44:20Z</time>
      </trkpt>
      <trkpt lat="47.526184" lon="1.8304942">
        <ele>137.0</ele>
        <time>2022-02-10T08:44:21Z</time>
      </trkpt>
      <trkpt lat="47.526184" lon="1.8304768">
        <ele>137.0</ele>
        <time>2022-02-10T08:44:22Z</time>
      </trkpt>
      <trkpt lat="47.526188" lon="1.8304602">
        <ele>137.0</ele>
        <time>2022-02-10T08:44:23Z</time>
      </trkpt>
      <trkpt lat="47.52619" lon="1.8304416">
        <ele>137.0</ele>
        <time>2022-02-10T08:44:24Z</time>
      </trkpt>
      <trkpt lat="47.52619" lon="1.8304212">
        <ele>137.0</ele>
        <time>2022-02-10T08:44:25Z</time>
      </trkpt>
      <trkpt lat="47.5262" lon="1.8304042">
        <ele>138.0</ele>
        <time>2022-02-10T08:44:26Z</time>
      </trkpt>
      <trkpt lat="47.526203" lon="1.8303851">
        <ele>138.0</ele>
        <time>2022-02-10T08:44:27Z</time>
      </trkpt>
      <trkpt lat="47.526203" lon="1.8303648">
        <ele>138.0</ele>
        <time>2022-02-10T08:44:28Z</time>
      </trkpt>
      <trkpt lat="47.526203" lon="1.8303537">
        <ele>138.0</ele>
        <time>2022-02-10T08:44:29Z</time>
      </trkpt>
      <trkpt lat="47.5262" lon="1.830337">
        <ele>139.0</ele>
        <time>2022-02-10T08:44:30Z</time>
      </trkpt>
      <trkpt lat="47.5262" lon="1.830337">
        <ele>139.0</ele>
        <time>2022-02-10T08:44:31Z</time>
      </trkpt>
      <trkpt lat="47.526196" lon="1.8303082">
        <ele>138.0</ele>
        <time>2022-02-10T08:44:32Z</time>
      </trkpt>
      <trkpt lat="47.526196" lon="1.8302919">
        <ele>139.0</ele>
        <time>2022-02-10T08:44:33Z</time>
      </trkpt>
      <trkpt lat="47.526196" lon="1.8302777">
        <ele>139.0</ele>
        <time>2022-02-10T08:44:34Z</time>
      </trkpt>
      <trkpt lat="47.52619" lon="1.8302609">
        <ele>139.0</ele>
        <time>2022-02-10T08:44:35Z</time>
      </trkpt>
      <trkpt lat="47.526196" lon="1.8302467">
        <ele>139.0</ele>
        <time>2022-02-10T08:44:36Z</time>
      </trkpt>
      <trkpt lat="47.526196" lon="1.8302331">
        <ele>139.0</ele>
        <time>2022-02-10T08:44:37Z</time>
      </trkpt>
      <trkpt lat="47.5262" lon="1.8302168">
        <ele>139.0</ele>
        <time>2022-02-10T08:44:38Z</time>
      </trkpt>
      <trkpt lat="47.5262" lon="1.8302006">
        <ele>139.0</ele>
        <time>2022-02-10T08:44:39Z</time>
      </trkpt>
      <trkpt lat="47.5262" lon="1.8301842">
        <ele>139.0</ele>
        <time>2022-02-10T08:44:40Z</time>
      </trkpt>
      <trkpt lat="47.526196" lon="1.8301644">
        <ele>139.0</ele>
        <time>2022-02-10T08:44:41Z</time>
      </trkpt>
      <trkpt lat="47.5262" lon="1.8301433">
        <ele>139.0</ele>
        <time>2022-02-10T08:44:42Z</time>
      </trkpt>
      <trkpt lat="47.5262" lon="1.8301262">
        <ele>139.0</ele>
        <time>2022-02-10T08:44:43Z</time>
      </trkpt>
      <trkpt lat="47.5262" lon="1.8301072">
        <ele>139.0</ele>
        <time>2022-02-10T08:44:44Z</time>
      </trkpt>
      <trkpt lat="47.5262" lon="1.8300856">
        <ele>139.0</ele>
        <time>2022-02-10T08:44:45Z</time>
      </trkpt>
      <trkpt lat="47.526196" lon="1.8300648">
        <ele>139.0</ele>
        <time>2022-02-10T08:44:46Z</time>
      </trkpt>
      <trkpt lat="47.5262" lon="1.8300651">
        <ele>139.0</ele>
        <time>2022-02-10T08:44:47Z</time>
      </trkpt>
      <trkpt lat="47.52619" lon="1.8300524">
        <ele>139.0</ele>
        <time>2022-02-10T08:44:48Z</time>
      </trkpt>
      <trkpt lat="47.526188" lon="1.8300333">
        <ele>139.0</ele>
        <time>2022-02-10T08:44:49Z</time>
      </trkpt>
      <trkpt lat="47.526184" lon="1.8300099">
        <ele>139.0</ele>
        <time>2022-02-10T08:44:50Z</time>
      </trkpt>
      <trkpt lat="47.526176" lon="1.8299932">
        <ele>139.0</ele>
        <time>2022-02-10T08:44:51Z</time>
      </trkpt>
      <trkpt lat="47.52617" lon="1.8299745">
        <ele>139.0</ele>
        <time>2022-02-10T08:44:52Z</time>
      </trkpt>
      <trkpt lat="47.52617" lon="1.8299552">
        <ele>139.0</ele>
        <time>2022-02-10T08:44:53Z</time>
      </trkpt>
      <trkpt lat="47.526173" lon="1.8299352">
        <ele>139.0</ele>
        <time>2022-02-10T08:44:54Z</time>
      </trkpt>
      <trkpt lat="47.526176" lon="1.8299167">
        <ele>139.0</ele>
        <time>2022-02-10T08:44:55Z</time>
      </trkpt>
      <trkpt lat="47.526176" lon="1.8298961">
        <ele>139.0</ele>
        <time>2022-02-10T08:44:56Z</time>
      </trkpt>
      <trkpt lat="47.526176" lon="1.8298763">
        <ele>139.0</ele>
        <time>2022-02-10T08:44:57Z</time>
      </trkpt>
      <trkpt lat="47.52618" lon="1.82986">
        <ele>140.0</ele>
        <time>2022-02-10T08:44:58Z</time>
      </trkpt>
      <trkpt lat="47.526176" lon="1.8298423">
        <ele>140.0</ele>
        <time>2022-02-10T08:44:59Z</time>
      </trkpt>
      <trkpt lat="47.526176" lon="1.8298262">
        <ele>140.0</ele>
        <time>2022-02-10T08:45:00Z</time>
      </trkpt>
      <trkpt lat="47.526173" lon="1.8298136">
        <ele>140.0</ele>
        <time>2022-02-10T08:45:01Z</time>
      </trkpt>
      <trkpt lat="47.526176" lon="1.8297948">
        <ele>140.0</ele>
        <time>2022-02-10T08:45:02Z</time>
      </trkpt>
      <trkpt lat="47.52618" lon="1.8297827">
        <ele>140.0</ele>
        <time>2022-02-10T08:45:03Z</time>
      </trkpt>
      <trkpt lat="47.526184" lon="1.8297747">
        <ele>140.0</ele>
        <time>2022-02-10T08:45:04Z</time>
      </trkpt>
      <trkpt lat="47.52619" lon="1.8297614">
        <ele>140.0</ele>
        <time>2022-02-10T08:45:05Z</time>
      </trkpt>
      <trkpt lat="47.526196" lon="1.8297429">
        <ele>140.0</ele>
        <time>2022-02-10T08:45:06Z</time>
      </trkpt>
      <trkpt lat="47.526203" lon="1.8297269">
        <ele>140.0</ele>
        <time>2022-02-10T08:45:07Z</time>
      </trkpt>
      <trkpt lat="47.5262" lon="1.8297117">
        <ele>140.0</ele>
        <time>2022-02-10T08:45:08Z</time>
      </trkpt>
      <trkpt lat="47.5262" lon="1.8296956">
        <ele>140.0</ele>
        <time>2022-02-10T08:45:09Z</time>
      </trkpt>
      <trkpt lat="47.5262" lon="1.8296767">
        <ele>140.0</ele>
        <time>2022-02-10T08:45:10Z</time>
      </trkpt>
      <trkpt lat="47.5262" lon="1.8296582">
        <ele>140.0</ele>
        <time>2022-02-10T08:45:11Z</time>
      </trkpt>
      <trkpt lat="47.526203" lon="1.8296461">
        <ele>139.0</ele>
        <time>2022-02-10T08:45:12Z</time>
      </trkpt>
      <trkpt lat="47.526207" lon="1.8296292">
        <ele>139.0</ele>
        <time>2022-02-10T08:45:13Z</time>
      </trkpt>
      <trkpt lat="47.52621" lon="1.829611">
        <ele>139.0</ele>
        <time>2022-02-10T08:45:14Z</time>
      </trkpt>
      <trkpt lat="47.526215" lon="1.8295914">
        <ele>139.0</ele>
        <time>2022-02-10T08:45:15Z</time>
      </trkpt>
      <trkpt lat="47.52622" lon="1.8295707">
        <ele>139.0</ele>
        <time>2022-02-10T08:45:16Z</time>
      </trkpt>
      <trkpt lat="47.526222" lon="1.8295537">
        <ele>139.0</ele>
        <time>2022-02-10T08:45:17Z</time>
      </trkpt>
      <trkpt lat="47.526222" lon="1.8295327">
        <ele>139.0</ele>
        <time>2022-02-10T08:45:18Z</time>
      </trkpt>
      <trkpt lat="47.526222" lon="1.82951">
        <ele>139.0</ele>
        <time>2022-02-10T08:45:19Z</time>
      </trkpt>
      <trkpt lat="47.526222" lon="1.8294939">
        <ele>140.0</ele>
        <time>2022-02-10T08:45:20Z</time>
      </trkpt>
      <trkpt lat="47.526222" lon="1.8294768">
        <ele>140.0</ele>
        <time>2022-02-10T08:45:21Z</time>
      </trkpt>
      <trkpt lat="47.526222" lon="1.8294601">
        <ele>140.0</ele>
        <time>2022-02-10T08:45:22Z</time>
      </trkpt>
      <trkpt lat="47.526222" lon="1.8294421">
        <ele>140.0</ele>
        <time>2022-02-10T08:45:23Z</time>
      </trkpt>
      <trkpt lat="47.526222" lon="1.8294227">
        <ele>140.0</ele>
        <time>2022-02-10T08:45:24Z</time>
      </trkpt>
      <trkpt lat="47.52622" lon="1.829406">
        <ele>140.0</ele>
        <time>2022-02-10T08:45:25Z</time>
      </trkpt>
      <trkpt lat="47.526215" lon="1.8293927">
        <ele>140.0</ele>
        <time>2022-02-10T08:45:26Z</time>
      </trkpt>
      <trkpt lat="47.52621" lon="1.8293772">
        <ele>140.0</ele>
        <time>2022-02-10T08:45:27Z</time>
      </trkpt>
      <trkpt lat="47.52621" lon="1.8293561">
        <ele>141.0</ele>
        <time>2022-02-10T08:45:28Z</time>
      </trkpt>
      <trkpt lat="47.52621" lon="1.8293421">
        <ele>141.0</ele>
        <time>2022-02-10T08:45:29Z</time>
      </trkpt>
      <trkpt lat="47.526207" lon="1.829331">
        <ele>140.0</ele>
        <time>2022-02-10T08:45:30Z</time>
      </trkpt>
      <trkpt lat="47.52621" lon="1.8293121">
        <ele>140.0</ele>
        <time>2022-02-10T08:45:31Z</time>
      </trkpt>
      <trkpt lat="47.52621" lon="1.8293121">
        <ele>140.0</ele>
        <time>2022-02-10T08:45:32Z</time>
      </trkpt>
      <trkpt lat="47.52621" lon="1.8293121">
        <ele>140.0</ele>
        <time>2022-02-10T08:45:33Z</time>
      </trkpt>
      <trkpt lat="47.526215" lon="1.8292793">
        <ele>140.0</ele>
        <time>2022-02-10T08:45:34Z</time>
      </trkpt>
      <trkpt lat="47.52621" lon="1.8292679">
        <ele>141.0</ele>
        <time>2022-02-10T08:45:35Z</time>
      </trkpt>
      <trkpt lat="47.52621" lon="1.8292584">
        <ele>140.0</ele>
        <time>2022-02-10T08:45:36Z</time>
      </trkpt>
      <trkpt lat="47.52621" lon="1.8292443">
        <ele>140.0</ele>
        <time>2022-02-10T08:45:37Z</time>
      </trkpt>
      <trkpt lat="47.526215" lon="1.829228">
        <ele>140.0</ele>
        <time>2022-02-10T08:45:38Z</time>
      </trkpt>
      <trkpt lat="47.526215" lon="1.829212">
        <ele>140.0</ele>
        <time>2022-02-10T08:45:39Z</time>
      </trkpt>
      <trkpt lat="47.52622" lon="1.829191">
        <ele>140.0</ele>
        <time>2022-02-10T08:45:40Z</time>
      </trkpt>
      <trkpt lat="47.526222" lon="1.8291746">
        <ele>140.0</ele>
        <time>2022-02-10T08:45:41Z</time>
      </trkpt>
      <trkpt lat="47.526222" lon="1.8291599">
        <ele>140.0</ele>
        <time>2022-02-10T08:45:42Z</time>
      </trkpt>
      <trkpt lat="47.526222" lon="1.8291413">
        <ele>140.0</ele>
        <time>2022-02-10T08:45:43Z</time>
      </trkpt>
      <trkpt lat="47.526222" lon="1.8291271">
        <ele>140.0</ele>
        <time>2022-02-10T08:45:44Z</time>
      </trkpt>
      <trkpt lat="47.526226" lon="1.8291097">
        <ele>140.0</ele>
        <time>2022-02-10T08:45:45Z</time>
      </trkpt>
      <trkpt lat="47.526222" lon="1.8290931">
        <ele>140.0</ele>
        <time>2022-02-10T08:45:46Z</time>
      </trkpt>
      <trkpt lat="47.52622" lon="1.8290778">
        <ele>139.0</ele>
        <time>2022-02-10T08:45:47Z</time>
      </trkpt>
      <trkpt lat="47.52622" lon="1.8290642">
        <ele>139.0</ele>
        <time>2022-02-10T08:45:48Z</time>
      </trkpt>
      <trkpt lat="47.526215" lon="1.829048">
        <ele>139.0</ele>
        <time>2022-02-10T08:45:49Z</time>
      </trkpt>
      <trkpt lat="47.526215" lon="1.829048">
        <ele>139.0</ele>
        <time>2022-02-10T08:45:50Z</time>
      </trkpt>
      <trkpt lat="47.526215" lon="1.829048">
        <ele>139.0</ele>
        <time>2022-02-10T08:45:51Z</time>
      </trkpt>
      <trkpt lat="47.526222" lon="1.8290083">
        <ele>139.0</ele>
        <time>2022-02-10T08:45:52Z</time>
      </trkpt>
      <trkpt lat="47.526226" lon="1.8289894">
        <ele>138.0</ele>
        <time>2022-02-10T08:45:53Z</time>
      </trkpt>
      <trkpt lat="47.52623" lon="1.8289666">
        <ele>139.0</ele>
        <time>2022-02-10T08:45:54Z</time>
      </trkpt>
      <trkpt lat="47.526234" lon="1.828942">
        <ele>139.0</ele>
        <time>2022-02-10T08:45:55Z</time>
      </trkpt>
      <trkpt lat="47.526237" lon="1.8289217">
        <ele>139.0</ele>
        <time>2022-02-10T08:45:56Z</time>
      </trkpt>
      <trkpt lat="47.52624" lon="1.8289077">
        <ele>139.0</ele>
        <time>2022-02-10T08:45:57Z</time>
      </trkpt>
      <trkpt lat="47.526245" lon="1.8288893">
        <ele>140.0</ele>
        <time>2022-02-10T08:45:58Z</time>
      </trkpt>
      <trkpt lat="47.526245" lon="1.8288692">
        <ele>139.0</ele>
        <time>2022-02-10T08:45:59Z</time>
      </trkpt>
      <trkpt lat="47.52624" lon="1.8288478">
        <ele>139.0</ele>
        <time>2022-02-10T08:46:00Z</time>
      </trkpt>
      <trkpt lat="47.526245" lon="1.8288306">
        <ele>139.0</ele>
        <time>2022-02-10T08:46:01Z</time>
      </trkpt>
      <trkpt lat="47.526245" lon="1.828811">
        <ele>139.0</ele>
        <time>2022-02-10T08:46:02Z</time>
      </trkpt>
      <trkpt lat="47.526245" lon="1.8287923">
        <ele>139.0</ele>
        <time>2022-02-10T08:46:03Z</time>
      </trkpt>
      <trkpt lat="47.526245" lon="1.8287739">
        <ele>139.0</ele>
        <time>2022-02-10T08:46:04Z</time>
      </trkpt>
      <trkpt lat="47.52624" lon="1.8287579">
        <ele>140.0</ele>
        <time>2022-02-10T08:46:05Z</time>
      </trkpt>
      <trkpt lat="47.526245" lon="1.8287413">
        <ele>140.0</ele>
        <time>2022-02-10T08:46:06Z</time>
      </trkpt>
      <trkpt lat="47.526245" lon="1.8287276">
        <ele>140.0</ele>
        <time>2022-02-10T08:46:07Z</time>
      </trkpt>
      <trkpt lat="47.526237" lon="1.8287145">
        <ele>140.0</ele>
        <time>2022-02-10T08:46:08Z</time>
      </trkpt>
      <trkpt lat="47.526237" lon="1.8286961">
        <ele>141.0</ele>
        <time>2022-02-10T08:46:09Z</time>
      </trkpt>
      <trkpt lat="47.526237" lon="1.82868">
        <ele>142.0</ele>
        <time>2022-02-10T08:46:10Z</time>
      </trkpt>
      <trkpt lat="47.526237" lon="1.82868">
        <ele>142.0</ele>
        <time>2022-02-10T08:46:11Z</time>
      </trkpt>
      <trkpt lat="47.526237" lon="1.82868">
        <ele>142.0</ele>
        <time>2022-02-10T08:46:12Z</time>
      </trkpt>
      <trkpt lat="47.52624" lon="1.8286399">
        <ele>142.0</ele>
        <time>2022-02-10T08:46:13Z</time>
      </trkpt>
      <trkpt lat="47.526245" lon="1.8286265">
        <ele>142.0</ele>
        <time>2022-02-10T08:46:14Z</time>
      </trkpt>
      <trkpt lat="47.52625" lon="1.8286053">
        <ele>141.0</ele>
        <time>2022-02-10T08:46:15Z</time>
      </trkpt>
      <trkpt lat="47.526257" lon="1.8285933">
        <ele>141.0</ele>
        <time>2022-02-10T08:46:16Z</time>
      </trkpt>
      <trkpt lat="47.526257" lon="1.828578">
        <ele>141.0</ele>
        <time>2022-02-10T08:46:17Z</time>
      </trkpt>
      <trkpt lat="47.526257" lon="1.8285619">
        <ele>141.0</ele>
        <time>2022-02-10T08:46:18Z</time>
      </trkpt>
      <trkpt lat="47.52626" lon="1.8285476">
        <ele>140.0</ele>
        <time>2022-02-10T08:46:19Z</time>
      </trkpt>
      <trkpt lat="47.52626" lon="1.8285326">
        <ele>140.0</ele>
        <time>2022-02-10T08:46:20Z</time>
      </trkpt>
      <trkpt lat="47.526257" lon="1.828515">
        <ele>140.0</ele>
        <time>2022-02-10T08:46:21Z</time>
      </trkpt>
      <trkpt lat="47.526257" lon="1.8284975">
        <ele>140.0</ele>
        <time>2022-02-10T08:46:22Z</time>
      </trkpt>
      <trkpt lat="47.526257" lon="1.8284962">
        <ele>140.0</ele>
        <time>2022-02-10T08:46:23Z</time>
      </trkpt>
      <trkpt lat="47.526253" lon="1.8284911">
        <ele>139.0</ele>
        <time>2022-02-10T08:46:24Z</time>
      </trkpt>
      <trkpt lat="47.526253" lon="1.8284789">
        <ele>140.0</ele>
        <time>2022-02-10T08:46:25Z</time>
      </trkpt>
      <trkpt lat="47.526253" lon="1.8284789">
        <ele>140.0</ele>
        <time>2022-02-10T08:46:26Z</time>
      </trkpt>
      <trkpt lat="47.526257" lon="1.8284525">
        <ele>139.0</ele>
        <time>2022-02-10T08:46:27Z</time>
      </trkpt>
      <trkpt lat="47.526257" lon="1.8284345">
        <ele>138.0</ele>
        <time>2022-02-10T08:46:28Z</time>
      </trkpt>
      <trkpt lat="47.526257" lon="1.828416">
        <ele>138.0</ele>
        <time>2022-02-10T08:46:29Z</time>
      </trkpt>
      <trkpt lat="47.526257" lon="1.8283976">
        <ele>138.0</ele>
        <time>2022-02-10T08:46:30Z</time>
      </trkpt>
      <trkpt lat="47.52626" lon="1.8283795">
        <ele>138.0</ele>
        <time>2022-02-10T08:46:31Z</time>
      </trkpt>
      <trkpt lat="47.526264" lon="1.8283635">
        <ele>138.0</ele>
        <time>2022-02-10T08:46:32Z</time>
      </trkpt>
      <trkpt lat="47.526268" lon="1.8283465">
        <ele>138.0</ele>
        <time>2022-02-10T08:46:33Z</time>
      </trkpt>
      <trkpt lat="47.526268" lon="1.8283327">
        <ele>137.0</ele>
        <time>2022-02-10T08:46:34Z</time>
      </trkpt>
      <trkpt lat="47.526268" lon="1.8283149">
        <ele>137.0</ele>
        <time>2022-02-10T08:46:35Z</time>
      </trkpt>
      <trkpt lat="47.526264" lon="1.8283015">
        <ele>137.0</ele>
        <time>2022-02-10T08:46:36Z</time>
      </trkpt>
      <trkpt lat="47.526264" lon="1.8283015">
        <ele>137.0</ele>
        <time>2022-02-10T08:46:37Z</time>
      </trkpt>
      <trkpt lat="47.526264" lon="1.8283015">
        <ele>137.0</ele>
        <time>2022-02-10T08:46:38Z</time>
      </trkpt>
      <trkpt lat="47.526268" lon="1.8282671">
        <ele>137.0</ele>
        <time>2022-02-10T08:46:39Z</time>
      </trkpt>
      <trkpt lat="47.52627" lon="1.8282597">
        <ele>137.0</ele>
        <time>2022-02-10T08:46:40Z</time>
      </trkpt>
      <trkpt lat="47.52627" lon="1.8282503">
        <ele>137.0</ele>
        <time>2022-02-10T08:46:41Z</time>
      </trkpt>
      <trkpt lat="47.52627" lon="1.8282362">
        <ele>137.0</ele>
        <time>2022-02-10T08:46:42Z</time>
      </trkpt>
      <trkpt lat="47.526276" lon="1.8282198">
        <ele>136.0</ele>
        <time>2022-02-10T08:46:43Z</time>
      </trkpt>
      <trkpt lat="47.526276" lon="1.8282027">
        <ele>136.0</ele>
        <time>2022-02-10T08:46:44Z</time>
      </trkpt>
      <trkpt lat="47.52628" lon="1.828186">
        <ele>136.0</ele>
        <time>2022-02-10T08:46:45Z</time>
      </trkpt>
      <trkpt lat="47.526283" lon="1.8281647">
        <ele>137.0</ele>
        <time>2022-02-10T08:46:46Z</time>
      </trkpt>
      <trkpt lat="47.526287" lon="1.828144">
        <ele>137.0</ele>
        <time>2022-02-10T08:46:47Z</time>
      </trkpt>
      <trkpt lat="47.52629" lon="1.8281237">
        <ele>137.0</ele>
        <time>2022-02-10T08:46:48Z</time>
      </trkpt>
      <trkpt lat="47.526295" lon="1.8281071">
        <ele>138.0</ele>
        <time>2022-02-10T08:46:49Z</time>
      </trkpt>
      <trkpt lat="47.5263" lon="1.82809">
        <ele>139.0</ele>
        <time>2022-02-10T08:46:50Z</time>
      </trkpt>
      <trkpt lat="47.526306" lon="1.828074">
        <ele>139.0</ele>
        <time>2022-02-10T08:46:51Z</time>
      </trkpt>
      <trkpt lat="47.52631" lon="1.8280615">
        <ele>139.0</ele>
        <time>2022-02-10T08:46:52Z</time>
      </trkpt>
      <trkpt lat="47.526314" lon="1.8280448">
        <ele>139.0</ele>
        <time>2022-02-10T08:46:53Z</time>
      </trkpt>
      <trkpt lat="47.526314" lon="1.8280233">
        <ele>139.0</ele>
        <time>2022-02-10T08:46:54Z</time>
      </trkpt>
      <trkpt lat="47.52631" lon="1.8280011">
        <ele>139.0</ele>
        <time>2022-02-10T08:46:55Z</time>
      </trkpt>
      <trkpt lat="47.52631" lon="1.8279854">
        <ele>139.0</ele>
        <time>2022-02-10T08:46:56Z</time>
      </trkpt>
      <trkpt lat="47.52631" lon="1.8279657">
        <ele>139.0</ele>
        <time>2022-02-10T08:46:57Z</time>
      </trkpt>
      <trkpt lat="47.52631" lon="1.8279448">
        <ele>139.0</ele>
        <time>2022-02-10T08:46:58Z</time>
      </trkpt>
      <trkpt lat="47.526306" lon="1.8279233">
        <ele>139.0</ele>
        <time>2022-02-10T08:46:59Z</time>
      </trkpt>
      <trkpt lat="47.5263" lon="1.827901">
        <ele>139.0</ele>
        <time>2022-02-10T08:47:00Z</time>
      </trkpt>
      <trkpt lat="47.526295" lon="1.8278823">
        <ele>138.0</ele>
        <time>2022-02-10T08:47:01Z</time>
      </trkpt>
      <trkpt lat="47.526287" lon="1.8278654">
        <ele>138.0</ele>
        <time>2022-02-10T08:47:02Z</time>
      </trkpt>
      <trkpt lat="47.526283" lon="1.8278445">
        <ele>138.0</ele>
        <time>2022-02-10T08:47:03Z</time>
      </trkpt>
      <trkpt lat="47.526283" lon="1.827824">
        <ele>139.0</ele>
        <time>2022-02-10T08:47:04Z</time>
      </trkpt>
      <trkpt lat="47.526287" lon="1.8278033">
        <ele>139.0</ele>
        <time>2022-02-10T08:47:05Z</time>
      </trkpt>
      <trkpt lat="47.52629" lon="1.8277813">
        <ele>139.0</ele>
        <time>2022-02-10T08:47:06Z</time>
      </trkpt>
      <trkpt lat="47.526295" lon="1.8277673">
        <ele>139.0</ele>
        <time>2022-02-10T08:47:07Z</time>
      </trkpt>
      <trkpt lat="47.526295" lon="1.8277448">
        <ele>139.0</ele>
        <time>2022-02-10T08:47:08Z</time>
      </trkpt>
      <trkpt lat="47.526302" lon="1.8277293">
        <ele>139.0</ele>
        <time>2022-02-10T08:47:09Z</time>
      </trkpt>
      <trkpt lat="47.526306" lon="1.8277124">
        <ele>139.0</ele>
        <time>2022-02-10T08:47:10Z</time>
      </trkpt>
      <trkpt lat="47.52631" lon="1.8277023">
        <ele>140.0</ele>
        <time>2022-02-10T08:47:11Z</time>
      </trkpt>
      <trkpt lat="47.526318" lon="1.8276873">
        <ele>140.0</ele>
        <time>2022-02-10T08:47:12Z</time>
      </trkpt>
      <trkpt lat="47.52632" lon="1.8276747">
        <ele>140.0</ele>
        <time>2022-02-10T08:47:13Z</time>
      </trkpt>
      <trkpt lat="47.526325" lon="1.8276628">
        <ele>139.0</ele>
        <time>2022-02-10T08:47:14Z</time>
      </trkpt>
      <trkpt lat="47.52633" lon="1.8276476">
        <ele>139.0</ele>
        <time>2022-02-10T08:47:15Z</time>
      </trkpt>
      <trkpt lat="47.526333" lon="1.8276255">
        <ele>140.0</ele>
        <time>2022-02-10T08:47:16Z</time>
      </trkpt>
      <trkpt lat="47.526337" lon="1.8276051">
        <ele>140.0</ele>
        <time>2022-02-10T08:47:17Z</time>
      </trkpt>
      <trkpt lat="47.526337" lon="1.8275876">
        <ele>140.0</ele>
        <time>2022-02-10T08:47:18Z</time>
      </trkpt>
      <trkpt lat="47.52634" lon="1.8275727">
        <ele>140.0</ele>
        <time>2022-02-10T08:47:19Z</time>
      </trkpt>
      <trkpt lat="47.526344" lon="1.8275592">
        <ele>139.0</ele>
        <time>2022-02-10T08:47:20Z</time>
      </trkpt>
      <trkpt lat="47.526344" lon="1.8275436">
        <ele>139.0</ele>
        <time>2022-02-10T08:47:21Z</time>
      </trkpt>
      <trkpt lat="47.52634" lon="1.8275259">
        <ele>138.0</ele>
        <time>2022-02-10T08:47:22Z</time>
      </trkpt>
      <trkpt lat="47.52634" lon="1.8275075">
        <ele>138.0</ele>
        <time>2022-02-10T08:47:23Z</time>
      </trkpt>
      <trkpt lat="47.526337" lon="1.8274891">
        <ele>138.0</ele>
        <time>2022-02-10T08:47:24Z</time>
      </trkpt>
      <trkpt lat="47.526337" lon="1.8274733">
        <ele>138.0</ele>
        <time>2022-02-10T08:47:25Z</time>
      </trkpt>
      <trkpt lat="47.526333" lon="1.8274531">
        <ele>137.0</ele>
        <time>2022-02-10T08:47:26Z</time>
      </trkpt>
      <trkpt lat="47.526337" lon="1.8274361">
        <ele>137.0</ele>
        <time>2022-02-10T08:47:27Z</time>
      </trkpt>
      <trkpt lat="47.52634" lon="1.8274196">
        <ele>137.0</ele>
        <time>2022-02-10T08:47:28Z</time>
      </trkpt>
      <trkpt lat="47.52635" lon="1.8274033">
        <ele>138.0</ele>
        <time>2022-02-10T08:47:29Z</time>
      </trkpt>
      <trkpt lat="47.526356" lon="1.827387">
        <ele>137.0</ele>
        <time>2022-02-10T08:47:30Z</time>
      </trkpt>
      <trkpt lat="47.52636" lon="1.8273705">
        <ele>137.0</ele>
        <time>2022-02-10T08:47:31Z</time>
      </trkpt>
      <trkpt lat="47.526367" lon="1.8273494">
        <ele>137.0</ele>
        <time>2022-02-10T08:47:32Z</time>
      </trkpt>
      <trkpt lat="47.52637" lon="1.8273257">
        <ele>138.0</ele>
        <time>2022-02-10T08:47:33Z</time>
      </trkpt>
      <trkpt lat="47.526375" lon="1.827303">
        <ele>138.0</ele>
        <time>2022-02-10T08:47:34Z</time>
      </trkpt>
      <trkpt lat="47.526375" lon="1.8272775">
        <ele>138.0</ele>
        <time>2022-02-10T08:47:35Z</time>
      </trkpt>
      <trkpt lat="47.526375" lon="1.8272558">
        <ele>138.0</ele>
        <time>2022-02-10T08:47:36Z</time>
      </trkpt>
      <trkpt lat="47.526375" lon="1.8272368">
        <ele>138.0</ele>
        <time>2022-02-10T08:47:37Z</time>
      </trkpt>
      <trkpt lat="47.52638" lon="1.8272183">
        <ele>138.0</ele>
        <time>2022-02-10T08:47:38Z</time>
      </trkpt>
      <trkpt lat="47.52638" lon="1.8272014">
        <ele>138.0</ele>
        <time>2022-02-10T08:47:39Z</time>
      </trkpt>
      <trkpt lat="47.526386" lon="1.8271871">
        <ele>138.0</ele>
        <time>2022-02-10T08:47:40Z</time>
      </trkpt>
      <trkpt lat="47.52639" lon="1.8271712">
        <ele>138.0</ele>
        <time>2022-02-10T08:47:41Z</time>
      </trkpt>
      <trkpt lat="47.526394" lon="1.8271555">
        <ele>138.0</ele>
        <time>2022-02-10T08:47:42Z</time>
      </trkpt>
      <trkpt lat="47.5264" lon="1.8271414">
        <ele>137.0</ele>
        <time>2022-02-10T08:47:43Z</time>
      </trkpt>
      <trkpt lat="47.5264" lon="1.8271251">
        <ele>137.0</ele>
        <time>2022-02-10T08:47:44Z</time>
      </trkpt>
      <trkpt lat="47.526405" lon="1.8271065">
        <ele>137.0</ele>
        <time>2022-02-10T08:47:45Z</time>
      </trkpt>
      <trkpt lat="47.52641" lon="1.8270897">
        <ele>137.0</ele>
        <time>2022-02-10T08:47:46Z</time>
      </trkpt>
      <trkpt lat="47.526413" lon="1.8270766">
        <ele>137.0</ele>
        <time>2022-02-10T08:47:47Z</time>
      </trkpt>
      <trkpt lat="47.52642" lon="1.8270613">
        <ele>137.0</ele>
        <time>2022-02-10T08:47:48Z</time>
      </trkpt>
      <trkpt lat="47.526424" lon="1.8270407">
        <ele>137.0</ele>
        <time>2022-02-10T08:47:49Z</time>
      </trkpt>
      <trkpt lat="47.526424" lon="1.8270233">
        <ele>138.0</ele>
        <time>2022-02-10T08:47:50Z</time>
      </trkpt>
      <trkpt lat="47.526424" lon="1.8270038">
        <ele>138.0</ele>
        <time>2022-02-10T08:47:51Z</time>
      </trkpt>
      <trkpt lat="47.526424" lon="1.8269888">
        <ele>138.0</ele>
        <time>2022-02-10T08:47:52Z</time>
      </trkpt>
      <trkpt lat="47.52642" lon="1.8269682">
        <ele>138.0</ele>
        <time>2022-02-10T08:47:53Z</time>
      </trkpt>
      <trkpt lat="47.52642" lon="1.8269514">
        <ele>138.0</ele>
        <time>2022-02-10T08:47:54Z</time>
      </trkpt>
      <trkpt lat="47.52642" lon="1.8269345">
        <ele>138.0</ele>
        <time>2022-02-10T08:47:55Z</time>
      </trkpt>
      <trkpt lat="47.526417" lon="1.8269174">
        <ele>138.0</ele>
        <time>2022-02-10T08:47:56Z</time>
      </trkpt>
      <trkpt lat="47.526413" lon="1.826902">
        <ele>138.0</ele>
        <time>2022-02-10T08:47:57Z</time>
      </trkpt>
      <trkpt lat="47.526417" lon="1.8268805">
        <ele>138.0</ele>
        <time>2022-02-10T08:47:58Z</time>
      </trkpt>
      <trkpt lat="47.526417" lon="1.8268634">
        <ele>138.0</ele>
        <time>2022-02-10T08:47:59Z</time>
      </trkpt>
      <trkpt lat="47.52642" lon="1.826845">
        <ele>138.0</ele>
        <time>2022-02-10T08:48:00Z</time>
      </trkpt>
      <trkpt lat="47.52642" lon="1.8268253">
        <ele>138.0</ele>
        <time>2022-02-10T08:48:01Z</time>
      </trkpt>
      <trkpt lat="47.526424" lon="1.8268073">
        <ele>138.0</ele>
        <time>2022-02-10T08:48:02Z</time>
      </trkpt>
      <trkpt lat="47.526432" lon="1.8267825">
        <ele>138.0</ele>
        <time>2022-02-10T08:48:03Z</time>
      </trkpt>
      <trkpt lat="47.526436" lon="1.8267671">
        <ele>138.0</ele>
        <time>2022-02-10T08:48:04Z</time>
      </trkpt>
      <trkpt lat="47.526436" lon="1.8267487">
        <ele>138.0</ele>
        <time>2022-02-10T08:48:05Z</time>
      </trkpt>
      <trkpt lat="47.526443" lon="1.826734">
        <ele>139.0</ele>
        <time>2022-02-10T08:48:06Z</time>
      </trkpt>
      <trkpt lat="47.526443" lon="1.8267192">
        <ele>139.0</ele>
        <time>2022-02-10T08:48:07Z</time>
      </trkpt>
      <trkpt lat="47.526447" lon="1.8267006">
        <ele>139.0</ele>
        <time>2022-02-10T08:48:08Z</time>
      </trkpt>
      <trkpt lat="47.52645" lon="1.8266824">
        <ele>139.0</ele>
        <time>2022-02-10T08:48:09Z</time>
      </trkpt>
      <trkpt lat="47.526455" lon="1.8266643">
        <ele>139.0</ele>
        <time>2022-02-10T08:48:10Z</time>
      </trkpt>
      <trkpt lat="47.526455" lon="1.8266536">
        <ele>140.0</ele>
        <time>2022-02-10T08:48:11Z</time>
      </trkpt>
      <trkpt lat="47.526455" lon="1.826635">
        <ele>139.0</ele>
        <time>2022-02-10T08:48:12Z</time>
      </trkpt>
      <trkpt lat="47.526455" lon="1.8266124">
        <ele>140.0</ele>
        <time>2022-02-10T08:48:13Z</time>
      </trkpt>
      <trkpt lat="47.52645" lon="1.8265935">
        <ele>140.0</ele>
        <time>2022-02-10T08:48:14Z</time>
      </trkpt>
      <trkpt lat="47.52645" lon="1.8265828">
        <ele>141.0</ele>
        <time>2022-02-10T08:48:15Z</time>
      </trkpt>
      <trkpt lat="47.526455" lon="1.826571">
        <ele>141.0</ele>
        <time>2022-02-10T08:48:16Z</time>
      </trkpt>
      <trkpt lat="47.526455" lon="1.8265557">
        <ele>141.0</ele>
        <time>2022-02-10T08:48:17Z</time>
      </trkpt>
      <trkpt lat="47.526455" lon="1.8265382">
        <ele>141.0</ele>
        <time>2022-02-10T08:48:18Z</time>
      </trkpt>
      <trkpt lat="47.526455" lon="1.8265195">
        <ele>141.0</ele>
        <time>2022-02-10T08:48:19Z</time>
      </trkpt>
      <trkpt lat="47.52645" lon="1.8265026">
        <ele>142.0</ele>
        <time>2022-02-10T08:48:20Z</time>
      </trkpt>
      <trkpt lat="47.526447" lon="1.8264923">
        <ele>142.0</ele>
        <time>2022-02-10T08:48:21Z</time>
      </trkpt>
      <trkpt lat="47.526447" lon="1.8264815">
        <ele>143.0</ele>
        <time>2022-02-10T08:48:22Z</time>
      </trkpt>
      <trkpt lat="47.526447" lon="1.8264654">
        <ele>143.0</ele>
        <time>2022-02-10T08:48:23Z</time>
      </trkpt>
      <trkpt lat="47.526447" lon="1.826451">
        <ele>143.0</ele>
        <time>2022-02-10T08:48:24Z</time>
      </trkpt>
      <trkpt lat="47.526447" lon="1.8264359">
        <ele>143.0</ele>
        <time>2022-02-10T08:48:25Z</time>
      </trkpt>
      <trkpt lat="47.52645" lon="1.8264236">
        <ele>142.0</ele>
        <time>2022-02-10T08:48:26Z</time>
      </trkpt>
      <trkpt lat="47.526455" lon="1.8264064">
        <ele>142.0</ele>
        <time>2022-02-10T08:48:27Z</time>
      </trkpt>
      <trkpt lat="47.526455" lon="1.8263922">
        <ele>143.0</ele>
        <time>2022-02-10T08:48:28Z</time>
      </trkpt>
      <trkpt lat="47.526455" lon="1.8263761">
        <ele>143.0</ele>
        <time>2022-02-10T08:48:29Z</time>
      </trkpt>
      <trkpt lat="47.526455" lon="1.826359">
        <ele>143.0</ele>
        <time>2022-02-10T08:48:30Z</time>
      </trkpt>
      <trkpt lat="47.52645" lon="1.8263478">
        <ele>143.0</ele>
        <time>2022-02-10T08:48:31Z</time>
      </trkpt>
      <trkpt lat="47.52645" lon="1.826334">
        <ele>143.0</ele>
        <time>2022-02-10T08:48:32Z</time>
      </trkpt>
      <trkpt lat="47.52645" lon="1.8263228">
        <ele>143.0</ele>
        <time>2022-02-10T08:48:33Z</time>
      </trkpt>
      <trkpt lat="47.52645" lon="1.8263111">
        <ele>143.0</ele>
        <time>2022-02-10T08:48:34Z</time>
      </trkpt>
      <trkpt lat="47.526455" lon="1.8262962">
        <ele>143.0</ele>
        <time>2022-02-10T08:48:35Z</time>
      </trkpt>
      <trkpt lat="47.52645" lon="1.8262776">
        <ele>144.0</ele>
        <time>2022-02-10T08:48:36Z</time>
      </trkpt>
      <trkpt lat="47.52645" lon="1.8262564">
        <ele>144.0</ele>
        <time>2022-02-10T08:48:37Z</time>
      </trkpt>
      <trkpt lat="47.52645" lon="1.8262378">
        <ele>144.0</ele>
        <time>2022-02-10T08:48:38Z</time>
      </trkpt>
      <trkpt lat="47.52645" lon="1.826217">
        <ele>144.0</ele>
        <time>2022-02-10T08:48:39Z</time>
      </trkpt>
      <trkpt lat="47.526447" lon="1.8261976">
        <ele>144.0</ele>
        <time>2022-02-10T08:48:40Z</time>
      </trkpt>
      <trkpt lat="47.526447" lon="1.826178">
        <ele>144.0</ele>
        <time>2022-02-10T08:48:41Z</time>
      </trkpt>
      <trkpt lat="47.526447" lon="1.8261613">
        <ele>144.0</ele>
        <time>2022-02-10T08:48:42Z</time>
      </trkpt>
      <trkpt lat="47.526443" lon="1.8261487">
        <ele>144.0</ele>
        <time>2022-02-10T08:48:43Z</time>
      </trkpt>
      <trkpt lat="47.526447" lon="1.8261303">
        <ele>144.0</ele>
        <time>2022-02-10T08:48:44Z</time>
      </trkpt>
      <trkpt lat="47.52645" lon="1.8261132">
        <ele>144.0</ele>
        <time>2022-02-10T08:48:45Z</time>
      </trkpt>
      <trkpt lat="47.526447" lon="1.8261044">
        <ele>144.0</ele>
        <time>2022-02-10T08:48:46Z</time>
      </trkpt>
      <trkpt lat="47.526447" lon="1.8260927">
        <ele>144.0</ele>
        <time>2022-02-10T08:48:47Z</time>
      </trkpt>
      <trkpt lat="47.526447" lon="1.8260823">
        <ele>143.0</ele>
        <time>2022-02-10T08:48:48Z</time>
      </trkpt>
      <trkpt lat="47.52645" lon="1.8260659">
        <ele>143.0</ele>
        <time>2022-02-10T08:48:49Z</time>
      </trkpt>
      <trkpt lat="47.526455" lon="1.8260496">
        <ele>143.0</ele>
        <time>2022-02-10T08:48:50Z</time>
      </trkpt>
      <trkpt lat="47.526455" lon="1.8260299">
        <ele>143.0</ele>
        <time>2022-02-10T08:48:51Z</time>
      </trkpt>
      <trkpt lat="47.526455" lon="1.8260086">
        <ele>143.0</ele>
        <time>2022-02-10T08:48:52Z</time>
      </trkpt>
      <trkpt lat="47.526455" lon="1.8259913">
        <ele>143.0</ele>
        <time>2022-02-10T08:48:53Z</time>
      </trkpt>
      <trkpt lat="47.52646" lon="1.8259735">
        <ele>143.0</ele>
        <time>2022-02-10T08:48:54Z</time>
      </trkpt>
      <trkpt lat="47.52646" lon="1.8259579">
        <ele>143.0</ele>
        <time>2022-02-10T08:48:55Z</time>
      </trkpt>
      <trkpt lat="47.526463" lon="1.8259486">
        <ele>143.0</ele>
        <time>2022-02-10T08:48:56Z</time>
      </trkpt>
      <trkpt lat="47.526463" lon="1.8259366">
        <ele>143.0</ele>
        <time>2022-02-10T08:48:57Z</time>
      </trkpt>
      <trkpt lat="47.526463" lon="1.8259366">
        <ele>143.0</ele>
        <time>2022-02-10T08:48:58Z</time>
      </trkpt>
      <trkpt lat="47.526463" lon="1.8259366">
        <ele>143.0</ele>
        <time>2022-02-10T08:48:59Z</time>
      </trkpt>
      <trkpt lat="47.526466" lon="1.8259029">
        <ele>143.0</ele>
        <time>2022-02-10T08:49:00Z</time>
      </trkpt>
      <trkpt lat="47.526466" lon="1.8258924">
        <ele>143.0</ele>
        <time>2022-02-10T08:49:01Z</time>
      </trkpt>
      <trkpt lat="47.526466" lon="1.8258755">
        <ele>143.0</ele>
        <time>2022-02-10T08:49:02Z</time>
      </trkpt>
      <trkpt lat="47.526466" lon="1.8258576">
        <ele>143.0</ele>
        <time>2022-02-10T08:49:03Z</time>
      </trkpt>
      <trkpt lat="47.526466" lon="1.8258368">
        <ele>144.0</ele>
        <time>2022-02-10T08:49:04Z</time>
      </trkpt>
      <trkpt lat="47.526463" lon="1.8258225">
        <ele>143.0</ele>
        <time>2022-02-10T08:49:05Z</time>
      </trkpt>
      <trkpt lat="47.52646" lon="1.8258069">
        <ele>143.0</ele>
        <time>2022-02-10T08:49:06Z</time>
      </trkpt>
      <trkpt lat="47.52646" lon="1.8257909">
        <ele>143.0</ele>
        <time>2022-02-10T08:49:07Z</time>
      </trkpt>
      <trkpt lat="47.526463" lon="1.8257785">
        <ele>144.0</ele>
        <time>2022-02-10T08:49:08Z</time>
      </trkpt>
      <trkpt lat="47.526466" lon="1.825759">
        <ele>144.0</ele>
        <time>2022-02-10T08:49:09Z</time>
      </trkpt>
      <trkpt lat="47.526463" lon="1.8257437">
        <ele>144.0</ele>
        <time>2022-02-10T08:49:10Z</time>
      </trkpt>
      <trkpt lat="47.526463" lon="1.8257259">
        <ele>143.0</ele>
        <time>2022-02-10T08:49:11Z</time>
      </trkpt>
      <trkpt lat="47.526463" lon="1.8257107">
        <ele>143.0</ele>
        <time>2022-02-10T08:49:12Z</time>
      </trkpt>
      <trkpt lat="47.526463" lon="1.8256932">
        <ele>143.0</ele>
        <time>2022-02-10T08:49:13Z</time>
      </trkpt>
      <trkpt lat="47.526463" lon="1.8256739">
        <ele>143.0</ele>
        <time>2022-02-10T08:49:14Z</time>
      </trkpt>
      <trkpt lat="47.526463" lon="1.8256599">
        <ele>143.0</ele>
        <time>2022-02-10T08:49:15Z</time>
      </trkpt>
      <trkpt lat="47.526466" lon="1.8256418">
        <ele>143.0</ele>
        <time>2022-02-10T08:49:16Z</time>
      </trkpt>
      <trkpt lat="47.52647" lon="1.825627">
        <ele>143.0</ele>
        <time>2022-02-10T08:49:17Z</time>
      </trkpt>
      <trkpt lat="47.52647" lon="1.8256139">
        <ele>143.0</ele>
        <time>2022-02-10T08:49:18Z</time>
      </trkpt>
      <trkpt lat="47.526474" lon="1.8255951">
        <ele>143.0</ele>
        <time>2022-02-10T08:49:19Z</time>
      </trkpt>
      <trkpt lat="47.526474" lon="1.8255842">
        <ele>143.0</ele>
        <time>2022-02-10T08:49:20Z</time>
      </trkpt>
      <trkpt lat="47.526474" lon="1.825566">
        <ele>142.0</ele>
        <time>2022-02-10T08:49:21Z</time>
      </trkpt>
      <trkpt lat="47.526474" lon="1.8255491">
        <ele>142.0</ele>
        <time>2022-02-10T08:49:22Z</time>
      </trkpt>
      <trkpt lat="47.526474" lon="1.825534">
        <ele>142.0</ele>
        <time>2022-02-10T08:49:23Z</time>
      </trkpt>
      <trkpt lat="47.526466" lon="1.8255205">
        <ele>142.0</ele>
        <time>2022-02-10T08:49:24Z</time>
      </trkpt>
      <trkpt lat="47.526466" lon="1.8255076">
        <ele>142.0</ele>
        <time>2022-02-10T08:49:25Z</time>
      </trkpt>
      <trkpt lat="47.526466" lon="1.8254926">
        <ele>142.0</ele>
        <time>2022-02-10T08:49:26Z</time>
      </trkpt>
      <trkpt lat="47.526466" lon="1.8254926">
        <ele>142.0</ele>
        <time>2022-02-10T08:49:27Z</time>
      </trkpt>
      <trkpt lat="47.526466" lon="1.8254646">
        <ele>142.0</ele>
        <time>2022-02-10T08:49:28Z</time>
      </trkpt>
      <trkpt lat="47.526463" lon="1.8254468">
        <ele>141.0</ele>
        <time>2022-02-10T08:49:29Z</time>
      </trkpt>
      <trkpt lat="47.526463" lon="1.8254344">
        <ele>141.0</ele>
        <time>2022-02-10T08:49:30Z</time>
      </trkpt>
      <trkpt lat="47.526463" lon="1.8254222">
        <ele>142.0</ele>
        <time>2022-02-10T08:49:31Z</time>
      </trkpt>
      <trkpt lat="47.526463" lon="1.8254043">
        <ele>141.0</ele>
        <time>2022-02-10T08:49:32Z</time>
      </trkpt>
      <trkpt lat="47.526463" lon="1.825386">
        <ele>141.0</ele>
        <time>2022-02-10T08:49:33Z</time>
      </trkpt>
      <trkpt lat="47.526463" lon="1.8253651">
        <ele>141.0</ele>
        <time>2022-02-10T08:49:34Z</time>
      </trkpt>
      <trkpt lat="47.526463" lon="1.8253468">
        <ele>141.0</ele>
        <time>2022-02-10T08:49:35Z</time>
      </trkpt>
      <trkpt lat="47.526466" lon="1.8253292">
        <ele>141.0</ele>
        <time>2022-02-10T08:49:36Z</time>
      </trkpt>
      <trkpt lat="47.526466" lon="1.8253063">
        <ele>141.0</ele>
        <time>2022-02-10T08:49:37Z</time>
      </trkpt>
      <trkpt lat="47.52647" lon="1.8252835">
        <ele>142.0</ele>
        <time>2022-02-10T08:49:38Z</time>
      </trkpt>
      <trkpt lat="47.52647" lon="1.8252603">
        <ele>141.0</ele>
        <time>2022-02-10T08:49:39Z</time>
      </trkpt>
      <trkpt lat="47.52647" lon="1.8252354">
        <ele>141.0</ele>
        <time>2022-02-10T08:49:40Z</time>
      </trkpt>
      <trkpt lat="47.52647" lon="1.8252225">
        <ele>141.0</ele>
        <time>2022-02-10T08:49:41Z</time>
      </trkpt>
      <trkpt lat="47.526474" lon="1.8252126">
        <ele>141.0</ele>
        <time>2022-02-10T08:49:42Z</time>
      </trkpt>
      <trkpt lat="47.52647" lon="1.8251959">
        <ele>141.0</ele>
        <time>2022-02-10T08:49:43Z</time>
      </trkpt>
      <trkpt lat="47.526474" lon="1.8251767">
        <ele>141.0</ele>
        <time>2022-02-10T08:49:44Z</time>
      </trkpt>
      <trkpt lat="47.526474" lon="1.8251579">
        <ele>141.0</ele>
        <time>2022-02-10T08:49:45Z</time>
      </trkpt>
      <trkpt lat="47.526474" lon="1.8251393">
        <ele>141.0</ele>
        <time>2022-02-10T08:49:46Z</time>
      </trkpt>
      <trkpt lat="47.52647" lon="1.8251239">
        <ele>141.0</ele>
        <time>2022-02-10T08:49:47Z</time>
      </trkpt>
      <trkpt lat="47.526466" lon="1.825108">
        <ele>141.0</ele>
        <time>2022-02-10T08:49:48Z</time>
      </trkpt>
      <trkpt lat="47.526466" lon="1.8250909">
        <ele>141.0</ele>
        <time>2022-02-10T08:49:49Z</time>
      </trkpt>
      <trkpt lat="47.526466" lon="1.8250725">
        <ele>140.0</ele>
        <time>2022-02-10T08:49:50Z</time>
      </trkpt>
      <trkpt lat="47.526466" lon="1.8250564">
        <ele>140.0</ele>
        <time>2022-02-10T08:49:51Z</time>
      </trkpt>
      <trkpt lat="47.526466" lon="1.825042">
        <ele>140.0</ele>
        <time>2022-02-10T08:49:52Z</time>
      </trkpt>
      <trkpt lat="47.52647" lon="1.8250269">
        <ele>140.0</ele>
        <time>2022-02-10T08:49:53Z</time>
      </trkpt>
      <trkpt lat="47.52647" lon="1.8250124">
        <ele>140.0</ele>
        <time>2022-02-10T08:49:54Z</time>
      </trkpt>
      <trkpt lat="47.526474" lon="1.8250014">
        <ele>140.0</ele>
        <time>2022-02-10T08:49:55Z</time>
      </trkpt>
      <trkpt lat="47.52647" lon="1.8249842">
        <ele>140.0</ele>
        <time>2022-02-10T08:49:56Z</time>
      </trkpt>
      <trkpt lat="47.52647" lon="1.8249656">
        <ele>140.0</ele>
        <time>2022-02-10T08:49:57Z</time>
      </trkpt>
      <trkpt lat="47.52647" lon="1.8249487">
        <ele>140.0</ele>
        <time>2022-02-10T08:49:58Z</time>
      </trkpt>
      <trkpt lat="47.52647" lon="1.824933">
        <ele>140.0</ele>
        <time>2022-02-10T08:49:59Z</time>
      </trkpt>
      <trkpt lat="47.526474" lon="1.8249156">
        <ele>140.0</ele>
        <time>2022-02-10T08:50:00Z</time>
      </trkpt>
      <trkpt lat="47.52647" lon="1.8249013">
        <ele>140.0</ele>
        <time>2022-02-10T08:50:01Z</time>
      </trkpt>
      <trkpt lat="47.52647" lon="1.8248851">
        <ele>140.0</ele>
        <time>2022-02-10T08:50:02Z</time>
      </trkpt>
      <trkpt lat="47.52647" lon="1.8248678">
        <ele>140.0</ele>
        <time>2022-02-10T08:50:03Z</time>
      </trkpt>
      <trkpt lat="47.526466" lon="1.8248539">
        <ele>140.0</ele>
        <time>2022-02-10T08:50:04Z</time>
      </trkpt>
      <trkpt lat="47.526466" lon="1.824836">
        <ele>140.0</ele>
        <time>2022-02-10T08:50:05Z</time>
      </trkpt>
      <trkpt lat="47.526466" lon="1.8248199">
        <ele>140.0</ele>
        <time>2022-02-10T08:50:06Z</time>
      </trkpt>
      <trkpt lat="47.526466" lon="1.824802">
        <ele>140.0</ele>
        <time>2022-02-10T08:50:07Z</time>
      </trkpt>
      <trkpt lat="47.526463" lon="1.8247837">
        <ele>140.0</ele>
        <time>2022-02-10T08:50:08Z</time>
      </trkpt>
      <trkpt lat="47.526466" lon="1.8247674">
        <ele>140.0</ele>
        <time>2022-02-10T08:50:09Z</time>
      </trkpt>
      <trkpt lat="47.52647" lon="1.8247544">
        <ele>140.0</ele>
        <time>2022-02-10T08:50:10Z</time>
      </trkpt>
      <trkpt lat="47.52647" lon="1.8247397">
        <ele>139.0</ele>
        <time>2022-02-10T08:50:11Z</time>
      </trkpt>
      <trkpt lat="47.526474" lon="1.8247237">
        <ele>139.0</ele>
        <time>2022-02-10T08:50:12Z</time>
      </trkpt>
      <trkpt lat="47.526474" lon="1.8247087">
        <ele>139.0</ele>
        <time>2022-02-10T08:50:13Z</time>
      </trkpt>
      <trkpt lat="47.526474" lon="1.8246877">
        <ele>138.0</ele>
        <time>2022-02-10T08:50:14Z</time>
      </trkpt>
      <trkpt lat="47.52647" lon="1.8246679">
        <ele>137.0</ele>
        <time>2022-02-10T08:50:15Z</time>
      </trkpt>
      <trkpt lat="47.526474" lon="1.8246439">
        <ele>137.0</ele>
        <time>2022-02-10T08:50:16Z</time>
      </trkpt>
      <trkpt lat="47.526478" lon="1.8246164">
        <ele>137.0</ele>
        <time>2022-02-10T08:50:17Z</time>
      </trkpt>
      <trkpt lat="47.52648" lon="1.8246002">
        <ele>137.0</ele>
        <time>2022-02-10T08:50:18Z</time>
      </trkpt>
      <trkpt lat="47.52648" lon="1.8245847">
        <ele>137.0</ele>
        <time>2022-02-10T08:50:19Z</time>
      </trkpt>
      <trkpt lat="47.52648" lon="1.824568">
        <ele>137.0</ele>
        <time>2022-02-10T08:50:20Z</time>
      </trkpt>
      <trkpt lat="47.52648" lon="1.8245497">
        <ele>137.0</ele>
        <time>2022-02-10T08:50:21Z</time>
      </trkpt>
      <trkpt lat="47.526485" lon="1.8245319">
        <ele>137.0</ele>
        <time>2022-02-10T08:50:22Z</time>
      </trkpt>
      <trkpt lat="47.52648" lon="1.824516">
        <ele>137.0</ele>
        <time>2022-02-10T08:50:23Z</time>
      </trkpt>
      <trkpt lat="47.52648" lon="1.8245006">
        <ele>137.0</ele>
        <time>2022-02-10T08:50:24Z</time>
      </trkpt>
      <trkpt lat="47.52648" lon="1.8244898">
        <ele>137.0</ele>
        <time>2022-02-10T08:50:25Z</time>
      </trkpt>
      <trkpt lat="47.526485" lon="1.8244779">
        <ele>137.0</ele>
        <time>2022-02-10T08:50:26Z</time>
      </trkpt>
      <trkpt lat="47.526485" lon="1.8244779">
        <ele>137.0</ele>
        <time>2022-02-10T08:50:27Z</time>
      </trkpt>
      <trkpt lat="47.526485" lon="1.8244779">
        <ele>137.0</ele>
        <time>2022-02-10T08:50:28Z</time>
      </trkpt>
      <trkpt lat="47.52649" lon="1.8244414">
        <ele>136.0</ele>
        <time>2022-02-10T08:50:29Z</time>
      </trkpt>
      <trkpt lat="47.526493" lon="1.8244333">
        <ele>136.0</ele>
        <time>2022-02-10T08:50:30Z</time>
      </trkpt>
      <trkpt lat="47.526493" lon="1.8244232">
        <ele>136.0</ele>
        <time>2022-02-10T08:50:31Z</time>
      </trkpt>
      <trkpt lat="47.526497" lon="1.8244071">
        <ele>136.0</ele>
        <time>2022-02-10T08:50:32Z</time>
      </trkpt>
      <trkpt lat="47.526497" lon="1.8243898">
        <ele>135.0</ele>
        <time>2022-02-10T08:50:33Z</time>
      </trkpt>
      <trkpt lat="47.526497" lon="1.8243716">
        <ele>135.0</ele>
        <time>2022-02-10T08:50:34Z</time>
      </trkpt>
      <trkpt lat="47.526497" lon="1.8243561">
        <ele>135.0</ele>
        <time>2022-02-10T08:50:35Z</time>
      </trkpt>
      <trkpt lat="47.526497" lon="1.8243396">
        <ele>135.0</ele>
        <time>2022-02-10T08:50:36Z</time>
      </trkpt>
      <trkpt lat="47.526497" lon="1.8243396">
        <ele>135.0</ele>
        <time>2022-02-10T08:50:37Z</time>
      </trkpt>
      <trkpt lat="47.526497" lon="1.8243396">
        <ele>135.0</ele>
        <time>2022-02-10T08:50:38Z</time>
      </trkpt>
      <trkpt lat="47.526505" lon="1.824306">
        <ele>135.0</ele>
        <time>2022-02-10T08:50:39Z</time>
      </trkpt>
      <trkpt lat="47.52651" lon="1.8242909">
        <ele>134.0</ele>
        <time>2022-02-10T08:50:40Z</time>
      </trkpt>
      <trkpt lat="47.52651" lon="1.824275">
        <ele>134.0</ele>
        <time>2022-02-10T08:50:41Z</time>
      </trkpt>
      <trkpt lat="47.526512" lon="1.8242592">
        <ele>134.0</ele>
        <time>2022-02-10T08:50:42Z</time>
      </trkpt>
      <trkpt lat="47.526512" lon="1.8242427">
        <ele>134.0</ele>
        <time>2022-02-10T08:50:43Z</time>
      </trkpt>
      <trkpt lat="47.526512" lon="1.8242261">
        <ele>134.0</ele>
        <time>2022-02-10T08:50:44Z</time>
      </trkpt>
      <trkpt lat="47.526516" lon="1.8242078">
        <ele>134.0</ele>
        <time>2022-02-10T08:50:45Z</time>
      </trkpt>
      <trkpt lat="47.526516" lon="1.8241926">
        <ele>134.0</ele>
        <time>2022-02-10T08:50:46Z</time>
      </trkpt>
      <trkpt lat="47.526512" lon="1.8241758">
        <ele>133.0</ele>
        <time>2022-02-10T08:50:47Z</time>
      </trkpt>
      <trkpt lat="47.52651" lon="1.8241568">
        <ele>133.0</ele>
        <time>2022-02-10T08:50:48Z</time>
      </trkpt>
      <trkpt lat="47.52651" lon="1.8241397">
        <ele>133.0</ele>
        <time>2022-02-10T08:50:49Z</time>
      </trkpt>
      <trkpt lat="47.52651" lon="1.8241235">
        <ele>133.0</ele>
        <time>2022-02-10T08:50:50Z</time>
      </trkpt>
      <trkpt lat="47.52651" lon="1.8241235">
        <ele>133.0</ele>
        <time>2022-02-10T08:50:51Z</time>
      </trkpt>
      <trkpt lat="47.52651" lon="1.8241235">
        <ele>133.0</ele>
        <time>2022-02-10T08:50:52Z</time>
      </trkpt>
      <trkpt lat="47.526505" lon="1.8240975">
        <ele>133.0</ele>
        <time>2022-02-10T08:50:53Z</time>
      </trkpt>
      <trkpt lat="47.526505" lon="1.8240864">
        <ele>133.0</ele>
        <time>2022-02-10T08:50:54Z</time>
      </trkpt>
      <trkpt lat="47.52651" lon="1.8240753">
        <ele>133.0</ele>
        <time>2022-02-10T08:50:55Z</time>
      </trkpt>
      <trkpt lat="47.52651" lon="1.8240607">
        <ele>132.0</ele>
        <time>2022-02-10T08:50:56Z</time>
      </trkpt>
      <trkpt lat="47.52651" lon="1.8240455">
        <ele>132.0</ele>
        <time>2022-02-10T08:50:57Z</time>
      </trkpt>
      <trkpt lat="47.526512" lon="1.8240311">
        <ele>133.0</ele>
        <time>2022-02-10T08:50:58Z</time>
      </trkpt>
      <trkpt lat="47.526516" lon="1.8240162">
        <ele>132.0</ele>
        <time>2022-02-10T08:50:59Z</time>
      </trkpt>
      <trkpt lat="47.526516" lon="1.8240162">
        <ele>132.0</ele>
        <time>2022-02-10T08:51:00Z</time>
      </trkpt>
      <trkpt lat="47.526516" lon="1.8240162">
        <ele>132.0</ele>
        <time>2022-02-10T08:51:01Z</time>
      </trkpt>
      <trkpt lat="47.526516" lon="1.8239758">
        <ele>132.0</ele>
        <time>2022-02-10T08:51:02Z</time>
      </trkpt>
      <trkpt lat="47.526512" lon="1.8239633">
        <ele>132.0</ele>
        <time>2022-02-10T08:51:03Z</time>
      </trkpt>
      <trkpt lat="47.526512" lon="1.8239433">
        <ele>132.0</ele>
        <time>2022-02-10T08:51:04Z</time>
      </trkpt>
      <trkpt lat="47.526516" lon="1.8239231">
        <ele>132.0</ele>
        <time>2022-02-10T08:51:05Z</time>
      </trkpt>
      <trkpt lat="47.52652" lon="1.8239108">
        <ele>132.0</ele>
        <time>2022-02-10T08:51:06Z</time>
      </trkpt>
      <trkpt lat="47.526527" lon="1.8238957">
        <ele>132.0</ele>
        <time>2022-02-10T08:51:07Z</time>
      </trkpt>
      <trkpt lat="47.526524" lon="1.8238817">
        <ele>131.0</ele>
        <time>2022-02-10T08:51:08Z</time>
      </trkpt>
      <trkpt lat="47.526524" lon="1.8238648">
        <ele>131.0</ele>
        <time>2022-02-10T08:51:09Z</time>
      </trkpt>
      <trkpt lat="47.526524" lon="1.8238454">
        <ele>131.0</ele>
        <time>2022-02-10T08:51:10Z</time>
      </trkpt>
      <trkpt lat="47.52652" lon="1.8238285">
        <ele>131.0</ele>
        <time>2022-02-10T08:51:11Z</time>
      </trkpt>
      <trkpt lat="47.526516" lon="1.8238131">
        <ele>130.0</ele>
        <time>2022-02-10T08:51:12Z</time>
      </trkpt>
      <trkpt lat="47.526516" lon="1.8237922">
        <ele>130.0</ele>
        <time>2022-02-10T08:51:13Z</time>
      </trkpt>
      <trkpt lat="47.526516" lon="1.8237746">
        <ele>129.0</ele>
        <time>2022-02-10T08:51:14Z</time>
      </trkpt>
      <trkpt lat="47.52651" lon="1.8237622">
        <ele>129.0</ele>
        <time>2022-02-10T08:51:15Z</time>
      </trkpt>
      <trkpt lat="47.5265" lon="1.8237506">
        <ele>128.0</ele>
        <time>2022-02-10T08:51:16Z</time>
      </trkpt>
      <trkpt lat="47.526493" lon="1.8237356">
        <ele>128.0</ele>
        <time>2022-02-10T08:51:17Z</time>
      </trkpt>
      <trkpt lat="47.526493" lon="1.8237356">
        <ele>128.0</ele>
        <time>2022-02-10T08:51:18Z</time>
      </trkpt>
      <trkpt lat="47.526493" lon="1.8237356">
        <ele>128.0</ele>
        <time>2022-02-10T08:51:19Z</time>
      </trkpt>
      <trkpt lat="47.526474" lon="1.8237014">
        <ele>126.0</ele>
        <time>2022-02-10T08:51:20Z</time>
      </trkpt>
      <trkpt lat="47.526466" lon="1.8236911">
        <ele>126.0</ele>
        <time>2022-02-10T08:51:21Z</time>
      </trkpt>
      <trkpt lat="47.526455" lon="1.8236742">
        <ele>127.0</ele>
        <time>2022-02-10T08:51:22Z</time>
      </trkpt>
      <trkpt lat="47.526447" lon="1.8236547">
        <ele>127.0</ele>
        <time>2022-02-10T08:51:23Z</time>
      </trkpt>
      <trkpt lat="47.526443" lon="1.8236498">
        <ele>126.0</ele>
        <time>2022-02-10T08:51:24Z</time>
      </trkpt>
      <trkpt lat="47.52644" lon="1.823635">
        <ele>126.0</ele>
        <time>2022-02-10T08:51:25Z</time>
      </trkpt>
      <trkpt lat="47.526436" lon="1.8236184">
        <ele>126.0</ele>
        <time>2022-02-10T08:51:26Z</time>
      </trkpt>
      <trkpt lat="47.526436" lon="1.8236059">
        <ele>126.0</ele>
        <time>2022-02-10T08:51:27Z</time>
      </trkpt>
      <trkpt lat="47.526436" lon="1.8235915">
        <ele>126.0</ele>
        <time>2022-02-10T08:51:28Z</time>
      </trkpt>
      <trkpt lat="47.526436" lon="1.8235915">
        <ele>126.0</ele>
        <time>2022-02-10T08:51:29Z</time>
      </trkpt>
      <trkpt lat="47.52644" lon="1.8235655">
        <ele>127.0</ele>
        <time>2022-02-10T08:51:30Z</time>
      </trkpt>
      <trkpt lat="47.526436" lon="1.8235533">
        <ele>127.0</ele>
        <time>2022-02-10T08:51:31Z</time>
      </trkpt>
      <trkpt lat="47.52644" lon="1.8235428">
        <ele>127.0</ele>
        <time>2022-02-10T08:51:32Z</time>
      </trkpt>
      <trkpt lat="47.526443" lon="1.8235319">
        <ele>127.0</ele>
        <time>2022-02-10T08:51:33Z</time>
      </trkpt>
      <trkpt lat="47.526455" lon="1.8235248">
        <ele>127.0</ele>
        <time>2022-02-10T08:51:34Z</time>
      </trkpt>
      <trkpt lat="47.526466" lon="1.8235099">
        <ele>127.0</ele>
        <time>2022-02-10T08:51:35Z</time>
      </trkpt>
      <trkpt lat="47.526474" lon="1.823498">
        <ele>127.0</ele>
        <time>2022-02-10T08:51:36Z</time>
      </trkpt>
      <trkpt lat="47.52648" lon="1.8234855">
        <ele>127.0</ele>
        <time>2022-02-10T08:51:37Z</time>
      </trkpt>
      <trkpt lat="47.52649" lon="1.8234729">
        <ele>127.0</ele>
        <time>2022-02-10T08:51:38Z</time>
      </trkpt>
      <trkpt lat="47.526497" lon="1.823459">
        <ele>127.0</ele>
        <time>2022-02-10T08:51:39Z</time>
      </trkpt>
      <trkpt lat="47.5265" lon="1.8234472">
        <ele>127.0</ele>
        <time>2022-02-10T08:51:40Z</time>
      </trkpt>
      <trkpt lat="47.52651" lon="1.8234322">
        <ele>127.0</ele>
        <time>2022-02-10T08:51:41Z</time>
      </trkpt>
      <trkpt lat="47.52652" lon="1.8234234">
        <ele>128.0</ele>
        <time>2022-02-10T08:51:42Z</time>
      </trkpt>
      <trkpt lat="47.526524" lon="1.8234153">
        <ele>129.0</ele>
        <time>2022-02-10T08:51:43Z</time>
      </trkpt>
      <trkpt lat="47.52653" lon="1.8234024">
        <ele>129.0</ele>
        <time>2022-02-10T08:51:44Z</time>
      </trkpt>
      <trkpt lat="47.526535" lon="1.8233889">
        <ele>129.0</ele>
        <time>2022-02-10T08:51:45Z</time>
      </trkpt>
      <trkpt lat="47.526546" lon="1.8233751">
        <ele>129.0</ele>
        <time>2022-02-10T08:51:46Z</time>
      </trkpt>
      <trkpt lat="47.52655" lon="1.823362">
        <ele>129.0</ele>
        <time>2022-02-10T08:51:47Z</time>
      </trkpt>
      <trkpt lat="47.526558" lon="1.8233443">
        <ele>129.0</ele>
        <time>2022-02-10T08:51:48Z</time>
      </trkpt>
      <trkpt lat="47.526566" lon="1.8233254">
        <ele>129.0</ele>
        <time>2022-02-10T08:51:49Z</time>
      </trkpt>
      <trkpt lat="47.526573" lon="1.8233081">
        <ele>130.0</ele>
        <time>2022-02-10T08:51:50Z</time>
      </trkpt>
      <trkpt lat="47.526577" lon="1.8232987">
        <ele>130.0</ele>
        <time>2022-02-10T08:51:51Z</time>
      </trkpt>
      <trkpt lat="47.52658" lon="1.8232841">
        <ele>130.0</ele>
        <time>2022-02-10T08:51:52Z</time>
      </trkpt>
      <trkpt lat="47.526585" lon="1.8232703">
        <ele>131.0</ele>
        <time>2022-02-10T08:51:53Z</time>
      </trkpt>
      <trkpt lat="47.526585" lon="1.8232703">
        <ele>131.0</ele>
        <time>2022-02-10T08:51:54Z</time>
      </trkpt>
      <trkpt lat="47.526585" lon="1.8232703">
        <ele>131.0</ele>
        <time>2022-02-10T08:51:55Z</time>
      </trkpt>
      <trkpt lat="47.5266" lon="1.8232373">
        <ele>131.0</ele>
        <time>2022-02-10T08:51:56Z</time>
      </trkpt>
      <trkpt lat="47.526608" lon="1.8232195">
        <ele>131.0</ele>
        <time>2022-02-10T08:51:57Z</time>
      </trkpt>
      <trkpt lat="47.52662" lon="1.8232148">
        <ele>131.0</ele>
        <time>2022-02-10T08:51:58Z</time>
      </trkpt>
      <trkpt lat="47.526623" lon="1.8232007">
        <ele>130.0</ele>
        <time>2022-02-10T08:51:59Z</time>
      </trkpt>
      <trkpt lat="47.526627" lon="1.8231843">
        <ele>130.0</ele>
        <time>2022-02-10T08:52:00Z</time>
      </trkpt>
      <trkpt lat="47.52663" lon="1.823168">
        <ele>129.0</ele>
        <time>2022-02-10T08:52:01Z</time>
      </trkpt>
      <trkpt lat="47.526638" lon="1.823151">
        <ele>129.0</ele>
        <time>2022-02-10T08:52:02Z</time>
      </trkpt>
      <trkpt lat="47.52664" lon="1.8231375">
        <ele>129.0</ele>
        <time>2022-02-10T08:52:03Z</time>
      </trkpt>
      <trkpt lat="47.526653" lon="1.8231279">
        <ele>129.0</ele>
        <time>2022-02-10T08:52:04Z</time>
      </trkpt>
      <trkpt lat="47.52666" lon="1.8231187">
        <ele>129.0</ele>
        <time>2022-02-10T08:52:05Z</time>
      </trkpt>
      <trkpt lat="47.52667" lon="1.8231068">
        <ele>128.0</ele>
        <time>2022-02-10T08:52:06Z</time>
      </trkpt>
      <trkpt lat="47.526676" lon="1.8230921">
        <ele>129.0</ele>
        <time>2022-02-10T08:52:07Z</time>
      </trkpt>
      <trkpt lat="47.526688" lon="1.8230765">
        <ele>129.0</ele>
        <time>2022-02-10T08:52:08Z</time>
      </trkpt>
      <trkpt lat="47.52669" lon="1.8230575">
        <ele>128.0</ele>
        <time>2022-02-10T08:52:09Z</time>
      </trkpt>
      <trkpt lat="47.526695" lon="1.8230397">
        <ele>128.0</ele>
        <time>2022-02-10T08:52:10Z</time>
      </trkpt>
      <trkpt lat="47.526703" lon="1.8230247">
        <ele>127.0</ele>
        <time>2022-02-10T08:52:11Z</time>
      </trkpt>
      <trkpt lat="47.52671" lon="1.8230094">
        <ele>128.0</ele>
        <time>2022-02-10T08:52:12Z</time>
      </trkpt>
      <trkpt lat="47.526714" lon="1.8229963">
        <ele>128.0</ele>
        <time>2022-02-10T08:52:13Z</time>
      </trkpt>
      <trkpt lat="47.52672" lon="1.8229839">
        <ele>128.0</ele>
        <time>2022-02-10T08:52:14Z</time>
      </trkpt>
      <trkpt lat="47.526722" lon="1.8229678">
        <ele>128.0</ele>
        <time>2022-02-10T08:52:15Z</time>
      </trkpt>
      <trkpt lat="47.526726" lon="1.8229511">
        <ele>128.0</ele>
        <time>2022-02-10T08:52:16Z</time>
      </trkpt>
      <trkpt lat="47.526733" lon="1.8229357">
        <ele>128.0</ele>
        <time>2022-02-10T08:52:17Z</time>
      </trkpt>
      <trkpt lat="47.52674" lon="1.8229204">
        <ele>128.0</ele>
        <time>2022-02-10T08:52:18Z</time>
      </trkpt>
      <trkpt lat="47.52675" lon="1.8229092">
        <ele>128.0</ele>
        <time>2022-02-10T08:52:19Z</time>
      </trkpt>
      <trkpt lat="47.526756" lon="1.8228989">
        <ele>128.0</ele>
        <time>2022-02-10T08:52:20Z</time>
      </trkpt>
      <trkpt lat="47.52676" lon="1.8228811">
        <ele>127.0</ele>
        <time>2022-02-10T08:52:21Z</time>
      </trkpt>
      <trkpt lat="47.526768" lon="1.8228627">
        <ele>127.0</ele>
        <time>2022-02-10T08:52:22Z</time>
      </trkpt>
      <trkpt lat="47.526775" lon="1.8228502">
        <ele>127.0</ele>
        <time>2022-02-10T08:52:23Z</time>
      </trkpt>
      <trkpt lat="47.526787" lon="1.8228347">
        <ele>127.0</ele>
        <time>2022-02-10T08:52:24Z</time>
      </trkpt>
      <trkpt lat="47.526794" lon="1.8228166">
        <ele>128.0</ele>
        <time>2022-02-10T08:52:25Z</time>
      </trkpt>
      <trkpt lat="47.526802" lon="1.8227992">
        <ele>127.0</ele>
        <time>2022-02-10T08:52:26Z</time>
      </trkpt>
      <trkpt lat="47.526802" lon="1.8227814">
        <ele>127.0</ele>
        <time>2022-02-10T08:52:27Z</time>
      </trkpt>
      <trkpt lat="47.52681" lon="1.8227613">
        <ele>127.0</ele>
        <time>2022-02-10T08:52:28Z</time>
      </trkpt>
      <trkpt lat="47.526814" lon="1.8227445">
        <ele>127.0</ele>
        <time>2022-02-10T08:52:29Z</time>
      </trkpt>
      <trkpt lat="47.526825" lon="1.8227336">
        <ele>127.0</ele>
        <time>2022-02-10T08:52:30Z</time>
      </trkpt>
      <trkpt lat="47.526833" lon="1.8227181">
        <ele>126.0</ele>
        <time>2022-02-10T08:52:31Z</time>
      </trkpt>
      <trkpt lat="47.52684" lon="1.8227035">
        <ele>126.0</ele>
        <time>2022-02-10T08:52:32Z</time>
      </trkpt>
      <trkpt lat="47.526848" lon="1.8226845">
        <ele>126.0</ele>
        <time>2022-02-10T08:52:33Z</time>
      </trkpt>
      <trkpt lat="47.526855" lon="1.8226625">
        <ele>127.0</ele>
        <time>2022-02-10T08:52:34Z</time>
      </trkpt>
      <trkpt lat="47.526855" lon="1.8226436">
        <ele>127.0</ele>
        <time>2022-02-10T08:52:35Z</time>
      </trkpt>
      <trkpt lat="47.52686" lon="1.8226289">
        <ele>128.0</ele>
        <time>2022-02-10T08:52:36Z</time>
      </trkpt>
      <trkpt lat="47.52686" lon="1.8226289">
        <ele>128.0</ele>
        <time>2022-02-10T08:52:37Z</time>
      </trkpt>
      <trkpt lat="47.52686" lon="1.8226289">
        <ele>128.0</ele>
        <time>2022-02-10T08:52:38Z</time>
      </trkpt>
      <trkpt lat="47.52687" lon="1.822586">
        <ele>129.0</ele>
        <time>2022-02-10T08:52:39Z</time>
      </trkpt>
      <trkpt lat="47.52688" lon="1.8225696">
        <ele>129.0</ele>
        <time>2022-02-10T08:52:40Z</time>
      </trkpt>
      <trkpt lat="47.526886" lon="1.8225487">
        <ele>130.0</ele>
        <time>2022-02-10T08:52:41Z</time>
      </trkpt>
      <trkpt lat="47.52689" lon="1.8225372">
        <ele>131.0</ele>
        <time>2022-02-10T08:52:42Z</time>
      </trkpt>
      <trkpt lat="47.52689" lon="1.8225372">
        <ele>131.0</ele>
        <time>2022-02-10T08:52:43Z</time>
      </trkpt>
      <trkpt lat="47.52689" lon="1.8225372">
        <ele>131.0</ele>
        <time>2022-02-10T08:52:44Z</time>
      </trkpt>
      <trkpt lat="47.526905" lon="1.8225048">
        <ele>131.0</ele>
        <time>2022-02-10T08:52:45Z</time>
      </trkpt>
      <trkpt lat="47.526913" lon="1.8224934">
        <ele>132.0</ele>
        <time>2022-02-10T08:52:46Z</time>
      </trkpt>
      <trkpt lat="47.526917" lon="1.8224822">
        <ele>132.0</ele>
        <time>2022-02-10T08:52:47Z</time>
      </trkpt>
      <trkpt lat="47.526924" lon="1.8224742">
        <ele>132.0</ele>
        <time>2022-02-10T08:52:48Z</time>
      </trkpt>
      <trkpt lat="47.526928" lon="1.8224548">
        <ele>132.0</ele>
        <time>2022-02-10T08:52:49Z</time>
      </trkpt>
      <trkpt lat="47.52693" lon="1.8224381">
        <ele>131.0</ele>
        <time>2022-02-10T08:52:50Z</time>
      </trkpt>
      <trkpt lat="47.526936" lon="1.8224196">
        <ele>131.0</ele>
        <time>2022-02-10T08:52:51Z</time>
      </trkpt>
      <trkpt lat="47.52694" lon="1.8224019">
        <ele>131.0</ele>
        <time>2022-02-10T08:52:52Z</time>
      </trkpt>
      <trkpt lat="47.526947" lon="1.822388">
        <ele>131.0</ele>
        <time>2022-02-10T08:52:53Z</time>
      </trkpt>
      <trkpt lat="47.526955" lon="1.822375">
        <ele>132.0</ele>
        <time>2022-02-10T08:52:54Z</time>
      </trkpt>
      <trkpt lat="47.526962" lon="1.8223569">
        <ele>132.0</ele>
        <time>2022-02-10T08:52:55Z</time>
      </trkpt>
      <trkpt lat="47.526974" lon="1.8223379">
        <ele>133.0</ele>
        <time>2022-02-10T08:52:56Z</time>
      </trkpt>
      <trkpt lat="47.526985" lon="1.8223226">
        <ele>133.0</ele>
        <time>2022-02-10T08:52:57Z</time>
      </trkpt>
      <trkpt lat="47.526997" lon="1.8223093">
        <ele>133.0</ele>
        <time>2022-02-10T08:52:58Z</time>
      </trkpt>
      <trkpt lat="47.527008" lon="1.822304">
        <ele>133.0</ele>
        <time>2022-02-10T08:52:59Z</time>
      </trkpt>
      <trkpt lat="47.52701" lon="1.8222871">
        <ele>134.0</ele>
        <time>2022-02-10T08:53:00Z</time>
      </trkpt>
      <trkpt lat="47.52702" lon="1.8222727">
        <ele>134.0</ele>
        <time>2022-02-10T08:53:01Z</time>
      </trkpt>
      <trkpt lat="47.527023" lon="1.8222601">
        <ele>134.0</ele>
        <time>2022-02-10T08:53:02Z</time>
      </trkpt>
      <trkpt lat="47.527027" lon="1.8222373">
        <ele>134.0</ele>
        <time>2022-02-10T08:53:03Z</time>
      </trkpt>
      <trkpt lat="47.52703" lon="1.8222226">
        <ele>134.0</ele>
        <time>2022-02-10T08:53:04Z</time>
      </trkpt>
      <trkpt lat="47.52704" lon="1.8222108">
        <ele>134.0</ele>
        <time>2022-02-10T08:53:05Z</time>
      </trkpt>
      <trkpt lat="47.527046" lon="1.8221986">
        <ele>134.0</ele>
        <time>2022-02-10T08:53:06Z</time>
      </trkpt>
      <trkpt lat="47.52705" lon="1.8221872">
        <ele>133.0</ele>
        <time>2022-02-10T08:53:07Z</time>
      </trkpt>
      <trkpt lat="47.52705" lon="1.8221768">
        <ele>133.0</ele>
        <time>2022-02-10T08:53:08Z</time>
      </trkpt>
      <trkpt lat="47.527054" lon="1.8221612">
        <ele>133.0</ele>
        <time>2022-02-10T08:53:09Z</time>
      </trkpt>
      <trkpt lat="47.52707" lon="1.8221483">
        <ele>132.0</ele>
        <time>2022-02-10T08:53:10Z</time>
      </trkpt>
      <trkpt lat="47.527077" lon="1.8221351">
        <ele>132.0</ele>
        <time>2022-02-10T08:53:11Z</time>
      </trkpt>
      <trkpt lat="47.52709" lon="1.8221173">
        <ele>133.0</ele>
        <time>2022-02-10T08:53:12Z</time>
      </trkpt>
      <trkpt lat="47.527096" lon="1.822106">
        <ele>133.0</ele>
        <time>2022-02-10T08:53:13Z</time>
      </trkpt>
      <trkpt lat="47.527107" lon="1.8220934">
        <ele>134.0</ele>
        <time>2022-02-10T08:53:14Z</time>
      </trkpt>
      <trkpt lat="47.52712" lon="1.8220774">
        <ele>134.0</ele>
        <time>2022-02-10T08:53:15Z</time>
      </trkpt>
      <trkpt lat="47.527126" lon="1.8220578">
        <ele>134.0</ele>
        <time>2022-02-10T08:53:16Z</time>
      </trkpt>
      <trkpt lat="47.52713" lon="1.8220367">
        <ele>134.0</ele>
        <time>2022-02-10T08:53:17Z</time>
      </trkpt>
      <trkpt lat="47.527138" lon="1.8220216">
        <ele>134.0</ele>
        <time>2022-02-10T08:53:18Z</time>
      </trkpt>
      <trkpt lat="47.527145" lon="1.8220083">
        <ele>134.0</ele>
        <time>2022-02-10T08:53:19Z</time>
      </trkpt>
      <trkpt lat="47.527145" lon="1.8219869">
        <ele>135.0</ele>
        <time>2022-02-10T08:53:20Z</time>
      </trkpt>
      <trkpt lat="47.527157" lon="1.821971">
        <ele>135.0</ele>
        <time>2022-02-10T08:53:21Z</time>
      </trkpt>
      <trkpt lat="47.527164" lon="1.8219576">
        <ele>135.0</ele>
        <time>2022-02-10T08:53:22Z</time>
      </trkpt>
      <trkpt lat="47.527172" lon="1.8219389">
        <ele>135.0</ele>
        <time>2022-02-10T08:53:23Z</time>
      </trkpt>
      <trkpt lat="47.52718" lon="1.8219188">
        <ele>135.0</ele>
        <time>2022-02-10T08:53:24Z</time>
      </trkpt>
      <trkpt lat="47.52719" lon="1.8219048">
        <ele>135.0</ele>
        <time>2022-02-10T08:53:25Z</time>
      </trkpt>
      <trkpt lat="47.5272" lon="1.8218927">
        <ele>135.0</ele>
        <time>2022-02-10T08:53:26Z</time>
      </trkpt>
      <trkpt lat="47.527206" lon="1.8218912">
        <ele>135.0</ele>
        <time>2022-02-10T08:53:27Z</time>
      </trkpt>
      <trkpt lat="47.527214" lon="1.8218745">
        <ele>135.0</ele>
        <time>2022-02-10T08:53:28Z</time>
      </trkpt>
      <trkpt lat="47.527218" lon="1.8218594">
        <ele>135.0</ele>
        <time>2022-02-10T08:53:29Z</time>
      </trkpt>
      <trkpt lat="47.527225" lon="1.8218398">
        <ele>135.0</ele>
        <time>2022-02-10T08:53:30Z</time>
      </trkpt>
      <trkpt lat="47.52723" lon="1.8218192">
        <ele>135.0</ele>
        <time>2022-02-10T08:53:31Z</time>
      </trkpt>
      <trkpt lat="47.527237" lon="1.821801">
        <ele>135.0</ele>
        <time>2022-02-10T08:53:32Z</time>
      </trkpt>
      <trkpt lat="47.52724" lon="1.8217931">
        <ele>135.0</ele>
        <time>2022-02-10T08:53:33Z</time>
      </trkpt>
      <trkpt lat="47.52725" lon="1.8217847">
        <ele>136.0</ele>
        <time>2022-02-10T08:53:34Z</time>
      </trkpt>
      <trkpt lat="47.527252" lon="1.8217667">
        <ele>136.0</ele>
        <time>2022-02-10T08:53:35Z</time>
      </trkpt>
      <trkpt lat="47.52726" lon="1.8217452">
        <ele>136.0</ele>
        <time>2022-02-10T08:53:36Z</time>
      </trkpt>
      <trkpt lat="47.527267" lon="1.8217254">
        <ele>136.0</ele>
        <time>2022-02-10T08:53:37Z</time>
      </trkpt>
      <trkpt lat="47.527275" lon="1.8217051">
        <ele>136.0</ele>
        <time>2022-02-10T08:53:38Z</time>
      </trkpt>
      <trkpt lat="47.52728" lon="1.8216939">
        <ele>136.0</ele>
        <time>2022-02-10T08:53:39Z</time>
      </trkpt>
      <trkpt lat="47.52729" lon="1.8216814">
        <ele>137.0</ele>
        <time>2022-02-10T08:53:40Z</time>
      </trkpt>
      <trkpt lat="47.527294" lon="1.8216629">
        <ele>136.0</ele>
        <time>2022-02-10T08:53:41Z</time>
      </trkpt>
      <trkpt lat="47.5273" lon="1.821649">
        <ele>136.0</ele>
        <time>2022-02-10T08:53:42Z</time>
      </trkpt>
      <trkpt lat="47.5273" lon="1.821649">
        <ele>136.0</ele>
        <time>2022-02-10T08:53:43Z</time>
      </trkpt>
      <trkpt lat="47.5273" lon="1.821649">
        <ele>136.0</ele>
        <time>2022-02-10T08:53:44Z</time>
      </trkpt>
      <trkpt lat="47.52732" lon="1.8216054">
        <ele>137.0</ele>
        <time>2022-02-10T08:53:45Z</time>
      </trkpt>
      <trkpt lat="47.52733" lon="1.8215863">
        <ele>137.0</ele>
        <time>2022-02-10T08:53:46Z</time>
      </trkpt>
      <trkpt lat="47.527336" lon="1.8215655">
        <ele>137.0</ele>
        <time>2022-02-10T08:53:47Z</time>
      </trkpt>
      <trkpt lat="47.527344" lon="1.8215488">
        <ele>138.0</ele>
        <time>2022-02-10T08:53:48Z</time>
      </trkpt>
      <trkpt lat="47.52735" lon="1.8215336">
        <ele>138.0</ele>
        <time>2022-02-10T08:53:49Z</time>
      </trkpt>
      <trkpt lat="47.527355" lon="1.8215233">
        <ele>138.0</ele>
        <time>2022-02-10T08:53:50Z</time>
      </trkpt>
      <trkpt lat="47.527363" lon="1.8215075">
        <ele>138.0</ele>
        <time>2022-02-10T08:53:51Z</time>
      </trkpt>
      <trkpt lat="47.527367" lon="1.8214983">
        <ele>138.0</ele>
        <time>2022-02-10T08:53:52Z</time>
      </trkpt>
      <trkpt lat="47.52737" lon="1.8214803">
        <ele>139.0</ele>
        <time>2022-02-10T08:53:53Z</time>
      </trkpt>
      <trkpt lat="47.527374" lon="1.8214641">
        <ele>139.0</ele>
        <time>2022-02-10T08:53:54Z</time>
      </trkpt>
      <trkpt lat="47.527378" lon="1.8214474">
        <ele>139.0</ele>
        <time>2022-02-10T08:53:55Z</time>
      </trkpt>
      <trkpt lat="47.52738" lon="1.821431">
        <ele>139.0</ele>
        <time>2022-02-10T08:53:56Z</time>
      </trkpt>
      <trkpt lat="47.52739" lon="1.8214138">
        <ele>139.0</ele>
        <time>2022-02-10T08:53:57Z</time>
      </trkpt>
      <trkpt lat="47.527397" lon="1.8213998">
        <ele>139.0</ele>
        <time>2022-02-10T08:53:58Z</time>
      </trkpt>
      <trkpt lat="47.527405" lon="1.8213844">
        <ele>139.0</ele>
        <time>2022-02-10T08:53:59Z</time>
      </trkpt>
      <trkpt lat="47.52741" lon="1.8213693">
        <ele>139.0</ele>
        <time>2022-02-10T08:54:00Z</time>
      </trkpt>
      <trkpt lat="47.527416" lon="1.8213602">
        <ele>140.0</ele>
        <time>2022-02-10T08:54:01Z</time>
      </trkpt>
      <trkpt lat="47.527424" lon="1.8213512">
        <ele>140.0</ele>
        <time>2022-02-10T08:54:02Z</time>
      </trkpt>
      <trkpt lat="47.52743" lon="1.8213401">
        <ele>140.0</ele>
        <time>2022-02-10T08:54:03Z</time>
      </trkpt>
      <trkpt lat="47.527435" lon="1.8213246">
        <ele>140.0</ele>
        <time>2022-02-10T08:54:04Z</time>
      </trkpt>
      <trkpt lat="47.52744" lon="1.821311">
        <ele>140.0</ele>
        <time>2022-02-10T08:54:05Z</time>
      </trkpt>
      <trkpt lat="47.527447" lon="1.8212969">
        <ele>140.0</ele>
        <time>2022-02-10T08:54:06Z</time>
      </trkpt>
      <trkpt lat="47.527454" lon="1.8212825">
        <ele>141.0</ele>
        <time>2022-02-10T08:54:07Z</time>
      </trkpt>
      <trkpt lat="47.52746" lon="1.8212665">
        <ele>140.0</ele>
        <time>2022-02-10T08:54:08Z</time>
      </trkpt>
      <trkpt lat="47.527462" lon="1.821243">
        <ele>140.0</ele>
        <time>2022-02-10T08:54:09Z</time>
      </trkpt>
      <trkpt lat="47.527462" lon="1.8212237">
        <ele>140.0</ele>
        <time>2022-02-10T08:54:10Z</time>
      </trkpt>
      <trkpt lat="47.52747" lon="1.8212057">
        <ele>140.0</ele>
        <time>2022-02-10T08:54:11Z</time>
      </trkpt>
      <trkpt lat="47.527473" lon="1.821193">
        <ele>140.0</ele>
        <time>2022-02-10T08:54:12Z</time>
      </trkpt>
      <trkpt lat="47.52748" lon="1.8211739">
        <ele>140.0</ele>
        <time>2022-02-10T08:54:13Z</time>
      </trkpt>
      <trkpt lat="47.527485" lon="1.821158">
        <ele>140.0</ele>
        <time>2022-02-10T08:54:14Z</time>
      </trkpt>
      <trkpt lat="47.527493" lon="1.8211397">
        <ele>140.0</ele>
        <time>2022-02-10T08:54:15Z</time>
      </trkpt>
      <trkpt lat="47.5275" lon="1.8211169">
        <ele>141.0</ele>
        <time>2022-02-10T08:54:16Z</time>
      </trkpt>
      <trkpt lat="47.527504" lon="1.8211004">
        <ele>141.0</ele>
        <time>2022-02-10T08:54:17Z</time>
      </trkpt>
      <trkpt lat="47.527508" lon="1.8210844">
        <ele>141.0</ele>
        <time>2022-02-10T08:54:18Z</time>
      </trkpt>
      <trkpt lat="47.527515" lon="1.8210709">
        <ele>140.0</ele>
        <time>2022-02-10T08:54:19Z</time>
      </trkpt>
      <trkpt lat="47.527515" lon="1.8210709">
        <ele>140.0</ele>
        <time>2022-02-10T08:54:20Z</time>
      </trkpt>
      <trkpt lat="47.527515" lon="1.8210709">
        <ele>140.0</ele>
        <time>2022-02-10T08:54:21Z</time>
      </trkpt>
      <trkpt lat="47.52754" lon="1.8210281">
        <ele>141.0</ele>
        <time>2022-02-10T08:54:22Z</time>
      </trkpt>
      <trkpt lat="47.527546" lon="1.8210127">
        <ele>141.0</ele>
        <time>2022-02-10T08:54:23Z</time>
      </trkpt>
      <trkpt lat="47.527554" lon="1.8209964">
        <ele>141.0</ele>
        <time>2022-02-10T08:54:24Z</time>
      </trkpt>
      <trkpt lat="47.52756" lon="1.8209817">
        <ele>141.0</ele>
        <time>2022-02-10T08:54:25Z</time>
      </trkpt>
      <trkpt lat="47.52757" lon="1.8209652">
        <ele>141.0</ele>
        <time>2022-02-10T08:54:26Z</time>
      </trkpt>
      <trkpt lat="47.527576" lon="1.820951">
        <ele>141.0</ele>
        <time>2022-02-10T08:54:27Z</time>
      </trkpt>
      <trkpt lat="47.52758" lon="1.8209363">
        <ele>141.0</ele>
        <time>2022-02-10T08:54:28Z</time>
      </trkpt>
      <trkpt lat="47.527588" lon="1.8209239">
        <ele>141.0</ele>
        <time>2022-02-10T08:54:29Z</time>
      </trkpt>
      <trkpt lat="47.527596" lon="1.8209087">
        <ele>142.0</ele>
        <time>2022-02-10T08:54:30Z</time>
      </trkpt>
      <trkpt lat="47.527603" lon="1.8208914">
        <ele>142.0</ele>
        <time>2022-02-10T08:54:31Z</time>
      </trkpt>
      <trkpt lat="47.52761" lon="1.820875">
        <ele>142.0</ele>
        <time>2022-02-10T08:54:32Z</time>
      </trkpt>
      <trkpt lat="47.527622" lon="1.8208579">
        <ele>142.0</ele>
        <time>2022-02-10T08:54:33Z</time>
      </trkpt>
      <trkpt lat="47.52763" lon="1.8208432">
        <ele>142.0</ele>
        <time>2022-02-10T08:54:34Z</time>
      </trkpt>
      <trkpt lat="47.527637" lon="1.820822">
        <ele>142.0</ele>
        <time>2022-02-10T08:54:35Z</time>
      </trkpt>
      <trkpt lat="47.527637" lon="1.8208047">
        <ele>142.0</ele>
        <time>2022-02-10T08:54:36Z</time>
      </trkpt>
      <trkpt lat="47.52764" lon="1.8207835">
        <ele>142.0</ele>
        <time>2022-02-10T08:54:37Z</time>
      </trkpt>
      <trkpt lat="47.527645" lon="1.8207644">
        <ele>142.0</ele>
        <time>2022-02-10T08:54:38Z</time>
      </trkpt>
      <trkpt lat="47.527653" lon="1.8207463">
        <ele>142.0</ele>
        <time>2022-02-10T08:54:39Z</time>
      </trkpt>
      <trkpt lat="47.527657" lon="1.8207288">
        <ele>142.0</ele>
        <time>2022-02-10T08:54:40Z</time>
      </trkpt>
      <trkpt lat="47.52766" lon="1.8207152">
        <ele>142.0</ele>
        <time>2022-02-10T08:54:41Z</time>
      </trkpt>
      <trkpt lat="47.527668" lon="1.820695">
        <ele>142.0</ele>
        <time>2022-02-10T08:54:42Z</time>
      </trkpt>
      <trkpt lat="47.52768" lon="1.8206811">
        <ele>142.0</ele>
        <time>2022-02-10T08:54:43Z</time>
      </trkpt>
      <trkpt lat="47.527683" lon="1.8206624">
        <ele>143.0</ele>
        <time>2022-02-10T08:54:44Z</time>
      </trkpt>
      <trkpt lat="47.52769" lon="1.8206469">
        <ele>143.0</ele>
        <time>2022-02-10T08:54:45Z</time>
      </trkpt>
      <trkpt lat="47.527702" lon="1.8206307">
        <ele>143.0</ele>
        <time>2022-02-10T08:54:46Z</time>
      </trkpt>
      <trkpt lat="47.52771" lon="1.8206128">
        <ele>143.0</ele>
        <time>2022-02-10T08:54:47Z</time>
      </trkpt>
      <trkpt lat="47.527714" lon="1.8205981">
        <ele>143.0</ele>
        <time>2022-02-10T08:54:48Z</time>
      </trkpt>
      <trkpt lat="47.52772" lon="1.8205824">
        <ele>143.0</ele>
        <time>2022-02-10T08:54:49Z</time>
      </trkpt>
      <trkpt lat="47.52773" lon="1.8205659">
        <ele>144.0</ele>
        <time>2022-02-10T08:54:50Z</time>
      </trkpt>
      <trkpt lat="47.527733" lon="1.8205462">
        <ele>144.0</ele>
        <time>2022-02-10T08:54:51Z</time>
      </trkpt>
      <trkpt lat="47.527737" lon="1.8205353">
        <ele>144.0</ele>
        <time>2022-02-10T08:54:52Z</time>
      </trkpt>
      <trkpt lat="47.527744" lon="1.8205231">
        <ele>144.0</ele>
        <time>2022-02-10T08:54:53Z</time>
      </trkpt>
      <trkpt lat="47.52775" lon="1.8205072">
        <ele>145.0</ele>
        <time>2022-02-10T08:54:54Z</time>
      </trkpt>
      <trkpt lat="47.527756" lon="1.8204919">
        <ele>145.0</ele>
        <time>2022-02-10T08:54:55Z</time>
      </trkpt>
      <trkpt lat="47.527763" lon="1.8204733">
        <ele>146.0</ele>
        <time>2022-02-10T08:54:56Z</time>
      </trkpt>
      <trkpt lat="47.527767" lon="1.8204569">
        <ele>146.0</ele>
        <time>2022-02-10T08:54:57Z</time>
      </trkpt>
      <trkpt lat="47.527775" lon="1.8204405">
        <ele>145.0</ele>
        <time>2022-02-10T08:54:58Z</time>
      </trkpt>
      <trkpt lat="47.52778" lon="1.8204222">
        <ele>145.0</ele>
        <time>2022-02-10T08:54:59Z</time>
      </trkpt>
      <trkpt lat="47.527786" lon="1.8203994">
        <ele>146.0</ele>
        <time>2022-02-10T08:55:00Z</time>
      </trkpt>
      <trkpt lat="47.527794" lon="1.8203831">
        <ele>145.0</ele>
        <time>2022-02-10T08:55:01Z</time>
      </trkpt>
      <trkpt lat="47.5278" lon="1.8203634">
        <ele>146.0</ele>
        <time>2022-02-10T08:55:02Z</time>
      </trkpt>
      <trkpt lat="47.52781" lon="1.8203468">
        <ele>145.0</ele>
        <time>2022-02-10T08:55:03Z</time>
      </trkpt>
      <trkpt lat="47.527817" lon="1.8203306">
        <ele>145.0</ele>
        <time>2022-02-10T08:55:04Z</time>
      </trkpt>
      <trkpt lat="47.527824" lon="1.8203222">
        <ele>145.0</ele>
        <time>2022-02-10T08:55:05Z</time>
      </trkpt>
      <trkpt lat="47.527832" lon="1.8203155">
        <ele>145.0</ele>
        <time>2022-02-10T08:55:06Z</time>
      </trkpt>
      <trkpt lat="47.527843" lon="1.8202975">
        <ele>145.0</ele>
        <time>2022-02-10T08:55:07Z</time>
      </trkpt>
      <trkpt lat="47.52785" lon="1.8202804">
        <ele>145.0</ele>
        <time>2022-02-10T08:55:08Z</time>
      </trkpt>
      <trkpt lat="47.52785" lon="1.8202645">
        <ele>144.0</ele>
        <time>2022-02-10T08:55:09Z</time>
      </trkpt>
      <trkpt lat="47.52786" lon="1.8202451">
        <ele>144.0</ele>
        <time>2022-02-10T08:55:10Z</time>
      </trkpt>
      <trkpt lat="47.52786" lon="1.8202246">
        <ele>144.0</ele>
        <time>2022-02-10T08:55:11Z</time>
      </trkpt>
      <trkpt lat="47.527866" lon="1.8202074">
        <ele>144.0</ele>
        <time>2022-02-10T08:55:12Z</time>
      </trkpt>
      <trkpt lat="47.527878" lon="1.8201929">
        <ele>143.0</ele>
        <time>2022-02-10T08:55:13Z</time>
      </trkpt>
      <trkpt lat="47.527885" lon="1.8201841">
        <ele>144.0</ele>
        <time>2022-02-10T08:55:14Z</time>
      </trkpt>
      <trkpt lat="47.527893" lon="1.8201734">
        <ele>144.0</ele>
        <time>2022-02-10T08:55:15Z</time>
      </trkpt>
      <trkpt lat="47.527893" lon="1.8201734">
        <ele>144.0</ele>
        <time>2022-02-10T08:55:16Z</time>
      </trkpt>
      <trkpt lat="47.527893" lon="1.8201734">
        <ele>144.0</ele>
        <time>2022-02-10T08:55:17Z</time>
      </trkpt>
      <trkpt lat="47.527912" lon="1.8201393">
        <ele>145.0</ele>
        <time>2022-02-10T08:55:18Z</time>
      </trkpt>
      <trkpt lat="47.52792" lon="1.8201338">
        <ele>145.0</ele>
        <time>2022-02-10T08:55:19Z</time>
      </trkpt>
      <trkpt lat="47.527924" lon="1.8201168">
        <ele>145.0</ele>
        <time>2022-02-10T08:55:20Z</time>
      </trkpt>
      <trkpt lat="47.52793" lon="1.8201009">
        <ele>145.0</ele>
        <time>2022-02-10T08:55:21Z</time>
      </trkpt>
      <trkpt lat="47.52794" lon="1.8200829">
        <ele>145.0</ele>
        <time>2022-02-10T08:55:22Z</time>
      </trkpt>
      <trkpt lat="47.527946" lon="1.8200698">
        <ele>145.0</ele>
        <time>2022-02-10T08:55:23Z</time>
      </trkpt>
      <trkpt lat="47.527958" lon="1.8200576">
        <ele>145.0</ele>
        <time>2022-02-10T08:55:24Z</time>
      </trkpt>
      <trkpt lat="47.527966" lon="1.8200413">
        <ele>145.0</ele>
        <time>2022-02-10T08:55:25Z</time>
      </trkpt>
      <trkpt lat="47.527973" lon="1.82003">
        <ele>145.0</ele>
        <time>2022-02-10T08:55:26Z</time>
      </trkpt>
      <trkpt lat="47.527977" lon="1.8200204">
        <ele>145.0</ele>
        <time>2022-02-10T08:55:27Z</time>
      </trkpt>
      <trkpt lat="47.527985" lon="1.8200085">
        <ele>145.0</ele>
        <time>2022-02-10T08:55:28Z</time>
      </trkpt>
      <trkpt lat="47.527992" lon="1.8199941">
        <ele>145.0</ele>
        <time>2022-02-10T08:55:29Z</time>
      </trkpt>
      <trkpt lat="47.528" lon="1.8199759">
        <ele>145.0</ele>
        <time>2022-02-10T08:55:30Z</time>
      </trkpt>
      <trkpt lat="47.528004" lon="1.819966">
        <ele>145.0</ele>
        <time>2022-02-10T08:55:31Z</time>
      </trkpt>
      <trkpt lat="47.52801" lon="1.8199537">
        <ele>144.0</ele>
        <time>2022-02-10T08:55:32Z</time>
      </trkpt>
      <trkpt lat="47.52802" lon="1.8199369">
        <ele>145.0</ele>
        <time>2022-02-10T08:55:33Z</time>
      </trkpt>
      <trkpt lat="47.52802" lon="1.8199271">
        <ele>144.0</ele>
        <time>2022-02-10T08:55:34Z</time>
      </trkpt>
      <trkpt lat="47.52802" lon="1.8199271">
        <ele>144.0</ele>
        <time>2022-02-10T08:55:35Z</time>
      </trkpt>
      <trkpt lat="47.52803" lon="1.8199">
        <ele>144.0</ele>
        <time>2022-02-10T08:55:36Z</time>
      </trkpt>
      <trkpt lat="47.528034" lon="1.8198823">
        <ele>144.0</ele>
        <time>2022-02-10T08:55:37Z</time>
      </trkpt>
      <trkpt lat="47.52804" lon="1.819869">
        <ele>144.0</ele>
        <time>2022-02-10T08:55:38Z</time>
      </trkpt>
      <trkpt lat="47.528046" lon="1.8198556">
        <ele>144.0</ele>
        <time>2022-02-10T08:55:39Z</time>
      </trkpt>
      <trkpt lat="47.52805" lon="1.8198445">
        <ele>143.0</ele>
        <time>2022-02-10T08:55:40Z</time>
      </trkpt>
      <trkpt lat="47.528057" lon="1.8198328">
        <ele>143.0</ele>
        <time>2022-02-10T08:55:41Z</time>
      </trkpt>
      <trkpt lat="47.52807" lon="1.8198186">
        <ele>143.0</ele>
        <time>2022-02-10T08:55:42Z</time>
      </trkpt>
      <trkpt lat="47.528076" lon="1.8198063">
        <ele>143.0</ele>
        <time>2022-02-10T08:55:43Z</time>
      </trkpt>
      <trkpt lat="47.528084" lon="1.8197901">
        <ele>142.0</ele>
        <time>2022-02-10T08:55:44Z</time>
      </trkpt>
      <trkpt lat="47.52809" lon="1.819779">
        <ele>142.0</ele>
        <time>2022-02-10T08:55:45Z</time>
      </trkpt>
      <trkpt lat="47.528095" lon="1.8197678">
        <ele>142.0</ele>
        <time>2022-02-10T08:55:46Z</time>
      </trkpt>
      <trkpt lat="47.528103" lon="1.8197515">
        <ele>142.0</ele>
        <time>2022-02-10T08:55:47Z</time>
      </trkpt>
      <trkpt lat="47.528107" lon="1.8197423">
        <ele>141.0</ele>
        <time>2022-02-10T08:55:48Z</time>
      </trkpt>
      <trkpt lat="47.528114" lon="1.8197347">
        <ele>141.0</ele>
        <time>2022-02-10T08:55:49Z</time>
      </trkpt>
      <trkpt lat="47.528122" lon="1.819726">
        <ele>140.0</ele>
        <time>2022-02-10T08:55:50Z</time>
      </trkpt>
      <trkpt lat="47.52813" lon="1.8197073">
        <ele>140.0</ele>
        <time>2022-02-10T08:55:51Z</time>
      </trkpt>
      <trkpt lat="47.528133" lon="1.8196831">
        <ele>140.0</ele>
        <time>2022-02-10T08:55:52Z</time>
      </trkpt>
      <trkpt lat="47.52814" lon="1.8196664">
        <ele>139.0</ele>
        <time>2022-02-10T08:55:53Z</time>
      </trkpt>
      <trkpt lat="47.52815" lon="1.8196477">
        <ele>138.0</ele>
        <time>2022-02-10T08:55:54Z</time>
      </trkpt>
      <trkpt lat="47.528156" lon="1.8196237">
        <ele>139.0</ele>
        <time>2022-02-10T08:55:55Z</time>
      </trkpt>
      <trkpt lat="47.52816" lon="1.8196076">
        <ele>139.0</ele>
        <time>2022-02-10T08:55:56Z</time>
      </trkpt>
      <trkpt lat="47.528164" lon="1.8195934">
        <ele>139.0</ele>
        <time>2022-02-10T08:55:57Z</time>
      </trkpt>
      <trkpt lat="47.528168" lon="1.8195788">
        <ele>139.0</ele>
        <time>2022-02-10T08:55:58Z</time>
      </trkpt>
      <trkpt lat="47.528175" lon="1.8195617">
        <ele>139.0</ele>
        <time>2022-02-10T08:55:59Z</time>
      </trkpt>
      <trkpt lat="47.528183" lon="1.8195446">
        <ele>139.0</ele>
        <time>2022-02-10T08:56:00Z</time>
      </trkpt>
      <trkpt lat="47.52819" lon="1.8195287">
        <ele>139.0</ele>
        <time>2022-02-10T08:56:01Z</time>
      </trkpt>
      <trkpt lat="47.528194" lon="1.8195139">
        <ele>139.0</ele>
        <time>2022-02-10T08:56:02Z</time>
      </trkpt>
      <trkpt lat="47.528202" lon="1.8194984">
        <ele>139.0</ele>
        <time>2022-02-10T08:56:03Z</time>
      </trkpt>
      <trkpt lat="47.528206" lon="1.8194854">
        <ele>139.0</ele>
        <time>2022-02-10T08:56:04Z</time>
      </trkpt>
      <trkpt lat="47.528214" lon="1.8194662">
        <ele>139.0</ele>
        <time>2022-02-10T08:56:05Z</time>
      </trkpt>
      <trkpt lat="47.528217" lon="1.8194495">
        <ele>140.0</ele>
        <time>2022-02-10T08:56:06Z</time>
      </trkpt>
      <trkpt lat="47.52823" lon="1.8194342">
        <ele>140.0</ele>
        <time>2022-02-10T08:56:07Z</time>
      </trkpt>
      <trkpt lat="47.528236" lon="1.8194207">
        <ele>140.0</ele>
        <time>2022-02-10T08:56:08Z</time>
      </trkpt>
      <trkpt lat="47.528248" lon="1.8194085">
        <ele>140.0</ele>
        <time>2022-02-10T08:56:09Z</time>
      </trkpt>
      <trkpt lat="47.52825" lon="1.8194023">
        <ele>140.0</ele>
        <time>2022-02-10T08:56:10Z</time>
      </trkpt>
      <trkpt lat="47.52826" lon="1.8193895">
        <ele>140.0</ele>
        <time>2022-02-10T08:56:11Z</time>
      </trkpt>
      <trkpt lat="47.528267" lon="1.8193798">
        <ele>140.0</ele>
        <time>2022-02-10T08:56:12Z</time>
      </trkpt>
      <trkpt lat="47.528275" lon="1.8193669">
        <ele>140.0</ele>
        <time>2022-02-10T08:56:13Z</time>
      </trkpt>
      <trkpt lat="47.528282" lon="1.819356">
        <ele>140.0</ele>
        <time>2022-02-10T08:56:14Z</time>
      </trkpt>
      <trkpt lat="47.528286" lon="1.8193431">
        <ele>140.0</ele>
        <time>2022-02-10T08:56:15Z</time>
      </trkpt>
      <trkpt lat="47.52829" lon="1.8193343">
        <ele>140.0</ele>
        <time>2022-02-10T08:56:16Z</time>
      </trkpt>
      <trkpt lat="47.528297" lon="1.8193216">
        <ele>140.0</ele>
        <time>2022-02-10T08:56:17Z</time>
      </trkpt>
      <trkpt lat="47.528297" lon="1.8193216">
        <ele>140.0</ele>
        <time>2022-02-10T08:56:18Z</time>
      </trkpt>
      <trkpt lat="47.52831" lon="1.8193036">
        <ele>140.0</ele>
        <time>2022-02-10T08:56:19Z</time>
      </trkpt>
      <trkpt lat="47.528316" lon="1.8192928">
        <ele>139.0</ele>
        <time>2022-02-10T08:56:20Z</time>
      </trkpt>
      <trkpt lat="47.528328" lon="1.8192834">
        <ele>139.0</ele>
        <time>2022-02-10T08:56:21Z</time>
      </trkpt>
      <trkpt lat="47.528336" lon="1.8192686">
        <ele>139.0</ele>
        <time>2022-02-10T08:56:22Z</time>
      </trkpt>
      <trkpt lat="47.528347" lon="1.8192604">
        <ele>138.0</ele>
        <time>2022-02-10T08:56:23Z</time>
      </trkpt>
      <trkpt lat="47.52836" lon="1.8192532">
        <ele>139.0</ele>
        <time>2022-02-10T08:56:24Z</time>
      </trkpt>
      <trkpt lat="47.528366" lon="1.8192453">
        <ele>139.0</ele>
        <time>2022-02-10T08:56:25Z</time>
      </trkpt>
      <trkpt lat="47.52837" lon="1.8192331">
        <ele>138.0</ele>
        <time>2022-02-10T08:56:26Z</time>
      </trkpt>
      <trkpt lat="47.528378" lon="1.8192208">
        <ele>139.0</ele>
        <time>2022-02-10T08:56:27Z</time>
      </trkpt>
      <trkpt lat="47.528385" lon="1.8192098">
        <ele>139.0</ele>
        <time>2022-02-10T08:56:28Z</time>
      </trkpt>
      <trkpt lat="47.528393" lon="1.8191969">
        <ele>138.0</ele>
        <time>2022-02-10T08:56:29Z</time>
      </trkpt>
      <trkpt lat="47.5284" lon="1.8191817">
        <ele>138.0</ele>
        <time>2022-02-10T08:56:30Z</time>
      </trkpt>
      <trkpt lat="47.528404" lon="1.81917">
        <ele>138.0</ele>
        <time>2022-02-10T08:56:31Z</time>
      </trkpt>
      <trkpt lat="47.52841" lon="1.819156">
        <ele>138.0</ele>
        <time>2022-02-10T08:56:32Z</time>
      </trkpt>
      <trkpt lat="47.528416" lon="1.8191441">
        <ele>138.0</ele>
        <time>2022-02-10T08:56:33Z</time>
      </trkpt>
      <trkpt lat="47.528423" lon="1.8191298">
        <ele>138.0</ele>
        <time>2022-02-10T08:56:34Z</time>
      </trkpt>
      <trkpt lat="47.52843" lon="1.8191121">
        <ele>138.0</ele>
        <time>2022-02-10T08:56:35Z</time>
      </trkpt>
      <trkpt lat="47.528435" lon="1.8190923">
        <ele>138.0</ele>
        <time>2022-02-10T08:56:36Z</time>
      </trkpt>
      <trkpt lat="47.528442" lon="1.8190778">
        <ele>138.0</ele>
        <time>2022-02-10T08:56:37Z</time>
      </trkpt>
      <trkpt lat="47.528446" lon="1.8190581">
        <ele>138.0</ele>
        <time>2022-02-10T08:56:38Z</time>
      </trkpt>
      <trkpt lat="47.528454" lon="1.8190403">
        <ele>138.0</ele>
        <time>2022-02-10T08:56:39Z</time>
      </trkpt>
      <trkpt lat="47.52846" lon="1.8190169">
        <ele>139.0</ele>
        <time>2022-02-10T08:56:40Z</time>
      </trkpt>
      <trkpt lat="47.52846" lon="1.8189989">
        <ele>139.0</ele>
        <time>2022-02-10T08:56:41Z</time>
      </trkpt>
      <trkpt lat="47.528465" lon="1.818982">
        <ele>139.0</ele>
        <time>2022-02-10T08:56:42Z</time>
      </trkpt>
      <trkpt lat="47.528477" lon="1.8189667">
        <ele>138.0</ele>
        <time>2022-02-10T08:56:43Z</time>
      </trkpt>
      <trkpt lat="47.52848" lon="1.8189572">
        <ele>138.0</ele>
        <time>2022-02-10T08:56:44Z</time>
      </trkpt>
      <trkpt lat="47.52849" lon="1.8189418">
        <ele>138.0</ele>
        <time>2022-02-10T08:56:45Z</time>
      </trkpt>
      <trkpt lat="47.528496" lon="1.8189262">
        <ele>138.0</ele>
        <time>2022-02-10T08:56:46Z</time>
      </trkpt>
      <trkpt lat="47.528503" lon="1.8189127">
        <ele>138.0</ele>
        <time>2022-02-10T08:56:47Z</time>
      </trkpt>
      <trkpt lat="47.52851" lon="1.8188981">
        <ele>138.0</ele>
        <time>2022-02-10T08:56:48Z</time>
      </trkpt>
      <trkpt lat="47.52852" lon="1.8188818">
        <ele>138.0</ele>
        <time>2022-02-10T08:56:49Z</time>
      </trkpt>
      <trkpt lat="47.528522" lon="1.8188614">
        <ele>138.0</ele>
        <time>2022-02-10T08:56:50Z</time>
      </trkpt>
      <trkpt lat="47.52853" lon="1.8188481">
        <ele>138.0</ele>
        <time>2022-02-10T08:56:51Z</time>
      </trkpt>
      <trkpt lat="47.528534" lon="1.8188279">
        <ele>137.0</ele>
        <time>2022-02-10T08:56:52Z</time>
      </trkpt>
      <trkpt lat="47.52854" lon="1.8188108">
        <ele>137.0</ele>
        <time>2022-02-10T08:56:53Z</time>
      </trkpt>
      <trkpt lat="47.52855" lon="1.8188004">
        <ele>137.0</ele>
        <time>2022-02-10T08:56:54Z</time>
      </trkpt>
      <trkpt lat="47.528557" lon="1.8187926">
        <ele>138.0</ele>
        <time>2022-02-10T08:56:55Z</time>
      </trkpt>
      <trkpt lat="47.528564" lon="1.8187802">
        <ele>138.0</ele>
        <time>2022-02-10T08:56:56Z</time>
      </trkpt>
      <trkpt lat="47.528572" lon="1.8187687">
        <ele>138.0</ele>
        <time>2022-02-10T08:56:57Z</time>
      </trkpt>
      <trkpt lat="47.528576" lon="1.8187549">
        <ele>138.0</ele>
        <time>2022-02-10T08:56:58Z</time>
      </trkpt>
      <trkpt lat="47.528584" lon="1.818743">
        <ele>139.0</ele>
        <time>2022-02-10T08:56:59Z</time>
      </trkpt>
      <trkpt lat="47.52859" lon="1.8187274">
        <ele>139.0</ele>
        <time>2022-02-10T08:57:00Z</time>
      </trkpt>
      <trkpt lat="47.5286" lon="1.8187121">
        <ele>139.0</ele>
        <time>2022-02-10T08:57:01Z</time>
      </trkpt>
      <trkpt lat="47.528603" lon="1.8186982">
        <ele>138.0</ele>
        <time>2022-02-10T08:57:02Z</time>
      </trkpt>
      <trkpt lat="47.52861" lon="1.8186834">
        <ele>138.0</ele>
        <time>2022-02-10T08:57:03Z</time>
      </trkpt>
      <trkpt lat="47.528618" lon="1.8186674">
        <ele>138.0</ele>
        <time>2022-02-10T08:57:04Z</time>
      </trkpt>
      <trkpt lat="47.52862" lon="1.8186551">
        <ele>138.0</ele>
        <time>2022-02-10T08:57:05Z</time>
      </trkpt>
      <trkpt lat="47.528625" lon="1.8186395">
        <ele>138.0</ele>
        <time>2022-02-10T08:57:06Z</time>
      </trkpt>
      <trkpt lat="47.528633" lon="1.8186245">
        <ele>138.0</ele>
        <time>2022-02-10T08:57:07Z</time>
      </trkpt>
      <trkpt lat="47.52864" lon="1.8186116">
        <ele>138.0</ele>
        <time>2022-02-10T08:57:08Z</time>
      </trkpt>
      <trkpt lat="47.52865" lon="1.8185967">
        <ele>138.0</ele>
        <time>2022-02-10T08:57:09Z</time>
      </trkpt>
      <trkpt lat="47.52866" lon="1.8185823">
        <ele>138.0</ele>
        <time>2022-02-10T08:57:10Z</time>
      </trkpt>
      <trkpt lat="47.528667" lon="1.8185681">
        <ele>138.0</ele>
        <time>2022-02-10T08:57:11Z</time>
      </trkpt>
      <trkpt lat="47.52867" lon="1.8185507">
        <ele>138.0</ele>
        <time>2022-02-10T08:57:12Z</time>
      </trkpt>
      <trkpt lat="47.52868" lon="1.8185321">
        <ele>138.0</ele>
        <time>2022-02-10T08:57:13Z</time>
      </trkpt>
      <trkpt lat="47.528683" lon="1.8185136">
        <ele>138.0</ele>
        <time>2022-02-10T08:57:14Z</time>
      </trkpt>
      <trkpt lat="47.52869" lon="1.818495">
        <ele>138.0</ele>
        <time>2022-02-10T08:57:15Z</time>
      </trkpt>
      <trkpt lat="47.528698" lon="1.818479">
        <ele>138.0</ele>
        <time>2022-02-10T08:57:16Z</time>
      </trkpt>
      <trkpt lat="47.5287" lon="1.8184648">
        <ele>138.0</ele>
        <time>2022-02-10T08:57:17Z</time>
      </trkpt>
      <trkpt lat="47.52871" lon="1.8184487">
        <ele>139.0</ele>
        <time>2022-02-10T08:57:18Z</time>
      </trkpt>
      <trkpt lat="47.528713" lon="1.8184351">
        <ele>139.0</ele>
        <time>2022-02-10T08:57:19Z</time>
      </trkpt>
      <trkpt lat="47.528725" lon="1.8184241">
        <ele>139.0</ele>
        <time>2022-02-10T08:57:20Z</time>
      </trkpt>
      <trkpt lat="47.52873" lon="1.8184127">
        <ele>139.0</ele>
        <time>2022-02-10T08:57:21Z</time>
      </trkpt>
      <trkpt lat="47.528732" lon="1.8184028">
        <ele>139.0</ele>
        <time>2022-02-10T08:57:22Z</time>
      </trkpt>
      <trkpt lat="47.52874" lon="1.8183944">
        <ele>139.0</ele>
        <time>2022-02-10T08:57:23Z</time>
      </trkpt>
      <trkpt lat="47.528748" lon="1.8183844">
        <ele>139.0</ele>
        <time>2022-02-10T08:57:24Z</time>
      </trkpt>
      <trkpt lat="47.528755" lon="1.8183687">
        <ele>139.0</ele>
        <time>2022-02-10T08:57:25Z</time>
      </trkpt>
      <trkpt lat="47.528763" lon="1.8183585">
        <ele>139.0</ele>
        <time>2022-02-10T08:57:26Z</time>
      </trkpt>
      <trkpt lat="47.52877" lon="1.8183461">
        <ele>138.0</ele>
        <time>2022-02-10T08:57:27Z</time>
      </trkpt>
      <trkpt lat="47.52878" lon="1.81833">
        <ele>139.0</ele>
        <time>2022-02-10T08:57:28Z</time>
      </trkpt>
      <trkpt lat="47.52879" lon="1.8183154">
        <ele>138.0</ele>
        <time>2022-02-10T08:57:29Z</time>
      </trkpt>
      <trkpt lat="47.528793" lon="1.8182987">
        <ele>137.0</ele>
        <time>2022-02-10T08:57:30Z</time>
      </trkpt>
      <trkpt lat="47.5288" lon="1.8182812">
        <ele>136.0</ele>
        <time>2022-02-10T08:57:31Z</time>
      </trkpt>
      <trkpt lat="47.528812" lon="1.8182651">
        <ele>136.0</ele>
        <time>2022-02-10T08:57:32Z</time>
      </trkpt>
      <trkpt lat="47.52882" lon="1.8182479">
        <ele>136.0</ele>
        <time>2022-02-10T08:57:33Z</time>
      </trkpt>
      <trkpt lat="47.528824" lon="1.8182348">
        <ele>136.0</ele>
        <time>2022-02-10T08:57:34Z</time>
      </trkpt>
      <trkpt lat="47.52882" lon="1.818222">
        <ele>135.0</ele>
        <time>2022-02-10T08:57:35Z</time>
      </trkpt>
      <trkpt lat="47.528816" lon="1.8182068">
        <ele>134.0</ele>
        <time>2022-02-10T08:57:36Z</time>
      </trkpt>
      <trkpt lat="47.528816" lon="1.8182068">
        <ele>134.0</ele>
        <time>2022-02-10T08:57:37Z</time>
      </trkpt>
      <trkpt lat="47.528816" lon="1.8182068">
        <ele>134.0</ele>
        <time>2022-02-10T08:57:38Z</time>
      </trkpt>
      <trkpt lat="47.528812" lon="1.8181747">
        <ele>135.0</ele>
        <time>2022-02-10T08:57:39Z</time>
      </trkpt>
      <trkpt lat="47.52882" lon="1.8181558">
        <ele>135.0</ele>
        <time>2022-02-10T08:57:40Z</time>
      </trkpt>
      <trkpt lat="47.528828" lon="1.8181385">
        <ele>135.0</ele>
        <time>2022-02-10T08:57:41Z</time>
      </trkpt>
      <trkpt lat="47.528835" lon="1.8181154">
        <ele>135.0</ele>
        <time>2022-02-10T08:57:42Z</time>
      </trkpt>
      <trkpt lat="47.52884" lon="1.8181">
        <ele>136.0</ele>
        <time>2022-02-10T08:57:43Z</time>
      </trkpt>
      <trkpt lat="47.528843" lon="1.8180903">
        <ele>136.0</ele>
        <time>2022-02-10T08:57:44Z</time>
      </trkpt>
      <trkpt lat="47.52885" lon="1.8180733">
        <ele>136.0</ele>
        <time>2022-02-10T08:57:45Z</time>
      </trkpt>
      <trkpt lat="47.528854" lon="1.8180562">
        <ele>136.0</ele>
        <time>2022-02-10T08:57:46Z</time>
      </trkpt>
      <trkpt lat="47.528854" lon="1.8180475">
        <ele>136.0</ele>
        <time>2022-02-10T08:57:47Z</time>
      </trkpt>
      <trkpt lat="47.528862" lon="1.8180313">
        <ele>136.0</ele>
        <time>2022-02-10T08:57:48Z</time>
      </trkpt>
      <trkpt lat="47.528866" lon="1.8180177">
        <ele>136.0</ele>
        <time>2022-02-10T08:57:49Z</time>
      </trkpt>
      <trkpt lat="47.528873" lon="1.818003">
        <ele>136.0</ele>
        <time>2022-02-10T08:57:50Z</time>
      </trkpt>
      <trkpt lat="47.52888" lon="1.8179932">
        <ele>136.0</ele>
        <time>2022-02-10T08:57:51Z</time>
      </trkpt>
      <trkpt lat="47.52889" lon="1.8179779">
        <ele>136.0</ele>
        <time>2022-02-10T08:57:52Z</time>
      </trkpt>
      <trkpt lat="47.528896" lon="1.8179659">
        <ele>135.0</ele>
        <time>2022-02-10T08:57:53Z</time>
      </trkpt>
      <trkpt lat="47.5289" lon="1.8179548">
        <ele>136.0</ele>
        <time>2022-02-10T08:57:54Z</time>
      </trkpt>
      <trkpt lat="47.528904" lon="1.8179499">
        <ele>136.0</ele>
        <time>2022-02-10T08:57:55Z</time>
      </trkpt>
      <trkpt lat="47.528915" lon="1.8179432">
        <ele>135.0</ele>
        <time>2022-02-10T08:57:56Z</time>
      </trkpt>
      <trkpt lat="47.528923" lon="1.8179386">
        <ele>136.0</ele>
        <time>2022-02-10T08:57:57Z</time>
      </trkpt>
      <trkpt lat="47.52893" lon="1.8179338">
        <ele>136.0</ele>
        <time>2022-02-10T08:57:58Z</time>
      </trkpt>
      <trkpt lat="47.528942" lon="1.8179252">
        <ele>136.0</ele>
        <time>2022-02-10T08:57:59Z</time>
      </trkpt>
      <trkpt lat="47.52895" lon="1.817913">
        <ele>136.0</ele>
        <time>2022-02-10T08:58:00Z</time>
      </trkpt>
      <trkpt lat="47.528954" lon="1.8178986">
        <ele>136.0</ele>
        <time>2022-02-10T08:58:01Z</time>
      </trkpt>
      <trkpt lat="47.52896" lon="1.8178828">
        <ele>136.0</ele>
        <time>2022-02-10T08:58:02Z</time>
      </trkpt>
      <trkpt lat="47.52897" lon="1.8178664">
        <ele>136.0</ele>
        <time>2022-02-10T08:58:03Z</time>
      </trkpt>
      <trkpt lat="47.528976" lon="1.8178526">
        <ele>136.0</ele>
        <time>2022-02-10T08:58:04Z</time>
      </trkpt>
      <trkpt lat="47.528988" lon="1.8178366">
        <ele>137.0</ele>
        <time>2022-02-10T08:58:05Z</time>
      </trkpt>
      <trkpt lat="47.528996" lon="1.8178217">
        <ele>137.0</ele>
        <time>2022-02-10T08:58:06Z</time>
      </trkpt>
      <trkpt lat="47.529003" lon="1.8178105">
        <ele>137.0</ele>
        <time>2022-02-10T08:58:07Z</time>
      </trkpt>
      <trkpt lat="47.52901" lon="1.8177954">
        <ele>136.0</ele>
        <time>2022-02-10T08:58:08Z</time>
      </trkpt>
      <trkpt lat="47.529015" lon="1.8177806">
        <ele>136.0</ele>
        <time>2022-02-10T08:58:09Z</time>
      </trkpt>
      <trkpt lat="47.529022" lon="1.817767">
        <ele>137.0</ele>
        <time>2022-02-10T08:58:10Z</time>
      </trkpt>
      <trkpt lat="47.529026" lon="1.8177598">
        <ele>137.0</ele>
        <time>2022-02-10T08:58:11Z</time>
      </trkpt>
      <trkpt lat="47.529026" lon="1.817749">
        <ele>137.0</ele>
        <time>2022-02-10T08:58:12Z</time>
      </trkpt>
      <trkpt lat="47.52903" lon="1.8177309">
        <ele>137.0</ele>
        <time>2022-02-10T08:58:13Z</time>
      </trkpt>
      <trkpt lat="47.529037" lon="1.817718">
        <ele>137.0</ele>
        <time>2022-02-10T08:58:14Z</time>
      </trkpt>
      <trkpt lat="47.52905" lon="1.8177049">
        <ele>137.0</ele>
        <time>2022-02-10T08:58:15Z</time>
      </trkpt>
      <trkpt lat="47.529057" lon="1.817692">
        <ele>137.0</ele>
        <time>2022-02-10T08:58:16Z</time>
      </trkpt>
      <trkpt lat="47.529068" lon="1.8176758">
        <ele>138.0</ele>
        <time>2022-02-10T08:58:17Z</time>
      </trkpt>
      <trkpt lat="47.529076" lon="1.8176618">
        <ele>138.0</ele>
        <time>2022-02-10T08:58:18Z</time>
      </trkpt>
      <trkpt lat="47.529083" lon="1.8176465">
        <ele>137.0</ele>
        <time>2022-02-10T08:58:19Z</time>
      </trkpt>
      <trkpt lat="47.52909" lon="1.817629">
        <ele>137.0</ele>
        <time>2022-02-10T08:58:20Z</time>
      </trkpt>
      <trkpt lat="47.5291" lon="1.8176137">
        <ele>137.0</ele>
        <time>2022-02-10T08:58:21Z</time>
      </trkpt>
      <trkpt lat="47.529102" lon="1.8175972">
        <ele>137.0</ele>
        <time>2022-02-10T08:58:22Z</time>
      </trkpt>
      <trkpt lat="47.529106" lon="1.8175837">
        <ele>137.0</ele>
        <time>2022-02-10T08:58:23Z</time>
      </trkpt>
      <trkpt lat="47.529114" lon="1.8175688">
        <ele>137.0</ele>
        <time>2022-02-10T08:58:24Z</time>
      </trkpt>
      <trkpt lat="47.52912" lon="1.8175509">
        <ele>137.0</ele>
        <time>2022-02-10T08:58:25Z</time>
      </trkpt>
      <trkpt lat="47.52913" lon="1.8175355">
        <ele>137.0</ele>
        <time>2022-02-10T08:58:26Z</time>
      </trkpt>
      <trkpt lat="47.529137" lon="1.8175213">
        <ele>137.0</ele>
        <time>2022-02-10T08:58:27Z</time>
      </trkpt>
      <trkpt lat="47.529144" lon="1.817507">
        <ele>137.0</ele>
        <time>2022-02-10T08:58:28Z</time>
      </trkpt>
      <trkpt lat="47.529152" lon="1.8175025">
        <ele>137.0</ele>
        <time>2022-02-10T08:58:29Z</time>
      </trkpt>
      <trkpt lat="47.529156" lon="1.8174924">
        <ele>138.0</ele>
        <time>2022-02-10T08:58:30Z</time>
      </trkpt>
      <trkpt lat="47.529163" lon="1.8174813">
        <ele>137.0</ele>
        <time>2022-02-10T08:58:31Z</time>
      </trkpt>
      <trkpt lat="47.529167" lon="1.8174697">
        <ele>138.0</ele>
        <time>2022-02-10T08:58:32Z</time>
      </trkpt>
      <trkpt lat="47.529175" lon="1.817457">
        <ele>138.0</ele>
        <time>2022-02-10T08:58:33Z</time>
      </trkpt>
      <trkpt lat="47.529186" lon="1.8174431">
        <ele>138.0</ele>
        <time>2022-02-10T08:58:34Z</time>
      </trkpt>
      <trkpt lat="47.52919" lon="1.8174291">
        <ele>138.0</ele>
        <time>2022-02-10T08:58:35Z</time>
      </trkpt>
      <trkpt lat="47.529194" lon="1.8174208">
        <ele>138.0</ele>
        <time>2022-02-10T08:58:36Z</time>
      </trkpt>
      <trkpt lat="47.5292" lon="1.8174148">
        <ele>138.0</ele>
        <time>2022-02-10T08:58:37Z</time>
      </trkpt>
      <trkpt lat="47.529205" lon="1.8174053">
        <ele>138.0</ele>
        <time>2022-02-10T08:58:38Z</time>
      </trkpt>
      <trkpt lat="47.529213" lon="1.8173902">
        <ele>138.0</ele>
        <time>2022-02-10T08:58:39Z</time>
      </trkpt>
      <trkpt lat="47.529217" lon="1.8173802">
        <ele>138.0</ele>
        <time>2022-02-10T08:58:40Z</time>
      </trkpt>
      <trkpt lat="47.529224" lon="1.8173753">
        <ele>138.0</ele>
        <time>2022-02-10T08:58:41Z</time>
      </trkpt>
      <trkpt lat="47.529232" lon="1.8173618">
        <ele>138.0</ele>
        <time>2022-02-10T08:58:42Z</time>
      </trkpt>
      <trkpt lat="47.52924" lon="1.817345">
        <ele>138.0</ele>
        <time>2022-02-10T08:58:43Z</time>
      </trkpt>
      <trkpt lat="47.529247" lon="1.81733">
        <ele>137.0</ele>
        <time>2022-02-10T08:58:44Z</time>
      </trkpt>
      <trkpt lat="47.529255" lon="1.8173192">
        <ele>138.0</ele>
        <time>2022-02-10T08:58:45Z</time>
      </trkpt>
      <trkpt lat="47.529263" lon="1.817308">
        <ele>137.0</ele>
        <time>2022-02-10T08:58:46Z</time>
      </trkpt>
      <trkpt lat="47.52927" lon="1.8172948">
        <ele>137.0</ele>
        <time>2022-02-10T08:58:47Z</time>
      </trkpt>
      <trkpt lat="47.529278" lon="1.8172842">
        <ele>137.0</ele>
        <time>2022-02-10T08:58:48Z</time>
      </trkpt>
      <trkpt lat="47.529285" lon="1.817271">
        <ele>138.0</ele>
        <time>2022-02-10T08:58:49Z</time>
      </trkpt>
      <trkpt lat="47.529293" lon="1.8172596">
        <ele>138.0</ele>
        <time>2022-02-10T08:58:50Z</time>
      </trkpt>
      <trkpt lat="47.529297" lon="1.8172475">
        <ele>137.0</ele>
        <time>2022-02-10T08:58:51Z</time>
      </trkpt>
      <trkpt lat="47.529305" lon="1.817236">
        <ele>137.0</ele>
        <time>2022-02-10T08:58:52Z</time>
      </trkpt>
      <trkpt lat="47.52931" lon="1.8172225">
        <ele>137.0</ele>
        <time>2022-02-10T08:58:53Z</time>
      </trkpt>
      <trkpt lat="47.529312" lon="1.8172122">
        <ele>137.0</ele>
        <time>2022-02-10T08:58:54Z</time>
      </trkpt>
      <trkpt lat="47.52932" lon="1.8171974">
        <ele>137.0</ele>
        <time>2022-02-10T08:58:55Z</time>
      </trkpt>
      <trkpt lat="47.529324" lon="1.8171858">
        <ele>137.0</ele>
        <time>2022-02-10T08:58:56Z</time>
      </trkpt>
      <trkpt lat="47.529335" lon="1.8171607">
        <ele>137.0</ele>
        <time>2022-02-10T08:58:57Z</time>
      </trkpt>
      <trkpt lat="47.529343" lon="1.8171428">
        <ele>137.0</ele>
        <time>2022-02-10T08:58:58Z</time>
      </trkpt>
      <trkpt lat="47.52935" lon="1.8171309">
        <ele>137.0</ele>
        <time>2022-02-10T08:58:59Z</time>
      </trkpt>
      <trkpt lat="47.529358" lon="1.8171189">
        <ele>137.0</ele>
        <time>2022-02-10T08:59:00Z</time>
      </trkpt>
      <trkpt lat="47.529366" lon="1.8171107">
        <ele>137.0</ele>
        <time>2022-02-10T08:59:01Z</time>
      </trkpt>
      <trkpt lat="47.52937" lon="1.8170993">
        <ele>137.0</ele>
        <time>2022-02-10T08:59:02Z</time>
      </trkpt>
      <trkpt lat="47.529373" lon="1.8170917">
        <ele>137.0</ele>
        <time>2022-02-10T08:59:03Z</time>
      </trkpt>
      <trkpt lat="47.52938" lon="1.8170787">
        <ele>137.0</ele>
        <time>2022-02-10T08:59:04Z</time>
      </trkpt>
      <trkpt lat="47.52939" lon="1.8170664">
        <ele>137.0</ele>
        <time>2022-02-10T08:59:05Z</time>
      </trkpt>
      <trkpt lat="47.529396" lon="1.8170516">
        <ele>137.0</ele>
        <time>2022-02-10T08:59:06Z</time>
      </trkpt>
      <trkpt lat="47.529404" lon="1.8170406">
        <ele>137.0</ele>
        <time>2022-02-10T08:59:07Z</time>
      </trkpt>
      <trkpt lat="47.52941" lon="1.8170339">
        <ele>136.0</ele>
        <time>2022-02-10T08:59:08Z</time>
      </trkpt>
      <trkpt lat="47.529415" lon="1.8170259">
        <ele>136.0</ele>
        <time>2022-02-10T08:59:09Z</time>
      </trkpt>
      <trkpt lat="47.52942" lon="1.817012">
        <ele>136.0</ele>
        <time>2022-02-10T08:59:10Z</time>
      </trkpt>
      <trkpt lat="47.529423" lon="1.8169984">
        <ele>136.0</ele>
        <time>2022-02-10T08:59:11Z</time>
      </trkpt>
      <trkpt lat="47.52943" lon="1.8169826">
        <ele>135.0</ele>
        <time>2022-02-10T08:59:12Z</time>
      </trkpt>
      <trkpt lat="47.529438" lon="1.8169649">
        <ele>135.0</ele>
        <time>2022-02-10T08:59:13Z</time>
      </trkpt>
      <trkpt lat="47.529446" lon="1.8169484">
        <ele>135.0</ele>
        <time>2022-02-10T08:59:14Z</time>
      </trkpt>
      <trkpt lat="47.529453" lon="1.8169318">
        <ele>135.0</ele>
        <time>2022-02-10T08:59:15Z</time>
      </trkpt>
      <trkpt lat="47.52946" lon="1.8169158">
        <ele>135.0</ele>
        <time>2022-02-10T08:59:16Z</time>
      </trkpt>
      <trkpt lat="47.52947" lon="1.8168963">
        <ele>135.0</ele>
        <time>2022-02-10T08:59:17Z</time>
      </trkpt>
      <trkpt lat="47.529476" lon="1.8168781">
        <ele>135.0</ele>
        <time>2022-02-10T08:59:18Z</time>
      </trkpt>
      <trkpt lat="47.529484" lon="1.816865">
        <ele>135.0</ele>
        <time>2022-02-10T08:59:19Z</time>
      </trkpt>
      <trkpt lat="47.52949" lon="1.816853">
        <ele>135.0</ele>
        <time>2022-02-10T08:59:20Z</time>
      </trkpt>
      <trkpt lat="47.529495" lon="1.8168457">
        <ele>135.0</ele>
        <time>2022-02-10T08:59:21Z</time>
      </trkpt>
      <trkpt lat="47.529503" lon="1.8168362">
        <ele>135.0</ele>
        <time>2022-02-10T08:59:22Z</time>
      </trkpt>
      <trkpt lat="47.52951" lon="1.8168167">
        <ele>136.0</ele>
        <time>2022-02-10T08:59:23Z</time>
      </trkpt>
      <trkpt lat="47.52952" lon="1.8167957">
        <ele>136.0</ele>
        <time>2022-02-10T08:59:24Z</time>
      </trkpt>
      <trkpt lat="47.529522" lon="1.8167851">
        <ele>136.0</ele>
        <time>2022-02-10T08:59:25Z</time>
      </trkpt>
      <trkpt lat="47.529526" lon="1.8167757">
        <ele>136.0</ele>
        <time>2022-02-10T08:59:26Z</time>
      </trkpt>
      <trkpt lat="47.529533" lon="1.8167684">
        <ele>136.0</ele>
        <time>2022-02-10T08:59:27Z</time>
      </trkpt>
      <trkpt lat="47.529537" lon="1.8167611">
        <ele>136.0</ele>
        <time>2022-02-10T08:59:28Z</time>
      </trkpt>
      <trkpt lat="47.529545" lon="1.8167546">
        <ele>136.0</ele>
        <time>2022-02-10T08:59:29Z</time>
      </trkpt>
      <trkpt lat="47.529552" lon="1.8167391">
        <ele>136.0</ele>
        <time>2022-02-10T08:59:30Z</time>
      </trkpt>
      <trkpt lat="47.52956" lon="1.8167242">
        <ele>136.0</ele>
        <time>2022-02-10T08:59:31Z</time>
      </trkpt>
      <trkpt lat="47.529564" lon="1.8167131">
        <ele>136.0</ele>
        <time>2022-02-10T08:59:32Z</time>
      </trkpt>
      <trkpt lat="47.529568" lon="1.8166993">
        <ele>136.0</ele>
        <time>2022-02-10T08:59:33Z</time>
      </trkpt>
      <trkpt lat="47.529575" lon="1.8166833">
        <ele>136.0</ele>
        <time>2022-02-10T08:59:34Z</time>
      </trkpt>
      <trkpt lat="47.529583" lon="1.8166689">
        <ele>136.0</ele>
        <time>2022-02-10T08:59:35Z</time>
      </trkpt>
      <trkpt lat="47.52959" lon="1.8166525">
        <ele>137.0</ele>
        <time>2022-02-10T08:59:36Z</time>
      </trkpt>
      <trkpt lat="47.5296" lon="1.8166394">
        <ele>137.0</ele>
        <time>2022-02-10T08:59:37Z</time>
      </trkpt>
      <trkpt lat="47.529606" lon="1.816627">
        <ele>137.0</ele>
        <time>2022-02-10T08:59:38Z</time>
      </trkpt>
      <trkpt lat="47.529617" lon="1.8166136">
        <ele>137.0</ele>
        <time>2022-02-10T08:59:39Z</time>
      </trkpt>
      <trkpt lat="47.52962" lon="1.8165992">
        <ele>136.0</ele>
        <time>2022-02-10T08:59:40Z</time>
      </trkpt>
      <trkpt lat="47.52963" lon="1.816586">
        <ele>136.0</ele>
        <time>2022-02-10T08:59:41Z</time>
      </trkpt>
      <trkpt lat="47.529636" lon="1.8165725">
        <ele>136.0</ele>
        <time>2022-02-10T08:59:42Z</time>
      </trkpt>
      <trkpt lat="47.529644" lon="1.8165576">
        <ele>136.0</ele>
        <time>2022-02-10T08:59:43Z</time>
      </trkpt>
      <trkpt lat="47.529648" lon="1.8165375">
        <ele>137.0</ele>
        <time>2022-02-10T08:59:44Z</time>
      </trkpt>
      <trkpt lat="47.529655" lon="1.8165215">
        <ele>137.0</ele>
        <time>2022-02-10T08:59:45Z</time>
      </trkpt>
      <trkpt lat="47.529663" lon="1.816502">
        <ele>137.0</ele>
        <time>2022-02-10T08:59:46Z</time>
      </trkpt>
      <trkpt lat="47.52967" lon="1.8164855">
        <ele>137.0</ele>
        <time>2022-02-10T08:59:47Z</time>
      </trkpt>
      <trkpt lat="47.52968" lon="1.8164693">
        <ele>137.0</ele>
        <time>2022-02-10T08:59:48Z</time>
      </trkpt>
      <trkpt lat="47.529686" lon="1.8164545">
        <ele>137.0</ele>
        <time>2022-02-10T08:59:49Z</time>
      </trkpt>
      <trkpt lat="47.529694" lon="1.8164341">
        <ele>137.0</ele>
        <time>2022-02-10T08:59:50Z</time>
      </trkpt>
      <trkpt lat="47.5297" lon="1.8164175">
        <ele>136.0</ele>
        <time>2022-02-10T08:59:51Z</time>
      </trkpt>
      <trkpt lat="47.52971" lon="1.8164014">
        <ele>136.0</ele>
        <time>2022-02-10T08:59:52Z</time>
      </trkpt>
      <trkpt lat="47.529713" lon="1.8163826">
        <ele>137.0</ele>
        <time>2022-02-10T08:59:53Z</time>
      </trkpt>
      <trkpt lat="47.52972" lon="1.8163664">
        <ele>136.0</ele>
        <time>2022-02-10T08:59:54Z</time>
      </trkpt>
      <trkpt lat="47.529728" lon="1.81635">
        <ele>137.0</ele>
        <time>2022-02-10T08:59:55Z</time>
      </trkpt>
      <trkpt lat="47.52973" lon="1.8163387">
        <ele>137.0</ele>
        <time>2022-02-10T08:59:56Z</time>
      </trkpt>
      <trkpt lat="47.529743" lon="1.816328">
        <ele>137.0</ele>
        <time>2022-02-10T08:59:57Z</time>
      </trkpt>
      <trkpt lat="47.529747" lon="1.8163158">
        <ele>137.0</ele>
        <time>2022-02-10T08:59:58Z</time>
      </trkpt>
      <trkpt lat="47.52976" lon="1.8163052">
        <ele>137.0</ele>
        <time>2022-02-10T08:59:59Z</time>
      </trkpt>
      <trkpt lat="47.529766" lon="1.8162931">
        <ele>137.0</ele>
        <time>2022-02-10T09:00:00Z</time>
      </trkpt>
      <trkpt lat="47.52977" lon="1.8162812">
        <ele>137.0</ele>
        <time>2022-02-10T09:00:01Z</time>
      </trkpt>
      <trkpt lat="47.529778" lon="1.8162631">
        <ele>137.0</ele>
        <time>2022-02-10T09:00:02Z</time>
      </trkpt>
      <trkpt lat="47.529785" lon="1.8162488">
        <ele>137.0</ele>
        <time>2022-02-10T09:00:03Z</time>
      </trkpt>
      <trkpt lat="47.529793" lon="1.8162354">
        <ele>137.0</ele>
        <time>2022-02-10T09:00:04Z</time>
      </trkpt>
      <trkpt lat="47.529804" lon="1.8162111">
        <ele>138.0</ele>
        <time>2022-02-10T09:00:05Z</time>
      </trkpt>
      <trkpt lat="47.529816" lon="1.8161914">
        <ele>138.0</ele>
        <time>2022-02-10T09:00:06Z</time>
      </trkpt>
      <trkpt lat="47.529823" lon="1.8161705">
        <ele>138.0</ele>
        <time>2022-02-10T09:00:07Z</time>
      </trkpt>
      <trkpt lat="47.52983" lon="1.8161485">
        <ele>138.0</ele>
        <time>2022-02-10T09:00:08Z</time>
      </trkpt>
      <trkpt lat="47.52984" lon="1.8161272">
        <ele>138.0</ele>
        <time>2022-02-10T09:00:09Z</time>
      </trkpt>
      <trkpt lat="47.52985" lon="1.8161083">
        <ele>138.0</ele>
        <time>2022-02-10T09:00:10Z</time>
      </trkpt>
      <trkpt lat="47.529858" lon="1.8160925">
        <ele>138.0</ele>
        <time>2022-02-10T09:00:11Z</time>
      </trkpt>
      <trkpt lat="47.52986" lon="1.8160747">
        <ele>138.0</ele>
        <time>2022-02-10T09:00:12Z</time>
      </trkpt>
      <trkpt lat="47.52987" lon="1.8160567">
        <ele>138.0</ele>
        <time>2022-02-10T09:00:13Z</time>
      </trkpt>
      <trkpt lat="47.529877" lon="1.81604">
        <ele>138.0</ele>
        <time>2022-02-10T09:00:14Z</time>
      </trkpt>
      <trkpt lat="47.52988" lon="1.816023">
        <ele>137.0</ele>
        <time>2022-02-10T09:00:15Z</time>
      </trkpt>
      <trkpt lat="47.52989" lon="1.8160061">
        <ele>137.0</ele>
        <time>2022-02-10T09:00:16Z</time>
      </trkpt>
      <trkpt lat="47.529896" lon="1.8159884">
        <ele>136.0</ele>
        <time>2022-02-10T09:00:17Z</time>
      </trkpt>
      <trkpt lat="47.529903" lon="1.8159773">
        <ele>136.0</ele>
        <time>2022-02-10T09:00:18Z</time>
      </trkpt>
      <trkpt lat="47.52991" lon="1.8159629">
        <ele>136.0</ele>
        <time>2022-02-10T09:00:19Z</time>
      </trkpt>
      <trkpt lat="47.529915" lon="1.8159503">
        <ele>136.0</ele>
        <time>2022-02-10T09:00:20Z</time>
      </trkpt>
      <trkpt lat="47.529922" lon="1.8159336">
        <ele>136.0</ele>
        <time>2022-02-10T09:00:21Z</time>
      </trkpt>
      <trkpt lat="47.529926" lon="1.815922">
        <ele>136.0</ele>
        <time>2022-02-10T09:00:22Z</time>
      </trkpt>
      <trkpt lat="47.529934" lon="1.8159091">
        <ele>136.0</ele>
        <time>2022-02-10T09:00:23Z</time>
      </trkpt>
      <trkpt lat="47.52994" lon="1.815892">
        <ele>136.0</ele>
        <time>2022-02-10T09:00:24Z</time>
      </trkpt>
      <trkpt lat="47.529945" lon="1.8158746">
        <ele>136.0</ele>
        <time>2022-02-10T09:00:25Z</time>
      </trkpt>
      <trkpt lat="47.529953" lon="1.8158553">
        <ele>136.0</ele>
        <time>2022-02-10T09:00:26Z</time>
      </trkpt>
      <trkpt lat="47.52996" lon="1.8158371">
        <ele>136.0</ele>
        <time>2022-02-10T09:00:27Z</time>
      </trkpt>
      <trkpt lat="47.529964" lon="1.8158212">
        <ele>136.0</ele>
        <time>2022-02-10T09:00:28Z</time>
      </trkpt>
      <trkpt lat="47.529972" lon="1.8158084">
        <ele>136.0</ele>
        <time>2022-02-10T09:00:29Z</time>
      </trkpt>
      <trkpt lat="47.52998" lon="1.8157924">
        <ele>136.0</ele>
        <time>2022-02-10T09:00:30Z</time>
      </trkpt>
      <trkpt lat="47.52998" lon="1.8157924">
        <ele>136.0</ele>
        <time>2022-02-10T09:00:31Z</time>
      </trkpt>
      <trkpt lat="47.52998" lon="1.8157924">
        <ele>136.0</ele>
        <time>2022-02-10T09:00:32Z</time>
      </trkpt>
      <trkpt lat="47.529995" lon="1.8157527">
        <ele>136.0</ele>
        <time>2022-02-10T09:00:33Z</time>
      </trkpt>
      <trkpt lat="47.53" lon="1.8157357">
        <ele>135.0</ele>
        <time>2022-02-10T09:00:34Z</time>
      </trkpt>
      <trkpt lat="47.530006" lon="1.8157175">
        <ele>135.0</ele>
        <time>2022-02-10T09:00:35Z</time>
      </trkpt>
      <trkpt lat="47.53001" lon="1.8156998">
        <ele>135.0</ele>
        <time>2022-02-10T09:00:36Z</time>
      </trkpt>
      <trkpt lat="47.530018" lon="1.8156837">
        <ele>135.0</ele>
        <time>2022-02-10T09:00:37Z</time>
      </trkpt>
      <trkpt lat="47.53002" lon="1.8156698">
        <ele>135.0</ele>
        <time>2022-02-10T09:00:38Z</time>
      </trkpt>
      <trkpt lat="47.53003" lon="1.8156507">
        <ele>135.0</ele>
        <time>2022-02-10T09:00:39Z</time>
      </trkpt>
      <trkpt lat="47.530037" lon="1.8156285">
        <ele>135.0</ele>
        <time>2022-02-10T09:00:40Z</time>
      </trkpt>
      <trkpt lat="47.53005" lon="1.8156086">
        <ele>134.0</ele>
        <time>2022-02-10T09:00:41Z</time>
      </trkpt>
      <trkpt lat="47.530056" lon="1.8155873">
        <ele>134.0</ele>
        <time>2022-02-10T09:00:42Z</time>
      </trkpt>
      <trkpt lat="47.530064" lon="1.8155644">
        <ele>134.0</ele>
        <time>2022-02-10T09:00:43Z</time>
      </trkpt>
      <trkpt lat="47.53007" lon="1.8155485">
        <ele>134.0</ele>
        <time>2022-02-10T09:00:44Z</time>
      </trkpt>
      <trkpt lat="47.530083" lon="1.8155308">
        <ele>134.0</ele>
        <time>2022-02-10T09:00:45Z</time>
      </trkpt>
      <trkpt lat="47.530094" lon="1.8155135">
        <ele>134.0</ele>
        <time>2022-02-10T09:00:46Z</time>
      </trkpt>
      <trkpt lat="47.5301" lon="1.8154948">
        <ele>134.0</ele>
        <time>2022-02-10T09:00:47Z</time>
      </trkpt>
      <trkpt lat="47.53011" lon="1.8154762">
        <ele>134.0</ele>
        <time>2022-02-10T09:00:48Z</time>
      </trkpt>
      <trkpt lat="47.530117" lon="1.8154539">
        <ele>134.0</ele>
        <time>2022-02-10T09:00:49Z</time>
      </trkpt>
      <trkpt lat="47.530125" lon="1.8154352">
        <ele>134.0</ele>
        <time>2022-02-10T09:00:50Z</time>
      </trkpt>
      <trkpt lat="47.530132" lon="1.8154147">
        <ele>133.0</ele>
        <time>2022-02-10T09:00:51Z</time>
      </trkpt>
      <trkpt lat="47.530136" lon="1.8153971">
        <ele>133.0</ele>
        <time>2022-02-10T09:00:52Z</time>
      </trkpt>
      <trkpt lat="47.530148" lon="1.81538">
        <ele>133.0</ele>
        <time>2022-02-10T09:00:53Z</time>
      </trkpt>
      <trkpt lat="47.530155" lon="1.815364">
        <ele>133.0</ele>
        <time>2022-02-10T09:00:54Z</time>
      </trkpt>
      <trkpt lat="47.530163" lon="1.8153512">
        <ele>133.0</ele>
        <time>2022-02-10T09:00:55Z</time>
      </trkpt>
      <trkpt lat="47.53017" lon="1.815337">
        <ele>134.0</ele>
        <time>2022-02-10T09:00:56Z</time>
      </trkpt>
      <trkpt lat="47.530178" lon="1.81532">
        <ele>134.0</ele>
        <time>2022-02-10T09:00:57Z</time>
      </trkpt>
      <trkpt lat="47.53019" lon="1.8153034">
        <ele>134.0</ele>
        <time>2022-02-10T09:00:58Z</time>
      </trkpt>
      <trkpt lat="47.530197" lon="1.8152872">
        <ele>134.0</ele>
        <time>2022-02-10T09:00:59Z</time>
      </trkpt>
      <trkpt lat="47.530205" lon="1.8152717">
        <ele>134.0</ele>
        <time>2022-02-10T09:01:00Z</time>
      </trkpt>
      <trkpt lat="47.530212" lon="1.8152549">
        <ele>134.0</ele>
        <time>2022-02-10T09:01:01Z</time>
      </trkpt>
      <trkpt lat="47.530224" lon="1.8152394">
        <ele>134.0</ele>
        <time>2022-02-10T09:01:02Z</time>
      </trkpt>
      <trkpt lat="47.530235" lon="1.8152272">
        <ele>134.0</ele>
        <time>2022-02-10T09:01:03Z</time>
      </trkpt>
      <trkpt lat="47.530243" lon="1.8152106">
        <ele>134.0</ele>
        <time>2022-02-10T09:01:04Z</time>
      </trkpt>
      <trkpt lat="47.530254" lon="1.8151988">
        <ele>135.0</ele>
        <time>2022-02-10T09:01:05Z</time>
      </trkpt>
      <trkpt lat="47.530262" lon="1.8151883">
        <ele>135.0</ele>
        <time>2022-02-10T09:01:06Z</time>
      </trkpt>
      <trkpt lat="47.530273" lon="1.8151767">
        <ele>135.0</ele>
        <time>2022-02-10T09:01:07Z</time>
      </trkpt>
      <trkpt lat="47.530285" lon="1.8151655">
        <ele>135.0</ele>
        <time>2022-02-10T09:01:08Z</time>
      </trkpt>
      <trkpt lat="47.530296" lon="1.815153">
        <ele>135.0</ele>
        <time>2022-02-10T09:01:09Z</time>
      </trkpt>
      <trkpt lat="47.530304" lon="1.815139">
        <ele>135.0</ele>
        <time>2022-02-10T09:01:10Z</time>
      </trkpt>
      <trkpt lat="47.530315" lon="1.8151287">
        <ele>135.0</ele>
        <time>2022-02-10T09:01:11Z</time>
      </trkpt>
      <trkpt lat="47.530327" lon="1.8151183">
        <ele>135.0</ele>
        <time>2022-02-10T09:01:12Z</time>
      </trkpt>
      <trkpt lat="47.53034" lon="1.8151076">
        <ele>135.0</ele>
        <time>2022-02-10T09:01:13Z</time>
      </trkpt>
      <trkpt lat="47.530346" lon="1.8151001">
        <ele>135.0</ele>
        <time>2022-02-10T09:01:14Z</time>
      </trkpt>
      <trkpt lat="47.53036" lon="1.8150835">
        <ele>135.0</ele>
        <time>2022-02-10T09:01:15Z</time>
      </trkpt>
      <trkpt lat="47.53037" lon="1.815073">
        <ele>135.0</ele>
        <time>2022-02-10T09:01:16Z</time>
      </trkpt>
      <trkpt lat="47.530384" lon="1.8150605">
        <ele>135.0</ele>
        <time>2022-02-10T09:01:17Z</time>
      </trkpt>
      <trkpt lat="47.53039" lon="1.8150473">
        <ele>135.0</ele>
        <time>2022-02-10T09:01:18Z</time>
      </trkpt>
      <trkpt lat="47.530403" lon="1.8150336">
        <ele>136.0</ele>
        <time>2022-02-10T09:01:19Z</time>
      </trkpt>
      <trkpt lat="47.530415" lon="1.8150222">
        <ele>136.0</ele>
        <time>2022-02-10T09:01:20Z</time>
      </trkpt>
      <trkpt lat="47.53042" lon="1.815013">
        <ele>136.0</ele>
        <time>2022-02-10T09:01:21Z</time>
      </trkpt>
      <trkpt lat="47.53043" lon="1.815003">
        <ele>135.0</ele>
        <time>2022-02-10T09:01:22Z</time>
      </trkpt>
      <trkpt lat="47.530437" lon="1.8149909">
        <ele>135.0</ele>
        <time>2022-02-10T09:01:23Z</time>
      </trkpt>
      <trkpt lat="47.530445" lon="1.8149807">
        <ele>135.0</ele>
        <time>2022-02-10T09:01:24Z</time>
      </trkpt>
      <trkpt lat="47.530457" lon="1.8149648">
        <ele>135.0</ele>
        <time>2022-02-10T09:01:25Z</time>
      </trkpt>
      <trkpt lat="47.530464" lon="1.8149536">
        <ele>135.0</ele>
        <time>2022-02-10T09:01:26Z</time>
      </trkpt>
      <trkpt lat="47.53047" lon="1.8149467">
        <ele>134.0</ele>
        <time>2022-02-10T09:01:27Z</time>
      </trkpt>
      <trkpt lat="47.530483" lon="1.814933">
        <ele>134.0</ele>
        <time>2022-02-10T09:01:28Z</time>
      </trkpt>
      <trkpt lat="47.53049" lon="1.8149288">
        <ele>134.0</ele>
        <time>2022-02-10T09:01:29Z</time>
      </trkpt>
      <trkpt lat="47.5305" lon="1.8149176">
        <ele>134.0</ele>
        <time>2022-02-10T09:01:30Z</time>
      </trkpt>
      <trkpt lat="47.53051" lon="1.8149054">
        <ele>135.0</ele>
        <time>2022-02-10T09:01:31Z</time>
      </trkpt>
      <trkpt lat="47.530518" lon="1.8149017">
        <ele>135.0</ele>
        <time>2022-02-10T09:01:32Z</time>
      </trkpt>
      <trkpt lat="47.530525" lon="1.8148879">
        <ele>135.0</ele>
        <time>2022-02-10T09:01:33Z</time>
      </trkpt>
      <trkpt lat="47.530537" lon="1.8148779">
        <ele>135.0</ele>
        <time>2022-02-10T09:01:34Z</time>
      </trkpt>
      <trkpt lat="47.530544" lon="1.8148698">
        <ele>135.0</ele>
        <time>2022-02-10T09:01:35Z</time>
      </trkpt>
      <trkpt lat="47.530556" lon="1.8148599">
        <ele>135.0</ele>
        <time>2022-02-10T09:01:36Z</time>
      </trkpt>
      <trkpt lat="47.530567" lon="1.8148491">
        <ele>135.0</ele>
        <time>2022-02-10T09:01:37Z</time>
      </trkpt>
      <trkpt lat="47.530575" lon="1.8148365">
        <ele>135.0</ele>
        <time>2022-02-10T09:01:38Z</time>
      </trkpt>
      <trkpt lat="47.530586" lon="1.8148228">
        <ele>135.0</ele>
        <time>2022-02-10T09:01:39Z</time>
      </trkpt>
      <trkpt lat="47.530594" lon="1.8148086">
        <ele>136.0</ele>
        <time>2022-02-10T09:01:40Z</time>
      </trkpt>
      <trkpt lat="47.530605" lon="1.8147963">
        <ele>136.0</ele>
        <time>2022-02-10T09:01:41Z</time>
      </trkpt>
      <trkpt lat="47.530613" lon="1.8147863">
        <ele>136.0</ele>
        <time>2022-02-10T09:01:42Z</time>
      </trkpt>
      <trkpt lat="47.53062" lon="1.8147746">
        <ele>136.0</ele>
        <time>2022-02-10T09:01:43Z</time>
      </trkpt>
      <trkpt lat="47.530632" lon="1.8147672">
        <ele>135.0</ele>
        <time>2022-02-10T09:01:44Z</time>
      </trkpt>
      <trkpt lat="47.530643" lon="1.8147559">
        <ele>136.0</ele>
        <time>2022-02-10T09:01:45Z</time>
      </trkpt>
      <trkpt lat="47.530655" lon="1.8147469">
        <ele>136.0</ele>
        <time>2022-02-10T09:01:46Z</time>
      </trkpt>
      <trkpt lat="47.530663" lon="1.8147368">
        <ele>136.0</ele>
        <time>2022-02-10T09:01:47Z</time>
      </trkpt>
      <trkpt lat="47.530674" lon="1.8147328">
        <ele>136.0</ele>
        <time>2022-02-10T09:01:48Z</time>
      </trkpt>
      <trkpt lat="47.530674" lon="1.8147335">
        <ele>136.0</ele>
        <time>2022-02-10T09:01:49Z</time>
      </trkpt>
      <trkpt lat="47.530678" lon="1.8147305">
        <ele>135.0</ele>
        <time>2022-02-10T09:01:50Z</time>
      </trkpt>
      <trkpt lat="47.530693" lon="1.8147116">
        <ele>135.0</ele>
        <time>2022-02-10T09:01:52Z</time>
      </trkpt>
      <trkpt lat="47.530704" lon="1.8147031">
        <ele>135.0</ele>
        <time>2022-02-10T09:01:53Z</time>
      </trkpt>
      <trkpt lat="47.530712" lon="1.814689">
        <ele>135.0</ele>
        <time>2022-02-10T09:01:54Z</time>
      </trkpt>
      <trkpt lat="47.530724" lon="1.814681">
        <ele>134.0</ele>
        <time>2022-02-10T09:01:55Z</time>
      </trkpt>
      <trkpt lat="47.530735" lon="1.8146666">
        <ele>134.0</ele>
        <time>2022-02-10T09:01:56Z</time>
      </trkpt>
      <trkpt lat="47.530746" lon="1.8146579">
        <ele>134.0</ele>
        <time>2022-02-10T09:01:57Z</time>
      </trkpt>
      <trkpt lat="47.530758" lon="1.8146464">
        <ele>135.0</ele>
        <time>2022-02-10T09:01:58Z</time>
      </trkpt>
      <trkpt lat="47.53077" lon="1.8146343">
        <ele>134.0</ele>
        <time>2022-02-10T09:01:59Z</time>
      </trkpt>
      <trkpt lat="47.530777" lon="1.8146194">
        <ele>135.0</ele>
        <time>2022-02-10T09:02:00Z</time>
      </trkpt>
      <trkpt lat="47.530785" lon="1.8146011">
        <ele>135.0</ele>
        <time>2022-02-10T09:02:01Z</time>
      </trkpt>
      <trkpt lat="47.530796" lon="1.8145779">
        <ele>135.0</ele>
        <time>2022-02-10T09:02:02Z</time>
      </trkpt>
      <trkpt lat="47.530807" lon="1.8145581">
        <ele>135.0</ele>
        <time>2022-02-10T09:02:03Z</time>
      </trkpt>
      <trkpt lat="47.53082" lon="1.814541">
        <ele>136.0</ele>
        <time>2022-02-10T09:02:04Z</time>
      </trkpt>
      <trkpt lat="47.53083" lon="1.8145261">
        <ele>136.0</ele>
        <time>2022-02-10T09:02:05Z</time>
      </trkpt>
      <trkpt lat="47.530846" lon="1.8145168">
        <ele>136.0</ele>
        <time>2022-02-10T09:02:06Z</time>
      </trkpt>
      <trkpt lat="47.530857" lon="1.8145036">
        <ele>136.0</ele>
        <time>2022-02-10T09:02:07Z</time>
      </trkpt>
      <trkpt lat="47.53087" lon="1.8144945">
        <ele>136.0</ele>
        <time>2022-02-10T09:02:08Z</time>
      </trkpt>
      <trkpt lat="47.53088" lon="1.8144841">
        <ele>136.0</ele>
        <time>2022-02-10T09:02:09Z</time>
      </trkpt>
      <trkpt lat="47.53089" lon="1.8144672">
        <ele>136.0</ele>
        <time>2022-02-10T09:02:10Z</time>
      </trkpt>
      <trkpt lat="47.530903" lon="1.8144537">
        <ele>136.0</ele>
        <time>2022-02-10T09:02:11Z</time>
      </trkpt>
      <trkpt lat="47.530914" lon="1.8144414">
        <ele>136.0</ele>
        <time>2022-02-10T09:02:12Z</time>
      </trkpt>
      <trkpt lat="47.530926" lon="1.8144273">
        <ele>136.0</ele>
        <time>2022-02-10T09:02:13Z</time>
      </trkpt>
      <trkpt lat="47.530937" lon="1.8144113">
        <ele>136.0</ele>
        <time>2022-02-10T09:02:14Z</time>
      </trkpt>
      <trkpt lat="47.53095" lon="1.8143938">
        <ele>136.0</ele>
        <time>2022-02-10T09:02:15Z</time>
      </trkpt>
      <trkpt lat="47.53096" lon="1.8143822">
        <ele>136.0</ele>
        <time>2022-02-10T09:02:16Z</time>
      </trkpt>
      <trkpt lat="47.530975" lon="1.8143663">
        <ele>136.0</ele>
        <time>2022-02-10T09:02:17Z</time>
      </trkpt>
      <trkpt lat="47.530987" lon="1.8143517">
        <ele>136.0</ele>
        <time>2022-02-10T09:02:18Z</time>
      </trkpt>
      <trkpt lat="47.531002" lon="1.814332">
        <ele>136.0</ele>
        <time>2022-02-10T09:02:19Z</time>
      </trkpt>
      <trkpt lat="47.531013" lon="1.8143088">
        <ele>136.0</ele>
        <time>2022-02-10T09:02:20Z</time>
      </trkpt>
      <trkpt lat="47.53103" lon="1.8142879">
        <ele>136.0</ele>
        <time>2022-02-10T09:02:21Z</time>
      </trkpt>
      <trkpt lat="47.53104" lon="1.8142827">
        <ele>136.0</ele>
        <time>2022-02-10T09:02:22Z</time>
      </trkpt>
      <trkpt lat="47.53105" lon="1.8142753">
        <ele>136.0</ele>
        <time>2022-02-10T09:02:23Z</time>
      </trkpt>
      <trkpt lat="47.53106" lon="1.8142678">
        <ele>136.0</ele>
        <time>2022-02-10T09:02:24Z</time>
      </trkpt>
      <trkpt lat="47.531067" lon="1.8142588">
        <ele>136.0</ele>
        <time>2022-02-10T09:02:25Z</time>
      </trkpt>
      <trkpt lat="47.531075" lon="1.8142506">
        <ele>136.0</ele>
        <time>2022-02-10T09:02:26Z</time>
      </trkpt>
      <trkpt lat="47.531086" lon="1.8142452">
        <ele>136.0</ele>
        <time>2022-02-10T09:02:27Z</time>
      </trkpt>
      <trkpt lat="47.531094" lon="1.8142333">
        <ele>136.0</ele>
        <time>2022-02-10T09:02:28Z</time>
      </trkpt>
      <trkpt lat="47.531097" lon="1.8142221">
        <ele>136.0</ele>
        <time>2022-02-10T09:02:29Z</time>
      </trkpt>
      <trkpt lat="47.53111" lon="1.8142073">
        <ele>136.0</ele>
        <time>2022-02-10T09:02:30Z</time>
      </trkpt>
      <trkpt lat="47.531124" lon="1.8141952">
        <ele>136.0</ele>
        <time>2022-02-10T09:02:31Z</time>
      </trkpt>
      <trkpt lat="47.531136" lon="1.8141867">
        <ele>136.0</ele>
        <time>2022-02-10T09:02:32Z</time>
      </trkpt>
      <trkpt lat="47.531147" lon="1.814171">
        <ele>136.0</ele>
        <time>2022-02-10T09:02:33Z</time>
      </trkpt>
      <trkpt lat="47.531155" lon="1.8141608">
        <ele>136.0</ele>
        <time>2022-02-10T09:02:34Z</time>
      </trkpt>
      <trkpt lat="47.531166" lon="1.8141437">
        <ele>136.0</ele>
        <time>2022-02-10T09:02:35Z</time>
      </trkpt>
      <trkpt lat="47.53117" lon="1.8141304">
        <ele>136.0</ele>
        <time>2022-02-10T09:02:36Z</time>
      </trkpt>
      <trkpt lat="47.531178" lon="1.8141183">
        <ele>136.0</ele>
        <time>2022-02-10T09:02:37Z</time>
      </trkpt>
      <trkpt lat="47.531185" lon="1.8141042">
        <ele>136.0</ele>
        <time>2022-02-10T09:02:38Z</time>
      </trkpt>
      <trkpt lat="47.531193" lon="1.8140851">
        <ele>136.0</ele>
        <time>2022-02-10T09:02:39Z</time>
      </trkpt>
      <trkpt lat="47.531204" lon="1.8140597">
        <ele>136.0</ele>
        <time>2022-02-10T09:02:40Z</time>
      </trkpt>
      <trkpt lat="47.531216" lon="1.8140374">
        <ele>136.0</ele>
        <time>2022-02-10T09:02:41Z</time>
      </trkpt>
      <trkpt lat="47.53122" lon="1.8140173">
        <ele>136.0</ele>
        <time>2022-02-10T09:02:42Z</time>
      </trkpt>
      <trkpt lat="47.531227" lon="1.8139964">
        <ele>135.0</ele>
        <time>2022-02-10T09:02:43Z</time>
      </trkpt>
      <trkpt lat="47.53123" lon="1.8139806">
        <ele>135.0</ele>
        <time>2022-02-10T09:02:44Z</time>
      </trkpt>
      <trkpt lat="47.53124" lon="1.8139721">
        <ele>135.0</ele>
        <time>2022-02-10T09:02:45Z</time>
      </trkpt>
      <trkpt lat="47.53125" lon="1.8139634">
        <ele>135.0</ele>
        <time>2022-02-10T09:02:46Z</time>
      </trkpt>
      <trkpt lat="47.531265" lon="1.8139482">
        <ele>135.0</ele>
        <time>2022-02-10T09:02:47Z</time>
      </trkpt>
      <trkpt lat="47.531273" lon="1.813948">
        <ele>135.0</ele>
        <time>2022-02-10T09:02:48Z</time>
      </trkpt>
      <trkpt lat="47.53128" lon="1.813934">
        <ele>135.0</ele>
        <time>2022-02-10T09:02:49Z</time>
      </trkpt>
      <trkpt lat="47.531292" lon="1.8139228">
        <ele>134.0</ele>
        <time>2022-02-10T09:02:50Z</time>
      </trkpt>
      <trkpt lat="47.531303" lon="1.8139126">
        <ele>134.0</ele>
        <time>2022-02-10T09:02:51Z</time>
      </trkpt>
      <trkpt lat="47.53132" lon="1.813898">
        <ele>135.0</ele>
        <time>2022-02-10T09:02:52Z</time>
      </trkpt>
      <trkpt lat="47.53133" lon="1.8138913">
        <ele>135.0</ele>
        <time>2022-02-10T09:02:53Z</time>
      </trkpt>
      <trkpt lat="47.53134" lon="1.8138852">
        <ele>134.0</ele>
        <time>2022-02-10T09:02:54Z</time>
      </trkpt>
      <trkpt lat="47.531345" lon="1.8138782">
        <ele>134.0</ele>
        <time>2022-02-10T09:02:55Z</time>
      </trkpt>
      <trkpt lat="47.531357" lon="1.813859">
        <ele>134.0</ele>
        <time>2022-02-10T09:02:56Z</time>
      </trkpt>
      <trkpt lat="47.53137" lon="1.8138434">
        <ele>134.0</ele>
        <time>2022-02-10T09:02:57Z</time>
      </trkpt>
      <trkpt lat="47.531376" lon="1.8138326">
        <ele>134.0</ele>
        <time>2022-02-10T09:02:58Z</time>
      </trkpt>
      <trkpt lat="47.531384" lon="1.8138272">
        <ele>134.0</ele>
        <time>2022-02-10T09:02:59Z</time>
      </trkpt>
      <trkpt lat="47.531395" lon="1.8138305">
        <ele>135.0</ele>
        <time>2022-02-10T09:03:00Z</time>
      </trkpt>
      <trkpt lat="47.531406" lon="1.8138219">
        <ele>134.0</ele>
        <time>2022-02-10T09:03:01Z</time>
      </trkpt>
      <trkpt lat="47.531414" lon="1.8138136">
        <ele>134.0</ele>
        <time>2022-02-10T09:03:02Z</time>
      </trkpt>
      <trkpt lat="47.531425" lon="1.8138101">
        <ele>133.0</ele>
        <time>2022-02-10T09:03:03Z</time>
      </trkpt>
      <trkpt lat="47.53143" lon="1.8138041">
        <ele>133.0</ele>
        <time>2022-02-10T09:03:04Z</time>
      </trkpt>
      <trkpt lat="47.53144" lon="1.8138027">
        <ele>133.0</ele>
        <time>2022-02-10T09:03:05Z</time>
      </trkpt>
      <trkpt lat="47.531456" lon="1.8137932">
        <ele>133.0</ele>
        <time>2022-02-10T09:03:06Z</time>
      </trkpt>
      <trkpt lat="47.531467" lon="1.8137771">
        <ele>133.0</ele>
        <time>2022-02-10T09:03:07Z</time>
      </trkpt>
      <trkpt lat="47.53148" lon="1.8137616">
        <ele>133.0</ele>
        <time>2022-02-10T09:03:08Z</time>
      </trkpt>
      <trkpt lat="47.53149" lon="1.8137481">
        <ele>133.0</ele>
        <time>2022-02-10T09:03:09Z</time>
      </trkpt>
      <trkpt lat="47.5315" lon="1.8137379">
        <ele>132.0</ele>
        <time>2022-02-10T09:03:10Z</time>
      </trkpt>
      <trkpt lat="47.53151" lon="1.8137265">
        <ele>132.0</ele>
        <time>2022-02-10T09:03:11Z</time>
      </trkpt>
      <trkpt lat="47.53152" lon="1.8137099">
        <ele>132.0</ele>
        <time>2022-02-10T09:03:12Z</time>
      </trkpt>
      <trkpt lat="47.53153" lon="1.8136964">
        <ele>132.0</ele>
        <time>2022-02-10T09:03:13Z</time>
      </trkpt>
      <trkpt lat="47.531544" lon="1.8136778">
        <ele>131.0</ele>
        <time>2022-02-10T09:03:14Z</time>
      </trkpt>
      <trkpt lat="47.531555" lon="1.8136616">
        <ele>132.0</ele>
        <time>2022-02-10T09:03:15Z</time>
      </trkpt>
      <trkpt lat="47.53157" lon="1.81365">
        <ele>132.0</ele>
        <time>2022-02-10T09:03:16Z</time>
      </trkpt>
      <trkpt lat="47.53158" lon="1.8136383">
        <ele>132.0</ele>
        <time>2022-02-10T09:03:17Z</time>
      </trkpt>
      <trkpt lat="47.531593" lon="1.8136257">
        <ele>132.0</ele>
        <time>2022-02-10T09:03:18Z</time>
      </trkpt>
      <trkpt lat="47.531605" lon="1.8136147">
        <ele>132.0</ele>
        <time>2022-02-10T09:03:19Z</time>
      </trkpt>
      <trkpt lat="47.531612" lon="1.813607">
        <ele>132.0</ele>
        <time>2022-02-10T09:03:20Z</time>
      </trkpt>
      <trkpt lat="47.53162" lon="1.8136013">
        <ele>132.0</ele>
        <time>2022-02-10T09:03:21Z</time>
      </trkpt>
      <trkpt lat="47.53163" lon="1.813594">
        <ele>133.0</ele>
        <time>2022-02-10T09:03:22Z</time>
      </trkpt>
      <trkpt lat="47.53164" lon="1.813584">
        <ele>132.0</ele>
        <time>2022-02-10T09:03:23Z</time>
      </trkpt>
      <trkpt lat="47.53164" lon="1.813584">
        <ele>132.0</ele>
        <time>2022-02-10T09:03:24Z</time>
      </trkpt>
      <trkpt lat="47.53164" lon="1.813584">
        <ele>132.0</ele>
        <time>2022-02-10T09:03:25Z</time>
      </trkpt>
      <trkpt lat="47.531662" lon="1.8135557">
        <ele>132.0</ele>
        <time>2022-02-10T09:03:26Z</time>
      </trkpt>
      <trkpt lat="47.531673" lon="1.8135402">
        <ele>132.0</ele>
        <time>2022-02-10T09:03:27Z</time>
      </trkpt>
      <trkpt lat="47.531677" lon="1.8135277">
        <ele>132.0</ele>
        <time>2022-02-10T09:03:28Z</time>
      </trkpt>
      <trkpt lat="47.53169" lon="1.8135111">
        <ele>133.0</ele>
        <time>2022-02-10T09:03:29Z</time>
      </trkpt>
      <trkpt lat="47.53169" lon="1.8135111">
        <ele>133.0</ele>
        <time>2022-02-10T09:03:30Z</time>
      </trkpt>
      <trkpt lat="47.53169" lon="1.8135111">
        <ele>133.0</ele>
        <time>2022-02-10T09:03:31Z</time>
      </trkpt>
      <trkpt lat="47.531708" lon="1.8134742">
        <ele>133.0</ele>
        <time>2022-02-10T09:03:32Z</time>
      </trkpt>
      <trkpt lat="47.531715" lon="1.8134588">
        <ele>133.0</ele>
        <time>2022-02-10T09:03:33Z</time>
      </trkpt>
      <trkpt lat="47.531727" lon="1.8134538">
        <ele>133.0</ele>
        <time>2022-02-10T09:03:34Z</time>
      </trkpt>
      <trkpt lat="47.53174" lon="1.8134468">
        <ele>133.0</ele>
        <time>2022-02-10T09:03:35Z</time>
      </trkpt>
      <trkpt lat="47.531746" lon="1.8134327">
        <ele>133.0</ele>
        <time>2022-02-10T09:03:36Z</time>
      </trkpt>
      <trkpt lat="47.531757" lon="1.8134177">
        <ele>133.0</ele>
        <time>2022-02-10T09:03:37Z</time>
      </trkpt>
      <trkpt lat="47.53177" lon="1.8134065">
        <ele>134.0</ele>
        <time>2022-02-10T09:03:38Z</time>
      </trkpt>
      <trkpt lat="47.531776" lon="1.8133951">
        <ele>134.0</ele>
        <time>2022-02-10T09:03:39Z</time>
      </trkpt>
      <trkpt lat="47.531784" lon="1.8133901">
        <ele>134.0</ele>
        <time>2022-02-10T09:03:40Z</time>
      </trkpt>
      <trkpt lat="47.53179" lon="1.8133863">
        <ele>134.0</ele>
        <time>2022-02-10T09:03:41Z</time>
      </trkpt>
      <trkpt lat="47.531803" lon="1.8133736">
        <ele>134.0</ele>
        <time>2022-02-10T09:03:42Z</time>
      </trkpt>
      <trkpt lat="47.53182" lon="1.8133638">
        <ele>134.0</ele>
        <time>2022-02-10T09:03:43Z</time>
      </trkpt>
      <trkpt lat="47.53183" lon="1.813352">
        <ele>134.0</ele>
        <time>2022-02-10T09:03:44Z</time>
      </trkpt>
      <trkpt lat="47.53184" lon="1.8133397">
        <ele>134.0</ele>
        <time>2022-02-10T09:03:45Z</time>
      </trkpt>
      <trkpt lat="47.531853" lon="1.8133323">
        <ele>134.0</ele>
        <time>2022-02-10T09:03:46Z</time>
      </trkpt>
      <trkpt lat="47.531864" lon="1.8133211">
        <ele>134.0</ele>
        <time>2022-02-10T09:03:47Z</time>
      </trkpt>
      <trkpt lat="47.531876" lon="1.8133109">
        <ele>134.0</ele>
        <time>2022-02-10T09:03:48Z</time>
      </trkpt>
      <trkpt lat="47.531887" lon="1.8133049">
        <ele>135.0</ele>
        <time>2022-02-10T09:03:49Z</time>
      </trkpt>
      <trkpt lat="47.5319" lon="1.8132926">
        <ele>134.0</ele>
        <time>2022-02-10T09:03:50Z</time>
      </trkpt>
      <trkpt lat="47.53191" lon="1.8132792">
        <ele>135.0</ele>
        <time>2022-02-10T09:03:51Z</time>
      </trkpt>
      <trkpt lat="47.53192" lon="1.8132696">
        <ele>135.0</ele>
        <time>2022-02-10T09:03:52Z</time>
      </trkpt>
      <trkpt lat="47.531933" lon="1.8132553">
        <ele>134.0</ele>
        <time>2022-02-10T09:03:53Z</time>
      </trkpt>
      <trkpt lat="47.531944" lon="1.8132424">
        <ele>135.0</ele>
        <time>2022-02-10T09:03:54Z</time>
      </trkpt>
      <trkpt lat="47.531956" lon="1.8132287">
        <ele>135.0</ele>
        <time>2022-02-10T09:03:55Z</time>
      </trkpt>
      <trkpt lat="47.53197" lon="1.8132197">
        <ele>135.0</ele>
        <time>2022-02-10T09:03:56Z</time>
      </trkpt>
      <trkpt lat="47.53198" lon="1.813211">
        <ele>135.0</ele>
        <time>2022-02-10T09:03:57Z</time>
      </trkpt>
      <trkpt lat="47.531986" lon="1.8132002">
        <ele>135.0</ele>
        <time>2022-02-10T09:03:58Z</time>
      </trkpt>
      <trkpt lat="47.531998" lon="1.8131953">
        <ele>135.0</ele>
        <time>2022-02-10T09:03:59Z</time>
      </trkpt>
      <trkpt lat="47.53201" lon="1.8131793">
        <ele>135.0</ele>
        <time>2022-02-10T09:04:00Z</time>
      </trkpt>
      <trkpt lat="47.532017" lon="1.8131695">
        <ele>135.0</ele>
        <time>2022-02-10T09:04:01Z</time>
      </trkpt>
      <trkpt lat="47.532024" lon="1.8131605">
        <ele>135.0</ele>
        <time>2022-02-10T09:04:02Z</time>
      </trkpt>
      <trkpt lat="47.532036" lon="1.8131464">
        <ele>135.0</ele>
        <time>2022-02-10T09:04:03Z</time>
      </trkpt>
      <trkpt lat="47.532043" lon="1.813134">
        <ele>135.0</ele>
        <time>2022-02-10T09:04:04Z</time>
      </trkpt>
      <trkpt lat="47.53205" lon="1.8131192">
        <ele>135.0</ele>
        <time>2022-02-10T09:04:05Z</time>
      </trkpt>
      <trkpt lat="47.53206" lon="1.8131078">
        <ele>135.0</ele>
        <time>2022-02-10T09:04:06Z</time>
      </trkpt>
      <trkpt lat="47.53207" lon="1.8131">
        <ele>135.0</ele>
        <time>2022-02-10T09:04:07Z</time>
      </trkpt>
      <trkpt lat="47.532078" lon="1.8130921">
        <ele>134.0</ele>
        <time>2022-02-10T09:04:08Z</time>
      </trkpt>
      <trkpt lat="47.53209" lon="1.8130826">
        <ele>135.0</ele>
        <time>2022-02-10T09:04:09Z</time>
      </trkpt>
      <trkpt lat="47.5321" lon="1.813078">
        <ele>135.0</ele>
        <time>2022-02-10T09:04:10Z</time>
      </trkpt>
      <trkpt lat="47.532112" lon="1.8130735">
        <ele>135.0</ele>
        <time>2022-02-10T09:04:11Z</time>
      </trkpt>
      <trkpt lat="47.532124" lon="1.8130625">
        <ele>135.0</ele>
        <time>2022-02-10T09:04:12Z</time>
      </trkpt>
      <trkpt lat="47.53213" lon="1.813054">
        <ele>135.0</ele>
        <time>2022-02-10T09:04:13Z</time>
      </trkpt>
      <trkpt lat="47.532143" lon="1.8130438">
        <ele>135.0</ele>
        <time>2022-02-10T09:04:14Z</time>
      </trkpt>
      <trkpt lat="47.53215" lon="1.8130454">
        <ele>135.0</ele>
        <time>2022-02-10T09:04:15Z</time>
      </trkpt>
      <trkpt lat="47.532158" lon="1.8130376">
        <ele>135.0</ele>
        <time>2022-02-10T09:04:16Z</time>
      </trkpt>
      <trkpt lat="47.53217" lon="1.8130356">
        <ele>135.0</ele>
        <time>2022-02-10T09:04:17Z</time>
      </trkpt>
      <trkpt lat="47.532185" lon="1.8130254">
        <ele>135.0</ele>
        <time>2022-02-10T09:04:18Z</time>
      </trkpt>
      <trkpt lat="47.532196" lon="1.8130151">
        <ele>135.0</ele>
        <time>2022-02-10T09:04:19Z</time>
      </trkpt>
      <trkpt lat="47.53221" lon="1.8130047">
        <ele>135.0</ele>
        <time>2022-02-10T09:04:20Z</time>
      </trkpt>
      <trkpt lat="47.532223" lon="1.8129984">
        <ele>135.0</ele>
        <time>2022-02-10T09:04:21Z</time>
      </trkpt>
      <trkpt lat="47.532234" lon="1.812991">
        <ele>135.0</ele>
        <time>2022-02-10T09:04:22Z</time>
      </trkpt>
      <trkpt lat="47.532246" lon="1.8129789">
        <ele>135.0</ele>
        <time>2022-02-10T09:04:23Z</time>
      </trkpt>
      <trkpt lat="47.532253" lon="1.8129709">
        <ele>135.0</ele>
        <time>2022-02-10T09:04:24Z</time>
      </trkpt>
      <trkpt lat="47.532265" lon="1.8129628">
        <ele>134.0</ele>
        <time>2022-02-10T09:04:25Z</time>
      </trkpt>
      <trkpt lat="47.532276" lon="1.8129499">
        <ele>135.0</ele>
        <time>2022-02-10T09:04:26Z</time>
      </trkpt>
      <trkpt lat="47.532288" lon="1.81294">
        <ele>134.0</ele>
        <time>2022-02-10T09:04:27Z</time>
      </trkpt>
      <trkpt lat="47.532303" lon="1.8129264">
        <ele>134.0</ele>
        <time>2022-02-10T09:04:28Z</time>
      </trkpt>
      <trkpt lat="47.532314" lon="1.8129251">
        <ele>133.0</ele>
        <time>2022-02-10T09:04:29Z</time>
      </trkpt>
      <trkpt lat="47.532326" lon="1.812919">
        <ele>133.0</ele>
        <time>2022-02-10T09:04:30Z</time>
      </trkpt>
      <trkpt lat="47.53234" lon="1.8129176">
        <ele>133.0</ele>
        <time>2022-02-10T09:04:31Z</time>
      </trkpt>
      <trkpt lat="47.53235" lon="1.8129109">
        <ele>133.0</ele>
        <time>2022-02-10T09:04:32Z</time>
      </trkpt>
      <trkpt lat="47.53236" lon="1.8129015">
        <ele>132.0</ele>
        <time>2022-02-10T09:04:33Z</time>
      </trkpt>
      <trkpt lat="47.532368" lon="1.8128957">
        <ele>132.0</ele>
        <time>2022-02-10T09:04:34Z</time>
      </trkpt>
      <trkpt lat="47.53238" lon="1.8128806">
        <ele>133.0</ele>
        <time>2022-02-10T09:04:35Z</time>
      </trkpt>
      <trkpt lat="47.532387" lon="1.812866">
        <ele>133.0</ele>
        <time>2022-02-10T09:04:36Z</time>
      </trkpt>
      <trkpt lat="47.532394" lon="1.8128527">
        <ele>132.0</ele>
        <time>2022-02-10T09:04:37Z</time>
      </trkpt>
      <trkpt lat="47.532406" lon="1.8128394">
        <ele>133.0</ele>
        <time>2022-02-10T09:04:38Z</time>
      </trkpt>
      <trkpt lat="47.532417" lon="1.8128285">
        <ele>133.0</ele>
        <time>2022-02-10T09:04:39Z</time>
      </trkpt>
      <trkpt lat="47.53243" lon="1.8128204">
        <ele>133.0</ele>
        <time>2022-02-10T09:04:40Z</time>
      </trkpt>
      <trkpt lat="47.53244" lon="1.8128144">
        <ele>133.0</ele>
        <time>2022-02-10T09:04:41Z</time>
      </trkpt>
      <trkpt lat="47.53245" lon="1.812803">
        <ele>133.0</ele>
        <time>2022-02-10T09:04:42Z</time>
      </trkpt>
      <trkpt lat="47.532463" lon="1.812793">
        <ele>133.0</ele>
        <time>2022-02-10T09:04:43Z</time>
      </trkpt>
      <trkpt lat="47.53247" lon="1.8127853">
        <ele>133.0</ele>
        <time>2022-02-10T09:04:44Z</time>
      </trkpt>
      <trkpt lat="47.53248" lon="1.812772">
        <ele>133.0</ele>
        <time>2022-02-10T09:04:45Z</time>
      </trkpt>
      <trkpt lat="47.53248" lon="1.8127702">
        <ele>133.0</ele>
        <time>2022-02-10T09:04:46Z</time>
      </trkpt>
      <trkpt lat="47.532486" lon="1.812765">
        <ele>132.0</ele>
        <time>2022-02-10T09:04:47Z</time>
      </trkpt>
      <trkpt lat="47.53249" lon="1.8127564">
        <ele>132.0</ele>
        <time>2022-02-10T09:04:48Z</time>
      </trkpt>
      <trkpt lat="47.532494" lon="1.8127499">
        <ele>132.0</ele>
        <time>2022-02-10T09:04:49Z</time>
      </trkpt>
      <trkpt lat="47.532494" lon="1.8127499">
        <ele>132.0</ele>
        <time>2022-02-10T09:04:49Z</time>
      </trkpt>
    </trkseg>
    <trkseg>
      <trkpt lat="47.532494" lon="1.8127499">
        <ele>132.0</ele>
        <time>2022-02-10T09:04:49Z</time>
      </trkpt>
      <trkpt lat="47.532566" lon="1.8126768">
        <ele>136.0</ele>
        <time>2022-02-10T09:05:22Z</time>
      </trkpt>
      <trkpt lat="47.532574" lon="1.8126655">
        <ele>136.0</ele>
        <time>2022-02-10T09:05:23Z</time>
      </trkpt>
      <trkpt lat="47.532578" lon="1.8126606">
        <ele>136.0</ele>
        <time>2022-02-10T09:05:24Z</time>
      </trkpt>
      <trkpt lat="47.532585" lon="1.8126523">
        <ele>136.0</ele>
        <time>2022-02-10T09:05:25Z</time>
      </trkpt>
      <trkpt lat="47.53259" lon="1.812651">
        <ele>136.0</ele>
        <time>2022-02-10T09:05:26Z</time>
      </trkpt>
      <trkpt lat="47.532593" lon="1.8126497">
        <ele>136.0</ele>
        <time>2022-02-10T09:05:27Z</time>
      </trkpt>
      <trkpt lat="47.532597" lon="1.8126475">
        <ele>136.0</ele>
        <time>2022-02-10T09:05:28Z</time>
      </trkpt>
      <trkpt lat="47.5326" lon="1.8126433">
        <ele>136.0</ele>
        <time>2022-02-10T09:05:29Z</time>
      </trkpt>
      <trkpt lat="47.5326" lon="1.8126433">
        <ele>136.0</ele>
        <time>2022-02-10T09:05:29Z</time>
      </trkpt>
    </trkseg>
    <trkseg>
      <trkpt lat="47.5326" lon="1.8126433">
        <ele>136.0</ele>
        <time>2022-02-10T09:05:29Z</time>
      </trkpt>
      <trkpt lat="47.532593" lon="1.8126717">
        <ele>134.0</ele>
        <time>2022-02-10T09:08:17Z</time>
      </trkpt>
      <trkpt lat="47.532585" lon="1.8126675">
        <ele>135.0</ele>
        <time>2022-02-10T09:08:18Z</time>
      </trkpt>
      <trkpt lat="47.532585" lon="1.8126647">
        <ele>135.0</ele>
        <time>2022-02-10T09:08:19Z</time>
      </trkpt>
      <trkpt lat="47.532585" lon="1.8126647">
        <ele>135.0</ele>
        <time>2022-02-10T09:08:19Z</time>
      </trkpt>
      <trkpt lat="47.532585" lon="1.8126581">
        <ele>135.0</ele>
        <time>2022-02-10T09:08:21Z</time>
      </trkpt>
      <trkpt lat="47.532585" lon="1.8126581">
        <ele>135.0</ele>
        <time>2022-02-10T09:08:21Z</time>
      </trkpt>
    </trkseg>
    <trkseg>
      <trkpt lat="47.532585" lon="1.8126581">
        <ele>135.0</ele>
        <time>2022-02-10T09:08:21Z</time>
      </trkpt>
      <trkpt lat="47.53253" lon="1.8126053">
        <ele>130.0</ele>
        <time>2022-02-10T09:14:32Z</time>
      </trkpt>
      <trkpt lat="47.53253" lon="1.8126053">
        <ele>130.0</ele>
        <time>2022-02-10T09:14:33Z</time>
      </trkpt>
      <trkpt lat="47.53253" lon="1.8126053">
        <ele>130.0</ele>
        <time>2022-02-10T09:14:34Z</time>
      </trkpt>
      <trkpt lat="47.532536" lon="1.8126262">
        <ele>129.0</ele>
        <time>2022-02-10T09:14:35Z</time>
      </trkpt>
      <trkpt lat="47.53254" lon="1.8126223">
        <ele>130.0</ele>
        <time>2022-02-10T09:14:36Z</time>
      </trkpt>
      <trkpt lat="47.53254" lon="1.8126225">
        <ele>130.0</ele>
        <time>2022-02-10T09:14:37Z</time>
      </trkpt>
      <trkpt lat="47.53255" lon="1.8126351">
        <ele>129.0</ele>
        <time>2022-02-10T09:14:38Z</time>
      </trkpt>
      <trkpt lat="47.53255" lon="1.8126351">
        <ele>129.0</ele>
        <time>2022-02-10T09:14:39Z</time>
      </trkpt>
      <trkpt lat="47.53255" lon="1.8126351">
        <ele>129.0</ele>
        <time>2022-02-10T09:14:40Z</time>
      </trkpt>
      <trkpt lat="47.532562" lon="1.8126423">
        <ele>130.0</ele>
        <time>2022-02-10T09:14:41Z</time>
      </trkpt>
      <trkpt lat="47.532562" lon="1.8126441">
        <ele>131.0</ele>
        <time>2022-02-10T09:14:42Z</time>
      </trkpt>
      <trkpt lat="47.532562" lon="1.8126384">
        <ele>130.0</ele>
        <time>2022-02-10T09:14:43Z</time>
      </trkpt>
      <trkpt lat="47.532562" lon="1.8126385">
        <ele>130.0</ele>
        <time>2022-02-10T09:14:44Z</time>
      </trkpt>
      <trkpt lat="47.532562" lon="1.8126385">
        <ele>130.0</ele>
        <time>2022-02-10T09:14:45Z</time>
      </trkpt>
      <trkpt lat="47.532562" lon="1.8126385">
        <ele>130.0</ele>
        <time>2022-02-10T09:14:45Z</time>
      </trkpt>
    </trkseg>
    <trkseg>
      <trkpt lat="47.532562" lon="1.8126385">
        <ele>130.0</ele>
        <time>2022-02-10T09:14:45Z</time>
      </trkpt>
      <trkpt lat="47.532528" lon="1.8126078">
        <ele>134.0</ele>
        <time>2022-02-10T09:15:45Z</time>
      </trkpt>
      <trkpt lat="47.532528" lon="1.812605">
        <ele>134.0</ele>
        <time>2022-02-10T09:15:46Z</time>
      </trkpt>
      <trkpt lat="47.532528" lon="1.812605">
        <ele>134.0</ele>
        <time>2022-02-10T09:15:47Z</time>
      </trkpt>
      <trkpt lat="47.53253" lon="1.8126082">
        <ele>134.0</ele>
        <time>2022-02-10T09:15:48Z</time>
      </trkpt>
      <trkpt lat="47.532528" lon="1.8126136">
        <ele>134.0</ele>
        <time>2022-02-10T09:15:49Z</time>
      </trkpt>
      <trkpt lat="47.53252" lon="1.8126231">
        <ele>134.0</ele>
        <time>2022-02-10T09:15:50Z</time>
      </trkpt>
      <trkpt lat="47.532516" lon="1.8126354">
        <ele>134.0</ele>
        <time>2022-02-10T09:15:51Z</time>
      </trkpt>
      <trkpt lat="47.532513" lon="1.8126494">
        <ele>134.0</ele>
        <time>2022-02-10T09:15:52Z</time>
      </trkpt>
      <trkpt lat="47.53251" lon="1.8126667">
        <ele>134.0</ele>
        <time>2022-02-10T09:15:53Z</time>
      </trkpt>
      <trkpt lat="47.532505" lon="1.8126807">
        <ele>134.0</ele>
        <time>2022-02-10T09:15:54Z</time>
      </trkpt>
      <trkpt lat="47.532505" lon="1.8126918">
        <ele>134.0</ele>
        <time>2022-02-10T09:15:55Z</time>
      </trkpt>
      <trkpt lat="47.53251" lon="1.8127055">
        <ele>134.0</ele>
        <time>2022-02-10T09:15:56Z</time>
      </trkpt>
      <trkpt lat="47.532513" lon="1.8127108">
        <ele>134.0</ele>
        <time>2022-02-10T09:15:57Z</time>
      </trkpt>
      <trkpt lat="47.532516" lon="1.8127017">
        <ele>134.0</ele>
        <time>2022-02-10T09:15:58Z</time>
      </trkpt>
      <trkpt lat="47.532516" lon="1.8127017">
        <ele>134.0</ele>
        <time>2022-02-10T09:15:59Z</time>
      </trkpt>
      <trkpt lat="47.532516" lon="1.8127017">
        <ele>134.0</ele>
        <time>2022-02-10T09:15:59Z</time>
      </trkpt>
    </trkseg>
    <trkseg>
      <trkpt lat="47.532516" lon="1.8127017">
        <ele>134.0</ele>
        <time>2022-02-10T09:15:59Z</time>
      </trkpt>
      <trkpt lat="47.532562" lon="1.8128313">
        <ele>123.0</ele>
        <time>2022-02-10T09:16:44Z</time>
      </trkpt>
      <trkpt lat="47.53257" lon="1.8128206">
        <ele>123.0</ele>
        <time>2022-02-10T09:16:45Z</time>
      </trkpt>
      <trkpt lat="47.532566" lon="1.8128082">
        <ele>122.0</ele>
        <time>2022-02-10T09:16:46Z</time>
      </trkpt>
      <trkpt lat="47.532574" lon="1.8128123">
        <ele>123.0</ele>
        <time>2022-02-10T09:16:47Z</time>
      </trkpt>
      <trkpt lat="47.532585" lon="1.8128188">
        <ele>124.0</ele>
        <time>2022-02-10T09:16:48Z</time>
      </trkpt>
      <trkpt lat="47.532597" lon="1.8128163">
        <ele>124.0</ele>
        <time>2022-02-10T09:16:49Z</time>
      </trkpt>
      <trkpt lat="47.532608" lon="1.8128097">
        <ele>124.0</ele>
        <time>2022-02-10T09:16:50Z</time>
      </trkpt>
      <trkpt lat="47.532616" lon="1.812801">
        <ele>124.0</ele>
        <time>2022-02-10T09:16:51Z</time>
      </trkpt>
      <trkpt lat="47.532627" lon="1.8127931">
        <ele>124.0</ele>
        <time>2022-02-10T09:16:52Z</time>
      </trkpt>
      <trkpt lat="47.532635" lon="1.8127822">
        <ele>124.0</ele>
        <time>2022-02-10T09:16:53Z</time>
      </trkpt>
      <trkpt lat="47.532642" lon="1.8127661">
        <ele>124.0</ele>
        <time>2022-02-10T09:16:54Z</time>
      </trkpt>
      <trkpt lat="47.532642" lon="1.8127319">
        <ele>124.0</ele>
        <time>2022-02-10T09:16:55Z</time>
      </trkpt>
      <trkpt lat="47.53264" lon="1.8126992">
        <ele>124.0</ele>
        <time>2022-02-10T09:16:56Z</time>
      </trkpt>
      <trkpt lat="47.532642" lon="1.8126875">
        <ele>123.0</ele>
        <time>2022-02-10T09:16:57Z</time>
      </trkpt>
      <trkpt lat="47.532642" lon="1.8126875">
        <ele>123.0</ele>
        <time>2022-02-10T09:16:58Z</time>
      </trkpt>
      <trkpt lat="47.532642" lon="1.8126875">
        <ele>123.0</ele>
        <time>2022-02-10T09:16:59Z</time>
      </trkpt>
      <trkpt lat="47.532646" lon="1.8126534">
        <ele>123.0</ele>
        <time>2022-02-10T09:17:00Z</time>
      </trkpt>
      <trkpt lat="47.532646" lon="1.8126404">
        <ele>123.0</ele>
        <time>2022-02-10T09:17:01Z</time>
      </trkpt>
      <trkpt lat="47.532646" lon="1.81262">
        <ele>123.0</ele>
        <time>2022-02-10T09:17:02Z</time>
      </trkpt>
      <trkpt lat="47.532646" lon="1.8126094">
        <ele>123.0</ele>
        <time>2022-02-10T09:17:03Z</time>
      </trkpt>
      <trkpt lat="47.532646" lon="1.812606">
        <ele>123.0</ele>
        <time>2022-02-10T09:17:04Z</time>
      </trkpt>
      <trkpt lat="47.532646" lon="1.812606">
        <ele>123.0</ele>
        <time>2022-02-10T09:17:05Z</time>
      </trkpt>
      <trkpt lat="47.532646" lon="1.8125954">
        <ele>123.0</ele>
        <time>2022-02-10T09:17:06Z</time>
      </trkpt>
      <trkpt lat="47.53265" lon="1.8125939">
        <ele>123.0</ele>
        <time>2022-02-10T09:17:07Z</time>
      </trkpt>
      <trkpt lat="47.53265" lon="1.8125963">
        <ele>123.0</ele>
        <time>2022-02-10T09:17:08Z</time>
      </trkpt>
      <trkpt lat="47.53265" lon="1.8125864">
        <ele>124.0</ele>
        <time>2022-02-10T09:17:09Z</time>
      </trkpt>
      <trkpt lat="47.53265" lon="1.8125864">
        <ele>124.0</ele>
        <time>2022-02-10T09:17:09Z</time>
      </trkpt>
    </trkseg>
    <trkseg>
      <trkpt lat="47.53265" lon="1.8125864">
        <ele>124.0</ele>
        <time>2022-02-10T09:17:09Z</time>
      </trkpt>
      <trkpt lat="47.532623" lon="1.812475">
        <ele>123.0</ele>
        <time>2022-02-10T09:17:18Z</time>
      </trkpt>
      <trkpt lat="47.532623" lon="1.8124605">
        <ele>123.0</ele>
        <time>2022-02-10T09:17:19Z</time>
      </trkpt>
      <trkpt lat="47.532627" lon="1.8124496">
        <ele>124.0</ele>
        <time>2022-02-10T09:17:20Z</time>
      </trkpt>
      <trkpt lat="47.53263" lon="1.81243">
        <ele>125.0</ele>
        <time>2022-02-10T09:17:21Z</time>
      </trkpt>
      <trkpt lat="47.532627" lon="1.8124164">
        <ele>125.0</ele>
        <time>2022-02-10T09:17:22Z</time>
      </trkpt>
      <trkpt lat="47.532627" lon="1.8124094">
        <ele>125.0</ele>
        <time>2022-02-10T09:17:23Z</time>
      </trkpt>
      <trkpt lat="47.53263" lon="1.8124021">
        <ele>125.0</ele>
        <time>2022-02-10T09:17:24Z</time>
      </trkpt>
      <trkpt lat="47.53263" lon="1.8124021">
        <ele>125.0</ele>
        <time>2022-02-10T09:17:25Z</time>
      </trkpt>
      <trkpt lat="47.532627" lon="1.8123825">
        <ele>125.0</ele>
        <time>2022-02-10T09:17:26Z</time>
      </trkpt>
      <trkpt lat="47.532623" lon="1.8123722">
        <ele>125.0</ele>
        <time>2022-02-10T09:17:27Z</time>
      </trkpt>
      <trkpt lat="47.53262" lon="1.8123623">
        <ele>125.0</ele>
        <time>2022-02-10T09:17:28Z</time>
      </trkpt>
      <trkpt lat="47.532623" lon="1.8123525">
        <ele>125.0</ele>
        <time>2022-02-10T09:17:29Z</time>
      </trkpt>
      <trkpt lat="47.532623" lon="1.8123525">
        <ele>125.0</ele>
        <time>2022-02-10T09:17:30Z</time>
      </trkpt>
      <trkpt lat="47.532623" lon="1.8123525">
        <ele>125.0</ele>
        <time>2022-02-10T09:17:31Z</time>
      </trkpt>
      <trkpt lat="47.532623" lon="1.8123353">
        <ele>126.0</ele>
        <time>2022-02-10T09:17:32Z</time>
      </trkpt>
      <trkpt lat="47.532623" lon="1.8123215">
        <ele>126.0</ele>
        <time>2022-02-10T09:17:33Z</time>
      </trkpt>
      <trkpt lat="47.53262" lon="1.8123008">
        <ele>126.0</ele>
        <time>2022-02-10T09:17:34Z</time>
      </trkpt>
      <trkpt lat="47.532616" lon="1.8122798">
        <ele>126.0</ele>
        <time>2022-02-10T09:17:35Z</time>
      </trkpt>
      <trkpt lat="47.53261" lon="1.8122638">
        <ele>125.0</ele>
        <time>2022-02-10T09:17:36Z</time>
      </trkpt>
      <trkpt lat="47.532608" lon="1.8122556">
        <ele>125.0</ele>
        <time>2022-02-10T09:17:37Z</time>
      </trkpt>
      <trkpt lat="47.53261" lon="1.8122444">
        <ele>125.0</ele>
        <time>2022-02-10T09:17:38Z</time>
      </trkpt>
      <trkpt lat="47.532604" lon="1.8122365">
        <ele>125.0</ele>
        <time>2022-02-10T09:17:39Z</time>
      </trkpt>
      <trkpt lat="47.532604" lon="1.8122365">
        <ele>125.0</ele>
        <time>2022-02-10T09:17:40Z</time>
      </trkpt>
      <trkpt lat="47.532593" lon="1.8122205">
        <ele>125.0</ele>
        <time>2022-02-10T09:17:41Z</time>
      </trkpt>
      <trkpt lat="47.53259" lon="1.8122127">
        <ele>125.0</ele>
        <time>2022-02-10T09:17:42Z</time>
      </trkpt>
      <trkpt lat="47.532585" lon="1.8122096">
        <ele>125.0</ele>
        <time>2022-02-10T09:17:43Z</time>
      </trkpt>
      <trkpt lat="47.532574" lon="1.8122026">
        <ele>125.0</ele>
        <time>2022-02-10T09:17:44Z</time>
      </trkpt>
      <trkpt lat="47.53257" lon="1.8121941">
        <ele>125.0</ele>
        <time>2022-02-10T09:17:45Z</time>
      </trkpt>
      <trkpt lat="47.532562" lon="1.8121879">
        <ele>125.0</ele>
        <time>2022-02-10T09:17:46Z</time>
      </trkpt>
      <trkpt lat="47.532562" lon="1.8121732">
        <ele>124.0</ele>
        <time>2022-02-10T09:17:47Z</time>
      </trkpt>
      <trkpt lat="47.532562" lon="1.8121601">
        <ele>125.0</ele>
        <time>2022-02-10T09:17:48Z</time>
      </trkpt>
      <trkpt lat="47.532555" lon="1.8121438">
        <ele>125.0</ele>
        <time>2022-02-10T09:17:49Z</time>
      </trkpt>
      <trkpt lat="47.53255" lon="1.8121264">
        <ele>126.0</ele>
        <time>2022-02-10T09:17:50Z</time>
      </trkpt>
      <trkpt lat="47.532547" lon="1.8121154">
        <ele>126.0</ele>
        <time>2022-02-10T09:17:51Z</time>
      </trkpt>
      <trkpt lat="47.532547" lon="1.8121027">
        <ele>126.0</ele>
        <time>2022-02-10T09:17:52Z</time>
      </trkpt>
      <trkpt lat="47.532543" lon="1.8120902">
        <ele>126.0</ele>
        <time>2022-02-10T09:17:53Z</time>
      </trkpt>
      <trkpt lat="47.532536" lon="1.8120762">
        <ele>126.0</ele>
        <time>2022-02-10T09:17:54Z</time>
      </trkpt>
      <trkpt lat="47.532528" lon="1.812062">
        <ele>126.0</ele>
        <time>2022-02-10T09:17:55Z</time>
      </trkpt>
      <trkpt lat="47.53252" lon="1.8120539">
        <ele>125.0</ele>
        <time>2022-02-10T09:17:56Z</time>
      </trkpt>
      <trkpt lat="47.532513" lon="1.8120525">
        <ele>125.0</ele>
        <time>2022-02-10T09:17:57Z</time>
      </trkpt>
      <trkpt lat="47.5325" lon="1.8120492">
        <ele>125.0</ele>
        <time>2022-02-10T09:17:58Z</time>
      </trkpt>
      <trkpt lat="47.5325" lon="1.8120294">
        <ele>124.0</ele>
        <time>2022-02-10T09:17:59Z</time>
      </trkpt>
      <trkpt lat="47.532497" lon="1.812011">
        <ele>124.0</ele>
        <time>2022-02-10T09:18:00Z</time>
      </trkpt>
      <trkpt lat="47.532494" lon="1.8120046">
        <ele>123.0</ele>
        <time>2022-02-10T09:18:01Z</time>
      </trkpt>
      <trkpt lat="47.532494" lon="1.8120046">
        <ele>123.0</ele>
        <time>2022-02-10T09:18:02Z</time>
      </trkpt>
      <trkpt lat="47.532494" lon="1.8120046">
        <ele>123.0</ele>
        <time>2022-02-10T09:18:03Z</time>
      </trkpt>
      <trkpt lat="47.532475" lon="1.8119761">
        <ele>123.0</ele>
        <time>2022-02-10T09:18:04Z</time>
      </trkpt>
      <trkpt lat="47.532475" lon="1.8119686">
        <ele>123.0</ele>
        <time>2022-02-10T09:18:05Z</time>
      </trkpt>
      <trkpt lat="47.532467" lon="1.811956">
        <ele>123.0</ele>
        <time>2022-02-10T09:18:06Z</time>
      </trkpt>
      <trkpt lat="47.532463" lon="1.811949">
        <ele>123.0</ele>
        <time>2022-02-10T09:18:07Z</time>
      </trkpt>
      <trkpt lat="47.53246" lon="1.8119416">
        <ele>122.0</ele>
        <time>2022-02-10T09:18:08Z</time>
      </trkpt>
      <trkpt lat="47.53245" lon="1.8119264">
        <ele>121.0</ele>
        <time>2022-02-10T09:18:09Z</time>
      </trkpt>
      <trkpt lat="47.53245" lon="1.8119264">
        <ele>121.0</ele>
        <time>2022-02-10T09:18:10Z</time>
      </trkpt>
      <trkpt lat="47.53245" lon="1.8119264">
        <ele>121.0</ele>
        <time>2022-02-10T09:18:11Z</time>
      </trkpt>
      <trkpt lat="47.53245" lon="1.8118885">
        <ele>121.0</ele>
        <time>2022-02-10T09:18:12Z</time>
      </trkpt>
      <trkpt lat="47.532448" lon="1.8118684">
        <ele>120.0</ele>
        <time>2022-02-10T09:18:13Z</time>
      </trkpt>
      <trkpt lat="47.53245" lon="1.8118534">
        <ele>120.0</ele>
        <time>2022-02-10T09:18:14Z</time>
      </trkpt>
      <trkpt lat="47.532455" lon="1.8118397">
        <ele>120.0</ele>
        <time>2022-02-10T09:18:15Z</time>
      </trkpt>
      <trkpt lat="47.53245" lon="1.8118278">
        <ele>120.0</ele>
        <time>2022-02-10T09:18:16Z</time>
      </trkpt>
      <trkpt lat="47.532448" lon="1.8118134">
        <ele>120.0</ele>
        <time>2022-02-10T09:18:17Z</time>
      </trkpt>
      <trkpt lat="47.532444" lon="1.8118011">
        <ele>120.0</ele>
        <time>2022-02-10T09:18:18Z</time>
      </trkpt>
      <trkpt lat="47.53244" lon="1.8117913">
        <ele>120.0</ele>
        <time>2022-02-10T09:18:19Z</time>
      </trkpt>
      <trkpt lat="47.532433" lon="1.8117777">
        <ele>120.0</ele>
        <time>2022-02-10T09:18:20Z</time>
      </trkpt>
      <trkpt lat="47.53243" lon="1.8117641">
        <ele>121.0</ele>
        <time>2022-02-10T09:18:21Z</time>
      </trkpt>
      <trkpt lat="47.532425" lon="1.8117546">
        <ele>122.0</ele>
        <time>2022-02-10T09:18:22Z</time>
      </trkpt>
      <trkpt lat="47.532425" lon="1.8117464">
        <ele>122.0</ele>
        <time>2022-02-10T09:18:23Z</time>
      </trkpt>
      <trkpt lat="47.53242" lon="1.8117361">
        <ele>122.0</ele>
        <time>2022-02-10T09:18:24Z</time>
      </trkpt>
      <trkpt lat="47.53242" lon="1.8117299">
        <ele>122.0</ele>
        <time>2022-02-10T09:18:25Z</time>
      </trkpt>
      <trkpt lat="47.532417" lon="1.8117213">
        <ele>122.0</ele>
        <time>2022-02-10T09:18:26Z</time>
      </trkpt>
      <trkpt lat="47.532413" lon="1.8117042">
        <ele>122.0</ele>
        <time>2022-02-10T09:18:27Z</time>
      </trkpt>
      <trkpt lat="47.532406" lon="1.8116881">
        <ele>122.0</ele>
        <time>2022-02-10T09:18:28Z</time>
      </trkpt>
      <trkpt lat="47.5324" lon="1.8116771">
        <ele>122.0</ele>
        <time>2022-02-10T09:18:29Z</time>
      </trkpt>
      <trkpt lat="47.532394" lon="1.8116622">
        <ele>122.0</ele>
        <time>2022-02-10T09:18:30Z</time>
      </trkpt>
      <trkpt lat="47.53239" lon="1.8116496">
        <ele>122.0</ele>
        <time>2022-02-10T09:18:31Z</time>
      </trkpt>
      <trkpt lat="47.53239" lon="1.8116378">
        <ele>122.0</ele>
        <time>2022-02-10T09:18:32Z</time>
      </trkpt>
      <trkpt lat="47.532383" lon="1.811629">
        <ele>122.0</ele>
        <time>2022-02-10T09:18:33Z</time>
      </trkpt>
      <trkpt lat="47.532375" lon="1.811616">
        <ele>122.0</ele>
        <time>2022-02-10T09:18:34Z</time>
      </trkpt>
      <trkpt lat="47.532375" lon="1.811598">
        <ele>122.0</ele>
        <time>2022-02-10T09:18:35Z</time>
      </trkpt>
      <trkpt lat="47.53237" lon="1.8115855">
        <ele>122.0</ele>
        <time>2022-02-10T09:18:36Z</time>
      </trkpt>
      <trkpt lat="47.532368" lon="1.8115695">
        <ele>122.0</ele>
        <time>2022-02-10T09:18:37Z</time>
      </trkpt>
      <trkpt lat="47.532368" lon="1.8115518">
        <ele>122.0</ele>
        <time>2022-02-10T09:18:38Z</time>
      </trkpt>
      <trkpt lat="47.532364" lon="1.811544">
        <ele>122.0</ele>
        <time>2022-02-10T09:18:39Z</time>
      </trkpt>
      <trkpt lat="47.532364" lon="1.8115278">
        <ele>122.0</ele>
        <time>2022-02-10T09:18:40Z</time>
      </trkpt>
      <trkpt lat="47.532356" lon="1.8115133">
        <ele>122.0</ele>
        <time>2022-02-10T09:18:41Z</time>
      </trkpt>
      <trkpt lat="47.532352" lon="1.8115027">
        <ele>122.0</ele>
        <time>2022-02-10T09:18:42Z</time>
      </trkpt>
      <trkpt lat="47.53235" lon="1.8114944">
        <ele>122.0</ele>
        <time>2022-02-10T09:18:43Z</time>
      </trkpt>
      <trkpt lat="47.53234" lon="1.8114806">
        <ele>122.0</ele>
        <time>2022-02-10T09:18:44Z</time>
      </trkpt>
      <trkpt lat="47.532337" lon="1.8114696">
        <ele>122.0</ele>
        <time>2022-02-10T09:18:45Z</time>
      </trkpt>
      <trkpt lat="47.53233" lon="1.8114545">
        <ele>121.0</ele>
        <time>2022-02-10T09:18:46Z</time>
      </trkpt>
      <trkpt lat="47.532326" lon="1.8114356">
        <ele>121.0</ele>
        <time>2022-02-10T09:18:47Z</time>
      </trkpt>
      <trkpt lat="47.532322" lon="1.8114182">
        <ele>121.0</ele>
        <time>2022-02-10T09:18:48Z</time>
      </trkpt>
      <trkpt lat="47.532314" lon="1.8114036">
        <ele>120.0</ele>
        <time>2022-02-10T09:18:49Z</time>
      </trkpt>
      <trkpt lat="47.53231" lon="1.811389">
        <ele>120.0</ele>
        <time>2022-02-10T09:18:50Z</time>
      </trkpt>
      <trkpt lat="47.532303" lon="1.8113828">
        <ele>121.0</ele>
        <time>2022-02-10T09:18:51Z</time>
      </trkpt>
      <trkpt lat="47.532303" lon="1.811367">
        <ele>120.0</ele>
        <time>2022-02-10T09:18:52Z</time>
      </trkpt>
      <trkpt lat="47.5323" lon="1.8113539">
        <ele>120.0</ele>
        <time>2022-02-10T09:18:53Z</time>
      </trkpt>
      <trkpt lat="47.53229" lon="1.811341">
        <ele>120.0</ele>
        <time>2022-02-10T09:18:54Z</time>
      </trkpt>
      <trkpt lat="47.532288" lon="1.8113247">
        <ele>120.0</ele>
        <time>2022-02-10T09:18:55Z</time>
      </trkpt>
      <trkpt lat="47.532284" lon="1.8113122">
        <ele>120.0</ele>
        <time>2022-02-10T09:18:56Z</time>
      </trkpt>
      <trkpt lat="47.53228" lon="1.8113009">
        <ele>121.0</ele>
        <time>2022-02-10T09:18:57Z</time>
      </trkpt>
      <trkpt lat="47.532272" lon="1.8112859">
        <ele>120.0</ele>
        <time>2022-02-10T09:18:58Z</time>
      </trkpt>
      <trkpt lat="47.53227" lon="1.8112715">
        <ele>121.0</ele>
        <time>2022-02-10T09:18:59Z</time>
      </trkpt>
      <trkpt lat="47.532265" lon="1.8112538">
        <ele>121.0</ele>
        <time>2022-02-10T09:19:00Z</time>
      </trkpt>
      <trkpt lat="47.53226" lon="1.8112426">
        <ele>121.0</ele>
        <time>2022-02-10T09:19:01Z</time>
      </trkpt>
      <trkpt lat="47.532253" lon="1.8112267">
        <ele>121.0</ele>
        <time>2022-02-10T09:19:02Z</time>
      </trkpt>
      <trkpt lat="47.53225" lon="1.8112103">
        <ele>121.0</ele>
        <time>2022-02-10T09:19:03Z</time>
      </trkpt>
      <trkpt lat="47.53224" lon="1.8111925">
        <ele>121.0</ele>
        <time>2022-02-10T09:19:04Z</time>
      </trkpt>
      <trkpt lat="47.532238" lon="1.8111728">
        <ele>121.0</ele>
        <time>2022-02-10T09:19:05Z</time>
      </trkpt>
      <trkpt lat="47.532234" lon="1.8111633">
        <ele>121.0</ele>
        <time>2022-02-10T09:19:06Z</time>
      </trkpt>
      <trkpt lat="47.53223" lon="1.811148">
        <ele>121.0</ele>
        <time>2022-02-10T09:19:07Z</time>
      </trkpt>
      <trkpt lat="47.532223" lon="1.811144">
        <ele>122.0</ele>
        <time>2022-02-10T09:19:08Z</time>
      </trkpt>
      <trkpt lat="47.532223" lon="1.811125">
        <ele>122.0</ele>
        <time>2022-02-10T09:19:09Z</time>
      </trkpt>
      <trkpt lat="47.53222" lon="1.8111103">
        <ele>122.0</ele>
        <time>2022-02-10T09:19:10Z</time>
      </trkpt>
      <trkpt lat="47.53221" lon="1.8110957">
        <ele>122.0</ele>
        <time>2022-02-10T09:19:11Z</time>
      </trkpt>
      <trkpt lat="47.532204" lon="1.8110836">
        <ele>122.0</ele>
        <time>2022-02-10T09:19:12Z</time>
      </trkpt>
      <trkpt lat="47.5322" lon="1.8110732">
        <ele>121.0</ele>
        <time>2022-02-10T09:19:13Z</time>
      </trkpt>
      <trkpt lat="47.532196" lon="1.8110642">
        <ele>122.0</ele>
        <time>2022-02-10T09:19:14Z</time>
      </trkpt>
      <trkpt lat="47.532192" lon="1.8110503">
        <ele>122.0</ele>
        <time>2022-02-10T09:19:15Z</time>
      </trkpt>
      <trkpt lat="47.532196" lon="1.8110316">
        <ele>122.0</ele>
        <time>2022-02-10T09:19:16Z</time>
      </trkpt>
      <trkpt lat="47.5322" lon="1.8110235">
        <ele>123.0</ele>
        <time>2022-02-10T09:19:17Z</time>
      </trkpt>
      <trkpt lat="47.532192" lon="1.8110161">
        <ele>122.0</ele>
        <time>2022-02-10T09:19:18Z</time>
      </trkpt>
      <trkpt lat="47.53219" lon="1.8110099">
        <ele>122.0</ele>
        <time>2022-02-10T09:19:19Z</time>
      </trkpt>
      <trkpt lat="47.532192" lon="1.8110031">
        <ele>122.0</ele>
        <time>2022-02-10T09:19:20Z</time>
      </trkpt>
      <trkpt lat="47.532192" lon="1.8110079">
        <ele>122.0</ele>
        <time>2022-02-10T09:19:21Z</time>
      </trkpt>
      <trkpt lat="47.532192" lon="1.8110085">
        <ele>122.0</ele>
        <time>2022-02-10T09:19:22Z</time>
      </trkpt>
      <trkpt lat="47.532196" lon="1.8110011">
        <ele>122.0</ele>
        <time>2022-02-10T09:19:23Z</time>
      </trkpt>
      <trkpt lat="47.532192" lon="1.8109912">
        <ele>122.0</ele>
        <time>2022-02-10T09:19:24Z</time>
      </trkpt>
      <trkpt lat="47.53219" lon="1.8109776">
        <ele>122.0</ele>
        <time>2022-02-10T09:19:25Z</time>
      </trkpt>
      <trkpt lat="47.53219" lon="1.8109733">
        <ele>123.0</ele>
        <time>2022-02-10T09:19:26Z</time>
      </trkpt>
      <trkpt lat="47.532192" lon="1.8109637">
        <ele>123.0</ele>
        <time>2022-02-10T09:19:27Z</time>
      </trkpt>
      <trkpt lat="47.53219" lon="1.8109511">
        <ele>123.0</ele>
        <time>2022-02-10T09:19:28Z</time>
      </trkpt>
      <trkpt lat="47.532185" lon="1.8109411">
        <ele>123.0</ele>
        <time>2022-02-10T09:19:29Z</time>
      </trkpt>
      <trkpt lat="47.53218" lon="1.8109317">
        <ele>124.0</ele>
        <time>2022-02-10T09:19:30Z</time>
      </trkpt>
      <trkpt lat="47.532177" lon="1.8109208">
        <ele>124.0</ele>
        <time>2022-02-10T09:19:31Z</time>
      </trkpt>
      <trkpt lat="47.532177" lon="1.8109105">
        <ele>124.0</ele>
        <time>2022-02-10T09:19:32Z</time>
      </trkpt>
      <trkpt lat="47.53217" lon="1.8108968">
        <ele>124.0</ele>
        <time>2022-02-10T09:19:33Z</time>
      </trkpt>
      <trkpt lat="47.532166" lon="1.8108836">
        <ele>124.0</ele>
        <time>2022-02-10T09:19:34Z</time>
      </trkpt>
      <trkpt lat="47.53216" lon="1.81087">
        <ele>124.0</ele>
        <time>2022-02-10T09:19:35Z</time>
      </trkpt>
      <trkpt lat="47.532158" lon="1.8108659">
        <ele>123.0</ele>
        <time>2022-02-10T09:19:36Z</time>
      </trkpt>
      <trkpt lat="47.532154" lon="1.8108637">
        <ele>123.0</ele>
        <time>2022-02-10T09:19:37Z</time>
      </trkpt>
      <trkpt lat="47.532146" lon="1.8108587">
        <ele>123.0</ele>
        <time>2022-02-10T09:19:38Z</time>
      </trkpt>
      <trkpt lat="47.532135" lon="1.8108463">
        <ele>122.0</ele>
        <time>2022-02-10T09:19:39Z</time>
      </trkpt>
      <trkpt lat="47.53213" lon="1.8108398">
        <ele>122.0</ele>
        <time>2022-02-10T09:19:40Z</time>
      </trkpt>
      <trkpt lat="47.53213" lon="1.8108335">
        <ele>122.0</ele>
        <time>2022-02-10T09:19:41Z</time>
      </trkpt>
      <trkpt lat="47.532124" lon="1.8108354">
        <ele>122.0</ele>
        <time>2022-02-10T09:19:42Z</time>
      </trkpt>
      <trkpt lat="47.532127" lon="1.8108369">
        <ele>122.0</ele>
        <time>2022-02-10T09:19:43Z</time>
      </trkpt>
      <trkpt lat="47.532127" lon="1.8108369">
        <ele>122.0</ele>
        <time>2022-02-10T09:19:44Z</time>
      </trkpt>
      <trkpt lat="47.532124" lon="1.8108246">
        <ele>123.0</ele>
        <time>2022-02-10T09:19:45Z</time>
      </trkpt>
      <trkpt lat="47.53212" lon="1.810817">
        <ele>124.0</ele>
        <time>2022-02-10T09:19:46Z</time>
      </trkpt>
      <trkpt lat="47.532124" lon="1.8108101">
        <ele>124.0</ele>
        <time>2022-02-10T09:19:47Z</time>
      </trkpt>
      <trkpt lat="47.53213" lon="1.8108071">
        <ele>124.0</ele>
        <time>2022-02-10T09:19:48Z</time>
      </trkpt>
      <trkpt lat="47.532143" lon="1.8108035">
        <ele>124.0</ele>
        <time>2022-02-10T09:19:49Z</time>
      </trkpt>
      <trkpt lat="47.532146" lon="1.810797">
        <ele>124.0</ele>
        <time>2022-02-10T09:19:50Z</time>
      </trkpt>
      <trkpt lat="47.532143" lon="1.8107854">
        <ele>124.0</ele>
        <time>2022-02-10T09:19:51Z</time>
      </trkpt>
      <trkpt lat="47.532143" lon="1.810775">
        <ele>124.0</ele>
        <time>2022-02-10T09:19:52Z</time>
      </trkpt>
      <trkpt lat="47.532143" lon="1.8107646">
        <ele>125.0</ele>
        <time>2022-02-10T09:19:53Z</time>
      </trkpt>
      <trkpt lat="47.53214" lon="1.8107527">
        <ele>125.0</ele>
        <time>2022-02-10T09:19:54Z</time>
      </trkpt>
      <trkpt lat="47.53214" lon="1.810739">
        <ele>125.0</ele>
        <time>2022-02-10T09:19:55Z</time>
      </trkpt>
      <trkpt lat="47.532135" lon="1.8107239">
        <ele>124.0</ele>
        <time>2022-02-10T09:19:56Z</time>
      </trkpt>
      <trkpt lat="47.53213" lon="1.8107103">
        <ele>124.0</ele>
        <time>2022-02-10T09:19:57Z</time>
      </trkpt>
      <trkpt lat="47.532124" lon="1.8106948">
        <ele>124.0</ele>
        <time>2022-02-10T09:19:58Z</time>
      </trkpt>
      <trkpt lat="47.532124" lon="1.8106878">
        <ele>124.0</ele>
        <time>2022-02-10T09:19:59Z</time>
      </trkpt>
      <trkpt lat="47.532124" lon="1.8106748">
        <ele>123.0</ele>
        <time>2022-02-10T09:20:00Z</time>
      </trkpt>
      <trkpt lat="47.53212" lon="1.8106612">
        <ele>123.0</ele>
        <time>2022-02-10T09:20:01Z</time>
      </trkpt>
      <trkpt lat="47.532116" lon="1.8106536">
        <ele>123.0</ele>
        <time>2022-02-10T09:20:02Z</time>
      </trkpt>
      <trkpt lat="47.532116" lon="1.8106467">
        <ele>124.0</ele>
        <time>2022-02-10T09:20:03Z</time>
      </trkpt>
      <trkpt lat="47.53211" lon="1.8106437">
        <ele>124.0</ele>
        <time>2022-02-10T09:20:04Z</time>
      </trkpt>
      <trkpt lat="47.53211" lon="1.8106337">
        <ele>124.0</ele>
        <time>2022-02-10T09:20:05Z</time>
      </trkpt>
      <trkpt lat="47.53211" lon="1.8106208">
        <ele>124.0</ele>
        <time>2022-02-10T09:20:06Z</time>
      </trkpt>
      <trkpt lat="47.532104" lon="1.810607">
        <ele>124.0</ele>
        <time>2022-02-10T09:20:07Z</time>
      </trkpt>
      <trkpt lat="47.532104" lon="1.8105913">
        <ele>123.0</ele>
        <time>2022-02-10T09:20:08Z</time>
      </trkpt>
      <trkpt lat="47.532104" lon="1.8105712">
        <ele>123.0</ele>
        <time>2022-02-10T09:20:09Z</time>
      </trkpt>
      <trkpt lat="47.5321" lon="1.8105514">
        <ele>123.0</ele>
        <time>2022-02-10T09:20:10Z</time>
      </trkpt>
      <trkpt lat="47.532097" lon="1.8105388">
        <ele>123.0</ele>
        <time>2022-02-10T09:20:11Z</time>
      </trkpt>
      <trkpt lat="47.532093" lon="1.8105247">
        <ele>122.0</ele>
        <time>2022-02-10T09:20:12Z</time>
      </trkpt>
      <trkpt lat="47.532093" lon="1.8105142">
        <ele>122.0</ele>
        <time>2022-02-10T09:20:13Z</time>
      </trkpt>
      <trkpt lat="47.53209" lon="1.8105017">
        <ele>122.0</ele>
        <time>2022-02-10T09:20:14Z</time>
      </trkpt>
      <trkpt lat="47.532085" lon="1.8104842">
        <ele>122.0</ele>
        <time>2022-02-10T09:20:15Z</time>
      </trkpt>
      <trkpt lat="47.53208" lon="1.8104659">
        <ele>122.0</ele>
        <time>2022-02-10T09:20:16Z</time>
      </trkpt>
      <trkpt lat="47.532078" lon="1.8104553">
        <ele>122.0</ele>
        <time>2022-02-10T09:20:17Z</time>
      </trkpt>
      <trkpt lat="47.53207" lon="1.810445">
        <ele>122.0</ele>
        <time>2022-02-10T09:20:18Z</time>
      </trkpt>
      <trkpt lat="47.532066" lon="1.8104303">
        <ele>122.0</ele>
        <time>2022-02-10T09:20:19Z</time>
      </trkpt>
      <trkpt lat="47.532063" lon="1.8104161">
        <ele>121.0</ele>
        <time>2022-02-10T09:20:20Z</time>
      </trkpt>
      <trkpt lat="47.532055" lon="1.8104048">
        <ele>121.0</ele>
        <time>2022-02-10T09:20:21Z</time>
      </trkpt>
      <trkpt lat="47.532055" lon="1.8103962">
        <ele>122.0</ele>
        <time>2022-02-10T09:20:22Z</time>
      </trkpt>
      <trkpt lat="47.532047" lon="1.8103865">
        <ele>122.0</ele>
        <time>2022-02-10T09:20:23Z</time>
      </trkpt>
      <trkpt lat="47.532043" lon="1.8103701">
        <ele>122.0</ele>
        <time>2022-02-10T09:20:24Z</time>
      </trkpt>
      <trkpt lat="47.532036" lon="1.8103565">
        <ele>122.0</ele>
        <time>2022-02-10T09:20:25Z</time>
      </trkpt>
      <trkpt lat="47.532024" lon="1.8103479">
        <ele>122.0</ele>
        <time>2022-02-10T09:20:26Z</time>
      </trkpt>
      <trkpt lat="47.53202" lon="1.8103347">
        <ele>122.0</ele>
        <time>2022-02-10T09:20:27Z</time>
      </trkpt>
      <trkpt lat="47.532017" lon="1.8103219">
        <ele>121.0</ele>
        <time>2022-02-10T09:20:28Z</time>
      </trkpt>
      <trkpt lat="47.53201" lon="1.8103046">
        <ele>121.0</ele>
        <time>2022-02-10T09:20:29Z</time>
      </trkpt>
      <trkpt lat="47.532" lon="1.810285">
        <ele>121.0</ele>
        <time>2022-02-10T09:20:30Z</time>
      </trkpt>
      <trkpt lat="47.531994" lon="1.8102667">
        <ele>120.0</ele>
        <time>2022-02-10T09:20:31Z</time>
      </trkpt>
      <trkpt lat="47.53199" lon="1.8102492">
        <ele>120.0</ele>
        <time>2022-02-10T09:20:32Z</time>
      </trkpt>
      <trkpt lat="47.531982" lon="1.8102267">
        <ele>120.0</ele>
        <time>2022-02-10T09:20:33Z</time>
      </trkpt>
      <trkpt lat="47.531982" lon="1.8102075">
        <ele>120.0</ele>
        <time>2022-02-10T09:20:34Z</time>
      </trkpt>
      <trkpt lat="47.531975" lon="1.8101907">
        <ele>119.0</ele>
        <time>2022-02-10T09:20:35Z</time>
      </trkpt>
      <trkpt lat="47.53197" lon="1.8101814">
        <ele>119.0</ele>
        <time>2022-02-10T09:20:36Z</time>
      </trkpt>
      <trkpt lat="47.531967" lon="1.8101637">
        <ele>119.0</ele>
        <time>2022-02-10T09:20:37Z</time>
      </trkpt>
      <trkpt lat="47.531963" lon="1.8101557">
        <ele>118.0</ele>
        <time>2022-02-10T09:20:38Z</time>
      </trkpt>
      <trkpt lat="47.531963" lon="1.8101496">
        <ele>118.0</ele>
        <time>2022-02-10T09:20:39Z</time>
      </trkpt>
      <trkpt lat="47.531956" lon="1.8101351">
        <ele>118.0</ele>
        <time>2022-02-10T09:20:40Z</time>
      </trkpt>
      <trkpt lat="47.53195" lon="1.8101289">
        <ele>118.0</ele>
        <time>2022-02-10T09:20:41Z</time>
      </trkpt>
      <trkpt lat="47.531948" lon="1.8101217">
        <ele>119.0</ele>
        <time>2022-02-10T09:20:42Z</time>
      </trkpt>
      <trkpt lat="47.531944" lon="1.8101077">
        <ele>120.0</ele>
        <time>2022-02-10T09:20:43Z</time>
      </trkpt>
      <trkpt lat="47.53194" lon="1.8100915">
        <ele>120.0</ele>
        <time>2022-02-10T09:20:44Z</time>
      </trkpt>
      <trkpt lat="47.531937" lon="1.8100734">
        <ele>120.0</ele>
        <time>2022-02-10T09:20:45Z</time>
      </trkpt>
      <trkpt lat="47.531933" lon="1.8100545">
        <ele>120.0</ele>
        <time>2022-02-10T09:20:46Z</time>
      </trkpt>
      <trkpt lat="47.531925" lon="1.8100389">
        <ele>120.0</ele>
        <time>2022-02-10T09:20:47Z</time>
      </trkpt>
      <trkpt lat="47.53192" lon="1.8100245">
        <ele>121.0</ele>
        <time>2022-02-10T09:20:48Z</time>
      </trkpt>
      <trkpt lat="47.531914" lon="1.8100139">
        <ele>121.0</ele>
        <time>2022-02-10T09:20:49Z</time>
      </trkpt>
      <trkpt lat="47.53191" lon="1.8100014">
        <ele>121.0</ele>
        <time>2022-02-10T09:20:50Z</time>
      </trkpt>
      <trkpt lat="47.531906" lon="1.8099895">
        <ele>121.0</ele>
        <time>2022-02-10T09:20:51Z</time>
      </trkpt>
      <trkpt lat="47.531906" lon="1.8099756">
        <ele>121.0</ele>
        <time>2022-02-10T09:20:52Z</time>
      </trkpt>
      <trkpt lat="47.531902" lon="1.8099612">
        <ele>121.0</ele>
        <time>2022-02-10T09:20:53Z</time>
      </trkpt>
      <trkpt lat="47.5319" lon="1.8099444">
        <ele>121.0</ele>
        <time>2022-02-10T09:20:54Z</time>
      </trkpt>
      <trkpt lat="47.5319" lon="1.80993">
        <ele>122.0</ele>
        <time>2022-02-10T09:20:55Z</time>
      </trkpt>
      <trkpt lat="47.5319" lon="1.8099204">
        <ele>123.0</ele>
        <time>2022-02-10T09:20:56Z</time>
      </trkpt>
      <trkpt lat="47.531895" lon="1.8099059">
        <ele>123.0</ele>
        <time>2022-02-10T09:20:57Z</time>
      </trkpt>
      <trkpt lat="47.53189" lon="1.8098922">
        <ele>123.0</ele>
        <time>2022-02-10T09:20:58Z</time>
      </trkpt>
      <trkpt lat="47.531887" lon="1.8098811">
        <ele>123.0</ele>
        <time>2022-02-10T09:20:59Z</time>
      </trkpt>
      <trkpt lat="47.531887" lon="1.8098716">
        <ele>123.0</ele>
        <time>2022-02-10T09:21:00Z</time>
      </trkpt>
      <trkpt lat="47.53188" lon="1.8098552">
        <ele>123.0</ele>
        <time>2022-02-10T09:21:01Z</time>
      </trkpt>
      <trkpt lat="47.53188" lon="1.8098425">
        <ele>123.0</ele>
        <time>2022-02-10T09:21:02Z</time>
      </trkpt>
      <trkpt lat="47.531876" lon="1.8098329">
        <ele>123.0</ele>
        <time>2022-02-10T09:21:03Z</time>
      </trkpt>
      <trkpt lat="47.53187" lon="1.8098223">
        <ele>123.0</ele>
        <time>2022-02-10T09:21:04Z</time>
      </trkpt>
      <trkpt lat="47.53187" lon="1.8098099">
        <ele>123.0</ele>
        <time>2022-02-10T09:21:05Z</time>
      </trkpt>
      <trkpt lat="47.53187" lon="1.8098099">
        <ele>123.0</ele>
        <time>2022-02-10T09:21:06Z</time>
      </trkpt>
      <trkpt lat="47.53187" lon="1.8098099">
        <ele>123.0</ele>
        <time>2022-02-10T09:21:07Z</time>
      </trkpt>
      <trkpt lat="47.531868" lon="1.8097769">
        <ele>123.0</ele>
        <time>2022-02-10T09:21:08Z</time>
      </trkpt>
      <trkpt lat="47.531864" lon="1.809762">
        <ele>123.0</ele>
        <time>2022-02-10T09:21:09Z</time>
      </trkpt>
      <trkpt lat="47.531864" lon="1.809752">
        <ele>123.0</ele>
        <time>2022-02-10T09:21:10Z</time>
      </trkpt>
      <trkpt lat="47.53186" lon="1.809741">
        <ele>123.0</ele>
        <time>2022-02-10T09:21:11Z</time>
      </trkpt>
      <trkpt lat="47.531857" lon="1.8097298">
        <ele>124.0</ele>
        <time>2022-02-10T09:21:12Z</time>
      </trkpt>
      <trkpt lat="47.531857" lon="1.8097168">
        <ele>123.0</ele>
        <time>2022-02-10T09:21:13Z</time>
      </trkpt>
      <trkpt lat="47.531853" lon="1.8097066">
        <ele>123.0</ele>
        <time>2022-02-10T09:21:14Z</time>
      </trkpt>
      <trkpt lat="47.531845" lon="1.8096902">
        <ele>123.0</ele>
        <time>2022-02-10T09:21:15Z</time>
      </trkpt>
      <trkpt lat="47.531837" lon="1.8096733">
        <ele>123.0</ele>
        <time>2022-02-10T09:21:16Z</time>
      </trkpt>
      <trkpt lat="47.53183" lon="1.8096555">
        <ele>123.0</ele>
        <time>2022-02-10T09:21:17Z</time>
      </trkpt>
      <trkpt lat="47.531822" lon="1.8096403">
        <ele>124.0</ele>
        <time>2022-02-10T09:21:18Z</time>
      </trkpt>
      <trkpt lat="47.53182" lon="1.8096235">
        <ele>124.0</ele>
        <time>2022-02-10T09:21:19Z</time>
      </trkpt>
      <trkpt lat="47.531815" lon="1.8096111">
        <ele>123.0</ele>
        <time>2022-02-10T09:21:20Z</time>
      </trkpt>
      <trkpt lat="47.53181" lon="1.8095951">
        <ele>123.0</ele>
        <time>2022-02-10T09:21:21Z</time>
      </trkpt>
      <trkpt lat="47.531807" lon="1.8095802">
        <ele>123.0</ele>
        <time>2022-02-10T09:21:22Z</time>
      </trkpt>
      <trkpt lat="47.531807" lon="1.8095632">
        <ele>123.0</ele>
        <time>2022-02-10T09:21:23Z</time>
      </trkpt>
      <trkpt lat="47.5318" lon="1.8095459">
        <ele>124.0</ele>
        <time>2022-02-10T09:21:24Z</time>
      </trkpt>
      <trkpt lat="47.5318" lon="1.8095307">
        <ele>124.0</ele>
        <time>2022-02-10T09:21:25Z</time>
      </trkpt>
      <trkpt lat="47.5318" lon="1.8095165">
        <ele>123.0</ele>
        <time>2022-02-10T09:21:26Z</time>
      </trkpt>
      <trkpt lat="47.5318" lon="1.8094983">
        <ele>123.0</ele>
        <time>2022-02-10T09:21:27Z</time>
      </trkpt>
      <trkpt lat="47.531796" lon="1.8094792">
        <ele>123.0</ele>
        <time>2022-02-10T09:21:28Z</time>
      </trkpt>
      <trkpt lat="47.53179" lon="1.8094615">
        <ele>123.0</ele>
        <time>2022-02-10T09:21:29Z</time>
      </trkpt>
      <trkpt lat="47.531784" lon="1.8094454">
        <ele>123.0</ele>
        <time>2022-02-10T09:21:30Z</time>
      </trkpt>
      <trkpt lat="47.531776" lon="1.8094279">
        <ele>123.0</ele>
        <time>2022-02-10T09:21:31Z</time>
      </trkpt>
      <trkpt lat="47.53177" lon="1.8094093">
        <ele>123.0</ele>
        <time>2022-02-10T09:21:32Z</time>
      </trkpt>
      <trkpt lat="47.531765" lon="1.8093939">
        <ele>123.0</ele>
        <time>2022-02-10T09:21:33Z</time>
      </trkpt>
      <trkpt lat="47.53176" lon="1.8093762">
        <ele>123.0</ele>
        <time>2022-02-10T09:21:34Z</time>
      </trkpt>
      <trkpt lat="47.531757" lon="1.8093594">
        <ele>123.0</ele>
        <time>2022-02-10T09:21:35Z</time>
      </trkpt>
      <trkpt lat="47.531754" lon="1.8093413">
        <ele>123.0</ele>
        <time>2022-02-10T09:21:36Z</time>
      </trkpt>
      <trkpt lat="47.53175" lon="1.8093249">
        <ele>123.0</ele>
        <time>2022-02-10T09:21:37Z</time>
      </trkpt>
      <trkpt lat="47.531746" lon="1.8093109">
        <ele>123.0</ele>
        <time>2022-02-10T09:21:38Z</time>
      </trkpt>
      <trkpt lat="47.531742" lon="1.8093083">
        <ele>123.0</ele>
        <time>2022-02-10T09:21:39Z</time>
      </trkpt>
      <trkpt lat="47.53174" lon="1.8093065">
        <ele>123.0</ele>
        <time>2022-02-10T09:21:40Z</time>
      </trkpt>
      <trkpt lat="47.531734" lon="1.8092965">
        <ele>123.0</ele>
        <time>2022-02-10T09:21:41Z</time>
      </trkpt>
      <trkpt lat="47.53173" lon="1.809283">
        <ele>123.0</ele>
        <time>2022-02-10T09:21:42Z</time>
      </trkpt>
      <trkpt lat="47.53173" lon="1.8092791">
        <ele>123.0</ele>
        <time>2022-02-10T09:21:43Z</time>
      </trkpt>
      <trkpt lat="47.53173" lon="1.8092791">
        <ele>123.0</ele>
        <time>2022-02-10T09:21:44Z</time>
      </trkpt>
      <trkpt lat="47.53173" lon="1.8092791">
        <ele>123.0</ele>
        <time>2022-02-10T09:21:45Z</time>
      </trkpt>
      <trkpt lat="47.53172" lon="1.8092518">
        <ele>123.0</ele>
        <time>2022-02-10T09:21:46Z</time>
      </trkpt>
      <trkpt lat="47.531715" lon="1.8092377">
        <ele>122.0</ele>
        <time>2022-02-10T09:21:47Z</time>
      </trkpt>
      <trkpt lat="47.53171" lon="1.8092247">
        <ele>122.0</ele>
        <time>2022-02-10T09:21:48Z</time>
      </trkpt>
      <trkpt lat="47.531704" lon="1.8092037">
        <ele>121.0</ele>
        <time>2022-02-10T09:21:49Z</time>
      </trkpt>
      <trkpt lat="47.531696" lon="1.8091892">
        <ele>121.0</ele>
        <time>2022-02-10T09:21:50Z</time>
      </trkpt>
      <trkpt lat="47.531696" lon="1.8091712">
        <ele>120.0</ele>
        <time>2022-02-10T09:21:51Z</time>
      </trkpt>
      <trkpt lat="47.53169" lon="1.8091532">
        <ele>119.0</ele>
        <time>2022-02-10T09:21:52Z</time>
      </trkpt>
      <trkpt lat="47.531685" lon="1.8091369">
        <ele>119.0</ele>
        <time>2022-02-10T09:21:53Z</time>
      </trkpt>
      <trkpt lat="47.53168" lon="1.8091199">
        <ele>119.0</ele>
        <time>2022-02-10T09:21:54Z</time>
      </trkpt>
      <trkpt lat="47.531677" lon="1.809108">
        <ele>118.0</ele>
        <time>2022-02-10T09:21:55Z</time>
      </trkpt>
      <trkpt lat="47.531677" lon="1.8090924">
        <ele>117.0</ele>
        <time>2022-02-10T09:21:56Z</time>
      </trkpt>
      <trkpt lat="47.53167" lon="1.8090773">
        <ele>117.0</ele>
        <time>2022-02-10T09:21:57Z</time>
      </trkpt>
      <trkpt lat="47.53167" lon="1.8090634">
        <ele>117.0</ele>
        <time>2022-02-10T09:21:58Z</time>
      </trkpt>
      <trkpt lat="47.53167" lon="1.8090634">
        <ele>117.0</ele>
        <time>2022-02-10T09:21:59Z</time>
      </trkpt>
      <trkpt lat="47.53167" lon="1.8090634">
        <ele>117.0</ele>
        <time>2022-02-10T09:22:00Z</time>
      </trkpt>
      <trkpt lat="47.53166" lon="1.8090236">
        <ele>116.0</ele>
        <time>2022-02-10T09:22:01Z</time>
      </trkpt>
      <trkpt lat="47.53165" lon="1.8090048">
        <ele>115.0</ele>
        <time>2022-02-10T09:22:02Z</time>
      </trkpt>
      <trkpt lat="47.531647" lon="1.8089887">
        <ele>115.0</ele>
        <time>2022-02-10T09:22:03Z</time>
      </trkpt>
      <trkpt lat="47.531643" lon="1.8089734">
        <ele>115.0</ele>
        <time>2022-02-10T09:22:04Z</time>
      </trkpt>
      <trkpt lat="47.531635" lon="1.8089585">
        <ele>114.0</ele>
        <time>2022-02-10T09:22:05Z</time>
      </trkpt>
      <trkpt lat="47.53163" lon="1.808949">
        <ele>114.0</ele>
        <time>2022-02-10T09:22:06Z</time>
      </trkpt>
      <trkpt lat="47.531628" lon="1.8089393">
        <ele>114.0</ele>
        <time>2022-02-10T09:22:07Z</time>
      </trkpt>
      <trkpt lat="47.531628" lon="1.8089393">
        <ele>114.0</ele>
        <time>2022-02-10T09:22:08Z</time>
      </trkpt>
      <trkpt lat="47.531628" lon="1.8089393">
        <ele>114.0</ele>
        <time>2022-02-10T09:22:09Z</time>
      </trkpt>
      <trkpt lat="47.531616" lon="1.808912">
        <ele>114.0</ele>
        <time>2022-02-10T09:22:10Z</time>
      </trkpt>
      <trkpt lat="47.531612" lon="1.8089004">
        <ele>115.0</ele>
        <time>2022-02-10T09:22:11Z</time>
      </trkpt>
      <trkpt lat="47.531612" lon="1.8088826">
        <ele>115.0</ele>
        <time>2022-02-10T09:22:12Z</time>
      </trkpt>
      <trkpt lat="47.53161" lon="1.8088698">
        <ele>116.0</ele>
        <time>2022-02-10T09:22:13Z</time>
      </trkpt>
      <trkpt lat="47.531605" lon="1.8088616">
        <ele>115.0</ele>
        <time>2022-02-10T09:22:14Z</time>
      </trkpt>
      <trkpt lat="47.531597" lon="1.8088503">
        <ele>115.0</ele>
        <time>2022-02-10T09:22:15Z</time>
      </trkpt>
      <trkpt lat="47.53159" lon="1.8088294">
        <ele>115.0</ele>
        <time>2022-02-10T09:22:16Z</time>
      </trkpt>
      <trkpt lat="47.531586" lon="1.808813">
        <ele>115.0</ele>
        <time>2022-02-10T09:22:17Z</time>
      </trkpt>
      <trkpt lat="47.53158" lon="1.8087981">
        <ele>115.0</ele>
        <time>2022-02-10T09:22:18Z</time>
      </trkpt>
      <trkpt lat="47.531574" lon="1.8087778">
        <ele>115.0</ele>
        <time>2022-02-10T09:22:19Z</time>
      </trkpt>
      <trkpt lat="47.53157" lon="1.8087543">
        <ele>114.0</ele>
        <time>2022-02-10T09:22:20Z</time>
      </trkpt>
      <trkpt lat="47.531567" lon="1.8087356">
        <ele>114.0</ele>
        <time>2022-02-10T09:22:21Z</time>
      </trkpt>
      <trkpt lat="47.531567" lon="1.808715">
        <ele>113.0</ele>
        <time>2022-02-10T09:22:22Z</time>
      </trkpt>
      <trkpt lat="47.531563" lon="1.808699">
        <ele>113.0</ele>
        <time>2022-02-10T09:22:23Z</time>
      </trkpt>
      <trkpt lat="47.531555" lon="1.8086803">
        <ele>112.0</ele>
        <time>2022-02-10T09:22:24Z</time>
      </trkpt>
      <trkpt lat="47.53155" lon="1.8086629">
        <ele>112.0</ele>
        <time>2022-02-10T09:22:25Z</time>
      </trkpt>
      <trkpt lat="47.531548" lon="1.8086479">
        <ele>112.0</ele>
        <time>2022-02-10T09:22:26Z</time>
      </trkpt>
      <trkpt lat="47.531544" lon="1.8086324">
        <ele>112.0</ele>
        <time>2022-02-10T09:22:27Z</time>
      </trkpt>
      <trkpt lat="47.53154" lon="1.8086165">
        <ele>112.0</ele>
        <time>2022-02-10T09:22:28Z</time>
      </trkpt>
      <trkpt lat="47.531536" lon="1.8086007">
        <ele>112.0</ele>
        <time>2022-02-10T09:22:29Z</time>
      </trkpt>
      <trkpt lat="47.531532" lon="1.8085859">
        <ele>112.0</ele>
        <time>2022-02-10T09:22:30Z</time>
      </trkpt>
      <trkpt lat="47.53153" lon="1.8085705">
        <ele>112.0</ele>
        <time>2022-02-10T09:22:31Z</time>
      </trkpt>
      <trkpt lat="47.531525" lon="1.8085517">
        <ele>112.0</ele>
        <time>2022-02-10T09:22:32Z</time>
      </trkpt>
      <trkpt lat="47.53152" lon="1.8085328">
        <ele>112.0</ele>
        <time>2022-02-10T09:22:33Z</time>
      </trkpt>
      <trkpt lat="47.531517" lon="1.8085196">
        <ele>112.0</ele>
        <time>2022-02-10T09:22:34Z</time>
      </trkpt>
      <trkpt lat="47.531513" lon="1.8085046">
        <ele>112.0</ele>
        <time>2022-02-10T09:22:35Z</time>
      </trkpt>
      <trkpt lat="47.5315" lon="1.8084884">
        <ele>112.0</ele>
        <time>2022-02-10T09:22:36Z</time>
      </trkpt>
      <trkpt lat="47.531494" lon="1.8084743">
        <ele>113.0</ele>
        <time>2022-02-10T09:22:37Z</time>
      </trkpt>
      <trkpt lat="47.53148" lon="1.8084643">
        <ele>113.0</ele>
        <time>2022-02-10T09:22:38Z</time>
      </trkpt>
      <trkpt lat="47.531467" lon="1.8084548">
        <ele>112.0</ele>
        <time>2022-02-10T09:22:39Z</time>
      </trkpt>
      <trkpt lat="47.531456" lon="1.8084434">
        <ele>112.0</ele>
        <time>2022-02-10T09:22:40Z</time>
      </trkpt>
      <trkpt lat="47.531445" lon="1.8084306">
        <ele>113.0</ele>
        <time>2022-02-10T09:22:41Z</time>
      </trkpt>
      <trkpt lat="47.531433" lon="1.8084205">
        <ele>113.0</ele>
        <time>2022-02-10T09:22:42Z</time>
      </trkpt>
      <trkpt lat="47.53142" lon="1.8084015">
        <ele>113.0</ele>
        <time>2022-02-10T09:22:43Z</time>
      </trkpt>
      <trkpt lat="47.53141" lon="1.8083801">
        <ele>113.0</ele>
        <time>2022-02-10T09:22:44Z</time>
      </trkpt>
      <trkpt lat="47.5314" lon="1.8083613">
        <ele>113.0</ele>
        <time>2022-02-10T09:22:45Z</time>
      </trkpt>
      <trkpt lat="47.531387" lon="1.8083469">
        <ele>113.0</ele>
        <time>2022-02-10T09:22:46Z</time>
      </trkpt>
      <trkpt lat="47.53138" lon="1.8083279">
        <ele>113.0</ele>
        <time>2022-02-10T09:22:47Z</time>
      </trkpt>
      <trkpt lat="47.531372" lon="1.8083162">
        <ele>113.0</ele>
        <time>2022-02-10T09:22:48Z</time>
      </trkpt>
      <trkpt lat="47.53137" lon="1.808305">
        <ele>113.0</ele>
        <time>2022-02-10T09:22:49Z</time>
      </trkpt>
      <trkpt lat="47.53136" lon="1.8082848">
        <ele>113.0</ele>
        <time>2022-02-10T09:22:50Z</time>
      </trkpt>
      <trkpt lat="47.531357" lon="1.8082657">
        <ele>113.0</ele>
        <time>2022-02-10T09:22:51Z</time>
      </trkpt>
      <trkpt lat="47.53135" lon="1.8082485">
        <ele>112.0</ele>
        <time>2022-02-10T09:22:52Z</time>
      </trkpt>
      <trkpt lat="47.531345" lon="1.8082327">
        <ele>112.0</ele>
        <time>2022-02-10T09:22:53Z</time>
      </trkpt>
      <trkpt lat="47.53134" lon="1.8082143">
        <ele>113.0</ele>
        <time>2022-02-10T09:22:54Z</time>
      </trkpt>
      <trkpt lat="47.53134" lon="1.808202">
        <ele>113.0</ele>
        <time>2022-02-10T09:22:55Z</time>
      </trkpt>
      <trkpt lat="47.53134" lon="1.8081917">
        <ele>113.0</ele>
        <time>2022-02-10T09:22:56Z</time>
      </trkpt>
      <trkpt lat="47.531334" lon="1.8081758">
        <ele>113.0</ele>
        <time>2022-02-10T09:22:57Z</time>
      </trkpt>
      <trkpt lat="47.531334" lon="1.8081524">
        <ele>113.0</ele>
        <time>2022-02-10T09:22:58Z</time>
      </trkpt>
      <trkpt lat="47.531334" lon="1.8081286">
        <ele>114.0</ele>
        <time>2022-02-10T09:22:59Z</time>
      </trkpt>
      <trkpt lat="47.531334" lon="1.8081127">
        <ele>114.0</ele>
        <time>2022-02-10T09:23:00Z</time>
      </trkpt>
      <trkpt lat="47.531334" lon="1.8080945">
        <ele>114.0</ele>
        <time>2022-02-10T09:23:01Z</time>
      </trkpt>
      <trkpt lat="47.531338" lon="1.8080757">
        <ele>114.0</ele>
        <time>2022-02-10T09:23:02Z</time>
      </trkpt>
      <trkpt lat="47.531334" lon="1.8080585">
        <ele>115.0</ele>
        <time>2022-02-10T09:23:03Z</time>
      </trkpt>
      <trkpt lat="47.531334" lon="1.8080424">
        <ele>115.0</ele>
        <time>2022-02-10T09:23:04Z</time>
      </trkpt>
      <trkpt lat="47.531334" lon="1.8080286">
        <ele>115.0</ele>
        <time>2022-02-10T09:23:05Z</time>
      </trkpt>
      <trkpt lat="47.531334" lon="1.8080194">
        <ele>116.0</ele>
        <time>2022-02-10T09:23:06Z</time>
      </trkpt>
      <trkpt lat="47.531334" lon="1.8080041">
        <ele>116.0</ele>
        <time>2022-02-10T09:23:07Z</time>
      </trkpt>
      <trkpt lat="47.531334" lon="1.8079861">
        <ele>116.0</ele>
        <time>2022-02-10T09:23:08Z</time>
      </trkpt>
      <trkpt lat="47.531338" lon="1.8079771">
        <ele>117.0</ele>
        <time>2022-02-10T09:23:09Z</time>
      </trkpt>
      <trkpt lat="47.531334" lon="1.8079693">
        <ele>117.0</ele>
        <time>2022-02-10T09:23:10Z</time>
      </trkpt>
      <trkpt lat="47.531338" lon="1.8079559">
        <ele>118.0</ele>
        <time>2022-02-10T09:23:11Z</time>
      </trkpt>
      <trkpt lat="47.531338" lon="1.8079559">
        <ele>118.0</ele>
        <time>2022-02-10T09:23:12Z</time>
      </trkpt>
      <trkpt lat="47.531345" lon="1.8079476">
        <ele>118.0</ele>
        <time>2022-02-10T09:23:13Z</time>
      </trkpt>
      <trkpt lat="47.531338" lon="1.807947">
        <ele>118.0</ele>
        <time>2022-02-10T09:23:14Z</time>
      </trkpt>
      <trkpt lat="47.531338" lon="1.8079394">
        <ele>118.0</ele>
        <time>2022-02-10T09:23:15Z</time>
      </trkpt>
      <trkpt lat="47.53134" lon="1.8079233">
        <ele>118.0</ele>
        <time>2022-02-10T09:23:16Z</time>
      </trkpt>
      <trkpt lat="47.53134" lon="1.8079109">
        <ele>118.0</ele>
        <time>2022-02-10T09:23:17Z</time>
      </trkpt>
      <trkpt lat="47.53134" lon="1.8079016">
        <ele>119.0</ele>
        <time>2022-02-10T09:23:18Z</time>
      </trkpt>
      <trkpt lat="47.531338" lon="1.807888">
        <ele>119.0</ele>
        <time>2022-02-10T09:23:19Z</time>
      </trkpt>
      <trkpt lat="47.531338" lon="1.8078777">
        <ele>120.0</ele>
        <time>2022-02-10T09:23:20Z</time>
      </trkpt>
      <trkpt lat="47.531334" lon="1.8078684">
        <ele>119.0</ele>
        <time>2022-02-10T09:23:21Z</time>
      </trkpt>
      <trkpt lat="47.53133" lon="1.807853">
        <ele>119.0</ele>
        <time>2022-02-10T09:23:22Z</time>
      </trkpt>
      <trkpt lat="47.531326" lon="1.807837">
        <ele>119.0</ele>
        <time>2022-02-10T09:23:23Z</time>
      </trkpt>
      <trkpt lat="47.531326" lon="1.8078172">
        <ele>119.0</ele>
        <time>2022-02-10T09:23:24Z</time>
      </trkpt>
      <trkpt lat="47.531326" lon="1.8077974">
        <ele>119.0</ele>
        <time>2022-02-10T09:23:25Z</time>
      </trkpt>
      <trkpt lat="47.531322" lon="1.8077866">
        <ele>118.0</ele>
        <time>2022-02-10T09:23:26Z</time>
      </trkpt>
      <trkpt lat="47.53132" lon="1.8077716">
        <ele>118.0</ele>
        <time>2022-02-10T09:23:27Z</time>
      </trkpt>
      <trkpt lat="47.53132" lon="1.8077545">
        <ele>117.0</ele>
        <time>2022-02-10T09:23:28Z</time>
      </trkpt>
      <trkpt lat="47.53131" lon="1.8077382">
        <ele>117.0</ele>
        <time>2022-02-10T09:23:29Z</time>
      </trkpt>
      <trkpt lat="47.531307" lon="1.8077184">
        <ele>117.0</ele>
        <time>2022-02-10T09:23:30Z</time>
      </trkpt>
      <trkpt lat="47.531307" lon="1.8077008">
        <ele>117.0</ele>
        <time>2022-02-10T09:23:31Z</time>
      </trkpt>
      <trkpt lat="47.531307" lon="1.8076848">
        <ele>117.0</ele>
        <time>2022-02-10T09:23:32Z</time>
      </trkpt>
      <trkpt lat="47.531307" lon="1.8076684">
        <ele>117.0</ele>
        <time>2022-02-10T09:23:33Z</time>
      </trkpt>
      <trkpt lat="47.53131" lon="1.807653">
        <ele>117.0</ele>
        <time>2022-02-10T09:23:34Z</time>
      </trkpt>
      <trkpt lat="47.53131" lon="1.807638">
        <ele>118.0</ele>
        <time>2022-02-10T09:23:35Z</time>
      </trkpt>
      <trkpt lat="47.531315" lon="1.8076258">
        <ele>118.0</ele>
        <time>2022-02-10T09:23:36Z</time>
      </trkpt>
      <trkpt lat="47.53131" lon="1.8076155">
        <ele>118.0</ele>
        <time>2022-02-10T09:23:37Z</time>
      </trkpt>
      <trkpt lat="47.531315" lon="1.8076004">
        <ele>117.0</ele>
        <time>2022-02-10T09:23:38Z</time>
      </trkpt>
      <trkpt lat="47.53132" lon="1.8075898">
        <ele>117.0</ele>
        <time>2022-02-10T09:23:39Z</time>
      </trkpt>
      <trkpt lat="47.531322" lon="1.8075874">
        <ele>117.0</ele>
        <time>2022-02-10T09:23:40Z</time>
      </trkpt>
      <trkpt lat="47.53133" lon="1.8075755">
        <ele>116.0</ele>
        <time>2022-02-10T09:23:41Z</time>
      </trkpt>
      <trkpt lat="47.53134" lon="1.8075668">
        <ele>115.0</ele>
        <time>2022-02-10T09:23:42Z</time>
      </trkpt>
      <trkpt lat="47.53135" lon="1.8075532">
        <ele>115.0</ele>
        <time>2022-02-10T09:23:43Z</time>
      </trkpt>
      <trkpt lat="47.53135" lon="1.8075526">
        <ele>115.0</ele>
        <time>2022-02-10T09:23:44Z</time>
      </trkpt>
      <trkpt lat="47.531353" lon="1.8075451">
        <ele>115.0</ele>
        <time>2022-02-10T09:23:45Z</time>
      </trkpt>
      <trkpt lat="47.531364" lon="1.8075409">
        <ele>116.0</ele>
        <time>2022-02-10T09:23:46Z</time>
      </trkpt>
      <trkpt lat="47.531376" lon="1.8075397">
        <ele>116.0</ele>
        <time>2022-02-10T09:23:47Z</time>
      </trkpt>
      <trkpt lat="47.531384" lon="1.8075355">
        <ele>116.0</ele>
        <time>2022-02-10T09:23:48Z</time>
      </trkpt>
      <trkpt lat="47.531387" lon="1.8075325">
        <ele>116.0</ele>
        <time>2022-02-10T09:23:49Z</time>
      </trkpt>
      <trkpt lat="47.531387" lon="1.8075126">
        <ele>117.0</ele>
        <time>2022-02-10T09:23:50Z</time>
      </trkpt>
      <trkpt lat="47.531395" lon="1.807496">
        <ele>117.0</ele>
        <time>2022-02-10T09:23:51Z</time>
      </trkpt>
      <trkpt lat="47.531406" lon="1.8074871">
        <ele>117.0</ele>
        <time>2022-02-10T09:23:52Z</time>
      </trkpt>
      <trkpt lat="47.53142" lon="1.8074731">
        <ele>116.0</ele>
        <time>2022-02-10T09:23:53Z</time>
      </trkpt>
      <trkpt lat="47.531433" lon="1.807462">
        <ele>117.0</ele>
        <time>2022-02-10T09:23:54Z</time>
      </trkpt>
      <trkpt lat="47.531445" lon="1.8074496">
        <ele>117.0</ele>
        <time>2022-02-10T09:23:55Z</time>
      </trkpt>
      <trkpt lat="47.531456" lon="1.8074417">
        <ele>117.0</ele>
        <time>2022-02-10T09:23:56Z</time>
      </trkpt>
      <trkpt lat="47.53147" lon="1.8074327">
        <ele>118.0</ele>
        <time>2022-02-10T09:23:57Z</time>
      </trkpt>
      <trkpt lat="47.531483" lon="1.807429">
        <ele>118.0</ele>
        <time>2022-02-10T09:23:58Z</time>
      </trkpt>
      <trkpt lat="47.531494" lon="1.8074225">
        <ele>118.0</ele>
        <time>2022-02-10T09:23:59Z</time>
      </trkpt>
      <trkpt lat="47.531498" lon="1.807424">
        <ele>118.0</ele>
        <time>2022-02-10T09:24:00Z</time>
      </trkpt>
      <trkpt lat="47.5315" lon="1.8074242">
        <ele>117.0</ele>
        <time>2022-02-10T09:24:01Z</time>
      </trkpt>
      <trkpt lat="47.53151" lon="1.8074195">
        <ele>117.0</ele>
        <time>2022-02-10T09:24:02Z</time>
      </trkpt>
      <trkpt lat="47.531517" lon="1.8074179">
        <ele>117.0</ele>
        <time>2022-02-10T09:24:03Z</time>
      </trkpt>
      <trkpt lat="47.531517" lon="1.8074179">
        <ele>117.0</ele>
        <time>2022-02-10T09:24:04Z</time>
      </trkpt>
      <trkpt lat="47.531517" lon="1.8074197">
        <ele>117.0</ele>
        <time>2022-02-10T09:24:05Z</time>
      </trkpt>
      <trkpt lat="47.53153" lon="1.8074089">
        <ele>117.0</ele>
        <time>2022-02-10T09:24:06Z</time>
      </trkpt>
      <trkpt lat="47.53154" lon="1.807403">
        <ele>117.0</ele>
        <time>2022-02-10T09:24:07Z</time>
      </trkpt>
      <trkpt lat="47.53155" lon="1.8073951">
        <ele>117.0</ele>
        <time>2022-02-10T09:24:08Z</time>
      </trkpt>
      <trkpt lat="47.531563" lon="1.8073859">
        <ele>117.0</ele>
        <time>2022-02-10T09:24:09Z</time>
      </trkpt>
      <trkpt lat="47.531574" lon="1.8073834">
        <ele>117.0</ele>
        <time>2022-02-10T09:24:10Z</time>
      </trkpt>
      <trkpt lat="47.531586" lon="1.8073852">
        <ele>118.0</ele>
        <time>2022-02-10T09:24:11Z</time>
      </trkpt>
      <trkpt lat="47.531597" lon="1.807377">
        <ele>118.0</ele>
        <time>2022-02-10T09:24:12Z</time>
      </trkpt>
      <trkpt lat="47.53161" lon="1.8073695">
        <ele>118.0</ele>
        <time>2022-02-10T09:24:13Z</time>
      </trkpt>
      <trkpt lat="47.531616" lon="1.8073584">
        <ele>118.0</ele>
        <time>2022-02-10T09:24:14Z</time>
      </trkpt>
      <trkpt lat="47.531624" lon="1.8073508">
        <ele>119.0</ele>
        <time>2022-02-10T09:24:15Z</time>
      </trkpt>
      <trkpt lat="47.53164" lon="1.8073412">
        <ele>119.0</ele>
        <time>2022-02-10T09:24:16Z</time>
      </trkpt>
      <trkpt lat="47.53165" lon="1.8073336">
        <ele>119.0</ele>
        <time>2022-02-10T09:24:17Z</time>
      </trkpt>
      <trkpt lat="47.53166" lon="1.8073312">
        <ele>120.0</ele>
        <time>2022-02-10T09:24:18Z</time>
      </trkpt>
      <trkpt lat="47.53167" lon="1.8073245">
        <ele>119.0</ele>
        <time>2022-02-10T09:24:19Z</time>
      </trkpt>
      <trkpt lat="47.53168" lon="1.8073183">
        <ele>119.0</ele>
        <time>2022-02-10T09:24:20Z</time>
      </trkpt>
      <trkpt lat="47.531693" lon="1.8073093">
        <ele>119.0</ele>
        <time>2022-02-10T09:24:21Z</time>
      </trkpt>
      <trkpt lat="47.5317" lon="1.8073">
        <ele>120.0</ele>
        <time>2022-02-10T09:24:22Z</time>
      </trkpt>
      <trkpt lat="47.53171" lon="1.8072901">
        <ele>120.0</ele>
        <time>2022-02-10T09:24:23Z</time>
      </trkpt>
      <trkpt lat="47.531723" lon="1.8072833">
        <ele>120.0</ele>
        <time>2022-02-10T09:24:24Z</time>
      </trkpt>
      <trkpt lat="47.53173" lon="1.8072783">
        <ele>121.0</ele>
        <time>2022-02-10T09:24:25Z</time>
      </trkpt>
      <trkpt lat="47.531742" lon="1.8072739">
        <ele>120.0</ele>
        <time>2022-02-10T09:24:26Z</time>
      </trkpt>
      <trkpt lat="47.531746" lon="1.8072692">
        <ele>120.0</ele>
        <time>2022-02-10T09:24:27Z</time>
      </trkpt>
      <trkpt lat="47.531757" lon="1.8072606">
        <ele>121.0</ele>
        <time>2022-02-10T09:24:28Z</time>
      </trkpt>
      <trkpt lat="47.53177" lon="1.80725">
        <ele>121.0</ele>
        <time>2022-02-10T09:24:29Z</time>
      </trkpt>
      <trkpt lat="47.531776" lon="1.8072438">
        <ele>121.0</ele>
        <time>2022-02-10T09:24:30Z</time>
      </trkpt>
      <trkpt lat="47.531788" lon="1.8072331">
        <ele>121.0</ele>
        <time>2022-02-10T09:24:31Z</time>
      </trkpt>
      <trkpt lat="47.531796" lon="1.8072208">
        <ele>121.0</ele>
        <time>2022-02-10T09:24:32Z</time>
      </trkpt>
      <trkpt lat="47.53181" lon="1.8072147">
        <ele>121.0</ele>
        <time>2022-02-10T09:24:33Z</time>
      </trkpt>
      <trkpt lat="47.531822" lon="1.8072109">
        <ele>121.0</ele>
        <time>2022-02-10T09:24:34Z</time>
      </trkpt>
      <trkpt lat="47.531837" lon="1.8072017">
        <ele>121.0</ele>
        <time>2022-02-10T09:24:35Z</time>
      </trkpt>
      <trkpt lat="47.53185" lon="1.8071975">
        <ele>122.0</ele>
        <time>2022-02-10T09:24:36Z</time>
      </trkpt>
      <trkpt lat="47.53186" lon="1.8071908">
        <ele>123.0</ele>
        <time>2022-02-10T09:24:37Z</time>
      </trkpt>
      <trkpt lat="47.531876" lon="1.8071826">
        <ele>123.0</ele>
        <time>2022-02-10T09:24:38Z</time>
      </trkpt>
      <trkpt lat="47.531887" lon="1.8071733">
        <ele>123.0</ele>
        <time>2022-02-10T09:24:39Z</time>
      </trkpt>
      <trkpt lat="47.5319" lon="1.8071635">
        <ele>124.0</ele>
        <time>2022-02-10T09:24:40Z</time>
      </trkpt>
      <trkpt lat="47.53191" lon="1.8071553">
        <ele>124.0</ele>
        <time>2022-02-10T09:24:41Z</time>
      </trkpt>
      <trkpt lat="47.531925" lon="1.8071499">
        <ele>124.0</ele>
        <time>2022-02-10T09:24:42Z</time>
      </trkpt>
      <trkpt lat="47.531937" lon="1.8071456">
        <ele>124.0</ele>
        <time>2022-02-10T09:24:43Z</time>
      </trkpt>
      <trkpt lat="47.531948" lon="1.8071411">
        <ele>123.0</ele>
        <time>2022-02-10T09:24:44Z</time>
      </trkpt>
      <trkpt lat="47.531956" lon="1.8071369">
        <ele>123.0</ele>
        <time>2022-02-10T09:24:45Z</time>
      </trkpt>
      <trkpt lat="47.531963" lon="1.8071272">
        <ele>123.0</ele>
        <time>2022-02-10T09:24:46Z</time>
      </trkpt>
      <trkpt lat="47.53197" lon="1.8071177">
        <ele>123.0</ele>
        <time>2022-02-10T09:24:47Z</time>
      </trkpt>
      <trkpt lat="47.53198" lon="1.8071091">
        <ele>123.0</ele>
        <time>2022-02-10T09:24:48Z</time>
      </trkpt>
      <trkpt lat="47.53199" lon="1.8071039">
        <ele>123.0</ele>
        <time>2022-02-10T09:24:49Z</time>
      </trkpt>
      <trkpt lat="47.532" lon="1.8070998">
        <ele>123.0</ele>
        <time>2022-02-10T09:24:50Z</time>
      </trkpt>
      <trkpt lat="47.53201" lon="1.8070992">
        <ele>123.0</ele>
        <time>2022-02-10T09:24:51Z</time>
      </trkpt>
      <trkpt lat="47.532013" lon="1.807095">
        <ele>123.0</ele>
        <time>2022-02-10T09:24:52Z</time>
      </trkpt>
      <trkpt lat="47.532024" lon="1.8070897">
        <ele>123.0</ele>
        <time>2022-02-10T09:24:53Z</time>
      </trkpt>
      <trkpt lat="47.53203" lon="1.8070856">
        <ele>123.0</ele>
        <time>2022-02-10T09:24:54Z</time>
      </trkpt>
      <trkpt lat="47.532036" lon="1.807081">
        <ele>123.0</ele>
        <time>2022-02-10T09:24:55Z</time>
      </trkpt>
      <trkpt lat="47.532047" lon="1.8070743">
        <ele>123.0</ele>
        <time>2022-02-10T09:24:56Z</time>
      </trkpt>
      <trkpt lat="47.532063" lon="1.8070635">
        <ele>123.0</ele>
        <time>2022-02-10T09:24:57Z</time>
      </trkpt>
      <trkpt lat="47.53207" lon="1.8070575">
        <ele>123.0</ele>
        <time>2022-02-10T09:24:58Z</time>
      </trkpt>
      <trkpt lat="47.532085" lon="1.8070563">
        <ele>123.0</ele>
        <time>2022-02-10T09:24:59Z</time>
      </trkpt>
      <trkpt lat="47.532097" lon="1.8070562">
        <ele>123.0</ele>
        <time>2022-02-10T09:25:00Z</time>
      </trkpt>
      <trkpt lat="47.532112" lon="1.8070447">
        <ele>123.0</ele>
        <time>2022-02-10T09:25:01Z</time>
      </trkpt>
      <trkpt lat="47.532127" lon="1.8070334">
        <ele>123.0</ele>
        <time>2022-02-10T09:25:02Z</time>
      </trkpt>
      <trkpt lat="47.532143" lon="1.8070214">
        <ele>123.0</ele>
        <time>2022-02-10T09:25:03Z</time>
      </trkpt>
      <trkpt lat="47.532154" lon="1.8070089">
        <ele>124.0</ele>
        <time>2022-02-10T09:25:04Z</time>
      </trkpt>
      <trkpt lat="47.532166" lon="1.8070009">
        <ele>124.0</ele>
        <time>2022-02-10T09:25:05Z</time>
      </trkpt>
      <trkpt lat="47.532177" lon="1.8069897">
        <ele>125.0</ele>
        <time>2022-02-10T09:25:06Z</time>
      </trkpt>
      <trkpt lat="47.53219" lon="1.8069797">
        <ele>125.0</ele>
        <time>2022-02-10T09:25:07Z</time>
      </trkpt>
      <trkpt lat="47.532196" lon="1.8069679">
        <ele>125.0</ele>
        <time>2022-02-10T09:25:08Z</time>
      </trkpt>
      <trkpt lat="47.53221" lon="1.8069493">
        <ele>125.0</ele>
        <time>2022-02-10T09:25:09Z</time>
      </trkpt>
      <trkpt lat="47.532223" lon="1.8069394">
        <ele>125.0</ele>
        <time>2022-02-10T09:25:10Z</time>
      </trkpt>
      <trkpt lat="47.53223" lon="1.8069298">
        <ele>125.0</ele>
        <time>2022-02-10T09:25:11Z</time>
      </trkpt>
      <trkpt lat="47.53224" lon="1.8069192">
        <ele>126.0</ele>
        <time>2022-02-10T09:25:12Z</time>
      </trkpt>
      <trkpt lat="47.532253" lon="1.8069148">
        <ele>126.0</ele>
        <time>2022-02-10T09:25:13Z</time>
      </trkpt>
      <trkpt lat="47.532257" lon="1.8069072">
        <ele>126.0</ele>
        <time>2022-02-10T09:25:14Z</time>
      </trkpt>
      <trkpt lat="47.532265" lon="1.8068991">
        <ele>126.0</ele>
        <time>2022-02-10T09:25:15Z</time>
      </trkpt>
      <trkpt lat="47.532272" lon="1.80689">
        <ele>126.0</ele>
        <time>2022-02-10T09:25:16Z</time>
      </trkpt>
      <trkpt lat="47.532284" lon="1.8068814">
        <ele>127.0</ele>
        <time>2022-02-10T09:25:17Z</time>
      </trkpt>
      <trkpt lat="47.53229" lon="1.8068726">
        <ele>127.0</ele>
        <time>2022-02-10T09:25:18Z</time>
      </trkpt>
      <trkpt lat="47.532303" lon="1.8068615">
        <ele>127.0</ele>
        <time>2022-02-10T09:25:19Z</time>
      </trkpt>
      <trkpt lat="47.532314" lon="1.8068526">
        <ele>127.0</ele>
        <time>2022-02-10T09:25:20Z</time>
      </trkpt>
      <trkpt lat="47.532322" lon="1.8068444">
        <ele>127.0</ele>
        <time>2022-02-10T09:25:21Z</time>
      </trkpt>
      <trkpt lat="47.532333" lon="1.8068349">
        <ele>127.0</ele>
        <time>2022-02-10T09:25:22Z</time>
      </trkpt>
      <trkpt lat="47.532345" lon="1.8068236">
        <ele>127.0</ele>
        <time>2022-02-10T09:25:23Z</time>
      </trkpt>
      <trkpt lat="47.532352" lon="1.8068091">
        <ele>127.0</ele>
        <time>2022-02-10T09:25:24Z</time>
      </trkpt>
      <trkpt lat="47.532364" lon="1.8067986">
        <ele>127.0</ele>
        <time>2022-02-10T09:25:25Z</time>
      </trkpt>
      <trkpt lat="47.53237" lon="1.8067892">
        <ele>127.0</ele>
        <time>2022-02-10T09:25:26Z</time>
      </trkpt>
      <trkpt lat="47.53238" lon="1.8067759">
        <ele>127.0</ele>
        <time>2022-02-10T09:25:27Z</time>
      </trkpt>
      <trkpt lat="47.532387" lon="1.806768">
        <ele>127.0</ele>
        <time>2022-02-10T09:25:28Z</time>
      </trkpt>
      <trkpt lat="47.532394" lon="1.8067594">
        <ele>126.0</ele>
        <time>2022-02-10T09:25:29Z</time>
      </trkpt>
      <trkpt lat="47.532402" lon="1.8067471">
        <ele>126.0</ele>
        <time>2022-02-10T09:25:30Z</time>
      </trkpt>
      <trkpt lat="47.53241" lon="1.8067404">
        <ele>126.0</ele>
        <time>2022-02-10T09:25:31Z</time>
      </trkpt>
      <trkpt lat="47.532413" lon="1.8067287">
        <ele>126.0</ele>
        <time>2022-02-10T09:25:32Z</time>
      </trkpt>
      <trkpt lat="47.532425" lon="1.8067176">
        <ele>125.0</ele>
        <time>2022-02-10T09:25:33Z</time>
      </trkpt>
      <trkpt lat="47.532436" lon="1.8067045">
        <ele>126.0</ele>
        <time>2022-02-10T09:25:34Z</time>
      </trkpt>
      <trkpt lat="47.532444" lon="1.8066945">
        <ele>125.0</ele>
        <time>2022-02-10T09:25:35Z</time>
      </trkpt>
      <trkpt lat="47.532455" lon="1.8066839">
        <ele>125.0</ele>
        <time>2022-02-10T09:25:36Z</time>
      </trkpt>
      <trkpt lat="47.532463" lon="1.8066709">
        <ele>125.0</ele>
        <time>2022-02-10T09:25:37Z</time>
      </trkpt>
      <trkpt lat="47.532475" lon="1.8066624">
        <ele>125.0</ele>
        <time>2022-02-10T09:25:38Z</time>
      </trkpt>
      <trkpt lat="47.532482" lon="1.8066522">
        <ele>125.0</ele>
        <time>2022-02-10T09:25:39Z</time>
      </trkpt>
      <trkpt lat="47.532494" lon="1.8066432">
        <ele>126.0</ele>
        <time>2022-02-10T09:25:40Z</time>
      </trkpt>
      <trkpt lat="47.532497" lon="1.8066413">
        <ele>126.0</ele>
        <time>2022-02-10T09:25:41Z</time>
      </trkpt>
      <trkpt lat="47.532505" lon="1.8066382">
        <ele>126.0</ele>
        <time>2022-02-10T09:25:42Z</time>
      </trkpt>
      <trkpt lat="47.532505" lon="1.8066334">
        <ele>126.0</ele>
        <time>2022-02-10T09:25:43Z</time>
      </trkpt>
      <trkpt lat="47.532505" lon="1.8066258">
        <ele>127.0</ele>
        <time>2022-02-10T09:25:44Z</time>
      </trkpt>
      <trkpt lat="47.53251" lon="1.8066096">
        <ele>127.0</ele>
        <time>2022-02-10T09:25:45Z</time>
      </trkpt>
      <trkpt lat="47.532516" lon="1.8065922">
        <ele>127.0</ele>
        <time>2022-02-10T09:25:46Z</time>
      </trkpt>
      <trkpt lat="47.53252" lon="1.8065846">
        <ele>126.0</ele>
        <time>2022-02-10T09:25:47Z</time>
      </trkpt>
      <trkpt lat="47.532528" lon="1.8065755">
        <ele>126.0</ele>
        <time>2022-02-10T09:25:48Z</time>
      </trkpt>
      <trkpt lat="47.532536" lon="1.8065617">
        <ele>125.0</ele>
        <time>2022-02-10T09:25:49Z</time>
      </trkpt>
      <trkpt lat="47.53254" lon="1.8065553">
        <ele>125.0</ele>
        <time>2022-02-10T09:25:50Z</time>
      </trkpt>
      <trkpt lat="47.532547" lon="1.8065485">
        <ele>125.0</ele>
        <time>2022-02-10T09:25:51Z</time>
      </trkpt>
      <trkpt lat="47.532555" lon="1.8065398">
        <ele>125.0</ele>
        <time>2022-02-10T09:25:52Z</time>
      </trkpt>
      <trkpt lat="47.532562" lon="1.8065257">
        <ele>125.0</ele>
        <time>2022-02-10T09:25:53Z</time>
      </trkpt>
      <trkpt lat="47.53257" lon="1.8065081">
        <ele>125.0</ele>
        <time>2022-02-10T09:25:54Z</time>
      </trkpt>
      <trkpt lat="47.532578" lon="1.8064935">
        <ele>125.0</ele>
        <time>2022-02-10T09:25:55Z</time>
      </trkpt>
      <trkpt lat="47.532578" lon="1.8064871">
        <ele>124.0</ele>
        <time>2022-02-10T09:25:56Z</time>
      </trkpt>
      <trkpt lat="47.532578" lon="1.8064871">
        <ele>124.0</ele>
        <time>2022-02-10T09:25:57Z</time>
      </trkpt>
      <trkpt lat="47.532578" lon="1.8064628">
        <ele>123.0</ele>
        <time>2022-02-10T09:25:58Z</time>
      </trkpt>
      <trkpt lat="47.53257" lon="1.806451">
        <ele>123.0</ele>
        <time>2022-02-10T09:25:59Z</time>
      </trkpt>
      <trkpt lat="47.532562" lon="1.8064417">
        <ele>123.0</ele>
        <time>2022-02-10T09:26:00Z</time>
      </trkpt>
      <trkpt lat="47.532562" lon="1.8064276">
        <ele>123.0</ele>
        <time>2022-02-10T09:26:01Z</time>
      </trkpt>
      <trkpt lat="47.532562" lon="1.8064083">
        <ele>122.0</ele>
        <time>2022-02-10T09:26:02Z</time>
      </trkpt>
      <trkpt lat="47.53256" lon="1.8063934">
        <ele>122.0</ele>
        <time>2022-02-10T09:26:03Z</time>
      </trkpt>
      <trkpt lat="47.532555" lon="1.8063816">
        <ele>122.0</ele>
        <time>2022-02-10T09:26:04Z</time>
      </trkpt>
      <trkpt lat="47.53255" lon="1.8063699">
        <ele>122.0</ele>
        <time>2022-02-10T09:26:05Z</time>
      </trkpt>
      <trkpt lat="47.532547" lon="1.8063551">
        <ele>122.0</ele>
        <time>2022-02-10T09:26:06Z</time>
      </trkpt>
      <trkpt lat="47.53254" lon="1.8063396">
        <ele>121.0</ele>
        <time>2022-02-10T09:26:07Z</time>
      </trkpt>
      <trkpt lat="47.532536" lon="1.8063254">
        <ele>121.0</ele>
        <time>2022-02-10T09:26:08Z</time>
      </trkpt>
      <trkpt lat="47.53253" lon="1.8063189">
        <ele>121.0</ele>
        <time>2022-02-10T09:26:09Z</time>
      </trkpt>
      <trkpt lat="47.532528" lon="1.8063006">
        <ele>121.0</ele>
        <time>2022-02-10T09:26:10Z</time>
      </trkpt>
      <trkpt lat="47.532524" lon="1.8062869">
        <ele>121.0</ele>
        <time>2022-02-10T09:26:11Z</time>
      </trkpt>
      <trkpt lat="47.53252" lon="1.8062762">
        <ele>121.0</ele>
        <time>2022-02-10T09:26:12Z</time>
      </trkpt>
      <trkpt lat="47.53252" lon="1.8062626">
        <ele>121.0</ele>
        <time>2022-02-10T09:26:13Z</time>
      </trkpt>
      <trkpt lat="47.532516" lon="1.8062476">
        <ele>120.0</ele>
        <time>2022-02-10T09:26:14Z</time>
      </trkpt>
      <trkpt lat="47.532513" lon="1.8062329">
        <ele>120.0</ele>
        <time>2022-02-10T09:26:15Z</time>
      </trkpt>
      <trkpt lat="47.53251" lon="1.8062139">
        <ele>120.0</ele>
        <time>2022-02-10T09:26:16Z</time>
      </trkpt>
      <trkpt lat="47.5325" lon="1.8061957">
        <ele>120.0</ele>
        <time>2022-02-10T09:26:17Z</time>
      </trkpt>
      <trkpt lat="47.532497" lon="1.8061802">
        <ele>120.0</ele>
        <time>2022-02-10T09:26:18Z</time>
      </trkpt>
      <trkpt lat="47.53249" lon="1.8061701">
        <ele>120.0</ele>
        <time>2022-02-10T09:26:19Z</time>
      </trkpt>
      <trkpt lat="47.532486" lon="1.8061529">
        <ele>120.0</ele>
        <time>2022-02-10T09:26:20Z</time>
      </trkpt>
      <trkpt lat="47.53248" lon="1.8061322">
        <ele>120.0</ele>
        <time>2022-02-10T09:26:21Z</time>
      </trkpt>
      <trkpt lat="47.532475" lon="1.8061099">
        <ele>119.0</ele>
        <time>2022-02-10T09:26:22Z</time>
      </trkpt>
      <trkpt lat="47.53247" lon="1.8060874">
        <ele>120.0</ele>
        <time>2022-02-10T09:26:23Z</time>
      </trkpt>
      <trkpt lat="47.532463" lon="1.8060693">
        <ele>120.0</ele>
        <time>2022-02-10T09:26:24Z</time>
      </trkpt>
      <trkpt lat="47.53246" lon="1.8060527">
        <ele>120.0</ele>
        <time>2022-02-10T09:26:25Z</time>
      </trkpt>
      <trkpt lat="47.532455" lon="1.8060381">
        <ele>120.0</ele>
        <time>2022-02-10T09:26:26Z</time>
      </trkpt>
      <trkpt lat="47.532455" lon="1.8060225">
        <ele>120.0</ele>
        <time>2022-02-10T09:26:27Z</time>
      </trkpt>
      <trkpt lat="47.53245" lon="1.8060076">
        <ele>120.0</ele>
        <time>2022-02-10T09:26:28Z</time>
      </trkpt>
      <trkpt lat="47.532444" lon="1.8059899">
        <ele>120.0</ele>
        <time>2022-02-10T09:26:29Z</time>
      </trkpt>
      <trkpt lat="47.53244" lon="1.8059756">
        <ele>120.0</ele>
        <time>2022-02-10T09:26:30Z</time>
      </trkpt>
      <trkpt lat="47.532436" lon="1.8059592">
        <ele>120.0</ele>
        <time>2022-02-10T09:26:31Z</time>
      </trkpt>
      <trkpt lat="47.532433" lon="1.8059443">
        <ele>120.0</ele>
        <time>2022-02-10T09:26:32Z</time>
      </trkpt>
      <trkpt lat="47.532425" lon="1.8059269">
        <ele>120.0</ele>
        <time>2022-02-10T09:26:33Z</time>
      </trkpt>
      <trkpt lat="47.53242" lon="1.8059101">
        <ele>120.0</ele>
        <time>2022-02-10T09:26:34Z</time>
      </trkpt>
      <trkpt lat="47.532413" lon="1.8058894">
        <ele>120.0</ele>
        <time>2022-02-10T09:26:35Z</time>
      </trkpt>
      <trkpt lat="47.532406" lon="1.805876">
        <ele>120.0</ele>
        <time>2022-02-10T09:26:36Z</time>
      </trkpt>
      <trkpt lat="47.532402" lon="1.8058587">
        <ele>120.0</ele>
        <time>2022-02-10T09:26:37Z</time>
      </trkpt>
      <trkpt lat="47.5324" lon="1.8058437">
        <ele>120.0</ele>
        <time>2022-02-10T09:26:38Z</time>
      </trkpt>
      <trkpt lat="47.532394" lon="1.8058304">
        <ele>120.0</ele>
        <time>2022-02-10T09:26:39Z</time>
      </trkpt>
      <trkpt lat="47.53239" lon="1.8058163">
        <ele>120.0</ele>
        <time>2022-02-10T09:26:40Z</time>
      </trkpt>
      <trkpt lat="47.532387" lon="1.8058043">
        <ele>119.0</ele>
        <time>2022-02-10T09:26:41Z</time>
      </trkpt>
      <trkpt lat="47.53238" lon="1.8057886">
        <ele>119.0</ele>
        <time>2022-02-10T09:26:42Z</time>
      </trkpt>
      <trkpt lat="47.532375" lon="1.805772">
        <ele>119.0</ele>
        <time>2022-02-10T09:26:43Z</time>
      </trkpt>
      <trkpt lat="47.532368" lon="1.8057592">
        <ele>119.0</ele>
        <time>2022-02-10T09:26:44Z</time>
      </trkpt>
      <trkpt lat="47.532364" lon="1.8057408">
        <ele>119.0</ele>
        <time>2022-02-10T09:26:45Z</time>
      </trkpt>
      <trkpt lat="47.532356" lon="1.8057196">
        <ele>120.0</ele>
        <time>2022-02-10T09:26:46Z</time>
      </trkpt>
      <trkpt lat="47.532356" lon="1.8057047">
        <ele>120.0</ele>
        <time>2022-02-10T09:26:47Z</time>
      </trkpt>
      <trkpt lat="47.53235" lon="1.8056931">
        <ele>119.0</ele>
        <time>2022-02-10T09:26:48Z</time>
      </trkpt>
      <trkpt lat="47.532345" lon="1.8056784">
        <ele>119.0</ele>
        <time>2022-02-10T09:26:49Z</time>
      </trkpt>
      <trkpt lat="47.532345" lon="1.8056663">
        <ele>119.0</ele>
        <time>2022-02-10T09:26:50Z</time>
      </trkpt>
      <trkpt lat="47.532337" lon="1.805655">
        <ele>119.0</ele>
        <time>2022-02-10T09:26:51Z</time>
      </trkpt>
      <trkpt lat="47.532333" lon="1.8056409">
        <ele>120.0</ele>
        <time>2022-02-10T09:26:52Z</time>
      </trkpt>
      <trkpt lat="47.53233" lon="1.8056253">
        <ele>119.0</ele>
        <time>2022-02-10T09:26:53Z</time>
      </trkpt>
      <trkpt lat="47.532326" lon="1.8056092">
        <ele>119.0</ele>
        <time>2022-02-10T09:26:54Z</time>
      </trkpt>
      <trkpt lat="47.532322" lon="1.8055953">
        <ele>120.0</ele>
        <time>2022-02-10T09:26:55Z</time>
      </trkpt>
      <trkpt lat="47.532314" lon="1.8055791">
        <ele>120.0</ele>
        <time>2022-02-10T09:26:56Z</time>
      </trkpt>
      <trkpt lat="47.532307" lon="1.8055636">
        <ele>120.0</ele>
        <time>2022-02-10T09:26:57Z</time>
      </trkpt>
      <trkpt lat="47.5323" lon="1.8055495">
        <ele>119.0</ele>
        <time>2022-02-10T09:26:58Z</time>
      </trkpt>
      <trkpt lat="47.53229" lon="1.8055371">
        <ele>119.0</ele>
        <time>2022-02-10T09:26:59Z</time>
      </trkpt>
      <trkpt lat="47.532288" lon="1.8055148">
        <ele>119.0</ele>
        <time>2022-02-10T09:27:00Z</time>
      </trkpt>
      <trkpt lat="47.53228" lon="1.8055019">
        <ele>119.0</ele>
        <time>2022-02-10T09:27:01Z</time>
      </trkpt>
      <trkpt lat="47.532276" lon="1.8054848">
        <ele>119.0</ele>
        <time>2022-02-10T09:27:02Z</time>
      </trkpt>
      <trkpt lat="47.532276" lon="1.805466">
        <ele>119.0</ele>
        <time>2022-02-10T09:27:03Z</time>
      </trkpt>
      <trkpt lat="47.532272" lon="1.8054448">
        <ele>119.0</ele>
        <time>2022-02-10T09:27:04Z</time>
      </trkpt>
      <trkpt lat="47.532272" lon="1.8054247">
        <ele>119.0</ele>
        <time>2022-02-10T09:27:05Z</time>
      </trkpt>
      <trkpt lat="47.53227" lon="1.8054061">
        <ele>119.0</ele>
        <time>2022-02-10T09:27:06Z</time>
      </trkpt>
      <trkpt lat="47.53227" lon="1.8053873">
        <ele>120.0</ele>
        <time>2022-02-10T09:27:07Z</time>
      </trkpt>
      <trkpt lat="47.53227" lon="1.8053713">
        <ele>120.0</ele>
        <time>2022-02-10T09:27:08Z</time>
      </trkpt>
      <trkpt lat="47.53227" lon="1.8053597">
        <ele>121.0</ele>
        <time>2022-02-10T09:27:09Z</time>
      </trkpt>
      <trkpt lat="47.53227" lon="1.8053493">
        <ele>121.0</ele>
        <time>2022-02-10T09:27:10Z</time>
      </trkpt>
      <trkpt lat="47.53227" lon="1.8053392">
        <ele>120.0</ele>
        <time>2022-02-10T09:27:11Z</time>
      </trkpt>
      <trkpt lat="47.53227" lon="1.8053392">
        <ele>120.0</ele>
        <time>2022-02-10T09:27:12Z</time>
      </trkpt>
      <trkpt lat="47.53227" lon="1.8053392">
        <ele>120.0</ele>
        <time>2022-02-10T09:27:13Z</time>
      </trkpt>
      <trkpt lat="47.532265" lon="1.8053086">
        <ele>120.0</ele>
        <time>2022-02-10T09:27:14Z</time>
      </trkpt>
      <trkpt lat="47.532265" lon="1.8052944">
        <ele>120.0</ele>
        <time>2022-02-10T09:27:15Z</time>
      </trkpt>
      <trkpt lat="47.532265" lon="1.8052846">
        <ele>120.0</ele>
        <time>2022-02-10T09:27:16Z</time>
      </trkpt>
      <trkpt lat="47.532265" lon="1.8052745">
        <ele>121.0</ele>
        <time>2022-02-10T09:27:17Z</time>
      </trkpt>
      <trkpt lat="47.532265" lon="1.8052745">
        <ele>121.0</ele>
        <time>2022-02-10T09:27:18Z</time>
      </trkpt>
      <trkpt lat="47.532265" lon="1.8052745">
        <ele>121.0</ele>
        <time>2022-02-10T09:27:19Z</time>
      </trkpt>
      <trkpt lat="47.532265" lon="1.8052449">
        <ele>121.0</ele>
        <time>2022-02-10T09:27:20Z</time>
      </trkpt>
      <trkpt lat="47.532265" lon="1.8052304">
        <ele>121.0</ele>
        <time>2022-02-10T09:27:21Z</time>
      </trkpt>
      <trkpt lat="47.53227" lon="1.8052219">
        <ele>121.0</ele>
        <time>2022-02-10T09:27:22Z</time>
      </trkpt>
      <trkpt lat="47.532272" lon="1.8052146">
        <ele>122.0</ele>
        <time>2022-02-10T09:27:23Z</time>
      </trkpt>
      <trkpt lat="47.532272" lon="1.8052146">
        <ele>122.0</ele>
        <time>2022-02-10T09:27:24Z</time>
      </trkpt>
      <trkpt lat="47.532272" lon="1.8052146">
        <ele>122.0</ele>
        <time>2022-02-10T09:27:25Z</time>
      </trkpt>
      <trkpt lat="47.53228" lon="1.8052003">
        <ele>123.0</ele>
        <time>2022-02-10T09:27:26Z</time>
      </trkpt>
      <trkpt lat="47.532284" lon="1.8051955">
        <ele>124.0</ele>
        <time>2022-02-10T09:27:27Z</time>
      </trkpt>
      <trkpt lat="47.53229" lon="1.8051885">
        <ele>124.0</ele>
        <time>2022-02-10T09:27:28Z</time>
      </trkpt>
      <trkpt lat="47.532295" lon="1.8051841">
        <ele>125.0</ele>
        <time>2022-02-10T09:27:29Z</time>
      </trkpt>
      <trkpt lat="47.532295" lon="1.8051841">
        <ele>125.0</ele>
        <time>2022-02-10T09:27:30Z</time>
      </trkpt>
      <trkpt lat="47.53231" lon="1.8051683">
        <ele>125.0</ele>
        <time>2022-02-10T09:27:31Z</time>
      </trkpt>
      <trkpt lat="47.53232" lon="1.8051594">
        <ele>126.0</ele>
        <time>2022-02-10T09:27:32Z</time>
      </trkpt>
      <trkpt lat="47.532326" lon="1.8051504">
        <ele>126.0</ele>
        <time>2022-02-10T09:27:33Z</time>
      </trkpt>
      <trkpt lat="47.53233" lon="1.8051398">
        <ele>126.0</ele>
        <time>2022-02-10T09:27:34Z</time>
      </trkpt>
      <trkpt lat="47.532337" lon="1.8051302">
        <ele>126.0</ele>
        <time>2022-02-10T09:27:35Z</time>
      </trkpt>
      <trkpt lat="47.53235" lon="1.8051193">
        <ele>126.0</ele>
        <time>2022-02-10T09:27:36Z</time>
      </trkpt>
      <trkpt lat="47.532356" lon="1.8051062">
        <ele>126.0</ele>
        <time>2022-02-10T09:27:37Z</time>
      </trkpt>
      <trkpt lat="47.532368" lon="1.8050983">
        <ele>127.0</ele>
        <time>2022-02-10T09:27:38Z</time>
      </trkpt>
      <trkpt lat="47.53238" lon="1.8050878">
        <ele>127.0</ele>
        <time>2022-02-10T09:27:39Z</time>
      </trkpt>
      <trkpt lat="47.532387" lon="1.8050779">
        <ele>128.0</ele>
        <time>2022-02-10T09:27:40Z</time>
      </trkpt>
      <trkpt lat="47.5324" lon="1.8050698">
        <ele>128.0</ele>
        <time>2022-02-10T09:27:41Z</time>
      </trkpt>
      <trkpt lat="47.532406" lon="1.8050632">
        <ele>129.0</ele>
        <time>2022-02-10T09:27:42Z</time>
      </trkpt>
      <trkpt lat="47.532417" lon="1.805054">
        <ele>128.0</ele>
        <time>2022-02-10T09:27:43Z</time>
      </trkpt>
      <trkpt lat="47.532425" lon="1.8050492">
        <ele>128.0</ele>
        <time>2022-02-10T09:27:44Z</time>
      </trkpt>
      <trkpt lat="47.53243" lon="1.8050445">
        <ele>129.0</ele>
        <time>2022-02-10T09:27:45Z</time>
      </trkpt>
      <trkpt lat="47.532436" lon="1.8050339">
        <ele>128.0</ele>
        <time>2022-02-10T09:27:46Z</time>
      </trkpt>
      <trkpt lat="47.532436" lon="1.8050339">
        <ele>128.0</ele>
        <time>2022-02-10T09:27:47Z</time>
      </trkpt>
      <trkpt lat="47.532436" lon="1.8050339">
        <ele>128.0</ele>
        <time>2022-02-10T09:27:48Z</time>
      </trkpt>
      <trkpt lat="47.53246" lon="1.8050246">
        <ele>128.0</ele>
        <time>2022-02-10T09:27:49Z</time>
      </trkpt>
      <trkpt lat="47.532467" lon="1.8050251">
        <ele>128.0</ele>
        <time>2022-02-10T09:27:50Z</time>
      </trkpt>
      <trkpt lat="47.532475" lon="1.8050275">
        <ele>129.0</ele>
        <time>2022-02-10T09:27:51Z</time>
      </trkpt>
      <trkpt lat="47.53248" lon="1.8050334">
        <ele>128.0</ele>
        <time>2022-02-10T09:27:52Z</time>
      </trkpt>
      <trkpt lat="47.532486" lon="1.8050407">
        <ele>129.0</ele>
        <time>2022-02-10T09:27:53Z</time>
      </trkpt>
      <trkpt lat="47.532494" lon="1.805049">
        <ele>129.0</ele>
        <time>2022-02-10T09:27:54Z</time>
      </trkpt>
      <trkpt lat="47.532497" lon="1.8050486">
        <ele>129.0</ele>
        <time>2022-02-10T09:27:55Z</time>
      </trkpt>
      <trkpt lat="47.532494" lon="1.8050492">
        <ele>129.0</ele>
        <time>2022-02-10T09:27:56Z</time>
      </trkpt>
      <trkpt lat="47.532494" lon="1.8050491">
        <ele>129.0</ele>
        <time>2022-02-10T09:27:57Z</time>
      </trkpt>
      <trkpt lat="47.532494" lon="1.8050442">
        <ele>129.0</ele>
        <time>2022-02-10T09:27:58Z</time>
      </trkpt>
      <trkpt lat="47.532494" lon="1.8050442">
        <ele>129.0</ele>
        <time>2022-02-10T09:27:58Z</time>
      </trkpt>
    </trkseg>
    <trkseg>
      <trkpt lat="47.532494" lon="1.8050442">
        <ele>129.0</ele>
        <time>2022-02-10T09:27:58Z</time>
      </trkpt>
      <trkpt lat="47.532516" lon="1.8051101">
        <ele>131.0</ele>
        <time>2022-02-10T09:28:17Z</time>
      </trkpt>
      <trkpt lat="47.532516" lon="1.8051201">
        <ele>131.0</ele>
        <time>2022-02-10T09:28:18Z</time>
      </trkpt>
      <trkpt lat="47.532524" lon="1.8051218">
        <ele>131.0</ele>
        <time>2022-02-10T09:28:19Z</time>
      </trkpt>
      <trkpt lat="47.53252" lon="1.8051307">
        <ele>132.0</ele>
        <time>2022-02-10T09:28:20Z</time>
      </trkpt>
      <trkpt lat="47.53252" lon="1.8051416">
        <ele>132.0</ele>
        <time>2022-02-10T09:28:21Z</time>
      </trkpt>
      <trkpt lat="47.53253" lon="1.8051416">
        <ele>132.0</ele>
        <time>2022-02-10T09:28:22Z</time>
      </trkpt>
      <trkpt lat="47.53254" lon="1.8051432">
        <ele>132.0</ele>
        <time>2022-02-10T09:28:23Z</time>
      </trkpt>
      <trkpt lat="47.532543" lon="1.8051497">
        <ele>132.0</ele>
        <time>2022-02-10T09:28:24Z</time>
      </trkpt>
      <trkpt lat="47.532547" lon="1.805159">
        <ele>132.0</ele>
        <time>2022-02-10T09:28:25Z</time>
      </trkpt>
      <trkpt lat="47.532555" lon="1.8051698">
        <ele>131.0</ele>
        <time>2022-02-10T09:28:26Z</time>
      </trkpt>
      <trkpt lat="47.53256" lon="1.8051794">
        <ele>131.0</ele>
        <time>2022-02-10T09:28:27Z</time>
      </trkpt>
      <trkpt lat="47.532566" lon="1.8051957">
        <ele>132.0</ele>
        <time>2022-02-10T09:28:28Z</time>
      </trkpt>
      <trkpt lat="47.532574" lon="1.8052043">
        <ele>132.0</ele>
        <time>2022-02-10T09:28:29Z</time>
      </trkpt>
      <trkpt lat="47.53258" lon="1.8052163">
        <ele>132.0</ele>
        <time>2022-02-10T09:28:30Z</time>
      </trkpt>
      <trkpt lat="47.532585" lon="1.8052254">
        <ele>131.0</ele>
        <time>2022-02-10T09:28:31Z</time>
      </trkpt>
      <trkpt lat="47.53259" lon="1.8052301">
        <ele>132.0</ele>
        <time>2022-02-10T09:28:32Z</time>
      </trkpt>
      <trkpt lat="47.532597" lon="1.8052377">
        <ele>132.0</ele>
        <time>2022-02-10T09:28:33Z</time>
      </trkpt>
      <trkpt lat="47.532597" lon="1.8052456">
        <ele>131.0</ele>
        <time>2022-02-10T09:28:34Z</time>
      </trkpt>
      <trkpt lat="47.5326" lon="1.8052554">
        <ele>131.0</ele>
        <time>2022-02-10T09:28:35Z</time>
      </trkpt>
      <trkpt lat="47.532604" lon="1.8052701">
        <ele>132.0</ele>
        <time>2022-02-10T09:28:36Z</time>
      </trkpt>
      <trkpt lat="47.532608" lon="1.8052785">
        <ele>132.0</ele>
        <time>2022-02-10T09:28:37Z</time>
      </trkpt>
      <trkpt lat="47.532608" lon="1.8052914">
        <ele>132.0</ele>
        <time>2022-02-10T09:28:38Z</time>
      </trkpt>
      <trkpt lat="47.53261" lon="1.8053036">
        <ele>132.0</ele>
        <time>2022-02-10T09:28:39Z</time>
      </trkpt>
      <trkpt lat="47.532616" lon="1.8053192">
        <ele>132.0</ele>
        <time>2022-02-10T09:28:40Z</time>
      </trkpt>
      <trkpt lat="47.532623" lon="1.8053331">
        <ele>132.0</ele>
        <time>2022-02-10T09:28:41Z</time>
      </trkpt>
      <trkpt lat="47.532627" lon="1.8053457">
        <ele>132.0</ele>
        <time>2022-02-10T09:28:42Z</time>
      </trkpt>
      <trkpt lat="47.53263" lon="1.8053544">
        <ele>132.0</ele>
        <time>2022-02-10T09:28:43Z</time>
      </trkpt>
      <trkpt lat="47.53263" lon="1.8053665">
        <ele>132.0</ele>
        <time>2022-02-10T09:28:44Z</time>
      </trkpt>
      <trkpt lat="47.532635" lon="1.8053752">
        <ele>132.0</ele>
        <time>2022-02-10T09:28:45Z</time>
      </trkpt>
      <trkpt lat="47.53264" lon="1.805389">
        <ele>132.0</ele>
        <time>2022-02-10T09:28:46Z</time>
      </trkpt>
      <trkpt lat="47.532642" lon="1.8054013">
        <ele>132.0</ele>
        <time>2022-02-10T09:28:47Z</time>
      </trkpt>
      <trkpt lat="47.532646" lon="1.8054156">
        <ele>132.0</ele>
        <time>2022-02-10T09:28:48Z</time>
      </trkpt>
      <trkpt lat="47.53265" lon="1.8054286">
        <ele>132.0</ele>
        <time>2022-02-10T09:28:49Z</time>
      </trkpt>
      <trkpt lat="47.532654" lon="1.8054429">
        <ele>132.0</ele>
        <time>2022-02-10T09:28:50Z</time>
      </trkpt>
      <trkpt lat="47.532658" lon="1.8054571">
        <ele>132.0</ele>
        <time>2022-02-10T09:28:51Z</time>
      </trkpt>
      <trkpt lat="47.532665" lon="1.8054683">
        <ele>132.0</ele>
        <time>2022-02-10T09:28:52Z</time>
      </trkpt>
      <trkpt lat="47.532673" lon="1.805478">
        <ele>132.0</ele>
        <time>2022-02-10T09:28:53Z</time>
      </trkpt>
      <trkpt lat="47.532677" lon="1.8054849">
        <ele>132.0</ele>
        <time>2022-02-10T09:28:54Z</time>
      </trkpt>
      <trkpt lat="47.53268" lon="1.8054912">
        <ele>132.0</ele>
        <time>2022-02-10T09:28:55Z</time>
      </trkpt>
      <trkpt lat="47.53268" lon="1.8055012">
        <ele>132.0</ele>
        <time>2022-02-10T09:28:56Z</time>
      </trkpt>
      <trkpt lat="47.53268" lon="1.8055139">
        <ele>132.0</ele>
        <time>2022-02-10T09:28:57Z</time>
      </trkpt>
      <trkpt lat="47.532684" lon="1.8055265">
        <ele>132.0</ele>
        <time>2022-02-10T09:28:58Z</time>
      </trkpt>
      <trkpt lat="47.53269" lon="1.8055384">
        <ele>132.0</ele>
        <time>2022-02-10T09:28:59Z</time>
      </trkpt>
      <trkpt lat="47.532692" lon="1.8055503">
        <ele>132.0</ele>
        <time>2022-02-10T09:29:00Z</time>
      </trkpt>
      <trkpt lat="47.532696" lon="1.8055658">
        <ele>132.0</ele>
        <time>2022-02-10T09:29:01Z</time>
      </trkpt>
      <trkpt lat="47.5327" lon="1.8055797">
        <ele>131.0</ele>
        <time>2022-02-10T09:29:02Z</time>
      </trkpt>
      <trkpt lat="47.532703" lon="1.8055933">
        <ele>131.0</ele>
        <time>2022-02-10T09:29:03Z</time>
      </trkpt>
      <trkpt lat="47.532707" lon="1.8056071">
        <ele>132.0</ele>
        <time>2022-02-10T09:29:04Z</time>
      </trkpt>
      <trkpt lat="47.53272" lon="1.8056146">
        <ele>131.0</ele>
        <time>2022-02-10T09:29:05Z</time>
      </trkpt>
      <trkpt lat="47.532722" lon="1.8056277">
        <ele>131.0</ele>
        <time>2022-02-10T09:29:06Z</time>
      </trkpt>
      <trkpt lat="47.532726" lon="1.8056397">
        <ele>131.0</ele>
        <time>2022-02-10T09:29:07Z</time>
      </trkpt>
      <trkpt lat="47.53273" lon="1.8056501">
        <ele>130.0</ele>
        <time>2022-02-10T09:29:08Z</time>
      </trkpt>
      <trkpt lat="47.532738" lon="1.8056651">
        <ele>130.0</ele>
        <time>2022-02-10T09:29:09Z</time>
      </trkpt>
      <trkpt lat="47.53274" lon="1.8056788">
        <ele>130.0</ele>
        <time>2022-02-10T09:29:10Z</time>
      </trkpt>
      <trkpt lat="47.53275" lon="1.8056937">
        <ele>130.0</ele>
        <time>2022-02-10T09:29:11Z</time>
      </trkpt>
      <trkpt lat="47.532753" lon="1.8057021">
        <ele>130.0</ele>
        <time>2022-02-10T09:29:12Z</time>
      </trkpt>
      <trkpt lat="47.532757" lon="1.8057135">
        <ele>129.0</ele>
        <time>2022-02-10T09:29:13Z</time>
      </trkpt>
      <trkpt lat="47.53276" lon="1.805722">
        <ele>129.0</ele>
        <time>2022-02-10T09:29:14Z</time>
      </trkpt>
      <trkpt lat="47.532764" lon="1.8057319">
        <ele>129.0</ele>
        <time>2022-02-10T09:29:15Z</time>
      </trkpt>
      <trkpt lat="47.532764" lon="1.8057479">
        <ele>129.0</ele>
        <time>2022-02-10T09:29:16Z</time>
      </trkpt>
      <trkpt lat="47.53277" lon="1.8057649">
        <ele>129.0</ele>
        <time>2022-02-10T09:29:17Z</time>
      </trkpt>
      <trkpt lat="47.532772" lon="1.8057784">
        <ele>129.0</ele>
        <time>2022-02-10T09:29:18Z</time>
      </trkpt>
      <trkpt lat="47.532784" lon="1.8057901">
        <ele>129.0</ele>
        <time>2022-02-10T09:29:19Z</time>
      </trkpt>
      <trkpt lat="47.532787" lon="1.8058035">
        <ele>129.0</ele>
        <time>2022-02-10T09:29:20Z</time>
      </trkpt>
      <trkpt lat="47.532795" lon="1.8058177">
        <ele>129.0</ele>
        <time>2022-02-10T09:29:21Z</time>
      </trkpt>
      <trkpt lat="47.532803" lon="1.8058289">
        <ele>129.0</ele>
        <time>2022-02-10T09:29:22Z</time>
      </trkpt>
      <trkpt lat="47.532806" lon="1.8058407">
        <ele>130.0</ele>
        <time>2022-02-10T09:29:23Z</time>
      </trkpt>
      <trkpt lat="47.532814" lon="1.8058547">
        <ele>129.0</ele>
        <time>2022-02-10T09:29:24Z</time>
      </trkpt>
      <trkpt lat="47.532818" lon="1.8058658">
        <ele>129.0</ele>
        <time>2022-02-10T09:29:25Z</time>
      </trkpt>
      <trkpt lat="47.532825" lon="1.8058766">
        <ele>129.0</ele>
        <time>2022-02-10T09:29:26Z</time>
      </trkpt>
      <trkpt lat="47.53283" lon="1.8058883">
        <ele>130.0</ele>
        <time>2022-02-10T09:29:27Z</time>
      </trkpt>
      <trkpt lat="47.532837" lon="1.8058974">
        <ele>130.0</ele>
        <time>2022-02-10T09:29:28Z</time>
      </trkpt>
      <trkpt lat="47.53284" lon="1.8059074">
        <ele>130.0</ele>
        <time>2022-02-10T09:29:29Z</time>
      </trkpt>
      <trkpt lat="47.532845" lon="1.8059174">
        <ele>130.0</ele>
        <time>2022-02-10T09:29:30Z</time>
      </trkpt>
      <trkpt lat="47.53285" lon="1.8059273">
        <ele>130.0</ele>
        <time>2022-02-10T09:29:31Z</time>
      </trkpt>
      <trkpt lat="47.532856" lon="1.8059386">
        <ele>130.0</ele>
        <time>2022-02-10T09:29:32Z</time>
      </trkpt>
      <trkpt lat="47.532864" lon="1.8059473">
        <ele>130.0</ele>
        <time>2022-02-10T09:29:33Z</time>
      </trkpt>
      <trkpt lat="47.532867" lon="1.8059585">
        <ele>130.0</ele>
        <time>2022-02-10T09:29:34Z</time>
      </trkpt>
      <trkpt lat="47.53287" lon="1.8059667">
        <ele>130.0</ele>
        <time>2022-02-10T09:29:35Z</time>
      </trkpt>
      <trkpt lat="47.53288" lon="1.8059772">
        <ele>130.0</ele>
        <time>2022-02-10T09:29:36Z</time>
      </trkpt>
      <trkpt lat="47.532883" lon="1.8059876">
        <ele>130.0</ele>
        <time>2022-02-10T09:29:37Z</time>
      </trkpt>
      <trkpt lat="47.532883" lon="1.8059938">
        <ele>130.0</ele>
        <time>2022-02-10T09:29:38Z</time>
      </trkpt>
      <trkpt lat="47.53289" lon="1.8060026">
        <ele>130.0</ele>
        <time>2022-02-10T09:29:39Z</time>
      </trkpt>
      <trkpt lat="47.532898" lon="1.8060113">
        <ele>130.0</ele>
        <time>2022-02-10T09:29:40Z</time>
      </trkpt>
      <trkpt lat="47.532906" lon="1.8060231">
        <ele>130.0</ele>
        <time>2022-02-10T09:29:41Z</time>
      </trkpt>
      <trkpt lat="47.53291" lon="1.8060308">
        <ele>129.0</ele>
        <time>2022-02-10T09:29:42Z</time>
      </trkpt>
      <trkpt lat="47.532913" lon="1.8060346">
        <ele>129.0</ele>
        <time>2022-02-10T09:29:43Z</time>
      </trkpt>
      <trkpt lat="47.53292" lon="1.8060414">
        <ele>129.0</ele>
        <time>2022-02-10T09:29:44Z</time>
      </trkpt>
      <trkpt lat="47.53293" lon="1.8060509">
        <ele>129.0</ele>
        <time>2022-02-10T09:29:45Z</time>
      </trkpt>
      <trkpt lat="47.532936" lon="1.8060602">
        <ele>129.0</ele>
        <time>2022-02-10T09:29:46Z</time>
      </trkpt>
      <trkpt lat="47.532944" lon="1.8060665">
        <ele>129.0</ele>
        <time>2022-02-10T09:29:47Z</time>
      </trkpt>
      <trkpt lat="47.532944" lon="1.8060706">
        <ele>129.0</ele>
        <time>2022-02-10T09:29:48Z</time>
      </trkpt>
      <trkpt lat="47.532955" lon="1.8060759">
        <ele>129.0</ele>
        <time>2022-02-10T09:29:49Z</time>
      </trkpt>
      <trkpt lat="47.532967" lon="1.8060783">
        <ele>129.0</ele>
        <time>2022-02-10T09:29:50Z</time>
      </trkpt>
      <trkpt lat="47.532974" lon="1.8060793">
        <ele>129.0</ele>
        <time>2022-02-10T09:29:51Z</time>
      </trkpt>
      <trkpt lat="47.532978" lon="1.8060852">
        <ele>129.0</ele>
        <time>2022-02-10T09:29:52Z</time>
      </trkpt>
      <trkpt lat="47.532986" lon="1.8060921">
        <ele>129.0</ele>
        <time>2022-02-10T09:29:53Z</time>
      </trkpt>
      <trkpt lat="47.53299" lon="1.8060932">
        <ele>129.0</ele>
        <time>2022-02-10T09:29:54Z</time>
      </trkpt>
      <trkpt lat="47.532997" lon="1.8060974">
        <ele>129.0</ele>
        <time>2022-02-10T09:29:55Z</time>
      </trkpt>
      <trkpt lat="47.53301" lon="1.806106">
        <ele>129.0</ele>
        <time>2022-02-10T09:29:56Z</time>
      </trkpt>
      <trkpt lat="47.53302" lon="1.8061146">
        <ele>129.0</ele>
        <time>2022-02-10T09:29:57Z</time>
      </trkpt>
      <trkpt lat="47.533024" lon="1.8061242">
        <ele>129.0</ele>
        <time>2022-02-10T09:29:58Z</time>
      </trkpt>
      <trkpt lat="47.533028" lon="1.8061283">
        <ele>129.0</ele>
        <time>2022-02-10T09:29:59Z</time>
      </trkpt>
      <trkpt lat="47.53303" lon="1.8061347">
        <ele>128.0</ele>
        <time>2022-02-10T09:30:00Z</time>
      </trkpt>
      <trkpt lat="47.53303" lon="1.8061347">
        <ele>128.0</ele>
        <time>2022-02-10T09:30:01Z</time>
      </trkpt>
      <trkpt lat="47.53303" lon="1.8061347">
        <ele>128.0</ele>
        <time>2022-02-10T09:30:02Z</time>
      </trkpt>
      <trkpt lat="47.533043" lon="1.8061465">
        <ele>128.0</ele>
        <time>2022-02-10T09:30:03Z</time>
      </trkpt>
      <trkpt lat="47.533054" lon="1.8061485">
        <ele>128.0</ele>
        <time>2022-02-10T09:30:04Z</time>
      </trkpt>
      <trkpt lat="47.53306" lon="1.8061537">
        <ele>127.0</ele>
        <time>2022-02-10T09:30:05Z</time>
      </trkpt>
      <trkpt lat="47.53307" lon="1.8061543">
        <ele>127.0</ele>
        <time>2022-02-10T09:30:06Z</time>
      </trkpt>
      <trkpt lat="47.533077" lon="1.8061618">
        <ele>127.0</ele>
        <time>2022-02-10T09:30:07Z</time>
      </trkpt>
      <trkpt lat="47.53308" lon="1.8061641">
        <ele>127.0</ele>
        <time>2022-02-10T09:30:08Z</time>
      </trkpt>
      <trkpt lat="47.53309" lon="1.8061614">
        <ele>126.0</ele>
        <time>2022-02-10T09:30:09Z</time>
      </trkpt>
      <trkpt lat="47.533096" lon="1.8061638">
        <ele>126.0</ele>
        <time>2022-02-10T09:30:10Z</time>
      </trkpt>
      <trkpt lat="47.533108" lon="1.8061666">
        <ele>126.0</ele>
        <time>2022-02-10T09:30:11Z</time>
      </trkpt>
      <trkpt lat="47.533115" lon="1.8061724">
        <ele>126.0</ele>
        <time>2022-02-10T09:30:12Z</time>
      </trkpt>
      <trkpt lat="47.53313" lon="1.806172">
        <ele>125.0</ele>
        <time>2022-02-10T09:30:13Z</time>
      </trkpt>
      <trkpt lat="47.533142" lon="1.8061706">
        <ele>125.0</ele>
        <time>2022-02-10T09:30:14Z</time>
      </trkpt>
      <trkpt lat="47.53315" lon="1.8061746">
        <ele>125.0</ele>
        <time>2022-02-10T09:30:15Z</time>
      </trkpt>
      <trkpt lat="47.53316" lon="1.8061792">
        <ele>125.0</ele>
        <time>2022-02-10T09:30:16Z</time>
      </trkpt>
      <trkpt lat="47.53317" lon="1.8061788">
        <ele>125.0</ele>
        <time>2022-02-10T09:30:17Z</time>
      </trkpt>
      <trkpt lat="47.533176" lon="1.8061821">
        <ele>124.0</ele>
        <time>2022-02-10T09:30:18Z</time>
      </trkpt>
      <trkpt lat="47.533184" lon="1.8061825">
        <ele>124.0</ele>
        <time>2022-02-10T09:30:19Z</time>
      </trkpt>
      <trkpt lat="47.533195" lon="1.8061854">
        <ele>125.0</ele>
        <time>2022-02-10T09:30:20Z</time>
      </trkpt>
      <trkpt lat="47.533203" lon="1.8061856">
        <ele>125.0</ele>
        <time>2022-02-10T09:30:21Z</time>
      </trkpt>
      <trkpt lat="47.53321" lon="1.8061856">
        <ele>125.0</ele>
        <time>2022-02-10T09:30:22Z</time>
      </trkpt>
      <trkpt lat="47.53322" lon="1.8061862">
        <ele>125.0</ele>
        <time>2022-02-10T09:30:23Z</time>
      </trkpt>
      <trkpt lat="47.533226" lon="1.8061848">
        <ele>125.0</ele>
        <time>2022-02-10T09:30:24Z</time>
      </trkpt>
      <trkpt lat="47.533234" lon="1.8061833">
        <ele>125.0</ele>
        <time>2022-02-10T09:30:25Z</time>
      </trkpt>
      <trkpt lat="47.53324" lon="1.8061805">
        <ele>125.0</ele>
        <time>2022-02-10T09:30:26Z</time>
      </trkpt>
      <trkpt lat="47.533253" lon="1.8061796">
        <ele>125.0</ele>
        <time>2022-02-10T09:30:27Z</time>
      </trkpt>
      <trkpt lat="47.533264" lon="1.8061796">
        <ele>125.0</ele>
        <time>2022-02-10T09:30:28Z</time>
      </trkpt>
      <trkpt lat="47.533268" lon="1.8061808">
        <ele>125.0</ele>
        <time>2022-02-10T09:30:29Z</time>
      </trkpt>
      <trkpt lat="47.533276" lon="1.8061848">
        <ele>125.0</ele>
        <time>2022-02-10T09:30:30Z</time>
      </trkpt>
      <trkpt lat="47.533283" lon="1.8061837">
        <ele>125.0</ele>
        <time>2022-02-10T09:30:31Z</time>
      </trkpt>
      <trkpt lat="47.53329" lon="1.8061872">
        <ele>126.0</ele>
        <time>2022-02-10T09:30:32Z</time>
      </trkpt>
      <trkpt lat="47.533295" lon="1.8061879">
        <ele>126.0</ele>
        <time>2022-02-10T09:30:33Z</time>
      </trkpt>
      <trkpt lat="47.533295" lon="1.8061879">
        <ele>126.0</ele>
        <time>2022-02-10T09:30:34Z</time>
      </trkpt>
      <trkpt lat="47.533302" lon="1.8061868">
        <ele>126.0</ele>
        <time>2022-02-10T09:30:35Z</time>
      </trkpt>
      <trkpt lat="47.533314" lon="1.8061848">
        <ele>127.0</ele>
        <time>2022-02-10T09:30:36Z</time>
      </trkpt>
      <trkpt lat="47.53333" lon="1.8061796">
        <ele>127.0</ele>
        <time>2022-02-10T09:30:37Z</time>
      </trkpt>
      <trkpt lat="47.533344" lon="1.8061762">
        <ele>127.0</ele>
        <time>2022-02-10T09:30:38Z</time>
      </trkpt>
      <trkpt lat="47.53334" lon="1.8061758">
        <ele>127.0</ele>
        <time>2022-02-10T09:30:39Z</time>
      </trkpt>
      <trkpt lat="47.533344" lon="1.8061767">
        <ele>127.0</ele>
        <time>2022-02-10T09:30:40Z</time>
      </trkpt>
      <trkpt lat="47.533356" lon="1.8061808">
        <ele>127.0</ele>
        <time>2022-02-10T09:30:41Z</time>
      </trkpt>
      <trkpt lat="47.533367" lon="1.8061816">
        <ele>127.0</ele>
        <time>2022-02-10T09:30:42Z</time>
      </trkpt>
      <trkpt lat="47.533386" lon="1.8061761">
        <ele>127.0</ele>
        <time>2022-02-10T09:30:43Z</time>
      </trkpt>
      <trkpt lat="47.533405" lon="1.8061701">
        <ele>127.0</ele>
        <time>2022-02-10T09:30:44Z</time>
      </trkpt>
      <trkpt lat="47.533417" lon="1.8061717">
        <ele>126.0</ele>
        <time>2022-02-10T09:30:45Z</time>
      </trkpt>
      <trkpt lat="47.53343" lon="1.8061779">
        <ele>126.0</ele>
        <time>2022-02-10T09:30:46Z</time>
      </trkpt>
      <trkpt lat="47.533432" lon="1.8061788">
        <ele>127.0</ele>
        <time>2022-02-10T09:30:47Z</time>
      </trkpt>
      <trkpt lat="47.53344" lon="1.8061801">
        <ele>127.0</ele>
        <time>2022-02-10T09:30:48Z</time>
      </trkpt>
      <trkpt lat="47.533443" lon="1.8061807">
        <ele>127.0</ele>
        <time>2022-02-10T09:30:49Z</time>
      </trkpt>
      <trkpt lat="47.533447" lon="1.8061807">
        <ele>127.0</ele>
        <time>2022-02-10T09:30:50Z</time>
      </trkpt>
      <trkpt lat="47.533447" lon="1.8061807">
        <ele>127.0</ele>
        <time>2022-02-10T09:30:51Z</time>
      </trkpt>
      <trkpt lat="47.533447" lon="1.8061807">
        <ele>127.0</ele>
        <time>2022-02-10T09:30:52Z</time>
      </trkpt>
      <trkpt lat="47.533478" lon="1.8061825">
        <ele>127.0</ele>
        <time>2022-02-10T09:30:53Z</time>
      </trkpt>
      <trkpt lat="47.5335" lon="1.8061814">
        <ele>127.0</ele>
        <time>2022-02-10T09:30:54Z</time>
      </trkpt>
      <trkpt lat="47.533516" lon="1.806183">
        <ele>128.0</ele>
        <time>2022-02-10T09:30:55Z</time>
      </trkpt>
      <trkpt lat="47.533527" lon="1.8061799">
        <ele>128.0</ele>
        <time>2022-02-10T09:30:56Z</time>
      </trkpt>
      <trkpt lat="47.533535" lon="1.8061805">
        <ele>128.0</ele>
        <time>2022-02-10T09:30:57Z</time>
      </trkpt>
      <trkpt lat="47.533543" lon="1.8061763">
        <ele>128.0</ele>
        <time>2022-02-10T09:30:58Z</time>
      </trkpt>
      <trkpt lat="47.53355" lon="1.8061703">
        <ele>128.0</ele>
        <time>2022-02-10T09:30:59Z</time>
      </trkpt>
      <trkpt lat="47.533554" lon="1.8061631">
        <ele>128.0</ele>
        <time>2022-02-10T09:31:00Z</time>
      </trkpt>
      <trkpt lat="47.53356" lon="1.8061537">
        <ele>128.0</ele>
        <time>2022-02-10T09:31:01Z</time>
      </trkpt>
      <trkpt lat="47.533573" lon="1.8061477">
        <ele>127.0</ele>
        <time>2022-02-10T09:31:02Z</time>
      </trkpt>
      <trkpt lat="47.53358" lon="1.8061427">
        <ele>127.0</ele>
        <time>2022-02-10T09:31:03Z</time>
      </trkpt>
      <trkpt lat="47.53359" lon="1.8061376">
        <ele>127.0</ele>
        <time>2022-02-10T09:31:04Z</time>
      </trkpt>
      <trkpt lat="47.533592" lon="1.8061314">
        <ele>127.0</ele>
        <time>2022-02-10T09:31:05Z</time>
      </trkpt>
      <trkpt lat="47.533604" lon="1.8061167">
        <ele>127.0</ele>
        <time>2022-02-10T09:31:06Z</time>
      </trkpt>
      <trkpt lat="47.53361" lon="1.8061029">
        <ele>127.0</ele>
        <time>2022-02-10T09:31:07Z</time>
      </trkpt>
      <trkpt lat="47.53362" lon="1.8060945">
        <ele>127.0</ele>
        <time>2022-02-10T09:31:08Z</time>
      </trkpt>
      <trkpt lat="47.53363" lon="1.8060913">
        <ele>127.0</ele>
        <time>2022-02-10T09:31:09Z</time>
      </trkpt>
      <trkpt lat="47.53364" lon="1.8060914">
        <ele>126.0</ele>
        <time>2022-02-10T09:31:10Z</time>
      </trkpt>
      <trkpt lat="47.53365" lon="1.806097">
        <ele>126.0</ele>
        <time>2022-02-10T09:31:11Z</time>
      </trkpt>
      <trkpt lat="47.53366" lon="1.8060844">
        <ele>126.0</ele>
        <time>2022-02-10T09:31:12Z</time>
      </trkpt>
      <trkpt lat="47.533672" lon="1.8060781">
        <ele>126.0</ele>
        <time>2022-02-10T09:31:13Z</time>
      </trkpt>
      <trkpt lat="47.533688" lon="1.8060782">
        <ele>125.0</ele>
        <time>2022-02-10T09:31:14Z</time>
      </trkpt>
      <trkpt lat="47.5337" lon="1.8060746">
        <ele>125.0</ele>
        <time>2022-02-10T09:31:15Z</time>
      </trkpt>
      <trkpt lat="47.53371" lon="1.806065">
        <ele>125.0</ele>
        <time>2022-02-10T09:31:16Z</time>
      </trkpt>
      <trkpt lat="47.533726" lon="1.8060592">
        <ele>124.0</ele>
        <time>2022-02-10T09:31:17Z</time>
      </trkpt>
      <trkpt lat="47.533737" lon="1.806056">
        <ele>124.0</ele>
        <time>2022-02-10T09:31:18Z</time>
      </trkpt>
      <trkpt lat="47.533745" lon="1.8060673">
        <ele>124.0</ele>
        <time>2022-02-10T09:31:19Z</time>
      </trkpt>
      <trkpt lat="47.533756" lon="1.8060656">
        <ele>123.0</ele>
        <time>2022-02-10T09:31:20Z</time>
      </trkpt>
      <trkpt lat="47.53376" lon="1.8060542">
        <ele>122.0</ele>
        <time>2022-02-10T09:31:21Z</time>
      </trkpt>
      <trkpt lat="47.533768" lon="1.80606">
        <ele>122.0</ele>
        <time>2022-02-10T09:31:22Z</time>
      </trkpt>
      <trkpt lat="47.53378" lon="1.8060815">
        <ele>123.0</ele>
        <time>2022-02-10T09:31:23Z</time>
      </trkpt>
      <trkpt lat="47.53379" lon="1.806101">
        <ele>123.0</ele>
        <time>2022-02-10T09:31:24Z</time>
      </trkpt>
      <trkpt lat="47.5338" lon="1.8061154">
        <ele>124.0</ele>
        <time>2022-02-10T09:31:25Z</time>
      </trkpt>
      <trkpt lat="47.533806" lon="1.8061357">
        <ele>124.0</ele>
        <time>2022-02-10T09:31:26Z</time>
      </trkpt>
      <trkpt lat="47.533817" lon="1.8061501">
        <ele>125.0</ele>
        <time>2022-02-10T09:31:27Z</time>
      </trkpt>
      <trkpt lat="47.53382" lon="1.8061666">
        <ele>125.0</ele>
        <time>2022-02-10T09:31:28Z</time>
      </trkpt>
      <trkpt lat="47.533825" lon="1.8061786">
        <ele>125.0</ele>
        <time>2022-02-10T09:31:29Z</time>
      </trkpt>
      <trkpt lat="47.53383" lon="1.806194">
        <ele>125.0</ele>
        <time>2022-02-10T09:31:30Z</time>
      </trkpt>
      <trkpt lat="47.53383" lon="1.8062022">
        <ele>126.0</ele>
        <time>2022-02-10T09:31:31Z</time>
      </trkpt>
      <trkpt lat="47.533825" lon="1.8062085">
        <ele>126.0</ele>
        <time>2022-02-10T09:31:32Z</time>
      </trkpt>
      <trkpt lat="47.533825" lon="1.8062162">
        <ele>126.0</ele>
        <time>2022-02-10T09:31:33Z</time>
      </trkpt>
      <trkpt lat="47.533825" lon="1.8062162">
        <ele>126.0</ele>
        <time>2022-02-10T09:31:34Z</time>
      </trkpt>
      <trkpt lat="47.533825" lon="1.8062162">
        <ele>126.0</ele>
        <time>2022-02-10T09:31:35Z</time>
      </trkpt>
      <trkpt lat="47.533825" lon="1.8062162">
        <ele>126.0</ele>
        <time>2022-02-10T09:31:35Z</time>
      </trkpt>
    </trkseg>
    <trkseg>
      <trkpt lat="47.533825" lon="1.8062162">
        <ele>126.0</ele>
        <time>2022-02-10T09:31:35Z</time>
      </trkpt>
      <trkpt lat="47.533886" lon="1.8062742">
        <ele>131.0</ele>
        <time>2022-02-10T09:32:03Z</time>
      </trkpt>
      <trkpt lat="47.533897" lon="1.8062748">
        <ele>131.0</ele>
        <time>2022-02-10T09:32:04Z</time>
      </trkpt>
      <trkpt lat="47.5339" lon="1.8062797">
        <ele>131.0</ele>
        <time>2022-02-10T09:32:05Z</time>
      </trkpt>
      <trkpt lat="47.5339" lon="1.8062797">
        <ele>131.0</ele>
        <time>2022-02-10T09:32:06Z</time>
      </trkpt>
      <trkpt lat="47.533916" lon="1.8062946">
        <ele>130.0</ele>
        <time>2022-02-10T09:32:07Z</time>
      </trkpt>
      <trkpt lat="47.53392" lon="1.8063024">
        <ele>130.0</ele>
        <time>2022-02-10T09:32:08Z</time>
      </trkpt>
      <trkpt lat="47.533924" lon="1.8063017">
        <ele>130.0</ele>
        <time>2022-02-10T09:32:09Z</time>
      </trkpt>
      <trkpt lat="47.533936" lon="1.806301">
        <ele>131.0</ele>
        <time>2022-02-10T09:32:10Z</time>
      </trkpt>
      <trkpt lat="47.533947" lon="1.8063036">
        <ele>130.0</ele>
        <time>2022-02-10T09:32:11Z</time>
      </trkpt>
      <trkpt lat="47.533966" lon="1.8063018">
        <ele>130.0</ele>
        <time>2022-02-10T09:32:12Z</time>
      </trkpt>
      <trkpt lat="47.533978" lon="1.8063014">
        <ele>130.0</ele>
        <time>2022-02-10T09:32:13Z</time>
      </trkpt>
      <trkpt lat="47.53399" lon="1.8062997">
        <ele>129.0</ele>
        <time>2022-02-10T09:32:14Z</time>
      </trkpt>
      <trkpt lat="47.534004" lon="1.8062978">
        <ele>129.0</ele>
        <time>2022-02-10T09:32:15Z</time>
      </trkpt>
      <trkpt lat="47.53402" lon="1.8062999">
        <ele>129.0</ele>
        <time>2022-02-10T09:32:16Z</time>
      </trkpt>
      <trkpt lat="47.53403" lon="1.8063012">
        <ele>130.0</ele>
        <time>2022-02-10T09:32:17Z</time>
      </trkpt>
      <trkpt lat="47.534042" lon="1.8063017">
        <ele>130.0</ele>
        <time>2022-02-10T09:32:18Z</time>
      </trkpt>
      <trkpt lat="47.53405" lon="1.806304">
        <ele>130.0</ele>
        <time>2022-02-10T09:32:19Z</time>
      </trkpt>
      <trkpt lat="47.534058" lon="1.8063016">
        <ele>130.0</ele>
        <time>2022-02-10T09:32:20Z</time>
      </trkpt>
      <trkpt lat="47.53407" lon="1.8063027">
        <ele>131.0</ele>
        <time>2022-02-10T09:32:21Z</time>
      </trkpt>
      <trkpt lat="47.534077" lon="1.8063067">
        <ele>131.0</ele>
        <time>2022-02-10T09:32:22Z</time>
      </trkpt>
      <trkpt lat="47.534077" lon="1.8063067">
        <ele>131.0</ele>
        <time>2022-02-10T09:32:23Z</time>
      </trkpt>
      <trkpt lat="47.534077" lon="1.8063067">
        <ele>131.0</ele>
        <time>2022-02-10T09:32:24Z</time>
      </trkpt>
      <trkpt lat="47.5341" lon="1.8063133">
        <ele>132.0</ele>
        <time>2022-02-10T09:32:25Z</time>
      </trkpt>
      <trkpt lat="47.534115" lon="1.8063194">
        <ele>133.0</ele>
        <time>2022-02-10T09:32:26Z</time>
      </trkpt>
      <trkpt lat="47.53413" lon="1.8063265">
        <ele>133.0</ele>
        <time>2022-02-10T09:32:27Z</time>
      </trkpt>
      <trkpt lat="47.53414" lon="1.8063344">
        <ele>134.0</ele>
        <time>2022-02-10T09:32:28Z</time>
      </trkpt>
      <trkpt lat="47.534153" lon="1.8063378">
        <ele>134.0</ele>
        <time>2022-02-10T09:32:29Z</time>
      </trkpt>
      <trkpt lat="47.534164" lon="1.8063385">
        <ele>134.0</ele>
        <time>2022-02-10T09:32:30Z</time>
      </trkpt>
      <trkpt lat="47.534176" lon="1.8063366">
        <ele>135.0</ele>
        <time>2022-02-10T09:32:31Z</time>
      </trkpt>
      <trkpt lat="47.53419" lon="1.8063369">
        <ele>135.0</ele>
        <time>2022-02-10T09:32:32Z</time>
      </trkpt>
      <trkpt lat="47.534203" lon="1.8063335">
        <ele>135.0</ele>
        <time>2022-02-10T09:32:33Z</time>
      </trkpt>
      <trkpt lat="47.53421" lon="1.8063301">
        <ele>136.0</ele>
        <time>2022-02-10T09:32:34Z</time>
      </trkpt>
      <trkpt lat="47.53422" lon="1.8063219">
        <ele>136.0</ele>
        <time>2022-02-10T09:32:35Z</time>
      </trkpt>
      <trkpt lat="47.53423" lon="1.8063133">
        <ele>136.0</ele>
        <time>2022-02-10T09:32:36Z</time>
      </trkpt>
      <trkpt lat="47.53424" lon="1.8063035">
        <ele>136.0</ele>
        <time>2022-02-10T09:32:37Z</time>
      </trkpt>
      <trkpt lat="47.53425" lon="1.8062938">
        <ele>136.0</ele>
        <time>2022-02-10T09:32:38Z</time>
      </trkpt>
      <trkpt lat="47.53426" lon="1.8062909">
        <ele>136.0</ele>
        <time>2022-02-10T09:32:39Z</time>
      </trkpt>
      <trkpt lat="47.53427" lon="1.8062822">
        <ele>136.0</ele>
        <time>2022-02-10T09:32:40Z</time>
      </trkpt>
      <trkpt lat="47.534283" lon="1.806276">
        <ele>136.0</ele>
        <time>2022-02-10T09:32:41Z</time>
      </trkpt>
      <trkpt lat="47.534294" lon="1.8062698">
        <ele>136.0</ele>
        <time>2022-02-10T09:32:42Z</time>
      </trkpt>
      <trkpt lat="47.534306" lon="1.8062742">
        <ele>135.0</ele>
        <time>2022-02-10T09:32:43Z</time>
      </trkpt>
      <trkpt lat="47.534317" lon="1.8062768">
        <ele>136.0</ele>
        <time>2022-02-10T09:32:44Z</time>
      </trkpt>
      <trkpt lat="47.534325" lon="1.8062811">
        <ele>135.0</ele>
        <time>2022-02-10T09:32:45Z</time>
      </trkpt>
      <trkpt lat="47.534336" lon="1.8062824">
        <ele>135.0</ele>
        <time>2022-02-10T09:32:46Z</time>
      </trkpt>
      <trkpt lat="47.534344" lon="1.806284">
        <ele>135.0</ele>
        <time>2022-02-10T09:32:47Z</time>
      </trkpt>
      <trkpt lat="47.534355" lon="1.8063053">
        <ele>134.0</ele>
        <time>2022-02-10T09:32:48Z</time>
      </trkpt>
      <trkpt lat="47.53436" lon="1.8063166">
        <ele>135.0</ele>
        <time>2022-02-10T09:32:49Z</time>
      </trkpt>
      <trkpt lat="47.534363" lon="1.8063309">
        <ele>134.0</ele>
        <time>2022-02-10T09:32:50Z</time>
      </trkpt>
      <trkpt lat="47.534363" lon="1.8063309">
        <ele>134.0</ele>
        <time>2022-02-10T09:32:51Z</time>
      </trkpt>
      <trkpt lat="47.534367" lon="1.80636">
        <ele>134.0</ele>
        <time>2022-02-10T09:32:52Z</time>
      </trkpt>
      <trkpt lat="47.53437" lon="1.8063798">
        <ele>134.0</ele>
        <time>2022-02-10T09:32:53Z</time>
      </trkpt>
      <trkpt lat="47.53437" lon="1.8063978">
        <ele>133.0</ele>
        <time>2022-02-10T09:32:54Z</time>
      </trkpt>
      <trkpt lat="47.53437" lon="1.8064125">
        <ele>133.0</ele>
        <time>2022-02-10T09:32:55Z</time>
      </trkpt>
      <trkpt lat="47.534374" lon="1.8064256">
        <ele>133.0</ele>
        <time>2022-02-10T09:32:56Z</time>
      </trkpt>
      <trkpt lat="47.534374" lon="1.8064383">
        <ele>133.0</ele>
        <time>2022-02-10T09:32:57Z</time>
      </trkpt>
      <trkpt lat="47.534374" lon="1.8064518">
        <ele>133.0</ele>
        <time>2022-02-10T09:32:58Z</time>
      </trkpt>
      <trkpt lat="47.53438" lon="1.8064654">
        <ele>133.0</ele>
        <time>2022-02-10T09:32:59Z</time>
      </trkpt>
      <trkpt lat="47.534386" lon="1.8064767">
        <ele>133.0</ele>
        <time>2022-02-10T09:33:00Z</time>
      </trkpt>
      <trkpt lat="47.534378" lon="1.8064891">
        <ele>133.0</ele>
        <time>2022-02-10T09:33:01Z</time>
      </trkpt>
      <trkpt lat="47.534378" lon="1.8065021">
        <ele>133.0</ele>
        <time>2022-02-10T09:33:02Z</time>
      </trkpt>
      <trkpt lat="47.53438" lon="1.8065209">
        <ele>133.0</ele>
        <time>2022-02-10T09:33:03Z</time>
      </trkpt>
      <trkpt lat="47.53438" lon="1.8065352">
        <ele>132.0</ele>
        <time>2022-02-10T09:33:04Z</time>
      </trkpt>
      <trkpt lat="47.53438" lon="1.8065518">
        <ele>132.0</ele>
        <time>2022-02-10T09:33:05Z</time>
      </trkpt>
      <trkpt lat="47.53439" lon="1.8065634">
        <ele>132.0</ele>
        <time>2022-02-10T09:33:06Z</time>
      </trkpt>
      <trkpt lat="47.534397" lon="1.8065696">
        <ele>133.0</ele>
        <time>2022-02-10T09:33:07Z</time>
      </trkpt>
      <trkpt lat="47.534397" lon="1.8065842">
        <ele>133.0</ele>
        <time>2022-02-10T09:33:08Z</time>
      </trkpt>
      <trkpt lat="47.5344" lon="1.8066071">
        <ele>133.0</ele>
        <time>2022-02-10T09:33:09Z</time>
      </trkpt>
      <trkpt lat="47.534405" lon="1.8066297">
        <ele>133.0</ele>
        <time>2022-02-10T09:33:10Z</time>
      </trkpt>
      <trkpt lat="47.53441" lon="1.8066523">
        <ele>133.0</ele>
        <time>2022-02-10T09:33:11Z</time>
      </trkpt>
      <trkpt lat="47.534412" lon="1.8066717">
        <ele>133.0</ele>
        <time>2022-02-10T09:33:12Z</time>
      </trkpt>
      <trkpt lat="47.534416" lon="1.8066901">
        <ele>133.0</ele>
        <time>2022-02-10T09:33:13Z</time>
      </trkpt>
      <trkpt lat="47.534416" lon="1.8067043">
        <ele>134.0</ele>
        <time>2022-02-10T09:33:14Z</time>
      </trkpt>
      <trkpt lat="47.53442" lon="1.8067228">
        <ele>133.0</ele>
        <time>2022-02-10T09:33:15Z</time>
      </trkpt>
      <trkpt lat="47.534424" lon="1.8067437">
        <ele>133.0</ele>
        <time>2022-02-10T09:33:16Z</time>
      </trkpt>
      <trkpt lat="47.534428" lon="1.8067642">
        <ele>134.0</ele>
        <time>2022-02-10T09:33:17Z</time>
      </trkpt>
      <trkpt lat="47.534428" lon="1.8067856">
        <ele>134.0</ele>
        <time>2022-02-10T09:33:18Z</time>
      </trkpt>
      <trkpt lat="47.534428" lon="1.8068053">
        <ele>133.0</ele>
        <time>2022-02-10T09:33:19Z</time>
      </trkpt>
      <trkpt lat="47.53443" lon="1.8068264">
        <ele>133.0</ele>
        <time>2022-02-10T09:33:20Z</time>
      </trkpt>
      <trkpt lat="47.534435" lon="1.8068547">
        <ele>133.0</ele>
        <time>2022-02-10T09:33:21Z</time>
      </trkpt>
      <trkpt lat="47.53444" lon="1.806876">
        <ele>133.0</ele>
        <time>2022-02-10T09:33:22Z</time>
      </trkpt>
      <trkpt lat="47.534435" lon="1.806895">
        <ele>134.0</ele>
        <time>2022-02-10T09:33:23Z</time>
      </trkpt>
      <trkpt lat="47.53444" lon="1.8069144">
        <ele>134.0</ele>
        <time>2022-02-10T09:33:24Z</time>
      </trkpt>
      <trkpt lat="47.53444" lon="1.8069289">
        <ele>134.0</ele>
        <time>2022-02-10T09:33:25Z</time>
      </trkpt>
      <trkpt lat="47.53444" lon="1.8069469">
        <ele>134.0</ele>
        <time>2022-02-10T09:33:26Z</time>
      </trkpt>
      <trkpt lat="47.534435" lon="1.8069651">
        <ele>135.0</ele>
        <time>2022-02-10T09:33:27Z</time>
      </trkpt>
      <trkpt lat="47.53444" lon="1.8069804">
        <ele>135.0</ele>
        <time>2022-02-10T09:33:28Z</time>
      </trkpt>
      <trkpt lat="47.534435" lon="1.8069927">
        <ele>135.0</ele>
        <time>2022-02-10T09:33:29Z</time>
      </trkpt>
      <trkpt lat="47.53444" lon="1.8070047">
        <ele>135.0</ele>
        <time>2022-02-10T09:33:30Z</time>
      </trkpt>
      <trkpt lat="47.534443" lon="1.8070188">
        <ele>135.0</ele>
        <time>2022-02-10T09:33:31Z</time>
      </trkpt>
      <trkpt lat="47.53444" lon="1.8070347">
        <ele>135.0</ele>
        <time>2022-02-10T09:33:32Z</time>
      </trkpt>
      <trkpt lat="47.53444" lon="1.8070543">
        <ele>134.0</ele>
        <time>2022-02-10T09:33:33Z</time>
      </trkpt>
      <trkpt lat="47.534435" lon="1.807071">
        <ele>135.0</ele>
        <time>2022-02-10T09:33:34Z</time>
      </trkpt>
      <trkpt lat="47.534435" lon="1.807092">
        <ele>135.0</ele>
        <time>2022-02-10T09:33:35Z</time>
      </trkpt>
      <trkpt lat="47.534428" lon="1.80711">
        <ele>136.0</ele>
        <time>2022-02-10T09:33:36Z</time>
      </trkpt>
      <trkpt lat="47.53442" lon="1.807127">
        <ele>136.0</ele>
        <time>2022-02-10T09:33:37Z</time>
      </trkpt>
      <trkpt lat="47.534416" lon="1.8071444">
        <ele>136.0</ele>
        <time>2022-02-10T09:33:38Z</time>
      </trkpt>
      <trkpt lat="47.534416" lon="1.807157">
        <ele>136.0</ele>
        <time>2022-02-10T09:33:39Z</time>
      </trkpt>
      <trkpt lat="47.534416" lon="1.8071679">
        <ele>136.0</ele>
        <time>2022-02-10T09:33:40Z</time>
      </trkpt>
      <trkpt lat="47.534412" lon="1.8071812">
        <ele>135.0</ele>
        <time>2022-02-10T09:33:41Z</time>
      </trkpt>
      <trkpt lat="47.53441" lon="1.807195">
        <ele>135.0</ele>
        <time>2022-02-10T09:33:42Z</time>
      </trkpt>
      <trkpt lat="47.534405" lon="1.8072094">
        <ele>135.0</ele>
        <time>2022-02-10T09:33:43Z</time>
      </trkpt>
      <trkpt lat="47.5344" lon="1.8072264">
        <ele>134.0</ele>
        <time>2022-02-10T09:33:44Z</time>
      </trkpt>
      <trkpt lat="47.534397" lon="1.8072432">
        <ele>134.0</ele>
        <time>2022-02-10T09:33:45Z</time>
      </trkpt>
      <trkpt lat="47.53439" lon="1.807261">
        <ele>134.0</ele>
        <time>2022-02-10T09:33:46Z</time>
      </trkpt>
      <trkpt lat="47.53439" lon="1.8072809">
        <ele>134.0</ele>
        <time>2022-02-10T09:33:47Z</time>
      </trkpt>
      <trkpt lat="47.534386" lon="1.8072988">
        <ele>134.0</ele>
        <time>2022-02-10T09:33:48Z</time>
      </trkpt>
      <trkpt lat="47.53438" lon="1.8073187">
        <ele>134.0</ele>
        <time>2022-02-10T09:33:49Z</time>
      </trkpt>
      <trkpt lat="47.534378" lon="1.8073356">
        <ele>134.0</ele>
        <time>2022-02-10T09:33:50Z</time>
      </trkpt>
      <trkpt lat="47.534378" lon="1.8073555">
        <ele>134.0</ele>
        <time>2022-02-10T09:33:51Z</time>
      </trkpt>
      <trkpt lat="47.534378" lon="1.8073773">
        <ele>134.0</ele>
        <time>2022-02-10T09:33:52Z</time>
      </trkpt>
      <trkpt lat="47.534374" lon="1.8073965">
        <ele>134.0</ele>
        <time>2022-02-10T09:33:53Z</time>
      </trkpt>
      <trkpt lat="47.53437" lon="1.8074149">
        <ele>134.0</ele>
        <time>2022-02-10T09:33:54Z</time>
      </trkpt>
      <trkpt lat="47.53437" lon="1.8074332">
        <ele>134.0</ele>
        <time>2022-02-10T09:33:55Z</time>
      </trkpt>
      <trkpt lat="47.534374" lon="1.8074505">
        <ele>134.0</ele>
        <time>2022-02-10T09:33:56Z</time>
      </trkpt>
      <trkpt lat="47.534374" lon="1.8074644">
        <ele>133.0</ele>
        <time>2022-02-10T09:33:57Z</time>
      </trkpt>
      <trkpt lat="47.534374" lon="1.8074841">
        <ele>133.0</ele>
        <time>2022-02-10T09:33:58Z</time>
      </trkpt>
      <trkpt lat="47.53437" lon="1.8075049">
        <ele>133.0</ele>
        <time>2022-02-10T09:33:59Z</time>
      </trkpt>
      <trkpt lat="47.534374" lon="1.8075273">
        <ele>133.0</ele>
        <time>2022-02-10T09:34:00Z</time>
      </trkpt>
      <trkpt lat="47.534378" lon="1.8075501">
        <ele>133.0</ele>
        <time>2022-02-10T09:34:01Z</time>
      </trkpt>
      <trkpt lat="47.534378" lon="1.8075688">
        <ele>133.0</ele>
        <time>2022-02-10T09:34:02Z</time>
      </trkpt>
      <trkpt lat="47.53438" lon="1.8075871">
        <ele>133.0</ele>
        <time>2022-02-10T09:34:03Z</time>
      </trkpt>
      <trkpt lat="47.53438" lon="1.8076056">
        <ele>133.0</ele>
        <time>2022-02-10T09:34:04Z</time>
      </trkpt>
      <trkpt lat="47.53438" lon="1.8076208">
        <ele>133.0</ele>
        <time>2022-02-10T09:34:05Z</time>
      </trkpt>
      <trkpt lat="47.53438" lon="1.8076377">
        <ele>133.0</ele>
        <time>2022-02-10T09:34:06Z</time>
      </trkpt>
      <trkpt lat="47.53438" lon="1.8076556">
        <ele>133.0</ele>
        <time>2022-02-10T09:34:07Z</time>
      </trkpt>
      <trkpt lat="47.534386" lon="1.8076684">
        <ele>133.0</ele>
        <time>2022-02-10T09:34:08Z</time>
      </trkpt>
      <trkpt lat="47.53439" lon="1.8076812">
        <ele>133.0</ele>
        <time>2022-02-10T09:34:09Z</time>
      </trkpt>
      <trkpt lat="47.534393" lon="1.8076984">
        <ele>133.0</ele>
        <time>2022-02-10T09:34:10Z</time>
      </trkpt>
      <trkpt lat="47.534397" lon="1.8077149">
        <ele>133.0</ele>
        <time>2022-02-10T09:34:11Z</time>
      </trkpt>
      <trkpt lat="47.5344" lon="1.80773">
        <ele>133.0</ele>
        <time>2022-02-10T09:34:12Z</time>
      </trkpt>
      <trkpt lat="47.534412" lon="1.8077607">
        <ele>133.0</ele>
        <time>2022-02-10T09:34:13Z</time>
      </trkpt>
      <trkpt lat="47.534412" lon="1.8077607">
        <ele>133.0</ele>
        <time>2022-02-10T09:34:13Z</time>
      </trkpt>
      <trkpt lat="47.534416" lon="1.8077754">
        <ele>133.0</ele>
        <time>2022-02-10T09:34:15Z</time>
      </trkpt>
      <trkpt lat="47.534424" lon="1.8077872">
        <ele>132.0</ele>
        <time>2022-02-10T09:34:16Z</time>
      </trkpt>
      <trkpt lat="47.53443" lon="1.807803">
        <ele>132.0</ele>
        <time>2022-02-10T09:34:17Z</time>
      </trkpt>
      <trkpt lat="47.534435" lon="1.8078145">
        <ele>133.0</ele>
        <time>2022-02-10T09:34:18Z</time>
      </trkpt>
      <trkpt lat="47.53443" lon="1.8078222">
        <ele>133.0</ele>
        <time>2022-02-10T09:34:19Z</time>
      </trkpt>
      <trkpt lat="47.53443" lon="1.8078226">
        <ele>133.0</ele>
        <time>2022-02-10T09:34:20Z</time>
      </trkpt>
      <trkpt lat="47.53443" lon="1.8078226">
        <ele>133.0</ele>
        <time>2022-02-10T09:34:20Z</time>
      </trkpt>
    </trkseg>
    <trkseg>
      <trkpt lat="47.53443" lon="1.8078226">
        <ele>133.0</ele>
        <time>2022-02-10T09:34:20Z</time>
      </trkpt>
      <trkpt lat="47.534473" lon="1.8078793">
        <ele>133.0</ele>
        <time>2022-02-10T09:34:30Z</time>
      </trkpt>
      <trkpt lat="47.53448" lon="1.8078896">
        <ele>134.0</ele>
        <time>2022-02-10T09:34:31Z</time>
      </trkpt>
      <trkpt lat="47.5345" lon="1.8078991">
        <ele>133.0</ele>
        <time>2022-02-10T09:34:32Z</time>
      </trkpt>
      <trkpt lat="47.5345" lon="1.8078991">
        <ele>133.0</ele>
        <time>2022-02-10T09:34:32Z</time>
      </trkpt>
      <trkpt lat="47.534504" lon="1.8079062">
        <ele>134.0</ele>
        <time>2022-02-10T09:34:34Z</time>
      </trkpt>
      <trkpt lat="47.534508" lon="1.8079095">
        <ele>134.0</ele>
        <time>2022-02-10T09:34:35Z</time>
      </trkpt>
      <trkpt lat="47.534515" lon="1.8079116">
        <ele>135.0</ele>
        <time>2022-02-10T09:34:36Z</time>
      </trkpt>
      <trkpt lat="47.534527" lon="1.807921">
        <ele>134.0</ele>
        <time>2022-02-10T09:34:37Z</time>
      </trkpt>
      <trkpt lat="47.53454" lon="1.8079283">
        <ele>134.0</ele>
        <time>2022-02-10T09:34:38Z</time>
      </trkpt>
      <trkpt lat="47.534546" lon="1.8079294">
        <ele>134.0</ele>
        <time>2022-02-10T09:34:39Z</time>
      </trkpt>
      <trkpt lat="47.534557" lon="1.8079282">
        <ele>134.0</ele>
        <time>2022-02-10T09:34:40Z</time>
      </trkpt>
      <trkpt lat="47.53457" lon="1.8079333">
        <ele>134.0</ele>
        <time>2022-02-10T09:34:41Z</time>
      </trkpt>
      <trkpt lat="47.534584" lon="1.8079536">
        <ele>134.0</ele>
        <time>2022-02-10T09:34:42Z</time>
      </trkpt>
      <trkpt lat="47.534584" lon="1.8079536">
        <ele>134.0</ele>
        <time>2022-02-10T09:34:42Z</time>
      </trkpt>
      <trkpt lat="47.534595" lon="1.807966">
        <ele>135.0</ele>
        <time>2022-02-10T09:34:44Z</time>
      </trkpt>
      <trkpt lat="47.534603" lon="1.8079741">
        <ele>135.0</ele>
        <time>2022-02-10T09:34:45Z</time>
      </trkpt>
      <trkpt lat="47.53461" lon="1.8079768">
        <ele>135.0</ele>
        <time>2022-02-10T09:34:46Z</time>
      </trkpt>
      <trkpt lat="47.534622" lon="1.8079832">
        <ele>135.0</ele>
        <time>2022-02-10T09:34:47Z</time>
      </trkpt>
      <trkpt lat="47.534634" lon="1.8079926">
        <ele>136.0</ele>
        <time>2022-02-10T09:34:48Z</time>
      </trkpt>
      <trkpt lat="47.53464" lon="1.8079989">
        <ele>136.0</ele>
        <time>2022-02-10T09:34:49Z</time>
      </trkpt>
      <trkpt lat="47.53464" lon="1.8080055">
        <ele>136.0</ele>
        <time>2022-02-10T09:34:50Z</time>
      </trkpt>
      <trkpt lat="47.53464" lon="1.8080077">
        <ele>137.0</ele>
        <time>2022-02-10T09:34:51Z</time>
      </trkpt>
      <trkpt lat="47.53466" lon="1.808013">
        <ele>137.0</ele>
        <time>2022-02-10T09:34:52Z</time>
      </trkpt>
      <trkpt lat="47.534668" lon="1.8080233">
        <ele>137.0</ele>
        <time>2022-02-10T09:34:53Z</time>
      </trkpt>
      <trkpt lat="47.534668" lon="1.8080233">
        <ele>137.0</ele>
        <time>2022-02-10T09:34:53Z</time>
      </trkpt>
      <trkpt lat="47.534676" lon="1.8080344">
        <ele>137.0</ele>
        <time>2022-02-10T09:34:55Z</time>
      </trkpt>
      <trkpt lat="47.53468" lon="1.808047">
        <ele>137.0</ele>
        <time>2022-02-10T09:34:56Z</time>
      </trkpt>
      <trkpt lat="47.53469" lon="1.8080552">
        <ele>137.0</ele>
        <time>2022-02-10T09:34:57Z</time>
      </trkpt>
      <trkpt lat="47.534695" lon="1.8080602">
        <ele>137.0</ele>
        <time>2022-02-10T09:34:58Z</time>
      </trkpt>
      <trkpt lat="47.534706" lon="1.8080662">
        <ele>137.0</ele>
        <time>2022-02-10T09:34:59Z</time>
      </trkpt>
      <trkpt lat="47.53471" lon="1.8080742">
        <ele>138.0</ele>
        <time>2022-02-10T09:35:00Z</time>
      </trkpt>
      <trkpt lat="47.53473" lon="1.8080882">
        <ele>137.0</ele>
        <time>2022-02-10T09:35:01Z</time>
      </trkpt>
      <trkpt lat="47.53474" lon="1.8080992">
        <ele>137.0</ele>
        <time>2022-02-10T09:35:02Z</time>
      </trkpt>
      <trkpt lat="47.534748" lon="1.808104">
        <ele>137.0</ele>
        <time>2022-02-10T09:35:03Z</time>
      </trkpt>
      <trkpt lat="47.534756" lon="1.8081102">
        <ele>137.0</ele>
        <time>2022-02-10T09:35:04Z</time>
      </trkpt>
      <trkpt lat="47.534767" lon="1.8081232">
        <ele>137.0</ele>
        <time>2022-02-10T09:35:05Z</time>
      </trkpt>
      <trkpt lat="47.534767" lon="1.8081232">
        <ele>137.0</ele>
        <time>2022-02-10T09:35:05Z</time>
      </trkpt>
      <trkpt lat="47.53478" lon="1.8081381">
        <ele>137.0</ele>
        <time>2022-02-10T09:35:07Z</time>
      </trkpt>
      <trkpt lat="47.534798" lon="1.8081504">
        <ele>136.0</ele>
        <time>2022-02-10T09:35:08Z</time>
      </trkpt>
      <trkpt lat="47.534805" lon="1.8081648">
        <ele>136.0</ele>
        <time>2022-02-10T09:35:09Z</time>
      </trkpt>
      <trkpt lat="47.534813" lon="1.8081701">
        <ele>136.0</ele>
        <time>2022-02-10T09:35:10Z</time>
      </trkpt>
      <trkpt lat="47.534824" lon="1.8081757">
        <ele>136.0</ele>
        <time>2022-02-10T09:35:11Z</time>
      </trkpt>
      <trkpt lat="47.534832" lon="1.8081855">
        <ele>136.0</ele>
        <time>2022-02-10T09:35:12Z</time>
      </trkpt>
      <trkpt lat="47.534847" lon="1.8081876">
        <ele>135.0</ele>
        <time>2022-02-10T09:35:13Z</time>
      </trkpt>
      <trkpt lat="47.53486" lon="1.8081926">
        <ele>135.0</ele>
        <time>2022-02-10T09:35:14Z</time>
      </trkpt>
      <trkpt lat="47.53486" lon="1.8081926">
        <ele>135.0</ele>
        <time>2022-02-10T09:35:14Z</time>
      </trkpt>
      <trkpt lat="47.534866" lon="1.8081964">
        <ele>135.0</ele>
        <time>2022-02-10T09:35:16Z</time>
      </trkpt>
      <trkpt lat="47.534874" lon="1.8081976">
        <ele>135.0</ele>
        <time>2022-02-10T09:35:17Z</time>
      </trkpt>
      <trkpt lat="47.534893" lon="1.8082045">
        <ele>135.0</ele>
        <time>2022-02-10T09:35:18Z</time>
      </trkpt>
      <trkpt lat="47.534904" lon="1.8082134">
        <ele>135.0</ele>
        <time>2022-02-10T09:35:19Z</time>
      </trkpt>
      <trkpt lat="47.534912" lon="1.8082198">
        <ele>135.0</ele>
        <time>2022-02-10T09:35:20Z</time>
      </trkpt>
      <trkpt lat="47.534912" lon="1.8082198">
        <ele>135.0</ele>
        <time>2022-02-10T09:35:20Z</time>
      </trkpt>
      <trkpt lat="47.53492" lon="1.8082324">
        <ele>135.0</ele>
        <time>2022-02-10T09:35:22Z</time>
      </trkpt>
      <trkpt lat="47.53493" lon="1.8082434">
        <ele>135.0</ele>
        <time>2022-02-10T09:35:23Z</time>
      </trkpt>
      <trkpt lat="47.534946" lon="1.8082588">
        <ele>135.0</ele>
        <time>2022-02-10T09:35:24Z</time>
      </trkpt>
      <trkpt lat="47.534954" lon="1.8082635">
        <ele>136.0</ele>
        <time>2022-02-10T09:35:25Z</time>
      </trkpt>
      <trkpt lat="47.53496" lon="1.808264">
        <ele>135.0</ele>
        <time>2022-02-10T09:35:26Z</time>
      </trkpt>
      <trkpt lat="47.53496" lon="1.808264">
        <ele>135.0</ele>
        <time>2022-02-10T09:35:26Z</time>
      </trkpt>
      <trkpt lat="47.534977" lon="1.8082854">
        <ele>135.0</ele>
        <time>2022-02-10T09:35:28Z</time>
      </trkpt>
      <trkpt lat="47.534985" lon="1.8082927">
        <ele>135.0</ele>
        <time>2022-02-10T09:35:29Z</time>
      </trkpt>
      <trkpt lat="47.534992" lon="1.808301">
        <ele>135.0</ele>
        <time>2022-02-10T09:35:30Z</time>
      </trkpt>
      <trkpt lat="47.535" lon="1.8083116">
        <ele>135.0</ele>
        <time>2022-02-10T09:35:31Z</time>
      </trkpt>
      <trkpt lat="47.535004" lon="1.8083179">
        <ele>134.0</ele>
        <time>2022-02-10T09:35:32Z</time>
      </trkpt>
      <trkpt lat="47.535007" lon="1.8083266">
        <ele>134.0</ele>
        <time>2022-02-10T09:35:33Z</time>
      </trkpt>
      <trkpt lat="47.53501" lon="1.8083322">
        <ele>134.0</ele>
        <time>2022-02-10T09:35:34Z</time>
      </trkpt>
      <trkpt lat="47.53502" lon="1.8083379">
        <ele>134.0</ele>
        <time>2022-02-10T09:35:35Z</time>
      </trkpt>
      <trkpt lat="47.535027" lon="1.8083471">
        <ele>133.0</ele>
        <time>2022-02-10T09:35:36Z</time>
      </trkpt>
      <trkpt lat="47.535034" lon="1.8083571">
        <ele>133.0</ele>
        <time>2022-02-10T09:35:37Z</time>
      </trkpt>
      <trkpt lat="47.53504" lon="1.8083668">
        <ele>133.0</ele>
        <time>2022-02-10T09:35:38Z</time>
      </trkpt>
      <trkpt lat="47.535046" lon="1.8083797">
        <ele>133.0</ele>
        <time>2022-02-10T09:35:39Z</time>
      </trkpt>
      <trkpt lat="47.535053" lon="1.8083922">
        <ele>132.0</ele>
        <time>2022-02-10T09:35:40Z</time>
      </trkpt>
      <trkpt lat="47.535065" lon="1.808402">
        <ele>132.0</ele>
        <time>2022-02-10T09:35:42Z</time>
      </trkpt>
      <trkpt lat="47.535072" lon="1.8084108">
        <ele>132.0</ele>
        <time>2022-02-10T09:35:43Z</time>
      </trkpt>
      <trkpt lat="47.53508" lon="1.808423">
        <ele>131.0</ele>
        <time>2022-02-10T09:35:44Z</time>
      </trkpt>
      <trkpt lat="47.535088" lon="1.8084333">
        <ele>131.0</ele>
        <time>2022-02-10T09:35:45Z</time>
      </trkpt>
      <trkpt lat="47.53509" lon="1.8084407">
        <ele>132.0</ele>
        <time>2022-02-10T09:35:46Z</time>
      </trkpt>
      <trkpt lat="47.5351" lon="1.8084508">
        <ele>131.0</ele>
        <time>2022-02-10T09:35:47Z</time>
      </trkpt>
      <trkpt lat="47.535107" lon="1.8084567">
        <ele>131.0</ele>
        <time>2022-02-10T09:35:48Z</time>
      </trkpt>
      <trkpt lat="47.535114" lon="1.8084675">
        <ele>131.0</ele>
        <time>2022-02-10T09:35:49Z</time>
      </trkpt>
      <trkpt lat="47.535122" lon="1.8084795">
        <ele>132.0</ele>
        <time>2022-02-10T09:35:50Z</time>
      </trkpt>
      <trkpt lat="47.53513" lon="1.8084903">
        <ele>132.0</ele>
        <time>2022-02-10T09:35:51Z</time>
      </trkpt>
      <trkpt lat="47.53514" lon="1.8085017">
        <ele>132.0</ele>
        <time>2022-02-10T09:35:52Z</time>
      </trkpt>
      <trkpt lat="47.53515" lon="1.8085076">
        <ele>132.0</ele>
        <time>2022-02-10T09:35:53Z</time>
      </trkpt>
      <trkpt lat="47.535156" lon="1.8085155">
        <ele>132.0</ele>
        <time>2022-02-10T09:35:54Z</time>
      </trkpt>
      <trkpt lat="47.535164" lon="1.8085277">
        <ele>132.0</ele>
        <time>2022-02-10T09:35:55Z</time>
      </trkpt>
      <trkpt lat="47.53517" lon="1.8085335">
        <ele>132.0</ele>
        <time>2022-02-10T09:35:56Z</time>
      </trkpt>
      <trkpt lat="47.535183" lon="1.8085424">
        <ele>132.0</ele>
        <time>2022-02-10T09:35:57Z</time>
      </trkpt>
      <trkpt lat="47.535194" lon="1.8085499">
        <ele>132.0</ele>
        <time>2022-02-10T09:35:58Z</time>
      </trkpt>
      <trkpt lat="47.535206" lon="1.8085561">
        <ele>132.0</ele>
        <time>2022-02-10T09:35:59Z</time>
      </trkpt>
      <trkpt lat="47.535213" lon="1.8085647">
        <ele>132.0</ele>
        <time>2022-02-10T09:36:00Z</time>
      </trkpt>
      <trkpt lat="47.535225" lon="1.808575">
        <ele>132.0</ele>
        <time>2022-02-10T09:36:01Z</time>
      </trkpt>
      <trkpt lat="47.535236" lon="1.8085899">
        <ele>132.0</ele>
        <time>2022-02-10T09:36:02Z</time>
      </trkpt>
      <trkpt lat="47.535244" lon="1.8086026">
        <ele>132.0</ele>
        <time>2022-02-10T09:36:03Z</time>
      </trkpt>
      <trkpt lat="47.53525" lon="1.8086157">
        <ele>133.0</ele>
        <time>2022-02-10T09:36:04Z</time>
      </trkpt>
      <trkpt lat="47.535267" lon="1.8086263">
        <ele>133.0</ele>
        <time>2022-02-10T09:36:05Z</time>
      </trkpt>
      <trkpt lat="47.53528" lon="1.8086337">
        <ele>133.0</ele>
        <time>2022-02-10T09:36:06Z</time>
      </trkpt>
      <trkpt lat="47.535286" lon="1.8086427">
        <ele>133.0</ele>
        <time>2022-02-10T09:36:07Z</time>
      </trkpt>
      <trkpt lat="47.53529" lon="1.8086499">
        <ele>133.0</ele>
        <time>2022-02-10T09:36:08Z</time>
      </trkpt>
      <trkpt lat="47.535297" lon="1.8086611">
        <ele>133.0</ele>
        <time>2022-02-10T09:36:09Z</time>
      </trkpt>
      <trkpt lat="47.53531" lon="1.8086737">
        <ele>133.0</ele>
        <time>2022-02-10T09:36:10Z</time>
      </trkpt>
      <trkpt lat="47.535316" lon="1.8086832">
        <ele>133.0</ele>
        <time>2022-02-10T09:36:11Z</time>
      </trkpt>
      <trkpt lat="47.535324" lon="1.8086933">
        <ele>132.0</ele>
        <time>2022-02-10T09:36:12Z</time>
      </trkpt>
      <trkpt lat="47.535336" lon="1.8087031">
        <ele>132.0</ele>
        <time>2022-02-10T09:36:13Z</time>
      </trkpt>
      <trkpt lat="47.535343" lon="1.808707">
        <ele>132.0</ele>
        <time>2022-02-10T09:36:14Z</time>
      </trkpt>
      <trkpt lat="47.53535" lon="1.8087132">
        <ele>133.0</ele>
        <time>2022-02-10T09:36:15Z</time>
      </trkpt>
      <trkpt lat="47.535355" lon="1.8087226">
        <ele>132.0</ele>
        <time>2022-02-10T09:36:16Z</time>
      </trkpt>
      <trkpt lat="47.53536" lon="1.8087311">
        <ele>132.0</ele>
        <time>2022-02-10T09:36:17Z</time>
      </trkpt>
      <trkpt lat="47.53537" lon="1.8087459">
        <ele>132.0</ele>
        <time>2022-02-10T09:36:18Z</time>
      </trkpt>
      <trkpt lat="47.535378" lon="1.8087592">
        <ele>132.0</ele>
        <time>2022-02-10T09:36:19Z</time>
      </trkpt>
      <trkpt lat="47.535385" lon="1.8087735">
        <ele>132.0</ele>
        <time>2022-02-10T09:36:20Z</time>
      </trkpt>
      <trkpt lat="47.535393" lon="1.8087885">
        <ele>132.0</ele>
        <time>2022-02-10T09:36:21Z</time>
      </trkpt>
      <trkpt lat="47.535404" lon="1.8087986">
        <ele>132.0</ele>
        <time>2022-02-10T09:36:22Z</time>
      </trkpt>
      <trkpt lat="47.53541" lon="1.8088093">
        <ele>131.0</ele>
        <time>2022-02-10T09:36:23Z</time>
      </trkpt>
      <trkpt lat="47.53542" lon="1.8088243">
        <ele>131.0</ele>
        <time>2022-02-10T09:36:24Z</time>
      </trkpt>
      <trkpt lat="47.535427" lon="1.8088367">
        <ele>131.0</ele>
        <time>2022-02-10T09:36:25Z</time>
      </trkpt>
      <trkpt lat="47.53543" lon="1.8088415">
        <ele>131.0</ele>
        <time>2022-02-10T09:36:26Z</time>
      </trkpt>
      <trkpt lat="47.53544" lon="1.8088495">
        <ele>131.0</ele>
        <time>2022-02-10T09:36:27Z</time>
      </trkpt>
      <trkpt lat="47.535446" lon="1.8088597">
        <ele>131.0</ele>
        <time>2022-02-10T09:36:28Z</time>
      </trkpt>
      <trkpt lat="47.53545" lon="1.8088701">
        <ele>131.0</ele>
        <time>2022-02-10T09:36:29Z</time>
      </trkpt>
      <trkpt lat="47.535458" lon="1.8088841">
        <ele>131.0</ele>
        <time>2022-02-10T09:36:30Z</time>
      </trkpt>
      <trkpt lat="47.53547" lon="1.8088903">
        <ele>132.0</ele>
        <time>2022-02-10T09:36:31Z</time>
      </trkpt>
      <trkpt lat="47.53548" lon="1.8088996">
        <ele>131.0</ele>
        <time>2022-02-10T09:36:32Z</time>
      </trkpt>
      <trkpt lat="47.53549" lon="1.8089085">
        <ele>132.0</ele>
        <time>2022-02-10T09:36:33Z</time>
      </trkpt>
      <trkpt lat="47.535496" lon="1.8089172">
        <ele>132.0</ele>
        <time>2022-02-10T09:36:34Z</time>
      </trkpt>
      <trkpt lat="47.535503" lon="1.8089235">
        <ele>132.0</ele>
        <time>2022-02-10T09:36:35Z</time>
      </trkpt>
      <trkpt lat="47.535507" lon="1.8089364">
        <ele>132.0</ele>
        <time>2022-02-10T09:36:36Z</time>
      </trkpt>
      <trkpt lat="47.535515" lon="1.8089468">
        <ele>132.0</ele>
        <time>2022-02-10T09:36:37Z</time>
      </trkpt>
      <trkpt lat="47.535522" lon="1.8089565">
        <ele>132.0</ele>
        <time>2022-02-10T09:36:38Z</time>
      </trkpt>
      <trkpt lat="47.53553" lon="1.808969">
        <ele>132.0</ele>
        <time>2022-02-10T09:36:39Z</time>
      </trkpt>
      <trkpt lat="47.535534" lon="1.8089805">
        <ele>132.0</ele>
        <time>2022-02-10T09:36:40Z</time>
      </trkpt>
      <trkpt lat="47.535538" lon="1.8089925">
        <ele>132.0</ele>
        <time>2022-02-10T09:36:41Z</time>
      </trkpt>
      <trkpt lat="47.53554" lon="1.8090018">
        <ele>132.0</ele>
        <time>2022-02-10T09:36:42Z</time>
      </trkpt>
      <trkpt lat="47.535553" lon="1.8090127">
        <ele>132.0</ele>
        <time>2022-02-10T09:36:43Z</time>
      </trkpt>
      <trkpt lat="47.535564" lon="1.8090196">
        <ele>133.0</ele>
        <time>2022-02-10T09:36:44Z</time>
      </trkpt>
      <trkpt lat="47.535572" lon="1.809025">
        <ele>133.0</ele>
        <time>2022-02-10T09:36:45Z</time>
      </trkpt>
      <trkpt lat="47.53558" lon="1.8090371">
        <ele>133.0</ele>
        <time>2022-02-10T09:36:46Z</time>
      </trkpt>
      <trkpt lat="47.535595" lon="1.8090452">
        <ele>133.0</ele>
        <time>2022-02-10T09:36:47Z</time>
      </trkpt>
      <trkpt lat="47.535606" lon="1.8090534">
        <ele>132.0</ele>
        <time>2022-02-10T09:36:48Z</time>
      </trkpt>
      <trkpt lat="47.535614" lon="1.8090663">
        <ele>133.0</ele>
        <time>2022-02-10T09:36:49Z</time>
      </trkpt>
      <trkpt lat="47.535625" lon="1.8090788">
        <ele>133.0</ele>
        <time>2022-02-10T09:36:50Z</time>
      </trkpt>
      <trkpt lat="47.535633" lon="1.8090906">
        <ele>133.0</ele>
        <time>2022-02-10T09:36:51Z</time>
      </trkpt>
      <trkpt lat="47.535645" lon="1.8091027">
        <ele>133.0</ele>
        <time>2022-02-10T09:36:52Z</time>
      </trkpt>
      <trkpt lat="47.535652" lon="1.80911">
        <ele>133.0</ele>
        <time>2022-02-10T09:36:53Z</time>
      </trkpt>
      <trkpt lat="47.535664" lon="1.8091168">
        <ele>133.0</ele>
        <time>2022-02-10T09:36:54Z</time>
      </trkpt>
      <trkpt lat="47.53567" lon="1.8091283">
        <ele>133.0</ele>
        <time>2022-02-10T09:36:55Z</time>
      </trkpt>
      <trkpt lat="47.535683" lon="1.8091393">
        <ele>134.0</ele>
        <time>2022-02-10T09:36:56Z</time>
      </trkpt>
      <trkpt lat="47.535694" lon="1.8091494">
        <ele>134.0</ele>
        <time>2022-02-10T09:36:57Z</time>
      </trkpt>
      <trkpt lat="47.535706" lon="1.8091592">
        <ele>134.0</ele>
        <time>2022-02-10T09:36:58Z</time>
      </trkpt>
      <trkpt lat="47.535713" lon="1.8091693">
        <ele>134.0</ele>
        <time>2022-02-10T09:36:59Z</time>
      </trkpt>
      <trkpt lat="47.53572" lon="1.809181">
        <ele>134.0</ele>
        <time>2022-02-10T09:37:00Z</time>
      </trkpt>
      <trkpt lat="47.535732" lon="1.8091908">
        <ele>134.0</ele>
        <time>2022-02-10T09:37:01Z</time>
      </trkpt>
      <trkpt lat="47.535744" lon="1.8092002">
        <ele>134.0</ele>
        <time>2022-02-10T09:37:02Z</time>
      </trkpt>
      <trkpt lat="47.53575" lon="1.8092097">
        <ele>134.0</ele>
        <time>2022-02-10T09:37:03Z</time>
      </trkpt>
      <trkpt lat="47.53576" lon="1.8092157">
        <ele>133.0</ele>
        <time>2022-02-10T09:37:04Z</time>
      </trkpt>
      <trkpt lat="47.53577" lon="1.8092239">
        <ele>134.0</ele>
        <time>2022-02-10T09:37:05Z</time>
      </trkpt>
      <trkpt lat="47.53578" lon="1.8092289">
        <ele>134.0</ele>
        <time>2022-02-10T09:37:06Z</time>
      </trkpt>
      <trkpt lat="47.535793" lon="1.8092331">
        <ele>135.0</ele>
        <time>2022-02-10T09:37:07Z</time>
      </trkpt>
      <trkpt lat="47.535805" lon="1.809242">
        <ele>135.0</ele>
        <time>2022-02-10T09:37:08Z</time>
      </trkpt>
      <trkpt lat="47.535816" lon="1.8092549">
        <ele>135.0</ele>
        <time>2022-02-10T09:37:09Z</time>
      </trkpt>
      <trkpt lat="47.535828" lon="1.8092622">
        <ele>135.0</ele>
        <time>2022-02-10T09:37:10Z</time>
      </trkpt>
      <trkpt lat="47.535835" lon="1.8092712">
        <ele>135.0</ele>
        <time>2022-02-10T09:37:11Z</time>
      </trkpt>
      <trkpt lat="47.535847" lon="1.8092778">
        <ele>135.0</ele>
        <time>2022-02-10T09:37:12Z</time>
      </trkpt>
      <trkpt lat="47.535854" lon="1.8092864">
        <ele>135.0</ele>
        <time>2022-02-10T09:37:13Z</time>
      </trkpt>
      <trkpt lat="47.53587" lon="1.809289">
        <ele>135.0</ele>
        <time>2022-02-10T09:37:14Z</time>
      </trkpt>
      <trkpt lat="47.53588" lon="1.809297">
        <ele>135.0</ele>
        <time>2022-02-10T09:37:15Z</time>
      </trkpt>
      <trkpt lat="47.535892" lon="1.8093035">
        <ele>135.0</ele>
        <time>2022-02-10T09:37:16Z</time>
      </trkpt>
      <trkpt lat="47.535904" lon="1.809311">
        <ele>134.0</ele>
        <time>2022-02-10T09:37:17Z</time>
      </trkpt>
      <trkpt lat="47.535915" lon="1.8093145">
        <ele>135.0</ele>
        <time>2022-02-10T09:37:18Z</time>
      </trkpt>
      <trkpt lat="47.535923" lon="1.8093243">
        <ele>134.0</ele>
        <time>2022-02-10T09:37:19Z</time>
      </trkpt>
      <trkpt lat="47.535934" lon="1.8093302">
        <ele>134.0</ele>
        <time>2022-02-10T09:37:20Z</time>
      </trkpt>
      <trkpt lat="47.535946" lon="1.809335">
        <ele>134.0</ele>
        <time>2022-02-10T09:37:21Z</time>
      </trkpt>
      <trkpt lat="47.535957" lon="1.8093444">
        <ele>135.0</ele>
        <time>2022-02-10T09:37:22Z</time>
      </trkpt>
      <trkpt lat="47.535965" lon="1.8093516">
        <ele>135.0</ele>
        <time>2022-02-10T09:37:23Z</time>
      </trkpt>
      <trkpt lat="47.535976" lon="1.8093618">
        <ele>135.0</ele>
        <time>2022-02-10T09:37:24Z</time>
      </trkpt>
      <trkpt lat="47.535984" lon="1.8093692">
        <ele>135.0</ele>
        <time>2022-02-10T09:37:25Z</time>
      </trkpt>
      <trkpt lat="47.535995" lon="1.8093791">
        <ele>135.0</ele>
        <time>2022-02-10T09:37:26Z</time>
      </trkpt>
      <trkpt lat="47.536007" lon="1.8093891">
        <ele>136.0</ele>
        <time>2022-02-10T09:37:27Z</time>
      </trkpt>
      <trkpt lat="47.53602" lon="1.809395">
        <ele>136.0</ele>
        <time>2022-02-10T09:37:28Z</time>
      </trkpt>
      <trkpt lat="47.53603" lon="1.8094039">
        <ele>136.0</ele>
        <time>2022-02-10T09:37:29Z</time>
      </trkpt>
      <trkpt lat="47.536037" lon="1.809409">
        <ele>136.0</ele>
        <time>2022-02-10T09:37:30Z</time>
      </trkpt>
      <trkpt lat="47.53605" lon="1.8094149">
        <ele>136.0</ele>
        <time>2022-02-10T09:37:31Z</time>
      </trkpt>
      <trkpt lat="47.53606" lon="1.809424">
        <ele>136.0</ele>
        <time>2022-02-10T09:37:32Z</time>
      </trkpt>
      <trkpt lat="47.53607" lon="1.8094333">
        <ele>136.0</ele>
        <time>2022-02-10T09:37:33Z</time>
      </trkpt>
      <trkpt lat="47.536083" lon="1.8094406">
        <ele>136.0</ele>
        <time>2022-02-10T09:37:34Z</time>
      </trkpt>
      <trkpt lat="47.53609" lon="1.8094486">
        <ele>136.0</ele>
        <time>2022-02-10T09:37:35Z</time>
      </trkpt>
      <trkpt lat="47.5361" lon="1.8094566">
        <ele>137.0</ele>
        <time>2022-02-10T09:37:36Z</time>
      </trkpt>
      <trkpt lat="47.536106" lon="1.809464">
        <ele>137.0</ele>
        <time>2022-02-10T09:37:37Z</time>
      </trkpt>
      <trkpt lat="47.536118" lon="1.8094727">
        <ele>137.0</ele>
        <time>2022-02-10T09:37:38Z</time>
      </trkpt>
      <trkpt lat="47.536125" lon="1.8094811">
        <ele>137.0</ele>
        <time>2022-02-10T09:37:39Z</time>
      </trkpt>
      <trkpt lat="47.536137" lon="1.8094862">
        <ele>137.0</ele>
        <time>2022-02-10T09:37:40Z</time>
      </trkpt>
      <trkpt lat="47.536148" lon="1.8094909">
        <ele>138.0</ele>
        <time>2022-02-10T09:37:41Z</time>
      </trkpt>
      <trkpt lat="47.536156" lon="1.8094999">
        <ele>138.0</ele>
        <time>2022-02-10T09:37:42Z</time>
      </trkpt>
      <trkpt lat="47.536163" lon="1.8095077">
        <ele>138.0</ele>
        <time>2022-02-10T09:37:43Z</time>
      </trkpt>
      <trkpt lat="47.536175" lon="1.8095143">
        <ele>138.0</ele>
        <time>2022-02-10T09:37:44Z</time>
      </trkpt>
      <trkpt lat="47.536186" lon="1.8095225">
        <ele>139.0</ele>
        <time>2022-02-10T09:37:45Z</time>
      </trkpt>
      <trkpt lat="47.5362" lon="1.8095294">
        <ele>139.0</ele>
        <time>2022-02-10T09:37:46Z</time>
      </trkpt>
      <trkpt lat="47.53621" lon="1.8095399">
        <ele>139.0</ele>
        <time>2022-02-10T09:37:47Z</time>
      </trkpt>
      <trkpt lat="47.536217" lon="1.809551">
        <ele>139.0</ele>
        <time>2022-02-10T09:37:48Z</time>
      </trkpt>
      <trkpt lat="47.536224" lon="1.8095595">
        <ele>139.0</ele>
        <time>2022-02-10T09:37:49Z</time>
      </trkpt>
      <trkpt lat="47.536236" lon="1.8095673">
        <ele>139.0</ele>
        <time>2022-02-10T09:37:50Z</time>
      </trkpt>
      <trkpt lat="47.536243" lon="1.8095759">
        <ele>139.0</ele>
        <time>2022-02-10T09:37:51Z</time>
      </trkpt>
      <trkpt lat="47.53625" lon="1.8095855">
        <ele>138.0</ele>
        <time>2022-02-10T09:37:52Z</time>
      </trkpt>
      <trkpt lat="47.536263" lon="1.8095974">
        <ele>138.0</ele>
        <time>2022-02-10T09:37:53Z</time>
      </trkpt>
      <trkpt lat="47.536266" lon="1.8096085">
        <ele>138.0</ele>
        <time>2022-02-10T09:37:54Z</time>
      </trkpt>
      <trkpt lat="47.536274" lon="1.8096135">
        <ele>138.0</ele>
        <time>2022-02-10T09:37:55Z</time>
      </trkpt>
      <trkpt lat="47.53628" lon="1.8096199">
        <ele>137.0</ele>
        <time>2022-02-10T09:37:56Z</time>
      </trkpt>
      <trkpt lat="47.536293" lon="1.8096254">
        <ele>138.0</ele>
        <time>2022-02-10T09:37:57Z</time>
      </trkpt>
      <trkpt lat="47.5363" lon="1.8096341">
        <ele>138.0</ele>
        <time>2022-02-10T09:37:58Z</time>
      </trkpt>
      <trkpt lat="47.53631" lon="1.8096427">
        <ele>138.0</ele>
        <time>2022-02-10T09:37:59Z</time>
      </trkpt>
      <trkpt lat="47.53632" lon="1.8096513">
        <ele>138.0</ele>
        <time>2022-02-10T09:38:00Z</time>
      </trkpt>
      <trkpt lat="47.536327" lon="1.8096598">
        <ele>138.0</ele>
        <time>2022-02-10T09:38:01Z</time>
      </trkpt>
      <trkpt lat="47.53634" lon="1.8096694">
        <ele>138.0</ele>
        <time>2022-02-10T09:38:02Z</time>
      </trkpt>
      <trkpt lat="47.536346" lon="1.809677">
        <ele>139.0</ele>
        <time>2022-02-10T09:38:03Z</time>
      </trkpt>
      <trkpt lat="47.536354" lon="1.8096809">
        <ele>139.0</ele>
        <time>2022-02-10T09:38:04Z</time>
      </trkpt>
      <trkpt lat="47.53636" lon="1.8096886">
        <ele>139.0</ele>
        <time>2022-02-10T09:38:05Z</time>
      </trkpt>
      <trkpt lat="47.536373" lon="1.8096983">
        <ele>138.0</ele>
        <time>2022-02-10T09:38:06Z</time>
      </trkpt>
      <trkpt lat="47.53638" lon="1.8097086">
        <ele>138.0</ele>
        <time>2022-02-10T09:38:07Z</time>
      </trkpt>
      <trkpt lat="47.53639" lon="1.8097173">
        <ele>138.0</ele>
        <time>2022-02-10T09:38:08Z</time>
      </trkpt>
      <trkpt lat="47.5364" lon="1.8097218">
        <ele>138.0</ele>
        <time>2022-02-10T09:38:09Z</time>
      </trkpt>
      <trkpt lat="47.536415" lon="1.8097295">
        <ele>138.0</ele>
        <time>2022-02-10T09:38:10Z</time>
      </trkpt>
      <trkpt lat="47.536423" lon="1.8097419">
        <ele>137.0</ele>
        <time>2022-02-10T09:38:11Z</time>
      </trkpt>
      <trkpt lat="47.53643" lon="1.8097574">
        <ele>137.0</ele>
        <time>2022-02-10T09:38:12Z</time>
      </trkpt>
      <trkpt lat="47.536438" lon="1.8097711">
        <ele>137.0</ele>
        <time>2022-02-10T09:38:13Z</time>
      </trkpt>
      <trkpt lat="47.536446" lon="1.8097785">
        <ele>137.0</ele>
        <time>2022-02-10T09:38:14Z</time>
      </trkpt>
      <trkpt lat="47.536453" lon="1.8097864">
        <ele>137.0</ele>
        <time>2022-02-10T09:38:15Z</time>
      </trkpt>
      <trkpt lat="47.53646" lon="1.8097934">
        <ele>137.0</ele>
        <time>2022-02-10T09:38:16Z</time>
      </trkpt>
      <trkpt lat="47.536472" lon="1.8098017">
        <ele>137.0</ele>
        <time>2022-02-10T09:38:17Z</time>
      </trkpt>
      <trkpt lat="47.536484" lon="1.8098105">
        <ele>137.0</ele>
        <time>2022-02-10T09:38:18Z</time>
      </trkpt>
      <trkpt lat="47.53649" lon="1.8098207">
        <ele>137.0</ele>
        <time>2022-02-10T09:38:19Z</time>
      </trkpt>
      <trkpt lat="47.5365" lon="1.8098283">
        <ele>137.0</ele>
        <time>2022-02-10T09:38:20Z</time>
      </trkpt>
      <trkpt lat="47.536503" lon="1.8098425">
        <ele>137.0</ele>
        <time>2022-02-10T09:38:21Z</time>
      </trkpt>
      <trkpt lat="47.53651" lon="1.8098514">
        <ele>137.0</ele>
        <time>2022-02-10T09:38:22Z</time>
      </trkpt>
      <trkpt lat="47.536514" lon="1.8098577">
        <ele>138.0</ele>
        <time>2022-02-10T09:38:23Z</time>
      </trkpt>
      <trkpt lat="47.53652" lon="1.8098636">
        <ele>138.0</ele>
        <time>2022-02-10T09:38:24Z</time>
      </trkpt>
      <trkpt lat="47.53653" lon="1.8098731">
        <ele>137.0</ele>
        <time>2022-02-10T09:38:25Z</time>
      </trkpt>
      <trkpt lat="47.53654" lon="1.8098805">
        <ele>138.0</ele>
        <time>2022-02-10T09:38:26Z</time>
      </trkpt>
      <trkpt lat="47.536552" lon="1.8098922">
        <ele>138.0</ele>
        <time>2022-02-10T09:38:27Z</time>
      </trkpt>
      <trkpt lat="47.536564" lon="1.8099005">
        <ele>138.0</ele>
        <time>2022-02-10T09:38:28Z</time>
      </trkpt>
      <trkpt lat="47.53657" lon="1.8099085">
        <ele>138.0</ele>
        <time>2022-02-10T09:38:29Z</time>
      </trkpt>
      <trkpt lat="47.53658" lon="1.809918">
        <ele>138.0</ele>
        <time>2022-02-10T09:38:30Z</time>
      </trkpt>
      <trkpt lat="47.536583" lon="1.8099225">
        <ele>138.0</ele>
        <time>2022-02-10T09:38:31Z</time>
      </trkpt>
      <trkpt lat="47.536594" lon="1.8099278">
        <ele>138.0</ele>
        <time>2022-02-10T09:38:32Z</time>
      </trkpt>
      <trkpt lat="47.536606" lon="1.8099353">
        <ele>138.0</ele>
        <time>2022-02-10T09:38:33Z</time>
      </trkpt>
      <trkpt lat="47.536613" lon="1.8099418">
        <ele>138.0</ele>
        <time>2022-02-10T09:38:34Z</time>
      </trkpt>
      <trkpt lat="47.53662" lon="1.8099465">
        <ele>138.0</ele>
        <time>2022-02-10T09:38:35Z</time>
      </trkpt>
      <trkpt lat="47.536636" lon="1.809951">
        <ele>138.0</ele>
        <time>2022-02-10T09:38:36Z</time>
      </trkpt>
      <trkpt lat="47.536644" lon="1.80996">
        <ele>138.0</ele>
        <time>2022-02-10T09:38:37Z</time>
      </trkpt>
      <trkpt lat="47.536655" lon="1.8099653">
        <ele>138.0</ele>
        <time>2022-02-10T09:38:38Z</time>
      </trkpt>
      <trkpt lat="47.53666" lon="1.809971">
        <ele>138.0</ele>
        <time>2022-02-10T09:38:39Z</time>
      </trkpt>
      <trkpt lat="47.536663" lon="1.8099777">
        <ele>138.0</ele>
        <time>2022-02-10T09:38:40Z</time>
      </trkpt>
      <trkpt lat="47.53667" lon="1.8099811">
        <ele>138.0</ele>
        <time>2022-02-10T09:38:41Z</time>
      </trkpt>
      <trkpt lat="47.536682" lon="1.8099892">
        <ele>137.0</ele>
        <time>2022-02-10T09:38:42Z</time>
      </trkpt>
      <trkpt lat="47.53669" lon="1.8099985">
        <ele>137.0</ele>
        <time>2022-02-10T09:38:43Z</time>
      </trkpt>
      <trkpt lat="47.5367" lon="1.8100072">
        <ele>137.0</ele>
        <time>2022-02-10T09:38:44Z</time>
      </trkpt>
      <trkpt lat="47.536713" lon="1.8100176">
        <ele>137.0</ele>
        <time>2022-02-10T09:38:45Z</time>
      </trkpt>
      <trkpt lat="47.536728" lon="1.8100301">
        <ele>137.0</ele>
        <time>2022-02-10T09:38:46Z</time>
      </trkpt>
      <trkpt lat="47.536743" lon="1.8100388">
        <ele>138.0</ele>
        <time>2022-02-10T09:38:47Z</time>
      </trkpt>
      <trkpt lat="47.53675" lon="1.81004">
        <ele>137.0</ele>
        <time>2022-02-10T09:38:48Z</time>
      </trkpt>
      <trkpt lat="47.53676" lon="1.8100486">
        <ele>137.0</ele>
        <time>2022-02-10T09:38:49Z</time>
      </trkpt>
      <trkpt lat="47.536766" lon="1.8100567">
        <ele>138.0</ele>
        <time>2022-02-10T09:38:50Z</time>
      </trkpt>
      <trkpt lat="47.53677" lon="1.8100666">
        <ele>138.0</ele>
        <time>2022-02-10T09:38:51Z</time>
      </trkpt>
      <trkpt lat="47.536777" lon="1.8100733">
        <ele>138.0</ele>
        <time>2022-02-10T09:38:52Z</time>
      </trkpt>
      <trkpt lat="47.536785" lon="1.8100818">
        <ele>138.0</ele>
        <time>2022-02-10T09:38:53Z</time>
      </trkpt>
      <trkpt lat="47.536793" lon="1.8100911">
        <ele>138.0</ele>
        <time>2022-02-10T09:38:54Z</time>
      </trkpt>
      <trkpt lat="47.536804" lon="1.8100996">
        <ele>138.0</ele>
        <time>2022-02-10T09:38:55Z</time>
      </trkpt>
      <trkpt lat="47.53681" lon="1.8101089">
        <ele>138.0</ele>
        <time>2022-02-10T09:38:56Z</time>
      </trkpt>
      <trkpt lat="47.536823" lon="1.8101025">
        <ele>138.0</ele>
        <time>2022-02-10T09:38:57Z</time>
      </trkpt>
      <trkpt lat="47.536835" lon="1.8100998">
        <ele>138.0</ele>
        <time>2022-02-10T09:38:58Z</time>
      </trkpt>
      <trkpt lat="47.536842" lon="1.8100991">
        <ele>138.0</ele>
        <time>2022-02-10T09:38:59Z</time>
      </trkpt>
      <trkpt lat="47.53685" lon="1.8100948">
        <ele>139.0</ele>
        <time>2022-02-10T09:39:00Z</time>
      </trkpt>
      <trkpt lat="47.536858" lon="1.8100909">
        <ele>138.0</ele>
        <time>2022-02-10T09:39:01Z</time>
      </trkpt>
      <trkpt lat="47.536865" lon="1.8100902">
        <ele>138.0</ele>
        <time>2022-02-10T09:39:02Z</time>
      </trkpt>
      <trkpt lat="47.53687" lon="1.8100903">
        <ele>139.0</ele>
        <time>2022-02-10T09:39:03Z</time>
      </trkpt>
      <trkpt lat="47.536873" lon="1.8100926">
        <ele>139.0</ele>
        <time>2022-02-10T09:39:04Z</time>
      </trkpt>
      <trkpt lat="47.536873" lon="1.8100926">
        <ele>139.0</ele>
        <time>2022-02-10T09:39:05Z</time>
      </trkpt>
      <trkpt lat="47.536873" lon="1.8100926">
        <ele>139.0</ele>
        <time>2022-02-10T09:39:06Z</time>
      </trkpt>
      <trkpt lat="47.536873" lon="1.8100926">
        <ele>139.0</ele>
        <time>2022-02-10T09:39:06Z</time>
      </trkpt>
    </trkseg>
    <trkseg>
      <trkpt lat="47.536873" lon="1.8100926">
        <ele>139.0</ele>
        <time>2022-02-10T09:39:06Z</time>
      </trkpt>
      <trkpt lat="47.536915" lon="1.8101306">
        <ele>138.0</ele>
        <time>2022-02-10T09:39:44Z</time>
      </trkpt>
      <trkpt lat="47.53693" lon="1.8101417">
        <ele>138.0</ele>
        <time>2022-02-10T09:39:45Z</time>
      </trkpt>
      <trkpt lat="47.536945" lon="1.8101513">
        <ele>137.0</ele>
        <time>2022-02-10T09:39:46Z</time>
      </trkpt>
      <trkpt lat="47.536953" lon="1.8101554">
        <ele>137.0</ele>
        <time>2022-02-10T09:39:47Z</time>
      </trkpt>
      <trkpt lat="47.536964" lon="1.8101662">
        <ele>137.0</ele>
        <time>2022-02-10T09:39:48Z</time>
      </trkpt>
      <trkpt lat="47.536976" lon="1.8101785">
        <ele>137.0</ele>
        <time>2022-02-10T09:39:49Z</time>
      </trkpt>
      <trkpt lat="47.536987" lon="1.8101927">
        <ele>138.0</ele>
        <time>2022-02-10T09:39:50Z</time>
      </trkpt>
      <trkpt lat="47.537" lon="1.8102007">
        <ele>138.0</ele>
        <time>2022-02-10T09:39:51Z</time>
      </trkpt>
      <trkpt lat="47.537003" lon="1.8102087">
        <ele>138.0</ele>
        <time>2022-02-10T09:39:52Z</time>
      </trkpt>
      <trkpt lat="47.537006" lon="1.810219">
        <ele>138.0</ele>
        <time>2022-02-10T09:39:53Z</time>
      </trkpt>
      <trkpt lat="47.537006" lon="1.8102301">
        <ele>138.0</ele>
        <time>2022-02-10T09:39:54Z</time>
      </trkpt>
      <trkpt lat="47.537014" lon="1.8102357">
        <ele>137.0</ele>
        <time>2022-02-10T09:39:55Z</time>
      </trkpt>
      <trkpt lat="47.53702" lon="1.8102537">
        <ele>137.0</ele>
        <time>2022-02-10T09:39:56Z</time>
      </trkpt>
      <trkpt lat="47.537033" lon="1.8102672">
        <ele>136.0</ele>
        <time>2022-02-10T09:39:57Z</time>
      </trkpt>
      <trkpt lat="47.53704" lon="1.8102837">
        <ele>137.0</ele>
        <time>2022-02-10T09:39:58Z</time>
      </trkpt>
      <trkpt lat="47.537045" lon="1.8103025">
        <ele>137.0</ele>
        <time>2022-02-10T09:39:59Z</time>
      </trkpt>
      <trkpt lat="47.537052" lon="1.8103172">
        <ele>136.0</ele>
        <time>2022-02-10T09:40:00Z</time>
      </trkpt>
      <trkpt lat="47.53706" lon="1.8103284">
        <ele>136.0</ele>
        <time>2022-02-10T09:40:01Z</time>
      </trkpt>
      <trkpt lat="47.537064" lon="1.8103435">
        <ele>136.0</ele>
        <time>2022-02-10T09:40:02Z</time>
      </trkpt>
      <trkpt lat="47.537067" lon="1.810354">
        <ele>136.0</ele>
        <time>2022-02-10T09:40:03Z</time>
      </trkpt>
      <trkpt lat="47.537075" lon="1.8103626">
        <ele>136.0</ele>
        <time>2022-02-10T09:40:04Z</time>
      </trkpt>
      <trkpt lat="47.537083" lon="1.81037">
        <ele>136.0</ele>
        <time>2022-02-10T09:40:05Z</time>
      </trkpt>
      <trkpt lat="47.537086" lon="1.8103762">
        <ele>136.0</ele>
        <time>2022-02-10T09:40:06Z</time>
      </trkpt>
      <trkpt lat="47.53709" lon="1.8103806">
        <ele>136.0</ele>
        <time>2022-02-10T09:40:07Z</time>
      </trkpt>
      <trkpt lat="47.53709" lon="1.8103805">
        <ele>136.0</ele>
        <time>2022-02-10T09:40:08Z</time>
      </trkpt>
      <trkpt lat="47.53709" lon="1.8103805">
        <ele>136.0</ele>
        <time>2022-02-10T09:40:09Z</time>
      </trkpt>
      <trkpt lat="47.53709" lon="1.8103805">
        <ele>136.0</ele>
        <time>2022-02-10T09:40:10Z</time>
      </trkpt>
      <trkpt lat="47.53709" lon="1.8103805">
        <ele>136.0</ele>
        <time>2022-02-10T09:40:10Z</time>
      </trkpt>
    </trkseg>
    <trkseg>
      <trkpt lat="47.53709" lon="1.8103805">
        <ele>136.0</ele>
        <time>2022-02-10T09:40:10Z</time>
      </trkpt>
      <trkpt lat="47.537113" lon="1.8104156">
        <ele>137.0</ele>
        <time>2022-02-10T09:40:19Z</time>
      </trkpt>
      <trkpt lat="47.537113" lon="1.8104156">
        <ele>137.0</ele>
        <time>2022-02-10T09:40:20Z</time>
      </trkpt>
      <trkpt lat="47.537113" lon="1.8104156">
        <ele>137.0</ele>
        <time>2022-02-10T09:40:21Z</time>
      </trkpt>
      <trkpt lat="47.537113" lon="1.8104156">
        <ele>137.0</ele>
        <time>2022-02-10T09:40:22Z</time>
      </trkpt>
      <trkpt lat="47.537113" lon="1.8104156">
        <ele>137.0</ele>
        <time>2022-02-10T09:40:23Z</time>
      </trkpt>
      <trkpt lat="47.537113" lon="1.8104156">
        <ele>137.0</ele>
        <time>2022-02-10T09:40:23Z</time>
      </trkpt>
    </trkseg>
    <trkseg>
      <trkpt lat="47.537113" lon="1.8104156">
        <ele>137.0</ele>
        <time>2022-02-10T09:40:23Z</time>
      </trkpt>
      <trkpt lat="47.537136" lon="1.8104397">
        <ele>137.0</ele>
        <time>2022-02-10T09:40:34Z</time>
      </trkpt>
      <trkpt lat="47.537136" lon="1.8104424">
        <ele>137.0</ele>
        <time>2022-02-10T09:40:35Z</time>
      </trkpt>
      <trkpt lat="47.537148" lon="1.8104444">
        <ele>138.0</ele>
        <time>2022-02-10T09:40:36Z</time>
      </trkpt>
      <trkpt lat="47.537148" lon="1.8104444">
        <ele>138.0</ele>
        <time>2022-02-10T09:40:36Z</time>
      </trkpt>
    </trkseg>
    <trkseg>
      <trkpt lat="47.537148" lon="1.8104444">
        <ele>138.0</ele>
        <time>2022-02-10T09:40:36Z</time>
      </trkpt>
      <trkpt lat="47.537224" lon="1.8104309">
        <ele>139.0</ele>
        <time>2022-02-10T09:40:48Z</time>
      </trkpt>
      <trkpt lat="47.537235" lon="1.8104345">
        <ele>139.0</ele>
        <time>2022-02-10T09:40:49Z</time>
      </trkpt>
      <trkpt lat="47.537247" lon="1.8104368">
        <ele>139.0</ele>
        <time>2022-02-10T09:40:50Z</time>
      </trkpt>
      <trkpt lat="47.537254" lon="1.8104396">
        <ele>139.0</ele>
        <time>2022-02-10T09:40:51Z</time>
      </trkpt>
      <trkpt lat="47.53726" lon="1.81045">
        <ele>139.0</ele>
        <time>2022-02-10T09:40:52Z</time>
      </trkpt>
      <trkpt lat="47.537266" lon="1.8104573">
        <ele>139.0</ele>
        <time>2022-02-10T09:40:53Z</time>
      </trkpt>
      <trkpt lat="47.537273" lon="1.8104631">
        <ele>140.0</ele>
        <time>2022-02-10T09:40:54Z</time>
      </trkpt>
      <trkpt lat="47.53728" lon="1.8104695">
        <ele>140.0</ele>
        <time>2022-02-10T09:40:55Z</time>
      </trkpt>
      <trkpt lat="47.537292" lon="1.8104764">
        <ele>140.0</ele>
        <time>2022-02-10T09:40:56Z</time>
      </trkpt>
      <trkpt lat="47.537296" lon="1.810478">
        <ele>140.0</ele>
        <time>2022-02-10T09:40:57Z</time>
      </trkpt>
      <trkpt lat="47.537304" lon="1.8104821">
        <ele>140.0</ele>
        <time>2022-02-10T09:40:58Z</time>
      </trkpt>
      <trkpt lat="47.537315" lon="1.8104926">
        <ele>140.0</ele>
        <time>2022-02-10T09:40:59Z</time>
      </trkpt>
      <trkpt lat="47.537323" lon="1.8104972">
        <ele>140.0</ele>
        <time>2022-02-10T09:41:00Z</time>
      </trkpt>
      <trkpt lat="47.53733" lon="1.8105052">
        <ele>140.0</ele>
        <time>2022-02-10T09:41:01Z</time>
      </trkpt>
      <trkpt lat="47.53734" lon="1.8105133">
        <ele>139.0</ele>
        <time>2022-02-10T09:41:02Z</time>
      </trkpt>
      <trkpt lat="47.53735" lon="1.8105247">
        <ele>139.0</ele>
        <time>2022-02-10T09:41:03Z</time>
      </trkpt>
      <trkpt lat="47.537357" lon="1.8105297">
        <ele>139.0</ele>
        <time>2022-02-10T09:41:04Z</time>
      </trkpt>
      <trkpt lat="47.53737" lon="1.8105426">
        <ele>139.0</ele>
        <time>2022-02-10T09:41:05Z</time>
      </trkpt>
      <trkpt lat="47.537376" lon="1.8105454">
        <ele>139.0</ele>
        <time>2022-02-10T09:41:06Z</time>
      </trkpt>
      <trkpt lat="47.537384" lon="1.8105471">
        <ele>139.0</ele>
        <time>2022-02-10T09:41:07Z</time>
      </trkpt>
      <trkpt lat="47.537388" lon="1.8105475">
        <ele>140.0</ele>
        <time>2022-02-10T09:41:08Z</time>
      </trkpt>
      <trkpt lat="47.537395" lon="1.8105564">
        <ele>140.0</ele>
        <time>2022-02-10T09:41:09Z</time>
      </trkpt>
      <trkpt lat="47.5374" lon="1.8105665">
        <ele>140.0</ele>
        <time>2022-02-10T09:41:10Z</time>
      </trkpt>
      <trkpt lat="47.537407" lon="1.8105755">
        <ele>140.0</ele>
        <time>2022-02-10T09:41:11Z</time>
      </trkpt>
      <trkpt lat="47.537415" lon="1.8105859">
        <ele>140.0</ele>
        <time>2022-02-10T09:41:12Z</time>
      </trkpt>
      <trkpt lat="47.53742" lon="1.8105903">
        <ele>140.0</ele>
        <time>2022-02-10T09:41:13Z</time>
      </trkpt>
      <trkpt lat="47.537422" lon="1.8105977">
        <ele>140.0</ele>
        <time>2022-02-10T09:41:14Z</time>
      </trkpt>
      <trkpt lat="47.537434" lon="1.8106042">
        <ele>140.0</ele>
        <time>2022-02-10T09:41:15Z</time>
      </trkpt>
      <trkpt lat="47.537445" lon="1.8106087">
        <ele>140.0</ele>
        <time>2022-02-10T09:41:16Z</time>
      </trkpt>
      <trkpt lat="47.53746" lon="1.8106148">
        <ele>140.0</ele>
        <time>2022-02-10T09:41:17Z</time>
      </trkpt>
      <trkpt lat="47.537476" lon="1.8106233">
        <ele>139.0</ele>
        <time>2022-02-10T09:41:18Z</time>
      </trkpt>
      <trkpt lat="47.537483" lon="1.8106314">
        <ele>139.0</ele>
        <time>2022-02-10T09:41:19Z</time>
      </trkpt>
      <trkpt lat="47.53749" lon="1.8106403">
        <ele>139.0</ele>
        <time>2022-02-10T09:41:20Z</time>
      </trkpt>
      <trkpt lat="47.537495" lon="1.8106511">
        <ele>139.0</ele>
        <time>2022-02-10T09:41:21Z</time>
      </trkpt>
      <trkpt lat="47.537506" lon="1.810657">
        <ele>139.0</ele>
        <time>2022-02-10T09:41:22Z</time>
      </trkpt>
      <trkpt lat="47.537518" lon="1.8106649">
        <ele>138.0</ele>
        <time>2022-02-10T09:41:23Z</time>
      </trkpt>
      <trkpt lat="47.537533" lon="1.810675">
        <ele>138.0</ele>
        <time>2022-02-10T09:41:24Z</time>
      </trkpt>
      <trkpt lat="47.537537" lon="1.8106812">
        <ele>138.0</ele>
        <time>2022-02-10T09:41:25Z</time>
      </trkpt>
      <trkpt lat="47.537544" lon="1.8106872">
        <ele>137.0</ele>
        <time>2022-02-10T09:41:26Z</time>
      </trkpt>
      <trkpt lat="47.53755" lon="1.8106924">
        <ele>137.0</ele>
        <time>2022-02-10T09:41:27Z</time>
      </trkpt>
      <trkpt lat="47.53756" lon="1.8106998">
        <ele>136.0</ele>
        <time>2022-02-10T09:41:28Z</time>
      </trkpt>
      <trkpt lat="47.537563" lon="1.8107067">
        <ele>136.0</ele>
        <time>2022-02-10T09:41:29Z</time>
      </trkpt>
      <trkpt lat="47.53757" lon="1.8107132">
        <ele>136.0</ele>
        <time>2022-02-10T09:41:30Z</time>
      </trkpt>
      <trkpt lat="47.53758" lon="1.8107202">
        <ele>136.0</ele>
        <time>2022-02-10T09:41:31Z</time>
      </trkpt>
      <trkpt lat="47.53759" lon="1.8107281">
        <ele>137.0</ele>
        <time>2022-02-10T09:41:32Z</time>
      </trkpt>
      <trkpt lat="47.5376" lon="1.8107381">
        <ele>137.0</ele>
        <time>2022-02-10T09:41:33Z</time>
      </trkpt>
      <trkpt lat="47.53761" lon="1.8107464">
        <ele>137.0</ele>
        <time>2022-02-10T09:41:34Z</time>
      </trkpt>
      <trkpt lat="47.53762" lon="1.8107594">
        <ele>137.0</ele>
        <time>2022-02-10T09:41:35Z</time>
      </trkpt>
      <trkpt lat="47.53763" lon="1.8107666">
        <ele>137.0</ele>
        <time>2022-02-10T09:41:36Z</time>
      </trkpt>
      <trkpt lat="47.537632" lon="1.8107746">
        <ele>137.0</ele>
        <time>2022-02-10T09:41:37Z</time>
      </trkpt>
      <trkpt lat="47.53764" lon="1.8107815">
        <ele>137.0</ele>
        <time>2022-02-10T09:41:38Z</time>
      </trkpt>
      <trkpt lat="47.537647" lon="1.81079">
        <ele>137.0</ele>
        <time>2022-02-10T09:41:39Z</time>
      </trkpt>
      <trkpt lat="47.53766" lon="1.8108046">
        <ele>137.0</ele>
        <time>2022-02-10T09:41:40Z</time>
      </trkpt>
      <trkpt lat="47.53767" lon="1.8108138">
        <ele>137.0</ele>
        <time>2022-02-10T09:41:41Z</time>
      </trkpt>
      <trkpt lat="47.53768" lon="1.8108265">
        <ele>137.0</ele>
        <time>2022-02-10T09:41:42Z</time>
      </trkpt>
      <trkpt lat="47.53769" lon="1.810837">
        <ele>137.0</ele>
        <time>2022-02-10T09:41:43Z</time>
      </trkpt>
      <trkpt lat="47.537697" lon="1.8108469">
        <ele>137.0</ele>
        <time>2022-02-10T09:41:44Z</time>
      </trkpt>
      <trkpt lat="47.537704" lon="1.8108532">
        <ele>137.0</ele>
        <time>2022-02-10T09:41:45Z</time>
      </trkpt>
      <trkpt lat="47.53772" lon="1.8108615">
        <ele>138.0</ele>
        <time>2022-02-10T09:41:46Z</time>
      </trkpt>
      <trkpt lat="47.53773" lon="1.8108687">
        <ele>138.0</ele>
        <time>2022-02-10T09:41:47Z</time>
      </trkpt>
      <trkpt lat="47.537743" lon="1.8108735">
        <ele>138.0</ele>
        <time>2022-02-10T09:41:48Z</time>
      </trkpt>
      <trkpt lat="47.53775" lon="1.8108778">
        <ele>138.0</ele>
        <time>2022-02-10T09:41:49Z</time>
      </trkpt>
      <trkpt lat="47.53776" lon="1.8108863">
        <ele>138.0</ele>
        <time>2022-02-10T09:41:50Z</time>
      </trkpt>
      <trkpt lat="47.537773" lon="1.8108922">
        <ele>138.0</ele>
        <time>2022-02-10T09:41:51Z</time>
      </trkpt>
      <trkpt lat="47.53778" lon="1.8109006">
        <ele>137.0</ele>
        <time>2022-02-10T09:41:52Z</time>
      </trkpt>
      <trkpt lat="47.537792" lon="1.8109082">
        <ele>137.0</ele>
        <time>2022-02-10T09:41:53Z</time>
      </trkpt>
      <trkpt lat="47.537804" lon="1.8109148">
        <ele>136.0</ele>
        <time>2022-02-10T09:41:54Z</time>
      </trkpt>
      <trkpt lat="47.537815" lon="1.8109244">
        <ele>136.0</ele>
        <time>2022-02-10T09:41:55Z</time>
      </trkpt>
      <trkpt lat="47.537827" lon="1.8109316">
        <ele>136.0</ele>
        <time>2022-02-10T09:41:56Z</time>
      </trkpt>
      <trkpt lat="47.53783" lon="1.8109382">
        <ele>136.0</ele>
        <time>2022-02-10T09:41:57Z</time>
      </trkpt>
      <trkpt lat="47.53784" lon="1.8109422">
        <ele>136.0</ele>
        <time>2022-02-10T09:41:58Z</time>
      </trkpt>
      <trkpt lat="47.53785" lon="1.8109453">
        <ele>136.0</ele>
        <time>2022-02-10T09:41:59Z</time>
      </trkpt>
      <trkpt lat="47.537857" lon="1.810952">
        <ele>136.0</ele>
        <time>2022-02-10T09:42:00Z</time>
      </trkpt>
      <trkpt lat="47.537865" lon="1.8109577">
        <ele>136.0</ele>
        <time>2022-02-10T09:42:01Z</time>
      </trkpt>
      <trkpt lat="47.537876" lon="1.810961">
        <ele>135.0</ele>
        <time>2022-02-10T09:42:02Z</time>
      </trkpt>
      <trkpt lat="47.537884" lon="1.8109678">
        <ele>136.0</ele>
        <time>2022-02-10T09:42:03Z</time>
      </trkpt>
      <trkpt lat="47.53789" lon="1.8109813">
        <ele>136.0</ele>
        <time>2022-02-10T09:42:04Z</time>
      </trkpt>
      <trkpt lat="47.5379" lon="1.8109914">
        <ele>136.0</ele>
        <time>2022-02-10T09:42:05Z</time>
      </trkpt>
      <trkpt lat="47.537907" lon="1.811">
        <ele>136.0</ele>
        <time>2022-02-10T09:42:06Z</time>
      </trkpt>
      <trkpt lat="47.537914" lon="1.8110065">
        <ele>135.0</ele>
        <time>2022-02-10T09:42:07Z</time>
      </trkpt>
      <trkpt lat="47.53792" lon="1.8110166">
        <ele>136.0</ele>
        <time>2022-02-10T09:42:08Z</time>
      </trkpt>
      <trkpt lat="47.53792" lon="1.8110166">
        <ele>136.0</ele>
        <time>2022-02-10T09:42:09Z</time>
      </trkpt>
      <trkpt lat="47.53792" lon="1.8110166">
        <ele>136.0</ele>
        <time>2022-02-10T09:42:10Z</time>
      </trkpt>
      <trkpt lat="47.537945" lon="1.8110319">
        <ele>136.0</ele>
        <time>2022-02-10T09:42:11Z</time>
      </trkpt>
      <trkpt lat="47.537952" lon="1.8110424">
        <ele>136.0</ele>
        <time>2022-02-10T09:42:12Z</time>
      </trkpt>
      <trkpt lat="47.537964" lon="1.8110503">
        <ele>135.0</ele>
        <time>2022-02-10T09:42:13Z</time>
      </trkpt>
      <trkpt lat="47.53797" lon="1.8110627">
        <ele>135.0</ele>
        <time>2022-02-10T09:42:14Z</time>
      </trkpt>
      <trkpt lat="47.53798" lon="1.8110727">
        <ele>135.0</ele>
        <time>2022-02-10T09:42:15Z</time>
      </trkpt>
      <trkpt lat="47.537987" lon="1.8110825">
        <ele>135.0</ele>
        <time>2022-02-10T09:42:16Z</time>
      </trkpt>
      <trkpt lat="47.53799" lon="1.8110912">
        <ele>135.0</ele>
        <time>2022-02-10T09:42:17Z</time>
      </trkpt>
      <trkpt lat="47.538002" lon="1.8111013">
        <ele>134.0</ele>
        <time>2022-02-10T09:42:18Z</time>
      </trkpt>
      <trkpt lat="47.53801" lon="1.8111099">
        <ele>134.0</ele>
        <time>2022-02-10T09:42:19Z</time>
      </trkpt>
      <trkpt lat="47.53802" lon="1.8111134">
        <ele>134.0</ele>
        <time>2022-02-10T09:42:20Z</time>
      </trkpt>
      <trkpt lat="47.53803" lon="1.8111209">
        <ele>133.0</ele>
        <time>2022-02-10T09:42:21Z</time>
      </trkpt>
      <trkpt lat="47.538033" lon="1.8111309">
        <ele>133.0</ele>
        <time>2022-02-10T09:42:22Z</time>
      </trkpt>
      <trkpt lat="47.53804" lon="1.8111382">
        <ele>133.0</ele>
        <time>2022-02-10T09:42:23Z</time>
      </trkpt>
      <trkpt lat="47.538044" lon="1.8111465">
        <ele>133.0</ele>
        <time>2022-02-10T09:42:24Z</time>
      </trkpt>
      <trkpt lat="47.53806" lon="1.8111558">
        <ele>133.0</ele>
        <time>2022-02-10T09:42:25Z</time>
      </trkpt>
      <trkpt lat="47.538067" lon="1.8111658">
        <ele>133.0</ele>
        <time>2022-02-10T09:42:26Z</time>
      </trkpt>
      <trkpt lat="47.538074" lon="1.8111761">
        <ele>133.0</ele>
        <time>2022-02-10T09:42:27Z</time>
      </trkpt>
      <trkpt lat="47.538082" lon="1.8111877">
        <ele>133.0</ele>
        <time>2022-02-10T09:42:28Z</time>
      </trkpt>
      <trkpt lat="47.538094" lon="1.8111954">
        <ele>133.0</ele>
        <time>2022-02-10T09:42:29Z</time>
      </trkpt>
      <trkpt lat="47.538105" lon="1.8111997">
        <ele>133.0</ele>
        <time>2022-02-10T09:42:30Z</time>
      </trkpt>
      <trkpt lat="47.538113" lon="1.811209">
        <ele>134.0</ele>
        <time>2022-02-10T09:42:31Z</time>
      </trkpt>
      <trkpt lat="47.538124" lon="1.8112172">
        <ele>134.0</ele>
        <time>2022-02-10T09:42:32Z</time>
      </trkpt>
      <trkpt lat="47.538136" lon="1.8112236">
        <ele>134.0</ele>
        <time>2022-02-10T09:42:33Z</time>
      </trkpt>
      <trkpt lat="47.538143" lon="1.8112239">
        <ele>135.0</ele>
        <time>2022-02-10T09:42:34Z</time>
      </trkpt>
      <trkpt lat="47.53816" lon="1.8112267">
        <ele>134.0</ele>
        <time>2022-02-10T09:42:35Z</time>
      </trkpt>
      <trkpt lat="47.53817" lon="1.8112282">
        <ele>134.0</ele>
        <time>2022-02-10T09:42:36Z</time>
      </trkpt>
      <trkpt lat="47.53818" lon="1.8112411">
        <ele>134.0</ele>
        <time>2022-02-10T09:42:37Z</time>
      </trkpt>
      <trkpt lat="47.538193" lon="1.8112538">
        <ele>134.0</ele>
        <time>2022-02-10T09:42:38Z</time>
      </trkpt>
      <trkpt lat="47.5382" lon="1.8112603">
        <ele>135.0</ele>
        <time>2022-02-10T09:42:39Z</time>
      </trkpt>
      <trkpt lat="47.538216" lon="1.8112676">
        <ele>135.0</ele>
        <time>2022-02-10T09:42:40Z</time>
      </trkpt>
      <trkpt lat="47.538223" lon="1.8112689">
        <ele>135.0</ele>
        <time>2022-02-10T09:42:41Z</time>
      </trkpt>
      <trkpt lat="47.53823" lon="1.8112738">
        <ele>135.0</ele>
        <time>2022-02-10T09:42:42Z</time>
      </trkpt>
      <trkpt lat="47.538242" lon="1.8112782">
        <ele>135.0</ele>
        <time>2022-02-10T09:42:43Z</time>
      </trkpt>
      <trkpt lat="47.538254" lon="1.8112886">
        <ele>135.0</ele>
        <time>2022-02-10T09:42:44Z</time>
      </trkpt>
      <trkpt lat="47.53826" lon="1.8112981">
        <ele>135.0</ele>
        <time>2022-02-10T09:42:45Z</time>
      </trkpt>
      <trkpt lat="47.538273" lon="1.8113064">
        <ele>136.0</ele>
        <time>2022-02-10T09:42:46Z</time>
      </trkpt>
      <trkpt lat="47.53829" lon="1.8113202">
        <ele>136.0</ele>
        <time>2022-02-10T09:42:47Z</time>
      </trkpt>
      <trkpt lat="47.538296" lon="1.8113359">
        <ele>136.0</ele>
        <time>2022-02-10T09:42:48Z</time>
      </trkpt>
      <trkpt lat="47.538303" lon="1.8113478">
        <ele>136.0</ele>
        <time>2022-02-10T09:42:49Z</time>
      </trkpt>
      <trkpt lat="47.538315" lon="1.8113557">
        <ele>136.0</ele>
        <time>2022-02-10T09:42:50Z</time>
      </trkpt>
      <trkpt lat="47.538322" lon="1.811362">
        <ele>136.0</ele>
        <time>2022-02-10T09:42:51Z</time>
      </trkpt>
      <trkpt lat="47.538334" lon="1.8113744">
        <ele>136.0</ele>
        <time>2022-02-10T09:42:52Z</time>
      </trkpt>
      <trkpt lat="47.53835" lon="1.8113874">
        <ele>136.0</ele>
        <time>2022-02-10T09:42:53Z</time>
      </trkpt>
      <trkpt lat="47.53836" lon="1.8113964">
        <ele>136.0</ele>
        <time>2022-02-10T09:42:54Z</time>
      </trkpt>
      <trkpt lat="47.538372" lon="1.811403">
        <ele>136.0</ele>
        <time>2022-02-10T09:42:55Z</time>
      </trkpt>
      <trkpt lat="47.53838" lon="1.8114077">
        <ele>137.0</ele>
        <time>2022-02-10T09:42:56Z</time>
      </trkpt>
      <trkpt lat="47.53839" lon="1.8114156">
        <ele>137.0</ele>
        <time>2022-02-10T09:42:57Z</time>
      </trkpt>
      <trkpt lat="47.5384" lon="1.8114258">
        <ele>137.0</ele>
        <time>2022-02-10T09:42:58Z</time>
      </trkpt>
      <trkpt lat="47.53841" lon="1.8114374">
        <ele>137.0</ele>
        <time>2022-02-10T09:42:59Z</time>
      </trkpt>
      <trkpt lat="47.538418" lon="1.8114469">
        <ele>137.0</ele>
        <time>2022-02-10T09:43:00Z</time>
      </trkpt>
      <trkpt lat="47.53843" lon="1.811454">
        <ele>137.0</ele>
        <time>2022-02-10T09:43:01Z</time>
      </trkpt>
      <trkpt lat="47.53844" lon="1.8114603">
        <ele>136.0</ele>
        <time>2022-02-10T09:43:02Z</time>
      </trkpt>
      <trkpt lat="47.538456" lon="1.8114638">
        <ele>137.0</ele>
        <time>2022-02-10T09:43:03Z</time>
      </trkpt>
      <trkpt lat="47.538467" lon="1.8114758">
        <ele>136.0</ele>
        <time>2022-02-10T09:43:04Z</time>
      </trkpt>
      <trkpt lat="47.53848" lon="1.811485">
        <ele>137.0</ele>
        <time>2022-02-10T09:43:05Z</time>
      </trkpt>
      <trkpt lat="47.538486" lon="1.8114957">
        <ele>136.0</ele>
        <time>2022-02-10T09:43:06Z</time>
      </trkpt>
      <trkpt lat="47.538498" lon="1.811506">
        <ele>137.0</ele>
        <time>2022-02-10T09:43:07Z</time>
      </trkpt>
      <trkpt lat="47.53851" lon="1.811515">
        <ele>137.0</ele>
        <time>2022-02-10T09:43:08Z</time>
      </trkpt>
      <trkpt lat="47.53852" lon="1.8115228">
        <ele>137.0</ele>
        <time>2022-02-10T09:43:09Z</time>
      </trkpt>
      <trkpt lat="47.53853" lon="1.8115292">
        <ele>137.0</ele>
        <time>2022-02-10T09:43:10Z</time>
      </trkpt>
      <trkpt lat="47.53854" lon="1.811536">
        <ele>137.0</ele>
        <time>2022-02-10T09:43:11Z</time>
      </trkpt>
      <trkpt lat="47.53855" lon="1.8115427">
        <ele>137.0</ele>
        <time>2022-02-10T09:43:12Z</time>
      </trkpt>
      <trkpt lat="47.53856" lon="1.8115504">
        <ele>137.0</ele>
        <time>2022-02-10T09:43:13Z</time>
      </trkpt>
      <trkpt lat="47.538567" lon="1.8115608">
        <ele>138.0</ele>
        <time>2022-02-10T09:43:14Z</time>
      </trkpt>
      <trkpt lat="47.538578" lon="1.8115711">
        <ele>138.0</ele>
        <time>2022-02-10T09:43:15Z</time>
      </trkpt>
      <trkpt lat="47.538586" lon="1.8115792">
        <ele>138.0</ele>
        <time>2022-02-10T09:43:16Z</time>
      </trkpt>
      <trkpt lat="47.538593" lon="1.8115895">
        <ele>138.0</ele>
        <time>2022-02-10T09:43:17Z</time>
      </trkpt>
      <trkpt lat="47.538605" lon="1.8115983">
        <ele>138.0</ele>
        <time>2022-02-10T09:43:18Z</time>
      </trkpt>
      <trkpt lat="47.538616" lon="1.8116047">
        <ele>138.0</ele>
        <time>2022-02-10T09:43:19Z</time>
      </trkpt>
      <trkpt lat="47.538628" lon="1.8116169">
        <ele>138.0</ele>
        <time>2022-02-10T09:43:20Z</time>
      </trkpt>
      <trkpt lat="47.53864" lon="1.8116297">
        <ele>138.0</ele>
        <time>2022-02-10T09:43:21Z</time>
      </trkpt>
      <trkpt lat="47.538647" lon="1.8116407">
        <ele>138.0</ele>
        <time>2022-02-10T09:43:22Z</time>
      </trkpt>
      <trkpt lat="47.538654" lon="1.8116479">
        <ele>139.0</ele>
        <time>2022-02-10T09:43:23Z</time>
      </trkpt>
      <trkpt lat="47.538662" lon="1.8116544">
        <ele>139.0</ele>
        <time>2022-02-10T09:43:24Z</time>
      </trkpt>
      <trkpt lat="47.538673" lon="1.8116645">
        <ele>139.0</ele>
        <time>2022-02-10T09:43:25Z</time>
      </trkpt>
      <trkpt lat="47.538685" lon="1.8116754">
        <ele>139.0</ele>
        <time>2022-02-10T09:43:26Z</time>
      </trkpt>
      <trkpt lat="47.5387" lon="1.8116814">
        <ele>139.0</ele>
        <time>2022-02-10T09:43:27Z</time>
      </trkpt>
      <trkpt lat="47.53871" lon="1.8116878">
        <ele>140.0</ele>
        <time>2022-02-10T09:43:28Z</time>
      </trkpt>
      <trkpt lat="47.538715" lon="1.811699">
        <ele>140.0</ele>
        <time>2022-02-10T09:43:29Z</time>
      </trkpt>
      <trkpt lat="47.538723" lon="1.8117107">
        <ele>140.0</ele>
        <time>2022-02-10T09:43:30Z</time>
      </trkpt>
      <trkpt lat="47.538734" lon="1.8117217">
        <ele>140.0</ele>
        <time>2022-02-10T09:43:31Z</time>
      </trkpt>
      <trkpt lat="47.538742" lon="1.8117311">
        <ele>140.0</ele>
        <time>2022-02-10T09:43:32Z</time>
      </trkpt>
      <trkpt lat="47.538754" lon="1.8117414">
        <ele>140.0</ele>
        <time>2022-02-10T09:43:33Z</time>
      </trkpt>
      <trkpt lat="47.53876" lon="1.8117524">
        <ele>140.0</ele>
        <time>2022-02-10T09:43:34Z</time>
      </trkpt>
      <trkpt lat="47.53877" lon="1.8117654">
        <ele>140.0</ele>
        <time>2022-02-10T09:43:35Z</time>
      </trkpt>
      <trkpt lat="47.538776" lon="1.8117782">
        <ele>140.0</ele>
        <time>2022-02-10T09:43:36Z</time>
      </trkpt>
      <trkpt lat="47.538788" lon="1.8117877">
        <ele>141.0</ele>
        <time>2022-02-10T09:43:37Z</time>
      </trkpt>
      <trkpt lat="47.5388" lon="1.8117962">
        <ele>141.0</ele>
        <time>2022-02-10T09:43:38Z</time>
      </trkpt>
      <trkpt lat="47.53881" lon="1.811803">
        <ele>141.0</ele>
        <time>2022-02-10T09:43:39Z</time>
      </trkpt>
      <trkpt lat="47.538822" lon="1.8118116">
        <ele>141.0</ele>
        <time>2022-02-10T09:43:40Z</time>
      </trkpt>
      <trkpt lat="47.538826" lon="1.8118184">
        <ele>142.0</ele>
        <time>2022-02-10T09:43:41Z</time>
      </trkpt>
      <trkpt lat="47.538834" lon="1.8118248">
        <ele>142.0</ele>
        <time>2022-02-10T09:43:42Z</time>
      </trkpt>
      <trkpt lat="47.53884" lon="1.8118335">
        <ele>142.0</ele>
        <time>2022-02-10T09:43:43Z</time>
      </trkpt>
      <trkpt lat="47.538857" lon="1.8118386">
        <ele>142.0</ele>
        <time>2022-02-10T09:43:44Z</time>
      </trkpt>
      <trkpt lat="47.538868" lon="1.811853">
        <ele>143.0</ele>
        <time>2022-02-10T09:43:45Z</time>
      </trkpt>
      <trkpt lat="47.53888" lon="1.811868">
        <ele>143.0</ele>
        <time>2022-02-10T09:43:46Z</time>
      </trkpt>
      <trkpt lat="47.53889" lon="1.8118742">
        <ele>143.0</ele>
        <time>2022-02-10T09:43:47Z</time>
      </trkpt>
      <trkpt lat="47.5389" lon="1.8118827">
        <ele>143.0</ele>
        <time>2022-02-10T09:43:48Z</time>
      </trkpt>
      <trkpt lat="47.538906" lon="1.8118918">
        <ele>143.0</ele>
        <time>2022-02-10T09:43:49Z</time>
      </trkpt>
      <trkpt lat="47.538914" lon="1.811902">
        <ele>143.0</ele>
        <time>2022-02-10T09:43:50Z</time>
      </trkpt>
      <trkpt lat="47.538925" lon="1.8119075">
        <ele>143.0</ele>
        <time>2022-02-10T09:43:51Z</time>
      </trkpt>
      <trkpt lat="47.538933" lon="1.8119148">
        <ele>143.0</ele>
        <time>2022-02-10T09:43:52Z</time>
      </trkpt>
      <trkpt lat="47.538937" lon="1.8119208">
        <ele>143.0</ele>
        <time>2022-02-10T09:43:53Z</time>
      </trkpt>
      <trkpt lat="47.538944" lon="1.8119286">
        <ele>143.0</ele>
        <time>2022-02-10T09:43:54Z</time>
      </trkpt>
      <trkpt lat="47.538948" lon="1.8119372">
        <ele>143.0</ele>
        <time>2022-02-10T09:43:55Z</time>
      </trkpt>
      <trkpt lat="47.53896" lon="1.8119428">
        <ele>143.0</ele>
        <time>2022-02-10T09:43:56Z</time>
      </trkpt>
      <trkpt lat="47.538967" lon="1.8119546">
        <ele>143.0</ele>
        <time>2022-02-10T09:43:57Z</time>
      </trkpt>
      <trkpt lat="47.538975" lon="1.8119636">
        <ele>143.0</ele>
        <time>2022-02-10T09:43:58Z</time>
      </trkpt>
      <trkpt lat="47.538986" lon="1.811973">
        <ele>142.0</ele>
        <time>2022-02-10T09:43:59Z</time>
      </trkpt>
      <trkpt lat="47.538998" lon="1.8119814">
        <ele>142.0</ele>
        <time>2022-02-10T09:44:00Z</time>
      </trkpt>
      <trkpt lat="47.539005" lon="1.8119959">
        <ele>142.0</ele>
        <time>2022-02-10T09:44:01Z</time>
      </trkpt>
      <trkpt lat="47.539013" lon="1.8120068">
        <ele>142.0</ele>
        <time>2022-02-10T09:44:02Z</time>
      </trkpt>
      <trkpt lat="47.539024" lon="1.8120164">
        <ele>142.0</ele>
        <time>2022-02-10T09:44:03Z</time>
      </trkpt>
      <trkpt lat="47.539036" lon="1.8120215">
        <ele>142.0</ele>
        <time>2022-02-10T09:44:04Z</time>
      </trkpt>
      <trkpt lat="47.539043" lon="1.8120271">
        <ele>142.0</ele>
        <time>2022-02-10T09:44:05Z</time>
      </trkpt>
      <trkpt lat="47.539055" lon="1.8120344">
        <ele>142.0</ele>
        <time>2022-02-10T09:44:06Z</time>
      </trkpt>
      <trkpt lat="47.539062" lon="1.8120432">
        <ele>141.0</ele>
        <time>2022-02-10T09:44:07Z</time>
      </trkpt>
      <trkpt lat="47.53907" lon="1.8120517">
        <ele>141.0</ele>
        <time>2022-02-10T09:44:08Z</time>
      </trkpt>
      <trkpt lat="47.53908" lon="1.812061">
        <ele>141.0</ele>
        <time>2022-02-10T09:44:09Z</time>
      </trkpt>
      <trkpt lat="47.539093" lon="1.8120738">
        <ele>142.0</ele>
        <time>2022-02-10T09:44:10Z</time>
      </trkpt>
      <trkpt lat="47.539097" lon="1.8120875">
        <ele>142.0</ele>
        <time>2022-02-10T09:44:11Z</time>
      </trkpt>
      <trkpt lat="47.539104" lon="1.8121027">
        <ele>142.0</ele>
        <time>2022-02-10T09:44:12Z</time>
      </trkpt>
      <trkpt lat="47.539112" lon="1.8121146">
        <ele>142.0</ele>
        <time>2022-02-10T09:44:13Z</time>
      </trkpt>
      <trkpt lat="47.53912" lon="1.812127">
        <ele>143.0</ele>
        <time>2022-02-10T09:44:14Z</time>
      </trkpt>
      <trkpt lat="47.539127" lon="1.8121351">
        <ele>143.0</ele>
        <time>2022-02-10T09:44:15Z</time>
      </trkpt>
      <trkpt lat="47.539135" lon="1.8121465">
        <ele>143.0</ele>
        <time>2022-02-10T09:44:16Z</time>
      </trkpt>
      <trkpt lat="47.53914" lon="1.8121551">
        <ele>144.0</ele>
        <time>2022-02-10T09:44:17Z</time>
      </trkpt>
      <trkpt lat="47.539146" lon="1.8121644">
        <ele>144.0</ele>
        <time>2022-02-10T09:44:18Z</time>
      </trkpt>
      <trkpt lat="47.53915" lon="1.8121738">
        <ele>143.0</ele>
        <time>2022-02-10T09:44:19Z</time>
      </trkpt>
      <trkpt lat="47.539158" lon="1.812188">
        <ele>143.0</ele>
        <time>2022-02-10T09:44:20Z</time>
      </trkpt>
      <trkpt lat="47.53917" lon="1.812202">
        <ele>143.0</ele>
        <time>2022-02-10T09:44:21Z</time>
      </trkpt>
      <trkpt lat="47.539177" lon="1.8122138">
        <ele>142.0</ele>
        <time>2022-02-10T09:44:22Z</time>
      </trkpt>
      <trkpt lat="47.539185" lon="1.8122256">
        <ele>142.0</ele>
        <time>2022-02-10T09:44:23Z</time>
      </trkpt>
      <trkpt lat="47.539192" lon="1.8122365">
        <ele>142.0</ele>
        <time>2022-02-10T09:44:24Z</time>
      </trkpt>
      <trkpt lat="47.5392" lon="1.8122454">
        <ele>142.0</ele>
        <time>2022-02-10T09:44:25Z</time>
      </trkpt>
      <trkpt lat="47.539207" lon="1.8122569">
        <ele>142.0</ele>
        <time>2022-02-10T09:44:26Z</time>
      </trkpt>
      <trkpt lat="47.53922" lon="1.8122678">
        <ele>142.0</ele>
        <time>2022-02-10T09:44:27Z</time>
      </trkpt>
      <trkpt lat="47.53923" lon="1.8122753">
        <ele>142.0</ele>
        <time>2022-02-10T09:44:28Z</time>
      </trkpt>
      <trkpt lat="47.539238" lon="1.8122851">
        <ele>142.0</ele>
        <time>2022-02-10T09:44:29Z</time>
      </trkpt>
      <trkpt lat="47.53925" lon="1.8122925">
        <ele>142.0</ele>
        <time>2022-02-10T09:44:30Z</time>
      </trkpt>
      <trkpt lat="47.539253" lon="1.812301">
        <ele>142.0</ele>
        <time>2022-02-10T09:44:31Z</time>
      </trkpt>
      <trkpt lat="47.53926" lon="1.8123101">
        <ele>142.0</ele>
        <time>2022-02-10T09:44:32Z</time>
      </trkpt>
      <trkpt lat="47.53927" lon="1.8123194">
        <ele>142.0</ele>
        <time>2022-02-10T09:44:33Z</time>
      </trkpt>
      <trkpt lat="47.539276" lon="1.8123295">
        <ele>142.0</ele>
        <time>2022-02-10T09:44:34Z</time>
      </trkpt>
      <trkpt lat="47.539284" lon="1.8123409">
        <ele>142.0</ele>
        <time>2022-02-10T09:44:35Z</time>
      </trkpt>
      <trkpt lat="47.539295" lon="1.812349">
        <ele>142.0</ele>
        <time>2022-02-10T09:44:36Z</time>
      </trkpt>
      <trkpt lat="47.539307" lon="1.8123589">
        <ele>142.0</ele>
        <time>2022-02-10T09:44:37Z</time>
      </trkpt>
      <trkpt lat="47.539318" lon="1.8123648">
        <ele>141.0</ele>
        <time>2022-02-10T09:44:38Z</time>
      </trkpt>
      <trkpt lat="47.53933" lon="1.8123723">
        <ele>141.0</ele>
        <time>2022-02-10T09:44:39Z</time>
      </trkpt>
      <trkpt lat="47.539337" lon="1.8123815">
        <ele>141.0</ele>
        <time>2022-02-10T09:44:40Z</time>
      </trkpt>
      <trkpt lat="47.539345" lon="1.8123931">
        <ele>141.0</ele>
        <time>2022-02-10T09:44:41Z</time>
      </trkpt>
      <trkpt lat="47.539356" lon="1.8124013">
        <ele>142.0</ele>
        <time>2022-02-10T09:44:42Z</time>
      </trkpt>
      <trkpt lat="47.53936" lon="1.8124084">
        <ele>141.0</ele>
        <time>2022-02-10T09:44:43Z</time>
      </trkpt>
      <trkpt lat="47.53937" lon="1.8124217">
        <ele>141.0</ele>
        <time>2022-02-10T09:44:44Z</time>
      </trkpt>
      <trkpt lat="47.539383" lon="1.8124306">
        <ele>141.0</ele>
        <time>2022-02-10T09:44:45Z</time>
      </trkpt>
      <trkpt lat="47.53939" lon="1.812439">
        <ele>141.0</ele>
        <time>2022-02-10T09:44:46Z</time>
      </trkpt>
      <trkpt lat="47.5394" lon="1.8124511">
        <ele>141.0</ele>
        <time>2022-02-10T09:44:47Z</time>
      </trkpt>
      <trkpt lat="47.539406" lon="1.812463">
        <ele>141.0</ele>
        <time>2022-02-10T09:44:48Z</time>
      </trkpt>
      <trkpt lat="47.539413" lon="1.812471">
        <ele>142.0</ele>
        <time>2022-02-10T09:44:49Z</time>
      </trkpt>
      <trkpt lat="47.53942" lon="1.8124783">
        <ele>142.0</ele>
        <time>2022-02-10T09:44:50Z</time>
      </trkpt>
      <trkpt lat="47.539425" lon="1.8124853">
        <ele>142.0</ele>
        <time>2022-02-10T09:44:51Z</time>
      </trkpt>
      <trkpt lat="47.53943" lon="1.8124955">
        <ele>142.0</ele>
        <time>2022-02-10T09:44:52Z</time>
      </trkpt>
      <trkpt lat="47.539436" lon="1.812509">
        <ele>142.0</ele>
        <time>2022-02-10T09:44:53Z</time>
      </trkpt>
      <trkpt lat="47.539448" lon="1.8125181">
        <ele>142.0</ele>
        <time>2022-02-10T09:44:54Z</time>
      </trkpt>
      <trkpt lat="47.53945" lon="1.8125283">
        <ele>142.0</ele>
        <time>2022-02-10T09:44:55Z</time>
      </trkpt>
      <trkpt lat="47.539467" lon="1.8125393">
        <ele>142.0</ele>
        <time>2022-02-10T09:44:56Z</time>
      </trkpt>
      <trkpt lat="47.539474" lon="1.8125476">
        <ele>142.0</ele>
        <time>2022-02-10T09:44:57Z</time>
      </trkpt>
      <trkpt lat="47.539482" lon="1.8125563">
        <ele>143.0</ele>
        <time>2022-02-10T09:44:58Z</time>
      </trkpt>
      <trkpt lat="47.53949" lon="1.8125657">
        <ele>142.0</ele>
        <time>2022-02-10T09:44:59Z</time>
      </trkpt>
      <trkpt lat="47.5395" lon="1.812574">
        <ele>142.0</ele>
        <time>2022-02-10T09:45:00Z</time>
      </trkpt>
      <trkpt lat="47.53951" lon="1.812584">
        <ele>142.0</ele>
        <time>2022-02-10T09:45:01Z</time>
      </trkpt>
      <trkpt lat="47.539513" lon="1.812591">
        <ele>143.0</ele>
        <time>2022-02-10T09:45:02Z</time>
      </trkpt>
      <trkpt lat="47.53952" lon="1.812598">
        <ele>143.0</ele>
        <time>2022-02-10T09:45:03Z</time>
      </trkpt>
      <trkpt lat="47.539524" lon="1.8126048">
        <ele>142.0</ele>
        <time>2022-02-10T09:45:04Z</time>
      </trkpt>
      <trkpt lat="47.539536" lon="1.8126199">
        <ele>142.0</ele>
        <time>2022-02-10T09:45:05Z</time>
      </trkpt>
      <trkpt lat="47.539536" lon="1.8126199">
        <ele>142.0</ele>
        <time>2022-02-10T09:45:06Z</time>
      </trkpt>
      <trkpt lat="47.539536" lon="1.8126199">
        <ele>142.0</ele>
        <time>2022-02-10T09:45:07Z</time>
      </trkpt>
      <trkpt lat="47.539555" lon="1.8126391">
        <ele>142.0</ele>
        <time>2022-02-10T09:45:08Z</time>
      </trkpt>
      <trkpt lat="47.539562" lon="1.8126473">
        <ele>142.0</ele>
        <time>2022-02-10T09:45:09Z</time>
      </trkpt>
      <trkpt lat="47.53957" lon="1.8126568">
        <ele>142.0</ele>
        <time>2022-02-10T09:45:10Z</time>
      </trkpt>
      <trkpt lat="47.539577" lon="1.8126636">
        <ele>141.0</ele>
        <time>2022-02-10T09:45:11Z</time>
      </trkpt>
      <trkpt lat="47.539585" lon="1.8126744">
        <ele>141.0</ele>
        <time>2022-02-10T09:45:12Z</time>
      </trkpt>
      <trkpt lat="47.53959" lon="1.8126818">
        <ele>142.0</ele>
        <time>2022-02-10T09:45:13Z</time>
      </trkpt>
      <trkpt lat="47.539593" lon="1.8126895">
        <ele>142.0</ele>
        <time>2022-02-10T09:45:14Z</time>
      </trkpt>
      <trkpt lat="47.5396" lon="1.8126991">
        <ele>142.0</ele>
        <time>2022-02-10T09:45:15Z</time>
      </trkpt>
      <trkpt lat="47.539608" lon="1.8127085">
        <ele>142.0</ele>
        <time>2022-02-10T09:45:16Z</time>
      </trkpt>
      <trkpt lat="47.539616" lon="1.8127174">
        <ele>142.0</ele>
        <time>2022-02-10T09:45:17Z</time>
      </trkpt>
      <trkpt lat="47.539627" lon="1.8127267">
        <ele>142.0</ele>
        <time>2022-02-10T09:45:18Z</time>
      </trkpt>
      <trkpt lat="47.539635" lon="1.8127373">
        <ele>142.0</ele>
        <time>2022-02-10T09:45:19Z</time>
      </trkpt>
      <trkpt lat="47.539642" lon="1.8127488">
        <ele>142.0</ele>
        <time>2022-02-10T09:45:20Z</time>
      </trkpt>
      <trkpt lat="47.53965" lon="1.8127587">
        <ele>142.0</ele>
        <time>2022-02-10T09:45:21Z</time>
      </trkpt>
      <trkpt lat="47.539658" lon="1.8127689">
        <ele>142.0</ele>
        <time>2022-02-10T09:45:22Z</time>
      </trkpt>
      <trkpt lat="47.539665" lon="1.8127773">
        <ele>142.0</ele>
        <time>2022-02-10T09:45:23Z</time>
      </trkpt>
      <trkpt lat="47.539673" lon="1.8127822">
        <ele>142.0</ele>
        <time>2022-02-10T09:45:24Z</time>
      </trkpt>
      <trkpt lat="47.53968" lon="1.812788">
        <ele>142.0</ele>
        <time>2022-02-10T09:45:25Z</time>
      </trkpt>
      <trkpt lat="47.53969" lon="1.8127943">
        <ele>142.0</ele>
        <time>2022-02-10T09:45:26Z</time>
      </trkpt>
      <trkpt lat="47.539696" lon="1.8128027">
        <ele>142.0</ele>
        <time>2022-02-10T09:45:27Z</time>
      </trkpt>
      <trkpt lat="47.539707" lon="1.8128126">
        <ele>142.0</ele>
        <time>2022-02-10T09:45:28Z</time>
      </trkpt>
      <trkpt lat="47.53972" lon="1.8128233">
        <ele>141.0</ele>
        <time>2022-02-10T09:45:29Z</time>
      </trkpt>
      <trkpt lat="47.539726" lon="1.8128333">
        <ele>141.0</ele>
        <time>2022-02-10T09:45:30Z</time>
      </trkpt>
      <trkpt lat="47.539734" lon="1.8128431">
        <ele>141.0</ele>
        <time>2022-02-10T09:45:31Z</time>
      </trkpt>
      <trkpt lat="47.53974" lon="1.8128501">
        <ele>140.0</ele>
        <time>2022-02-10T09:45:32Z</time>
      </trkpt>
      <trkpt lat="47.539753" lon="1.8128603">
        <ele>140.0</ele>
        <time>2022-02-10T09:45:33Z</time>
      </trkpt>
      <trkpt lat="47.539764" lon="1.8128748">
        <ele>140.0</ele>
        <time>2022-02-10T09:45:34Z</time>
      </trkpt>
      <trkpt lat="47.539772" lon="1.8128783">
        <ele>140.0</ele>
        <time>2022-02-10T09:45:35Z</time>
      </trkpt>
      <trkpt lat="47.539776" lon="1.812886">
        <ele>140.0</ele>
        <time>2022-02-10T09:45:36Z</time>
      </trkpt>
      <trkpt lat="47.53978" lon="1.8128949">
        <ele>141.0</ele>
        <time>2022-02-10T09:45:37Z</time>
      </trkpt>
      <trkpt lat="47.539787" lon="1.8129044">
        <ele>141.0</ele>
        <time>2022-02-10T09:45:38Z</time>
      </trkpt>
      <trkpt lat="47.539795" lon="1.8129169">
        <ele>141.0</ele>
        <time>2022-02-10T09:45:39Z</time>
      </trkpt>
      <trkpt lat="47.539806" lon="1.812931">
        <ele>141.0</ele>
        <time>2022-02-10T09:45:40Z</time>
      </trkpt>
      <trkpt lat="47.539814" lon="1.812949">
        <ele>142.0</ele>
        <time>2022-02-10T09:45:41Z</time>
      </trkpt>
      <trkpt lat="47.53983" lon="1.812958">
        <ele>143.0</ele>
        <time>2022-02-10T09:45:42Z</time>
      </trkpt>
      <trkpt lat="47.53984" lon="1.8129687">
        <ele>143.0</ele>
        <time>2022-02-10T09:45:43Z</time>
      </trkpt>
      <trkpt lat="47.53985" lon="1.8129809">
        <ele>143.0</ele>
        <time>2022-02-10T09:45:44Z</time>
      </trkpt>
      <trkpt lat="47.539856" lon="1.8129947">
        <ele>144.0</ele>
        <time>2022-02-10T09:45:45Z</time>
      </trkpt>
      <trkpt lat="47.539856" lon="1.8130007">
        <ele>144.0</ele>
        <time>2022-02-10T09:45:46Z</time>
      </trkpt>
      <trkpt lat="47.539864" lon="1.8130124">
        <ele>144.0</ele>
        <time>2022-02-10T09:45:47Z</time>
      </trkpt>
      <trkpt lat="47.53987" lon="1.813023">
        <ele>143.0</ele>
        <time>2022-02-10T09:45:48Z</time>
      </trkpt>
      <trkpt lat="47.53987" lon="1.813023">
        <ele>143.0</ele>
        <time>2022-02-10T09:45:49Z</time>
      </trkpt>
      <trkpt lat="47.53987" lon="1.813023">
        <ele>143.0</ele>
        <time>2022-02-10T09:45:50Z</time>
      </trkpt>
      <trkpt lat="47.539886" lon="1.813037">
        <ele>144.0</ele>
        <time>2022-02-10T09:45:51Z</time>
      </trkpt>
      <trkpt lat="47.539894" lon="1.8130445">
        <ele>144.0</ele>
        <time>2022-02-10T09:45:52Z</time>
      </trkpt>
      <trkpt lat="47.539898" lon="1.8130523">
        <ele>144.0</ele>
        <time>2022-02-10T09:45:53Z</time>
      </trkpt>
      <trkpt lat="47.53991" lon="1.8130639">
        <ele>144.0</ele>
        <time>2022-02-10T09:45:54Z</time>
      </trkpt>
      <trkpt lat="47.53991" lon="1.8130639">
        <ele>144.0</ele>
        <time>2022-02-10T09:45:55Z</time>
      </trkpt>
      <trkpt lat="47.53991" lon="1.8130639">
        <ele>144.0</ele>
        <time>2022-02-10T09:45:56Z</time>
      </trkpt>
      <trkpt lat="47.539925" lon="1.8130816">
        <ele>144.0</ele>
        <time>2022-02-10T09:45:57Z</time>
      </trkpt>
      <trkpt lat="47.539936" lon="1.8130864">
        <ele>144.0</ele>
        <time>2022-02-10T09:45:58Z</time>
      </trkpt>
      <trkpt lat="47.539948" lon="1.813095">
        <ele>144.0</ele>
        <time>2022-02-10T09:45:59Z</time>
      </trkpt>
      <trkpt lat="47.539955" lon="1.8130999">
        <ele>144.0</ele>
        <time>2022-02-10T09:46:00Z</time>
      </trkpt>
      <trkpt lat="47.539963" lon="1.8131068">
        <ele>144.0</ele>
        <time>2022-02-10T09:46:01Z</time>
      </trkpt>
      <trkpt lat="47.53997" lon="1.8131111">
        <ele>144.0</ele>
        <time>2022-02-10T09:46:02Z</time>
      </trkpt>
      <trkpt lat="47.539978" lon="1.8131181">
        <ele>144.0</ele>
        <time>2022-02-10T09:46:03Z</time>
      </trkpt>
      <trkpt lat="47.539986" lon="1.8131258">
        <ele>143.0</ele>
        <time>2022-02-10T09:46:04Z</time>
      </trkpt>
      <trkpt lat="47.539997" lon="1.8131354">
        <ele>143.0</ele>
        <time>2022-02-10T09:46:05Z</time>
      </trkpt>
      <trkpt lat="47.539997" lon="1.8131431">
        <ele>142.0</ele>
        <time>2022-02-10T09:46:06Z</time>
      </trkpt>
      <trkpt lat="47.540005" lon="1.8131443">
        <ele>141.0</ele>
        <time>2022-02-10T09:46:07Z</time>
      </trkpt>
      <trkpt lat="47.540012" lon="1.8131492">
        <ele>141.0</ele>
        <time>2022-02-10T09:46:08Z</time>
      </trkpt>
      <trkpt lat="47.540024" lon="1.81316">
        <ele>141.0</ele>
        <time>2022-02-10T09:46:09Z</time>
      </trkpt>
      <trkpt lat="47.540035" lon="1.8131683">
        <ele>140.0</ele>
        <time>2022-02-10T09:46:10Z</time>
      </trkpt>
      <trkpt lat="47.540043" lon="1.8131765">
        <ele>140.0</ele>
        <time>2022-02-10T09:46:11Z</time>
      </trkpt>
      <trkpt lat="47.540054" lon="1.8131888">
        <ele>140.0</ele>
        <time>2022-02-10T09:46:12Z</time>
      </trkpt>
      <trkpt lat="47.540054" lon="1.8131888">
        <ele>140.0</ele>
        <time>2022-02-10T09:46:13Z</time>
      </trkpt>
      <trkpt lat="47.540054" lon="1.8131888">
        <ele>140.0</ele>
        <time>2022-02-10T09:46:14Z</time>
      </trkpt>
      <trkpt lat="47.54007" lon="1.8132211">
        <ele>140.0</ele>
        <time>2022-02-10T09:46:15Z</time>
      </trkpt>
      <trkpt lat="47.540077" lon="1.813238">
        <ele>140.0</ele>
        <time>2022-02-10T09:46:16Z</time>
      </trkpt>
      <trkpt lat="47.540085" lon="1.8132479">
        <ele>140.0</ele>
        <time>2022-02-10T09:46:17Z</time>
      </trkpt>
      <trkpt lat="47.540092" lon="1.8132576">
        <ele>140.0</ele>
        <time>2022-02-10T09:46:18Z</time>
      </trkpt>
      <trkpt lat="47.540092" lon="1.8132576">
        <ele>140.0</ele>
        <time>2022-02-10T09:46:19Z</time>
      </trkpt>
      <trkpt lat="47.540092" lon="1.8132576">
        <ele>140.0</ele>
        <time>2022-02-10T09:46:20Z</time>
      </trkpt>
      <trkpt lat="47.540115" lon="1.8132905">
        <ele>140.0</ele>
        <time>2022-02-10T09:46:21Z</time>
      </trkpt>
      <trkpt lat="47.540127" lon="1.8133022">
        <ele>140.0</ele>
        <time>2022-02-10T09:46:22Z</time>
      </trkpt>
      <trkpt lat="47.540134" lon="1.8133163">
        <ele>140.0</ele>
        <time>2022-02-10T09:46:23Z</time>
      </trkpt>
      <trkpt lat="47.540146" lon="1.8133312">
        <ele>139.0</ele>
        <time>2022-02-10T09:46:24Z</time>
      </trkpt>
      <trkpt lat="47.540154" lon="1.8133492">
        <ele>139.0</ele>
        <time>2022-02-10T09:46:25Z</time>
      </trkpt>
      <trkpt lat="47.54016" lon="1.813366">
        <ele>139.0</ele>
        <time>2022-02-10T09:46:26Z</time>
      </trkpt>
      <trkpt lat="47.54017" lon="1.813386">
        <ele>139.0</ele>
        <time>2022-02-10T09:46:27Z</time>
      </trkpt>
      <trkpt lat="47.540176" lon="1.8134046">
        <ele>140.0</ele>
        <time>2022-02-10T09:46:28Z</time>
      </trkpt>
      <trkpt lat="47.54018" lon="1.8134228">
        <ele>140.0</ele>
        <time>2022-02-10T09:46:29Z</time>
      </trkpt>
      <trkpt lat="47.540188" lon="1.8134384">
        <ele>140.0</ele>
        <time>2022-02-10T09:46:30Z</time>
      </trkpt>
      <trkpt lat="47.540195" lon="1.8134531">
        <ele>139.0</ele>
        <time>2022-02-10T09:46:31Z</time>
      </trkpt>
      <trkpt lat="47.5402" lon="1.8134663">
        <ele>139.0</ele>
        <time>2022-02-10T09:46:32Z</time>
      </trkpt>
      <trkpt lat="47.540203" lon="1.8134813">
        <ele>139.0</ele>
        <time>2022-02-10T09:46:33Z</time>
      </trkpt>
      <trkpt lat="47.540207" lon="1.8134946">
        <ele>139.0</ele>
        <time>2022-02-10T09:46:34Z</time>
      </trkpt>
      <trkpt lat="47.540215" lon="1.8135039">
        <ele>139.0</ele>
        <time>2022-02-10T09:46:35Z</time>
      </trkpt>
      <trkpt lat="47.540215" lon="1.8135152">
        <ele>139.0</ele>
        <time>2022-02-10T09:46:36Z</time>
      </trkpt>
      <trkpt lat="47.54022" lon="1.813524">
        <ele>139.0</ele>
        <time>2022-02-10T09:46:37Z</time>
      </trkpt>
      <trkpt lat="47.54022" lon="1.813524">
        <ele>139.0</ele>
        <time>2022-02-10T09:46:38Z</time>
      </trkpt>
      <trkpt lat="47.54022" lon="1.813524">
        <ele>139.0</ele>
        <time>2022-02-10T09:46:39Z</time>
      </trkpt>
      <trkpt lat="47.540234" lon="1.8135599">
        <ele>138.0</ele>
        <time>2022-02-10T09:46:40Z</time>
      </trkpt>
      <trkpt lat="47.540237" lon="1.813572">
        <ele>138.0</ele>
        <time>2022-02-10T09:46:41Z</time>
      </trkpt>
      <trkpt lat="47.540237" lon="1.8135848">
        <ele>138.0</ele>
        <time>2022-02-10T09:46:42Z</time>
      </trkpt>
      <trkpt lat="47.540245" lon="1.8135905">
        <ele>138.0</ele>
        <time>2022-02-10T09:46:43Z</time>
      </trkpt>
      <trkpt lat="47.540245" lon="1.8135905">
        <ele>138.0</ele>
        <time>2022-02-10T09:46:44Z</time>
      </trkpt>
      <trkpt lat="47.540245" lon="1.8135905">
        <ele>138.0</ele>
        <time>2022-02-10T09:46:45Z</time>
      </trkpt>
      <trkpt lat="47.540264" lon="1.8136263">
        <ele>137.0</ele>
        <time>2022-02-10T09:46:46Z</time>
      </trkpt>
      <trkpt lat="47.540268" lon="1.8136353">
        <ele>137.0</ele>
        <time>2022-02-10T09:46:47Z</time>
      </trkpt>
      <trkpt lat="47.54027" lon="1.8136486">
        <ele>137.0</ele>
        <time>2022-02-10T09:46:48Z</time>
      </trkpt>
      <trkpt lat="47.54028" lon="1.8136644">
        <ele>136.0</ele>
        <time>2022-02-10T09:46:49Z</time>
      </trkpt>
      <trkpt lat="47.54029" lon="1.8136771">
        <ele>136.0</ele>
        <time>2022-02-10T09:46:50Z</time>
      </trkpt>
      <trkpt lat="47.5403" lon="1.8136921">
        <ele>135.0</ele>
        <time>2022-02-10T09:46:51Z</time>
      </trkpt>
      <trkpt lat="47.540306" lon="1.8137033">
        <ele>135.0</ele>
        <time>2022-02-10T09:46:52Z</time>
      </trkpt>
      <trkpt lat="47.540306" lon="1.8137033">
        <ele>135.0</ele>
        <time>2022-02-10T09:46:53Z</time>
      </trkpt>
      <trkpt lat="47.540306" lon="1.8137033">
        <ele>135.0</ele>
        <time>2022-02-10T09:46:54Z</time>
      </trkpt>
      <trkpt lat="47.540325" lon="1.8137386">
        <ele>134.0</ele>
        <time>2022-02-10T09:46:55Z</time>
      </trkpt>
      <trkpt lat="47.540333" lon="1.8137566">
        <ele>133.0</ele>
        <time>2022-02-10T09:46:56Z</time>
      </trkpt>
      <trkpt lat="47.540337" lon="1.8137733">
        <ele>134.0</ele>
        <time>2022-02-10T09:46:57Z</time>
      </trkpt>
      <trkpt lat="47.54034" lon="1.813788">
        <ele>133.0</ele>
        <time>2022-02-10T09:46:58Z</time>
      </trkpt>
      <trkpt lat="47.54034" lon="1.813788">
        <ele>133.0</ele>
        <time>2022-02-10T09:46:59Z</time>
      </trkpt>
      <trkpt lat="47.54034" lon="1.813788">
        <ele>133.0</ele>
        <time>2022-02-10T09:47:00Z</time>
      </trkpt>
      <trkpt lat="47.54036" lon="1.813821">
        <ele>133.0</ele>
        <time>2022-02-10T09:47:01Z</time>
      </trkpt>
      <trkpt lat="47.54037" lon="1.813838">
        <ele>132.0</ele>
        <time>2022-02-10T09:47:02Z</time>
      </trkpt>
      <trkpt lat="47.54038" lon="1.8138515">
        <ele>132.0</ele>
        <time>2022-02-10T09:47:03Z</time>
      </trkpt>
      <trkpt lat="47.540394" lon="1.8138654">
        <ele>132.0</ele>
        <time>2022-02-10T09:47:04Z</time>
      </trkpt>
      <trkpt lat="47.5404" lon="1.8138772">
        <ele>132.0</ele>
        <time>2022-02-10T09:47:05Z</time>
      </trkpt>
      <trkpt lat="47.540413" lon="1.8138814">
        <ele>132.0</ele>
        <time>2022-02-10T09:47:06Z</time>
      </trkpt>
      <trkpt lat="47.540424" lon="1.8138907">
        <ele>133.0</ele>
        <time>2022-02-10T09:47:07Z</time>
      </trkpt>
      <trkpt lat="47.540436" lon="1.8139038">
        <ele>133.0</ele>
        <time>2022-02-10T09:47:08Z</time>
      </trkpt>
      <trkpt lat="47.540443" lon="1.8139186">
        <ele>133.0</ele>
        <time>2022-02-10T09:47:09Z</time>
      </trkpt>
      <trkpt lat="47.54045" lon="1.8139279">
        <ele>134.0</ele>
        <time>2022-02-10T09:47:10Z</time>
      </trkpt>
      <trkpt lat="47.54046" lon="1.8139355">
        <ele>134.0</ele>
        <time>2022-02-10T09:47:11Z</time>
      </trkpt>
      <trkpt lat="47.540474" lon="1.8139446">
        <ele>134.0</ele>
        <time>2022-02-10T09:47:12Z</time>
      </trkpt>
      <trkpt lat="47.54048" lon="1.8139521">
        <ele>134.0</ele>
        <time>2022-02-10T09:47:13Z</time>
      </trkpt>
      <trkpt lat="47.54049" lon="1.8139658">
        <ele>135.0</ele>
        <time>2022-02-10T09:47:14Z</time>
      </trkpt>
      <trkpt lat="47.5405" lon="1.8139757">
        <ele>135.0</ele>
        <time>2022-02-10T09:47:15Z</time>
      </trkpt>
      <trkpt lat="47.540512" lon="1.813985">
        <ele>135.0</ele>
        <time>2022-02-10T09:47:16Z</time>
      </trkpt>
      <trkpt lat="47.540524" lon="1.814">
        <ele>136.0</ele>
        <time>2022-02-10T09:47:17Z</time>
      </trkpt>
      <trkpt lat="47.540527" lon="1.8140152">
        <ele>136.0</ele>
        <time>2022-02-10T09:47:18Z</time>
      </trkpt>
      <trkpt lat="47.540527" lon="1.8140152">
        <ele>136.0</ele>
        <time>2022-02-10T09:47:19Z</time>
      </trkpt>
      <trkpt lat="47.540554" lon="1.814034">
        <ele>136.0</ele>
        <time>2022-02-10T09:47:20Z</time>
      </trkpt>
      <trkpt lat="47.54056" lon="1.8140472">
        <ele>136.0</ele>
        <time>2022-02-10T09:47:21Z</time>
      </trkpt>
      <trkpt lat="47.540565" lon="1.8140639">
        <ele>136.0</ele>
        <time>2022-02-10T09:47:22Z</time>
      </trkpt>
      <trkpt lat="47.540577" lon="1.8140758">
        <ele>136.0</ele>
        <time>2022-02-10T09:47:23Z</time>
      </trkpt>
      <trkpt lat="47.540577" lon="1.8140758">
        <ele>136.0</ele>
        <time>2022-02-10T09:47:24Z</time>
      </trkpt>
      <trkpt lat="47.540577" lon="1.8140758">
        <ele>136.0</ele>
        <time>2022-02-10T09:47:25Z</time>
      </trkpt>
      <trkpt lat="47.5406" lon="1.8141046">
        <ele>136.0</ele>
        <time>2022-02-10T09:47:26Z</time>
      </trkpt>
      <trkpt lat="47.54061" lon="1.8141162">
        <ele>135.0</ele>
        <time>2022-02-10T09:47:27Z</time>
      </trkpt>
      <trkpt lat="47.540623" lon="1.8141311">
        <ele>135.0</ele>
        <time>2022-02-10T09:47:28Z</time>
      </trkpt>
      <trkpt lat="47.54063" lon="1.814146">
        <ele>134.0</ele>
        <time>2022-02-10T09:47:29Z</time>
      </trkpt>
      <trkpt lat="47.54063" lon="1.814146">
        <ele>134.0</ele>
        <time>2022-02-10T09:47:30Z</time>
      </trkpt>
      <trkpt lat="47.54063" lon="1.814146">
        <ele>134.0</ele>
        <time>2022-02-10T09:47:31Z</time>
      </trkpt>
      <trkpt lat="47.540657" lon="1.8141673">
        <ele>134.0</ele>
        <time>2022-02-10T09:47:32Z</time>
      </trkpt>
      <trkpt lat="47.54067" lon="1.8141712">
        <ele>134.0</ele>
        <time>2022-02-10T09:47:33Z</time>
      </trkpt>
      <trkpt lat="47.54068" lon="1.8141795">
        <ele>134.0</ele>
        <time>2022-02-10T09:47:34Z</time>
      </trkpt>
      <trkpt lat="47.540688" lon="1.8141879">
        <ele>134.0</ele>
        <time>2022-02-10T09:47:35Z</time>
      </trkpt>
      <trkpt lat="47.540695" lon="1.814199">
        <ele>134.0</ele>
        <time>2022-02-10T09:47:36Z</time>
      </trkpt>
      <trkpt lat="47.540703" lon="1.814208">
        <ele>134.0</ele>
        <time>2022-02-10T09:47:37Z</time>
      </trkpt>
      <trkpt lat="47.54071" lon="1.8142171">
        <ele>134.0</ele>
        <time>2022-02-10T09:47:38Z</time>
      </trkpt>
      <trkpt lat="47.540718" lon="1.81423">
        <ele>134.0</ele>
        <time>2022-02-10T09:47:39Z</time>
      </trkpt>
      <trkpt lat="47.54072" lon="1.8142399">
        <ele>134.0</ele>
        <time>2022-02-10T09:47:40Z</time>
      </trkpt>
      <trkpt lat="47.54073" lon="1.8142463">
        <ele>135.0</ele>
        <time>2022-02-10T09:47:41Z</time>
      </trkpt>
      <trkpt lat="47.54073" lon="1.8142463">
        <ele>135.0</ele>
        <time>2022-02-10T09:47:42Z</time>
      </trkpt>
      <trkpt lat="47.54073" lon="1.8142463">
        <ele>135.0</ele>
        <time>2022-02-10T09:47:43Z</time>
      </trkpt>
      <trkpt lat="47.540745" lon="1.814272">
        <ele>134.0</ele>
        <time>2022-02-10T09:47:44Z</time>
      </trkpt>
      <trkpt lat="47.540752" lon="1.8142797">
        <ele>134.0</ele>
        <time>2022-02-10T09:47:45Z</time>
      </trkpt>
      <trkpt lat="47.540764" lon="1.81429">
        <ele>134.0</ele>
        <time>2022-02-10T09:47:46Z</time>
      </trkpt>
      <trkpt lat="47.54077" lon="1.8143017">
        <ele>134.0</ele>
        <time>2022-02-10T09:47:47Z</time>
      </trkpt>
      <trkpt lat="47.540783" lon="1.8143175">
        <ele>134.0</ele>
        <time>2022-02-10T09:47:48Z</time>
      </trkpt>
      <trkpt lat="47.540794" lon="1.8143315">
        <ele>134.0</ele>
        <time>2022-02-10T09:47:49Z</time>
      </trkpt>
      <trkpt lat="47.540802" lon="1.8143444">
        <ele>134.0</ele>
        <time>2022-02-10T09:47:50Z</time>
      </trkpt>
      <trkpt lat="47.540813" lon="1.8143538">
        <ele>135.0</ele>
        <time>2022-02-10T09:47:51Z</time>
      </trkpt>
      <trkpt lat="47.54082" lon="1.8143668">
        <ele>135.0</ele>
        <time>2022-02-10T09:47:52Z</time>
      </trkpt>
      <trkpt lat="47.540825" lon="1.8143765">
        <ele>135.0</ele>
        <time>2022-02-10T09:47:53Z</time>
      </trkpt>
      <trkpt lat="47.540833" lon="1.8143885">
        <ele>135.0</ele>
        <time>2022-02-10T09:47:54Z</time>
      </trkpt>
      <trkpt lat="47.54084" lon="1.8144002">
        <ele>135.0</ele>
        <time>2022-02-10T09:47:55Z</time>
      </trkpt>
      <trkpt lat="47.540844" lon="1.8144177">
        <ele>135.0</ele>
        <time>2022-02-10T09:47:56Z</time>
      </trkpt>
      <trkpt lat="47.540855" lon="1.8144301">
        <ele>136.0</ele>
        <time>2022-02-10T09:47:57Z</time>
      </trkpt>
      <trkpt lat="47.540863" lon="1.8144414">
        <ele>136.0</ele>
        <time>2022-02-10T09:47:58Z</time>
      </trkpt>
      <trkpt lat="47.540874" lon="1.814447">
        <ele>136.0</ele>
        <time>2022-02-10T09:47:59Z</time>
      </trkpt>
      <trkpt lat="47.540874" lon="1.814447">
        <ele>136.0</ele>
        <time>2022-02-10T09:48:00Z</time>
      </trkpt>
      <trkpt lat="47.540874" lon="1.814447">
        <ele>136.0</ele>
        <time>2022-02-10T09:48:01Z</time>
      </trkpt>
      <trkpt lat="47.540905" lon="1.8144741">
        <ele>137.0</ele>
        <time>2022-02-10T09:48:02Z</time>
      </trkpt>
      <trkpt lat="47.540913" lon="1.8144833">
        <ele>137.0</ele>
        <time>2022-02-10T09:48:03Z</time>
      </trkpt>
      <trkpt lat="47.540924" lon="1.8144925">
        <ele>137.0</ele>
        <time>2022-02-10T09:48:04Z</time>
      </trkpt>
      <trkpt lat="47.54093" lon="1.8145022">
        <ele>137.0</ele>
        <time>2022-02-10T09:48:05Z</time>
      </trkpt>
      <trkpt lat="47.54094" lon="1.8145131">
        <ele>137.0</ele>
        <time>2022-02-10T09:48:06Z</time>
      </trkpt>
      <trkpt lat="47.54094" lon="1.8145131">
        <ele>137.0</ele>
        <time>2022-02-10T09:48:07Z</time>
      </trkpt>
      <trkpt lat="47.540947" lon="1.8145374">
        <ele>137.0</ele>
        <time>2022-02-10T09:48:08Z</time>
      </trkpt>
      <trkpt lat="47.54095" lon="1.814548">
        <ele>137.0</ele>
        <time>2022-02-10T09:48:09Z</time>
      </trkpt>
      <trkpt lat="47.54096" lon="1.8145599">
        <ele>136.0</ele>
        <time>2022-02-10T09:48:10Z</time>
      </trkpt>
      <trkpt lat="47.540966" lon="1.8145663">
        <ele>136.0</ele>
        <time>2022-02-10T09:48:11Z</time>
      </trkpt>
      <trkpt lat="47.540977" lon="1.8145769">
        <ele>136.0</ele>
        <time>2022-02-10T09:48:12Z</time>
      </trkpt>
      <trkpt lat="47.54099" lon="1.8145913">
        <ele>136.0</ele>
        <time>2022-02-10T09:48:13Z</time>
      </trkpt>
      <trkpt lat="47.541" lon="1.8145998">
        <ele>135.0</ele>
        <time>2022-02-10T09:48:14Z</time>
      </trkpt>
      <trkpt lat="47.54101" lon="1.814617">
        <ele>135.0</ele>
        <time>2022-02-10T09:48:15Z</time>
      </trkpt>
      <trkpt lat="47.541023" lon="1.8146269">
        <ele>135.0</ele>
        <time>2022-02-10T09:48:16Z</time>
      </trkpt>
      <trkpt lat="47.541035" lon="1.8146385">
        <ele>136.0</ele>
        <time>2022-02-10T09:48:17Z</time>
      </trkpt>
      <trkpt lat="47.541042" lon="1.8146509">
        <ele>136.0</ele>
        <time>2022-02-10T09:48:18Z</time>
      </trkpt>
      <trkpt lat="47.541054" lon="1.8146636">
        <ele>136.0</ele>
        <time>2022-02-10T09:48:19Z</time>
      </trkpt>
      <trkpt lat="47.54106" lon="1.8146814">
        <ele>136.0</ele>
        <time>2022-02-10T09:48:20Z</time>
      </trkpt>
      <trkpt lat="47.54107" lon="1.8146956">
        <ele>136.0</ele>
        <time>2022-02-10T09:48:21Z</time>
      </trkpt>
      <trkpt lat="47.54108" lon="1.8147054">
        <ele>137.0</ele>
        <time>2022-02-10T09:48:22Z</time>
      </trkpt>
      <trkpt lat="47.541084" lon="1.8147144">
        <ele>137.0</ele>
        <time>2022-02-10T09:48:23Z</time>
      </trkpt>
      <trkpt lat="47.541092" lon="1.814726">
        <ele>137.0</ele>
        <time>2022-02-10T09:48:24Z</time>
      </trkpt>
      <trkpt lat="47.541103" lon="1.8147359">
        <ele>137.0</ele>
        <time>2022-02-10T09:48:25Z</time>
      </trkpt>
      <trkpt lat="47.54112" lon="1.81475">
        <ele>137.0</ele>
        <time>2022-02-10T09:48:26Z</time>
      </trkpt>
      <trkpt lat="47.541134" lon="1.8147618">
        <ele>137.0</ele>
        <time>2022-02-10T09:48:27Z</time>
      </trkpt>
      <trkpt lat="47.541145" lon="1.8147727">
        <ele>137.0</ele>
        <time>2022-02-10T09:48:28Z</time>
      </trkpt>
      <trkpt lat="47.541157" lon="1.8147827">
        <ele>137.0</ele>
        <time>2022-02-10T09:48:29Z</time>
      </trkpt>
      <trkpt lat="47.54117" lon="1.814796">
        <ele>137.0</ele>
        <time>2022-02-10T09:48:30Z</time>
      </trkpt>
      <trkpt lat="47.541176" lon="1.814803">
        <ele>137.0</ele>
        <time>2022-02-10T09:48:31Z</time>
      </trkpt>
      <trkpt lat="47.541183" lon="1.8148175">
        <ele>137.0</ele>
        <time>2022-02-10T09:48:32Z</time>
      </trkpt>
      <trkpt lat="47.54119" lon="1.8148277">
        <ele>137.0</ele>
        <time>2022-02-10T09:48:33Z</time>
      </trkpt>
      <trkpt lat="47.5412" lon="1.8148382">
        <ele>137.0</ele>
        <time>2022-02-10T09:48:34Z</time>
      </trkpt>
      <trkpt lat="47.541206" lon="1.814848">
        <ele>136.0</ele>
        <time>2022-02-10T09:48:35Z</time>
      </trkpt>
      <trkpt lat="47.541214" lon="1.8148568">
        <ele>137.0</ele>
        <time>2022-02-10T09:48:36Z</time>
      </trkpt>
      <trkpt lat="47.541225" lon="1.8148655">
        <ele>137.0</ele>
        <time>2022-02-10T09:48:37Z</time>
      </trkpt>
      <trkpt lat="47.541233" lon="1.814874">
        <ele>137.0</ele>
        <time>2022-02-10T09:48:38Z</time>
      </trkpt>
      <trkpt lat="47.54124" lon="1.8148848">
        <ele>137.0</ele>
        <time>2022-02-10T09:48:39Z</time>
      </trkpt>
      <trkpt lat="47.541252" lon="1.8148949">
        <ele>137.0</ele>
        <time>2022-02-10T09:48:40Z</time>
      </trkpt>
      <trkpt lat="47.541256" lon="1.8149033">
        <ele>138.0</ele>
        <time>2022-02-10T09:48:41Z</time>
      </trkpt>
      <trkpt lat="47.541267" lon="1.8149148">
        <ele>138.0</ele>
        <time>2022-02-10T09:48:42Z</time>
      </trkpt>
      <trkpt lat="47.541275" lon="1.8149259">
        <ele>139.0</ele>
        <time>2022-02-10T09:48:43Z</time>
      </trkpt>
      <trkpt lat="47.541286" lon="1.8149384">
        <ele>139.0</ele>
        <time>2022-02-10T09:48:44Z</time>
      </trkpt>
      <trkpt lat="47.541298" lon="1.8149501">
        <ele>140.0</ele>
        <time>2022-02-10T09:48:45Z</time>
      </trkpt>
      <trkpt lat="47.54131" lon="1.8149598">
        <ele>140.0</ele>
        <time>2022-02-10T09:48:46Z</time>
      </trkpt>
      <trkpt lat="47.541325" lon="1.8149651">
        <ele>141.0</ele>
        <time>2022-02-10T09:48:47Z</time>
      </trkpt>
      <trkpt lat="47.54134" lon="1.8149754">
        <ele>141.0</ele>
        <time>2022-02-10T09:48:48Z</time>
      </trkpt>
      <trkpt lat="47.54135" lon="1.8149847">
        <ele>141.0</ele>
        <time>2022-02-10T09:48:49Z</time>
      </trkpt>
      <trkpt lat="47.541367" lon="1.814996">
        <ele>141.0</ele>
        <time>2022-02-10T09:48:50Z</time>
      </trkpt>
      <trkpt lat="47.54138" lon="1.8150079">
        <ele>141.0</ele>
        <time>2022-02-10T09:48:51Z</time>
      </trkpt>
      <trkpt lat="47.541393" lon="1.8150176">
        <ele>142.0</ele>
        <time>2022-02-10T09:48:52Z</time>
      </trkpt>
      <trkpt lat="47.541405" lon="1.8150252">
        <ele>142.0</ele>
        <time>2022-02-10T09:48:53Z</time>
      </trkpt>
      <trkpt lat="47.541416" lon="1.8150328">
        <ele>142.0</ele>
        <time>2022-02-10T09:48:54Z</time>
      </trkpt>
      <trkpt lat="47.541428" lon="1.815041">
        <ele>143.0</ele>
        <time>2022-02-10T09:48:55Z</time>
      </trkpt>
      <trkpt lat="47.541435" lon="1.8150493">
        <ele>143.0</ele>
        <time>2022-02-10T09:48:56Z</time>
      </trkpt>
      <trkpt lat="47.541447" lon="1.8150572">
        <ele>143.0</ele>
        <time>2022-02-10T09:48:57Z</time>
      </trkpt>
      <trkpt lat="47.541454" lon="1.8150693">
        <ele>144.0</ele>
        <time>2022-02-10T09:48:58Z</time>
      </trkpt>
      <trkpt lat="47.541466" lon="1.8150798">
        <ele>144.0</ele>
        <time>2022-02-10T09:48:59Z</time>
      </trkpt>
      <trkpt lat="47.54148" lon="1.81509">
        <ele>144.0</ele>
        <time>2022-02-10T09:49:00Z</time>
      </trkpt>
      <trkpt lat="47.541496" lon="1.8151015">
        <ele>144.0</ele>
        <time>2022-02-10T09:49:01Z</time>
      </trkpt>
      <trkpt lat="47.541504" lon="1.8151147">
        <ele>145.0</ele>
        <time>2022-02-10T09:49:02Z</time>
      </trkpt>
      <trkpt lat="47.54152" lon="1.8151252">
        <ele>145.0</ele>
        <time>2022-02-10T09:49:03Z</time>
      </trkpt>
      <trkpt lat="47.54153" lon="1.815136">
        <ele>146.0</ele>
        <time>2022-02-10T09:49:04Z</time>
      </trkpt>
      <trkpt lat="47.541542" lon="1.8151482">
        <ele>146.0</ele>
        <time>2022-02-10T09:49:05Z</time>
      </trkpt>
      <trkpt lat="47.541553" lon="1.815159">
        <ele>147.0</ele>
        <time>2022-02-10T09:49:06Z</time>
      </trkpt>
      <trkpt lat="47.541565" lon="1.8151691">
        <ele>147.0</ele>
        <time>2022-02-10T09:49:07Z</time>
      </trkpt>
      <trkpt lat="47.541573" lon="1.8151785">
        <ele>147.0</ele>
        <time>2022-02-10T09:49:08Z</time>
      </trkpt>
      <trkpt lat="47.541588" lon="1.8151864">
        <ele>147.0</ele>
        <time>2022-02-10T09:49:09Z</time>
      </trkpt>
      <trkpt lat="47.541603" lon="1.8151977">
        <ele>148.0</ele>
        <time>2022-02-10T09:49:10Z</time>
      </trkpt>
      <trkpt lat="47.541615" lon="1.8152078">
        <ele>148.0</ele>
        <time>2022-02-10T09:49:11Z</time>
      </trkpt>
      <trkpt lat="47.541626" lon="1.8152171">
        <ele>148.0</ele>
        <time>2022-02-10T09:49:12Z</time>
      </trkpt>
      <trkpt lat="47.541637" lon="1.8152263">
        <ele>148.0</ele>
        <time>2022-02-10T09:49:13Z</time>
      </trkpt>
      <trkpt lat="47.54165" lon="1.8152385">
        <ele>148.0</ele>
        <time>2022-02-10T09:49:14Z</time>
      </trkpt>
      <trkpt lat="47.54166" lon="1.8152511">
        <ele>148.0</ele>
        <time>2022-02-10T09:49:15Z</time>
      </trkpt>
      <trkpt lat="47.541668" lon="1.8152629">
        <ele>149.0</ele>
        <time>2022-02-10T09:49:16Z</time>
      </trkpt>
      <trkpt lat="47.541676" lon="1.8152717">
        <ele>149.0</ele>
        <time>2022-02-10T09:49:17Z</time>
      </trkpt>
      <trkpt lat="47.54168" lon="1.8152801">
        <ele>149.0</ele>
        <time>2022-02-10T09:49:18Z</time>
      </trkpt>
      <trkpt lat="47.54169" lon="1.8152906">
        <ele>150.0</ele>
        <time>2022-02-10T09:49:19Z</time>
      </trkpt>
      <trkpt lat="47.5417" lon="1.8153048">
        <ele>149.0</ele>
        <time>2022-02-10T09:49:20Z</time>
      </trkpt>
      <trkpt lat="47.54171" lon="1.8153199">
        <ele>150.0</ele>
        <time>2022-02-10T09:49:21Z</time>
      </trkpt>
      <trkpt lat="47.541718" lon="1.8153282">
        <ele>150.0</ele>
        <time>2022-02-10T09:49:22Z</time>
      </trkpt>
      <trkpt lat="47.54173" lon="1.8153361">
        <ele>150.0</ele>
        <time>2022-02-10T09:49:23Z</time>
      </trkpt>
      <trkpt lat="47.541733" lon="1.815346">
        <ele>150.0</ele>
        <time>2022-02-10T09:49:24Z</time>
      </trkpt>
      <trkpt lat="47.54174" lon="1.8153542">
        <ele>151.0</ele>
        <time>2022-02-10T09:49:25Z</time>
      </trkpt>
      <trkpt lat="47.54175" lon="1.815365">
        <ele>151.0</ele>
        <time>2022-02-10T09:49:26Z</time>
      </trkpt>
      <trkpt lat="47.541763" lon="1.8153758">
        <ele>151.0</ele>
        <time>2022-02-10T09:49:27Z</time>
      </trkpt>
      <trkpt lat="47.54177" lon="1.8153887">
        <ele>151.0</ele>
        <time>2022-02-10T09:49:28Z</time>
      </trkpt>
      <trkpt lat="47.54178" lon="1.8154016">
        <ele>151.0</ele>
        <time>2022-02-10T09:49:29Z</time>
      </trkpt>
      <trkpt lat="47.541786" lon="1.815415">
        <ele>151.0</ele>
        <time>2022-02-10T09:49:30Z</time>
      </trkpt>
      <trkpt lat="47.541794" lon="1.8154267">
        <ele>152.0</ele>
        <time>2022-02-10T09:49:31Z</time>
      </trkpt>
      <trkpt lat="47.541805" lon="1.8154362">
        <ele>152.0</ele>
        <time>2022-02-10T09:49:32Z</time>
      </trkpt>
      <trkpt lat="47.54181" lon="1.8154459">
        <ele>152.0</ele>
        <time>2022-02-10T09:49:33Z</time>
      </trkpt>
      <trkpt lat="47.54182" lon="1.8154541">
        <ele>152.0</ele>
        <time>2022-02-10T09:49:34Z</time>
      </trkpt>
      <trkpt lat="47.54183" lon="1.8154677">
        <ele>152.0</ele>
        <time>2022-02-10T09:49:35Z</time>
      </trkpt>
      <trkpt lat="47.54184" lon="1.8154776">
        <ele>152.0</ele>
        <time>2022-02-10T09:49:36Z</time>
      </trkpt>
      <trkpt lat="47.541847" lon="1.8154929">
        <ele>152.0</ele>
        <time>2022-02-10T09:49:37Z</time>
      </trkpt>
      <trkpt lat="47.541855" lon="1.815503">
        <ele>152.0</ele>
        <time>2022-02-10T09:49:38Z</time>
      </trkpt>
      <trkpt lat="47.541862" lon="1.815513">
        <ele>152.0</ele>
        <time>2022-02-10T09:49:39Z</time>
      </trkpt>
      <trkpt lat="47.54187" lon="1.8155258">
        <ele>152.0</ele>
        <time>2022-02-10T09:49:40Z</time>
      </trkpt>
      <trkpt lat="47.54188" lon="1.8155395">
        <ele>153.0</ele>
        <time>2022-02-10T09:49:41Z</time>
      </trkpt>
      <trkpt lat="47.54189" lon="1.8155509">
        <ele>153.0</ele>
        <time>2022-02-10T09:49:42Z</time>
      </trkpt>
      <trkpt lat="47.541897" lon="1.8155588">
        <ele>152.0</ele>
        <time>2022-02-10T09:49:43Z</time>
      </trkpt>
      <trkpt lat="47.54191" lon="1.8155638">
        <ele>152.0</ele>
        <time>2022-02-10T09:49:44Z</time>
      </trkpt>
      <trkpt lat="47.541916" lon="1.8155745">
        <ele>152.0</ele>
        <time>2022-02-10T09:49:45Z</time>
      </trkpt>
      <trkpt lat="47.541924" lon="1.8155849">
        <ele>152.0</ele>
        <time>2022-02-10T09:49:46Z</time>
      </trkpt>
      <trkpt lat="47.54193" lon="1.8155919">
        <ele>153.0</ele>
        <time>2022-02-10T09:49:47Z</time>
      </trkpt>
      <trkpt lat="47.541935" lon="1.8156011">
        <ele>153.0</ele>
        <time>2022-02-10T09:49:48Z</time>
      </trkpt>
      <trkpt lat="47.541946" lon="1.8156093">
        <ele>152.0</ele>
        <time>2022-02-10T09:49:49Z</time>
      </trkpt>
      <trkpt lat="47.541954" lon="1.8156188">
        <ele>153.0</ele>
        <time>2022-02-10T09:49:50Z</time>
      </trkpt>
      <trkpt lat="47.54196" lon="1.8156306">
        <ele>152.0</ele>
        <time>2022-02-10T09:49:51Z</time>
      </trkpt>
      <trkpt lat="47.54197" lon="1.8156422">
        <ele>152.0</ele>
        <time>2022-02-10T09:49:52Z</time>
      </trkpt>
      <trkpt lat="47.54198" lon="1.8156546">
        <ele>153.0</ele>
        <time>2022-02-10T09:49:53Z</time>
      </trkpt>
      <trkpt lat="47.54199" lon="1.8156673">
        <ele>153.0</ele>
        <time>2022-02-10T09:49:54Z</time>
      </trkpt>
      <trkpt lat="47.541996" lon="1.8156749">
        <ele>153.0</ele>
        <time>2022-02-10T09:49:55Z</time>
      </trkpt>
      <trkpt lat="47.542004" lon="1.8156854">
        <ele>153.0</ele>
        <time>2022-02-10T09:49:56Z</time>
      </trkpt>
      <trkpt lat="47.54201" lon="1.815698">
        <ele>152.0</ele>
        <time>2022-02-10T09:49:57Z</time>
      </trkpt>
      <trkpt lat="47.54202" lon="1.8157037">
        <ele>152.0</ele>
        <time>2022-02-10T09:49:58Z</time>
      </trkpt>
      <trkpt lat="47.54203" lon="1.8157122">
        <ele>153.0</ele>
        <time>2022-02-10T09:49:59Z</time>
      </trkpt>
      <trkpt lat="47.542038" lon="1.815726">
        <ele>153.0</ele>
        <time>2022-02-10T09:50:00Z</time>
      </trkpt>
      <trkpt lat="47.542046" lon="1.8157417">
        <ele>153.0</ele>
        <time>2022-02-10T09:50:01Z</time>
      </trkpt>
      <trkpt lat="47.542053" lon="1.8157535">
        <ele>153.0</ele>
        <time>2022-02-10T09:50:02Z</time>
      </trkpt>
      <trkpt lat="47.54206" lon="1.8157622">
        <ele>153.0</ele>
        <time>2022-02-10T09:50:03Z</time>
      </trkpt>
      <trkpt lat="47.54207" lon="1.8157766">
        <ele>153.0</ele>
        <time>2022-02-10T09:50:04Z</time>
      </trkpt>
      <trkpt lat="47.54208" lon="1.8157866">
        <ele>154.0</ele>
        <time>2022-02-10T09:50:05Z</time>
      </trkpt>
      <trkpt lat="47.54209" lon="1.8157964">
        <ele>153.0</ele>
        <time>2022-02-10T09:50:06Z</time>
      </trkpt>
      <trkpt lat="47.542103" lon="1.8158014">
        <ele>153.0</ele>
        <time>2022-02-10T09:50:07Z</time>
      </trkpt>
      <trkpt lat="47.54211" lon="1.8158102">
        <ele>153.0</ele>
        <time>2022-02-10T09:50:08Z</time>
      </trkpt>
      <trkpt lat="47.542118" lon="1.8158207">
        <ele>153.0</ele>
        <time>2022-02-10T09:50:09Z</time>
      </trkpt>
      <trkpt lat="47.54213" lon="1.8158345">
        <ele>153.0</ele>
        <time>2022-02-10T09:50:10Z</time>
      </trkpt>
      <trkpt lat="47.54214" lon="1.8158461">
        <ele>153.0</ele>
        <time>2022-02-10T09:50:11Z</time>
      </trkpt>
      <trkpt lat="47.542152" lon="1.8158574">
        <ele>153.0</ele>
        <time>2022-02-10T09:50:12Z</time>
      </trkpt>
      <trkpt lat="47.542156" lon="1.8158711">
        <ele>153.0</ele>
        <time>2022-02-10T09:50:13Z</time>
      </trkpt>
      <trkpt lat="47.542168" lon="1.815881">
        <ele>153.0</ele>
        <time>2022-02-10T09:50:14Z</time>
      </trkpt>
      <trkpt lat="47.54218" lon="1.8158928">
        <ele>153.0</ele>
        <time>2022-02-10T09:50:15Z</time>
      </trkpt>
      <trkpt lat="47.54219" lon="1.8159021">
        <ele>153.0</ele>
        <time>2022-02-10T09:50:16Z</time>
      </trkpt>
      <trkpt lat="47.5422" lon="1.8159078">
        <ele>153.0</ele>
        <time>2022-02-10T09:50:17Z</time>
      </trkpt>
      <trkpt lat="47.542202" lon="1.8159161">
        <ele>153.0</ele>
        <time>2022-02-10T09:50:18Z</time>
      </trkpt>
      <trkpt lat="47.54221" lon="1.8159275">
        <ele>153.0</ele>
        <time>2022-02-10T09:50:19Z</time>
      </trkpt>
      <trkpt lat="47.54222" lon="1.8159338">
        <ele>152.0</ele>
        <time>2022-02-10T09:50:20Z</time>
      </trkpt>
      <trkpt lat="47.54223" lon="1.8159443">
        <ele>152.0</ele>
        <time>2022-02-10T09:50:21Z</time>
      </trkpt>
      <trkpt lat="47.542236" lon="1.8159503">
        <ele>152.0</ele>
        <time>2022-02-10T09:50:22Z</time>
      </trkpt>
      <trkpt lat="47.542244" lon="1.8159603">
        <ele>152.0</ele>
        <time>2022-02-10T09:50:23Z</time>
      </trkpt>
      <trkpt lat="47.54225" lon="1.8159686">
        <ele>153.0</ele>
        <time>2022-02-10T09:50:24Z</time>
      </trkpt>
      <trkpt lat="47.54226" lon="1.8159794">
        <ele>153.0</ele>
        <time>2022-02-10T09:50:25Z</time>
      </trkpt>
      <trkpt lat="47.542267" lon="1.8159919">
        <ele>153.0</ele>
        <time>2022-02-10T09:50:26Z</time>
      </trkpt>
      <trkpt lat="47.542274" lon="1.8160003">
        <ele>153.0</ele>
        <time>2022-02-10T09:50:27Z</time>
      </trkpt>
      <trkpt lat="47.542282" lon="1.8160089">
        <ele>153.0</ele>
        <time>2022-02-10T09:50:28Z</time>
      </trkpt>
      <trkpt lat="47.542294" lon="1.8160174">
        <ele>152.0</ele>
        <time>2022-02-10T09:50:29Z</time>
      </trkpt>
      <trkpt lat="47.542305" lon="1.8160242">
        <ele>152.0</ele>
        <time>2022-02-10T09:50:30Z</time>
      </trkpt>
      <trkpt lat="47.54231" lon="1.8160332">
        <ele>152.0</ele>
        <time>2022-02-10T09:50:31Z</time>
      </trkpt>
      <trkpt lat="47.54232" lon="1.816042">
        <ele>152.0</ele>
        <time>2022-02-10T09:50:32Z</time>
      </trkpt>
      <trkpt lat="47.54233" lon="1.8160541">
        <ele>152.0</ele>
        <time>2022-02-10T09:50:33Z</time>
      </trkpt>
      <trkpt lat="47.54234" lon="1.816066">
        <ele>152.0</ele>
        <time>2022-02-10T09:50:34Z</time>
      </trkpt>
      <trkpt lat="47.542347" lon="1.8160753">
        <ele>152.0</ele>
        <time>2022-02-10T09:50:35Z</time>
      </trkpt>
      <trkpt lat="47.542362" lon="1.8160911">
        <ele>152.0</ele>
        <time>2022-02-10T09:50:36Z</time>
      </trkpt>
      <trkpt lat="47.542377" lon="1.8161016">
        <ele>151.0</ele>
        <time>2022-02-10T09:50:37Z</time>
      </trkpt>
      <trkpt lat="47.542385" lon="1.8161113">
        <ele>151.0</ele>
        <time>2022-02-10T09:50:38Z</time>
      </trkpt>
      <trkpt lat="47.542393" lon="1.816123">
        <ele>151.0</ele>
        <time>2022-02-10T09:50:39Z</time>
      </trkpt>
      <trkpt lat="47.5424" lon="1.8161329">
        <ele>151.0</ele>
        <time>2022-02-10T09:50:40Z</time>
      </trkpt>
      <trkpt lat="47.54241" lon="1.8161467">
        <ele>151.0</ele>
        <time>2022-02-10T09:50:41Z</time>
      </trkpt>
      <trkpt lat="47.542423" lon="1.8161627">
        <ele>150.0</ele>
        <time>2022-02-10T09:50:42Z</time>
      </trkpt>
      <trkpt lat="47.54243" lon="1.8161733">
        <ele>149.0</ele>
        <time>2022-02-10T09:50:43Z</time>
      </trkpt>
      <trkpt lat="47.542442" lon="1.8161798">
        <ele>149.0</ele>
        <time>2022-02-10T09:50:44Z</time>
      </trkpt>
      <trkpt lat="47.54245" lon="1.8161906">
        <ele>149.0</ele>
        <time>2022-02-10T09:50:45Z</time>
      </trkpt>
      <trkpt lat="47.542465" lon="1.8162049">
        <ele>149.0</ele>
        <time>2022-02-10T09:50:46Z</time>
      </trkpt>
      <trkpt lat="47.542477" lon="1.8162197">
        <ele>150.0</ele>
        <time>2022-02-10T09:50:47Z</time>
      </trkpt>
      <trkpt lat="47.542484" lon="1.8162357">
        <ele>149.0</ele>
        <time>2022-02-10T09:50:48Z</time>
      </trkpt>
      <trkpt lat="47.542492" lon="1.8162469">
        <ele>149.0</ele>
        <time>2022-02-10T09:50:49Z</time>
      </trkpt>
      <trkpt lat="47.542503" lon="1.8162599">
        <ele>149.0</ele>
        <time>2022-02-10T09:50:50Z</time>
      </trkpt>
      <trkpt lat="47.54251" lon="1.8162733">
        <ele>149.0</ele>
        <time>2022-02-10T09:50:51Z</time>
      </trkpt>
      <trkpt lat="47.54252" lon="1.8162884">
        <ele>148.0</ele>
        <time>2022-02-10T09:50:52Z</time>
      </trkpt>
      <trkpt lat="47.542522" lon="1.8162986">
        <ele>149.0</ele>
        <time>2022-02-10T09:50:53Z</time>
      </trkpt>
      <trkpt lat="47.54253" lon="1.8163084">
        <ele>149.0</ele>
        <time>2022-02-10T09:50:54Z</time>
      </trkpt>
      <trkpt lat="47.542538" lon="1.8163201">
        <ele>149.0</ele>
        <time>2022-02-10T09:50:55Z</time>
      </trkpt>
      <trkpt lat="47.54255" lon="1.816333">
        <ele>149.0</ele>
        <time>2022-02-10T09:50:56Z</time>
      </trkpt>
      <trkpt lat="47.542557" lon="1.8163445">
        <ele>150.0</ele>
        <time>2022-02-10T09:50:57Z</time>
      </trkpt>
      <trkpt lat="47.542564" lon="1.8163563">
        <ele>150.0</ele>
        <time>2022-02-10T09:50:58Z</time>
      </trkpt>
      <trkpt lat="47.54257" lon="1.8163723">
        <ele>150.0</ele>
        <time>2022-02-10T09:50:59Z</time>
      </trkpt>
      <trkpt lat="47.542576" lon="1.8163836">
        <ele>150.0</ele>
        <time>2022-02-10T09:51:00Z</time>
      </trkpt>
      <trkpt lat="47.542587" lon="1.8163935">
        <ele>150.0</ele>
        <time>2022-02-10T09:51:01Z</time>
      </trkpt>
      <trkpt lat="47.542595" lon="1.8164057">
        <ele>151.0</ele>
        <time>2022-02-10T09:51:02Z</time>
      </trkpt>
      <trkpt lat="47.5426" lon="1.816416">
        <ele>151.0</ele>
        <time>2022-02-10T09:51:03Z</time>
      </trkpt>
      <trkpt lat="47.542606" lon="1.8164248">
        <ele>151.0</ele>
        <time>2022-02-10T09:51:04Z</time>
      </trkpt>
      <trkpt lat="47.542614" lon="1.8164337">
        <ele>151.0</ele>
        <time>2022-02-10T09:51:05Z</time>
      </trkpt>
      <trkpt lat="47.542625" lon="1.8164407">
        <ele>151.0</ele>
        <time>2022-02-10T09:51:06Z</time>
      </trkpt>
      <trkpt lat="47.542637" lon="1.8164501">
        <ele>151.0</ele>
        <time>2022-02-10T09:51:07Z</time>
      </trkpt>
      <trkpt lat="47.542645" lon="1.8164554">
        <ele>150.0</ele>
        <time>2022-02-10T09:51:08Z</time>
      </trkpt>
      <trkpt lat="47.542656" lon="1.8164629">
        <ele>150.0</ele>
        <time>2022-02-10T09:51:09Z</time>
      </trkpt>
      <trkpt lat="47.542664" lon="1.8164762">
        <ele>150.0</ele>
        <time>2022-02-10T09:51:10Z</time>
      </trkpt>
      <trkpt lat="47.542675" lon="1.8164935">
        <ele>150.0</ele>
        <time>2022-02-10T09:51:11Z</time>
      </trkpt>
      <trkpt lat="47.54268" lon="1.8165077">
        <ele>150.0</ele>
        <time>2022-02-10T09:51:12Z</time>
      </trkpt>
      <trkpt lat="47.542686" lon="1.8165218">
        <ele>150.0</ele>
        <time>2022-02-10T09:51:13Z</time>
      </trkpt>
      <trkpt lat="47.542694" lon="1.8165355">
        <ele>149.0</ele>
        <time>2022-02-10T09:51:14Z</time>
      </trkpt>
      <trkpt lat="47.542706" lon="1.8165431">
        <ele>149.0</ele>
        <time>2022-02-10T09:51:15Z</time>
      </trkpt>
      <trkpt lat="47.542713" lon="1.8165513">
        <ele>149.0</ele>
        <time>2022-02-10T09:51:16Z</time>
      </trkpt>
      <trkpt lat="47.542725" lon="1.8165556">
        <ele>149.0</ele>
        <time>2022-02-10T09:51:17Z</time>
      </trkpt>
      <trkpt lat="47.542736" lon="1.816562">
        <ele>149.0</ele>
        <time>2022-02-10T09:51:18Z</time>
      </trkpt>
      <trkpt lat="47.542747" lon="1.8165722">
        <ele>149.0</ele>
        <time>2022-02-10T09:51:19Z</time>
      </trkpt>
      <trkpt lat="47.542755" lon="1.8165804">
        <ele>149.0</ele>
        <time>2022-02-10T09:51:20Z</time>
      </trkpt>
      <trkpt lat="47.542763" lon="1.8165905">
        <ele>149.0</ele>
        <time>2022-02-10T09:51:21Z</time>
      </trkpt>
      <trkpt lat="47.542774" lon="1.8166016">
        <ele>149.0</ele>
        <time>2022-02-10T09:51:22Z</time>
      </trkpt>
      <trkpt lat="47.54278" lon="1.8166109">
        <ele>148.0</ele>
        <time>2022-02-10T09:51:23Z</time>
      </trkpt>
      <trkpt lat="47.542793" lon="1.8166182">
        <ele>148.0</ele>
        <time>2022-02-10T09:51:24Z</time>
      </trkpt>
      <trkpt lat="47.542805" lon="1.8166256">
        <ele>148.0</ele>
        <time>2022-02-10T09:51:25Z</time>
      </trkpt>
      <trkpt lat="47.542816" lon="1.8166332">
        <ele>148.0</ele>
        <time>2022-02-10T09:51:26Z</time>
      </trkpt>
      <trkpt lat="47.542828" lon="1.8166442">
        <ele>148.0</ele>
        <time>2022-02-10T09:51:27Z</time>
      </trkpt>
      <trkpt lat="47.54284" lon="1.8166572">
        <ele>148.0</ele>
        <time>2022-02-10T09:51:28Z</time>
      </trkpt>
      <trkpt lat="47.54285" lon="1.816666">
        <ele>148.0</ele>
        <time>2022-02-10T09:51:29Z</time>
      </trkpt>
      <trkpt lat="47.54286" lon="1.8166797">
        <ele>148.0</ele>
        <time>2022-02-10T09:51:30Z</time>
      </trkpt>
      <trkpt lat="47.542866" lon="1.8166919">
        <ele>149.0</ele>
        <time>2022-02-10T09:51:31Z</time>
      </trkpt>
      <trkpt lat="47.542873" lon="1.8167024">
        <ele>149.0</ele>
        <time>2022-02-10T09:51:32Z</time>
      </trkpt>
      <trkpt lat="47.54288" lon="1.8167118">
        <ele>149.0</ele>
        <time>2022-02-10T09:51:33Z</time>
      </trkpt>
      <trkpt lat="47.542892" lon="1.8167204">
        <ele>148.0</ele>
        <time>2022-02-10T09:51:34Z</time>
      </trkpt>
      <trkpt lat="47.5429" lon="1.8167285">
        <ele>148.0</ele>
        <time>2022-02-10T09:51:35Z</time>
      </trkpt>
      <trkpt lat="47.54291" lon="1.816736">
        <ele>148.0</ele>
        <time>2022-02-10T09:51:36Z</time>
      </trkpt>
      <trkpt lat="47.54292" lon="1.8167465">
        <ele>148.0</ele>
        <time>2022-02-10T09:51:37Z</time>
      </trkpt>
      <trkpt lat="47.542927" lon="1.8167543">
        <ele>148.0</ele>
        <time>2022-02-10T09:51:38Z</time>
      </trkpt>
      <trkpt lat="47.542934" lon="1.8167639">
        <ele>149.0</ele>
        <time>2022-02-10T09:51:39Z</time>
      </trkpt>
      <trkpt lat="47.542942" lon="1.8167745">
        <ele>149.0</ele>
        <time>2022-02-10T09:51:40Z</time>
      </trkpt>
      <trkpt lat="47.542953" lon="1.8167863">
        <ele>148.0</ele>
        <time>2022-02-10T09:51:41Z</time>
      </trkpt>
      <trkpt lat="47.54296" lon="1.8167962">
        <ele>149.0</ele>
        <time>2022-02-10T09:51:42Z</time>
      </trkpt>
      <trkpt lat="47.54297" lon="1.8168098">
        <ele>148.0</ele>
        <time>2022-02-10T09:51:43Z</time>
      </trkpt>
      <trkpt lat="47.54298" lon="1.8168228">
        <ele>148.0</ele>
        <time>2022-02-10T09:51:44Z</time>
      </trkpt>
      <trkpt lat="47.542988" lon="1.816832">
        <ele>148.0</ele>
        <time>2022-02-10T09:51:45Z</time>
      </trkpt>
      <trkpt lat="47.543" lon="1.8168416">
        <ele>148.0</ele>
        <time>2022-02-10T09:51:46Z</time>
      </trkpt>
      <trkpt lat="47.543007" lon="1.8168527">
        <ele>148.0</ele>
        <time>2022-02-10T09:51:47Z</time>
      </trkpt>
      <trkpt lat="47.543015" lon="1.8168676">
        <ele>148.0</ele>
        <time>2022-02-10T09:51:48Z</time>
      </trkpt>
      <trkpt lat="47.543022" lon="1.816876">
        <ele>148.0</ele>
        <time>2022-02-10T09:51:49Z</time>
      </trkpt>
      <trkpt lat="47.543034" lon="1.8168814">
        <ele>148.0</ele>
        <time>2022-02-10T09:51:50Z</time>
      </trkpt>
      <trkpt lat="47.54304" lon="1.8168895">
        <ele>148.0</ele>
        <time>2022-02-10T09:51:51Z</time>
      </trkpt>
      <trkpt lat="47.54305" lon="1.8168955">
        <ele>148.0</ele>
        <time>2022-02-10T09:51:52Z</time>
      </trkpt>
      <trkpt lat="47.543056" lon="1.8169035">
        <ele>147.0</ele>
        <time>2022-02-10T09:51:53Z</time>
      </trkpt>
      <trkpt lat="47.543068" lon="1.8169096">
        <ele>147.0</ele>
        <time>2022-02-10T09:51:54Z</time>
      </trkpt>
      <trkpt lat="47.543076" lon="1.8169185">
        <ele>147.0</ele>
        <time>2022-02-10T09:51:55Z</time>
      </trkpt>
      <trkpt lat="47.543083" lon="1.8169293">
        <ele>147.0</ele>
        <time>2022-02-10T09:51:56Z</time>
      </trkpt>
      <trkpt lat="47.54309" lon="1.8169379">
        <ele>147.0</ele>
        <time>2022-02-10T09:51:57Z</time>
      </trkpt>
      <trkpt lat="47.5431" lon="1.816944">
        <ele>146.0</ele>
        <time>2022-02-10T09:51:58Z</time>
      </trkpt>
      <trkpt lat="47.543106" lon="1.8169525">
        <ele>146.0</ele>
        <time>2022-02-10T09:51:59Z</time>
      </trkpt>
      <trkpt lat="47.543114" lon="1.8169613">
        <ele>146.0</ele>
        <time>2022-02-10T09:52:00Z</time>
      </trkpt>
      <trkpt lat="47.54312" lon="1.8169683">
        <ele>146.0</ele>
        <time>2022-02-10T09:52:01Z</time>
      </trkpt>
      <trkpt lat="47.54313" lon="1.8169761">
        <ele>146.0</ele>
        <time>2022-02-10T09:52:02Z</time>
      </trkpt>
      <trkpt lat="47.54313" lon="1.8169761">
        <ele>146.0</ele>
        <time>2022-02-10T09:52:03Z</time>
      </trkpt>
      <trkpt lat="47.54313" lon="1.8169761">
        <ele>146.0</ele>
        <time>2022-02-10T09:52:04Z</time>
      </trkpt>
      <trkpt lat="47.543148" lon="1.8170054">
        <ele>146.0</ele>
        <time>2022-02-10T09:52:05Z</time>
      </trkpt>
      <trkpt lat="47.54316" lon="1.8170168">
        <ele>146.0</ele>
        <time>2022-02-10T09:52:06Z</time>
      </trkpt>
      <trkpt lat="47.543163" lon="1.817029">
        <ele>146.0</ele>
        <time>2022-02-10T09:52:07Z</time>
      </trkpt>
      <trkpt lat="47.543175" lon="1.8170455">
        <ele>146.0</ele>
        <time>2022-02-10T09:52:08Z</time>
      </trkpt>
      <trkpt lat="47.543186" lon="1.8170561">
        <ele>145.0</ele>
        <time>2022-02-10T09:52:09Z</time>
      </trkpt>
      <trkpt lat="47.543198" lon="1.8170708">
        <ele>145.0</ele>
        <time>2022-02-10T09:52:10Z</time>
      </trkpt>
      <trkpt lat="47.54321" lon="1.8170849">
        <ele>145.0</ele>
        <time>2022-02-10T09:52:11Z</time>
      </trkpt>
      <trkpt lat="47.543217" lon="1.8171014">
        <ele>145.0</ele>
        <time>2022-02-10T09:52:12Z</time>
      </trkpt>
      <trkpt lat="47.54323" lon="1.817116">
        <ele>145.0</ele>
        <time>2022-02-10T09:52:13Z</time>
      </trkpt>
      <trkpt lat="47.54324" lon="1.8171288">
        <ele>145.0</ele>
        <time>2022-02-10T09:52:14Z</time>
      </trkpt>
      <trkpt lat="47.54325" lon="1.8171389">
        <ele>146.0</ele>
        <time>2022-02-10T09:52:15Z</time>
      </trkpt>
      <trkpt lat="47.54326" lon="1.817148">
        <ele>146.0</ele>
        <time>2022-02-10T09:52:16Z</time>
      </trkpt>
      <trkpt lat="47.543266" lon="1.8171574">
        <ele>146.0</ele>
        <time>2022-02-10T09:52:17Z</time>
      </trkpt>
      <trkpt lat="47.543278" lon="1.8171695">
        <ele>146.0</ele>
        <time>2022-02-10T09:52:18Z</time>
      </trkpt>
      <trkpt lat="47.54329" lon="1.8171835">
        <ele>146.0</ele>
        <time>2022-02-10T09:52:19Z</time>
      </trkpt>
      <trkpt lat="47.5433" lon="1.8171959">
        <ele>146.0</ele>
        <time>2022-02-10T09:52:20Z</time>
      </trkpt>
      <trkpt lat="47.54331" lon="1.8172073">
        <ele>146.0</ele>
        <time>2022-02-10T09:52:21Z</time>
      </trkpt>
      <trkpt lat="47.54332" lon="1.8172225">
        <ele>146.0</ele>
        <time>2022-02-10T09:52:22Z</time>
      </trkpt>
      <trkpt lat="47.54333" lon="1.817235">
        <ele>146.0</ele>
        <time>2022-02-10T09:52:23Z</time>
      </trkpt>
      <trkpt lat="47.543335" lon="1.817246">
        <ele>146.0</ele>
        <time>2022-02-10T09:52:24Z</time>
      </trkpt>
      <trkpt lat="47.543343" lon="1.8172562">
        <ele>145.0</ele>
        <time>2022-02-10T09:52:25Z</time>
      </trkpt>
      <trkpt lat="47.543354" lon="1.8172672">
        <ele>145.0</ele>
        <time>2022-02-10T09:52:26Z</time>
      </trkpt>
      <trkpt lat="47.543365" lon="1.8172781">
        <ele>145.0</ele>
        <time>2022-02-10T09:52:27Z</time>
      </trkpt>
      <trkpt lat="47.543373" lon="1.81729">
        <ele>145.0</ele>
        <time>2022-02-10T09:52:28Z</time>
      </trkpt>
      <trkpt lat="47.543385" lon="1.8173035">
        <ele>146.0</ele>
        <time>2022-02-10T09:52:29Z</time>
      </trkpt>
      <trkpt lat="47.543396" lon="1.8173162">
        <ele>145.0</ele>
        <time>2022-02-10T09:52:30Z</time>
      </trkpt>
      <trkpt lat="47.543404" lon="1.817328">
        <ele>145.0</ele>
        <time>2022-02-10T09:52:31Z</time>
      </trkpt>
      <trkpt lat="47.54341" lon="1.8173414">
        <ele>146.0</ele>
        <time>2022-02-10T09:52:32Z</time>
      </trkpt>
      <trkpt lat="47.543415" lon="1.8173536">
        <ele>146.0</ele>
        <time>2022-02-10T09:52:33Z</time>
      </trkpt>
      <trkpt lat="47.543423" lon="1.8173602">
        <ele>146.0</ele>
        <time>2022-02-10T09:52:34Z</time>
      </trkpt>
      <trkpt lat="47.543427" lon="1.8173729">
        <ele>146.0</ele>
        <time>2022-02-10T09:52:35Z</time>
      </trkpt>
      <trkpt lat="47.543434" lon="1.8173826">
        <ele>146.0</ele>
        <time>2022-02-10T09:52:36Z</time>
      </trkpt>
      <trkpt lat="47.543438" lon="1.8173931">
        <ele>146.0</ele>
        <time>2022-02-10T09:52:37Z</time>
      </trkpt>
      <trkpt lat="47.543446" lon="1.8174057">
        <ele>145.0</ele>
        <time>2022-02-10T09:52:38Z</time>
      </trkpt>
      <trkpt lat="47.543453" lon="1.8174183">
        <ele>146.0</ele>
        <time>2022-02-10T09:52:39Z</time>
      </trkpt>
      <trkpt lat="47.543465" lon="1.8174336">
        <ele>146.0</ele>
        <time>2022-02-10T09:52:40Z</time>
      </trkpt>
      <trkpt lat="47.543472" lon="1.8174431">
        <ele>145.0</ele>
        <time>2022-02-10T09:52:41Z</time>
      </trkpt>
      <trkpt lat="47.543484" lon="1.8174495">
        <ele>146.0</ele>
        <time>2022-02-10T09:52:42Z</time>
      </trkpt>
      <trkpt lat="47.54349" lon="1.817455">
        <ele>146.0</ele>
        <time>2022-02-10T09:52:43Z</time>
      </trkpt>
      <trkpt lat="47.543495" lon="1.8174627">
        <ele>146.0</ele>
        <time>2022-02-10T09:52:44Z</time>
      </trkpt>
      <trkpt lat="47.543503" lon="1.8174706">
        <ele>146.0</ele>
        <time>2022-02-10T09:52:45Z</time>
      </trkpt>
      <trkpt lat="47.54351" lon="1.8174804">
        <ele>146.0</ele>
        <time>2022-02-10T09:52:46Z</time>
      </trkpt>
      <trkpt lat="47.543518" lon="1.8174869">
        <ele>145.0</ele>
        <time>2022-02-10T09:52:47Z</time>
      </trkpt>
      <trkpt lat="47.543526" lon="1.8174932">
        <ele>145.0</ele>
        <time>2022-02-10T09:52:48Z</time>
      </trkpt>
      <trkpt lat="47.543533" lon="1.817504">
        <ele>145.0</ele>
        <time>2022-02-10T09:52:49Z</time>
      </trkpt>
      <trkpt lat="47.543545" lon="1.8175132">
        <ele>145.0</ele>
        <time>2022-02-10T09:52:50Z</time>
      </trkpt>
      <trkpt lat="47.543552" lon="1.8175231">
        <ele>145.0</ele>
        <time>2022-02-10T09:52:51Z</time>
      </trkpt>
      <trkpt lat="47.543564" lon="1.8175353">
        <ele>144.0</ele>
        <time>2022-02-10T09:52:52Z</time>
      </trkpt>
      <trkpt lat="47.54357" lon="1.8175542">
        <ele>145.0</ele>
        <time>2022-02-10T09:52:53Z</time>
      </trkpt>
      <trkpt lat="47.543583" lon="1.8175672">
        <ele>145.0</ele>
        <time>2022-02-10T09:52:54Z</time>
      </trkpt>
      <trkpt lat="47.543587" lon="1.8175766">
        <ele>145.0</ele>
        <time>2022-02-10T09:52:55Z</time>
      </trkpt>
      <trkpt lat="47.54359" lon="1.817583">
        <ele>145.0</ele>
        <time>2022-02-10T09:52:56Z</time>
      </trkpt>
      <trkpt lat="47.5436" lon="1.8175931">
        <ele>145.0</ele>
        <time>2022-02-10T09:52:57Z</time>
      </trkpt>
      <trkpt lat="47.54361" lon="1.8176022">
        <ele>145.0</ele>
        <time>2022-02-10T09:52:58Z</time>
      </trkpt>
      <trkpt lat="47.543617" lon="1.8176129">
        <ele>144.0</ele>
        <time>2022-02-10T09:52:59Z</time>
      </trkpt>
      <trkpt lat="47.543625" lon="1.8176247">
        <ele>144.0</ele>
        <time>2022-02-10T09:53:00Z</time>
      </trkpt>
      <trkpt lat="47.543633" lon="1.8176354">
        <ele>144.0</ele>
        <time>2022-02-10T09:53:01Z</time>
      </trkpt>
      <trkpt lat="47.543636" lon="1.817647">
        <ele>144.0</ele>
        <time>2022-02-10T09:53:02Z</time>
      </trkpt>
      <trkpt lat="47.543648" lon="1.8176628">
        <ele>144.0</ele>
        <time>2022-02-10T09:53:03Z</time>
      </trkpt>
      <trkpt lat="47.54365" lon="1.8176756">
        <ele>144.0</ele>
        <time>2022-02-10T09:53:04Z</time>
      </trkpt>
      <trkpt lat="47.543663" lon="1.8176904">
        <ele>144.0</ele>
        <time>2022-02-10T09:53:05Z</time>
      </trkpt>
      <trkpt lat="47.543674" lon="1.8177056">
        <ele>144.0</ele>
        <time>2022-02-10T09:53:06Z</time>
      </trkpt>
      <trkpt lat="47.543686" lon="1.8177134">
        <ele>144.0</ele>
        <time>2022-02-10T09:53:07Z</time>
      </trkpt>
      <trkpt lat="47.54369" lon="1.8177241">
        <ele>144.0</ele>
        <time>2022-02-10T09:53:08Z</time>
      </trkpt>
      <trkpt lat="47.543697" lon="1.8177322">
        <ele>143.0</ele>
        <time>2022-02-10T09:53:09Z</time>
      </trkpt>
      <trkpt lat="47.543705" lon="1.8177401">
        <ele>143.0</ele>
        <time>2022-02-10T09:53:10Z</time>
      </trkpt>
      <trkpt lat="47.54371" lon="1.8177481">
        <ele>143.0</ele>
        <time>2022-02-10T09:53:11Z</time>
      </trkpt>
      <trkpt lat="47.543713" lon="1.817763">
        <ele>142.0</ele>
        <time>2022-02-10T09:53:12Z</time>
      </trkpt>
      <trkpt lat="47.54372" lon="1.817774">
        <ele>143.0</ele>
        <time>2022-02-10T09:53:13Z</time>
      </trkpt>
      <trkpt lat="47.543728" lon="1.8177831">
        <ele>143.0</ele>
        <time>2022-02-10T09:53:14Z</time>
      </trkpt>
      <trkpt lat="47.54373" lon="1.8177905">
        <ele>143.0</ele>
        <time>2022-02-10T09:53:15Z</time>
      </trkpt>
      <trkpt lat="47.543736" lon="1.8178023">
        <ele>143.0</ele>
        <time>2022-02-10T09:53:16Z</time>
      </trkpt>
      <trkpt lat="47.54374" lon="1.817814">
        <ele>143.0</ele>
        <time>2022-02-10T09:53:17Z</time>
      </trkpt>
      <trkpt lat="47.543743" lon="1.8178264">
        <ele>143.0</ele>
        <time>2022-02-10T09:53:18Z</time>
      </trkpt>
      <trkpt lat="47.54375" lon="1.8178399">
        <ele>142.0</ele>
        <time>2022-02-10T09:53:19Z</time>
      </trkpt>
      <trkpt lat="47.54376" lon="1.8178513">
        <ele>142.0</ele>
        <time>2022-02-10T09:53:20Z</time>
      </trkpt>
      <trkpt lat="47.543766" lon="1.8178625">
        <ele>142.0</ele>
        <time>2022-02-10T09:53:21Z</time>
      </trkpt>
      <trkpt lat="47.543774" lon="1.8178716">
        <ele>142.0</ele>
        <time>2022-02-10T09:53:22Z</time>
      </trkpt>
      <trkpt lat="47.543777" lon="1.8178837">
        <ele>142.0</ele>
        <time>2022-02-10T09:53:23Z</time>
      </trkpt>
      <trkpt lat="47.54378" lon="1.8178915">
        <ele>142.0</ele>
        <time>2022-02-10T09:53:24Z</time>
      </trkpt>
      <trkpt lat="47.54379" lon="1.8178996">
        <ele>142.0</ele>
        <time>2022-02-10T09:53:25Z</time>
      </trkpt>
      <trkpt lat="47.543797" lon="1.8179114">
        <ele>142.0</ele>
        <time>2022-02-10T09:53:26Z</time>
      </trkpt>
      <trkpt lat="47.543804" lon="1.8179226">
        <ele>142.0</ele>
        <time>2022-02-10T09:53:27Z</time>
      </trkpt>
      <trkpt lat="47.543808" lon="1.8179331">
        <ele>142.0</ele>
        <time>2022-02-10T09:53:28Z</time>
      </trkpt>
      <trkpt lat="47.54381" lon="1.8179452">
        <ele>142.0</ele>
        <time>2022-02-10T09:53:29Z</time>
      </trkpt>
      <trkpt lat="47.54382" lon="1.817957">
        <ele>141.0</ele>
        <time>2022-02-10T09:53:30Z</time>
      </trkpt>
      <trkpt lat="47.54383" lon="1.817967">
        <ele>141.0</ele>
        <time>2022-02-10T09:53:31Z</time>
      </trkpt>
      <trkpt lat="47.54384" lon="1.8179793">
        <ele>141.0</ele>
        <time>2022-02-10T09:53:32Z</time>
      </trkpt>
      <trkpt lat="47.543842" lon="1.8179913">
        <ele>141.0</ele>
        <time>2022-02-10T09:53:33Z</time>
      </trkpt>
      <trkpt lat="47.54385" lon="1.818003">
        <ele>141.0</ele>
        <time>2022-02-10T09:53:34Z</time>
      </trkpt>
      <trkpt lat="47.543858" lon="1.8180094">
        <ele>141.0</ele>
        <time>2022-02-10T09:53:35Z</time>
      </trkpt>
      <trkpt lat="47.543865" lon="1.8180164">
        <ele>140.0</ele>
        <time>2022-02-10T09:53:36Z</time>
      </trkpt>
      <trkpt lat="47.543873" lon="1.8180219">
        <ele>140.0</ele>
        <time>2022-02-10T09:53:37Z</time>
      </trkpt>
      <trkpt lat="47.54388" lon="1.8180313">
        <ele>140.0</ele>
        <time>2022-02-10T09:53:38Z</time>
      </trkpt>
      <trkpt lat="47.54389" lon="1.818048">
        <ele>140.0</ele>
        <time>2022-02-10T09:53:39Z</time>
      </trkpt>
      <trkpt lat="47.5439" lon="1.8180592">
        <ele>140.0</ele>
        <time>2022-02-10T09:53:40Z</time>
      </trkpt>
      <trkpt lat="47.543907" lon="1.8180704">
        <ele>140.0</ele>
        <time>2022-02-10T09:53:41Z</time>
      </trkpt>
      <trkpt lat="47.543915" lon="1.8180771">
        <ele>140.0</ele>
        <time>2022-02-10T09:53:42Z</time>
      </trkpt>
      <trkpt lat="47.543922" lon="1.8180877">
        <ele>140.0</ele>
        <time>2022-02-10T09:53:43Z</time>
      </trkpt>
      <trkpt lat="47.543934" lon="1.8181028">
        <ele>140.0</ele>
        <time>2022-02-10T09:53:44Z</time>
      </trkpt>
      <trkpt lat="47.54394" lon="1.8181121">
        <ele>140.0</ele>
        <time>2022-02-10T09:53:45Z</time>
      </trkpt>
      <trkpt lat="47.543953" lon="1.8181231">
        <ele>140.0</ele>
        <time>2022-02-10T09:53:46Z</time>
      </trkpt>
      <trkpt lat="47.54396" lon="1.8181291">
        <ele>140.0</ele>
        <time>2022-02-10T09:53:47Z</time>
      </trkpt>
      <trkpt lat="47.54397" lon="1.8181363">
        <ele>139.0</ele>
        <time>2022-02-10T09:53:48Z</time>
      </trkpt>
      <trkpt lat="47.543972" lon="1.8181458">
        <ele>139.0</ele>
        <time>2022-02-10T09:53:49Z</time>
      </trkpt>
      <trkpt lat="47.543983" lon="1.8181533">
        <ele>139.0</ele>
        <time>2022-02-10T09:53:50Z</time>
      </trkpt>
      <trkpt lat="47.54399" lon="1.8181621">
        <ele>139.0</ele>
        <time>2022-02-10T09:53:51Z</time>
      </trkpt>
      <trkpt lat="47.544" lon="1.8181696">
        <ele>139.0</ele>
        <time>2022-02-10T09:53:52Z</time>
      </trkpt>
      <trkpt lat="47.544006" lon="1.8181759">
        <ele>139.0</ele>
        <time>2022-02-10T09:53:53Z</time>
      </trkpt>
      <trkpt lat="47.544018" lon="1.8181874">
        <ele>139.0</ele>
        <time>2022-02-10T09:53:54Z</time>
      </trkpt>
      <trkpt lat="47.544025" lon="1.818197">
        <ele>139.0</ele>
        <time>2022-02-10T09:53:55Z</time>
      </trkpt>
      <trkpt lat="47.544033" lon="1.8182073">
        <ele>138.0</ele>
        <time>2022-02-10T09:53:56Z</time>
      </trkpt>
      <trkpt lat="47.544044" lon="1.818214">
        <ele>139.0</ele>
        <time>2022-02-10T09:53:57Z</time>
      </trkpt>
      <trkpt lat="47.544052" lon="1.8182261">
        <ele>139.0</ele>
        <time>2022-02-10T09:53:58Z</time>
      </trkpt>
      <trkpt lat="47.544064" lon="1.8182391">
        <ele>139.0</ele>
        <time>2022-02-10T09:53:59Z</time>
      </trkpt>
      <trkpt lat="47.544075" lon="1.8182526">
        <ele>139.0</ele>
        <time>2022-02-10T09:54:00Z</time>
      </trkpt>
      <trkpt lat="47.544086" lon="1.8182664">
        <ele>139.0</ele>
        <time>2022-02-10T09:54:01Z</time>
      </trkpt>
      <trkpt lat="47.5441" lon="1.8182803">
        <ele>139.0</ele>
        <time>2022-02-10T09:54:02Z</time>
      </trkpt>
      <trkpt lat="47.544113" lon="1.818295">
        <ele>139.0</ele>
        <time>2022-02-10T09:54:03Z</time>
      </trkpt>
      <trkpt lat="47.54413" lon="1.8183044">
        <ele>139.0</ele>
        <time>2022-02-10T09:54:04Z</time>
      </trkpt>
      <trkpt lat="47.54414" lon="1.8183136">
        <ele>139.0</ele>
        <time>2022-02-10T09:54:05Z</time>
      </trkpt>
      <trkpt lat="47.544147" lon="1.8183231">
        <ele>138.0</ele>
        <time>2022-02-10T09:54:06Z</time>
      </trkpt>
      <trkpt lat="47.544155" lon="1.8183348">
        <ele>138.0</ele>
        <time>2022-02-10T09:54:07Z</time>
      </trkpt>
      <trkpt lat="47.544163" lon="1.8183429">
        <ele>138.0</ele>
        <time>2022-02-10T09:54:08Z</time>
      </trkpt>
      <trkpt lat="47.544174" lon="1.8183486">
        <ele>138.0</ele>
        <time>2022-02-10T09:54:09Z</time>
      </trkpt>
      <trkpt lat="47.54419" lon="1.8183601">
        <ele>138.0</ele>
        <time>2022-02-10T09:54:10Z</time>
      </trkpt>
      <trkpt lat="47.5442" lon="1.8183701">
        <ele>138.0</ele>
        <time>2022-02-10T09:54:11Z</time>
      </trkpt>
      <trkpt lat="47.54422" lon="1.8183773">
        <ele>138.0</ele>
        <time>2022-02-10T09:54:12Z</time>
      </trkpt>
      <trkpt lat="47.544228" lon="1.818388">
        <ele>137.0</ele>
        <time>2022-02-10T09:54:13Z</time>
      </trkpt>
      <trkpt lat="47.544235" lon="1.8183957">
        <ele>138.0</ele>
        <time>2022-02-10T09:54:14Z</time>
      </trkpt>
      <trkpt lat="47.544243" lon="1.8184042">
        <ele>138.0</ele>
        <time>2022-02-10T09:54:15Z</time>
      </trkpt>
      <trkpt lat="47.54425" lon="1.8184123">
        <ele>139.0</ele>
        <time>2022-02-10T09:54:16Z</time>
      </trkpt>
      <trkpt lat="47.544262" lon="1.8184237">
        <ele>139.0</ele>
        <time>2022-02-10T09:54:17Z</time>
      </trkpt>
      <trkpt lat="47.54427" lon="1.8184326">
        <ele>138.0</ele>
        <time>2022-02-10T09:54:18Z</time>
      </trkpt>
      <trkpt lat="47.54427" lon="1.8184326">
        <ele>138.0</ele>
        <time>2022-02-10T09:54:19Z</time>
      </trkpt>
      <trkpt lat="47.54427" lon="1.8184326">
        <ele>138.0</ele>
        <time>2022-02-10T09:54:20Z</time>
      </trkpt>
      <trkpt lat="47.54429" lon="1.8184648">
        <ele>138.0</ele>
        <time>2022-02-10T09:54:21Z</time>
      </trkpt>
      <trkpt lat="47.544292" lon="1.8184747">
        <ele>138.0</ele>
        <time>2022-02-10T09:54:22Z</time>
      </trkpt>
      <trkpt lat="47.544304" lon="1.8184843">
        <ele>137.0</ele>
        <time>2022-02-10T09:54:23Z</time>
      </trkpt>
      <trkpt lat="47.544315" lon="1.8184893">
        <ele>137.0</ele>
        <time>2022-02-10T09:54:24Z</time>
      </trkpt>
      <trkpt lat="47.544315" lon="1.8184893">
        <ele>137.0</ele>
        <time>2022-02-10T09:54:25Z</time>
      </trkpt>
      <trkpt lat="47.544315" lon="1.8184893">
        <ele>137.0</ele>
        <time>2022-02-10T09:54:26Z</time>
      </trkpt>
      <trkpt lat="47.54434" lon="1.818511">
        <ele>137.0</ele>
        <time>2022-02-10T09:54:27Z</time>
      </trkpt>
      <trkpt lat="47.544346" lon="1.8185233">
        <ele>137.0</ele>
        <time>2022-02-10T09:54:28Z</time>
      </trkpt>
      <trkpt lat="47.54436" lon="1.8185333">
        <ele>137.0</ele>
        <time>2022-02-10T09:54:29Z</time>
      </trkpt>
      <trkpt lat="47.544373" lon="1.8185393">
        <ele>137.0</ele>
        <time>2022-02-10T09:54:30Z</time>
      </trkpt>
      <trkpt lat="47.54438" lon="1.818548">
        <ele>137.0</ele>
        <time>2022-02-10T09:54:31Z</time>
      </trkpt>
      <trkpt lat="47.54439" lon="1.8185587">
        <ele>137.0</ele>
        <time>2022-02-10T09:54:32Z</time>
      </trkpt>
      <trkpt lat="47.544403" lon="1.8185723">
        <ele>137.0</ele>
        <time>2022-02-10T09:54:33Z</time>
      </trkpt>
      <trkpt lat="47.544415" lon="1.8185854">
        <ele>137.0</ele>
        <time>2022-02-10T09:54:34Z</time>
      </trkpt>
      <trkpt lat="47.54442" lon="1.8185937">
        <ele>137.0</ele>
        <time>2022-02-10T09:54:35Z</time>
      </trkpt>
      <trkpt lat="47.544422" lon="1.818598">
        <ele>137.0</ele>
        <time>2022-02-10T09:54:36Z</time>
      </trkpt>
      <trkpt lat="47.544422" lon="1.818598">
        <ele>137.0</ele>
        <time>2022-02-10T09:54:37Z</time>
      </trkpt>
      <trkpt lat="47.544422" lon="1.818598">
        <ele>137.0</ele>
        <time>2022-02-10T09:54:38Z</time>
      </trkpt>
      <trkpt lat="47.54444" lon="1.8186195">
        <ele>137.0</ele>
        <time>2022-02-10T09:54:39Z</time>
      </trkpt>
      <trkpt lat="47.544445" lon="1.8186281">
        <ele>137.0</ele>
        <time>2022-02-10T09:54:40Z</time>
      </trkpt>
      <trkpt lat="47.544453" lon="1.8186393">
        <ele>137.0</ele>
        <time>2022-02-10T09:54:41Z</time>
      </trkpt>
      <trkpt lat="47.544464" lon="1.8186495">
        <ele>137.0</ele>
        <time>2022-02-10T09:54:42Z</time>
      </trkpt>
      <trkpt lat="47.54448" lon="1.8186601">
        <ele>137.0</ele>
        <time>2022-02-10T09:54:43Z</time>
      </trkpt>
      <trkpt lat="47.54449" lon="1.8186677">
        <ele>137.0</ele>
        <time>2022-02-10T09:54:44Z</time>
      </trkpt>
      <trkpt lat="47.5445" lon="1.818672">
        <ele>136.0</ele>
        <time>2022-02-10T09:54:45Z</time>
      </trkpt>
      <trkpt lat="47.544514" lon="1.8186815">
        <ele>136.0</ele>
        <time>2022-02-10T09:54:46Z</time>
      </trkpt>
      <trkpt lat="47.544525" lon="1.8186877">
        <ele>136.0</ele>
        <time>2022-02-10T09:54:47Z</time>
      </trkpt>
      <trkpt lat="47.544533" lon="1.8186942">
        <ele>136.0</ele>
        <time>2022-02-10T09:54:48Z</time>
      </trkpt>
      <trkpt lat="47.544548" lon="1.8187102">
        <ele>136.0</ele>
        <time>2022-02-10T09:54:49Z</time>
      </trkpt>
      <trkpt lat="47.54456" lon="1.8187174">
        <ele>136.0</ele>
        <time>2022-02-10T09:54:50Z</time>
      </trkpt>
      <trkpt lat="47.54457" lon="1.8187292">
        <ele>136.0</ele>
        <time>2022-02-10T09:54:51Z</time>
      </trkpt>
      <trkpt lat="47.544586" lon="1.8187442">
        <ele>136.0</ele>
        <time>2022-02-10T09:54:52Z</time>
      </trkpt>
      <trkpt lat="47.544594" lon="1.8187559">
        <ele>136.0</ele>
        <time>2022-02-10T09:54:53Z</time>
      </trkpt>
      <trkpt lat="47.5446" lon="1.8187677">
        <ele>136.0</ele>
        <time>2022-02-10T09:54:54Z</time>
      </trkpt>
      <trkpt lat="47.544613" lon="1.8187704">
        <ele>137.0</ele>
        <time>2022-02-10T09:54:55Z</time>
      </trkpt>
      <trkpt lat="47.54462" lon="1.8187779">
        <ele>137.0</ele>
        <time>2022-02-10T09:54:56Z</time>
      </trkpt>
      <trkpt lat="47.544636" lon="1.8187903">
        <ele>138.0</ele>
        <time>2022-02-10T09:54:57Z</time>
      </trkpt>
      <trkpt lat="47.54465" lon="1.8188064">
        <ele>138.0</ele>
        <time>2022-02-10T09:54:58Z</time>
      </trkpt>
      <trkpt lat="47.544662" lon="1.8188237">
        <ele>138.0</ele>
        <time>2022-02-10T09:54:59Z</time>
      </trkpt>
      <trkpt lat="47.544674" lon="1.8188429">
        <ele>138.0</ele>
        <time>2022-02-10T09:55:00Z</time>
      </trkpt>
      <trkpt lat="47.54469" lon="1.818861">
        <ele>138.0</ele>
        <time>2022-02-10T09:55:01Z</time>
      </trkpt>
      <trkpt lat="47.544697" lon="1.8188739">
        <ele>138.0</ele>
        <time>2022-02-10T09:55:02Z</time>
      </trkpt>
      <trkpt lat="47.544704" lon="1.8188826">
        <ele>138.0</ele>
        <time>2022-02-10T09:55:03Z</time>
      </trkpt>
      <trkpt lat="47.544712" lon="1.8188939">
        <ele>138.0</ele>
        <time>2022-02-10T09:55:04Z</time>
      </trkpt>
      <trkpt lat="47.544716" lon="1.8189024">
        <ele>138.0</ele>
        <time>2022-02-10T09:55:05Z</time>
      </trkpt>
      <trkpt lat="47.54472" lon="1.8189096">
        <ele>138.0</ele>
        <time>2022-02-10T09:55:06Z</time>
      </trkpt>
      <trkpt lat="47.544727" lon="1.8189138">
        <ele>138.0</ele>
        <time>2022-02-10T09:55:07Z</time>
      </trkpt>
      <trkpt lat="47.54474" lon="1.818921">
        <ele>138.0</ele>
        <time>2022-02-10T09:55:08Z</time>
      </trkpt>
      <trkpt lat="47.544743" lon="1.8189272">
        <ele>138.0</ele>
        <time>2022-02-10T09:55:09Z</time>
      </trkpt>
      <trkpt lat="47.54475" lon="1.8189349">
        <ele>139.0</ele>
        <time>2022-02-10T09:55:10Z</time>
      </trkpt>
      <trkpt lat="47.544754" lon="1.8189437">
        <ele>139.0</ele>
        <time>2022-02-10T09:55:11Z</time>
      </trkpt>
      <trkpt lat="47.544765" lon="1.8189517">
        <ele>139.0</ele>
        <time>2022-02-10T09:55:12Z</time>
      </trkpt>
      <trkpt lat="47.544773" lon="1.8189613">
        <ele>139.0</ele>
        <time>2022-02-10T09:55:13Z</time>
      </trkpt>
      <trkpt lat="47.54478" lon="1.8189664">
        <ele>139.0</ele>
        <time>2022-02-10T09:55:14Z</time>
      </trkpt>
      <trkpt lat="47.544796" lon="1.8189776">
        <ele>138.0</ele>
        <time>2022-02-10T09:55:15Z</time>
      </trkpt>
      <trkpt lat="47.544807" lon="1.818993">
        <ele>139.0</ele>
        <time>2022-02-10T09:55:16Z</time>
      </trkpt>
      <trkpt lat="47.544815" lon="1.8190075">
        <ele>139.0</ele>
        <time>2022-02-10T09:55:17Z</time>
      </trkpt>
      <trkpt lat="47.544827" lon="1.8190169">
        <ele>139.0</ele>
        <time>2022-02-10T09:55:18Z</time>
      </trkpt>
      <trkpt lat="47.544838" lon="1.819024">
        <ele>139.0</ele>
        <time>2022-02-10T09:55:19Z</time>
      </trkpt>
      <trkpt lat="47.54485" lon="1.8190318">
        <ele>140.0</ele>
        <time>2022-02-10T09:55:20Z</time>
      </trkpt>
      <trkpt lat="47.54486" lon="1.8190414">
        <ele>139.0</ele>
        <time>2022-02-10T09:55:21Z</time>
      </trkpt>
      <trkpt lat="47.544872" lon="1.8190498">
        <ele>139.0</ele>
        <time>2022-02-10T09:55:22Z</time>
      </trkpt>
      <trkpt lat="47.544884" lon="1.8190548">
        <ele>140.0</ele>
        <time>2022-02-10T09:55:23Z</time>
      </trkpt>
      <trkpt lat="47.544895" lon="1.8190621">
        <ele>140.0</ele>
        <time>2022-02-10T09:55:24Z</time>
      </trkpt>
      <trkpt lat="47.544903" lon="1.8190708">
        <ele>139.0</ele>
        <time>2022-02-10T09:55:25Z</time>
      </trkpt>
      <trkpt lat="47.544903" lon="1.8190708">
        <ele>139.0</ele>
        <time>2022-02-10T09:55:26Z</time>
      </trkpt>
      <trkpt lat="47.544903" lon="1.8190708">
        <ele>139.0</ele>
        <time>2022-02-10T09:55:27Z</time>
      </trkpt>
      <trkpt lat="47.544926" lon="1.8191042">
        <ele>139.0</ele>
        <time>2022-02-10T09:55:28Z</time>
      </trkpt>
      <trkpt lat="47.544937" lon="1.8191148">
        <ele>139.0</ele>
        <time>2022-02-10T09:55:29Z</time>
      </trkpt>
      <trkpt lat="47.544945" lon="1.819121">
        <ele>139.0</ele>
        <time>2022-02-10T09:55:30Z</time>
      </trkpt>
      <trkpt lat="47.544952" lon="1.8191283">
        <ele>139.0</ele>
        <time>2022-02-10T09:55:31Z</time>
      </trkpt>
      <trkpt lat="47.544952" lon="1.8191283">
        <ele>139.0</ele>
        <time>2022-02-10T09:55:32Z</time>
      </trkpt>
      <trkpt lat="47.544952" lon="1.8191283">
        <ele>139.0</ele>
        <time>2022-02-10T09:55:33Z</time>
      </trkpt>
      <trkpt lat="47.544983" lon="1.8191644">
        <ele>139.0</ele>
        <time>2022-02-10T09:55:34Z</time>
      </trkpt>
      <trkpt lat="47.544994" lon="1.8191683">
        <ele>139.0</ele>
        <time>2022-02-10T09:55:35Z</time>
      </trkpt>
      <trkpt lat="47.54501" lon="1.819179">
        <ele>139.0</ele>
        <time>2022-02-10T09:55:36Z</time>
      </trkpt>
      <trkpt lat="47.545025" lon="1.819189">
        <ele>139.0</ele>
        <time>2022-02-10T09:55:37Z</time>
      </trkpt>
      <trkpt lat="47.545036" lon="1.8192012">
        <ele>138.0</ele>
        <time>2022-02-10T09:55:38Z</time>
      </trkpt>
      <trkpt lat="47.545044" lon="1.8192087">
        <ele>137.0</ele>
        <time>2022-02-10T09:55:39Z</time>
      </trkpt>
      <trkpt lat="47.545055" lon="1.819213">
        <ele>137.0</ele>
        <time>2022-02-10T09:55:40Z</time>
      </trkpt>
      <trkpt lat="47.545055" lon="1.819213">
        <ele>137.0</ele>
        <time>2022-02-10T09:55:41Z</time>
      </trkpt>
      <trkpt lat="47.545055" lon="1.819213">
        <ele>137.0</ele>
        <time>2022-02-10T09:55:42Z</time>
      </trkpt>
      <trkpt lat="47.545086" lon="1.8192257">
        <ele>137.0</ele>
        <time>2022-02-10T09:55:43Z</time>
      </trkpt>
      <trkpt lat="47.545097" lon="1.8192321">
        <ele>138.0</ele>
        <time>2022-02-10T09:55:44Z</time>
      </trkpt>
      <trkpt lat="47.54511" lon="1.8192418">
        <ele>138.0</ele>
        <time>2022-02-10T09:55:45Z</time>
      </trkpt>
      <trkpt lat="47.54512" lon="1.8192477">
        <ele>138.0</ele>
        <time>2022-02-10T09:55:46Z</time>
      </trkpt>
      <trkpt lat="47.545128" lon="1.8192618">
        <ele>138.0</ele>
        <time>2022-02-10T09:55:47Z</time>
      </trkpt>
      <trkpt lat="47.545128" lon="1.8192618">
        <ele>138.0</ele>
        <time>2022-02-10T09:55:48Z</time>
      </trkpt>
      <trkpt lat="47.545128" lon="1.8192618">
        <ele>138.0</ele>
        <time>2022-02-10T09:55:49Z</time>
      </trkpt>
      <trkpt lat="47.545155" lon="1.8192844">
        <ele>139.0</ele>
        <time>2022-02-10T09:55:50Z</time>
      </trkpt>
      <trkpt lat="47.545162" lon="1.819293">
        <ele>139.0</ele>
        <time>2022-02-10T09:55:51Z</time>
      </trkpt>
      <trkpt lat="47.54517" lon="1.8193">
        <ele>139.0</ele>
        <time>2022-02-10T09:55:52Z</time>
      </trkpt>
      <trkpt lat="47.545177" lon="1.8193066">
        <ele>139.0</ele>
        <time>2022-02-10T09:55:53Z</time>
      </trkpt>
      <trkpt lat="47.545185" lon="1.8193095">
        <ele>138.0</ele>
        <time>2022-02-10T09:55:54Z</time>
      </trkpt>
      <trkpt lat="47.54519" lon="1.8193172">
        <ele>138.0</ele>
        <time>2022-02-10T09:55:55Z</time>
      </trkpt>
      <trkpt lat="47.54519" lon="1.8193172">
        <ele>138.0</ele>
        <time>2022-02-10T09:55:56Z</time>
      </trkpt>
      <trkpt lat="47.54519" lon="1.8193172">
        <ele>138.0</ele>
        <time>2022-02-10T09:55:57Z</time>
      </trkpt>
      <trkpt lat="47.545204" lon="1.8193394">
        <ele>137.0</ele>
        <time>2022-02-10T09:55:58Z</time>
      </trkpt>
      <trkpt lat="47.54522" lon="1.8193498">
        <ele>138.0</ele>
        <time>2022-02-10T09:55:59Z</time>
      </trkpt>
      <trkpt lat="47.54523" lon="1.819354">
        <ele>137.0</ele>
        <time>2022-02-10T09:56:00Z</time>
      </trkpt>
      <trkpt lat="47.54524" lon="1.8193624">
        <ele>137.0</ele>
        <time>2022-02-10T09:56:01Z</time>
      </trkpt>
      <trkpt lat="47.54524" lon="1.8193624">
        <ele>137.0</ele>
        <time>2022-02-10T09:56:02Z</time>
      </trkpt>
      <trkpt lat="47.54524" lon="1.8193624">
        <ele>137.0</ele>
        <time>2022-02-10T09:56:03Z</time>
      </trkpt>
      <trkpt lat="47.54527" lon="1.8193854">
        <ele>137.0</ele>
        <time>2022-02-10T09:56:04Z</time>
      </trkpt>
      <trkpt lat="47.545277" lon="1.8193974">
        <ele>137.0</ele>
        <time>2022-02-10T09:56:05Z</time>
      </trkpt>
      <trkpt lat="47.545284" lon="1.8194052">
        <ele>137.0</ele>
        <time>2022-02-10T09:56:06Z</time>
      </trkpt>
      <trkpt lat="47.54529" lon="1.8194126">
        <ele>137.0</ele>
        <time>2022-02-10T09:56:07Z</time>
      </trkpt>
      <trkpt lat="47.545296" lon="1.8194185">
        <ele>137.0</ele>
        <time>2022-02-10T09:56:08Z</time>
      </trkpt>
      <trkpt lat="47.545303" lon="1.819433">
        <ele>137.0</ele>
        <time>2022-02-10T09:56:09Z</time>
      </trkpt>
      <trkpt lat="47.545315" lon="1.8194449">
        <ele>136.0</ele>
        <time>2022-02-10T09:56:10Z</time>
      </trkpt>
      <trkpt lat="47.545322" lon="1.8194588">
        <ele>136.0</ele>
        <time>2022-02-10T09:56:11Z</time>
      </trkpt>
      <trkpt lat="47.54533" lon="1.8194723">
        <ele>137.0</ele>
        <time>2022-02-10T09:56:12Z</time>
      </trkpt>
      <trkpt lat="47.545338" lon="1.819483">
        <ele>136.0</ele>
        <time>2022-02-10T09:56:13Z</time>
      </trkpt>
      <trkpt lat="47.545338" lon="1.819483">
        <ele>136.0</ele>
        <time>2022-02-10T09:56:14Z</time>
      </trkpt>
      <trkpt lat="47.545338" lon="1.819483">
        <ele>136.0</ele>
        <time>2022-02-10T09:56:15Z</time>
      </trkpt>
      <trkpt lat="47.545357" lon="1.819506">
        <ele>137.0</ele>
        <time>2022-02-10T09:56:16Z</time>
      </trkpt>
      <trkpt lat="47.54536" lon="1.8195189">
        <ele>137.0</ele>
        <time>2022-02-10T09:56:17Z</time>
      </trkpt>
      <trkpt lat="47.545376" lon="1.8195372">
        <ele>138.0</ele>
        <time>2022-02-10T09:56:18Z</time>
      </trkpt>
      <trkpt lat="47.545387" lon="1.8195481">
        <ele>137.0</ele>
        <time>2022-02-10T09:56:19Z</time>
      </trkpt>
      <trkpt lat="47.545395" lon="1.8195543">
        <ele>137.0</ele>
        <time>2022-02-10T09:56:20Z</time>
      </trkpt>
      <trkpt lat="47.545406" lon="1.8195683">
        <ele>137.0</ele>
        <time>2022-02-10T09:56:21Z</time>
      </trkpt>
      <trkpt lat="47.54541" lon="1.819577">
        <ele>137.0</ele>
        <time>2022-02-10T09:56:22Z</time>
      </trkpt>
      <trkpt lat="47.54541" lon="1.819577">
        <ele>137.0</ele>
        <time>2022-02-10T09:56:23Z</time>
      </trkpt>
      <trkpt lat="47.54541" lon="1.819577">
        <ele>137.0</ele>
        <time>2022-02-10T09:56:24Z</time>
      </trkpt>
      <trkpt lat="47.54544" lon="1.8196005">
        <ele>137.0</ele>
        <time>2022-02-10T09:56:25Z</time>
      </trkpt>
      <trkpt lat="47.545456" lon="1.8196104">
        <ele>136.0</ele>
        <time>2022-02-10T09:56:26Z</time>
      </trkpt>
      <trkpt lat="47.545467" lon="1.8196197">
        <ele>136.0</ele>
        <time>2022-02-10T09:56:27Z</time>
      </trkpt>
      <trkpt lat="47.54548" lon="1.8196266">
        <ele>136.0</ele>
        <time>2022-02-10T09:56:28Z</time>
      </trkpt>
      <trkpt lat="47.54549" lon="1.8196347">
        <ele>135.0</ele>
        <time>2022-02-10T09:56:29Z</time>
      </trkpt>
      <trkpt lat="47.545498" lon="1.8196423">
        <ele>136.0</ele>
        <time>2022-02-10T09:56:30Z</time>
      </trkpt>
      <trkpt lat="47.54551" lon="1.8196459">
        <ele>136.0</ele>
        <time>2022-02-10T09:56:31Z</time>
      </trkpt>
      <trkpt lat="47.545525" lon="1.8196511">
        <ele>136.0</ele>
        <time>2022-02-10T09:56:32Z</time>
      </trkpt>
      <trkpt lat="47.545536" lon="1.8196565">
        <ele>136.0</ele>
        <time>2022-02-10T09:56:33Z</time>
      </trkpt>
      <trkpt lat="47.545547" lon="1.8196654">
        <ele>136.0</ele>
        <time>2022-02-10T09:56:34Z</time>
      </trkpt>
      <trkpt lat="47.545555" lon="1.8196697">
        <ele>136.0</ele>
        <time>2022-02-10T09:56:35Z</time>
      </trkpt>
      <trkpt lat="47.54557" lon="1.8196762">
        <ele>136.0</ele>
        <time>2022-02-10T09:56:36Z</time>
      </trkpt>
      <trkpt lat="47.545586" lon="1.819678">
        <ele>137.0</ele>
        <time>2022-02-10T09:56:37Z</time>
      </trkpt>
      <trkpt lat="47.545586" lon="1.819678">
        <ele>137.0</ele>
        <time>2022-02-10T09:56:38Z</time>
      </trkpt>
      <trkpt lat="47.545586" lon="1.819678">
        <ele>137.0</ele>
        <time>2022-02-10T09:56:39Z</time>
      </trkpt>
      <trkpt lat="47.545616" lon="1.819694">
        <ele>137.0</ele>
        <time>2022-02-10T09:56:40Z</time>
      </trkpt>
      <trkpt lat="47.545624" lon="1.8197008">
        <ele>137.0</ele>
        <time>2022-02-10T09:56:41Z</time>
      </trkpt>
      <trkpt lat="47.545635" lon="1.8197088">
        <ele>136.0</ele>
        <time>2022-02-10T09:56:42Z</time>
      </trkpt>
      <trkpt lat="47.545643" lon="1.8197141">
        <ele>136.0</ele>
        <time>2022-02-10T09:56:43Z</time>
      </trkpt>
      <trkpt lat="47.545654" lon="1.8197249">
        <ele>136.0</ele>
        <time>2022-02-10T09:56:44Z</time>
      </trkpt>
      <trkpt lat="47.545666" lon="1.8197324">
        <ele>136.0</ele>
        <time>2022-02-10T09:56:45Z</time>
      </trkpt>
      <trkpt lat="47.545666" lon="1.8197324">
        <ele>136.0</ele>
        <time>2022-02-10T09:56:46Z</time>
      </trkpt>
      <trkpt lat="47.545666" lon="1.8197324">
        <ele>136.0</ele>
        <time>2022-02-10T09:56:47Z</time>
      </trkpt>
      <trkpt lat="47.545685" lon="1.8197532">
        <ele>136.0</ele>
        <time>2022-02-10T09:56:48Z</time>
      </trkpt>
      <trkpt lat="47.545696" lon="1.8197596">
        <ele>136.0</ele>
        <time>2022-02-10T09:56:49Z</time>
      </trkpt>
      <trkpt lat="47.545708" lon="1.8197671">
        <ele>135.0</ele>
        <time>2022-02-10T09:56:50Z</time>
      </trkpt>
      <trkpt lat="47.545715" lon="1.8197722">
        <ele>135.0</ele>
        <time>2022-02-10T09:56:51Z</time>
      </trkpt>
      <trkpt lat="47.545715" lon="1.8197722">
        <ele>135.0</ele>
        <time>2022-02-10T09:56:52Z</time>
      </trkpt>
      <trkpt lat="47.545715" lon="1.8197722">
        <ele>135.0</ele>
        <time>2022-02-10T09:56:53Z</time>
      </trkpt>
      <trkpt lat="47.545746" lon="1.8198035">
        <ele>135.0</ele>
        <time>2022-02-10T09:56:54Z</time>
      </trkpt>
      <trkpt lat="47.545753" lon="1.8198143">
        <ele>135.0</ele>
        <time>2022-02-10T09:56:55Z</time>
      </trkpt>
      <trkpt lat="47.545765" lon="1.8198215">
        <ele>134.0</ele>
        <time>2022-02-10T09:56:56Z</time>
      </trkpt>
      <trkpt lat="47.545776" lon="1.8198253">
        <ele>135.0</ele>
        <time>2022-02-10T09:56:57Z</time>
      </trkpt>
      <trkpt lat="47.545776" lon="1.8198253">
        <ele>135.0</ele>
        <time>2022-02-10T09:56:58Z</time>
      </trkpt>
      <trkpt lat="47.5458" lon="1.8198329">
        <ele>136.0</ele>
        <time>2022-02-10T09:56:59Z</time>
      </trkpt>
      <trkpt lat="47.545815" lon="1.8198439">
        <ele>136.0</ele>
        <time>2022-02-10T09:57:00Z</time>
      </trkpt>
      <trkpt lat="47.54583" lon="1.8198512">
        <ele>136.0</ele>
        <time>2022-02-10T09:57:01Z</time>
      </trkpt>
      <trkpt lat="47.545837" lon="1.8198544">
        <ele>136.0</ele>
        <time>2022-02-10T09:57:02Z</time>
      </trkpt>
      <trkpt lat="47.545856" lon="1.8198564">
        <ele>136.0</ele>
        <time>2022-02-10T09:57:03Z</time>
      </trkpt>
      <trkpt lat="47.545868" lon="1.8198575">
        <ele>136.0</ele>
        <time>2022-02-10T09:57:04Z</time>
      </trkpt>
      <trkpt lat="47.545883" lon="1.819868">
        <ele>136.0</ele>
        <time>2022-02-10T09:57:05Z</time>
      </trkpt>
      <trkpt lat="47.545895" lon="1.8198783">
        <ele>136.0</ele>
        <time>2022-02-10T09:57:06Z</time>
      </trkpt>
      <trkpt lat="47.54591" lon="1.8198869">
        <ele>136.0</ele>
        <time>2022-02-10T09:57:07Z</time>
      </trkpt>
      <trkpt lat="47.545925" lon="1.8198978">
        <ele>136.0</ele>
        <time>2022-02-10T09:57:08Z</time>
      </trkpt>
      <trkpt lat="47.545937" lon="1.8199054">
        <ele>136.0</ele>
        <time>2022-02-10T09:57:09Z</time>
      </trkpt>
      <trkpt lat="47.545948" lon="1.8199118">
        <ele>135.0</ele>
        <time>2022-02-10T09:57:10Z</time>
      </trkpt>
      <trkpt lat="47.545956" lon="1.8199226">
        <ele>135.0</ele>
        <time>2022-02-10T09:57:11Z</time>
      </trkpt>
      <trkpt lat="47.545967" lon="1.819931">
        <ele>134.0</ele>
        <time>2022-02-10T09:57:12Z</time>
      </trkpt>
      <trkpt lat="47.54598" lon="1.8199368">
        <ele>135.0</ele>
        <time>2022-02-10T09:57:13Z</time>
      </trkpt>
      <trkpt lat="47.545998" lon="1.8199468">
        <ele>134.0</ele>
        <time>2022-02-10T09:57:14Z</time>
      </trkpt>
      <trkpt lat="47.54601" lon="1.819957">
        <ele>134.0</ele>
        <time>2022-02-10T09:57:15Z</time>
      </trkpt>
      <trkpt lat="47.54602" lon="1.8199651">
        <ele>134.0</ele>
        <time>2022-02-10T09:57:16Z</time>
      </trkpt>
      <trkpt lat="47.546032" lon="1.819978">
        <ele>134.0</ele>
        <time>2022-02-10T09:57:17Z</time>
      </trkpt>
      <trkpt lat="47.546043" lon="1.8199874">
        <ele>135.0</ele>
        <time>2022-02-10T09:57:18Z</time>
      </trkpt>
      <trkpt lat="47.546043" lon="1.8199874">
        <ele>135.0</ele>
        <time>2022-02-10T09:57:19Z</time>
      </trkpt>
      <trkpt lat="47.546043" lon="1.8199874">
        <ele>135.0</ele>
        <time>2022-02-10T09:57:20Z</time>
      </trkpt>
      <trkpt lat="47.54607" lon="1.8199992">
        <ele>135.0</ele>
        <time>2022-02-10T09:57:21Z</time>
      </trkpt>
      <trkpt lat="47.54608" lon="1.820007">
        <ele>136.0</ele>
        <time>2022-02-10T09:57:22Z</time>
      </trkpt>
      <trkpt lat="47.54609" lon="1.8200145">
        <ele>137.0</ele>
        <time>2022-02-10T09:57:23Z</time>
      </trkpt>
      <trkpt lat="47.5461" lon="1.8200227">
        <ele>137.0</ele>
        <time>2022-02-10T09:57:24Z</time>
      </trkpt>
      <trkpt lat="47.5461" lon="1.8200227">
        <ele>137.0</ele>
        <time>2022-02-10T09:57:25Z</time>
      </trkpt>
      <trkpt lat="47.546112" lon="1.8200357">
        <ele>137.0</ele>
        <time>2022-02-10T09:57:26Z</time>
      </trkpt>
      <trkpt lat="47.546127" lon="1.8200419">
        <ele>137.0</ele>
        <time>2022-02-10T09:57:27Z</time>
      </trkpt>
      <trkpt lat="47.546143" lon="1.8200494">
        <ele>138.0</ele>
        <time>2022-02-10T09:57:28Z</time>
      </trkpt>
      <trkpt lat="47.546154" lon="1.820058">
        <ele>138.0</ele>
        <time>2022-02-10T09:57:29Z</time>
      </trkpt>
      <trkpt lat="47.546165" lon="1.8200687">
        <ele>139.0</ele>
        <time>2022-02-10T09:57:30Z</time>
      </trkpt>
      <trkpt lat="47.54618" lon="1.8200805">
        <ele>139.0</ele>
        <time>2022-02-10T09:57:31Z</time>
      </trkpt>
      <trkpt lat="47.546196" lon="1.8200924">
        <ele>138.0</ele>
        <time>2022-02-10T09:57:32Z</time>
      </trkpt>
      <trkpt lat="47.546207" lon="1.8201011">
        <ele>138.0</ele>
        <time>2022-02-10T09:57:33Z</time>
      </trkpt>
      <trkpt lat="47.546215" lon="1.8201102">
        <ele>138.0</ele>
        <time>2022-02-10T09:57:34Z</time>
      </trkpt>
      <trkpt lat="47.54623" lon="1.8201159">
        <ele>138.0</ele>
        <time>2022-02-10T09:57:35Z</time>
      </trkpt>
      <trkpt lat="47.54623" lon="1.8201159">
        <ele>138.0</ele>
        <time>2022-02-10T09:57:36Z</time>
      </trkpt>
      <trkpt lat="47.54623" lon="1.8201159">
        <ele>138.0</ele>
        <time>2022-02-10T09:57:37Z</time>
      </trkpt>
      <trkpt lat="47.546257" lon="1.820137">
        <ele>138.0</ele>
        <time>2022-02-10T09:57:38Z</time>
      </trkpt>
      <trkpt lat="47.546265" lon="1.8201542">
        <ele>137.0</ele>
        <time>2022-02-10T09:57:39Z</time>
      </trkpt>
      <trkpt lat="47.546272" lon="1.8201659">
        <ele>136.0</ele>
        <time>2022-02-10T09:57:40Z</time>
      </trkpt>
      <trkpt lat="47.546284" lon="1.8201733">
        <ele>136.0</ele>
        <time>2022-02-10T09:57:41Z</time>
      </trkpt>
      <trkpt lat="47.546284" lon="1.8201733">
        <ele>136.0</ele>
        <time>2022-02-10T09:57:42Z</time>
      </trkpt>
      <trkpt lat="47.546284" lon="1.8201733">
        <ele>136.0</ele>
        <time>2022-02-10T09:57:43Z</time>
      </trkpt>
      <trkpt lat="47.546318" lon="1.8202009">
        <ele>137.0</ele>
        <time>2022-02-10T09:57:44Z</time>
      </trkpt>
      <trkpt lat="47.546326" lon="1.8202076">
        <ele>137.0</ele>
        <time>2022-02-10T09:57:45Z</time>
      </trkpt>
      <trkpt lat="47.54633" lon="1.8202146">
        <ele>137.0</ele>
        <time>2022-02-10T09:57:46Z</time>
      </trkpt>
      <trkpt lat="47.546337" lon="1.8202239">
        <ele>136.0</ele>
        <time>2022-02-10T09:57:47Z</time>
      </trkpt>
      <trkpt lat="47.546345" lon="1.820236">
        <ele>137.0</ele>
        <time>2022-02-10T09:57:48Z</time>
      </trkpt>
      <trkpt lat="47.546356" lon="1.8202437">
        <ele>136.0</ele>
        <time>2022-02-10T09:57:49Z</time>
      </trkpt>
      <trkpt lat="47.546364" lon="1.8202497">
        <ele>136.0</ele>
        <time>2022-02-10T09:57:50Z</time>
      </trkpt>
      <trkpt lat="47.546368" lon="1.8202587">
        <ele>135.0</ele>
        <time>2022-02-10T09:57:51Z</time>
      </trkpt>
      <trkpt lat="47.54638" lon="1.820265">
        <ele>136.0</ele>
        <time>2022-02-10T09:57:52Z</time>
      </trkpt>
      <trkpt lat="47.546387" lon="1.8202708">
        <ele>135.0</ele>
        <time>2022-02-10T09:57:53Z</time>
      </trkpt>
      <trkpt lat="47.546387" lon="1.8202708">
        <ele>135.0</ele>
        <time>2022-02-10T09:57:54Z</time>
      </trkpt>
      <trkpt lat="47.546387" lon="1.8202708">
        <ele>135.0</ele>
        <time>2022-02-10T09:57:55Z</time>
      </trkpt>
      <trkpt lat="47.546417" lon="1.8202914">
        <ele>136.0</ele>
        <time>2022-02-10T09:57:56Z</time>
      </trkpt>
      <trkpt lat="47.54643" lon="1.8202977">
        <ele>136.0</ele>
        <time>2022-02-10T09:57:57Z</time>
      </trkpt>
      <trkpt lat="47.546436" lon="1.8202982">
        <ele>136.0</ele>
        <time>2022-02-10T09:57:58Z</time>
      </trkpt>
      <trkpt lat="47.546448" lon="1.8203068">
        <ele>136.0</ele>
        <time>2022-02-10T09:57:59Z</time>
      </trkpt>
      <trkpt lat="47.54646" lon="1.8203111">
        <ele>136.0</ele>
        <time>2022-02-10T09:58:00Z</time>
      </trkpt>
      <trkpt lat="47.546467" lon="1.8203168">
        <ele>136.0</ele>
        <time>2022-02-10T09:58:01Z</time>
      </trkpt>
      <trkpt lat="47.546474" lon="1.8203242">
        <ele>136.0</ele>
        <time>2022-02-10T09:58:02Z</time>
      </trkpt>
      <trkpt lat="47.546482" lon="1.8203304">
        <ele>136.0</ele>
        <time>2022-02-10T09:58:03Z</time>
      </trkpt>
      <trkpt lat="47.546497" lon="1.8203368">
        <ele>135.0</ele>
        <time>2022-02-10T09:58:04Z</time>
      </trkpt>
      <trkpt lat="47.54651" lon="1.8203481">
        <ele>135.0</ele>
        <time>2022-02-10T09:58:05Z</time>
      </trkpt>
      <trkpt lat="47.546516" lon="1.8203524">
        <ele>135.0</ele>
        <time>2022-02-10T09:58:06Z</time>
      </trkpt>
      <trkpt lat="47.546528" lon="1.820357">
        <ele>135.0</ele>
        <time>2022-02-10T09:58:07Z</time>
      </trkpt>
      <trkpt lat="47.546528" lon="1.820357">
        <ele>135.0</ele>
        <time>2022-02-10T09:58:08Z</time>
      </trkpt>
      <trkpt lat="47.54654" lon="1.8203627">
        <ele>135.0</ele>
        <time>2022-02-10T09:58:09Z</time>
      </trkpt>
      <trkpt lat="47.546555" lon="1.8203671">
        <ele>135.0</ele>
        <time>2022-02-10T09:58:10Z</time>
      </trkpt>
      <trkpt lat="47.546566" lon="1.8203746">
        <ele>135.0</ele>
        <time>2022-02-10T09:58:11Z</time>
      </trkpt>
      <trkpt lat="47.54658" lon="1.8203819">
        <ele>136.0</ele>
        <time>2022-02-10T09:58:12Z</time>
      </trkpt>
      <trkpt lat="47.546593" lon="1.8203884">
        <ele>136.0</ele>
        <time>2022-02-10T09:58:13Z</time>
      </trkpt>
      <trkpt lat="47.546608" lon="1.8203961">
        <ele>136.0</ele>
        <time>2022-02-10T09:58:14Z</time>
      </trkpt>
      <trkpt lat="47.546623" lon="1.8203984">
        <ele>136.0</ele>
        <time>2022-02-10T09:58:15Z</time>
      </trkpt>
      <trkpt lat="47.546635" lon="1.8204076">
        <ele>136.0</ele>
        <time>2022-02-10T09:58:16Z</time>
      </trkpt>
      <trkpt lat="47.54665" lon="1.8204173">
        <ele>137.0</ele>
        <time>2022-02-10T09:58:17Z</time>
      </trkpt>
      <trkpt lat="47.54666" lon="1.8204287">
        <ele>137.0</ele>
        <time>2022-02-10T09:58:18Z</time>
      </trkpt>
      <trkpt lat="47.54667" lon="1.8204427">
        <ele>137.0</ele>
        <time>2022-02-10T09:58:19Z</time>
      </trkpt>
      <trkpt lat="47.546677" lon="1.8204504">
        <ele>137.0</ele>
        <time>2022-02-10T09:58:20Z</time>
      </trkpt>
      <trkpt lat="47.546688" lon="1.820454">
        <ele>137.0</ele>
        <time>2022-02-10T09:58:21Z</time>
      </trkpt>
      <trkpt lat="47.5467" lon="1.8204631">
        <ele>137.0</ele>
        <time>2022-02-10T09:58:22Z</time>
      </trkpt>
      <trkpt lat="47.54671" lon="1.8204665">
        <ele>138.0</ele>
        <time>2022-02-10T09:58:23Z</time>
      </trkpt>
      <trkpt lat="47.54673" lon="1.8204737">
        <ele>138.0</ele>
        <time>2022-02-10T09:58:24Z</time>
      </trkpt>
      <trkpt lat="47.54674" lon="1.8204848">
        <ele>138.0</ele>
        <time>2022-02-10T09:58:25Z</time>
      </trkpt>
      <trkpt lat="47.546757" lon="1.8204961">
        <ele>138.0</ele>
        <time>2022-02-10T09:58:26Z</time>
      </trkpt>
      <trkpt lat="47.546772" lon="1.8205067">
        <ele>139.0</ele>
        <time>2022-02-10T09:58:27Z</time>
      </trkpt>
      <trkpt lat="47.546783" lon="1.8205173">
        <ele>138.0</ele>
        <time>2022-02-10T09:58:28Z</time>
      </trkpt>
      <trkpt lat="47.54679" lon="1.8205241">
        <ele>139.0</ele>
        <time>2022-02-10T09:58:29Z</time>
      </trkpt>
      <trkpt lat="47.546806" lon="1.8205315">
        <ele>139.0</ele>
        <time>2022-02-10T09:58:30Z</time>
      </trkpt>
      <trkpt lat="47.546814" lon="1.8205404">
        <ele>138.0</ele>
        <time>2022-02-10T09:58:31Z</time>
      </trkpt>
      <trkpt lat="47.54682" lon="1.8205447">
        <ele>138.0</ele>
        <time>2022-02-10T09:58:32Z</time>
      </trkpt>
      <trkpt lat="47.54683" lon="1.8205501">
        <ele>138.0</ele>
        <time>2022-02-10T09:58:33Z</time>
      </trkpt>
      <trkpt lat="47.546837" lon="1.820558">
        <ele>138.0</ele>
        <time>2022-02-10T09:58:34Z</time>
      </trkpt>
      <trkpt lat="47.546852" lon="1.8205664">
        <ele>138.0</ele>
        <time>2022-02-10T09:58:35Z</time>
      </trkpt>
      <trkpt lat="47.546867" lon="1.8205757">
        <ele>137.0</ele>
        <time>2022-02-10T09:58:36Z</time>
      </trkpt>
      <trkpt lat="47.54688" lon="1.8205878">
        <ele>137.0</ele>
        <time>2022-02-10T09:58:37Z</time>
      </trkpt>
      <trkpt lat="47.54689" lon="1.8205938">
        <ele>137.0</ele>
        <time>2022-02-10T09:58:38Z</time>
      </trkpt>
      <trkpt lat="47.54689" lon="1.8205938">
        <ele>137.0</ele>
        <time>2022-02-10T09:58:39Z</time>
      </trkpt>
      <trkpt lat="47.54689" lon="1.8205938">
        <ele>137.0</ele>
        <time>2022-02-10T09:58:40Z</time>
      </trkpt>
      <trkpt lat="47.546913" lon="1.8206059">
        <ele>137.0</ele>
        <time>2022-02-10T09:58:41Z</time>
      </trkpt>
      <trkpt lat="47.54693" lon="1.8206197">
        <ele>137.0</ele>
        <time>2022-02-10T09:58:42Z</time>
      </trkpt>
      <trkpt lat="47.54694" lon="1.8206308">
        <ele>137.0</ele>
        <time>2022-02-10T09:58:43Z</time>
      </trkpt>
      <trkpt lat="47.54695" lon="1.8206404">
        <ele>137.0</ele>
        <time>2022-02-10T09:58:44Z</time>
      </trkpt>
      <trkpt lat="47.546963" lon="1.820651">
        <ele>137.0</ele>
        <time>2022-02-10T09:58:45Z</time>
      </trkpt>
      <trkpt lat="47.546974" lon="1.8206596">
        <ele>138.0</ele>
        <time>2022-02-10T09:58:46Z</time>
      </trkpt>
      <trkpt lat="47.546974" lon="1.8206596">
        <ele>138.0</ele>
        <time>2022-02-10T09:58:47Z</time>
      </trkpt>
      <trkpt lat="47.546974" lon="1.8206596">
        <ele>138.0</ele>
        <time>2022-02-10T09:58:48Z</time>
      </trkpt>
      <trkpt lat="47.547005" lon="1.820667">
        <ele>138.0</ele>
        <time>2022-02-10T09:58:49Z</time>
      </trkpt>
      <trkpt lat="47.547012" lon="1.8206744">
        <ele>138.0</ele>
        <time>2022-02-10T09:58:50Z</time>
      </trkpt>
      <trkpt lat="47.547024" lon="1.820684">
        <ele>138.0</ele>
        <time>2022-02-10T09:58:51Z</time>
      </trkpt>
      <trkpt lat="47.54704" lon="1.8206929">
        <ele>138.0</ele>
        <time>2022-02-10T09:58:52Z</time>
      </trkpt>
      <trkpt lat="47.54705" lon="1.8207002">
        <ele>138.0</ele>
        <time>2022-02-10T09:58:53Z</time>
      </trkpt>
      <trkpt lat="47.547062" lon="1.8207167">
        <ele>138.0</ele>
        <time>2022-02-10T09:58:54Z</time>
      </trkpt>
      <trkpt lat="47.547073" lon="1.820728">
        <ele>138.0</ele>
        <time>2022-02-10T09:58:55Z</time>
      </trkpt>
      <trkpt lat="47.547085" lon="1.8207372">
        <ele>138.0</ele>
        <time>2022-02-10T09:58:56Z</time>
      </trkpt>
      <trkpt lat="47.5471" lon="1.8207382">
        <ele>138.0</ele>
        <time>2022-02-10T09:58:57Z</time>
      </trkpt>
      <trkpt lat="47.547108" lon="1.8207419">
        <ele>138.0</ele>
        <time>2022-02-10T09:58:58Z</time>
      </trkpt>
      <trkpt lat="47.54712" lon="1.8207464">
        <ele>138.0</ele>
        <time>2022-02-10T09:58:59Z</time>
      </trkpt>
      <trkpt lat="47.547134" lon="1.8207533">
        <ele>138.0</ele>
        <time>2022-02-10T09:59:00Z</time>
      </trkpt>
      <trkpt lat="47.547142" lon="1.8207598">
        <ele>138.0</ele>
        <time>2022-02-10T09:59:01Z</time>
      </trkpt>
      <trkpt lat="47.547153" lon="1.8207667">
        <ele>138.0</ele>
        <time>2022-02-10T09:59:02Z</time>
      </trkpt>
      <trkpt lat="47.54717" lon="1.820771">
        <ele>138.0</ele>
        <time>2022-02-10T09:59:03Z</time>
      </trkpt>
      <trkpt lat="47.547184" lon="1.8207824">
        <ele>138.0</ele>
        <time>2022-02-10T09:59:04Z</time>
      </trkpt>
      <trkpt lat="47.5472" lon="1.8207873">
        <ele>138.0</ele>
        <time>2022-02-10T09:59:05Z</time>
      </trkpt>
      <trkpt lat="47.54721" lon="1.8208004">
        <ele>138.0</ele>
        <time>2022-02-10T09:59:06Z</time>
      </trkpt>
      <trkpt lat="47.54722" lon="1.8208072">
        <ele>138.0</ele>
        <time>2022-02-10T09:59:07Z</time>
      </trkpt>
      <trkpt lat="47.54723" lon="1.8208131">
        <ele>138.0</ele>
        <time>2022-02-10T09:59:08Z</time>
      </trkpt>
      <trkpt lat="47.54724" lon="1.8208183">
        <ele>138.0</ele>
        <time>2022-02-10T09:59:09Z</time>
      </trkpt>
      <trkpt lat="47.547253" lon="1.8208283">
        <ele>138.0</ele>
        <time>2022-02-10T09:59:10Z</time>
      </trkpt>
      <trkpt lat="47.54726" lon="1.8208394">
        <ele>139.0</ele>
        <time>2022-02-10T09:59:11Z</time>
      </trkpt>
      <trkpt lat="47.547276" lon="1.82085">
        <ele>139.0</ele>
        <time>2022-02-10T09:59:12Z</time>
      </trkpt>
      <trkpt lat="47.547287" lon="1.8208591">
        <ele>139.0</ele>
        <time>2022-02-10T09:59:13Z</time>
      </trkpt>
      <trkpt lat="47.5473" lon="1.8208653">
        <ele>139.0</ele>
        <time>2022-02-10T09:59:14Z</time>
      </trkpt>
      <trkpt lat="47.54731" lon="1.820877">
        <ele>139.0</ele>
        <time>2022-02-10T09:59:15Z</time>
      </trkpt>
      <trkpt lat="47.547325" lon="1.8208872">
        <ele>139.0</ele>
        <time>2022-02-10T09:59:16Z</time>
      </trkpt>
      <trkpt lat="47.54734" lon="1.8208971">
        <ele>138.0</ele>
        <time>2022-02-10T09:59:17Z</time>
      </trkpt>
      <trkpt lat="47.54735" lon="1.8209004">
        <ele>138.0</ele>
        <time>2022-02-10T09:59:18Z</time>
      </trkpt>
      <trkpt lat="47.54736" lon="1.8209046">
        <ele>138.0</ele>
        <time>2022-02-10T09:59:19Z</time>
      </trkpt>
      <trkpt lat="47.547375" lon="1.8209078">
        <ele>139.0</ele>
        <time>2022-02-10T09:59:20Z</time>
      </trkpt>
      <trkpt lat="47.54738" lon="1.820915">
        <ele>139.0</ele>
        <time>2022-02-10T09:59:21Z</time>
      </trkpt>
      <trkpt lat="47.547386" lon="1.8209231">
        <ele>139.0</ele>
        <time>2022-02-10T09:59:22Z</time>
      </trkpt>
      <trkpt lat="47.547394" lon="1.8209318">
        <ele>139.0</ele>
        <time>2022-02-10T09:59:23Z</time>
      </trkpt>
      <trkpt lat="47.547405" lon="1.8209419">
        <ele>140.0</ele>
        <time>2022-02-10T09:59:24Z</time>
      </trkpt>
      <trkpt lat="47.547417" lon="1.8209527">
        <ele>140.0</ele>
        <time>2022-02-10T09:59:25Z</time>
      </trkpt>
      <trkpt lat="47.54743" lon="1.820962">
        <ele>140.0</ele>
        <time>2022-02-10T09:59:26Z</time>
      </trkpt>
      <trkpt lat="47.547436" lon="1.8209679">
        <ele>140.0</ele>
        <time>2022-02-10T09:59:27Z</time>
      </trkpt>
      <trkpt lat="47.547447" lon="1.8209803">
        <ele>140.0</ele>
        <time>2022-02-10T09:59:28Z</time>
      </trkpt>
      <trkpt lat="47.54746" lon="1.8209852">
        <ele>141.0</ele>
        <time>2022-02-10T09:59:29Z</time>
      </trkpt>
      <trkpt lat="47.547474" lon="1.8209953">
        <ele>141.0</ele>
        <time>2022-02-10T09:59:30Z</time>
      </trkpt>
      <trkpt lat="47.547485" lon="1.8210008">
        <ele>141.0</ele>
        <time>2022-02-10T09:59:31Z</time>
      </trkpt>
      <trkpt lat="47.5475" lon="1.8210094">
        <ele>141.0</ele>
        <time>2022-02-10T09:59:32Z</time>
      </trkpt>
      <trkpt lat="47.547516" lon="1.8210196">
        <ele>142.0</ele>
        <time>2022-02-10T09:59:33Z</time>
      </trkpt>
      <trkpt lat="47.54753" lon="1.8210233">
        <ele>142.0</ele>
        <time>2022-02-10T09:59:34Z</time>
      </trkpt>
      <trkpt lat="47.547546" lon="1.8210311">
        <ele>141.0</ele>
        <time>2022-02-10T09:59:35Z</time>
      </trkpt>
      <trkpt lat="47.547554" lon="1.8210397">
        <ele>142.0</ele>
        <time>2022-02-10T09:59:36Z</time>
      </trkpt>
      <trkpt lat="47.54756" lon="1.8210479">
        <ele>142.0</ele>
        <time>2022-02-10T09:59:37Z</time>
      </trkpt>
      <trkpt lat="47.547577" lon="1.8210611">
        <ele>141.0</ele>
        <time>2022-02-10T09:59:38Z</time>
      </trkpt>
      <trkpt lat="47.54759" lon="1.8210692">
        <ele>141.0</ele>
        <time>2022-02-10T09:59:39Z</time>
      </trkpt>
      <trkpt lat="47.547592" lon="1.8210783">
        <ele>141.0</ele>
        <time>2022-02-10T09:59:40Z</time>
      </trkpt>
      <trkpt lat="47.547604" lon="1.8210886">
        <ele>141.0</ele>
        <time>2022-02-10T09:59:41Z</time>
      </trkpt>
      <trkpt lat="47.547615" lon="1.8210925">
        <ele>141.0</ele>
        <time>2022-02-10T09:59:42Z</time>
      </trkpt>
      <trkpt lat="47.547626" lon="1.8210948">
        <ele>141.0</ele>
        <time>2022-02-10T09:59:43Z</time>
      </trkpt>
      <trkpt lat="47.547638" lon="1.8210987">
        <ele>141.0</ele>
        <time>2022-02-10T09:59:44Z</time>
      </trkpt>
      <trkpt lat="47.54765" lon="1.8211135">
        <ele>141.0</ele>
        <time>2022-02-10T09:59:45Z</time>
      </trkpt>
      <trkpt lat="47.547657" lon="1.8211255">
        <ele>141.0</ele>
        <time>2022-02-10T09:59:46Z</time>
      </trkpt>
      <trkpt lat="47.547672" lon="1.8211384">
        <ele>141.0</ele>
        <time>2022-02-10T09:59:47Z</time>
      </trkpt>
      <trkpt lat="47.547684" lon="1.8211486">
        <ele>141.0</ele>
        <time>2022-02-10T09:59:48Z</time>
      </trkpt>
      <trkpt lat="47.5477" lon="1.8211569">
        <ele>142.0</ele>
        <time>2022-02-10T09:59:49Z</time>
      </trkpt>
      <trkpt lat="47.547714" lon="1.8211643">
        <ele>142.0</ele>
        <time>2022-02-10T09:59:50Z</time>
      </trkpt>
      <trkpt lat="47.547726" lon="1.8211778">
        <ele>142.0</ele>
        <time>2022-02-10T09:59:51Z</time>
      </trkpt>
      <trkpt lat="47.547737" lon="1.8211873">
        <ele>141.0</ele>
        <time>2022-02-10T09:59:52Z</time>
      </trkpt>
      <trkpt lat="47.547745" lon="1.8211911">
        <ele>141.0</ele>
        <time>2022-02-10T09:59:53Z</time>
      </trkpt>
      <trkpt lat="47.547756" lon="1.8211952">
        <ele>141.0</ele>
        <time>2022-02-10T09:59:54Z</time>
      </trkpt>
      <trkpt lat="47.54777" lon="1.821205">
        <ele>141.0</ele>
        <time>2022-02-10T09:59:55Z</time>
      </trkpt>
      <trkpt lat="47.54778" lon="1.821213">
        <ele>141.0</ele>
        <time>2022-02-10T09:59:56Z</time>
      </trkpt>
      <trkpt lat="47.54779" lon="1.8212167">
        <ele>140.0</ele>
        <time>2022-02-10T09:59:57Z</time>
      </trkpt>
      <trkpt lat="47.54779" lon="1.8212167">
        <ele>140.0</ele>
        <time>2022-02-10T09:59:58Z</time>
      </trkpt>
      <trkpt lat="47.54779" lon="1.8212167">
        <ele>140.0</ele>
        <time>2022-02-10T09:59:59Z</time>
      </trkpt>
      <trkpt lat="47.547806" lon="1.8212351">
        <ele>139.0</ele>
        <time>2022-02-10T10:00:00Z</time>
      </trkpt>
      <trkpt lat="47.547817" lon="1.821237">
        <ele>139.0</ele>
        <time>2022-02-10T10:00:01Z</time>
      </trkpt>
      <trkpt lat="47.54783" lon="1.8212402">
        <ele>138.0</ele>
        <time>2022-02-10T10:00:02Z</time>
      </trkpt>
      <trkpt lat="47.547836" lon="1.821238">
        <ele>138.0</ele>
        <time>2022-02-10T10:00:03Z</time>
      </trkpt>
      <trkpt lat="47.547844" lon="1.8212444">
        <ele>137.0</ele>
        <time>2022-02-10T10:00:04Z</time>
      </trkpt>
      <trkpt lat="47.547855" lon="1.8212503">
        <ele>137.0</ele>
        <time>2022-02-10T10:00:05Z</time>
      </trkpt>
      <trkpt lat="47.547863" lon="1.8212554">
        <ele>137.0</ele>
        <time>2022-02-10T10:00:06Z</time>
      </trkpt>
      <trkpt lat="47.547867" lon="1.8212665">
        <ele>138.0</ele>
        <time>2022-02-10T10:00:07Z</time>
      </trkpt>
      <trkpt lat="47.54788" lon="1.8212796">
        <ele>138.0</ele>
        <time>2022-02-10T10:00:08Z</time>
      </trkpt>
      <trkpt lat="47.547894" lon="1.8212904">
        <ele>138.0</ele>
        <time>2022-02-10T10:00:09Z</time>
      </trkpt>
      <trkpt lat="47.547905" lon="1.8213075">
        <ele>137.0</ele>
        <time>2022-02-10T10:00:10Z</time>
      </trkpt>
      <trkpt lat="47.547913" lon="1.8213217">
        <ele>137.0</ele>
        <time>2022-02-10T10:00:11Z</time>
      </trkpt>
      <trkpt lat="47.547928" lon="1.8213321">
        <ele>137.0</ele>
        <time>2022-02-10T10:00:12Z</time>
      </trkpt>
      <trkpt lat="47.547943" lon="1.8213446">
        <ele>137.0</ele>
        <time>2022-02-10T10:00:13Z</time>
      </trkpt>
      <trkpt lat="47.547962" lon="1.8213558">
        <ele>137.0</ele>
        <time>2022-02-10T10:00:14Z</time>
      </trkpt>
      <trkpt lat="47.547974" lon="1.8213695">
        <ele>138.0</ele>
        <time>2022-02-10T10:00:15Z</time>
      </trkpt>
      <trkpt lat="47.54799" lon="1.8213801">
        <ele>138.0</ele>
        <time>2022-02-10T10:00:16Z</time>
      </trkpt>
      <trkpt lat="47.548" lon="1.8213869">
        <ele>138.0</ele>
        <time>2022-02-10T10:00:17Z</time>
      </trkpt>
      <trkpt lat="47.548016" lon="1.8213925">
        <ele>138.0</ele>
        <time>2022-02-10T10:00:18Z</time>
      </trkpt>
      <trkpt lat="47.548046" lon="1.8214033">
        <ele>138.0</ele>
        <time>2022-02-10T10:00:19Z</time>
      </trkpt>
      <trkpt lat="47.548046" lon="1.8214033">
        <ele>138.0</ele>
        <time>2022-02-10T10:00:19Z</time>
      </trkpt>
      <trkpt lat="47.548054" lon="1.8214129">
        <ele>138.0</ele>
        <time>2022-02-10T10:00:21Z</time>
      </trkpt>
      <trkpt lat="47.548065" lon="1.8214153">
        <ele>138.0</ele>
        <time>2022-02-10T10:00:22Z</time>
      </trkpt>
      <trkpt lat="47.548077" lon="1.8214208">
        <ele>138.0</ele>
        <time>2022-02-10T10:00:23Z</time>
      </trkpt>
      <trkpt lat="47.548088" lon="1.8214325">
        <ele>138.0</ele>
        <time>2022-02-10T10:00:24Z</time>
      </trkpt>
      <trkpt lat="47.548096" lon="1.8214431">
        <ele>138.0</ele>
        <time>2022-02-10T10:00:25Z</time>
      </trkpt>
      <trkpt lat="47.548103" lon="1.8214482">
        <ele>138.0</ele>
        <time>2022-02-10T10:00:26Z</time>
      </trkpt>
      <trkpt lat="47.54811" lon="1.8214535">
        <ele>138.0</ele>
        <time>2022-02-10T10:00:27Z</time>
      </trkpt>
      <trkpt lat="47.54813" lon="1.8214661">
        <ele>138.0</ele>
        <time>2022-02-10T10:00:28Z</time>
      </trkpt>
      <trkpt lat="47.548145" lon="1.8214769">
        <ele>138.0</ele>
        <time>2022-02-10T10:00:29Z</time>
      </trkpt>
      <trkpt lat="47.548153" lon="1.8214853">
        <ele>139.0</ele>
        <time>2022-02-10T10:00:30Z</time>
      </trkpt>
      <trkpt lat="47.548172" lon="1.8214965">
        <ele>140.0</ele>
        <time>2022-02-10T10:00:31Z</time>
      </trkpt>
      <trkpt lat="47.54818" lon="1.8215097">
        <ele>140.0</ele>
        <time>2022-02-10T10:00:32Z</time>
      </trkpt>
      <trkpt lat="47.548183" lon="1.8215159">
        <ele>139.0</ele>
        <time>2022-02-10T10:00:33Z</time>
      </trkpt>
      <trkpt lat="47.5482" lon="1.8215189">
        <ele>140.0</ele>
        <time>2022-02-10T10:00:34Z</time>
      </trkpt>
      <trkpt lat="47.5482" lon="1.8215189">
        <ele>140.0</ele>
        <time>2022-02-10T10:00:35Z</time>
      </trkpt>
      <trkpt lat="47.5482" lon="1.8215189">
        <ele>140.0</ele>
        <time>2022-02-10T10:00:35Z</time>
      </trkpt>
      <trkpt lat="47.548218" lon="1.8215439">
        <ele>139.0</ele>
        <time>2022-02-10T10:00:37Z</time>
      </trkpt>
      <trkpt lat="47.548225" lon="1.8215559">
        <ele>139.0</ele>
        <time>2022-02-10T10:00:38Z</time>
      </trkpt>
      <trkpt lat="47.548233" lon="1.8215699">
        <ele>140.0</ele>
        <time>2022-02-10T10:00:39Z</time>
      </trkpt>
      <trkpt lat="47.54825" lon="1.8215826">
        <ele>140.0</ele>
        <time>2022-02-10T10:00:40Z</time>
      </trkpt>
      <trkpt lat="47.54826" lon="1.821586">
        <ele>140.0</ele>
        <time>2022-02-10T10:00:41Z</time>
      </trkpt>
      <trkpt lat="47.548275" lon="1.8215873">
        <ele>140.0</ele>
        <time>2022-02-10T10:00:42Z</time>
      </trkpt>
      <trkpt lat="47.54829" lon="1.8215904">
        <ele>140.0</ele>
        <time>2022-02-10T10:00:43Z</time>
      </trkpt>
      <trkpt lat="47.5483" lon="1.8216003">
        <ele>139.0</ele>
        <time>2022-02-10T10:00:44Z</time>
      </trkpt>
      <trkpt lat="47.54833" lon="1.8216176">
        <ele>139.0</ele>
        <time>2022-02-10T10:00:45Z</time>
      </trkpt>
      <trkpt lat="47.548336" lon="1.8216215">
        <ele>138.0</ele>
        <time>2022-02-10T10:00:46Z</time>
      </trkpt>
      <trkpt lat="47.548347" lon="1.8216286">
        <ele>138.0</ele>
        <time>2022-02-10T10:00:47Z</time>
      </trkpt>
      <trkpt lat="47.548347" lon="1.8216286">
        <ele>138.0</ele>
        <time>2022-02-10T10:00:47Z</time>
      </trkpt>
      <trkpt lat="47.548363" lon="1.8216436">
        <ele>138.0</ele>
        <time>2022-02-10T10:00:49Z</time>
      </trkpt>
      <trkpt lat="47.548378" lon="1.8216451">
        <ele>138.0</ele>
        <time>2022-02-10T10:00:50Z</time>
      </trkpt>
      <trkpt lat="47.548378" lon="1.8216451">
        <ele>138.0</ele>
        <time>2022-02-10T10:00:50Z</time>
      </trkpt>
      <trkpt lat="47.5484" lon="1.8216584">
        <ele>139.0</ele>
        <time>2022-02-10T10:00:52Z</time>
      </trkpt>
      <trkpt lat="47.54841" lon="1.8216709">
        <ele>139.0</ele>
        <time>2022-02-10T10:00:53Z</time>
      </trkpt>
      <trkpt lat="47.548416" lon="1.8216755">
        <ele>138.0</ele>
        <time>2022-02-10T10:00:54Z</time>
      </trkpt>
      <trkpt lat="47.548428" lon="1.8216859">
        <ele>138.0</ele>
        <time>2022-02-10T10:00:55Z</time>
      </trkpt>
      <trkpt lat="47.548428" lon="1.8216859">
        <ele>138.0</ele>
        <time>2022-02-10T10:00:55Z</time>
      </trkpt>
      <trkpt lat="47.54845" lon="1.8216991">
        <ele>137.0</ele>
        <time>2022-02-10T10:00:57Z</time>
      </trkpt>
      <trkpt lat="47.548466" lon="1.8217082">
        <ele>137.0</ele>
        <time>2022-02-10T10:00:58Z</time>
      </trkpt>
      <trkpt lat="47.548473" lon="1.8217144">
        <ele>137.0</ele>
        <time>2022-02-10T10:00:59Z</time>
      </trkpt>
      <trkpt lat="47.548492" lon="1.8217164">
        <ele>137.0</ele>
        <time>2022-02-10T10:01:00Z</time>
      </trkpt>
      <trkpt lat="47.548504" lon="1.8217189">
        <ele>137.0</ele>
        <time>2022-02-10T10:01:01Z</time>
      </trkpt>
      <trkpt lat="47.54851" lon="1.8217276">
        <ele>137.0</ele>
        <time>2022-02-10T10:01:02Z</time>
      </trkpt>
      <trkpt lat="47.548523" lon="1.8217382">
        <ele>137.0</ele>
        <time>2022-02-10T10:01:03Z</time>
      </trkpt>
      <trkpt lat="47.54853" lon="1.8217468">
        <ele>137.0</ele>
        <time>2022-02-10T10:01:05Z</time>
      </trkpt>
      <trkpt lat="47.54853" lon="1.8217468">
        <ele>137.0</ele>
        <time>2022-02-10T10:01:06Z</time>
      </trkpt>
      <trkpt lat="47.54853" lon="1.8217468">
        <ele>137.0</ele>
        <time>2022-02-10T10:01:07Z</time>
      </trkpt>
      <trkpt lat="47.54856" lon="1.8217708">
        <ele>136.0</ele>
        <time>2022-02-10T10:01:08Z</time>
      </trkpt>
      <trkpt lat="47.54857" lon="1.8217766">
        <ele>136.0</ele>
        <time>2022-02-10T10:01:09Z</time>
      </trkpt>
      <trkpt lat="47.548576" lon="1.8217828">
        <ele>135.0</ele>
        <time>2022-02-10T10:01:10Z</time>
      </trkpt>
      <trkpt lat="47.548576" lon="1.8217828">
        <ele>135.0</ele>
        <time>2022-02-10T10:01:10Z</time>
      </trkpt>
      <trkpt lat="47.548584" lon="1.821788">
        <ele>135.0</ele>
        <time>2022-02-10T10:01:12Z</time>
      </trkpt>
      <trkpt lat="47.548584" lon="1.821788">
        <ele>135.0</ele>
        <time>2022-02-10T10:01:13Z</time>
      </trkpt>
      <trkpt lat="47.5486" lon="1.8218095">
        <ele>134.0</ele>
        <time>2022-02-10T10:01:14Z</time>
      </trkpt>
      <trkpt lat="47.548615" lon="1.8218192">
        <ele>135.0</ele>
        <time>2022-02-10T10:01:15Z</time>
      </trkpt>
      <trkpt lat="47.54863" lon="1.8218259">
        <ele>134.0</ele>
        <time>2022-02-10T10:01:16Z</time>
      </trkpt>
      <trkpt lat="47.548637" lon="1.8218378">
        <ele>135.0</ele>
        <time>2022-02-10T10:01:17Z</time>
      </trkpt>
      <trkpt lat="47.54865" lon="1.8218466">
        <ele>135.0</ele>
        <time>2022-02-10T10:01:18Z</time>
      </trkpt>
      <trkpt lat="47.548664" lon="1.8218564">
        <ele>134.0</ele>
        <time>2022-02-10T10:01:19Z</time>
      </trkpt>
      <trkpt lat="47.548676" lon="1.8218671">
        <ele>134.0</ele>
        <time>2022-02-10T10:01:20Z</time>
      </trkpt>
      <trkpt lat="47.548683" lon="1.8218769">
        <ele>134.0</ele>
        <time>2022-02-10T10:01:21Z</time>
      </trkpt>
      <trkpt lat="47.548695" lon="1.821888">
        <ele>135.0</ele>
        <time>2022-02-10T10:01:22Z</time>
      </trkpt>
      <trkpt lat="47.548706" lon="1.8219014">
        <ele>135.0</ele>
        <time>2022-02-10T10:01:23Z</time>
      </trkpt>
      <trkpt lat="47.54872" lon="1.8219119">
        <ele>135.0</ele>
        <time>2022-02-10T10:01:24Z</time>
      </trkpt>
      <trkpt lat="47.548733" lon="1.8219266">
        <ele>135.0</ele>
        <time>2022-02-10T10:01:25Z</time>
      </trkpt>
      <trkpt lat="47.54874" lon="1.8219471">
        <ele>133.0</ele>
        <time>2022-02-10T10:01:26Z</time>
      </trkpt>
      <trkpt lat="47.548748" lon="1.8219651">
        <ele>133.0</ele>
        <time>2022-02-10T10:01:27Z</time>
      </trkpt>
      <trkpt lat="47.548756" lon="1.8219826">
        <ele>133.0</ele>
        <time>2022-02-10T10:01:28Z</time>
      </trkpt>
      <trkpt lat="47.548767" lon="1.8219905">
        <ele>133.0</ele>
        <time>2022-02-10T10:01:29Z</time>
      </trkpt>
      <trkpt lat="47.548767" lon="1.8219905">
        <ele>133.0</ele>
        <time>2022-02-10T10:01:29Z</time>
      </trkpt>
      <trkpt lat="47.548767" lon="1.8219905">
        <ele>133.0</ele>
        <time>2022-02-10T10:01:31Z</time>
      </trkpt>
      <trkpt lat="47.54878" lon="1.8220301">
        <ele>133.0</ele>
        <time>2022-02-10T10:01:32Z</time>
      </trkpt>
      <trkpt lat="47.548782" lon="1.822043">
        <ele>134.0</ele>
        <time>2022-02-10T10:01:33Z</time>
      </trkpt>
      <trkpt lat="47.54879" lon="1.8220577">
        <ele>134.0</ele>
        <time>2022-02-10T10:01:34Z</time>
      </trkpt>
      <trkpt lat="47.54879" lon="1.8220721">
        <ele>134.0</ele>
        <time>2022-02-10T10:01:35Z</time>
      </trkpt>
      <trkpt lat="47.54879" lon="1.8220721">
        <ele>134.0</ele>
        <time>2022-02-10T10:01:36Z</time>
      </trkpt>
      <trkpt lat="47.54879" lon="1.8220721">
        <ele>134.0</ele>
        <time>2022-02-10T10:01:37Z</time>
      </trkpt>
      <trkpt lat="47.54879" lon="1.8220721">
        <ele>134.0</ele>
        <time>2022-02-10T10:01:38Z</time>
      </trkpt>
      <trkpt lat="47.548805" lon="1.8221012">
        <ele>135.0</ele>
        <time>2022-02-10T10:01:39Z</time>
      </trkpt>
      <trkpt lat="47.548813" lon="1.8221136">
        <ele>135.0</ele>
        <time>2022-02-10T10:01:40Z</time>
      </trkpt>
      <trkpt lat="47.548813" lon="1.8221279">
        <ele>134.0</ele>
        <time>2022-02-10T10:01:41Z</time>
      </trkpt>
      <trkpt lat="47.548817" lon="1.8221444">
        <ele>134.0</ele>
        <time>2022-02-10T10:01:42Z</time>
      </trkpt>
      <trkpt lat="47.548817" lon="1.8221444">
        <ele>134.0</ele>
        <time>2022-02-10T10:01:43Z</time>
      </trkpt>
      <trkpt lat="47.548817" lon="1.8221444">
        <ele>134.0</ele>
        <time>2022-02-10T10:01:44Z</time>
      </trkpt>
      <trkpt lat="47.548832" lon="1.8221846">
        <ele>134.0</ele>
        <time>2022-02-10T10:01:45Z</time>
      </trkpt>
      <trkpt lat="47.54884" lon="1.8222003">
        <ele>134.0</ele>
        <time>2022-02-10T10:01:46Z</time>
      </trkpt>
      <trkpt lat="47.548843" lon="1.8222151">
        <ele>134.0</ele>
        <time>2022-02-10T10:01:47Z</time>
      </trkpt>
      <trkpt lat="47.54885" lon="1.8222283">
        <ele>134.0</ele>
        <time>2022-02-10T10:01:48Z</time>
      </trkpt>
      <trkpt lat="47.54885" lon="1.8222283">
        <ele>134.0</ele>
        <time>2022-02-10T10:01:49Z</time>
      </trkpt>
      <trkpt lat="47.54885" lon="1.8222283">
        <ele>134.0</ele>
        <time>2022-02-10T10:01:50Z</time>
      </trkpt>
      <trkpt lat="47.54887" lon="1.8222696">
        <ele>133.0</ele>
        <time>2022-02-10T10:01:51Z</time>
      </trkpt>
      <trkpt lat="47.548878" lon="1.8222818">
        <ele>133.0</ele>
        <time>2022-02-10T10:01:52Z</time>
      </trkpt>
      <trkpt lat="47.548885" lon="1.8222939">
        <ele>133.0</ele>
        <time>2022-02-10T10:01:53Z</time>
      </trkpt>
      <trkpt lat="47.54889" lon="1.8223075">
        <ele>133.0</ele>
        <time>2022-02-10T10:01:54Z</time>
      </trkpt>
      <trkpt lat="47.54889" lon="1.8223075">
        <ele>133.0</ele>
        <time>2022-02-10T10:01:55Z</time>
      </trkpt>
      <trkpt lat="47.54889" lon="1.8223075">
        <ele>133.0</ele>
        <time>2022-02-10T10:01:56Z</time>
      </trkpt>
      <trkpt lat="47.548904" lon="1.8223412">
        <ele>133.0</ele>
        <time>2022-02-10T10:01:57Z</time>
      </trkpt>
      <trkpt lat="47.548904" lon="1.8223417">
        <ele>133.0</ele>
        <time>2022-02-10T10:01:58Z</time>
      </trkpt>
      <trkpt lat="47.548912" lon="1.8223524">
        <ele>133.0</ele>
        <time>2022-02-10T10:01:59Z</time>
      </trkpt>
      <trkpt lat="47.548916" lon="1.822366">
        <ele>133.0</ele>
        <time>2022-02-10T10:02:00Z</time>
      </trkpt>
      <trkpt lat="47.548923" lon="1.8223822">
        <ele>133.0</ele>
        <time>2022-02-10T10:02:01Z</time>
      </trkpt>
      <trkpt lat="47.54893" lon="1.8224002">
        <ele>133.0</ele>
        <time>2022-02-10T10:02:02Z</time>
      </trkpt>
      <trkpt lat="47.548935" lon="1.8224208">
        <ele>133.0</ele>
        <time>2022-02-10T10:02:03Z</time>
      </trkpt>
      <trkpt lat="47.548946" lon="1.8224424">
        <ele>133.0</ele>
        <time>2022-02-10T10:02:04Z</time>
      </trkpt>
      <trkpt lat="47.54895" lon="1.8224593">
        <ele>132.0</ele>
        <time>2022-02-10T10:02:05Z</time>
      </trkpt>
      <trkpt lat="47.548958" lon="1.8224792">
        <ele>132.0</ele>
        <time>2022-02-10T10:02:06Z</time>
      </trkpt>
      <trkpt lat="47.548965" lon="1.8224945">
        <ele>131.0</ele>
        <time>2022-02-10T10:02:07Z</time>
      </trkpt>
      <trkpt lat="47.548973" lon="1.8225108">
        <ele>131.0</ele>
        <time>2022-02-10T10:02:08Z</time>
      </trkpt>
      <trkpt lat="47.54898" lon="1.8225273">
        <ele>131.0</ele>
        <time>2022-02-10T10:02:09Z</time>
      </trkpt>
      <trkpt lat="47.54899" lon="1.8225431">
        <ele>131.0</ele>
        <time>2022-02-10T10:02:10Z</time>
      </trkpt>
      <trkpt lat="47.54899" lon="1.8225431">
        <ele>131.0</ele>
        <time>2022-02-10T10:02:11Z</time>
      </trkpt>
      <trkpt lat="47.54899" lon="1.8225431">
        <ele>131.0</ele>
        <time>2022-02-10T10:02:12Z</time>
      </trkpt>
      <trkpt lat="47.549007" lon="1.8225807">
        <ele>130.0</ele>
        <time>2022-02-10T10:02:13Z</time>
      </trkpt>
      <trkpt lat="47.54901" lon="1.8225981">
        <ele>130.0</ele>
        <time>2022-02-10T10:02:14Z</time>
      </trkpt>
      <trkpt lat="47.54902" lon="1.8226182">
        <ele>130.0</ele>
        <time>2022-02-10T10:02:15Z</time>
      </trkpt>
      <trkpt lat="47.549023" lon="1.822632">
        <ele>130.0</ele>
        <time>2022-02-10T10:02:16Z</time>
      </trkpt>
      <trkpt lat="47.54903" lon="1.8226478">
        <ele>130.0</ele>
        <time>2022-02-10T10:02:17Z</time>
      </trkpt>
      <trkpt lat="47.549034" lon="1.8226606">
        <ele>130.0</ele>
        <time>2022-02-10T10:02:18Z</time>
      </trkpt>
      <trkpt lat="47.549038" lon="1.8226757">
        <ele>129.0</ele>
        <time>2022-02-10T10:02:19Z</time>
      </trkpt>
      <trkpt lat="47.54904" lon="1.8226899">
        <ele>129.0</ele>
        <time>2022-02-10T10:02:20Z</time>
      </trkpt>
      <trkpt lat="47.54905" lon="1.8227125">
        <ele>129.0</ele>
        <time>2022-02-10T10:02:21Z</time>
      </trkpt>
      <trkpt lat="47.549057" lon="1.8227303">
        <ele>129.0</ele>
        <time>2022-02-10T10:02:22Z</time>
      </trkpt>
      <trkpt lat="47.54907" lon="1.8227503">
        <ele>130.0</ele>
        <time>2022-02-10T10:02:23Z</time>
      </trkpt>
      <trkpt lat="47.54908" lon="1.8227708">
        <ele>130.0</ele>
        <time>2022-02-10T10:02:24Z</time>
      </trkpt>
      <trkpt lat="47.549088" lon="1.8227865">
        <ele>130.0</ele>
        <time>2022-02-10T10:02:25Z</time>
      </trkpt>
      <trkpt lat="47.549095" lon="1.8228006">
        <ele>130.0</ele>
        <time>2022-02-10T10:02:26Z</time>
      </trkpt>
      <trkpt lat="47.549103" lon="1.8228151">
        <ele>129.0</ele>
        <time>2022-02-10T10:02:27Z</time>
      </trkpt>
      <trkpt lat="47.54911" lon="1.8228292">
        <ele>129.0</ele>
        <time>2022-02-10T10:02:28Z</time>
      </trkpt>
      <trkpt lat="47.549118" lon="1.8228416">
        <ele>129.0</ele>
        <time>2022-02-10T10:02:29Z</time>
      </trkpt>
      <trkpt lat="47.54912" lon="1.8228508">
        <ele>129.0</ele>
        <time>2022-02-10T10:02:30Z</time>
      </trkpt>
      <trkpt lat="47.54912" lon="1.8228508">
        <ele>129.0</ele>
        <time>2022-02-10T10:02:31Z</time>
      </trkpt>
      <trkpt lat="47.54912" lon="1.8228508">
        <ele>129.0</ele>
        <time>2022-02-10T10:02:32Z</time>
      </trkpt>
      <trkpt lat="47.54914" lon="1.8228836">
        <ele>129.0</ele>
        <time>2022-02-10T10:02:33Z</time>
      </trkpt>
      <trkpt lat="47.549145" lon="1.8229002">
        <ele>129.0</ele>
        <time>2022-02-10T10:02:34Z</time>
      </trkpt>
      <trkpt lat="47.54915" lon="1.8229158">
        <ele>129.0</ele>
        <time>2022-02-10T10:02:35Z</time>
      </trkpt>
      <trkpt lat="47.549156" lon="1.8229331">
        <ele>129.0</ele>
        <time>2022-02-10T10:02:36Z</time>
      </trkpt>
      <trkpt lat="47.54916" lon="1.8229471">
        <ele>129.0</ele>
        <time>2022-02-10T10:02:37Z</time>
      </trkpt>
      <trkpt lat="47.549164" lon="1.8229603">
        <ele>129.0</ele>
        <time>2022-02-10T10:02:38Z</time>
      </trkpt>
      <trkpt lat="47.549164" lon="1.8229603">
        <ele>129.0</ele>
        <time>2022-02-10T10:02:39Z</time>
      </trkpt>
      <trkpt lat="47.549164" lon="1.8229603">
        <ele>129.0</ele>
        <time>2022-02-10T10:02:40Z</time>
      </trkpt>
      <trkpt lat="47.549187" lon="1.8229945">
        <ele>129.0</ele>
        <time>2022-02-10T10:02:41Z</time>
      </trkpt>
      <trkpt lat="47.5492" lon="1.823014">
        <ele>129.0</ele>
        <time>2022-02-10T10:02:42Z</time>
      </trkpt>
      <trkpt lat="47.549202" lon="1.8230299">
        <ele>130.0</ele>
        <time>2022-02-10T10:02:43Z</time>
      </trkpt>
      <trkpt lat="47.549213" lon="1.823046">
        <ele>130.0</ele>
        <time>2022-02-10T10:02:44Z</time>
      </trkpt>
      <trkpt lat="47.549213" lon="1.823046">
        <ele>130.0</ele>
        <time>2022-02-10T10:02:45Z</time>
      </trkpt>
      <trkpt lat="47.549213" lon="1.823046">
        <ele>130.0</ele>
        <time>2022-02-10T10:02:46Z</time>
      </trkpt>
      <trkpt lat="47.54923" lon="1.8230697">
        <ele>130.0</ele>
        <time>2022-02-10T10:02:47Z</time>
      </trkpt>
      <trkpt lat="47.549236" lon="1.8230821">
        <ele>131.0</ele>
        <time>2022-02-10T10:02:48Z</time>
      </trkpt>
      <trkpt lat="47.549244" lon="1.8230964">
        <ele>131.0</ele>
        <time>2022-02-10T10:02:49Z</time>
      </trkpt>
      <trkpt lat="47.54925" lon="1.823105">
        <ele>131.0</ele>
        <time>2022-02-10T10:02:50Z</time>
      </trkpt>
      <trkpt lat="47.549267" lon="1.8231182">
        <ele>131.0</ele>
        <time>2022-02-10T10:02:51Z</time>
      </trkpt>
      <trkpt lat="47.549274" lon="1.8231332">
        <ele>131.0</ele>
        <time>2022-02-10T10:02:52Z</time>
      </trkpt>
      <trkpt lat="47.549286" lon="1.8231473">
        <ele>131.0</ele>
        <time>2022-02-10T10:02:53Z</time>
      </trkpt>
      <trkpt lat="47.54929" lon="1.8231595">
        <ele>132.0</ele>
        <time>2022-02-10T10:02:54Z</time>
      </trkpt>
      <trkpt lat="47.549294" lon="1.8231719">
        <ele>132.0</ele>
        <time>2022-02-10T10:02:55Z</time>
      </trkpt>
      <trkpt lat="47.5493" lon="1.823187">
        <ele>132.0</ele>
        <time>2022-02-10T10:02:56Z</time>
      </trkpt>
      <trkpt lat="47.5493" lon="1.823187">
        <ele>132.0</ele>
        <time>2022-02-10T10:02:57Z</time>
      </trkpt>
      <trkpt lat="47.5493" lon="1.823187">
        <ele>132.0</ele>
        <time>2022-02-10T10:02:58Z</time>
      </trkpt>
      <trkpt lat="47.549324" lon="1.8232152">
        <ele>131.0</ele>
        <time>2022-02-10T10:02:59Z</time>
      </trkpt>
      <trkpt lat="47.549335" lon="1.8232284">
        <ele>131.0</ele>
        <time>2022-02-10T10:03:00Z</time>
      </trkpt>
      <trkpt lat="47.549347" lon="1.823241">
        <ele>131.0</ele>
        <time>2022-02-10T10:03:01Z</time>
      </trkpt>
      <trkpt lat="47.549355" lon="1.8232574">
        <ele>131.0</ele>
        <time>2022-02-10T10:03:02Z</time>
      </trkpt>
      <trkpt lat="47.549355" lon="1.8232574">
        <ele>131.0</ele>
        <time>2022-02-10T10:03:03Z</time>
      </trkpt>
      <trkpt lat="47.549355" lon="1.8232574">
        <ele>131.0</ele>
        <time>2022-02-10T10:03:04Z</time>
      </trkpt>
      <trkpt lat="47.549377" lon="1.8232963">
        <ele>131.0</ele>
        <time>2022-02-10T10:03:05Z</time>
      </trkpt>
      <trkpt lat="47.54939" lon="1.8233119">
        <ele>131.0</ele>
        <time>2022-02-10T10:03:06Z</time>
      </trkpt>
      <trkpt lat="47.549397" lon="1.8233243">
        <ele>131.0</ele>
        <time>2022-02-10T10:03:07Z</time>
      </trkpt>
      <trkpt lat="47.549404" lon="1.8233387">
        <ele>130.0</ele>
        <time>2022-02-10T10:03:08Z</time>
      </trkpt>
      <trkpt lat="47.54941" lon="1.823354">
        <ele>130.0</ele>
        <time>2022-02-10T10:03:09Z</time>
      </trkpt>
      <trkpt lat="47.54942" lon="1.8233706">
        <ele>131.0</ele>
        <time>2022-02-10T10:03:10Z</time>
      </trkpt>
      <trkpt lat="47.54943" lon="1.8233875">
        <ele>131.0</ele>
        <time>2022-02-10T10:03:11Z</time>
      </trkpt>
      <trkpt lat="47.54944" lon="1.823406">
        <ele>131.0</ele>
        <time>2022-02-10T10:03:12Z</time>
      </trkpt>
      <trkpt lat="47.549446" lon="1.8234234">
        <ele>130.0</ele>
        <time>2022-02-10T10:03:13Z</time>
      </trkpt>
      <trkpt lat="47.549454" lon="1.8234423">
        <ele>130.0</ele>
        <time>2022-02-10T10:03:14Z</time>
      </trkpt>
      <trkpt lat="47.549458" lon="1.8234617">
        <ele>130.0</ele>
        <time>2022-02-10T10:03:15Z</time>
      </trkpt>
      <trkpt lat="47.54946" lon="1.8234875">
        <ele>130.0</ele>
        <time>2022-02-10T10:03:16Z</time>
      </trkpt>
      <trkpt lat="47.549465" lon="1.8235087">
        <ele>130.0</ele>
        <time>2022-02-10T10:03:17Z</time>
      </trkpt>
      <trkpt lat="47.549473" lon="1.8235279">
        <ele>131.0</ele>
        <time>2022-02-10T10:03:18Z</time>
      </trkpt>
      <trkpt lat="47.54948" lon="1.8235443">
        <ele>131.0</ele>
        <time>2022-02-10T10:03:19Z</time>
      </trkpt>
      <trkpt lat="47.54948" lon="1.8235443">
        <ele>131.0</ele>
        <time>2022-02-10T10:03:20Z</time>
      </trkpt>
      <trkpt lat="47.54948" lon="1.8235443">
        <ele>131.0</ele>
        <time>2022-02-10T10:03:21Z</time>
      </trkpt>
      <trkpt lat="47.549488" lon="1.8235894">
        <ele>130.0</ele>
        <time>2022-02-10T10:03:22Z</time>
      </trkpt>
      <trkpt lat="47.54949" lon="1.8236111">
        <ele>130.0</ele>
        <time>2022-02-10T10:03:23Z</time>
      </trkpt>
      <trkpt lat="47.54949" lon="1.8236284">
        <ele>130.0</ele>
        <time>2022-02-10T10:03:24Z</time>
      </trkpt>
      <trkpt lat="47.5495" lon="1.823649">
        <ele>130.0</ele>
        <time>2022-02-10T10:03:25Z</time>
      </trkpt>
      <trkpt lat="47.5495" lon="1.823649">
        <ele>130.0</ele>
        <time>2022-02-10T10:03:26Z</time>
      </trkpt>
      <trkpt lat="47.5495" lon="1.823649">
        <ele>130.0</ele>
        <time>2022-02-10T10:03:27Z</time>
      </trkpt>
      <trkpt lat="47.54952" lon="1.8236905">
        <ele>130.0</ele>
        <time>2022-02-10T10:03:28Z</time>
      </trkpt>
      <trkpt lat="47.549522" lon="1.823708">
        <ele>130.0</ele>
        <time>2022-02-10T10:03:29Z</time>
      </trkpt>
      <trkpt lat="47.549526" lon="1.823726">
        <ele>130.0</ele>
        <time>2022-02-10T10:03:30Z</time>
      </trkpt>
      <trkpt lat="47.54953" lon="1.8237404">
        <ele>130.0</ele>
        <time>2022-02-10T10:03:31Z</time>
      </trkpt>
      <trkpt lat="47.54953" lon="1.8237404">
        <ele>130.0</ele>
        <time>2022-02-10T10:03:32Z</time>
      </trkpt>
      <trkpt lat="47.54953" lon="1.8237404">
        <ele>130.0</ele>
        <time>2022-02-10T10:03:33Z</time>
      </trkpt>
      <trkpt lat="47.549545" lon="1.8237807">
        <ele>130.0</ele>
        <time>2022-02-10T10:03:34Z</time>
      </trkpt>
      <trkpt lat="47.54955" lon="1.8237966">
        <ele>130.0</ele>
        <time>2022-02-10T10:03:35Z</time>
      </trkpt>
      <trkpt lat="47.54955" lon="1.8238108">
        <ele>130.0</ele>
        <time>2022-02-10T10:03:36Z</time>
      </trkpt>
      <trkpt lat="47.549553" lon="1.8238292">
        <ele>130.0</ele>
        <time>2022-02-10T10:03:37Z</time>
      </trkpt>
      <trkpt lat="47.549553" lon="1.8238292">
        <ele>130.0</ele>
        <time>2022-02-10T10:03:38Z</time>
      </trkpt>
      <trkpt lat="47.549553" lon="1.8238292">
        <ele>130.0</ele>
        <time>2022-02-10T10:03:39Z</time>
      </trkpt>
      <trkpt lat="47.549557" lon="1.8238617">
        <ele>130.0</ele>
        <time>2022-02-10T10:03:40Z</time>
      </trkpt>
      <trkpt lat="47.549557" lon="1.8238801">
        <ele>130.0</ele>
        <time>2022-02-10T10:03:41Z</time>
      </trkpt>
      <trkpt lat="47.549557" lon="1.8238977">
        <ele>130.0</ele>
        <time>2022-02-10T10:03:42Z</time>
      </trkpt>
      <trkpt lat="47.549557" lon="1.8239117">
        <ele>130.0</ele>
        <time>2022-02-10T10:03:43Z</time>
      </trkpt>
      <trkpt lat="47.549557" lon="1.8239117">
        <ele>130.0</ele>
        <time>2022-02-10T10:03:44Z</time>
      </trkpt>
      <trkpt lat="47.549557" lon="1.8239117">
        <ele>130.0</ele>
        <time>2022-02-10T10:03:45Z</time>
      </trkpt>
      <trkpt lat="47.549564" lon="1.8239464">
        <ele>130.0</ele>
        <time>2022-02-10T10:03:46Z</time>
      </trkpt>
      <trkpt lat="47.54957" lon="1.8239621">
        <ele>130.0</ele>
        <time>2022-02-10T10:03:47Z</time>
      </trkpt>
      <trkpt lat="47.549576" lon="1.8239781">
        <ele>130.0</ele>
        <time>2022-02-10T10:03:48Z</time>
      </trkpt>
      <trkpt lat="47.54958" lon="1.8239956">
        <ele>131.0</ele>
        <time>2022-02-10T10:03:49Z</time>
      </trkpt>
      <trkpt lat="47.54958" lon="1.8239956">
        <ele>131.0</ele>
        <time>2022-02-10T10:03:50Z</time>
      </trkpt>
      <trkpt lat="47.54958" lon="1.8239956">
        <ele>131.0</ele>
        <time>2022-02-10T10:03:51Z</time>
      </trkpt>
      <trkpt lat="47.5496" lon="1.8240458">
        <ele>130.0</ele>
        <time>2022-02-10T10:03:52Z</time>
      </trkpt>
      <trkpt lat="47.549595" lon="1.8240644">
        <ele>130.0</ele>
        <time>2022-02-10T10:03:53Z</time>
      </trkpt>
      <trkpt lat="47.5496" lon="1.824079">
        <ele>130.0</ele>
        <time>2022-02-10T10:03:54Z</time>
      </trkpt>
      <trkpt lat="47.5496" lon="1.8240948">
        <ele>130.0</ele>
        <time>2022-02-10T10:03:55Z</time>
      </trkpt>
      <trkpt lat="47.5496" lon="1.8240948">
        <ele>130.0</ele>
        <time>2022-02-10T10:03:56Z</time>
      </trkpt>
      <trkpt lat="47.5496" lon="1.8240948">
        <ele>130.0</ele>
        <time>2022-02-10T10:03:57Z</time>
      </trkpt>
      <trkpt lat="47.549606" lon="1.82414">
        <ele>128.0</ele>
        <time>2022-02-10T10:03:58Z</time>
      </trkpt>
      <trkpt lat="47.54961" lon="1.8241582">
        <ele>128.0</ele>
        <time>2022-02-10T10:03:59Z</time>
      </trkpt>
      <trkpt lat="47.549618" lon="1.8241774">
        <ele>128.0</ele>
        <time>2022-02-10T10:04:00Z</time>
      </trkpt>
      <trkpt lat="47.54962" lon="1.8241943">
        <ele>127.0</ele>
        <time>2022-02-10T10:04:01Z</time>
      </trkpt>
      <trkpt lat="47.54962" lon="1.8241943">
        <ele>127.0</ele>
        <time>2022-02-10T10:04:02Z</time>
      </trkpt>
      <trkpt lat="47.54962" lon="1.8241943">
        <ele>127.0</ele>
        <time>2022-02-10T10:04:03Z</time>
      </trkpt>
      <trkpt lat="47.54962" lon="1.8242497">
        <ele>128.0</ele>
        <time>2022-02-10T10:04:04Z</time>
      </trkpt>
      <trkpt lat="47.54962" lon="1.8242654">
        <ele>129.0</ele>
        <time>2022-02-10T10:04:05Z</time>
      </trkpt>
      <trkpt lat="47.54962" lon="1.824266">
        <ele>129.0</ele>
        <time>2022-02-10T10:04:06Z</time>
      </trkpt>
      <trkpt lat="47.54962" lon="1.824266">
        <ele>129.0</ele>
        <time>2022-02-10T10:04:07Z</time>
      </trkpt>
      <trkpt lat="47.54962" lon="1.824271">
        <ele>130.0</ele>
        <time>2022-02-10T10:04:08Z</time>
      </trkpt>
      <trkpt lat="47.549625" lon="1.8242874">
        <ele>130.0</ele>
        <time>2022-02-10T10:04:09Z</time>
      </trkpt>
      <trkpt lat="47.549625" lon="1.8243049">
        <ele>130.0</ele>
        <time>2022-02-10T10:04:10Z</time>
      </trkpt>
      <trkpt lat="47.54963" lon="1.8243256">
        <ele>130.0</ele>
        <time>2022-02-10T10:04:11Z</time>
      </trkpt>
      <trkpt lat="47.54963" lon="1.8243417">
        <ele>129.0</ele>
        <time>2022-02-10T10:04:12Z</time>
      </trkpt>
      <trkpt lat="47.54963" lon="1.8243575">
        <ele>130.0</ele>
        <time>2022-02-10T10:04:13Z</time>
      </trkpt>
      <trkpt lat="47.54963" lon="1.8243575">
        <ele>130.0</ele>
        <time>2022-02-10T10:04:14Z</time>
      </trkpt>
      <trkpt lat="47.54963" lon="1.8243575">
        <ele>130.0</ele>
        <time>2022-02-10T10:04:15Z</time>
      </trkpt>
      <trkpt lat="47.549637" lon="1.8244145">
        <ele>130.0</ele>
        <time>2022-02-10T10:04:16Z</time>
      </trkpt>
      <trkpt lat="47.549637" lon="1.8244362">
        <ele>130.0</ele>
        <time>2022-02-10T10:04:17Z</time>
      </trkpt>
      <trkpt lat="47.54964" lon="1.8244579">
        <ele>131.0</ele>
        <time>2022-02-10T10:04:18Z</time>
      </trkpt>
      <trkpt lat="47.549644" lon="1.8244771">
        <ele>131.0</ele>
        <time>2022-02-10T10:04:19Z</time>
      </trkpt>
      <trkpt lat="47.549644" lon="1.8244771">
        <ele>131.0</ele>
        <time>2022-02-10T10:04:20Z</time>
      </trkpt>
      <trkpt lat="47.549644" lon="1.8244771">
        <ele>131.0</ele>
        <time>2022-02-10T10:04:21Z</time>
      </trkpt>
      <trkpt lat="47.54965" lon="1.8245128">
        <ele>131.0</ele>
        <time>2022-02-10T10:04:22Z</time>
      </trkpt>
      <trkpt lat="47.549652" lon="1.8245323">
        <ele>131.0</ele>
        <time>2022-02-10T10:04:23Z</time>
      </trkpt>
      <trkpt lat="47.54966" lon="1.8245534">
        <ele>131.0</ele>
        <time>2022-02-10T10:04:24Z</time>
      </trkpt>
      <trkpt lat="47.54966" lon="1.8245722">
        <ele>131.0</ele>
        <time>2022-02-10T10:04:25Z</time>
      </trkpt>
      <trkpt lat="47.54966" lon="1.8245722">
        <ele>131.0</ele>
        <time>2022-02-10T10:04:26Z</time>
      </trkpt>
      <trkpt lat="47.54966" lon="1.8245722">
        <ele>131.0</ele>
        <time>2022-02-10T10:04:27Z</time>
      </trkpt>
      <trkpt lat="47.549675" lon="1.8246189">
        <ele>131.0</ele>
        <time>2022-02-10T10:04:28Z</time>
      </trkpt>
      <trkpt lat="47.549675" lon="1.8246404">
        <ele>131.0</ele>
        <time>2022-02-10T10:04:29Z</time>
      </trkpt>
      <trkpt lat="47.549683" lon="1.8246603">
        <ele>131.0</ele>
        <time>2022-02-10T10:04:30Z</time>
      </trkpt>
      <trkpt lat="47.549686" lon="1.8246799">
        <ele>131.0</ele>
        <time>2022-02-10T10:04:31Z</time>
      </trkpt>
      <trkpt lat="47.549686" lon="1.8246799">
        <ele>131.0</ele>
        <time>2022-02-10T10:04:32Z</time>
      </trkpt>
      <trkpt lat="47.549686" lon="1.8246799">
        <ele>131.0</ele>
        <time>2022-02-10T10:04:33Z</time>
      </trkpt>
      <trkpt lat="47.549694" lon="1.8247356">
        <ele>132.0</ele>
        <time>2022-02-10T10:04:34Z</time>
      </trkpt>
      <trkpt lat="47.549698" lon="1.8247519">
        <ele>131.0</ele>
        <time>2022-02-10T10:04:35Z</time>
      </trkpt>
      <trkpt lat="47.5497" lon="1.8247668">
        <ele>131.0</ele>
        <time>2022-02-10T10:04:36Z</time>
      </trkpt>
      <trkpt lat="47.549706" lon="1.8247851">
        <ele>131.0</ele>
        <time>2022-02-10T10:04:37Z</time>
      </trkpt>
      <trkpt lat="47.549706" lon="1.8247851">
        <ele>131.0</ele>
        <time>2022-02-10T10:04:38Z</time>
      </trkpt>
      <trkpt lat="47.549706" lon="1.8247851">
        <ele>131.0</ele>
        <time>2022-02-10T10:04:39Z</time>
      </trkpt>
      <trkpt lat="47.549725" lon="1.8248249">
        <ele>131.0</ele>
        <time>2022-02-10T10:04:40Z</time>
      </trkpt>
      <trkpt lat="47.54973" lon="1.8248453">
        <ele>131.0</ele>
        <time>2022-02-10T10:04:41Z</time>
      </trkpt>
      <trkpt lat="47.549732" lon="1.8248663">
        <ele>130.0</ele>
        <time>2022-02-10T10:04:42Z</time>
      </trkpt>
      <trkpt lat="47.549736" lon="1.824882">
        <ele>130.0</ele>
        <time>2022-02-10T10:04:43Z</time>
      </trkpt>
      <trkpt lat="47.549744" lon="1.8249">
        <ele>130.0</ele>
        <time>2022-02-10T10:04:44Z</time>
      </trkpt>
      <trkpt lat="47.549747" lon="1.8249172">
        <ele>130.0</ele>
        <time>2022-02-10T10:04:45Z</time>
      </trkpt>
      <trkpt lat="47.549744" lon="1.824941">
        <ele>129.0</ele>
        <time>2022-02-10T10:04:46Z</time>
      </trkpt>
      <trkpt lat="47.549747" lon="1.8249571">
        <ele>129.0</ele>
        <time>2022-02-10T10:04:47Z</time>
      </trkpt>
      <trkpt lat="47.54976" lon="1.8249743">
        <ele>129.0</ele>
        <time>2022-02-10T10:04:48Z</time>
      </trkpt>
      <trkpt lat="47.549763" lon="1.8249933">
        <ele>128.0</ele>
        <time>2022-02-10T10:04:49Z</time>
      </trkpt>
      <trkpt lat="47.549763" lon="1.8249933">
        <ele>128.0</ele>
        <time>2022-02-10T10:04:50Z</time>
      </trkpt>
      <trkpt lat="47.549763" lon="1.8249933">
        <ele>128.0</ele>
        <time>2022-02-10T10:04:51Z</time>
      </trkpt>
      <trkpt lat="47.54978" lon="1.8250383">
        <ele>127.0</ele>
        <time>2022-02-10T10:04:52Z</time>
      </trkpt>
      <trkpt lat="47.549786" lon="1.825056">
        <ele>127.0</ele>
        <time>2022-02-10T10:04:53Z</time>
      </trkpt>
      <trkpt lat="47.54979" lon="1.8250742">
        <ele>127.0</ele>
        <time>2022-02-10T10:04:54Z</time>
      </trkpt>
      <trkpt lat="47.549793" lon="1.8250948">
        <ele>126.0</ele>
        <time>2022-02-10T10:04:55Z</time>
      </trkpt>
      <trkpt lat="47.5498" lon="1.8251138">
        <ele>127.0</ele>
        <time>2022-02-10T10:04:56Z</time>
      </trkpt>
      <trkpt lat="47.549812" lon="1.8251327">
        <ele>127.0</ele>
        <time>2022-02-10T10:04:57Z</time>
      </trkpt>
      <trkpt lat="47.549816" lon="1.8251508">
        <ele>127.0</ele>
        <time>2022-02-10T10:04:58Z</time>
      </trkpt>
      <trkpt lat="47.549824" lon="1.8251631">
        <ele>127.0</ele>
        <time>2022-02-10T10:04:59Z</time>
      </trkpt>
      <trkpt lat="47.549828" lon="1.8251793">
        <ele>127.0</ele>
        <time>2022-02-10T10:05:00Z</time>
      </trkpt>
      <trkpt lat="47.549828" lon="1.8251793">
        <ele>127.0</ele>
        <time>2022-02-10T10:05:01Z</time>
      </trkpt>
      <trkpt lat="47.549828" lon="1.8251793">
        <ele>127.0</ele>
        <time>2022-02-10T10:05:02Z</time>
      </trkpt>
      <trkpt lat="47.54984" lon="1.8252168">
        <ele>127.0</ele>
        <time>2022-02-10T10:05:03Z</time>
      </trkpt>
      <trkpt lat="47.549847" lon="1.8252294">
        <ele>126.0</ele>
        <time>2022-02-10T10:05:04Z</time>
      </trkpt>
      <trkpt lat="47.549847" lon="1.8252311">
        <ele>126.0</ele>
        <time>2022-02-10T10:05:05Z</time>
      </trkpt>
      <trkpt lat="47.549847" lon="1.8252445">
        <ele>127.0</ele>
        <time>2022-02-10T10:05:06Z</time>
      </trkpt>
      <trkpt lat="47.549847" lon="1.8252445">
        <ele>127.0</ele>
        <time>2022-02-10T10:05:07Z</time>
      </trkpt>
      <trkpt lat="47.549847" lon="1.8252445">
        <ele>127.0</ele>
        <time>2022-02-10T10:05:08Z</time>
      </trkpt>
      <trkpt lat="47.549862" lon="1.8252817">
        <ele>127.0</ele>
        <time>2022-02-10T10:05:09Z</time>
      </trkpt>
      <trkpt lat="47.549862" lon="1.8252945">
        <ele>127.0</ele>
        <time>2022-02-10T10:05:10Z</time>
      </trkpt>
      <trkpt lat="47.54987" lon="1.8253126">
        <ele>127.0</ele>
        <time>2022-02-10T10:05:11Z</time>
      </trkpt>
      <trkpt lat="47.549873" lon="1.8253269">
        <ele>126.0</ele>
        <time>2022-02-10T10:05:12Z</time>
      </trkpt>
      <trkpt lat="47.549873" lon="1.8253269">
        <ele>126.0</ele>
        <time>2022-02-10T10:05:13Z</time>
      </trkpt>
      <trkpt lat="47.549873" lon="1.8253269">
        <ele>126.0</ele>
        <time>2022-02-10T10:05:14Z</time>
      </trkpt>
      <trkpt lat="47.54989" lon="1.825364">
        <ele>125.0</ele>
        <time>2022-02-10T10:05:15Z</time>
      </trkpt>
      <trkpt lat="47.549896" lon="1.8253813">
        <ele>125.0</ele>
        <time>2022-02-10T10:05:16Z</time>
      </trkpt>
      <trkpt lat="47.549904" lon="1.825399">
        <ele>125.0</ele>
        <time>2022-02-10T10:05:17Z</time>
      </trkpt>
      <trkpt lat="47.549908" lon="1.8254137">
        <ele>125.0</ele>
        <time>2022-02-10T10:05:18Z</time>
      </trkpt>
      <trkpt lat="47.549908" lon="1.8254137">
        <ele>125.0</ele>
        <time>2022-02-10T10:05:19Z</time>
      </trkpt>
      <trkpt lat="47.549908" lon="1.8254137">
        <ele>125.0</ele>
        <time>2022-02-10T10:05:20Z</time>
      </trkpt>
      <trkpt lat="47.549927" lon="1.8254403">
        <ele>123.0</ele>
        <time>2022-02-10T10:05:21Z</time>
      </trkpt>
      <trkpt lat="47.549934" lon="1.8254492">
        <ele>123.0</ele>
        <time>2022-02-10T10:05:22Z</time>
      </trkpt>
      <trkpt lat="47.549942" lon="1.8254606">
        <ele>123.0</ele>
        <time>2022-02-10T10:05:23Z</time>
      </trkpt>
      <trkpt lat="47.54995" lon="1.8254791">
        <ele>122.0</ele>
        <time>2022-02-10T10:05:24Z</time>
      </trkpt>
      <trkpt lat="47.54995" lon="1.8254791">
        <ele>122.0</ele>
        <time>2022-02-10T10:05:25Z</time>
      </trkpt>
      <trkpt lat="47.54995" lon="1.8254791">
        <ele>122.0</ele>
        <time>2022-02-10T10:05:26Z</time>
      </trkpt>
      <trkpt lat="47.54997" lon="1.8255244">
        <ele>121.0</ele>
        <time>2022-02-10T10:05:27Z</time>
      </trkpt>
      <trkpt lat="47.549973" lon="1.825543">
        <ele>121.0</ele>
        <time>2022-02-10T10:05:28Z</time>
      </trkpt>
      <trkpt lat="47.549984" lon="1.8255581">
        <ele>121.0</ele>
        <time>2022-02-10T10:05:29Z</time>
      </trkpt>
      <trkpt lat="47.549988" lon="1.825573">
        <ele>121.0</ele>
        <time>2022-02-10T10:05:30Z</time>
      </trkpt>
      <trkpt lat="47.549988" lon="1.825573">
        <ele>121.0</ele>
        <time>2022-02-10T10:05:31Z</time>
      </trkpt>
      <trkpt lat="47.549988" lon="1.825573">
        <ele>121.0</ele>
        <time>2022-02-10T10:05:32Z</time>
      </trkpt>
      <trkpt lat="47.550007" lon="1.8256172">
        <ele>120.0</ele>
        <time>2022-02-10T10:05:33Z</time>
      </trkpt>
      <trkpt lat="47.55002" lon="1.8256346">
        <ele>120.0</ele>
        <time>2022-02-10T10:05:34Z</time>
      </trkpt>
      <trkpt lat="47.550022" lon="1.8256489">
        <ele>119.0</ele>
        <time>2022-02-10T10:05:35Z</time>
      </trkpt>
      <trkpt lat="47.550026" lon="1.8256646">
        <ele>120.0</ele>
        <time>2022-02-10T10:05:36Z</time>
      </trkpt>
      <trkpt lat="47.550026" lon="1.8256646">
        <ele>120.0</ele>
        <time>2022-02-10T10:05:37Z</time>
      </trkpt>
      <trkpt lat="47.550026" lon="1.8256646">
        <ele>120.0</ele>
        <time>2022-02-10T10:05:38Z</time>
      </trkpt>
      <trkpt lat="47.55004" lon="1.8257059">
        <ele>120.0</ele>
        <time>2022-02-10T10:05:39Z</time>
      </trkpt>
      <trkpt lat="47.55005" lon="1.8257256">
        <ele>120.0</ele>
        <time>2022-02-10T10:05:40Z</time>
      </trkpt>
      <trkpt lat="47.550056" lon="1.8257416">
        <ele>120.0</ele>
        <time>2022-02-10T10:05:41Z</time>
      </trkpt>
      <trkpt lat="47.550064" lon="1.8257604">
        <ele>120.0</ele>
        <time>2022-02-10T10:05:42Z</time>
      </trkpt>
      <trkpt lat="47.55007" lon="1.8257829">
        <ele>120.0</ele>
        <time>2022-02-10T10:05:43Z</time>
      </trkpt>
      <trkpt lat="47.55008" lon="1.8258032">
        <ele>121.0</ele>
        <time>2022-02-10T10:05:44Z</time>
      </trkpt>
      <trkpt lat="47.550087" lon="1.8258216">
        <ele>121.0</ele>
        <time>2022-02-10T10:05:45Z</time>
      </trkpt>
      <trkpt lat="47.550095" lon="1.8258386">
        <ele>121.0</ele>
        <time>2022-02-10T10:05:46Z</time>
      </trkpt>
      <trkpt lat="47.550106" lon="1.8258549">
        <ele>121.0</ele>
        <time>2022-02-10T10:05:47Z</time>
      </trkpt>
      <trkpt lat="47.550114" lon="1.8258685">
        <ele>120.0</ele>
        <time>2022-02-10T10:05:48Z</time>
      </trkpt>
      <trkpt lat="47.550117" lon="1.825884">
        <ele>121.0</ele>
        <time>2022-02-10T10:05:49Z</time>
      </trkpt>
      <trkpt lat="47.550125" lon="1.825901">
        <ele>121.0</ele>
        <time>2022-02-10T10:05:50Z</time>
      </trkpt>
      <trkpt lat="47.550137" lon="1.8259196">
        <ele>121.0</ele>
        <time>2022-02-10T10:05:51Z</time>
      </trkpt>
      <trkpt lat="47.550144" lon="1.8259375">
        <ele>121.0</ele>
        <time>2022-02-10T10:05:52Z</time>
      </trkpt>
      <trkpt lat="47.55015" lon="1.8259546">
        <ele>121.0</ele>
        <time>2022-02-10T10:05:53Z</time>
      </trkpt>
      <trkpt lat="47.550156" lon="1.8259739">
        <ele>121.0</ele>
        <time>2022-02-10T10:05:54Z</time>
      </trkpt>
      <trkpt lat="47.55016" lon="1.8259919">
        <ele>120.0</ele>
        <time>2022-02-10T10:05:55Z</time>
      </trkpt>
      <trkpt lat="47.55016" lon="1.8259919">
        <ele>120.0</ele>
        <time>2022-02-10T10:05:56Z</time>
      </trkpt>
      <trkpt lat="47.55016" lon="1.8259919">
        <ele>120.0</ele>
        <time>2022-02-10T10:05:57Z</time>
      </trkpt>
      <trkpt lat="47.550167" lon="1.8260381">
        <ele>121.0</ele>
        <time>2022-02-10T10:05:58Z</time>
      </trkpt>
      <trkpt lat="47.55017" lon="1.8260574">
        <ele>121.0</ele>
        <time>2022-02-10T10:05:59Z</time>
      </trkpt>
      <trkpt lat="47.550175" lon="1.8260719">
        <ele>121.0</ele>
        <time>2022-02-10T10:06:00Z</time>
      </trkpt>
      <trkpt lat="47.550182" lon="1.8260899">
        <ele>122.0</ele>
        <time>2022-02-10T10:06:01Z</time>
      </trkpt>
      <trkpt lat="47.550182" lon="1.8260899">
        <ele>122.0</ele>
        <time>2022-02-10T10:06:02Z</time>
      </trkpt>
      <trkpt lat="47.550182" lon="1.8260899">
        <ele>122.0</ele>
        <time>2022-02-10T10:06:03Z</time>
      </trkpt>
      <trkpt lat="47.550198" lon="1.8261313">
        <ele>123.0</ele>
        <time>2022-02-10T10:06:04Z</time>
      </trkpt>
      <trkpt lat="47.5502" lon="1.8261468">
        <ele>123.0</ele>
        <time>2022-02-10T10:06:05Z</time>
      </trkpt>
      <trkpt lat="47.550205" lon="1.8261629">
        <ele>123.0</ele>
        <time>2022-02-10T10:06:06Z</time>
      </trkpt>
      <trkpt lat="47.550213" lon="1.8261751">
        <ele>123.0</ele>
        <time>2022-02-10T10:06:07Z</time>
      </trkpt>
      <trkpt lat="47.550213" lon="1.8261751">
        <ele>123.0</ele>
        <time>2022-02-10T10:06:08Z</time>
      </trkpt>
      <trkpt lat="47.550213" lon="1.8261751">
        <ele>123.0</ele>
        <time>2022-02-10T10:06:09Z</time>
      </trkpt>
      <trkpt lat="47.55022" lon="1.8262162">
        <ele>123.0</ele>
        <time>2022-02-10T10:06:10Z</time>
      </trkpt>
      <trkpt lat="47.55023" lon="1.8262314">
        <ele>123.0</ele>
        <time>2022-02-10T10:06:11Z</time>
      </trkpt>
      <trkpt lat="47.550232" lon="1.8262457">
        <ele>123.0</ele>
        <time>2022-02-10T10:06:12Z</time>
      </trkpt>
      <trkpt lat="47.55024" lon="1.8262581">
        <ele>123.0</ele>
        <time>2022-02-10T10:06:13Z</time>
      </trkpt>
      <trkpt lat="47.55025" lon="1.826277">
        <ele>122.0</ele>
        <time>2022-02-10T10:06:14Z</time>
      </trkpt>
      <trkpt lat="47.55026" lon="1.8262935">
        <ele>122.0</ele>
        <time>2022-02-10T10:06:15Z</time>
      </trkpt>
      <trkpt lat="47.550266" lon="1.8263079">
        <ele>121.0</ele>
        <time>2022-02-10T10:06:16Z</time>
      </trkpt>
      <trkpt lat="47.55028" lon="1.8263214">
        <ele>121.0</ele>
        <time>2022-02-10T10:06:17Z</time>
      </trkpt>
      <trkpt lat="47.55029" lon="1.8263427">
        <ele>121.0</ele>
        <time>2022-02-10T10:06:18Z</time>
      </trkpt>
      <trkpt lat="47.5503" lon="1.8263592">
        <ele>120.0</ele>
        <time>2022-02-10T10:06:19Z</time>
      </trkpt>
      <trkpt lat="47.55031" lon="1.8263736">
        <ele>120.0</ele>
        <time>2022-02-10T10:06:20Z</time>
      </trkpt>
      <trkpt lat="47.550316" lon="1.8263917">
        <ele>120.0</ele>
        <time>2022-02-10T10:06:21Z</time>
      </trkpt>
      <trkpt lat="47.550323" lon="1.8264049">
        <ele>120.0</ele>
        <time>2022-02-10T10:06:22Z</time>
      </trkpt>
      <trkpt lat="47.550327" lon="1.8264229">
        <ele>119.0</ele>
        <time>2022-02-10T10:06:23Z</time>
      </trkpt>
      <trkpt lat="47.550327" lon="1.8264229">
        <ele>119.0</ele>
        <time>2022-02-10T10:06:24Z</time>
      </trkpt>
      <trkpt lat="47.550327" lon="1.8264229">
        <ele>119.0</ele>
        <time>2022-02-10T10:06:25Z</time>
      </trkpt>
      <trkpt lat="47.55035" lon="1.8264692">
        <ele>120.0</ele>
        <time>2022-02-10T10:06:26Z</time>
      </trkpt>
      <trkpt lat="47.550358" lon="1.8264838">
        <ele>120.0</ele>
        <time>2022-02-10T10:06:27Z</time>
      </trkpt>
      <trkpt lat="47.55036" lon="1.8264991">
        <ele>120.0</ele>
        <time>2022-02-10T10:06:28Z</time>
      </trkpt>
      <trkpt lat="47.550365" lon="1.8265145">
        <ele>120.0</ele>
        <time>2022-02-10T10:06:29Z</time>
      </trkpt>
      <trkpt lat="47.550365" lon="1.8265145">
        <ele>120.0</ele>
        <time>2022-02-10T10:06:30Z</time>
      </trkpt>
      <trkpt lat="47.550365" lon="1.8265145">
        <ele>120.0</ele>
        <time>2022-02-10T10:06:31Z</time>
      </trkpt>
      <trkpt lat="47.55039" lon="1.8265514">
        <ele>120.0</ele>
        <time>2022-02-10T10:06:32Z</time>
      </trkpt>
      <trkpt lat="47.550396" lon="1.8265661">
        <ele>119.0</ele>
        <time>2022-02-10T10:06:33Z</time>
      </trkpt>
      <trkpt lat="47.550407" lon="1.8265806">
        <ele>119.0</ele>
        <time>2022-02-10T10:06:34Z</time>
      </trkpt>
      <trkpt lat="47.55041" lon="1.8265964">
        <ele>119.0</ele>
        <time>2022-02-10T10:06:35Z</time>
      </trkpt>
      <trkpt lat="47.55041" lon="1.8265964">
        <ele>119.0</ele>
        <time>2022-02-10T10:06:36Z</time>
      </trkpt>
      <trkpt lat="47.55041" lon="1.8265964">
        <ele>119.0</ele>
        <time>2022-02-10T10:06:37Z</time>
      </trkpt>
      <trkpt lat="47.550426" lon="1.8266367">
        <ele>119.0</ele>
        <time>2022-02-10T10:06:38Z</time>
      </trkpt>
      <trkpt lat="47.55043" lon="1.8266525">
        <ele>119.0</ele>
        <time>2022-02-10T10:06:39Z</time>
      </trkpt>
      <trkpt lat="47.550438" lon="1.8266737">
        <ele>120.0</ele>
        <time>2022-02-10T10:06:40Z</time>
      </trkpt>
      <trkpt lat="47.550446" lon="1.826694">
        <ele>120.0</ele>
        <time>2022-02-10T10:06:41Z</time>
      </trkpt>
      <trkpt lat="47.550446" lon="1.826694">
        <ele>120.0</ele>
        <time>2022-02-10T10:06:42Z</time>
      </trkpt>
      <trkpt lat="47.550446" lon="1.826694">
        <ele>120.0</ele>
        <time>2022-02-10T10:06:43Z</time>
      </trkpt>
      <trkpt lat="47.55046" lon="1.8267441">
        <ele>120.0</ele>
        <time>2022-02-10T10:06:44Z</time>
      </trkpt>
      <trkpt lat="47.550472" lon="1.8267632">
        <ele>120.0</ele>
        <time>2022-02-10T10:06:45Z</time>
      </trkpt>
      <trkpt lat="47.55048" lon="1.8267813">
        <ele>120.0</ele>
        <time>2022-02-10T10:06:46Z</time>
      </trkpt>
      <trkpt lat="47.550488" lon="1.8268002">
        <ele>120.0</ele>
        <time>2022-02-10T10:06:47Z</time>
      </trkpt>
      <trkpt lat="47.5505" lon="1.8268186">
        <ele>121.0</ele>
        <time>2022-02-10T10:06:48Z</time>
      </trkpt>
      <trkpt lat="47.55051" lon="1.8268352">
        <ele>121.0</ele>
        <time>2022-02-10T10:06:49Z</time>
      </trkpt>
      <trkpt lat="47.550518" lon="1.8268505">
        <ele>121.0</ele>
        <time>2022-02-10T10:06:50Z</time>
      </trkpt>
      <trkpt lat="47.550526" lon="1.8268695">
        <ele>121.0</ele>
        <time>2022-02-10T10:06:51Z</time>
      </trkpt>
      <trkpt lat="47.55053" lon="1.8268908">
        <ele>122.0</ele>
        <time>2022-02-10T10:06:52Z</time>
      </trkpt>
      <trkpt lat="47.550533" lon="1.8269125">
        <ele>121.0</ele>
        <time>2022-02-10T10:06:53Z</time>
      </trkpt>
      <trkpt lat="47.55054" lon="1.8269337">
        <ele>122.0</ele>
        <time>2022-02-10T10:06:54Z</time>
      </trkpt>
      <trkpt lat="47.55054" lon="1.8269337">
        <ele>122.0</ele>
        <time>2022-02-10T10:06:55Z</time>
      </trkpt>
      <trkpt lat="47.550556" lon="1.8269674">
        <ele>122.0</ele>
        <time>2022-02-10T10:06:56Z</time>
      </trkpt>
      <trkpt lat="47.550564" lon="1.8269843">
        <ele>122.0</ele>
        <time>2022-02-10T10:06:57Z</time>
      </trkpt>
      <trkpt lat="47.550568" lon="1.8270054">
        <ele>122.0</ele>
        <time>2022-02-10T10:06:58Z</time>
      </trkpt>
      <trkpt lat="47.550583" lon="1.8270243">
        <ele>121.0</ele>
        <time>2022-02-10T10:06:59Z</time>
      </trkpt>
      <trkpt lat="47.550587" lon="1.8270408">
        <ele>121.0</ele>
        <time>2022-02-10T10:07:00Z</time>
      </trkpt>
      <trkpt lat="47.550594" lon="1.8270606">
        <ele>121.0</ele>
        <time>2022-02-10T10:07:01Z</time>
      </trkpt>
      <trkpt lat="47.550602" lon="1.8270767">
        <ele>122.0</ele>
        <time>2022-02-10T10:07:02Z</time>
      </trkpt>
      <trkpt lat="47.55061" lon="1.827088">
        <ele>123.0</ele>
        <time>2022-02-10T10:07:03Z</time>
      </trkpt>
      <trkpt lat="47.550617" lon="1.8270998">
        <ele>123.0</ele>
        <time>2022-02-10T10:07:04Z</time>
      </trkpt>
      <trkpt lat="47.550625" lon="1.8271128">
        <ele>123.0</ele>
        <time>2022-02-10T10:07:05Z</time>
      </trkpt>
      <trkpt lat="47.550632" lon="1.8271288">
        <ele>123.0</ele>
        <time>2022-02-10T10:07:06Z</time>
      </trkpt>
      <trkpt lat="47.550632" lon="1.8271288">
        <ele>123.0</ele>
        <time>2022-02-10T10:07:07Z</time>
      </trkpt>
      <trkpt lat="47.550632" lon="1.8271288">
        <ele>123.0</ele>
        <time>2022-02-10T10:07:08Z</time>
      </trkpt>
      <trkpt lat="47.550636" lon="1.8271825">
        <ele>122.0</ele>
        <time>2022-02-10T10:07:09Z</time>
      </trkpt>
      <trkpt lat="47.550644" lon="1.827197">
        <ele>122.0</ele>
        <time>2022-02-10T10:07:10Z</time>
      </trkpt>
      <trkpt lat="47.550648" lon="1.827212">
        <ele>122.0</ele>
        <time>2022-02-10T10:07:11Z</time>
      </trkpt>
      <trkpt lat="47.55065" lon="1.827228">
        <ele>122.0</ele>
        <time>2022-02-10T10:07:12Z</time>
      </trkpt>
      <trkpt lat="47.55065" lon="1.827228">
        <ele>122.0</ele>
        <time>2022-02-10T10:07:13Z</time>
      </trkpt>
      <trkpt lat="47.55065" lon="1.827228">
        <ele>122.0</ele>
        <time>2022-02-10T10:07:14Z</time>
      </trkpt>
      <trkpt lat="47.550667" lon="1.8272682">
        <ele>123.0</ele>
        <time>2022-02-10T10:07:15Z</time>
      </trkpt>
      <trkpt lat="47.550674" lon="1.8272818">
        <ele>122.0</ele>
        <time>2022-02-10T10:07:16Z</time>
      </trkpt>
      <trkpt lat="47.550682" lon="1.827298">
        <ele>123.0</ele>
        <time>2022-02-10T10:07:17Z</time>
      </trkpt>
      <trkpt lat="47.55069" lon="1.8273165">
        <ele>123.0</ele>
        <time>2022-02-10T10:07:18Z</time>
      </trkpt>
      <trkpt lat="47.550694" lon="1.8273307">
        <ele>123.0</ele>
        <time>2022-02-10T10:07:19Z</time>
      </trkpt>
      <trkpt lat="47.5507" lon="1.8273479">
        <ele>124.0</ele>
        <time>2022-02-10T10:07:20Z</time>
      </trkpt>
      <trkpt lat="47.5507" lon="1.8273479">
        <ele>124.0</ele>
        <time>2022-02-10T10:07:21Z</time>
      </trkpt>
      <trkpt lat="47.5507" lon="1.8273479">
        <ele>124.0</ele>
        <time>2022-02-10T10:07:22Z</time>
      </trkpt>
      <trkpt lat="47.550724" lon="1.8273802">
        <ele>123.0</ele>
        <time>2022-02-10T10:07:23Z</time>
      </trkpt>
      <trkpt lat="47.55073" lon="1.8273984">
        <ele>123.0</ele>
        <time>2022-02-10T10:07:24Z</time>
      </trkpt>
      <trkpt lat="47.55074" lon="1.8274114">
        <ele>123.0</ele>
        <time>2022-02-10T10:07:25Z</time>
      </trkpt>
      <trkpt lat="47.550747" lon="1.8274273">
        <ele>123.0</ele>
        <time>2022-02-10T10:07:26Z</time>
      </trkpt>
      <trkpt lat="47.550755" lon="1.8274374">
        <ele>123.0</ele>
        <time>2022-02-10T10:07:27Z</time>
      </trkpt>
      <trkpt lat="47.550766" lon="1.8274465">
        <ele>123.0</ele>
        <time>2022-02-10T10:07:28Z</time>
      </trkpt>
      <trkpt lat="47.550766" lon="1.8274465">
        <ele>123.0</ele>
        <time>2022-02-10T10:07:29Z</time>
      </trkpt>
      <trkpt lat="47.550766" lon="1.8274465">
        <ele>123.0</ele>
        <time>2022-02-10T10:07:30Z</time>
      </trkpt>
      <trkpt lat="47.55078" lon="1.8274795">
        <ele>123.0</ele>
        <time>2022-02-10T10:07:31Z</time>
      </trkpt>
      <trkpt lat="47.55079" lon="1.827495">
        <ele>123.0</ele>
        <time>2022-02-10T10:07:32Z</time>
      </trkpt>
      <trkpt lat="47.550797" lon="1.8275095">
        <ele>123.0</ele>
        <time>2022-02-10T10:07:33Z</time>
      </trkpt>
      <trkpt lat="47.550804" lon="1.8275216">
        <ele>124.0</ele>
        <time>2022-02-10T10:07:34Z</time>
      </trkpt>
      <trkpt lat="47.55081" lon="1.8275331">
        <ele>123.0</ele>
        <time>2022-02-10T10:07:35Z</time>
      </trkpt>
      <trkpt lat="47.55081" lon="1.8275331">
        <ele>123.0</ele>
        <time>2022-02-10T10:07:36Z</time>
      </trkpt>
      <trkpt lat="47.55081" lon="1.8275331">
        <ele>123.0</ele>
        <time>2022-02-10T10:07:37Z</time>
      </trkpt>
      <trkpt lat="47.550827" lon="1.8275633">
        <ele>124.0</ele>
        <time>2022-02-10T10:07:38Z</time>
      </trkpt>
      <trkpt lat="47.55084" lon="1.8275785">
        <ele>124.0</ele>
        <time>2022-02-10T10:07:39Z</time>
      </trkpt>
      <trkpt lat="47.550846" lon="1.827596">
        <ele>125.0</ele>
        <time>2022-02-10T10:07:40Z</time>
      </trkpt>
      <trkpt lat="47.550854" lon="1.827612">
        <ele>125.0</ele>
        <time>2022-02-10T10:07:41Z</time>
      </trkpt>
      <trkpt lat="47.550865" lon="1.8276271">
        <ele>125.0</ele>
        <time>2022-02-10T10:07:42Z</time>
      </trkpt>
      <trkpt lat="47.550873" lon="1.8276439">
        <ele>125.0</ele>
        <time>2022-02-10T10:07:43Z</time>
      </trkpt>
      <trkpt lat="47.550873" lon="1.8276439">
        <ele>125.0</ele>
        <time>2022-02-10T10:07:44Z</time>
      </trkpt>
      <trkpt lat="47.550873" lon="1.8276439">
        <ele>125.0</ele>
        <time>2022-02-10T10:07:45Z</time>
      </trkpt>
      <trkpt lat="47.550888" lon="1.8276869">
        <ele>126.0</ele>
        <time>2022-02-10T10:07:46Z</time>
      </trkpt>
      <trkpt lat="47.550896" lon="1.8277032">
        <ele>126.0</ele>
        <time>2022-02-10T10:07:47Z</time>
      </trkpt>
      <trkpt lat="47.550903" lon="1.8277177">
        <ele>127.0</ele>
        <time>2022-02-10T10:07:48Z</time>
      </trkpt>
      <trkpt lat="47.55091" lon="1.8277316">
        <ele>127.0</ele>
        <time>2022-02-10T10:07:49Z</time>
      </trkpt>
      <trkpt lat="47.550922" lon="1.8277478">
        <ele>127.0</ele>
        <time>2022-02-10T10:07:50Z</time>
      </trkpt>
      <trkpt lat="47.55093" lon="1.8277632">
        <ele>127.0</ele>
        <time>2022-02-10T10:07:51Z</time>
      </trkpt>
      <trkpt lat="47.55094" lon="1.8277794">
        <ele>127.0</ele>
        <time>2022-02-10T10:07:52Z</time>
      </trkpt>
      <trkpt lat="47.55095" lon="1.8277957">
        <ele>127.0</ele>
        <time>2022-02-10T10:07:53Z</time>
      </trkpt>
      <trkpt lat="47.55096" lon="1.827811">
        <ele>127.0</ele>
        <time>2022-02-10T10:07:54Z</time>
      </trkpt>
      <trkpt lat="47.55097" lon="1.8278276">
        <ele>128.0</ele>
        <time>2022-02-10T10:07:55Z</time>
      </trkpt>
      <trkpt lat="47.550976" lon="1.8278385">
        <ele>128.0</ele>
        <time>2022-02-10T10:07:56Z</time>
      </trkpt>
      <trkpt lat="47.550987" lon="1.8278488">
        <ele>129.0</ele>
        <time>2022-02-10T10:07:57Z</time>
      </trkpt>
      <trkpt lat="47.550995" lon="1.8278581">
        <ele>129.0</ele>
        <time>2022-02-10T10:07:58Z</time>
      </trkpt>
      <trkpt lat="47.551006" lon="1.827872">
        <ele>129.0</ele>
        <time>2022-02-10T10:07:59Z</time>
      </trkpt>
      <trkpt lat="47.551014" lon="1.8278853">
        <ele>129.0</ele>
        <time>2022-02-10T10:08:00Z</time>
      </trkpt>
      <trkpt lat="47.55103" lon="1.8279004">
        <ele>129.0</ele>
        <time>2022-02-10T10:08:01Z</time>
      </trkpt>
      <trkpt lat="47.55104" lon="1.8279196">
        <ele>129.0</ele>
        <time>2022-02-10T10:08:02Z</time>
      </trkpt>
      <trkpt lat="47.551052" lon="1.8279356">
        <ele>130.0</ele>
        <time>2022-02-10T10:08:03Z</time>
      </trkpt>
      <trkpt lat="47.551064" lon="1.8279489">
        <ele>130.0</ele>
        <time>2022-02-10T10:08:04Z</time>
      </trkpt>
      <trkpt lat="47.551075" lon="1.8279668">
        <ele>130.0</ele>
        <time>2022-02-10T10:08:05Z</time>
      </trkpt>
      <trkpt lat="47.551086" lon="1.8279849">
        <ele>130.0</ele>
        <time>2022-02-10T10:08:06Z</time>
      </trkpt>
      <trkpt lat="47.551094" lon="1.8280042">
        <ele>131.0</ele>
        <time>2022-02-10T10:08:07Z</time>
      </trkpt>
      <trkpt lat="47.5511" lon="1.8280202">
        <ele>131.0</ele>
        <time>2022-02-10T10:08:08Z</time>
      </trkpt>
      <trkpt lat="47.55111" lon="1.8280369">
        <ele>131.0</ele>
        <time>2022-02-10T10:08:09Z</time>
      </trkpt>
      <trkpt lat="47.551117" lon="1.8280547">
        <ele>131.0</ele>
        <time>2022-02-10T10:08:10Z</time>
      </trkpt>
      <trkpt lat="47.55113" lon="1.8280737">
        <ele>131.0</ele>
        <time>2022-02-10T10:08:11Z</time>
      </trkpt>
      <trkpt lat="47.551136" lon="1.8280936">
        <ele>131.0</ele>
        <time>2022-02-10T10:08:12Z</time>
      </trkpt>
      <trkpt lat="47.551144" lon="1.828111">
        <ele>131.0</ele>
        <time>2022-02-10T10:08:13Z</time>
      </trkpt>
      <trkpt lat="47.551155" lon="1.8281382">
        <ele>132.0</ele>
        <time>2022-02-10T10:08:14Z</time>
      </trkpt>
      <trkpt lat="47.551167" lon="1.8281597">
        <ele>133.0</ele>
        <time>2022-02-10T10:08:15Z</time>
      </trkpt>
      <trkpt lat="47.551174" lon="1.8281777">
        <ele>134.0</ele>
        <time>2022-02-10T10:08:16Z</time>
      </trkpt>
      <trkpt lat="47.55118" lon="1.8281943">
        <ele>134.0</ele>
        <time>2022-02-10T10:08:17Z</time>
      </trkpt>
      <trkpt lat="47.551197" lon="1.8282166">
        <ele>134.0</ele>
        <time>2022-02-10T10:08:18Z</time>
      </trkpt>
      <trkpt lat="47.55121" lon="1.8282393">
        <ele>135.0</ele>
        <time>2022-02-10T10:08:19Z</time>
      </trkpt>
      <trkpt lat="47.551216" lon="1.8282585">
        <ele>136.0</ele>
        <time>2022-02-10T10:08:20Z</time>
      </trkpt>
      <trkpt lat="47.551228" lon="1.8282777">
        <ele>136.0</ele>
        <time>2022-02-10T10:08:21Z</time>
      </trkpt>
      <trkpt lat="47.55124" lon="1.8283002">
        <ele>136.0</ele>
        <time>2022-02-10T10:08:22Z</time>
      </trkpt>
      <trkpt lat="47.551247" lon="1.8283186">
        <ele>137.0</ele>
        <time>2022-02-10T10:08:23Z</time>
      </trkpt>
      <trkpt lat="47.551254" lon="1.8283333">
        <ele>137.0</ele>
        <time>2022-02-10T10:08:24Z</time>
      </trkpt>
      <trkpt lat="47.551266" lon="1.828351">
        <ele>137.0</ele>
        <time>2022-02-10T10:08:25Z</time>
      </trkpt>
      <trkpt lat="47.551273" lon="1.8283706">
        <ele>138.0</ele>
        <time>2022-02-10T10:08:26Z</time>
      </trkpt>
      <trkpt lat="47.55128" lon="1.8283883">
        <ele>138.0</ele>
        <time>2022-02-10T10:08:27Z</time>
      </trkpt>
      <trkpt lat="47.55129" lon="1.8284029">
        <ele>138.0</ele>
        <time>2022-02-10T10:08:28Z</time>
      </trkpt>
      <trkpt lat="47.5513" lon="1.8284177">
        <ele>139.0</ele>
        <time>2022-02-10T10:08:29Z</time>
      </trkpt>
      <trkpt lat="47.551308" lon="1.8284355">
        <ele>139.0</ele>
        <time>2022-02-10T10:08:30Z</time>
      </trkpt>
      <trkpt lat="47.551315" lon="1.8284523">
        <ele>140.0</ele>
        <time>2022-02-10T10:08:31Z</time>
      </trkpt>
      <trkpt lat="47.55132" lon="1.8284664">
        <ele>140.0</ele>
        <time>2022-02-10T10:08:32Z</time>
      </trkpt>
      <trkpt lat="47.551327" lon="1.8284861">
        <ele>140.0</ele>
        <time>2022-02-10T10:08:33Z</time>
      </trkpt>
      <trkpt lat="47.55133" lon="1.8285011">
        <ele>141.0</ele>
        <time>2022-02-10T10:08:34Z</time>
      </trkpt>
      <trkpt lat="47.55134" lon="1.8285185">
        <ele>141.0</ele>
        <time>2022-02-10T10:08:35Z</time>
      </trkpt>
      <trkpt lat="47.551346" lon="1.8285315">
        <ele>141.0</ele>
        <time>2022-02-10T10:08:36Z</time>
      </trkpt>
      <trkpt lat="47.551353" lon="1.8285465">
        <ele>141.0</ele>
        <time>2022-02-10T10:08:37Z</time>
      </trkpt>
      <trkpt lat="47.55136" lon="1.8285625">
        <ele>142.0</ele>
        <time>2022-02-10T10:08:38Z</time>
      </trkpt>
      <trkpt lat="47.551365" lon="1.8285781">
        <ele>142.0</ele>
        <time>2022-02-10T10:08:39Z</time>
      </trkpt>
      <trkpt lat="47.55137" lon="1.8285936">
        <ele>142.0</ele>
        <time>2022-02-10T10:08:40Z</time>
      </trkpt>
      <trkpt lat="47.551376" lon="1.8286092">
        <ele>142.0</ele>
        <time>2022-02-10T10:08:41Z</time>
      </trkpt>
      <trkpt lat="47.551384" lon="1.8286245">
        <ele>143.0</ele>
        <time>2022-02-10T10:08:42Z</time>
      </trkpt>
      <trkpt lat="47.55139" lon="1.8286428">
        <ele>143.0</ele>
        <time>2022-02-10T10:08:43Z</time>
      </trkpt>
      <trkpt lat="47.5514" lon="1.8286606">
        <ele>143.0</ele>
        <time>2022-02-10T10:08:44Z</time>
      </trkpt>
      <trkpt lat="47.551407" lon="1.8286784">
        <ele>143.0</ele>
        <time>2022-02-10T10:08:45Z</time>
      </trkpt>
      <trkpt lat="47.55141" lon="1.8286953">
        <ele>143.0</ele>
        <time>2022-02-10T10:08:46Z</time>
      </trkpt>
      <trkpt lat="47.551422" lon="1.8287112">
        <ele>144.0</ele>
        <time>2022-02-10T10:08:47Z</time>
      </trkpt>
      <trkpt lat="47.55143" lon="1.8287265">
        <ele>145.0</ele>
        <time>2022-02-10T10:08:48Z</time>
      </trkpt>
      <trkpt lat="47.551437" lon="1.8287416">
        <ele>145.0</ele>
        <time>2022-02-10T10:08:49Z</time>
      </trkpt>
      <trkpt lat="47.551445" lon="1.8287543">
        <ele>145.0</ele>
        <time>2022-02-10T10:08:50Z</time>
      </trkpt>
      <trkpt lat="47.551453" lon="1.8287703">
        <ele>145.0</ele>
        <time>2022-02-10T10:08:51Z</time>
      </trkpt>
      <trkpt lat="47.55146" lon="1.8287843">
        <ele>146.0</ele>
        <time>2022-02-10T10:08:52Z</time>
      </trkpt>
      <trkpt lat="47.551464" lon="1.8287992">
        <ele>146.0</ele>
        <time>2022-02-10T10:08:53Z</time>
      </trkpt>
      <trkpt lat="47.55147" lon="1.8288138">
        <ele>147.0</ele>
        <time>2022-02-10T10:08:54Z</time>
      </trkpt>
      <trkpt lat="47.55148" lon="1.8288308">
        <ele>147.0</ele>
        <time>2022-02-10T10:08:55Z</time>
      </trkpt>
      <trkpt lat="47.551487" lon="1.8288449">
        <ele>146.0</ele>
        <time>2022-02-10T10:08:56Z</time>
      </trkpt>
      <trkpt lat="47.551495" lon="1.8288602">
        <ele>146.0</ele>
        <time>2022-02-10T10:08:57Z</time>
      </trkpt>
      <trkpt lat="47.551502" lon="1.8288726">
        <ele>147.0</ele>
        <time>2022-02-10T10:08:58Z</time>
      </trkpt>
      <trkpt lat="47.551514" lon="1.828883">
        <ele>146.0</ele>
        <time>2022-02-10T10:08:59Z</time>
      </trkpt>
      <trkpt lat="47.551517" lon="1.8288954">
        <ele>147.0</ele>
        <time>2022-02-10T10:09:00Z</time>
      </trkpt>
      <trkpt lat="47.551525" lon="1.8289106">
        <ele>147.0</ele>
        <time>2022-02-10T10:09:01Z</time>
      </trkpt>
      <trkpt lat="47.551533" lon="1.8289256">
        <ele>147.0</ele>
        <time>2022-02-10T10:09:02Z</time>
      </trkpt>
      <trkpt lat="47.55154" lon="1.8289399">
        <ele>147.0</ele>
        <time>2022-02-10T10:09:03Z</time>
      </trkpt>
      <trkpt lat="47.55155" lon="1.828955">
        <ele>148.0</ele>
        <time>2022-02-10T10:09:04Z</time>
      </trkpt>
      <trkpt lat="47.551556" lon="1.8289679">
        <ele>147.0</ele>
        <time>2022-02-10T10:09:05Z</time>
      </trkpt>
      <trkpt lat="47.551563" lon="1.8289815">
        <ele>147.0</ele>
        <time>2022-02-10T10:09:06Z</time>
      </trkpt>
      <trkpt lat="47.55157" lon="1.8289914">
        <ele>148.0</ele>
        <time>2022-02-10T10:09:07Z</time>
      </trkpt>
      <trkpt lat="47.551582" lon="1.8290023">
        <ele>148.0</ele>
        <time>2022-02-10T10:09:08Z</time>
      </trkpt>
      <trkpt lat="47.55159" lon="1.8290143">
        <ele>147.0</ele>
        <time>2022-02-10T10:09:09Z</time>
      </trkpt>
      <trkpt lat="47.5516" lon="1.8290337">
        <ele>148.0</ele>
        <time>2022-02-10T10:09:10Z</time>
      </trkpt>
      <trkpt lat="47.55161" lon="1.8290457">
        <ele>147.0</ele>
        <time>2022-02-10T10:09:11Z</time>
      </trkpt>
      <trkpt lat="47.551617" lon="1.8290578">
        <ele>148.0</ele>
        <time>2022-02-10T10:09:12Z</time>
      </trkpt>
      <trkpt lat="47.55162" lon="1.8290678">
        <ele>148.0</ele>
        <time>2022-02-10T10:09:13Z</time>
      </trkpt>
      <trkpt lat="47.551624" lon="1.8290792">
        <ele>148.0</ele>
        <time>2022-02-10T10:09:14Z</time>
      </trkpt>
      <trkpt lat="47.551632" lon="1.8290931">
        <ele>148.0</ele>
        <time>2022-02-10T10:09:15Z</time>
      </trkpt>
      <trkpt lat="47.55164" lon="1.8291061">
        <ele>148.0</ele>
        <time>2022-02-10T10:09:16Z</time>
      </trkpt>
      <trkpt lat="47.551643" lon="1.8291223">
        <ele>148.0</ele>
        <time>2022-02-10T10:09:17Z</time>
      </trkpt>
      <trkpt lat="47.551647" lon="1.8291363">
        <ele>147.0</ele>
        <time>2022-02-10T10:09:18Z</time>
      </trkpt>
      <trkpt lat="47.55165" lon="1.8291479">
        <ele>147.0</ele>
        <time>2022-02-10T10:09:19Z</time>
      </trkpt>
      <trkpt lat="47.551655" lon="1.8291613">
        <ele>147.0</ele>
        <time>2022-02-10T10:09:20Z</time>
      </trkpt>
      <trkpt lat="47.551662" lon="1.829175">
        <ele>148.0</ele>
        <time>2022-02-10T10:09:21Z</time>
      </trkpt>
      <trkpt lat="47.551666" lon="1.8291876">
        <ele>148.0</ele>
        <time>2022-02-10T10:09:22Z</time>
      </trkpt>
      <trkpt lat="47.55167" lon="1.8292016">
        <ele>148.0</ele>
        <time>2022-02-10T10:09:23Z</time>
      </trkpt>
      <trkpt lat="47.551666" lon="1.8292112">
        <ele>148.0</ele>
        <time>2022-02-10T10:09:24Z</time>
      </trkpt>
      <trkpt lat="47.551666" lon="1.8292112">
        <ele>148.0</ele>
        <time>2022-02-10T10:09:25Z</time>
      </trkpt>
      <trkpt lat="47.551666" lon="1.8292112">
        <ele>148.0</ele>
        <time>2022-02-10T10:09:26Z</time>
      </trkpt>
      <trkpt lat="47.551685" lon="1.8292379">
        <ele>147.0</ele>
        <time>2022-02-10T10:09:27Z</time>
      </trkpt>
      <trkpt lat="47.551693" lon="1.8292468">
        <ele>146.0</ele>
        <time>2022-02-10T10:09:28Z</time>
      </trkpt>
      <trkpt lat="47.551704" lon="1.8292582">
        <ele>146.0</ele>
        <time>2022-02-10T10:09:29Z</time>
      </trkpt>
      <trkpt lat="47.55171" lon="1.8292705">
        <ele>145.0</ele>
        <time>2022-02-10T10:09:30Z</time>
      </trkpt>
      <trkpt lat="47.551716" lon="1.8292776">
        <ele>145.0</ele>
        <time>2022-02-10T10:09:31Z</time>
      </trkpt>
      <trkpt lat="47.551723" lon="1.8292893">
        <ele>145.0</ele>
        <time>2022-02-10T10:09:32Z</time>
      </trkpt>
      <trkpt lat="47.55173" lon="1.829297">
        <ele>145.0</ele>
        <time>2022-02-10T10:09:33Z</time>
      </trkpt>
      <trkpt lat="47.55174" lon="1.8293121">
        <ele>145.0</ele>
        <time>2022-02-10T10:09:34Z</time>
      </trkpt>
      <trkpt lat="47.55175" lon="1.8293232">
        <ele>145.0</ele>
        <time>2022-02-10T10:09:35Z</time>
      </trkpt>
      <trkpt lat="47.551758" lon="1.8293368">
        <ele>144.0</ele>
        <time>2022-02-10T10:09:36Z</time>
      </trkpt>
      <trkpt lat="47.551773" lon="1.8293486">
        <ele>144.0</ele>
        <time>2022-02-10T10:09:37Z</time>
      </trkpt>
      <trkpt lat="47.551777" lon="1.8293601">
        <ele>144.0</ele>
        <time>2022-02-10T10:09:38Z</time>
      </trkpt>
      <trkpt lat="47.551785" lon="1.8293726">
        <ele>144.0</ele>
        <time>2022-02-10T10:09:39Z</time>
      </trkpt>
      <trkpt lat="47.55179" lon="1.8293853">
        <ele>144.0</ele>
        <time>2022-02-10T10:09:40Z</time>
      </trkpt>
      <trkpt lat="47.5518" lon="1.8293996">
        <ele>144.0</ele>
        <time>2022-02-10T10:09:41Z</time>
      </trkpt>
      <trkpt lat="47.551807" lon="1.8294158">
        <ele>144.0</ele>
        <time>2022-02-10T10:09:42Z</time>
      </trkpt>
      <trkpt lat="47.551815" lon="1.8294271">
        <ele>144.0</ele>
        <time>2022-02-10T10:09:43Z</time>
      </trkpt>
      <trkpt lat="47.551826" lon="1.8294417">
        <ele>144.0</ele>
        <time>2022-02-10T10:09:44Z</time>
      </trkpt>
      <trkpt lat="47.551834" lon="1.8294536">
        <ele>144.0</ele>
        <time>2022-02-10T10:09:45Z</time>
      </trkpt>
      <trkpt lat="47.55184" lon="1.8294672">
        <ele>145.0</ele>
        <time>2022-02-10T10:09:46Z</time>
      </trkpt>
      <trkpt lat="47.551853" lon="1.8294837">
        <ele>145.0</ele>
        <time>2022-02-10T10:09:47Z</time>
      </trkpt>
      <trkpt lat="47.55186" lon="1.829501">
        <ele>145.0</ele>
        <time>2022-02-10T10:09:48Z</time>
      </trkpt>
      <trkpt lat="47.55187" lon="1.8295163">
        <ele>145.0</ele>
        <time>2022-02-10T10:09:49Z</time>
      </trkpt>
      <trkpt lat="47.551876" lon="1.8295331">
        <ele>145.0</ele>
        <time>2022-02-10T10:09:50Z</time>
      </trkpt>
      <trkpt lat="47.55188" lon="1.8295463">
        <ele>145.0</ele>
        <time>2022-02-10T10:09:51Z</time>
      </trkpt>
      <trkpt lat="47.551888" lon="1.8295621">
        <ele>145.0</ele>
        <time>2022-02-10T10:09:52Z</time>
      </trkpt>
      <trkpt lat="47.55189" lon="1.8295797">
        <ele>144.0</ele>
        <time>2022-02-10T10:09:53Z</time>
      </trkpt>
      <trkpt lat="47.55189" lon="1.8295925">
        <ele>144.0</ele>
        <time>2022-02-10T10:09:54Z</time>
      </trkpt>
      <trkpt lat="47.5519" lon="1.8296094">
        <ele>144.0</ele>
        <time>2022-02-10T10:09:55Z</time>
      </trkpt>
      <trkpt lat="47.551907" lon="1.8296247">
        <ele>143.0</ele>
        <time>2022-02-10T10:09:56Z</time>
      </trkpt>
      <trkpt lat="47.551914" lon="1.8296438">
        <ele>143.0</ele>
        <time>2022-02-10T10:09:57Z</time>
      </trkpt>
      <trkpt lat="47.551926" lon="1.829663">
        <ele>143.0</ele>
        <time>2022-02-10T10:09:58Z</time>
      </trkpt>
      <trkpt lat="47.551933" lon="1.8296806">
        <ele>144.0</ele>
        <time>2022-02-10T10:09:59Z</time>
      </trkpt>
      <trkpt lat="47.551937" lon="1.8296974">
        <ele>144.0</ele>
        <time>2022-02-10T10:10:00Z</time>
      </trkpt>
      <trkpt lat="47.551945" lon="1.8297108">
        <ele>144.0</ele>
        <time>2022-02-10T10:10:01Z</time>
      </trkpt>
      <trkpt lat="47.551952" lon="1.829723">
        <ele>144.0</ele>
        <time>2022-02-10T10:10:02Z</time>
      </trkpt>
      <trkpt lat="47.55196" lon="1.8297367">
        <ele>144.0</ele>
        <time>2022-02-10T10:10:03Z</time>
      </trkpt>
      <trkpt lat="47.551968" lon="1.8297498">
        <ele>144.0</ele>
        <time>2022-02-10T10:10:04Z</time>
      </trkpt>
      <trkpt lat="47.551975" lon="1.829769">
        <ele>144.0</ele>
        <time>2022-02-10T10:10:05Z</time>
      </trkpt>
      <trkpt lat="47.551983" lon="1.8297842">
        <ele>144.0</ele>
        <time>2022-02-10T10:10:06Z</time>
      </trkpt>
      <trkpt lat="47.551983" lon="1.8297976">
        <ele>143.0</ele>
        <time>2022-02-10T10:10:07Z</time>
      </trkpt>
      <trkpt lat="47.551987" lon="1.8298141">
        <ele>143.0</ele>
        <time>2022-02-10T10:10:08Z</time>
      </trkpt>
      <trkpt lat="47.551994" lon="1.8298343">
        <ele>143.0</ele>
        <time>2022-02-10T10:10:09Z</time>
      </trkpt>
      <trkpt lat="47.552" lon="1.8298512">
        <ele>143.0</ele>
        <time>2022-02-10T10:10:10Z</time>
      </trkpt>
      <trkpt lat="47.552002" lon="1.8298682">
        <ele>143.0</ele>
        <time>2022-02-10T10:10:11Z</time>
      </trkpt>
      <trkpt lat="47.552002" lon="1.8298866">
        <ele>143.0</ele>
        <time>2022-02-10T10:10:12Z</time>
      </trkpt>
      <trkpt lat="47.55201" lon="1.8299067">
        <ele>143.0</ele>
        <time>2022-02-10T10:10:13Z</time>
      </trkpt>
      <trkpt lat="47.552013" lon="1.82993">
        <ele>143.0</ele>
        <time>2022-02-10T10:10:14Z</time>
      </trkpt>
      <trkpt lat="47.552017" lon="1.8299513">
        <ele>143.0</ele>
        <time>2022-02-10T10:10:15Z</time>
      </trkpt>
      <trkpt lat="47.552025" lon="1.8299726">
        <ele>143.0</ele>
        <time>2022-02-10T10:10:16Z</time>
      </trkpt>
      <trkpt lat="47.55203" lon="1.8299912">
        <ele>143.0</ele>
        <time>2022-02-10T10:10:17Z</time>
      </trkpt>
      <trkpt lat="47.55203" lon="1.8300076">
        <ele>143.0</ele>
        <time>2022-02-10T10:10:18Z</time>
      </trkpt>
      <trkpt lat="47.552036" lon="1.8300216">
        <ele>143.0</ele>
        <time>2022-02-10T10:10:19Z</time>
      </trkpt>
      <trkpt lat="47.55204" lon="1.8300395">
        <ele>143.0</ele>
        <time>2022-02-10T10:10:20Z</time>
      </trkpt>
      <trkpt lat="47.552048" lon="1.8300579">
        <ele>143.0</ele>
        <time>2022-02-10T10:10:21Z</time>
      </trkpt>
      <trkpt lat="47.552055" lon="1.8300738">
        <ele>143.0</ele>
        <time>2022-02-10T10:10:22Z</time>
      </trkpt>
      <trkpt lat="47.552063" lon="1.8300928">
        <ele>143.0</ele>
        <time>2022-02-10T10:10:23Z</time>
      </trkpt>
      <trkpt lat="47.552067" lon="1.8301088">
        <ele>143.0</ele>
        <time>2022-02-10T10:10:24Z</time>
      </trkpt>
      <trkpt lat="47.552074" lon="1.8301237">
        <ele>143.0</ele>
        <time>2022-02-10T10:10:25Z</time>
      </trkpt>
      <trkpt lat="47.552082" lon="1.8301363">
        <ele>142.0</ele>
        <time>2022-02-10T10:10:26Z</time>
      </trkpt>
      <trkpt lat="47.55209" lon="1.8301467">
        <ele>142.0</ele>
        <time>2022-02-10T10:10:27Z</time>
      </trkpt>
      <trkpt lat="47.552097" lon="1.8301662">
        <ele>142.0</ele>
        <time>2022-02-10T10:10:28Z</time>
      </trkpt>
      <trkpt lat="47.552105" lon="1.8301884">
        <ele>142.0</ele>
        <time>2022-02-10T10:10:29Z</time>
      </trkpt>
      <trkpt lat="47.552105" lon="1.8302118">
        <ele>142.0</ele>
        <time>2022-02-10T10:10:30Z</time>
      </trkpt>
      <trkpt lat="47.552113" lon="1.8302351">
        <ele>142.0</ele>
        <time>2022-02-10T10:10:31Z</time>
      </trkpt>
      <trkpt lat="47.552116" lon="1.8302517">
        <ele>142.0</ele>
        <time>2022-02-10T10:10:32Z</time>
      </trkpt>
      <trkpt lat="47.552124" lon="1.8302718">
        <ele>142.0</ele>
        <time>2022-02-10T10:10:33Z</time>
      </trkpt>
      <trkpt lat="47.552135" lon="1.8302902">
        <ele>142.0</ele>
        <time>2022-02-10T10:10:34Z</time>
      </trkpt>
      <trkpt lat="47.55214" lon="1.8303037">
        <ele>141.0</ele>
        <time>2022-02-10T10:10:35Z</time>
      </trkpt>
      <trkpt lat="47.552147" lon="1.8303243">
        <ele>141.0</ele>
        <time>2022-02-10T10:10:36Z</time>
      </trkpt>
      <trkpt lat="47.55215" lon="1.8303385">
        <ele>142.0</ele>
        <time>2022-02-10T10:10:37Z</time>
      </trkpt>
      <trkpt lat="47.55216" lon="1.8303521">
        <ele>141.0</ele>
        <time>2022-02-10T10:10:38Z</time>
      </trkpt>
      <trkpt lat="47.552162" lon="1.8303621">
        <ele>141.0</ele>
        <time>2022-02-10T10:10:39Z</time>
      </trkpt>
      <trkpt lat="47.55217" lon="1.8303726">
        <ele>142.0</ele>
        <time>2022-02-10T10:10:40Z</time>
      </trkpt>
      <trkpt lat="47.552174" lon="1.8303868">
        <ele>141.0</ele>
        <time>2022-02-10T10:10:41Z</time>
      </trkpt>
      <trkpt lat="47.552185" lon="1.8304027">
        <ele>140.0</ele>
        <time>2022-02-10T10:10:42Z</time>
      </trkpt>
      <trkpt lat="47.552197" lon="1.830424">
        <ele>141.0</ele>
        <time>2022-02-10T10:10:43Z</time>
      </trkpt>
      <trkpt lat="47.552208" lon="1.8304436">
        <ele>141.0</ele>
        <time>2022-02-10T10:10:44Z</time>
      </trkpt>
      <trkpt lat="47.552216" lon="1.8304601">
        <ele>141.0</ele>
        <time>2022-02-10T10:10:45Z</time>
      </trkpt>
      <trkpt lat="47.552227" lon="1.8304803">
        <ele>141.0</ele>
        <time>2022-02-10T10:10:46Z</time>
      </trkpt>
      <trkpt lat="47.552235" lon="1.8304974">
        <ele>141.0</ele>
        <time>2022-02-10T10:10:47Z</time>
      </trkpt>
      <trkpt lat="47.55224" lon="1.8305086">
        <ele>142.0</ele>
        <time>2022-02-10T10:10:48Z</time>
      </trkpt>
      <trkpt lat="47.552246" lon="1.83052">
        <ele>142.0</ele>
        <time>2022-02-10T10:10:49Z</time>
      </trkpt>
      <trkpt lat="47.552254" lon="1.8305346">
        <ele>142.0</ele>
        <time>2022-02-10T10:10:50Z</time>
      </trkpt>
      <trkpt lat="47.55226" lon="1.8305535">
        <ele>142.0</ele>
        <time>2022-02-10T10:10:51Z</time>
      </trkpt>
      <trkpt lat="47.55227" lon="1.8305684">
        <ele>142.0</ele>
        <time>2022-02-10T10:10:52Z</time>
      </trkpt>
      <trkpt lat="47.552277" lon="1.8305843">
        <ele>142.0</ele>
        <time>2022-02-10T10:10:53Z</time>
      </trkpt>
      <trkpt lat="47.552284" lon="1.8305998">
        <ele>142.0</ele>
        <time>2022-02-10T10:10:54Z</time>
      </trkpt>
      <trkpt lat="47.552288" lon="1.8306152">
        <ele>142.0</ele>
        <time>2022-02-10T10:10:55Z</time>
      </trkpt>
      <trkpt lat="47.552296" lon="1.8306315">
        <ele>142.0</ele>
        <time>2022-02-10T10:10:56Z</time>
      </trkpt>
      <trkpt lat="47.552303" lon="1.8306488">
        <ele>142.0</ele>
        <time>2022-02-10T10:10:57Z</time>
      </trkpt>
      <trkpt lat="47.552315" lon="1.8306656">
        <ele>142.0</ele>
        <time>2022-02-10T10:10:58Z</time>
      </trkpt>
      <trkpt lat="47.552322" lon="1.8306808">
        <ele>141.0</ele>
        <time>2022-02-10T10:10:59Z</time>
      </trkpt>
      <trkpt lat="47.552326" lon="1.830693">
        <ele>141.0</ele>
        <time>2022-02-10T10:11:00Z</time>
      </trkpt>
      <trkpt lat="47.552326" lon="1.8307076">
        <ele>141.0</ele>
        <time>2022-02-10T10:11:01Z</time>
      </trkpt>
      <trkpt lat="47.552326" lon="1.8307076">
        <ele>141.0</ele>
        <time>2022-02-10T10:11:02Z</time>
      </trkpt>
      <trkpt lat="47.552326" lon="1.8307076">
        <ele>141.0</ele>
        <time>2022-02-10T10:11:03Z</time>
      </trkpt>
      <trkpt lat="47.55233" lon="1.8307433">
        <ele>141.0</ele>
        <time>2022-02-10T10:11:04Z</time>
      </trkpt>
      <trkpt lat="47.552326" lon="1.8307587">
        <ele>141.0</ele>
        <time>2022-02-10T10:11:05Z</time>
      </trkpt>
      <trkpt lat="47.552326" lon="1.8307778">
        <ele>141.0</ele>
        <time>2022-02-10T10:11:06Z</time>
      </trkpt>
      <trkpt lat="47.552326" lon="1.8307937">
        <ele>141.0</ele>
        <time>2022-02-10T10:11:07Z</time>
      </trkpt>
      <trkpt lat="47.55233" lon="1.8308104">
        <ele>141.0</ele>
        <time>2022-02-10T10:11:08Z</time>
      </trkpt>
      <trkpt lat="47.552326" lon="1.8308254">
        <ele>141.0</ele>
        <time>2022-02-10T10:11:09Z</time>
      </trkpt>
      <trkpt lat="47.552326" lon="1.8308254">
        <ele>141.0</ele>
        <time>2022-02-10T10:11:10Z</time>
      </trkpt>
      <trkpt lat="47.552322" lon="1.830857">
        <ele>142.0</ele>
        <time>2022-02-10T10:11:11Z</time>
      </trkpt>
      <trkpt lat="47.552315" lon="1.8308723">
        <ele>142.0</ele>
        <time>2022-02-10T10:11:12Z</time>
      </trkpt>
      <trkpt lat="47.552307" lon="1.8308855">
        <ele>143.0</ele>
        <time>2022-02-10T10:11:13Z</time>
      </trkpt>
      <trkpt lat="47.5523" lon="1.830907">
        <ele>143.0</ele>
        <time>2022-02-10T10:11:14Z</time>
      </trkpt>
      <trkpt lat="47.552296" lon="1.8309193">
        <ele>144.0</ele>
        <time>2022-02-10T10:11:15Z</time>
      </trkpt>
      <trkpt lat="47.552288" lon="1.8309314">
        <ele>144.0</ele>
        <time>2022-02-10T10:11:16Z</time>
      </trkpt>
      <trkpt lat="47.552277" lon="1.8309422">
        <ele>145.0</ele>
        <time>2022-02-10T10:11:17Z</time>
      </trkpt>
      <trkpt lat="47.552265" lon="1.8309531">
        <ele>145.0</ele>
        <time>2022-02-10T10:11:18Z</time>
      </trkpt>
      <trkpt lat="47.55226" lon="1.8309635">
        <ele>145.0</ele>
        <time>2022-02-10T10:11:19Z</time>
      </trkpt>
      <trkpt lat="47.552254" lon="1.830978">
        <ele>145.0</ele>
        <time>2022-02-10T10:11:20Z</time>
      </trkpt>
      <trkpt lat="47.55225" lon="1.8309935">
        <ele>145.0</ele>
        <time>2022-02-10T10:11:21Z</time>
      </trkpt>
      <trkpt lat="47.552246" lon="1.8310095">
        <ele>145.0</ele>
        <time>2022-02-10T10:11:22Z</time>
      </trkpt>
      <trkpt lat="47.55224" lon="1.831025">
        <ele>146.0</ele>
        <time>2022-02-10T10:11:23Z</time>
      </trkpt>
      <trkpt lat="47.55223" lon="1.8310406">
        <ele>145.0</ele>
        <time>2022-02-10T10:11:24Z</time>
      </trkpt>
      <trkpt lat="47.552223" lon="1.8310562">
        <ele>146.0</ele>
        <time>2022-02-10T10:11:25Z</time>
      </trkpt>
      <trkpt lat="47.552216" lon="1.8310714">
        <ele>146.0</ele>
        <time>2022-02-10T10:11:26Z</time>
      </trkpt>
      <trkpt lat="47.552208" lon="1.8310846">
        <ele>146.0</ele>
        <time>2022-02-10T10:11:27Z</time>
      </trkpt>
      <trkpt lat="47.552197" lon="1.8310964">
        <ele>146.0</ele>
        <time>2022-02-10T10:11:28Z</time>
      </trkpt>
      <trkpt lat="47.55219" lon="1.8311054">
        <ele>147.0</ele>
        <time>2022-02-10T10:11:29Z</time>
      </trkpt>
      <trkpt lat="47.55218" lon="1.831116">
        <ele>147.0</ele>
        <time>2022-02-10T10:11:30Z</time>
      </trkpt>
      <trkpt lat="47.552174" lon="1.8311285">
        <ele>147.0</ele>
        <time>2022-02-10T10:11:31Z</time>
      </trkpt>
      <trkpt lat="47.552166" lon="1.8311372">
        <ele>147.0</ele>
        <time>2022-02-10T10:11:32Z</time>
      </trkpt>
      <trkpt lat="47.552155" lon="1.8311442">
        <ele>147.0</ele>
        <time>2022-02-10T10:11:33Z</time>
      </trkpt>
      <trkpt lat="47.552147" lon="1.8311548">
        <ele>147.0</ele>
        <time>2022-02-10T10:11:34Z</time>
      </trkpt>
      <trkpt lat="47.552147" lon="1.8311548">
        <ele>147.0</ele>
        <time>2022-02-10T10:11:35Z</time>
      </trkpt>
      <trkpt lat="47.552147" lon="1.8311548">
        <ele>147.0</ele>
        <time>2022-02-10T10:11:36Z</time>
      </trkpt>
      <trkpt lat="47.552128" lon="1.8311802">
        <ele>148.0</ele>
        <time>2022-02-10T10:11:37Z</time>
      </trkpt>
      <trkpt lat="47.55212" lon="1.8311863">
        <ele>148.0</ele>
        <time>2022-02-10T10:11:38Z</time>
      </trkpt>
      <trkpt lat="47.55211" lon="1.8311958">
        <ele>149.0</ele>
        <time>2022-02-10T10:11:39Z</time>
      </trkpt>
      <trkpt lat="47.5521" lon="1.8312055">
        <ele>149.0</ele>
        <time>2022-02-10T10:11:40Z</time>
      </trkpt>
      <trkpt lat="47.55209" lon="1.831221">
        <ele>149.0</ele>
        <time>2022-02-10T10:11:41Z</time>
      </trkpt>
      <trkpt lat="47.55208" lon="1.8312339">
        <ele>149.0</ele>
        <time>2022-02-10T10:11:42Z</time>
      </trkpt>
      <trkpt lat="47.552067" lon="1.831246">
        <ele>150.0</ele>
        <time>2022-02-10T10:11:43Z</time>
      </trkpt>
      <trkpt lat="47.55206" lon="1.8312566">
        <ele>150.0</ele>
        <time>2022-02-10T10:11:44Z</time>
      </trkpt>
      <trkpt lat="47.55205" lon="1.8312653">
        <ele>150.0</ele>
        <time>2022-02-10T10:11:45Z</time>
      </trkpt>
      <trkpt lat="47.55205" lon="1.8312653">
        <ele>150.0</ele>
        <time>2022-02-10T10:11:46Z</time>
      </trkpt>
      <trkpt lat="47.55205" lon="1.8312653">
        <ele>150.0</ele>
        <time>2022-02-10T10:11:47Z</time>
      </trkpt>
      <trkpt lat="47.552032" lon="1.8313072">
        <ele>150.0</ele>
        <time>2022-02-10T10:11:48Z</time>
      </trkpt>
      <trkpt lat="47.552032" lon="1.8313081">
        <ele>151.0</ele>
        <time>2022-02-10T10:11:49Z</time>
      </trkpt>
      <trkpt lat="47.55203" lon="1.8313271">
        <ele>151.0</ele>
        <time>2022-02-10T10:11:50Z</time>
      </trkpt>
      <trkpt lat="47.552025" lon="1.8313411">
        <ele>151.0</ele>
        <time>2022-02-10T10:11:51Z</time>
      </trkpt>
      <trkpt lat="47.552025" lon="1.8313411">
        <ele>151.0</ele>
        <time>2022-02-10T10:11:52Z</time>
      </trkpt>
      <trkpt lat="47.552025" lon="1.8313411">
        <ele>151.0</ele>
        <time>2022-02-10T10:11:53Z</time>
      </trkpt>
      <trkpt lat="47.551994" lon="1.8313777">
        <ele>152.0</ele>
        <time>2022-02-10T10:11:54Z</time>
      </trkpt>
      <trkpt lat="47.551983" lon="1.8313887">
        <ele>151.0</ele>
        <time>2022-02-10T10:11:55Z</time>
      </trkpt>
      <trkpt lat="47.55197" lon="1.8314042">
        <ele>152.0</ele>
        <time>2022-02-10T10:11:56Z</time>
      </trkpt>
      <trkpt lat="47.551964" lon="1.8314165">
        <ele>152.0</ele>
        <time>2022-02-10T10:11:57Z</time>
      </trkpt>
      <trkpt lat="47.551964" lon="1.8314165">
        <ele>152.0</ele>
        <time>2022-02-10T10:11:58Z</time>
      </trkpt>
      <trkpt lat="47.551964" lon="1.8314165">
        <ele>152.0</ele>
        <time>2022-02-10T10:11:59Z</time>
      </trkpt>
      <trkpt lat="47.551945" lon="1.8314601">
        <ele>152.0</ele>
        <time>2022-02-10T10:12:00Z</time>
      </trkpt>
      <trkpt lat="47.551933" lon="1.831478">
        <ele>152.0</ele>
        <time>2022-02-10T10:12:01Z</time>
      </trkpt>
      <trkpt lat="47.551926" lon="1.831494">
        <ele>152.0</ele>
        <time>2022-02-10T10:12:02Z</time>
      </trkpt>
      <trkpt lat="47.551914" lon="1.8315055">
        <ele>153.0</ele>
        <time>2022-02-10T10:12:03Z</time>
      </trkpt>
      <trkpt lat="47.551907" lon="1.8315175">
        <ele>153.0</ele>
        <time>2022-02-10T10:12:04Z</time>
      </trkpt>
      <trkpt lat="47.551895" lon="1.8315306">
        <ele>153.0</ele>
        <time>2022-02-10T10:12:05Z</time>
      </trkpt>
      <trkpt lat="47.551895" lon="1.8315306">
        <ele>153.0</ele>
        <time>2022-02-10T10:12:06Z</time>
      </trkpt>
      <trkpt lat="47.551895" lon="1.8315306">
        <ele>153.0</ele>
        <time>2022-02-10T10:12:07Z</time>
      </trkpt>
      <trkpt lat="47.551876" lon="1.8315673">
        <ele>153.0</ele>
        <time>2022-02-10T10:12:08Z</time>
      </trkpt>
      <trkpt lat="47.55187" lon="1.8315785">
        <ele>153.0</ele>
        <time>2022-02-10T10:12:09Z</time>
      </trkpt>
      <trkpt lat="47.55186" lon="1.8315892">
        <ele>153.0</ele>
        <time>2022-02-10T10:12:10Z</time>
      </trkpt>
      <trkpt lat="47.551853" lon="1.8315984">
        <ele>153.0</ele>
        <time>2022-02-10T10:12:11Z</time>
      </trkpt>
      <trkpt lat="47.55184" lon="1.8316084">
        <ele>153.0</ele>
        <time>2022-02-10T10:12:12Z</time>
      </trkpt>
      <trkpt lat="47.551838" lon="1.8316197">
        <ele>153.0</ele>
        <time>2022-02-10T10:12:13Z</time>
      </trkpt>
      <trkpt lat="47.55183" lon="1.8316265">
        <ele>153.0</ele>
        <time>2022-02-10T10:12:14Z</time>
      </trkpt>
      <trkpt lat="47.551823" lon="1.8316376">
        <ele>153.0</ele>
        <time>2022-02-10T10:12:15Z</time>
      </trkpt>
      <trkpt lat="47.551823" lon="1.8316376">
        <ele>153.0</ele>
        <time>2022-02-10T10:12:16Z</time>
      </trkpt>
      <trkpt lat="47.551823" lon="1.8316376">
        <ele>153.0</ele>
        <time>2022-02-10T10:12:17Z</time>
      </trkpt>
      <trkpt lat="47.5518" lon="1.8316736">
        <ele>153.0</ele>
        <time>2022-02-10T10:12:18Z</time>
      </trkpt>
      <trkpt lat="47.55179" lon="1.8316844">
        <ele>153.0</ele>
        <time>2022-02-10T10:12:19Z</time>
      </trkpt>
      <trkpt lat="47.55178" lon="1.8317015">
        <ele>153.0</ele>
        <time>2022-02-10T10:12:20Z</time>
      </trkpt>
      <trkpt lat="47.551773" lon="1.8317176">
        <ele>153.0</ele>
        <time>2022-02-10T10:12:21Z</time>
      </trkpt>
      <trkpt lat="47.55176" lon="1.8317285">
        <ele>153.0</ele>
        <time>2022-02-10T10:12:22Z</time>
      </trkpt>
      <trkpt lat="47.55176" lon="1.8317285">
        <ele>153.0</ele>
        <time>2022-02-10T10:12:23Z</time>
      </trkpt>
      <trkpt lat="47.55176" lon="1.8317285">
        <ele>153.0</ele>
        <time>2022-02-10T10:12:24Z</time>
      </trkpt>
      <trkpt lat="47.55173" lon="1.8317595">
        <ele>153.0</ele>
        <time>2022-02-10T10:12:25Z</time>
      </trkpt>
      <trkpt lat="47.55172" lon="1.8317689">
        <ele>153.0</ele>
        <time>2022-02-10T10:12:26Z</time>
      </trkpt>
      <trkpt lat="47.55171" lon="1.831784">
        <ele>153.0</ele>
        <time>2022-02-10T10:12:27Z</time>
      </trkpt>
      <trkpt lat="47.5517" lon="1.8317991">
        <ele>153.0</ele>
        <time>2022-02-10T10:12:28Z</time>
      </trkpt>
      <trkpt lat="47.55169" lon="1.8318121">
        <ele>153.0</ele>
        <time>2022-02-10T10:12:29Z</time>
      </trkpt>
      <trkpt lat="47.55168" lon="1.8318247">
        <ele>153.0</ele>
        <time>2022-02-10T10:12:30Z</time>
      </trkpt>
      <trkpt lat="47.55167" lon="1.8318377">
        <ele>154.0</ele>
        <time>2022-02-10T10:12:31Z</time>
      </trkpt>
      <trkpt lat="47.55166" lon="1.8318509">
        <ele>153.0</ele>
        <time>2022-02-10T10:12:32Z</time>
      </trkpt>
      <trkpt lat="47.55165" lon="1.8318636">
        <ele>153.0</ele>
        <time>2022-02-10T10:12:33Z</time>
      </trkpt>
      <trkpt lat="47.551643" lon="1.831871">
        <ele>154.0</ele>
        <time>2022-02-10T10:12:34Z</time>
      </trkpt>
      <trkpt lat="47.551636" lon="1.8318825">
        <ele>155.0</ele>
        <time>2022-02-10T10:12:35Z</time>
      </trkpt>
      <trkpt lat="47.551624" lon="1.8318975">
        <ele>155.0</ele>
        <time>2022-02-10T10:12:36Z</time>
      </trkpt>
      <trkpt lat="47.55162" lon="1.831913">
        <ele>155.0</ele>
        <time>2022-02-10T10:12:37Z</time>
      </trkpt>
      <trkpt lat="47.551617" lon="1.8319286">
        <ele>155.0</ele>
        <time>2022-02-10T10:12:38Z</time>
      </trkpt>
      <trkpt lat="47.551617" lon="1.8319445">
        <ele>155.0</ele>
        <time>2022-02-10T10:12:39Z</time>
      </trkpt>
      <trkpt lat="47.551613" lon="1.8319582">
        <ele>154.0</ele>
        <time>2022-02-10T10:12:40Z</time>
      </trkpt>
      <trkpt lat="47.55161" lon="1.8319728">
        <ele>154.0</ele>
        <time>2022-02-10T10:12:41Z</time>
      </trkpt>
      <trkpt lat="47.551605" lon="1.8319845">
        <ele>154.0</ele>
        <time>2022-02-10T10:12:42Z</time>
      </trkpt>
      <trkpt lat="47.55161" lon="1.8319927">
        <ele>153.0</ele>
        <time>2022-02-10T10:12:43Z</time>
      </trkpt>
      <trkpt lat="47.55161" lon="1.8319927">
        <ele>153.0</ele>
        <time>2022-02-10T10:12:44Z</time>
      </trkpt>
      <trkpt lat="47.551613" lon="1.8320069">
        <ele>153.0</ele>
        <time>2022-02-10T10:12:45Z</time>
      </trkpt>
      <trkpt lat="47.551613" lon="1.8320202">
        <ele>152.0</ele>
        <time>2022-02-10T10:12:46Z</time>
      </trkpt>
      <trkpt lat="47.55162" lon="1.8320359">
        <ele>152.0</ele>
        <time>2022-02-10T10:12:47Z</time>
      </trkpt>
      <trkpt lat="47.55163" lon="1.8320507">
        <ele>151.0</ele>
        <time>2022-02-10T10:12:48Z</time>
      </trkpt>
      <trkpt lat="47.551636" lon="1.8320603">
        <ele>152.0</ele>
        <time>2022-02-10T10:12:49Z</time>
      </trkpt>
      <trkpt lat="47.55164" lon="1.8320696">
        <ele>151.0</ele>
        <time>2022-02-10T10:12:50Z</time>
      </trkpt>
      <trkpt lat="47.55164" lon="1.8320799">
        <ele>152.0</ele>
        <time>2022-02-10T10:12:51Z</time>
      </trkpt>
      <trkpt lat="47.551643" lon="1.8320888">
        <ele>152.0</ele>
        <time>2022-02-10T10:12:52Z</time>
      </trkpt>
      <trkpt lat="47.551643" lon="1.8320888">
        <ele>152.0</ele>
        <time>2022-02-10T10:12:53Z</time>
      </trkpt>
      <trkpt lat="47.551643" lon="1.8320888">
        <ele>152.0</ele>
        <time>2022-02-10T10:12:54Z</time>
      </trkpt>
      <trkpt lat="47.551647" lon="1.8321106">
        <ele>152.0</ele>
        <time>2022-02-10T10:12:55Z</time>
      </trkpt>
      <trkpt lat="47.55165" lon="1.8321204">
        <ele>152.0</ele>
        <time>2022-02-10T10:12:56Z</time>
      </trkpt>
      <trkpt lat="47.551655" lon="1.832129">
        <ele>152.0</ele>
        <time>2022-02-10T10:12:57Z</time>
      </trkpt>
      <trkpt lat="47.551666" lon="1.8321403">
        <ele>152.0</ele>
        <time>2022-02-10T10:12:58Z</time>
      </trkpt>
      <trkpt lat="47.55167" lon="1.8321522">
        <ele>151.0</ele>
        <time>2022-02-10T10:12:59Z</time>
      </trkpt>
      <trkpt lat="47.551674" lon="1.8321649">
        <ele>151.0</ele>
        <time>2022-02-10T10:13:00Z</time>
      </trkpt>
      <trkpt lat="47.551678" lon="1.8321846">
        <ele>150.0</ele>
        <time>2022-02-10T10:13:01Z</time>
      </trkpt>
      <trkpt lat="47.551685" lon="1.8322022">
        <ele>150.0</ele>
        <time>2022-02-10T10:13:02Z</time>
      </trkpt>
      <trkpt lat="47.55169" lon="1.8322216">
        <ele>150.0</ele>
        <time>2022-02-10T10:13:03Z</time>
      </trkpt>
      <trkpt lat="47.55169" lon="1.8322357">
        <ele>149.0</ele>
        <time>2022-02-10T10:13:04Z</time>
      </trkpt>
      <trkpt lat="47.551697" lon="1.8322512">
        <ele>149.0</ele>
        <time>2022-02-10T10:13:05Z</time>
      </trkpt>
      <trkpt lat="47.55171" lon="1.8322668">
        <ele>149.0</ele>
        <time>2022-02-10T10:13:06Z</time>
      </trkpt>
      <trkpt lat="47.551716" lon="1.8322778">
        <ele>149.0</ele>
        <time>2022-02-10T10:13:07Z</time>
      </trkpt>
      <trkpt lat="47.551727" lon="1.8322897">
        <ele>148.0</ele>
        <time>2022-02-10T10:13:08Z</time>
      </trkpt>
      <trkpt lat="47.551735" lon="1.8323007">
        <ele>148.0</ele>
        <time>2022-02-10T10:13:09Z</time>
      </trkpt>
      <trkpt lat="47.551746" lon="1.832311">
        <ele>147.0</ele>
        <time>2022-02-10T10:13:10Z</time>
      </trkpt>
      <trkpt lat="47.551754" lon="1.832319">
        <ele>147.0</ele>
        <time>2022-02-10T10:13:11Z</time>
      </trkpt>
      <trkpt lat="47.55176" lon="1.832332">
        <ele>147.0</ele>
        <time>2022-02-10T10:13:12Z</time>
      </trkpt>
      <trkpt lat="47.551765" lon="1.832347">
        <ele>146.0</ele>
        <time>2022-02-10T10:13:13Z</time>
      </trkpt>
      <trkpt lat="47.551773" lon="1.8323607">
        <ele>146.0</ele>
        <time>2022-02-10T10:13:14Z</time>
      </trkpt>
      <trkpt lat="47.551777" lon="1.8323727">
        <ele>146.0</ele>
        <time>2022-02-10T10:13:15Z</time>
      </trkpt>
      <trkpt lat="47.55178" lon="1.8323834">
        <ele>146.0</ele>
        <time>2022-02-10T10:13:16Z</time>
      </trkpt>
      <trkpt lat="47.551785" lon="1.8323959">
        <ele>146.0</ele>
        <time>2022-02-10T10:13:17Z</time>
      </trkpt>
      <trkpt lat="47.551792" lon="1.832415">
        <ele>146.0</ele>
        <time>2022-02-10T10:13:18Z</time>
      </trkpt>
      <trkpt lat="47.551804" lon="1.8324331">
        <ele>146.0</ele>
        <time>2022-02-10T10:13:19Z</time>
      </trkpt>
      <trkpt lat="47.551807" lon="1.8324422">
        <ele>146.0</ele>
        <time>2022-02-10T10:13:20Z</time>
      </trkpt>
      <trkpt lat="47.551815" lon="1.8324533">
        <ele>146.0</ele>
        <time>2022-02-10T10:13:21Z</time>
      </trkpt>
      <trkpt lat="47.551823" lon="1.8324654">
        <ele>146.0</ele>
        <time>2022-02-10T10:13:22Z</time>
      </trkpt>
      <trkpt lat="47.55183" lon="1.8324779">
        <ele>146.0</ele>
        <time>2022-02-10T10:13:23Z</time>
      </trkpt>
      <trkpt lat="47.551834" lon="1.8324862">
        <ele>146.0</ele>
        <time>2022-02-10T10:13:24Z</time>
      </trkpt>
      <trkpt lat="47.55184" lon="1.8324984">
        <ele>146.0</ele>
        <time>2022-02-10T10:13:25Z</time>
      </trkpt>
      <trkpt lat="47.55185" lon="1.8325111">
        <ele>145.0</ele>
        <time>2022-02-10T10:13:26Z</time>
      </trkpt>
      <trkpt lat="47.551857" lon="1.8325211">
        <ele>146.0</ele>
        <time>2022-02-10T10:13:27Z</time>
      </trkpt>
      <trkpt lat="47.551865" lon="1.8325309">
        <ele>145.0</ele>
        <time>2022-02-10T10:13:28Z</time>
      </trkpt>
      <trkpt lat="47.55187" lon="1.8325412">
        <ele>145.0</ele>
        <time>2022-02-10T10:13:29Z</time>
      </trkpt>
      <trkpt lat="47.55188" lon="1.8325509">
        <ele>145.0</ele>
        <time>2022-02-10T10:13:30Z</time>
      </trkpt>
      <trkpt lat="47.551888" lon="1.8325629">
        <ele>144.0</ele>
        <time>2022-02-10T10:13:31Z</time>
      </trkpt>
      <trkpt lat="47.5519" lon="1.8325735">
        <ele>144.0</ele>
        <time>2022-02-10T10:13:32Z</time>
      </trkpt>
      <trkpt lat="47.55191" lon="1.8325912">
        <ele>145.0</ele>
        <time>2022-02-10T10:13:33Z</time>
      </trkpt>
      <trkpt lat="47.55192" lon="1.8326097">
        <ele>145.0</ele>
        <time>2022-02-10T10:13:34Z</time>
      </trkpt>
      <trkpt lat="47.55193" lon="1.8326293">
        <ele>145.0</ele>
        <time>2022-02-10T10:13:35Z</time>
      </trkpt>
      <trkpt lat="47.551933" lon="1.8326412">
        <ele>144.0</ele>
        <time>2022-02-10T10:13:36Z</time>
      </trkpt>
      <trkpt lat="47.55194" lon="1.8326528">
        <ele>144.0</ele>
        <time>2022-02-10T10:13:37Z</time>
      </trkpt>
      <trkpt lat="47.55195" lon="1.832665">
        <ele>145.0</ele>
        <time>2022-02-10T10:13:38Z</time>
      </trkpt>
      <trkpt lat="47.551956" lon="1.8326782">
        <ele>145.0</ele>
        <time>2022-02-10T10:13:39Z</time>
      </trkpt>
      <trkpt lat="47.551964" lon="1.8326895">
        <ele>144.0</ele>
        <time>2022-02-10T10:13:40Z</time>
      </trkpt>
      <trkpt lat="47.55197" lon="1.8326997">
        <ele>145.0</ele>
        <time>2022-02-10T10:13:41Z</time>
      </trkpt>
      <trkpt lat="47.55198" lon="1.8327141">
        <ele>144.0</ele>
        <time>2022-02-10T10:13:42Z</time>
      </trkpt>
      <trkpt lat="47.551987" lon="1.8327278">
        <ele>144.0</ele>
        <time>2022-02-10T10:13:43Z</time>
      </trkpt>
      <trkpt lat="47.55199" lon="1.8327442">
        <ele>144.0</ele>
        <time>2022-02-10T10:13:44Z</time>
      </trkpt>
      <trkpt lat="47.552" lon="1.8327596">
        <ele>145.0</ele>
        <time>2022-02-10T10:13:45Z</time>
      </trkpt>
      <trkpt lat="47.55201" lon="1.8327734">
        <ele>144.0</ele>
        <time>2022-02-10T10:13:46Z</time>
      </trkpt>
      <trkpt lat="47.55202" lon="1.8327873">
        <ele>144.0</ele>
        <time>2022-02-10T10:13:47Z</time>
      </trkpt>
      <trkpt lat="47.552025" lon="1.8327982">
        <ele>144.0</ele>
        <time>2022-02-10T10:13:48Z</time>
      </trkpt>
      <trkpt lat="47.552032" lon="1.8328078">
        <ele>144.0</ele>
        <time>2022-02-10T10:13:49Z</time>
      </trkpt>
      <trkpt lat="47.55204" lon="1.8328183">
        <ele>144.0</ele>
        <time>2022-02-10T10:13:50Z</time>
      </trkpt>
      <trkpt lat="47.552044" lon="1.8328278">
        <ele>143.0</ele>
        <time>2022-02-10T10:13:51Z</time>
      </trkpt>
      <trkpt lat="47.552055" lon="1.8328366">
        <ele>143.0</ele>
        <time>2022-02-10T10:13:52Z</time>
      </trkpt>
      <trkpt lat="47.55206" lon="1.8328425">
        <ele>144.0</ele>
        <time>2022-02-10T10:13:53Z</time>
      </trkpt>
      <trkpt lat="47.552063" lon="1.8328527">
        <ele>144.0</ele>
        <time>2022-02-10T10:13:54Z</time>
      </trkpt>
      <trkpt lat="47.55207" lon="1.8328636">
        <ele>144.0</ele>
        <time>2022-02-10T10:13:55Z</time>
      </trkpt>
      <trkpt lat="47.55208" lon="1.8328732">
        <ele>143.0</ele>
        <time>2022-02-10T10:13:56Z</time>
      </trkpt>
      <trkpt lat="47.552086" lon="1.8328828">
        <ele>143.0</ele>
        <time>2022-02-10T10:13:57Z</time>
      </trkpt>
      <trkpt lat="47.552094" lon="1.8328964">
        <ele>143.0</ele>
        <time>2022-02-10T10:13:58Z</time>
      </trkpt>
      <trkpt lat="47.552097" lon="1.8329111">
        <ele>144.0</ele>
        <time>2022-02-10T10:13:59Z</time>
      </trkpt>
      <trkpt lat="47.552105" lon="1.8329291">
        <ele>144.0</ele>
        <time>2022-02-10T10:14:00Z</time>
      </trkpt>
      <trkpt lat="47.552113" lon="1.832945">
        <ele>143.0</ele>
        <time>2022-02-10T10:14:01Z</time>
      </trkpt>
      <trkpt lat="47.55212" lon="1.8329561">
        <ele>143.0</ele>
        <time>2022-02-10T10:14:02Z</time>
      </trkpt>
      <trkpt lat="47.552128" lon="1.8329675">
        <ele>143.0</ele>
        <time>2022-02-10T10:14:03Z</time>
      </trkpt>
      <trkpt lat="47.552135" lon="1.8329777">
        <ele>143.0</ele>
        <time>2022-02-10T10:14:04Z</time>
      </trkpt>
      <trkpt lat="47.552143" lon="1.8329896">
        <ele>143.0</ele>
        <time>2022-02-10T10:14:05Z</time>
      </trkpt>
      <trkpt lat="47.55215" lon="1.8330021">
        <ele>143.0</ele>
        <time>2022-02-10T10:14:06Z</time>
      </trkpt>
      <trkpt lat="47.552162" lon="1.8330145">
        <ele>143.0</ele>
        <time>2022-02-10T10:14:07Z</time>
      </trkpt>
      <trkpt lat="47.55217" lon="1.8330317">
        <ele>143.0</ele>
        <time>2022-02-10T10:14:08Z</time>
      </trkpt>
      <trkpt lat="47.552177" lon="1.8330524">
        <ele>143.0</ele>
        <time>2022-02-10T10:14:09Z</time>
      </trkpt>
      <trkpt lat="47.552185" lon="1.8330755">
        <ele>142.0</ele>
        <time>2022-02-10T10:14:10Z</time>
      </trkpt>
      <trkpt lat="47.552185" lon="1.8330963">
        <ele>142.0</ele>
        <time>2022-02-10T10:14:11Z</time>
      </trkpt>
      <trkpt lat="47.55219" lon="1.8331175">
        <ele>142.0</ele>
        <time>2022-02-10T10:14:12Z</time>
      </trkpt>
      <trkpt lat="47.552193" lon="1.8331374">
        <ele>142.0</ele>
        <time>2022-02-10T10:14:13Z</time>
      </trkpt>
      <trkpt lat="47.552193" lon="1.8331543">
        <ele>142.0</ele>
        <time>2022-02-10T10:14:14Z</time>
      </trkpt>
      <trkpt lat="47.552185" lon="1.8331728">
        <ele>142.0</ele>
        <time>2022-02-10T10:14:15Z</time>
      </trkpt>
      <trkpt lat="47.552177" lon="1.8331928">
        <ele>143.0</ele>
        <time>2022-02-10T10:14:16Z</time>
      </trkpt>
      <trkpt lat="47.552174" lon="1.8332084">
        <ele>143.0</ele>
        <time>2022-02-10T10:14:17Z</time>
      </trkpt>
      <trkpt lat="47.552166" lon="1.8332219">
        <ele>144.0</ele>
        <time>2022-02-10T10:14:18Z</time>
      </trkpt>
      <trkpt lat="47.55216" lon="1.8332388">
        <ele>144.0</ele>
        <time>2022-02-10T10:14:19Z</time>
      </trkpt>
      <trkpt lat="47.55215" lon="1.8332547">
        <ele>144.0</ele>
        <time>2022-02-10T10:14:20Z</time>
      </trkpt>
      <trkpt lat="47.55214" lon="1.8332691">
        <ele>145.0</ele>
        <time>2022-02-10T10:14:21Z</time>
      </trkpt>
      <trkpt lat="47.552135" lon="1.8332868">
        <ele>145.0</ele>
        <time>2022-02-10T10:14:22Z</time>
      </trkpt>
      <trkpt lat="47.552128" lon="1.8333064">
        <ele>146.0</ele>
        <time>2022-02-10T10:14:23Z</time>
      </trkpt>
      <trkpt lat="47.55212" lon="1.8333253">
        <ele>147.0</ele>
        <time>2022-02-10T10:14:24Z</time>
      </trkpt>
      <trkpt lat="47.552113" lon="1.833342">
        <ele>147.0</ele>
        <time>2022-02-10T10:14:25Z</time>
      </trkpt>
      <trkpt lat="47.552105" lon="1.8333585">
        <ele>147.0</ele>
        <time>2022-02-10T10:14:26Z</time>
      </trkpt>
      <trkpt lat="47.552094" lon="1.8333727">
        <ele>148.0</ele>
        <time>2022-02-10T10:14:27Z</time>
      </trkpt>
      <trkpt lat="47.552086" lon="1.8333867">
        <ele>149.0</ele>
        <time>2022-02-10T10:14:28Z</time>
      </trkpt>
      <trkpt lat="47.55208" lon="1.8334004">
        <ele>149.0</ele>
        <time>2022-02-10T10:14:29Z</time>
      </trkpt>
      <trkpt lat="47.55207" lon="1.8334105">
        <ele>150.0</ele>
        <time>2022-02-10T10:14:30Z</time>
      </trkpt>
      <trkpt lat="47.552063" lon="1.8334212">
        <ele>151.0</ele>
        <time>2022-02-10T10:14:31Z</time>
      </trkpt>
      <trkpt lat="47.552055" lon="1.8334312">
        <ele>151.0</ele>
        <time>2022-02-10T10:14:32Z</time>
      </trkpt>
      <trkpt lat="47.552048" lon="1.8334459">
        <ele>152.0</ele>
        <time>2022-02-10T10:14:33Z</time>
      </trkpt>
      <trkpt lat="47.55204" lon="1.8334601">
        <ele>152.0</ele>
        <time>2022-02-10T10:14:34Z</time>
      </trkpt>
      <trkpt lat="47.55203" lon="1.8334727">
        <ele>152.0</ele>
        <time>2022-02-10T10:14:35Z</time>
      </trkpt>
      <trkpt lat="47.55202" lon="1.8334874">
        <ele>152.0</ele>
        <time>2022-02-10T10:14:36Z</time>
      </trkpt>
      <trkpt lat="47.552013" lon="1.8335007">
        <ele>153.0</ele>
        <time>2022-02-10T10:14:37Z</time>
      </trkpt>
      <trkpt lat="47.552006" lon="1.8335142">
        <ele>153.0</ele>
        <time>2022-02-10T10:14:38Z</time>
      </trkpt>
      <trkpt lat="47.552" lon="1.8335253">
        <ele>153.0</ele>
        <time>2022-02-10T10:14:39Z</time>
      </trkpt>
      <trkpt lat="47.55199" lon="1.8335392">
        <ele>153.0</ele>
        <time>2022-02-10T10:14:40Z</time>
      </trkpt>
      <trkpt lat="47.551983" lon="1.8335549">
        <ele>154.0</ele>
        <time>2022-02-10T10:14:41Z</time>
      </trkpt>
      <trkpt lat="47.551975" lon="1.8335676">
        <ele>154.0</ele>
        <time>2022-02-10T10:14:42Z</time>
      </trkpt>
      <trkpt lat="47.551968" lon="1.8335844">
        <ele>155.0</ele>
        <time>2022-02-10T10:14:43Z</time>
      </trkpt>
      <trkpt lat="47.55196" lon="1.8335986">
        <ele>155.0</ele>
        <time>2022-02-10T10:14:44Z</time>
      </trkpt>
      <trkpt lat="47.551952" lon="1.833611">
        <ele>155.0</ele>
        <time>2022-02-10T10:14:45Z</time>
      </trkpt>
      <trkpt lat="47.551945" lon="1.8336223">
        <ele>156.0</ele>
        <time>2022-02-10T10:14:46Z</time>
      </trkpt>
      <trkpt lat="47.551937" lon="1.8336359">
        <ele>156.0</ele>
        <time>2022-02-10T10:14:47Z</time>
      </trkpt>
      <trkpt lat="47.551926" lon="1.8336477">
        <ele>156.0</ele>
        <time>2022-02-10T10:14:48Z</time>
      </trkpt>
      <trkpt lat="47.551914" lon="1.8336573">
        <ele>156.0</ele>
        <time>2022-02-10T10:14:49Z</time>
      </trkpt>
      <trkpt lat="47.55191" lon="1.8336686">
        <ele>156.0</ele>
        <time>2022-02-10T10:14:50Z</time>
      </trkpt>
      <trkpt lat="47.551903" lon="1.8336884">
        <ele>157.0</ele>
        <time>2022-02-10T10:14:51Z</time>
      </trkpt>
      <trkpt lat="47.551895" lon="1.8337029">
        <ele>157.0</ele>
        <time>2022-02-10T10:14:52Z</time>
      </trkpt>
      <trkpt lat="47.551888" lon="1.8337147">
        <ele>157.0</ele>
        <time>2022-02-10T10:14:53Z</time>
      </trkpt>
      <trkpt lat="47.55188" lon="1.8337257">
        <ele>157.0</ele>
        <time>2022-02-10T10:14:54Z</time>
      </trkpt>
      <trkpt lat="47.551872" lon="1.8337392">
        <ele>157.0</ele>
        <time>2022-02-10T10:14:55Z</time>
      </trkpt>
      <trkpt lat="47.55186" lon="1.8337531">
        <ele>157.0</ele>
        <time>2022-02-10T10:14:56Z</time>
      </trkpt>
      <trkpt lat="47.551853" lon="1.8337653">
        <ele>157.0</ele>
        <time>2022-02-10T10:14:57Z</time>
      </trkpt>
      <trkpt lat="47.55185" lon="1.833773">
        <ele>158.0</ele>
        <time>2022-02-10T10:14:58Z</time>
      </trkpt>
      <trkpt lat="47.55184" lon="1.8337841">
        <ele>158.0</ele>
        <time>2022-02-10T10:14:59Z</time>
      </trkpt>
      <trkpt lat="47.55183" lon="1.8337965">
        <ele>158.0</ele>
        <time>2022-02-10T10:15:00Z</time>
      </trkpt>
      <trkpt lat="47.551823" lon="1.8338137">
        <ele>158.0</ele>
        <time>2022-02-10T10:15:01Z</time>
      </trkpt>
      <trkpt lat="47.55181" lon="1.8338289">
        <ele>158.0</ele>
        <time>2022-02-10T10:15:02Z</time>
      </trkpt>
      <trkpt lat="47.551804" lon="1.8338416">
        <ele>158.0</ele>
        <time>2022-02-10T10:15:03Z</time>
      </trkpt>
      <trkpt lat="47.551792" lon="1.8338497">
        <ele>157.0</ele>
        <time>2022-02-10T10:15:04Z</time>
      </trkpt>
      <trkpt lat="47.551785" lon="1.8338588">
        <ele>157.0</ele>
        <time>2022-02-10T10:15:05Z</time>
      </trkpt>
      <trkpt lat="47.551777" lon="1.8338671">
        <ele>157.0</ele>
        <time>2022-02-10T10:15:06Z</time>
      </trkpt>
      <trkpt lat="47.551777" lon="1.8338751">
        <ele>158.0</ele>
        <time>2022-02-10T10:15:07Z</time>
      </trkpt>
      <trkpt lat="47.551773" lon="1.8338856">
        <ele>158.0</ele>
        <time>2022-02-10T10:15:08Z</time>
      </trkpt>
      <trkpt lat="47.551765" lon="1.8338999">
        <ele>158.0</ele>
        <time>2022-02-10T10:15:09Z</time>
      </trkpt>
      <trkpt lat="47.551758" lon="1.833914">
        <ele>158.0</ele>
        <time>2022-02-10T10:15:10Z</time>
      </trkpt>
      <trkpt lat="47.551754" lon="1.8339274">
        <ele>158.0</ele>
        <time>2022-02-10T10:15:11Z</time>
      </trkpt>
      <trkpt lat="47.551754" lon="1.8339436">
        <ele>158.0</ele>
        <time>2022-02-10T10:15:12Z</time>
      </trkpt>
      <trkpt lat="47.55175" lon="1.8339599">
        <ele>158.0</ele>
        <time>2022-02-10T10:15:13Z</time>
      </trkpt>
      <trkpt lat="47.55175" lon="1.8339787">
        <ele>158.0</ele>
        <time>2022-02-10T10:15:14Z</time>
      </trkpt>
      <trkpt lat="47.55175" lon="1.8339956">
        <ele>157.0</ele>
        <time>2022-02-10T10:15:15Z</time>
      </trkpt>
      <trkpt lat="47.551746" lon="1.83401">
        <ele>157.0</ele>
        <time>2022-02-10T10:15:16Z</time>
      </trkpt>
      <trkpt lat="47.55175" lon="1.8340214">
        <ele>158.0</ele>
        <time>2022-02-10T10:15:17Z</time>
      </trkpt>
      <trkpt lat="47.55175" lon="1.8340335">
        <ele>157.0</ele>
        <time>2022-02-10T10:15:18Z</time>
      </trkpt>
      <trkpt lat="47.551758" lon="1.8340446">
        <ele>157.0</ele>
        <time>2022-02-10T10:15:19Z</time>
      </trkpt>
      <trkpt lat="47.551765" lon="1.83406">
        <ele>157.0</ele>
        <time>2022-02-10T10:15:20Z</time>
      </trkpt>
      <trkpt lat="47.551773" lon="1.8340719">
        <ele>156.0</ele>
        <time>2022-02-10T10:15:21Z</time>
      </trkpt>
      <trkpt lat="47.55178" lon="1.8340834">
        <ele>156.0</ele>
        <time>2022-02-10T10:15:22Z</time>
      </trkpt>
      <trkpt lat="47.55179" lon="1.834095">
        <ele>156.0</ele>
        <time>2022-02-10T10:15:23Z</time>
      </trkpt>
      <trkpt lat="47.551796" lon="1.8341066">
        <ele>155.0</ele>
        <time>2022-02-10T10:15:24Z</time>
      </trkpt>
      <trkpt lat="47.5518" lon="1.8341155">
        <ele>155.0</ele>
        <time>2022-02-10T10:15:25Z</time>
      </trkpt>
      <trkpt lat="47.551807" lon="1.8341259">
        <ele>154.0</ele>
        <time>2022-02-10T10:15:26Z</time>
      </trkpt>
      <trkpt lat="47.551815" lon="1.834137">
        <ele>153.0</ele>
        <time>2022-02-10T10:15:27Z</time>
      </trkpt>
      <trkpt lat="47.551826" lon="1.8341479">
        <ele>153.0</ele>
        <time>2022-02-10T10:15:28Z</time>
      </trkpt>
      <trkpt lat="47.551838" lon="1.834151">
        <ele>152.0</ele>
        <time>2022-02-10T10:15:29Z</time>
      </trkpt>
      <trkpt lat="47.551846" lon="1.8341599">
        <ele>152.0</ele>
        <time>2022-02-10T10:15:30Z</time>
      </trkpt>
      <trkpt lat="47.551857" lon="1.8341701">
        <ele>152.0</ele>
        <time>2022-02-10T10:15:31Z</time>
      </trkpt>
      <trkpt lat="47.551865" lon="1.8341842">
        <ele>151.0</ele>
        <time>2022-02-10T10:15:32Z</time>
      </trkpt>
      <trkpt lat="47.551876" lon="1.8341961">
        <ele>151.0</ele>
        <time>2022-02-10T10:15:33Z</time>
      </trkpt>
      <trkpt lat="47.551884" lon="1.8342056">
        <ele>151.0</ele>
        <time>2022-02-10T10:15:34Z</time>
      </trkpt>
      <trkpt lat="47.55189" lon="1.8342174">
        <ele>151.0</ele>
        <time>2022-02-10T10:15:35Z</time>
      </trkpt>
      <trkpt lat="47.551903" lon="1.8342295">
        <ele>151.0</ele>
        <time>2022-02-10T10:15:36Z</time>
      </trkpt>
      <trkpt lat="47.55191" lon="1.8342398">
        <ele>151.0</ele>
        <time>2022-02-10T10:15:37Z</time>
      </trkpt>
      <trkpt lat="47.551918" lon="1.8342516">
        <ele>151.0</ele>
        <time>2022-02-10T10:15:38Z</time>
      </trkpt>
      <trkpt lat="47.551926" lon="1.8342651">
        <ele>152.0</ele>
        <time>2022-02-10T10:15:39Z</time>
      </trkpt>
      <trkpt lat="47.551933" lon="1.834277">
        <ele>151.0</ele>
        <time>2022-02-10T10:15:40Z</time>
      </trkpt>
      <trkpt lat="47.55194" lon="1.8342856">
        <ele>151.0</ele>
        <time>2022-02-10T10:15:41Z</time>
      </trkpt>
      <trkpt lat="47.55195" lon="1.8342971">
        <ele>151.0</ele>
        <time>2022-02-10T10:15:42Z</time>
      </trkpt>
      <trkpt lat="47.551956" lon="1.834309">
        <ele>151.0</ele>
        <time>2022-02-10T10:15:43Z</time>
      </trkpt>
      <trkpt lat="47.551964" lon="1.8343217">
        <ele>151.0</ele>
        <time>2022-02-10T10:15:44Z</time>
      </trkpt>
      <trkpt lat="47.55197" lon="1.8343319">
        <ele>150.0</ele>
        <time>2022-02-10T10:15:45Z</time>
      </trkpt>
      <trkpt lat="47.55198" lon="1.8343437">
        <ele>150.0</ele>
        <time>2022-02-10T10:15:46Z</time>
      </trkpt>
      <trkpt lat="47.551987" lon="1.834355">
        <ele>150.0</ele>
        <time>2022-02-10T10:15:47Z</time>
      </trkpt>
      <trkpt lat="47.551994" lon="1.8343661">
        <ele>150.0</ele>
        <time>2022-02-10T10:15:48Z</time>
      </trkpt>
      <trkpt lat="47.552006" lon="1.8343748">
        <ele>149.0</ele>
        <time>2022-02-10T10:15:49Z</time>
      </trkpt>
      <trkpt lat="47.552013" lon="1.8343848">
        <ele>149.0</ele>
        <time>2022-02-10T10:15:50Z</time>
      </trkpt>
      <trkpt lat="47.55202" lon="1.8343982">
        <ele>149.0</ele>
        <time>2022-02-10T10:15:51Z</time>
      </trkpt>
      <trkpt lat="47.552025" lon="1.8344117">
        <ele>149.0</ele>
        <time>2022-02-10T10:15:52Z</time>
      </trkpt>
      <trkpt lat="47.552025" lon="1.8344238">
        <ele>149.0</ele>
        <time>2022-02-10T10:15:53Z</time>
      </trkpt>
      <trkpt lat="47.552032" lon="1.8344353">
        <ele>149.0</ele>
        <time>2022-02-10T10:15:54Z</time>
      </trkpt>
      <trkpt lat="47.55204" lon="1.8344522">
        <ele>148.0</ele>
        <time>2022-02-10T10:15:55Z</time>
      </trkpt>
      <trkpt lat="47.552048" lon="1.8344665">
        <ele>149.0</ele>
        <time>2022-02-10T10:15:56Z</time>
      </trkpt>
      <trkpt lat="47.552055" lon="1.83448">
        <ele>149.0</ele>
        <time>2022-02-10T10:15:57Z</time>
      </trkpt>
      <trkpt lat="47.552067" lon="1.8344918">
        <ele>149.0</ele>
        <time>2022-02-10T10:15:58Z</time>
      </trkpt>
      <trkpt lat="47.552074" lon="1.8345042">
        <ele>149.0</ele>
        <time>2022-02-10T10:15:59Z</time>
      </trkpt>
      <trkpt lat="47.552082" lon="1.834519">
        <ele>149.0</ele>
        <time>2022-02-10T10:16:00Z</time>
      </trkpt>
      <trkpt lat="47.552094" lon="1.8345363">
        <ele>149.0</ele>
        <time>2022-02-10T10:16:01Z</time>
      </trkpt>
      <trkpt lat="47.5521" lon="1.8345534">
        <ele>149.0</ele>
        <time>2022-02-10T10:16:02Z</time>
      </trkpt>
      <trkpt lat="47.552113" lon="1.8345696">
        <ele>149.0</ele>
        <time>2022-02-10T10:16:03Z</time>
      </trkpt>
      <trkpt lat="47.552124" lon="1.8345857">
        <ele>149.0</ele>
        <time>2022-02-10T10:16:04Z</time>
      </trkpt>
      <trkpt lat="47.55213" lon="1.8346003">
        <ele>148.0</ele>
        <time>2022-02-10T10:16:05Z</time>
      </trkpt>
      <trkpt lat="47.55214" lon="1.8346168">
        <ele>148.0</ele>
        <time>2022-02-10T10:16:06Z</time>
      </trkpt>
      <trkpt lat="47.552147" lon="1.8346337">
        <ele>148.0</ele>
        <time>2022-02-10T10:16:07Z</time>
      </trkpt>
      <trkpt lat="47.552155" lon="1.8346422">
        <ele>148.0</ele>
        <time>2022-02-10T10:16:08Z</time>
      </trkpt>
      <trkpt lat="47.55216" lon="1.8346561">
        <ele>148.0</ele>
        <time>2022-02-10T10:16:09Z</time>
      </trkpt>
      <trkpt lat="47.552166" lon="1.8346701">
        <ele>148.0</ele>
        <time>2022-02-10T10:16:10Z</time>
      </trkpt>
      <trkpt lat="47.552174" lon="1.8346845">
        <ele>149.0</ele>
        <time>2022-02-10T10:16:11Z</time>
      </trkpt>
      <trkpt lat="47.552185" lon="1.834699">
        <ele>149.0</ele>
        <time>2022-02-10T10:16:12Z</time>
      </trkpt>
      <trkpt lat="47.552193" lon="1.8347144">
        <ele>148.0</ele>
        <time>2022-02-10T10:16:13Z</time>
      </trkpt>
      <trkpt lat="47.5522" lon="1.8347319">
        <ele>148.0</ele>
        <time>2022-02-10T10:16:14Z</time>
      </trkpt>
      <trkpt lat="47.552204" lon="1.8347471">
        <ele>149.0</ele>
        <time>2022-02-10T10:16:15Z</time>
      </trkpt>
      <trkpt lat="47.552204" lon="1.8347597">
        <ele>149.0</ele>
        <time>2022-02-10T10:16:16Z</time>
      </trkpt>
      <trkpt lat="47.55221" lon="1.8347707">
        <ele>149.0</ele>
        <time>2022-02-10T10:16:17Z</time>
      </trkpt>
      <trkpt lat="47.552216" lon="1.8347858">
        <ele>149.0</ele>
        <time>2022-02-10T10:16:18Z</time>
      </trkpt>
      <trkpt lat="47.552223" lon="1.8347999">
        <ele>149.0</ele>
        <time>2022-02-10T10:16:19Z</time>
      </trkpt>
      <trkpt lat="47.55223" lon="1.8348129">
        <ele>149.0</ele>
        <time>2022-02-10T10:16:20Z</time>
      </trkpt>
      <trkpt lat="47.55224" lon="1.8348296">
        <ele>149.0</ele>
        <time>2022-02-10T10:16:21Z</time>
      </trkpt>
      <trkpt lat="47.552246" lon="1.8348433">
        <ele>149.0</ele>
        <time>2022-02-10T10:16:22Z</time>
      </trkpt>
      <trkpt lat="47.552254" lon="1.8348576">
        <ele>149.0</ele>
        <time>2022-02-10T10:16:23Z</time>
      </trkpt>
      <trkpt lat="47.55226" lon="1.8348694">
        <ele>149.0</ele>
        <time>2022-02-10T10:16:24Z</time>
      </trkpt>
      <trkpt lat="47.55227" lon="1.8348821">
        <ele>149.0</ele>
        <time>2022-02-10T10:16:25Z</time>
      </trkpt>
      <trkpt lat="47.552277" lon="1.8348961">
        <ele>149.0</ele>
        <time>2022-02-10T10:16:26Z</time>
      </trkpt>
      <trkpt lat="47.552284" lon="1.8349125">
        <ele>149.0</ele>
        <time>2022-02-10T10:16:27Z</time>
      </trkpt>
      <trkpt lat="47.55229" lon="1.8349265">
        <ele>149.0</ele>
        <time>2022-02-10T10:16:28Z</time>
      </trkpt>
      <trkpt lat="47.5523" lon="1.8349425">
        <ele>149.0</ele>
        <time>2022-02-10T10:16:29Z</time>
      </trkpt>
      <trkpt lat="47.552307" lon="1.8349603">
        <ele>149.0</ele>
        <time>2022-02-10T10:16:30Z</time>
      </trkpt>
      <trkpt lat="47.552315" lon="1.8349761">
        <ele>150.0</ele>
        <time>2022-02-10T10:16:31Z</time>
      </trkpt>
      <trkpt lat="47.552326" lon="1.8349957">
        <ele>150.0</ele>
        <time>2022-02-10T10:16:32Z</time>
      </trkpt>
      <trkpt lat="47.552334" lon="1.8350166">
        <ele>150.0</ele>
        <time>2022-02-10T10:16:33Z</time>
      </trkpt>
      <trkpt lat="47.55234" lon="1.8350341">
        <ele>150.0</ele>
        <time>2022-02-10T10:16:34Z</time>
      </trkpt>
      <trkpt lat="47.552353" lon="1.8350519">
        <ele>150.0</ele>
        <time>2022-02-10T10:16:35Z</time>
      </trkpt>
      <trkpt lat="47.55236" lon="1.8350703">
        <ele>150.0</ele>
        <time>2022-02-10T10:16:36Z</time>
      </trkpt>
      <trkpt lat="47.552357" lon="1.8350848">
        <ele>151.0</ele>
        <time>2022-02-10T10:16:37Z</time>
      </trkpt>
      <trkpt lat="47.552353" lon="1.8350924">
        <ele>151.0</ele>
        <time>2022-02-10T10:16:38Z</time>
      </trkpt>
      <trkpt lat="47.552353" lon="1.8351032">
        <ele>152.0</ele>
        <time>2022-02-10T10:16:39Z</time>
      </trkpt>
      <trkpt lat="47.55236" lon="1.8351203">
        <ele>152.0</ele>
        <time>2022-02-10T10:16:40Z</time>
      </trkpt>
      <trkpt lat="47.55237" lon="1.8351328">
        <ele>151.0</ele>
        <time>2022-02-10T10:16:41Z</time>
      </trkpt>
      <trkpt lat="47.552376" lon="1.8351492">
        <ele>151.0</ele>
        <time>2022-02-10T10:16:42Z</time>
      </trkpt>
      <trkpt lat="47.552383" lon="1.8351611">
        <ele>152.0</ele>
        <time>2022-02-10T10:16:43Z</time>
      </trkpt>
      <trkpt lat="47.55239" lon="1.8351698">
        <ele>151.0</ele>
        <time>2022-02-10T10:16:44Z</time>
      </trkpt>
      <trkpt lat="47.5524" lon="1.835184">
        <ele>151.0</ele>
        <time>2022-02-10T10:16:45Z</time>
      </trkpt>
      <trkpt lat="47.552406" lon="1.8351941">
        <ele>151.0</ele>
        <time>2022-02-10T10:16:46Z</time>
      </trkpt>
      <trkpt lat="47.55241" lon="1.8352094">
        <ele>150.0</ele>
        <time>2022-02-10T10:16:47Z</time>
      </trkpt>
      <trkpt lat="47.552418" lon="1.8352222">
        <ele>150.0</ele>
        <time>2022-02-10T10:16:48Z</time>
      </trkpt>
      <trkpt lat="47.552425" lon="1.8352381">
        <ele>150.0</ele>
        <time>2022-02-10T10:16:49Z</time>
      </trkpt>
      <trkpt lat="47.552433" lon="1.8352565">
        <ele>150.0</ele>
        <time>2022-02-10T10:16:50Z</time>
      </trkpt>
      <trkpt lat="47.55244" lon="1.835267">
        <ele>149.0</ele>
        <time>2022-02-10T10:16:51Z</time>
      </trkpt>
      <trkpt lat="47.55245" lon="1.8352836">
        <ele>149.0</ele>
        <time>2022-02-10T10:16:52Z</time>
      </trkpt>
      <trkpt lat="47.552456" lon="1.8352962">
        <ele>149.0</ele>
        <time>2022-02-10T10:16:53Z</time>
      </trkpt>
      <trkpt lat="47.552464" lon="1.8353053">
        <ele>149.0</ele>
        <time>2022-02-10T10:16:54Z</time>
      </trkpt>
      <trkpt lat="47.55247" lon="1.8353167">
        <ele>148.0</ele>
        <time>2022-02-10T10:16:55Z</time>
      </trkpt>
      <trkpt lat="47.552483" lon="1.8353298">
        <ele>148.0</ele>
        <time>2022-02-10T10:16:56Z</time>
      </trkpt>
      <trkpt lat="47.552486" lon="1.8353485">
        <ele>148.0</ele>
        <time>2022-02-10T10:16:57Z</time>
      </trkpt>
      <trkpt lat="47.55249" lon="1.8353648">
        <ele>147.0</ele>
        <time>2022-02-10T10:16:58Z</time>
      </trkpt>
      <trkpt lat="47.552494" lon="1.8353877">
        <ele>146.0</ele>
        <time>2022-02-10T10:16:59Z</time>
      </trkpt>
      <trkpt lat="47.552498" lon="1.835406">
        <ele>146.0</ele>
        <time>2022-02-10T10:17:00Z</time>
      </trkpt>
      <trkpt lat="47.5525" lon="1.8354218">
        <ele>145.0</ele>
        <time>2022-02-10T10:17:01Z</time>
      </trkpt>
      <trkpt lat="47.5525" lon="1.8354388">
        <ele>145.0</ele>
        <time>2022-02-10T10:17:02Z</time>
      </trkpt>
      <trkpt lat="47.552498" lon="1.8354629">
        <ele>146.0</ele>
        <time>2022-02-10T10:17:03Z</time>
      </trkpt>
      <trkpt lat="47.552494" lon="1.835485">
        <ele>147.0</ele>
        <time>2022-02-10T10:17:04Z</time>
      </trkpt>
      <trkpt lat="47.55249" lon="1.8355052">
        <ele>147.0</ele>
        <time>2022-02-10T10:17:05Z</time>
      </trkpt>
      <trkpt lat="47.55248" lon="1.835525">
        <ele>148.0</ele>
        <time>2022-02-10T10:17:06Z</time>
      </trkpt>
      <trkpt lat="47.552464" lon="1.835543">
        <ele>148.0</ele>
        <time>2022-02-10T10:17:07Z</time>
      </trkpt>
      <trkpt lat="47.55245" lon="1.8355602">
        <ele>148.0</ele>
        <time>2022-02-10T10:17:08Z</time>
      </trkpt>
      <trkpt lat="47.552437" lon="1.835572">
        <ele>148.0</ele>
        <time>2022-02-10T10:17:09Z</time>
      </trkpt>
      <trkpt lat="47.55243" lon="1.8355823">
        <ele>149.0</ele>
        <time>2022-02-10T10:17:10Z</time>
      </trkpt>
      <trkpt lat="47.552418" lon="1.8355933">
        <ele>149.0</ele>
        <time>2022-02-10T10:17:11Z</time>
      </trkpt>
      <trkpt lat="47.55241" lon="1.8356026">
        <ele>150.0</ele>
        <time>2022-02-10T10:17:12Z</time>
      </trkpt>
      <trkpt lat="47.5524" lon="1.8356111">
        <ele>151.0</ele>
        <time>2022-02-10T10:17:13Z</time>
      </trkpt>
      <trkpt lat="47.552387" lon="1.8356227">
        <ele>151.0</ele>
        <time>2022-02-10T10:17:14Z</time>
      </trkpt>
      <trkpt lat="47.55238" lon="1.835634">
        <ele>152.0</ele>
        <time>2022-02-10T10:17:15Z</time>
      </trkpt>
      <trkpt lat="47.55237" lon="1.8356452">
        <ele>152.0</ele>
        <time>2022-02-10T10:17:16Z</time>
      </trkpt>
      <trkpt lat="47.55236" lon="1.8356538">
        <ele>152.0</ele>
        <time>2022-02-10T10:17:17Z</time>
      </trkpt>
      <trkpt lat="47.55235" lon="1.8356644">
        <ele>153.0</ele>
        <time>2022-02-10T10:17:18Z</time>
      </trkpt>
      <trkpt lat="47.552338" lon="1.8356771">
        <ele>153.0</ele>
        <time>2022-02-10T10:17:19Z</time>
      </trkpt>
      <trkpt lat="47.552326" lon="1.8356858">
        <ele>153.0</ele>
        <time>2022-02-10T10:17:20Z</time>
      </trkpt>
      <trkpt lat="47.55232" lon="1.8356953">
        <ele>154.0</ele>
        <time>2022-02-10T10:17:21Z</time>
      </trkpt>
      <trkpt lat="47.552307" lon="1.8357048">
        <ele>154.0</ele>
        <time>2022-02-10T10:17:22Z</time>
      </trkpt>
      <trkpt lat="47.5523" lon="1.8357097">
        <ele>155.0</ele>
        <time>2022-02-10T10:17:23Z</time>
      </trkpt>
      <trkpt lat="47.552288" lon="1.8357185">
        <ele>155.0</ele>
        <time>2022-02-10T10:17:24Z</time>
      </trkpt>
      <trkpt lat="47.552277" lon="1.8357292">
        <ele>155.0</ele>
        <time>2022-02-10T10:17:25Z</time>
      </trkpt>
      <trkpt lat="47.552265" lon="1.8357382">
        <ele>155.0</ele>
        <time>2022-02-10T10:17:26Z</time>
      </trkpt>
      <trkpt lat="47.552254" lon="1.835743">
        <ele>155.0</ele>
        <time>2022-02-10T10:17:27Z</time>
      </trkpt>
      <trkpt lat="47.552242" lon="1.8357537">
        <ele>155.0</ele>
        <time>2022-02-10T10:17:28Z</time>
      </trkpt>
      <trkpt lat="47.552223" lon="1.8357642">
        <ele>156.0</ele>
        <time>2022-02-10T10:17:29Z</time>
      </trkpt>
      <trkpt lat="47.55221" lon="1.8357736">
        <ele>156.0</ele>
        <time>2022-02-10T10:17:30Z</time>
      </trkpt>
      <trkpt lat="47.552208" lon="1.8357797">
        <ele>156.0</ele>
        <time>2022-02-10T10:17:31Z</time>
      </trkpt>
      <trkpt lat="47.552204" lon="1.8357801">
        <ele>157.0</ele>
        <time>2022-02-10T10:17:32Z</time>
      </trkpt>
      <trkpt lat="47.552193" lon="1.8357892">
        <ele>157.0</ele>
        <time>2022-02-10T10:17:33Z</time>
      </trkpt>
      <trkpt lat="47.552193" lon="1.8357892">
        <ele>157.0</ele>
        <time>2022-02-10T10:17:34Z</time>
      </trkpt>
      <trkpt lat="47.552193" lon="1.8357892">
        <ele>157.0</ele>
        <time>2022-02-10T10:17:35Z</time>
      </trkpt>
      <trkpt lat="47.552174" lon="1.8358072">
        <ele>156.0</ele>
        <time>2022-02-10T10:17:36Z</time>
      </trkpt>
      <trkpt lat="47.55217" lon="1.8358195">
        <ele>156.0</ele>
        <time>2022-02-10T10:17:37Z</time>
      </trkpt>
      <trkpt lat="47.552162" lon="1.8358334">
        <ele>157.0</ele>
        <time>2022-02-10T10:17:38Z</time>
      </trkpt>
      <trkpt lat="47.55216" lon="1.8358424">
        <ele>157.0</ele>
        <time>2022-02-10T10:17:39Z</time>
      </trkpt>
      <trkpt lat="47.55216" lon="1.8358424">
        <ele>157.0</ele>
        <time>2022-02-10T10:17:40Z</time>
      </trkpt>
      <trkpt lat="47.55216" lon="1.8358424">
        <ele>157.0</ele>
        <time>2022-02-10T10:17:41Z</time>
      </trkpt>
      <trkpt lat="47.552135" lon="1.8358647">
        <ele>157.0</ele>
        <time>2022-02-10T10:17:42Z</time>
      </trkpt>
      <trkpt lat="47.552128" lon="1.8358697">
        <ele>157.0</ele>
        <time>2022-02-10T10:17:43Z</time>
      </trkpt>
      <trkpt lat="47.55212" lon="1.8358767">
        <ele>157.0</ele>
        <time>2022-02-10T10:17:44Z</time>
      </trkpt>
      <trkpt lat="47.55211" lon="1.8358841">
        <ele>156.0</ele>
        <time>2022-02-10T10:17:45Z</time>
      </trkpt>
      <trkpt lat="47.552097" lon="1.8358914">
        <ele>156.0</ele>
        <time>2022-02-10T10:17:46Z</time>
      </trkpt>
      <trkpt lat="47.552086" lon="1.8359014">
        <ele>156.0</ele>
        <time>2022-02-10T10:17:47Z</time>
      </trkpt>
      <trkpt lat="47.552074" lon="1.8359103">
        <ele>156.0</ele>
        <time>2022-02-10T10:17:48Z</time>
      </trkpt>
      <trkpt lat="47.552067" lon="1.8359184">
        <ele>156.0</ele>
        <time>2022-02-10T10:17:49Z</time>
      </trkpt>
      <trkpt lat="47.552055" lon="1.8359284">
        <ele>156.0</ele>
        <time>2022-02-10T10:17:50Z</time>
      </trkpt>
      <trkpt lat="47.552044" lon="1.8359405">
        <ele>156.0</ele>
        <time>2022-02-10T10:17:51Z</time>
      </trkpt>
      <trkpt lat="47.552032" lon="1.8359549">
        <ele>156.0</ele>
        <time>2022-02-10T10:17:52Z</time>
      </trkpt>
      <trkpt lat="47.552017" lon="1.8359708">
        <ele>156.0</ele>
        <time>2022-02-10T10:17:53Z</time>
      </trkpt>
      <trkpt lat="47.552006" lon="1.8359812">
        <ele>155.0</ele>
        <time>2022-02-10T10:17:54Z</time>
      </trkpt>
      <trkpt lat="47.55199" lon="1.8359936">
        <ele>155.0</ele>
        <time>2022-02-10T10:17:55Z</time>
      </trkpt>
      <trkpt lat="47.551975" lon="1.8360035">
        <ele>156.0</ele>
        <time>2022-02-10T10:17:56Z</time>
      </trkpt>
      <trkpt lat="47.55196" lon="1.8360112">
        <ele>156.0</ele>
        <time>2022-02-10T10:17:57Z</time>
      </trkpt>
      <trkpt lat="47.55195" lon="1.8360194">
        <ele>156.0</ele>
        <time>2022-02-10T10:17:58Z</time>
      </trkpt>
      <trkpt lat="47.551937" lon="1.8360333">
        <ele>156.0</ele>
        <time>2022-02-10T10:17:59Z</time>
      </trkpt>
      <trkpt lat="47.551926" lon="1.8360426">
        <ele>156.0</ele>
        <time>2022-02-10T10:18:00Z</time>
      </trkpt>
      <trkpt lat="47.551914" lon="1.8360507">
        <ele>156.0</ele>
        <time>2022-02-10T10:18:01Z</time>
      </trkpt>
      <trkpt lat="47.551903" lon="1.8360645">
        <ele>156.0</ele>
        <time>2022-02-10T10:18:02Z</time>
      </trkpt>
      <trkpt lat="47.55189" lon="1.8360758">
        <ele>156.0</ele>
        <time>2022-02-10T10:18:03Z</time>
      </trkpt>
      <trkpt lat="47.55188" lon="1.8360846">
        <ele>156.0</ele>
        <time>2022-02-10T10:18:04Z</time>
      </trkpt>
      <trkpt lat="47.551865" lon="1.8360984">
        <ele>156.0</ele>
        <time>2022-02-10T10:18:05Z</time>
      </trkpt>
      <trkpt lat="47.551853" lon="1.8361094">
        <ele>156.0</ele>
        <time>2022-02-10T10:18:06Z</time>
      </trkpt>
      <trkpt lat="47.55184" lon="1.8361199">
        <ele>156.0</ele>
        <time>2022-02-10T10:18:07Z</time>
      </trkpt>
      <trkpt lat="47.55183" lon="1.8361261">
        <ele>156.0</ele>
        <time>2022-02-10T10:18:08Z</time>
      </trkpt>
      <trkpt lat="47.55182" lon="1.8361328">
        <ele>155.0</ele>
        <time>2022-02-10T10:18:09Z</time>
      </trkpt>
      <trkpt lat="47.551807" lon="1.836143">
        <ele>155.0</ele>
        <time>2022-02-10T10:18:10Z</time>
      </trkpt>
      <trkpt lat="47.5518" lon="1.836155">
        <ele>155.0</ele>
        <time>2022-02-10T10:18:11Z</time>
      </trkpt>
      <trkpt lat="47.55179" lon="1.8361661">
        <ele>155.0</ele>
        <time>2022-02-10T10:18:12Z</time>
      </trkpt>
      <trkpt lat="47.551777" lon="1.8361763">
        <ele>154.0</ele>
        <time>2022-02-10T10:18:13Z</time>
      </trkpt>
      <trkpt lat="47.551765" lon="1.8361886">
        <ele>154.0</ele>
        <time>2022-02-10T10:18:14Z</time>
      </trkpt>
      <trkpt lat="47.55175" lon="1.8361984">
        <ele>154.0</ele>
        <time>2022-02-10T10:18:15Z</time>
      </trkpt>
      <trkpt lat="47.55174" lon="1.8362082">
        <ele>155.0</ele>
        <time>2022-02-10T10:18:16Z</time>
      </trkpt>
      <trkpt lat="47.55173" lon="1.8362136">
        <ele>155.0</ele>
        <time>2022-02-10T10:18:17Z</time>
      </trkpt>
      <trkpt lat="47.55172" lon="1.8362241">
        <ele>155.0</ele>
        <time>2022-02-10T10:18:18Z</time>
      </trkpt>
      <trkpt lat="47.55171" lon="1.8362342">
        <ele>155.0</ele>
        <time>2022-02-10T10:18:19Z</time>
      </trkpt>
      <trkpt lat="47.5517" lon="1.8362443">
        <ele>155.0</ele>
        <time>2022-02-10T10:18:20Z</time>
      </trkpt>
      <trkpt lat="47.55169" lon="1.8362589">
        <ele>155.0</ele>
        <time>2022-02-10T10:18:21Z</time>
      </trkpt>
      <trkpt lat="47.551674" lon="1.8362753">
        <ele>156.0</ele>
        <time>2022-02-10T10:18:22Z</time>
      </trkpt>
      <trkpt lat="47.551662" lon="1.8362898">
        <ele>156.0</ele>
        <time>2022-02-10T10:18:23Z</time>
      </trkpt>
      <trkpt lat="47.551655" lon="1.8363003">
        <ele>156.0</ele>
        <time>2022-02-10T10:18:24Z</time>
      </trkpt>
      <trkpt lat="47.551647" lon="1.8363081">
        <ele>156.0</ele>
        <time>2022-02-10T10:18:25Z</time>
      </trkpt>
      <trkpt lat="47.551636" lon="1.8363155">
        <ele>157.0</ele>
        <time>2022-02-10T10:18:26Z</time>
      </trkpt>
      <trkpt lat="47.55163" lon="1.8363255">
        <ele>157.0</ele>
        <time>2022-02-10T10:18:27Z</time>
      </trkpt>
      <trkpt lat="47.55162" lon="1.8363327">
        <ele>157.0</ele>
        <time>2022-02-10T10:18:28Z</time>
      </trkpt>
      <trkpt lat="47.551613" lon="1.8363401">
        <ele>157.0</ele>
        <time>2022-02-10T10:18:29Z</time>
      </trkpt>
      <trkpt lat="47.5516" lon="1.836347">
        <ele>157.0</ele>
        <time>2022-02-10T10:18:30Z</time>
      </trkpt>
      <trkpt lat="47.551594" lon="1.836357">
        <ele>157.0</ele>
        <time>2022-02-10T10:18:31Z</time>
      </trkpt>
      <trkpt lat="47.551586" lon="1.8363721">
        <ele>157.0</ele>
        <time>2022-02-10T10:18:32Z</time>
      </trkpt>
      <trkpt lat="47.551575" lon="1.8363802">
        <ele>158.0</ele>
        <time>2022-02-10T10:18:33Z</time>
      </trkpt>
      <trkpt lat="47.551567" lon="1.836394">
        <ele>158.0</ele>
        <time>2022-02-10T10:18:34Z</time>
      </trkpt>
      <trkpt lat="47.551556" lon="1.8364024">
        <ele>158.0</ele>
        <time>2022-02-10T10:18:35Z</time>
      </trkpt>
      <trkpt lat="47.551544" lon="1.8364131">
        <ele>158.0</ele>
        <time>2022-02-10T10:18:36Z</time>
      </trkpt>
      <trkpt lat="47.551533" lon="1.83642">
        <ele>158.0</ele>
        <time>2022-02-10T10:18:37Z</time>
      </trkpt>
      <trkpt lat="47.55152" lon="1.836428">
        <ele>158.0</ele>
        <time>2022-02-10T10:18:38Z</time>
      </trkpt>
      <trkpt lat="47.551514" lon="1.8364335">
        <ele>158.0</ele>
        <time>2022-02-10T10:18:39Z</time>
      </trkpt>
      <trkpt lat="47.551502" lon="1.8364433">
        <ele>158.0</ele>
        <time>2022-02-10T10:18:40Z</time>
      </trkpt>
      <trkpt lat="47.55149" lon="1.8364494">
        <ele>158.0</ele>
        <time>2022-02-10T10:18:41Z</time>
      </trkpt>
      <trkpt lat="47.551483" lon="1.8364598">
        <ele>158.0</ele>
        <time>2022-02-10T10:18:42Z</time>
      </trkpt>
      <trkpt lat="47.551468" lon="1.8364686">
        <ele>157.0</ele>
        <time>2022-02-10T10:18:43Z</time>
      </trkpt>
      <trkpt lat="47.551456" lon="1.8364787">
        <ele>157.0</ele>
        <time>2022-02-10T10:18:44Z</time>
      </trkpt>
      <trkpt lat="47.551445" lon="1.836489">
        <ele>157.0</ele>
        <time>2022-02-10T10:18:45Z</time>
      </trkpt>
      <trkpt lat="47.551437" lon="1.8364996">
        <ele>157.0</ele>
        <time>2022-02-10T10:18:46Z</time>
      </trkpt>
      <trkpt lat="47.551426" lon="1.8365084">
        <ele>157.0</ele>
        <time>2022-02-10T10:18:47Z</time>
      </trkpt>
      <trkpt lat="47.55142" lon="1.8365166">
        <ele>156.0</ele>
        <time>2022-02-10T10:18:48Z</time>
      </trkpt>
      <trkpt lat="47.551407" lon="1.8365265">
        <ele>157.0</ele>
        <time>2022-02-10T10:18:49Z</time>
      </trkpt>
      <trkpt lat="47.5514" lon="1.8365375">
        <ele>157.0</ele>
        <time>2022-02-10T10:18:50Z</time>
      </trkpt>
      <trkpt lat="47.551388" lon="1.8365457">
        <ele>157.0</ele>
        <time>2022-02-10T10:18:51Z</time>
      </trkpt>
      <trkpt lat="47.551373" lon="1.8365544">
        <ele>156.0</ele>
        <time>2022-02-10T10:18:52Z</time>
      </trkpt>
      <trkpt lat="47.55136" lon="1.8365635">
        <ele>156.0</ele>
        <time>2022-02-10T10:18:53Z</time>
      </trkpt>
      <trkpt lat="47.55135" lon="1.8365719">
        <ele>156.0</ele>
        <time>2022-02-10T10:18:54Z</time>
      </trkpt>
      <trkpt lat="47.55134" lon="1.8365827">
        <ele>156.0</ele>
        <time>2022-02-10T10:18:55Z</time>
      </trkpt>
      <trkpt lat="47.55133" lon="1.836593">
        <ele>156.0</ele>
        <time>2022-02-10T10:18:56Z</time>
      </trkpt>
      <trkpt lat="47.551323" lon="1.8366002">
        <ele>156.0</ele>
        <time>2022-02-10T10:18:57Z</time>
      </trkpt>
      <trkpt lat="47.551315" lon="1.836605">
        <ele>157.0</ele>
        <time>2022-02-10T10:18:58Z</time>
      </trkpt>
      <trkpt lat="47.551304" lon="1.8366073">
        <ele>157.0</ele>
        <time>2022-02-10T10:18:59Z</time>
      </trkpt>
      <trkpt lat="47.551292" lon="1.8366169">
        <ele>157.0</ele>
        <time>2022-02-10T10:19:00Z</time>
      </trkpt>
      <trkpt lat="47.55128" lon="1.8366262">
        <ele>157.0</ele>
        <time>2022-02-10T10:19:01Z</time>
      </trkpt>
      <trkpt lat="47.55127" lon="1.836634">
        <ele>157.0</ele>
        <time>2022-02-10T10:19:02Z</time>
      </trkpt>
      <trkpt lat="47.55126" lon="1.8366448">
        <ele>157.0</ele>
        <time>2022-02-10T10:19:03Z</time>
      </trkpt>
      <trkpt lat="47.551254" lon="1.8366529">
        <ele>157.0</ele>
        <time>2022-02-10T10:19:04Z</time>
      </trkpt>
      <trkpt lat="47.551243" lon="1.8366554">
        <ele>157.0</ele>
        <time>2022-02-10T10:19:05Z</time>
      </trkpt>
      <trkpt lat="47.551235" lon="1.8366618">
        <ele>157.0</ele>
        <time>2022-02-10T10:19:06Z</time>
      </trkpt>
      <trkpt lat="47.551224" lon="1.8366712">
        <ele>157.0</ele>
        <time>2022-02-10T10:19:07Z</time>
      </trkpt>
      <trkpt lat="47.551216" lon="1.8366809">
        <ele>157.0</ele>
        <time>2022-02-10T10:19:08Z</time>
      </trkpt>
      <trkpt lat="47.551212" lon="1.8366892">
        <ele>157.0</ele>
        <time>2022-02-10T10:19:09Z</time>
      </trkpt>
      <trkpt lat="47.55121" lon="1.8366954">
        <ele>157.0</ele>
        <time>2022-02-10T10:19:10Z</time>
      </trkpt>
      <trkpt lat="47.5512" lon="1.8367012">
        <ele>156.0</ele>
        <time>2022-02-10T10:19:11Z</time>
      </trkpt>
      <trkpt lat="47.551193" lon="1.8367095">
        <ele>156.0</ele>
        <time>2022-02-10T10:19:12Z</time>
      </trkpt>
      <trkpt lat="47.55118" lon="1.8367169">
        <ele>155.0</ele>
        <time>2022-02-10T10:19:13Z</time>
      </trkpt>
      <trkpt lat="47.551174" lon="1.8367195">
        <ele>155.0</ele>
        <time>2022-02-10T10:19:14Z</time>
      </trkpt>
      <trkpt lat="47.551174" lon="1.8367195">
        <ele>155.0</ele>
        <time>2022-02-10T10:19:15Z</time>
      </trkpt>
      <trkpt lat="47.551174" lon="1.8367195">
        <ele>155.0</ele>
        <time>2022-02-10T10:19:16Z</time>
      </trkpt>
      <trkpt lat="47.551147" lon="1.8367363">
        <ele>155.0</ele>
        <time>2022-02-10T10:19:17Z</time>
      </trkpt>
      <trkpt lat="47.551132" lon="1.836741">
        <ele>154.0</ele>
        <time>2022-02-10T10:19:18Z</time>
      </trkpt>
      <trkpt lat="47.55112" lon="1.8367484">
        <ele>155.0</ele>
        <time>2022-02-10T10:19:19Z</time>
      </trkpt>
      <trkpt lat="47.55111" lon="1.8367562">
        <ele>155.0</ele>
        <time>2022-02-10T10:19:20Z</time>
      </trkpt>
      <trkpt lat="47.551098" lon="1.8367696">
        <ele>155.0</ele>
        <time>2022-02-10T10:19:21Z</time>
      </trkpt>
      <trkpt lat="47.551086" lon="1.8367786">
        <ele>155.0</ele>
        <time>2022-02-10T10:19:22Z</time>
      </trkpt>
      <trkpt lat="47.55108" lon="1.8367864">
        <ele>155.0</ele>
        <time>2022-02-10T10:19:23Z</time>
      </trkpt>
      <trkpt lat="47.551067" lon="1.836797">
        <ele>155.0</ele>
        <time>2022-02-10T10:19:24Z</time>
      </trkpt>
      <trkpt lat="47.551056" lon="1.8368034">
        <ele>156.0</ele>
        <time>2022-02-10T10:19:25Z</time>
      </trkpt>
      <trkpt lat="47.551044" lon="1.8368134">
        <ele>156.0</ele>
        <time>2022-02-10T10:19:26Z</time>
      </trkpt>
      <trkpt lat="47.551033" lon="1.8368202">
        <ele>156.0</ele>
        <time>2022-02-10T10:19:27Z</time>
      </trkpt>
      <trkpt lat="47.551025" lon="1.8368273">
        <ele>156.0</ele>
        <time>2022-02-10T10:19:28Z</time>
      </trkpt>
      <trkpt lat="47.551014" lon="1.8368355">
        <ele>156.0</ele>
        <time>2022-02-10T10:19:29Z</time>
      </trkpt>
      <trkpt lat="47.551006" lon="1.8368452">
        <ele>156.0</ele>
        <time>2022-02-10T10:19:30Z</time>
      </trkpt>
      <trkpt lat="47.551" lon="1.8368531">
        <ele>156.0</ele>
        <time>2022-02-10T10:19:31Z</time>
      </trkpt>
      <trkpt lat="47.55099" lon="1.8368593">
        <ele>156.0</ele>
        <time>2022-02-10T10:19:32Z</time>
      </trkpt>
      <trkpt lat="47.550987" lon="1.8368704">
        <ele>155.0</ele>
        <time>2022-02-10T10:19:33Z</time>
      </trkpt>
      <trkpt lat="47.55098" lon="1.8368812">
        <ele>155.0</ele>
        <time>2022-02-10T10:19:34Z</time>
      </trkpt>
      <trkpt lat="47.55097" lon="1.8368932">
        <ele>155.0</ele>
        <time>2022-02-10T10:19:35Z</time>
      </trkpt>
      <trkpt lat="47.55096" lon="1.8369056">
        <ele>156.0</ele>
        <time>2022-02-10T10:19:36Z</time>
      </trkpt>
      <trkpt lat="47.55095" lon="1.8369217">
        <ele>155.0</ele>
        <time>2022-02-10T10:19:37Z</time>
      </trkpt>
      <trkpt lat="47.550938" lon="1.8369352">
        <ele>155.0</ele>
        <time>2022-02-10T10:19:38Z</time>
      </trkpt>
      <trkpt lat="47.550926" lon="1.8369459">
        <ele>156.0</ele>
        <time>2022-02-10T10:19:39Z</time>
      </trkpt>
      <trkpt lat="47.55092" lon="1.836953">
        <ele>156.0</ele>
        <time>2022-02-10T10:19:40Z</time>
      </trkpt>
      <trkpt lat="47.550907" lon="1.8369573">
        <ele>156.0</ele>
        <time>2022-02-10T10:19:41Z</time>
      </trkpt>
      <trkpt lat="47.5509" lon="1.8369602">
        <ele>156.0</ele>
        <time>2022-02-10T10:19:42Z</time>
      </trkpt>
      <trkpt lat="47.550888" lon="1.8369708">
        <ele>156.0</ele>
        <time>2022-02-10T10:19:43Z</time>
      </trkpt>
      <trkpt lat="47.550873" lon="1.836981">
        <ele>157.0</ele>
        <time>2022-02-10T10:19:44Z</time>
      </trkpt>
      <trkpt lat="47.55086" lon="1.8369931">
        <ele>157.0</ele>
        <time>2022-02-10T10:19:45Z</time>
      </trkpt>
      <trkpt lat="47.550854" lon="1.8370068">
        <ele>157.0</ele>
        <time>2022-02-10T10:19:46Z</time>
      </trkpt>
      <trkpt lat="47.550842" lon="1.8370149">
        <ele>156.0</ele>
        <time>2022-02-10T10:19:47Z</time>
      </trkpt>
      <trkpt lat="47.55083" lon="1.8370188">
        <ele>156.0</ele>
        <time>2022-02-10T10:19:48Z</time>
      </trkpt>
      <trkpt lat="47.550823" lon="1.8370262">
        <ele>155.0</ele>
        <time>2022-02-10T10:19:49Z</time>
      </trkpt>
      <trkpt lat="47.55081" lon="1.8370308">
        <ele>156.0</ele>
        <time>2022-02-10T10:19:50Z</time>
      </trkpt>
      <trkpt lat="47.5508" lon="1.837035">
        <ele>156.0</ele>
        <time>2022-02-10T10:19:51Z</time>
      </trkpt>
      <trkpt lat="47.550793" lon="1.8370425">
        <ele>156.0</ele>
        <time>2022-02-10T10:19:52Z</time>
      </trkpt>
      <trkpt lat="47.550785" lon="1.8370433">
        <ele>155.0</ele>
        <time>2022-02-10T10:19:53Z</time>
      </trkpt>
      <trkpt lat="47.550777" lon="1.8370467">
        <ele>155.0</ele>
        <time>2022-02-10T10:19:54Z</time>
      </trkpt>
      <trkpt lat="47.550766" lon="1.8370514">
        <ele>155.0</ele>
        <time>2022-02-10T10:19:55Z</time>
      </trkpt>
      <trkpt lat="47.55076" lon="1.8370619">
        <ele>155.0</ele>
        <time>2022-02-10T10:19:56Z</time>
      </trkpt>
      <trkpt lat="47.55075" lon="1.8370755">
        <ele>155.0</ele>
        <time>2022-02-10T10:19:57Z</time>
      </trkpt>
      <trkpt lat="47.550743" lon="1.837088">
        <ele>155.0</ele>
        <time>2022-02-10T10:19:58Z</time>
      </trkpt>
      <trkpt lat="47.550735" lon="1.8371053">
        <ele>155.0</ele>
        <time>2022-02-10T10:19:59Z</time>
      </trkpt>
      <trkpt lat="47.55072" lon="1.8371168">
        <ele>156.0</ele>
        <time>2022-02-10T10:20:00Z</time>
      </trkpt>
      <trkpt lat="47.550705" lon="1.8371309">
        <ele>156.0</ele>
        <time>2022-02-10T10:20:01Z</time>
      </trkpt>
      <trkpt lat="47.550694" lon="1.8371435">
        <ele>156.0</ele>
        <time>2022-02-10T10:20:02Z</time>
      </trkpt>
      <trkpt lat="47.550682" lon="1.8371589">
        <ele>157.0</ele>
        <time>2022-02-10T10:20:03Z</time>
      </trkpt>
      <trkpt lat="47.550674" lon="1.8371773">
        <ele>157.0</ele>
        <time>2022-02-10T10:20:04Z</time>
      </trkpt>
      <trkpt lat="47.550663" lon="1.8371842">
        <ele>157.0</ele>
        <time>2022-02-10T10:20:05Z</time>
      </trkpt>
      <trkpt lat="47.55065" lon="1.8371953">
        <ele>157.0</ele>
        <time>2022-02-10T10:20:06Z</time>
      </trkpt>
      <trkpt lat="47.550636" lon="1.8372077">
        <ele>157.0</ele>
        <time>2022-02-10T10:20:07Z</time>
      </trkpt>
      <trkpt lat="47.550625" lon="1.8372153">
        <ele>157.0</ele>
        <time>2022-02-10T10:20:08Z</time>
      </trkpt>
      <trkpt lat="47.55062" lon="1.8372217">
        <ele>157.0</ele>
        <time>2022-02-10T10:20:09Z</time>
      </trkpt>
      <trkpt lat="47.550613" lon="1.8372282">
        <ele>157.0</ele>
        <time>2022-02-10T10:20:10Z</time>
      </trkpt>
      <trkpt lat="47.550602" lon="1.8372351">
        <ele>157.0</ele>
        <time>2022-02-10T10:20:11Z</time>
      </trkpt>
      <trkpt lat="47.550587" lon="1.8372495">
        <ele>157.0</ele>
        <time>2022-02-10T10:20:12Z</time>
      </trkpt>
      <trkpt lat="47.55057" lon="1.8372599">
        <ele>157.0</ele>
        <time>2022-02-10T10:20:13Z</time>
      </trkpt>
      <trkpt lat="47.550564" lon="1.8372701">
        <ele>157.0</ele>
        <time>2022-02-10T10:20:14Z</time>
      </trkpt>
      <trkpt lat="47.550552" lon="1.8372793">
        <ele>157.0</ele>
        <time>2022-02-10T10:20:15Z</time>
      </trkpt>
      <trkpt lat="47.550545" lon="1.8372884">
        <ele>157.0</ele>
        <time>2022-02-10T10:20:16Z</time>
      </trkpt>
      <trkpt lat="47.550533" lon="1.8372968">
        <ele>157.0</ele>
        <time>2022-02-10T10:20:17Z</time>
      </trkpt>
      <trkpt lat="47.550526" lon="1.8373097">
        <ele>156.0</ele>
        <time>2022-02-10T10:20:18Z</time>
      </trkpt>
      <trkpt lat="47.550514" lon="1.8373195">
        <ele>156.0</ele>
        <time>2022-02-10T10:20:19Z</time>
      </trkpt>
      <trkpt lat="47.550507" lon="1.8373331">
        <ele>157.0</ele>
        <time>2022-02-10T10:20:20Z</time>
      </trkpt>
      <trkpt lat="47.550495" lon="1.837343">
        <ele>157.0</ele>
        <time>2022-02-10T10:20:21Z</time>
      </trkpt>
      <trkpt lat="47.550484" lon="1.8373536">
        <ele>157.0</ele>
        <time>2022-02-10T10:20:22Z</time>
      </trkpt>
      <trkpt lat="47.550472" lon="1.8373631">
        <ele>157.0</ele>
        <time>2022-02-10T10:20:23Z</time>
      </trkpt>
      <trkpt lat="47.550457" lon="1.8373735">
        <ele>157.0</ele>
        <time>2022-02-10T10:20:24Z</time>
      </trkpt>
      <trkpt lat="47.550446" lon="1.8373839">
        <ele>158.0</ele>
        <time>2022-02-10T10:20:25Z</time>
      </trkpt>
      <trkpt lat="47.550438" lon="1.8373976">
        <ele>157.0</ele>
        <time>2022-02-10T10:20:26Z</time>
      </trkpt>
      <trkpt lat="47.550426" lon="1.8374045">
        <ele>157.0</ele>
        <time>2022-02-10T10:20:27Z</time>
      </trkpt>
      <trkpt lat="47.55042" lon="1.8374109">
        <ele>156.0</ele>
        <time>2022-02-10T10:20:28Z</time>
      </trkpt>
      <trkpt lat="47.55041" lon="1.8374208">
        <ele>157.0</ele>
        <time>2022-02-10T10:20:29Z</time>
      </trkpt>
      <trkpt lat="47.5504" lon="1.8374352">
        <ele>157.0</ele>
        <time>2022-02-10T10:20:30Z</time>
      </trkpt>
      <trkpt lat="47.550392" lon="1.8374468">
        <ele>157.0</ele>
        <time>2022-02-10T10:20:31Z</time>
      </trkpt>
      <trkpt lat="47.55038" lon="1.8374556">
        <ele>157.0</ele>
        <time>2022-02-10T10:20:32Z</time>
      </trkpt>
      <trkpt lat="47.550373" lon="1.8374647">
        <ele>157.0</ele>
        <time>2022-02-10T10:20:33Z</time>
      </trkpt>
      <trkpt lat="47.550365" lon="1.8374767">
        <ele>158.0</ele>
        <time>2022-02-10T10:20:34Z</time>
      </trkpt>
      <trkpt lat="47.550354" lon="1.8374838">
        <ele>158.0</ele>
        <time>2022-02-10T10:20:35Z</time>
      </trkpt>
      <trkpt lat="47.550343" lon="1.8374918">
        <ele>158.0</ele>
        <time>2022-02-10T10:20:36Z</time>
      </trkpt>
      <trkpt lat="47.55033" lon="1.8375007">
        <ele>158.0</ele>
        <time>2022-02-10T10:20:37Z</time>
      </trkpt>
      <trkpt lat="47.55032" lon="1.8375063">
        <ele>159.0</ele>
        <time>2022-02-10T10:20:38Z</time>
      </trkpt>
      <trkpt lat="47.55031" lon="1.8375144">
        <ele>159.0</ele>
        <time>2022-02-10T10:20:39Z</time>
      </trkpt>
      <trkpt lat="47.550297" lon="1.8375205">
        <ele>159.0</ele>
        <time>2022-02-10T10:20:40Z</time>
      </trkpt>
      <trkpt lat="47.550285" lon="1.8375312">
        <ele>158.0</ele>
        <time>2022-02-10T10:20:41Z</time>
      </trkpt>
      <trkpt lat="47.550278" lon="1.8375388">
        <ele>158.0</ele>
        <time>2022-02-10T10:20:42Z</time>
      </trkpt>
      <trkpt lat="47.550266" lon="1.8375467">
        <ele>158.0</ele>
        <time>2022-02-10T10:20:43Z</time>
      </trkpt>
      <trkpt lat="47.55026" lon="1.837555">
        <ele>158.0</ele>
        <time>2022-02-10T10:20:44Z</time>
      </trkpt>
      <trkpt lat="47.550247" lon="1.8375663">
        <ele>158.0</ele>
        <time>2022-02-10T10:20:45Z</time>
      </trkpt>
      <trkpt lat="47.55024" lon="1.8375801">
        <ele>158.0</ele>
        <time>2022-02-10T10:20:46Z</time>
      </trkpt>
      <trkpt lat="47.550232" lon="1.8375894">
        <ele>158.0</ele>
        <time>2022-02-10T10:20:47Z</time>
      </trkpt>
      <trkpt lat="47.550224" lon="1.8375955">
        <ele>158.0</ele>
        <time>2022-02-10T10:20:48Z</time>
      </trkpt>
      <trkpt lat="47.550217" lon="1.8376118">
        <ele>157.0</ele>
        <time>2022-02-10T10:20:49Z</time>
      </trkpt>
      <trkpt lat="47.55021" lon="1.8376237">
        <ele>158.0</ele>
        <time>2022-02-10T10:20:50Z</time>
      </trkpt>
      <trkpt lat="47.550194" lon="1.8376335">
        <ele>158.0</ele>
        <time>2022-02-10T10:20:51Z</time>
      </trkpt>
      <trkpt lat="47.550186" lon="1.8376467">
        <ele>158.0</ele>
        <time>2022-02-10T10:20:52Z</time>
      </trkpt>
      <trkpt lat="47.55018" lon="1.8376563">
        <ele>158.0</ele>
        <time>2022-02-10T10:20:53Z</time>
      </trkpt>
      <trkpt lat="47.55017" lon="1.8376665">
        <ele>159.0</ele>
        <time>2022-02-10T10:20:54Z</time>
      </trkpt>
      <trkpt lat="47.55016" lon="1.8376755">
        <ele>158.0</ele>
        <time>2022-02-10T10:20:55Z</time>
      </trkpt>
      <trkpt lat="47.550144" lon="1.8376838">
        <ele>158.0</ele>
        <time>2022-02-10T10:20:56Z</time>
      </trkpt>
      <trkpt lat="47.550137" lon="1.8376898">
        <ele>158.0</ele>
        <time>2022-02-10T10:20:57Z</time>
      </trkpt>
      <trkpt lat="47.550125" lon="1.8376945">
        <ele>158.0</ele>
        <time>2022-02-10T10:20:58Z</time>
      </trkpt>
      <trkpt lat="47.550117" lon="1.8377032">
        <ele>158.0</ele>
        <time>2022-02-10T10:20:59Z</time>
      </trkpt>
      <trkpt lat="47.550106" lon="1.8377087">
        <ele>158.0</ele>
        <time>2022-02-10T10:21:00Z</time>
      </trkpt>
      <trkpt lat="47.5501" lon="1.8377109">
        <ele>158.0</ele>
        <time>2022-02-10T10:21:01Z</time>
      </trkpt>
      <trkpt lat="47.550087" lon="1.837714">
        <ele>158.0</ele>
        <time>2022-02-10T10:21:02Z</time>
      </trkpt>
      <trkpt lat="47.55007" lon="1.8377225">
        <ele>158.0</ele>
        <time>2022-02-10T10:21:03Z</time>
      </trkpt>
      <trkpt lat="47.55006" lon="1.8377303">
        <ele>158.0</ele>
        <time>2022-02-10T10:21:04Z</time>
      </trkpt>
      <trkpt lat="47.550045" lon="1.8377385">
        <ele>157.0</ele>
        <time>2022-02-10T10:21:05Z</time>
      </trkpt>
      <trkpt lat="47.550037" lon="1.8377453">
        <ele>157.0</ele>
        <time>2022-02-10T10:21:06Z</time>
      </trkpt>
      <trkpt lat="47.55003" lon="1.8377516">
        <ele>157.0</ele>
        <time>2022-02-10T10:21:07Z</time>
      </trkpt>
      <trkpt lat="47.55002" lon="1.8377572">
        <ele>157.0</ele>
        <time>2022-02-10T10:21:08Z</time>
      </trkpt>
      <trkpt lat="47.550007" lon="1.8377591">
        <ele>158.0</ele>
        <time>2022-02-10T10:21:09Z</time>
      </trkpt>
      <trkpt lat="47.549995" lon="1.8377608">
        <ele>157.0</ele>
        <time>2022-02-10T10:21:10Z</time>
      </trkpt>
      <trkpt lat="47.549984" lon="1.8377644">
        <ele>156.0</ele>
        <time>2022-02-10T10:21:11Z</time>
      </trkpt>
      <trkpt lat="47.54997" lon="1.8377699">
        <ele>157.0</ele>
        <time>2022-02-10T10:21:12Z</time>
      </trkpt>
      <trkpt lat="47.549957" lon="1.8377744">
        <ele>156.0</ele>
        <time>2022-02-10T10:21:13Z</time>
      </trkpt>
      <trkpt lat="47.549946" lon="1.8377762">
        <ele>156.0</ele>
        <time>2022-02-10T10:21:14Z</time>
      </trkpt>
      <trkpt lat="47.549934" lon="1.8377825">
        <ele>157.0</ele>
        <time>2022-02-10T10:21:15Z</time>
      </trkpt>
      <trkpt lat="47.549923" lon="1.837785">
        <ele>156.0</ele>
        <time>2022-02-10T10:21:16Z</time>
      </trkpt>
      <trkpt lat="47.549908" lon="1.8377923">
        <ele>156.0</ele>
        <time>2022-02-10T10:21:17Z</time>
      </trkpt>
      <trkpt lat="47.549892" lon="1.8377967">
        <ele>156.0</ele>
        <time>2022-02-10T10:21:18Z</time>
      </trkpt>
      <trkpt lat="47.54988" lon="1.8378017">
        <ele>156.0</ele>
        <time>2022-02-10T10:21:19Z</time>
      </trkpt>
      <trkpt lat="47.549862" lon="1.8378023">
        <ele>157.0</ele>
        <time>2022-02-10T10:21:20Z</time>
      </trkpt>
      <trkpt lat="47.549847" lon="1.8378018">
        <ele>157.0</ele>
        <time>2022-02-10T10:21:21Z</time>
      </trkpt>
      <trkpt lat="47.54983" lon="1.837799">
        <ele>157.0</ele>
        <time>2022-02-10T10:21:22Z</time>
      </trkpt>
      <trkpt lat="47.549816" lon="1.8377998">
        <ele>156.0</ele>
        <time>2022-02-10T10:21:23Z</time>
      </trkpt>
      <trkpt lat="47.549805" lon="1.837798">
        <ele>156.0</ele>
        <time>2022-02-10T10:21:24Z</time>
      </trkpt>
      <trkpt lat="47.54979" lon="1.8377964">
        <ele>156.0</ele>
        <time>2022-02-10T10:21:25Z</time>
      </trkpt>
      <trkpt lat="47.549774" lon="1.8377918">
        <ele>155.0</ele>
        <time>2022-02-10T10:21:26Z</time>
      </trkpt>
      <trkpt lat="47.549763" lon="1.8377901">
        <ele>155.0</ele>
        <time>2022-02-10T10:21:27Z</time>
      </trkpt>
      <trkpt lat="47.549747" lon="1.8377942">
        <ele>155.0</ele>
        <time>2022-02-10T10:21:28Z</time>
      </trkpt>
      <trkpt lat="47.549736" lon="1.8377969">
        <ele>155.0</ele>
        <time>2022-02-10T10:21:29Z</time>
      </trkpt>
      <trkpt lat="47.549725" lon="1.8377984">
        <ele>155.0</ele>
        <time>2022-02-10T10:21:30Z</time>
      </trkpt>
      <trkpt lat="47.549713" lon="1.8378035">
        <ele>155.0</ele>
        <time>2022-02-10T10:21:31Z</time>
      </trkpt>
      <trkpt lat="47.549706" lon="1.837807">
        <ele>155.0</ele>
        <time>2022-02-10T10:21:32Z</time>
      </trkpt>
      <trkpt lat="47.549694" lon="1.837813">
        <ele>155.0</ele>
        <time>2022-02-10T10:21:33Z</time>
      </trkpt>
      <trkpt lat="47.549683" lon="1.8378175">
        <ele>155.0</ele>
        <time>2022-02-10T10:21:34Z</time>
      </trkpt>
      <trkpt lat="47.54967" lon="1.8378221">
        <ele>156.0</ele>
        <time>2022-02-10T10:21:35Z</time>
      </trkpt>
      <trkpt lat="47.54966" lon="1.837825">
        <ele>156.0</ele>
        <time>2022-02-10T10:21:36Z</time>
      </trkpt>
      <trkpt lat="47.54965" lon="1.8378242">
        <ele>157.0</ele>
        <time>2022-02-10T10:21:37Z</time>
      </trkpt>
      <trkpt lat="47.549637" lon="1.837817">
        <ele>156.0</ele>
        <time>2022-02-10T10:21:38Z</time>
      </trkpt>
      <trkpt lat="47.54963" lon="1.8378131">
        <ele>156.0</ele>
        <time>2022-02-10T10:21:39Z</time>
      </trkpt>
      <trkpt lat="47.549618" lon="1.8378148">
        <ele>157.0</ele>
        <time>2022-02-10T10:21:40Z</time>
      </trkpt>
      <trkpt lat="47.549606" lon="1.8378189">
        <ele>157.0</ele>
        <time>2022-02-10T10:21:41Z</time>
      </trkpt>
      <trkpt lat="47.549595" lon="1.8378248">
        <ele>157.0</ele>
        <time>2022-02-10T10:21:42Z</time>
      </trkpt>
      <trkpt lat="47.549595" lon="1.8378248">
        <ele>157.0</ele>
        <time>2022-02-10T10:21:43Z</time>
      </trkpt>
      <trkpt lat="47.549595" lon="1.8378248">
        <ele>157.0</ele>
        <time>2022-02-10T10:21:44Z</time>
      </trkpt>
      <trkpt lat="47.549564" lon="1.8378348">
        <ele>156.0</ele>
        <time>2022-02-10T10:21:45Z</time>
      </trkpt>
      <trkpt lat="47.549553" lon="1.8378426">
        <ele>156.0</ele>
        <time>2022-02-10T10:21:46Z</time>
      </trkpt>
      <trkpt lat="47.54954" lon="1.8378508">
        <ele>156.0</ele>
        <time>2022-02-10T10:21:47Z</time>
      </trkpt>
      <trkpt lat="47.54953" lon="1.8378624">
        <ele>156.0</ele>
        <time>2022-02-10T10:21:48Z</time>
      </trkpt>
      <trkpt lat="47.549515" lon="1.8378688">
        <ele>156.0</ele>
        <time>2022-02-10T10:21:49Z</time>
      </trkpt>
      <trkpt lat="47.549503" lon="1.837873">
        <ele>156.0</ele>
        <time>2022-02-10T10:21:50Z</time>
      </trkpt>
      <trkpt lat="47.549488" lon="1.8378812">
        <ele>156.0</ele>
        <time>2022-02-10T10:21:51Z</time>
      </trkpt>
      <trkpt lat="47.54948" lon="1.8378907">
        <ele>156.0</ele>
        <time>2022-02-10T10:21:52Z</time>
      </trkpt>
      <trkpt lat="47.54947" lon="1.8378989">
        <ele>155.0</ele>
        <time>2022-02-10T10:21:53Z</time>
      </trkpt>
      <trkpt lat="47.549458" lon="1.8379098">
        <ele>156.0</ele>
        <time>2022-02-10T10:21:54Z</time>
      </trkpt>
      <trkpt lat="47.549446" lon="1.8379207">
        <ele>156.0</ele>
        <time>2022-02-10T10:21:55Z</time>
      </trkpt>
      <trkpt lat="47.549435" lon="1.8379321">
        <ele>156.0</ele>
        <time>2022-02-10T10:21:56Z</time>
      </trkpt>
      <trkpt lat="47.549427" lon="1.8379456">
        <ele>156.0</ele>
        <time>2022-02-10T10:21:57Z</time>
      </trkpt>
      <trkpt lat="47.549416" lon="1.8379549">
        <ele>156.0</ele>
        <time>2022-02-10T10:21:58Z</time>
      </trkpt>
      <trkpt lat="47.549408" lon="1.8379601">
        <ele>156.0</ele>
        <time>2022-02-10T10:21:59Z</time>
      </trkpt>
      <trkpt lat="47.549408" lon="1.8379601">
        <ele>156.0</ele>
        <time>2022-02-10T10:22:00Z</time>
      </trkpt>
      <trkpt lat="47.549408" lon="1.8379601">
        <ele>156.0</ele>
        <time>2022-02-10T10:22:01Z</time>
      </trkpt>
      <trkpt lat="47.549377" lon="1.837976">
        <ele>156.0</ele>
        <time>2022-02-10T10:22:02Z</time>
      </trkpt>
      <trkpt lat="47.549366" lon="1.8379833">
        <ele>156.0</ele>
        <time>2022-02-10T10:22:03Z</time>
      </trkpt>
      <trkpt lat="47.549355" lon="1.8379929">
        <ele>156.0</ele>
        <time>2022-02-10T10:22:04Z</time>
      </trkpt>
      <trkpt lat="47.549343" lon="1.8380064">
        <ele>156.0</ele>
        <time>2022-02-10T10:22:05Z</time>
      </trkpt>
      <trkpt lat="47.54933" lon="1.8380147">
        <ele>157.0</ele>
        <time>2022-02-10T10:22:06Z</time>
      </trkpt>
      <trkpt lat="47.549324" lon="1.8380208">
        <ele>156.0</ele>
        <time>2022-02-10T10:22:07Z</time>
      </trkpt>
      <trkpt lat="47.549316" lon="1.8380294">
        <ele>157.0</ele>
        <time>2022-02-10T10:22:08Z</time>
      </trkpt>
      <trkpt lat="47.54931" lon="1.8380418">
        <ele>156.0</ele>
        <time>2022-02-10T10:22:09Z</time>
      </trkpt>
      <trkpt lat="47.54931" lon="1.8380418">
        <ele>156.0</ele>
        <time>2022-02-10T10:22:10Z</time>
      </trkpt>
      <trkpt lat="47.54931" lon="1.8380418">
        <ele>156.0</ele>
        <time>2022-02-10T10:22:11Z</time>
      </trkpt>
      <trkpt lat="47.549286" lon="1.8380486">
        <ele>156.0</ele>
        <time>2022-02-10T10:22:12Z</time>
      </trkpt>
      <trkpt lat="47.54928" lon="1.8380508">
        <ele>155.0</ele>
        <time>2022-02-10T10:22:13Z</time>
      </trkpt>
      <trkpt lat="47.54927" lon="1.8380562">
        <ele>155.0</ele>
        <time>2022-02-10T10:22:14Z</time>
      </trkpt>
      <trkpt lat="47.54926" lon="1.8380603">
        <ele>155.0</ele>
        <time>2022-02-10T10:22:15Z</time>
      </trkpt>
      <trkpt lat="47.54926" lon="1.8380603">
        <ele>155.0</ele>
        <time>2022-02-10T10:22:16Z</time>
      </trkpt>
      <trkpt lat="47.54926" lon="1.8380603">
        <ele>155.0</ele>
        <time>2022-02-10T10:22:17Z</time>
      </trkpt>
      <trkpt lat="47.54924" lon="1.8380824">
        <ele>155.0</ele>
        <time>2022-02-10T10:22:18Z</time>
      </trkpt>
      <trkpt lat="47.549232" lon="1.8380916">
        <ele>155.0</ele>
        <time>2022-02-10T10:22:19Z</time>
      </trkpt>
      <trkpt lat="47.549225" lon="1.8381008">
        <ele>154.0</ele>
        <time>2022-02-10T10:22:20Z</time>
      </trkpt>
      <trkpt lat="47.549217" lon="1.8381116">
        <ele>154.0</ele>
        <time>2022-02-10T10:22:21Z</time>
      </trkpt>
      <trkpt lat="47.549217" lon="1.8381116">
        <ele>154.0</ele>
        <time>2022-02-10T10:22:22Z</time>
      </trkpt>
      <trkpt lat="47.549217" lon="1.8381116">
        <ele>154.0</ele>
        <time>2022-02-10T10:22:23Z</time>
      </trkpt>
      <trkpt lat="47.54919" lon="1.8381385">
        <ele>153.0</ele>
        <time>2022-02-10T10:22:24Z</time>
      </trkpt>
      <trkpt lat="47.54918" lon="1.8381485">
        <ele>153.0</ele>
        <time>2022-02-10T10:22:25Z</time>
      </trkpt>
      <trkpt lat="47.549168" lon="1.8381581">
        <ele>154.0</ele>
        <time>2022-02-10T10:22:26Z</time>
      </trkpt>
      <trkpt lat="47.54916" lon="1.83817">
        <ele>154.0</ele>
        <time>2022-02-10T10:22:27Z</time>
      </trkpt>
      <trkpt lat="47.54915" lon="1.8381817">
        <ele>154.0</ele>
        <time>2022-02-10T10:22:28Z</time>
      </trkpt>
      <trkpt lat="47.54914" lon="1.8381958">
        <ele>154.0</ele>
        <time>2022-02-10T10:22:29Z</time>
      </trkpt>
      <trkpt lat="47.54913" lon="1.8382093">
        <ele>154.0</ele>
        <time>2022-02-10T10:22:30Z</time>
      </trkpt>
      <trkpt lat="47.54912" lon="1.8382249">
        <ele>154.0</ele>
        <time>2022-02-10T10:22:31Z</time>
      </trkpt>
      <trkpt lat="47.549107" lon="1.8382413">
        <ele>154.0</ele>
        <time>2022-02-10T10:22:32Z</time>
      </trkpt>
      <trkpt lat="47.549095" lon="1.8382512">
        <ele>154.0</ele>
        <time>2022-02-10T10:22:33Z</time>
      </trkpt>
      <trkpt lat="47.549088" lon="1.8382617">
        <ele>155.0</ele>
        <time>2022-02-10T10:22:34Z</time>
      </trkpt>
      <trkpt lat="47.549072" lon="1.8382729">
        <ele>154.0</ele>
        <time>2022-02-10T10:22:35Z</time>
      </trkpt>
      <trkpt lat="47.54906" lon="1.8382888">
        <ele>154.0</ele>
        <time>2022-02-10T10:22:36Z</time>
      </trkpt>
      <trkpt lat="47.54905" lon="1.8383056">
        <ele>154.0</ele>
        <time>2022-02-10T10:22:37Z</time>
      </trkpt>
      <trkpt lat="47.549038" lon="1.8383173">
        <ele>154.0</ele>
        <time>2022-02-10T10:22:38Z</time>
      </trkpt>
      <trkpt lat="47.549026" lon="1.8383257">
        <ele>154.0</ele>
        <time>2022-02-10T10:22:39Z</time>
      </trkpt>
      <trkpt lat="47.549015" lon="1.8383346">
        <ele>154.0</ele>
        <time>2022-02-10T10:22:40Z</time>
      </trkpt>
      <trkpt lat="47.549004" lon="1.8383487">
        <ele>154.0</ele>
        <time>2022-02-10T10:22:41Z</time>
      </trkpt>
      <trkpt lat="47.548992" lon="1.8383642">
        <ele>154.0</ele>
        <time>2022-02-10T10:22:42Z</time>
      </trkpt>
      <trkpt lat="47.54898" lon="1.8383763">
        <ele>153.0</ele>
        <time>2022-02-10T10:22:43Z</time>
      </trkpt>
      <trkpt lat="47.54897" lon="1.8383911">
        <ele>153.0</ele>
        <time>2022-02-10T10:22:44Z</time>
      </trkpt>
      <trkpt lat="47.54896" lon="1.8384075">
        <ele>153.0</ele>
        <time>2022-02-10T10:22:45Z</time>
      </trkpt>
      <trkpt lat="47.54895" lon="1.8384241">
        <ele>153.0</ele>
        <time>2022-02-10T10:22:46Z</time>
      </trkpt>
      <trkpt lat="47.548943" lon="1.8384397">
        <ele>153.0</ele>
        <time>2022-02-10T10:22:47Z</time>
      </trkpt>
      <trkpt lat="47.54893" lon="1.8384552">
        <ele>153.0</ele>
        <time>2022-02-10T10:22:48Z</time>
      </trkpt>
      <trkpt lat="47.54892" lon="1.8384715">
        <ele>153.0</ele>
        <time>2022-02-10T10:22:49Z</time>
      </trkpt>
      <trkpt lat="47.548912" lon="1.8384904">
        <ele>153.0</ele>
        <time>2022-02-10T10:22:50Z</time>
      </trkpt>
      <trkpt lat="47.5489" lon="1.838506">
        <ele>153.0</ele>
        <time>2022-02-10T10:22:51Z</time>
      </trkpt>
      <trkpt lat="47.548893" lon="1.8385235">
        <ele>152.0</ele>
        <time>2022-02-10T10:22:52Z</time>
      </trkpt>
      <trkpt lat="47.54888" lon="1.8385386">
        <ele>152.0</ele>
        <time>2022-02-10T10:22:53Z</time>
      </trkpt>
      <trkpt lat="47.54887" lon="1.8385509">
        <ele>152.0</ele>
        <time>2022-02-10T10:22:54Z</time>
      </trkpt>
      <trkpt lat="47.548862" lon="1.8385649">
        <ele>152.0</ele>
        <time>2022-02-10T10:22:55Z</time>
      </trkpt>
      <trkpt lat="47.548855" lon="1.8385793">
        <ele>152.0</ele>
        <time>2022-02-10T10:22:56Z</time>
      </trkpt>
      <trkpt lat="47.548847" lon="1.8385912">
        <ele>153.0</ele>
        <time>2022-02-10T10:22:57Z</time>
      </trkpt>
      <trkpt lat="47.548843" lon="1.8386056">
        <ele>152.0</ele>
        <time>2022-02-10T10:22:58Z</time>
      </trkpt>
      <trkpt lat="47.548836" lon="1.8386196">
        <ele>152.0</ele>
        <time>2022-02-10T10:22:59Z</time>
      </trkpt>
      <trkpt lat="47.54883" lon="1.8386345">
        <ele>152.0</ele>
        <time>2022-02-10T10:23:00Z</time>
      </trkpt>
      <trkpt lat="47.54882" lon="1.8386523">
        <ele>151.0</ele>
        <time>2022-02-10T10:23:01Z</time>
      </trkpt>
      <trkpt lat="47.548813" lon="1.8386637">
        <ele>152.0</ele>
        <time>2022-02-10T10:23:02Z</time>
      </trkpt>
      <trkpt lat="47.548805" lon="1.8386788">
        <ele>152.0</ele>
        <time>2022-02-10T10:23:03Z</time>
      </trkpt>
      <trkpt lat="47.548798" lon="1.8386952">
        <ele>152.0</ele>
        <time>2022-02-10T10:23:04Z</time>
      </trkpt>
      <trkpt lat="47.54879" lon="1.838715">
        <ele>152.0</ele>
        <time>2022-02-10T10:23:05Z</time>
      </trkpt>
      <trkpt lat="47.548782" lon="1.8387315">
        <ele>152.0</ele>
        <time>2022-02-10T10:23:06Z</time>
      </trkpt>
      <trkpt lat="47.548775" lon="1.8387498">
        <ele>152.0</ele>
        <time>2022-02-10T10:23:07Z</time>
      </trkpt>
      <trkpt lat="47.54877" lon="1.8387644">
        <ele>151.0</ele>
        <time>2022-02-10T10:23:08Z</time>
      </trkpt>
      <trkpt lat="47.54876" lon="1.8387817">
        <ele>152.0</ele>
        <time>2022-02-10T10:23:09Z</time>
      </trkpt>
      <trkpt lat="47.54875" lon="1.8387933">
        <ele>152.0</ele>
        <time>2022-02-10T10:23:10Z</time>
      </trkpt>
      <trkpt lat="47.54874" lon="1.838805">
        <ele>152.0</ele>
        <time>2022-02-10T10:23:11Z</time>
      </trkpt>
      <trkpt lat="47.548733" lon="1.8388194">
        <ele>152.0</ele>
        <time>2022-02-10T10:23:12Z</time>
      </trkpt>
      <trkpt lat="47.54872" lon="1.8388351">
        <ele>151.0</ele>
        <time>2022-02-10T10:23:13Z</time>
      </trkpt>
      <trkpt lat="47.548714" lon="1.8388467">
        <ele>151.0</ele>
        <time>2022-02-10T10:23:14Z</time>
      </trkpt>
      <trkpt lat="47.548702" lon="1.8388584">
        <ele>151.0</ele>
        <time>2022-02-10T10:23:15Z</time>
      </trkpt>
      <trkpt lat="47.548695" lon="1.8388684">
        <ele>152.0</ele>
        <time>2022-02-10T10:23:16Z</time>
      </trkpt>
      <trkpt lat="47.548695" lon="1.8388684">
        <ele>152.0</ele>
        <time>2022-02-10T10:23:17Z</time>
      </trkpt>
      <trkpt lat="47.54868" lon="1.8388895">
        <ele>151.0</ele>
        <time>2022-02-10T10:23:18Z</time>
      </trkpt>
      <trkpt lat="47.54867" lon="1.8389043">
        <ele>151.0</ele>
        <time>2022-02-10T10:23:19Z</time>
      </trkpt>
      <trkpt lat="47.548664" lon="1.838917">
        <ele>150.0</ele>
        <time>2022-02-10T10:23:20Z</time>
      </trkpt>
      <trkpt lat="47.548653" lon="1.8389286">
        <ele>149.0</ele>
        <time>2022-02-10T10:23:21Z</time>
      </trkpt>
      <trkpt lat="47.548645" lon="1.8389401">
        <ele>149.0</ele>
        <time>2022-02-10T10:23:22Z</time>
      </trkpt>
      <trkpt lat="47.548637" lon="1.8389478">
        <ele>148.0</ele>
        <time>2022-02-10T10:23:23Z</time>
      </trkpt>
      <trkpt lat="47.548626" lon="1.8389587">
        <ele>148.0</ele>
        <time>2022-02-10T10:23:24Z</time>
      </trkpt>
      <trkpt lat="47.54862" lon="1.8389691">
        <ele>148.0</ele>
        <time>2022-02-10T10:23:25Z</time>
      </trkpt>
      <trkpt lat="47.548607" lon="1.8389782">
        <ele>148.0</ele>
        <time>2022-02-10T10:23:26Z</time>
      </trkpt>
      <trkpt lat="47.548595" lon="1.8389877">
        <ele>148.0</ele>
        <time>2022-02-10T10:23:27Z</time>
      </trkpt>
      <trkpt lat="47.548588" lon="1.8389978">
        <ele>148.0</ele>
        <time>2022-02-10T10:23:28Z</time>
      </trkpt>
      <trkpt lat="47.54858" lon="1.8390051">
        <ele>148.0</ele>
        <time>2022-02-10T10:23:29Z</time>
      </trkpt>
      <trkpt lat="47.54857" lon="1.8390124">
        <ele>148.0</ele>
        <time>2022-02-10T10:23:30Z</time>
      </trkpt>
      <trkpt lat="47.54856" lon="1.8390236">
        <ele>149.0</ele>
        <time>2022-02-10T10:23:31Z</time>
      </trkpt>
      <trkpt lat="47.54855" lon="1.8390357">
        <ele>149.0</ele>
        <time>2022-02-10T10:23:32Z</time>
      </trkpt>
      <trkpt lat="47.54854" lon="1.8390493">
        <ele>149.0</ele>
        <time>2022-02-10T10:23:33Z</time>
      </trkpt>
      <trkpt lat="47.548527" lon="1.8390656">
        <ele>149.0</ele>
        <time>2022-02-10T10:23:34Z</time>
      </trkpt>
      <trkpt lat="47.548515" lon="1.8390824">
        <ele>149.0</ele>
        <time>2022-02-10T10:23:35Z</time>
      </trkpt>
      <trkpt lat="47.548504" lon="1.8390976">
        <ele>149.0</ele>
        <time>2022-02-10T10:23:36Z</time>
      </trkpt>
      <trkpt lat="47.548492" lon="1.8391175">
        <ele>149.0</ele>
        <time>2022-02-10T10:23:37Z</time>
      </trkpt>
      <trkpt lat="47.548477" lon="1.8391379">
        <ele>150.0</ele>
        <time>2022-02-10T10:23:38Z</time>
      </trkpt>
      <trkpt lat="47.548466" lon="1.8391557">
        <ele>150.0</ele>
        <time>2022-02-10T10:23:39Z</time>
      </trkpt>
      <trkpt lat="47.54845" lon="1.8391731">
        <ele>151.0</ele>
        <time>2022-02-10T10:23:40Z</time>
      </trkpt>
      <trkpt lat="47.54844" lon="1.8391873">
        <ele>151.0</ele>
        <time>2022-02-10T10:23:41Z</time>
      </trkpt>
      <trkpt lat="47.548428" lon="1.8392029">
        <ele>151.0</ele>
        <time>2022-02-10T10:23:42Z</time>
      </trkpt>
      <trkpt lat="47.548412" lon="1.839221">
        <ele>151.0</ele>
        <time>2022-02-10T10:23:43Z</time>
      </trkpt>
      <trkpt lat="47.5484" lon="1.8392369">
        <ele>151.0</ele>
        <time>2022-02-10T10:23:44Z</time>
      </trkpt>
      <trkpt lat="47.54839" lon="1.8392504">
        <ele>151.0</ele>
        <time>2022-02-10T10:23:45Z</time>
      </trkpt>
      <trkpt lat="47.54838" lon="1.8392645">
        <ele>152.0</ele>
        <time>2022-02-10T10:23:46Z</time>
      </trkpt>
      <trkpt lat="47.54837" lon="1.8392763">
        <ele>152.0</ele>
        <time>2022-02-10T10:23:47Z</time>
      </trkpt>
      <trkpt lat="47.54836" lon="1.8392909">
        <ele>152.0</ele>
        <time>2022-02-10T10:23:48Z</time>
      </trkpt>
      <trkpt lat="47.548347" lon="1.8393073">
        <ele>152.0</ele>
        <time>2022-02-10T10:23:49Z</time>
      </trkpt>
      <trkpt lat="47.548336" lon="1.8393222">
        <ele>152.0</ele>
        <time>2022-02-10T10:23:50Z</time>
      </trkpt>
      <trkpt lat="47.548332" lon="1.8393369">
        <ele>153.0</ele>
        <time>2022-02-10T10:23:51Z</time>
      </trkpt>
      <trkpt lat="47.548325" lon="1.83935">
        <ele>153.0</ele>
        <time>2022-02-10T10:23:52Z</time>
      </trkpt>
      <trkpt lat="47.548317" lon="1.8393649">
        <ele>152.0</ele>
        <time>2022-02-10T10:23:53Z</time>
      </trkpt>
      <trkpt lat="47.548306" lon="1.8393781">
        <ele>153.0</ele>
        <time>2022-02-10T10:23:54Z</time>
      </trkpt>
      <trkpt lat="47.548294" lon="1.8393893">
        <ele>153.0</ele>
        <time>2022-02-10T10:23:55Z</time>
      </trkpt>
      <trkpt lat="47.548286" lon="1.8394047">
        <ele>153.0</ele>
        <time>2022-02-10T10:23:56Z</time>
      </trkpt>
      <trkpt lat="47.54828" lon="1.8394194">
        <ele>153.0</ele>
        <time>2022-02-10T10:23:57Z</time>
      </trkpt>
      <trkpt lat="47.548267" lon="1.8394297">
        <ele>153.0</ele>
        <time>2022-02-10T10:23:58Z</time>
      </trkpt>
      <trkpt lat="47.54826" lon="1.8394388">
        <ele>153.0</ele>
        <time>2022-02-10T10:23:59Z</time>
      </trkpt>
      <trkpt lat="47.548252" lon="1.839452">
        <ele>153.0</ele>
        <time>2022-02-10T10:24:00Z</time>
      </trkpt>
      <trkpt lat="47.54825" lon="1.8394648">
        <ele>153.0</ele>
        <time>2022-02-10T10:24:01Z</time>
      </trkpt>
      <trkpt lat="47.54824" lon="1.8394834">
        <ele>153.0</ele>
        <time>2022-02-10T10:24:02Z</time>
      </trkpt>
      <trkpt lat="47.548233" lon="1.8395017">
        <ele>152.0</ele>
        <time>2022-02-10T10:24:03Z</time>
      </trkpt>
      <trkpt lat="47.54823" lon="1.8395201">
        <ele>153.0</ele>
        <time>2022-02-10T10:24:04Z</time>
      </trkpt>
      <trkpt lat="47.54822" lon="1.8395392">
        <ele>153.0</ele>
        <time>2022-02-10T10:24:05Z</time>
      </trkpt>
      <trkpt lat="47.548218" lon="1.8395557">
        <ele>154.0</ele>
        <time>2022-02-10T10:24:06Z</time>
      </trkpt>
      <trkpt lat="47.54821" lon="1.8395752">
        <ele>154.0</ele>
        <time>2022-02-10T10:24:07Z</time>
      </trkpt>
      <trkpt lat="47.548203" lon="1.8395901">
        <ele>154.0</ele>
        <time>2022-02-10T10:24:08Z</time>
      </trkpt>
      <trkpt lat="47.548195" lon="1.8396063">
        <ele>154.0</ele>
        <time>2022-02-10T10:24:09Z</time>
      </trkpt>
      <trkpt lat="47.548183" lon="1.8396192">
        <ele>154.0</ele>
        <time>2022-02-10T10:24:10Z</time>
      </trkpt>
      <trkpt lat="47.54818" lon="1.8396347">
        <ele>154.0</ele>
        <time>2022-02-10T10:24:11Z</time>
      </trkpt>
      <trkpt lat="47.548176" lon="1.8396488">
        <ele>155.0</ele>
        <time>2022-02-10T10:24:12Z</time>
      </trkpt>
      <trkpt lat="47.548172" lon="1.8396621">
        <ele>156.0</ele>
        <time>2022-02-10T10:24:13Z</time>
      </trkpt>
      <trkpt lat="47.548164" lon="1.8396784">
        <ele>156.0</ele>
        <time>2022-02-10T10:24:14Z</time>
      </trkpt>
      <trkpt lat="47.548164" lon="1.8396784">
        <ele>156.0</ele>
        <time>2022-02-10T10:24:15Z</time>
      </trkpt>
      <trkpt lat="47.548164" lon="1.8396784">
        <ele>156.0</ele>
        <time>2022-02-10T10:24:16Z</time>
      </trkpt>
      <trkpt lat="47.548138" lon="1.8397145">
        <ele>156.0</ele>
        <time>2022-02-10T10:24:17Z</time>
      </trkpt>
      <trkpt lat="47.548126" lon="1.839727">
        <ele>156.0</ele>
        <time>2022-02-10T10:24:18Z</time>
      </trkpt>
      <trkpt lat="47.54812" lon="1.8397343">
        <ele>157.0</ele>
        <time>2022-02-10T10:24:19Z</time>
      </trkpt>
      <trkpt lat="47.548107" lon="1.8397428">
        <ele>157.0</ele>
        <time>2022-02-10T10:24:20Z</time>
      </trkpt>
      <trkpt lat="47.548096" lon="1.8397574">
        <ele>156.0</ele>
        <time>2022-02-10T10:24:21Z</time>
      </trkpt>
      <trkpt lat="47.548088" lon="1.8397764">
        <ele>156.0</ele>
        <time>2022-02-10T10:24:22Z</time>
      </trkpt>
      <trkpt lat="47.548073" lon="1.839791">
        <ele>156.0</ele>
        <time>2022-02-10T10:24:23Z</time>
      </trkpt>
      <trkpt lat="47.548065" lon="1.8398051">
        <ele>155.0</ele>
        <time>2022-02-10T10:24:24Z</time>
      </trkpt>
      <trkpt lat="47.548058" lon="1.8398188">
        <ele>154.0</ele>
        <time>2022-02-10T10:24:25Z</time>
      </trkpt>
      <trkpt lat="47.54805" lon="1.8398347">
        <ele>154.0</ele>
        <time>2022-02-10T10:24:26Z</time>
      </trkpt>
      <trkpt lat="47.548046" lon="1.8398459">
        <ele>154.0</ele>
        <time>2022-02-10T10:24:27Z</time>
      </trkpt>
      <trkpt lat="47.548035" lon="1.8398631">
        <ele>154.0</ele>
        <time>2022-02-10T10:24:28Z</time>
      </trkpt>
      <trkpt lat="47.54803" lon="1.83988">
        <ele>154.0</ele>
        <time>2022-02-10T10:24:29Z</time>
      </trkpt>
      <trkpt lat="47.548023" lon="1.8398939">
        <ele>154.0</ele>
        <time>2022-02-10T10:24:30Z</time>
      </trkpt>
      <trkpt lat="47.548016" lon="1.8399107">
        <ele>154.0</ele>
        <time>2022-02-10T10:24:31Z</time>
      </trkpt>
      <trkpt lat="47.548008" lon="1.8399209">
        <ele>154.0</ele>
        <time>2022-02-10T10:24:32Z</time>
      </trkpt>
      <trkpt lat="47.547997" lon="1.8399342">
        <ele>154.0</ele>
        <time>2022-02-10T10:24:33Z</time>
      </trkpt>
      <trkpt lat="47.547985" lon="1.8399488">
        <ele>153.0</ele>
        <time>2022-02-10T10:24:34Z</time>
      </trkpt>
      <trkpt lat="47.547977" lon="1.8399668">
        <ele>153.0</ele>
        <time>2022-02-10T10:24:35Z</time>
      </trkpt>
      <trkpt lat="47.547966" lon="1.839983">
        <ele>153.0</ele>
        <time>2022-02-10T10:24:36Z</time>
      </trkpt>
      <trkpt lat="47.54796" lon="1.8399992">
        <ele>153.0</ele>
        <time>2022-02-10T10:24:37Z</time>
      </trkpt>
      <trkpt lat="47.547947" lon="1.8400143">
        <ele>153.0</ele>
        <time>2022-02-10T10:24:38Z</time>
      </trkpt>
      <trkpt lat="47.547935" lon="1.840033">
        <ele>153.0</ele>
        <time>2022-02-10T10:24:39Z</time>
      </trkpt>
      <trkpt lat="47.547924" lon="1.8400522">
        <ele>153.0</ele>
        <time>2022-02-10T10:24:40Z</time>
      </trkpt>
      <trkpt lat="47.547913" lon="1.8400683">
        <ele>153.0</ele>
        <time>2022-02-10T10:24:41Z</time>
      </trkpt>
      <trkpt lat="47.547905" lon="1.8400859">
        <ele>153.0</ele>
        <time>2022-02-10T10:24:42Z</time>
      </trkpt>
      <trkpt lat="47.547894" lon="1.8401058">
        <ele>153.0</ele>
        <time>2022-02-10T10:24:43Z</time>
      </trkpt>
      <trkpt lat="47.547886" lon="1.840124">
        <ele>153.0</ele>
        <time>2022-02-10T10:24:44Z</time>
      </trkpt>
      <trkpt lat="47.54788" lon="1.8401409">
        <ele>153.0</ele>
        <time>2022-02-10T10:24:45Z</time>
      </trkpt>
      <trkpt lat="47.547867" lon="1.8401589">
        <ele>153.0</ele>
        <time>2022-02-10T10:24:46Z</time>
      </trkpt>
      <trkpt lat="47.547855" lon="1.8401736">
        <ele>152.0</ele>
        <time>2022-02-10T10:24:47Z</time>
      </trkpt>
      <trkpt lat="47.547844" lon="1.8401892">
        <ele>152.0</ele>
        <time>2022-02-10T10:24:48Z</time>
      </trkpt>
      <trkpt lat="47.547836" lon="1.8402051">
        <ele>152.0</ele>
        <time>2022-02-10T10:24:49Z</time>
      </trkpt>
      <trkpt lat="47.54783" lon="1.8402162">
        <ele>153.0</ele>
        <time>2022-02-10T10:24:50Z</time>
      </trkpt>
      <trkpt lat="47.54782" lon="1.8402287">
        <ele>152.0</ele>
        <time>2022-02-10T10:24:51Z</time>
      </trkpt>
      <trkpt lat="47.547813" lon="1.8402462">
        <ele>152.0</ele>
        <time>2022-02-10T10:24:52Z</time>
      </trkpt>
      <trkpt lat="47.547806" lon="1.84026">
        <ele>152.0</ele>
        <time>2022-02-10T10:24:53Z</time>
      </trkpt>
      <trkpt lat="47.5478" lon="1.8402739">
        <ele>152.0</ele>
        <time>2022-02-10T10:24:54Z</time>
      </trkpt>
      <trkpt lat="47.54779" lon="1.8402872">
        <ele>152.0</ele>
        <time>2022-02-10T10:24:55Z</time>
      </trkpt>
      <trkpt lat="47.547783" lon="1.8403004">
        <ele>153.0</ele>
        <time>2022-02-10T10:24:56Z</time>
      </trkpt>
      <trkpt lat="47.547775" lon="1.8403087">
        <ele>153.0</ele>
        <time>2022-02-10T10:24:57Z</time>
      </trkpt>
      <trkpt lat="47.547764" lon="1.8403184">
        <ele>153.0</ele>
        <time>2022-02-10T10:24:58Z</time>
      </trkpt>
      <trkpt lat="47.547752" lon="1.8403256">
        <ele>153.0</ele>
        <time>2022-02-10T10:24:59Z</time>
      </trkpt>
      <trkpt lat="47.54774" lon="1.8403343">
        <ele>153.0</ele>
        <time>2022-02-10T10:25:00Z</time>
      </trkpt>
      <trkpt lat="47.54773" lon="1.8403454">
        <ele>153.0</ele>
        <time>2022-02-10T10:25:01Z</time>
      </trkpt>
      <trkpt lat="47.547718" lon="1.8403617">
        <ele>153.0</ele>
        <time>2022-02-10T10:25:02Z</time>
      </trkpt>
      <trkpt lat="47.54771" lon="1.8403784">
        <ele>152.0</ele>
        <time>2022-02-10T10:25:03Z</time>
      </trkpt>
      <trkpt lat="47.547703" lon="1.8403912">
        <ele>152.0</ele>
        <time>2022-02-10T10:25:04Z</time>
      </trkpt>
      <trkpt lat="47.54769" lon="1.8404061">
        <ele>152.0</ele>
        <time>2022-02-10T10:25:05Z</time>
      </trkpt>
      <trkpt lat="47.547684" lon="1.8404218">
        <ele>152.0</ele>
        <time>2022-02-10T10:25:06Z</time>
      </trkpt>
      <trkpt lat="47.547676" lon="1.8404301">
        <ele>152.0</ele>
        <time>2022-02-10T10:25:07Z</time>
      </trkpt>
      <trkpt lat="47.547665" lon="1.8404384">
        <ele>152.0</ele>
        <time>2022-02-10T10:25:08Z</time>
      </trkpt>
      <trkpt lat="47.54765" lon="1.8404491">
        <ele>152.0</ele>
        <time>2022-02-10T10:25:09Z</time>
      </trkpt>
      <trkpt lat="47.54764" lon="1.8404613">
        <ele>152.0</ele>
        <time>2022-02-10T10:25:10Z</time>
      </trkpt>
      <trkpt lat="47.54763" lon="1.8404745">
        <ele>152.0</ele>
        <time>2022-02-10T10:25:11Z</time>
      </trkpt>
      <trkpt lat="47.54762" lon="1.8404858">
        <ele>152.0</ele>
        <time>2022-02-10T10:25:12Z</time>
      </trkpt>
      <trkpt lat="47.547604" lon="1.8404976">
        <ele>152.0</ele>
        <time>2022-02-10T10:25:13Z</time>
      </trkpt>
      <trkpt lat="47.547596" lon="1.8405086">
        <ele>153.0</ele>
        <time>2022-02-10T10:25:14Z</time>
      </trkpt>
      <trkpt lat="47.547585" lon="1.8405142">
        <ele>153.0</ele>
        <time>2022-02-10T10:25:15Z</time>
      </trkpt>
      <trkpt lat="47.547573" lon="1.8405249">
        <ele>153.0</ele>
        <time>2022-02-10T10:25:16Z</time>
      </trkpt>
      <trkpt lat="47.54756" lon="1.840541">
        <ele>153.0</ele>
        <time>2022-02-10T10:25:17Z</time>
      </trkpt>
      <trkpt lat="47.547554" lon="1.8405509">
        <ele>153.0</ele>
        <time>2022-02-10T10:25:18Z</time>
      </trkpt>
      <trkpt lat="47.547546" lon="1.84056">
        <ele>153.0</ele>
        <time>2022-02-10T10:25:19Z</time>
      </trkpt>
      <trkpt lat="47.54754" lon="1.840572">
        <ele>152.0</ele>
        <time>2022-02-10T10:25:20Z</time>
      </trkpt>
      <trkpt lat="47.547527" lon="1.8405848">
        <ele>153.0</ele>
        <time>2022-02-10T10:25:21Z</time>
      </trkpt>
      <trkpt lat="47.547516" lon="1.8405994">
        <ele>152.0</ele>
        <time>2022-02-10T10:25:22Z</time>
      </trkpt>
      <trkpt lat="47.547504" lon="1.8406174">
        <ele>152.0</ele>
        <time>2022-02-10T10:25:23Z</time>
      </trkpt>
      <trkpt lat="47.547497" lon="1.8406296">
        <ele>152.0</ele>
        <time>2022-02-10T10:25:24Z</time>
      </trkpt>
      <trkpt lat="47.547485" lon="1.8406419">
        <ele>152.0</ele>
        <time>2022-02-10T10:25:25Z</time>
      </trkpt>
      <trkpt lat="47.547474" lon="1.8406515">
        <ele>152.0</ele>
        <time>2022-02-10T10:25:26Z</time>
      </trkpt>
      <trkpt lat="47.547466" lon="1.8406605">
        <ele>153.0</ele>
        <time>2022-02-10T10:25:27Z</time>
      </trkpt>
      <trkpt lat="47.54746" lon="1.8406733">
        <ele>153.0</ele>
        <time>2022-02-10T10:25:28Z</time>
      </trkpt>
      <trkpt lat="47.54746" lon="1.8406733">
        <ele>153.0</ele>
        <time>2022-02-10T10:25:29Z</time>
      </trkpt>
      <trkpt lat="47.54746" lon="1.8406733">
        <ele>153.0</ele>
        <time>2022-02-10T10:25:30Z</time>
      </trkpt>
      <trkpt lat="47.547436" lon="1.8407019">
        <ele>152.0</ele>
        <time>2022-02-10T10:25:31Z</time>
      </trkpt>
      <trkpt lat="47.547432" lon="1.8407129">
        <ele>152.0</ele>
        <time>2022-02-10T10:25:32Z</time>
      </trkpt>
      <trkpt lat="47.54742" lon="1.840724">
        <ele>152.0</ele>
        <time>2022-02-10T10:25:33Z</time>
      </trkpt>
      <trkpt lat="47.54741" lon="1.8407351">
        <ele>152.0</ele>
        <time>2022-02-10T10:25:34Z</time>
      </trkpt>
      <trkpt lat="47.547398" lon="1.8407466">
        <ele>152.0</ele>
        <time>2022-02-10T10:25:35Z</time>
      </trkpt>
      <trkpt lat="47.547386" lon="1.840762">
        <ele>151.0</ele>
        <time>2022-02-10T10:25:36Z</time>
      </trkpt>
      <trkpt lat="47.547375" lon="1.8407772">
        <ele>151.0</ele>
        <time>2022-02-10T10:25:37Z</time>
      </trkpt>
      <trkpt lat="47.547363" lon="1.8407915">
        <ele>151.0</ele>
        <time>2022-02-10T10:25:38Z</time>
      </trkpt>
      <trkpt lat="47.54735" lon="1.8408091">
        <ele>151.0</ele>
        <time>2022-02-10T10:25:39Z</time>
      </trkpt>
      <trkpt lat="47.54734" lon="1.8408247">
        <ele>151.0</ele>
        <time>2022-02-10T10:25:40Z</time>
      </trkpt>
      <trkpt lat="47.54733" lon="1.840842">
        <ele>151.0</ele>
        <time>2022-02-10T10:25:41Z</time>
      </trkpt>
      <trkpt lat="47.547318" lon="1.8408582">
        <ele>151.0</ele>
        <time>2022-02-10T10:25:42Z</time>
      </trkpt>
      <trkpt lat="47.547306" lon="1.840871">
        <ele>151.0</ele>
        <time>2022-02-10T10:25:43Z</time>
      </trkpt>
      <trkpt lat="47.547295" lon="1.8408877">
        <ele>150.0</ele>
        <time>2022-02-10T10:25:44Z</time>
      </trkpt>
      <trkpt lat="47.547287" lon="1.8409038">
        <ele>151.0</ele>
        <time>2022-02-10T10:25:45Z</time>
      </trkpt>
      <trkpt lat="47.54728" lon="1.8409221">
        <ele>151.0</ele>
        <time>2022-02-10T10:25:46Z</time>
      </trkpt>
      <trkpt lat="47.547268" lon="1.8409395">
        <ele>151.0</ele>
        <time>2022-02-10T10:25:47Z</time>
      </trkpt>
      <trkpt lat="47.54726" lon="1.8409605">
        <ele>151.0</ele>
        <time>2022-02-10T10:25:48Z</time>
      </trkpt>
      <trkpt lat="47.547253" lon="1.8409786">
        <ele>151.0</ele>
        <time>2022-02-10T10:25:49Z</time>
      </trkpt>
      <trkpt lat="47.54724" lon="1.8409932">
        <ele>150.0</ele>
        <time>2022-02-10T10:25:50Z</time>
      </trkpt>
      <trkpt lat="47.54723" lon="1.8410075">
        <ele>150.0</ele>
        <time>2022-02-10T10:25:51Z</time>
      </trkpt>
      <trkpt lat="47.54722" lon="1.8410152">
        <ele>150.0</ele>
        <time>2022-02-10T10:25:52Z</time>
      </trkpt>
      <trkpt lat="47.547207" lon="1.8410271">
        <ele>150.0</ele>
        <time>2022-02-10T10:25:53Z</time>
      </trkpt>
      <trkpt lat="47.547195" lon="1.8410378">
        <ele>150.0</ele>
        <time>2022-02-10T10:25:54Z</time>
      </trkpt>
      <trkpt lat="47.547188" lon="1.8410481">
        <ele>151.0</ele>
        <time>2022-02-10T10:25:55Z</time>
      </trkpt>
      <trkpt lat="47.54718" lon="1.841055">
        <ele>151.0</ele>
        <time>2022-02-10T10:25:56Z</time>
      </trkpt>
      <trkpt lat="47.54717" lon="1.8410602">
        <ele>152.0</ele>
        <time>2022-02-10T10:25:57Z</time>
      </trkpt>
      <trkpt lat="47.547157" lon="1.8410711">
        <ele>152.0</ele>
        <time>2022-02-10T10:25:58Z</time>
      </trkpt>
      <trkpt lat="47.54715" lon="1.8410845">
        <ele>152.0</ele>
        <time>2022-02-10T10:25:59Z</time>
      </trkpt>
      <trkpt lat="47.54714" lon="1.8410964">
        <ele>151.0</ele>
        <time>2022-02-10T10:26:00Z</time>
      </trkpt>
      <trkpt lat="47.54713" lon="1.8411108">
        <ele>151.0</ele>
        <time>2022-02-10T10:26:01Z</time>
      </trkpt>
      <trkpt lat="47.547123" lon="1.8411206">
        <ele>152.0</ele>
        <time>2022-02-10T10:26:02Z</time>
      </trkpt>
      <trkpt lat="47.547115" lon="1.8411337">
        <ele>151.0</ele>
        <time>2022-02-10T10:26:03Z</time>
      </trkpt>
      <trkpt lat="47.547108" lon="1.8411492">
        <ele>151.0</ele>
        <time>2022-02-10T10:26:04Z</time>
      </trkpt>
      <trkpt lat="47.5471" lon="1.8411627">
        <ele>151.0</ele>
        <time>2022-02-10T10:26:05Z</time>
      </trkpt>
      <trkpt lat="47.54709" lon="1.8411759">
        <ele>151.0</ele>
        <time>2022-02-10T10:26:06Z</time>
      </trkpt>
      <trkpt lat="47.54708" lon="1.8411888">
        <ele>151.0</ele>
        <time>2022-02-10T10:26:07Z</time>
      </trkpt>
      <trkpt lat="47.547073" lon="1.8412049">
        <ele>150.0</ele>
        <time>2022-02-10T10:26:08Z</time>
      </trkpt>
      <trkpt lat="47.547062" lon="1.8412195">
        <ele>150.0</ele>
        <time>2022-02-10T10:26:09Z</time>
      </trkpt>
      <trkpt lat="47.547054" lon="1.8412349">
        <ele>150.0</ele>
        <time>2022-02-10T10:26:10Z</time>
      </trkpt>
      <trkpt lat="47.547047" lon="1.8412464">
        <ele>150.0</ele>
        <time>2022-02-10T10:26:11Z</time>
      </trkpt>
      <trkpt lat="47.547047" lon="1.8412464">
        <ele>150.0</ele>
        <time>2022-02-10T10:26:12Z</time>
      </trkpt>
      <trkpt lat="47.547047" lon="1.8412464">
        <ele>150.0</ele>
        <time>2022-02-10T10:26:13Z</time>
      </trkpt>
      <trkpt lat="47.547035" lon="1.8412765">
        <ele>149.0</ele>
        <time>2022-02-10T10:26:14Z</time>
      </trkpt>
      <trkpt lat="47.547028" lon="1.8412901">
        <ele>149.0</ele>
        <time>2022-02-10T10:26:15Z</time>
      </trkpt>
      <trkpt lat="47.54702" lon="1.8413038">
        <ele>148.0</ele>
        <time>2022-02-10T10:26:16Z</time>
      </trkpt>
      <trkpt lat="47.54701" lon="1.8413168">
        <ele>148.0</ele>
        <time>2022-02-10T10:26:17Z</time>
      </trkpt>
      <trkpt lat="47.54701" lon="1.8413168">
        <ele>148.0</ele>
        <time>2022-02-10T10:26:18Z</time>
      </trkpt>
      <trkpt lat="47.546986" lon="1.841324">
        <ele>148.0</ele>
        <time>2022-02-10T10:26:19Z</time>
      </trkpt>
      <trkpt lat="47.546974" lon="1.8413317">
        <ele>148.0</ele>
        <time>2022-02-10T10:26:20Z</time>
      </trkpt>
      <trkpt lat="47.546967" lon="1.8413415">
        <ele>148.0</ele>
        <time>2022-02-10T10:26:21Z</time>
      </trkpt>
      <trkpt lat="47.546963" lon="1.8413514">
        <ele>148.0</ele>
        <time>2022-02-10T10:26:22Z</time>
      </trkpt>
      <trkpt lat="47.54695" lon="1.8413603">
        <ele>148.0</ele>
        <time>2022-02-10T10:26:23Z</time>
      </trkpt>
      <trkpt lat="47.54694" lon="1.8413739">
        <ele>147.0</ele>
        <time>2022-02-10T10:26:24Z</time>
      </trkpt>
      <trkpt lat="47.546932" lon="1.8413883">
        <ele>147.0</ele>
        <time>2022-02-10T10:26:25Z</time>
      </trkpt>
      <trkpt lat="47.546925" lon="1.8414012">
        <ele>147.0</ele>
        <time>2022-02-10T10:26:26Z</time>
      </trkpt>
      <trkpt lat="47.546913" lon="1.8414161">
        <ele>146.0</ele>
        <time>2022-02-10T10:26:27Z</time>
      </trkpt>
      <trkpt lat="47.5469" lon="1.841429">
        <ele>146.0</ele>
        <time>2022-02-10T10:26:28Z</time>
      </trkpt>
      <trkpt lat="47.5469" lon="1.8414428">
        <ele>145.0</ele>
        <time>2022-02-10T10:26:29Z</time>
      </trkpt>
      <trkpt lat="47.54689" lon="1.84146">
        <ele>145.0</ele>
        <time>2022-02-10T10:26:30Z</time>
      </trkpt>
      <trkpt lat="47.546883" lon="1.8414764">
        <ele>145.0</ele>
        <time>2022-02-10T10:26:31Z</time>
      </trkpt>
      <trkpt lat="47.546875" lon="1.841493">
        <ele>145.0</ele>
        <time>2022-02-10T10:26:32Z</time>
      </trkpt>
      <trkpt lat="47.546867" lon="1.8415096">
        <ele>145.0</ele>
        <time>2022-02-10T10:26:33Z</time>
      </trkpt>
      <trkpt lat="47.54686" lon="1.8415251">
        <ele>145.0</ele>
        <time>2022-02-10T10:26:34Z</time>
      </trkpt>
      <trkpt lat="47.546852" lon="1.8415394">
        <ele>145.0</ele>
        <time>2022-02-10T10:26:35Z</time>
      </trkpt>
      <trkpt lat="47.546844" lon="1.841551">
        <ele>145.0</ele>
        <time>2022-02-10T10:26:36Z</time>
      </trkpt>
      <trkpt lat="47.54683" lon="1.8415629">
        <ele>145.0</ele>
        <time>2022-02-10T10:26:37Z</time>
      </trkpt>
      <trkpt lat="47.546818" lon="1.8415776">
        <ele>145.0</ele>
        <time>2022-02-10T10:26:38Z</time>
      </trkpt>
      <trkpt lat="47.54681" lon="1.8415897">
        <ele>145.0</ele>
        <time>2022-02-10T10:26:39Z</time>
      </trkpt>
      <trkpt lat="47.546803" lon="1.8415998">
        <ele>145.0</ele>
        <time>2022-02-10T10:26:40Z</time>
      </trkpt>
      <trkpt lat="47.546795" lon="1.8416153">
        <ele>145.0</ele>
        <time>2022-02-10T10:26:41Z</time>
      </trkpt>
      <trkpt lat="47.546787" lon="1.8416271">
        <ele>145.0</ele>
        <time>2022-02-10T10:26:42Z</time>
      </trkpt>
      <trkpt lat="47.54678" lon="1.8416394">
        <ele>145.0</ele>
        <time>2022-02-10T10:26:43Z</time>
      </trkpt>
      <trkpt lat="47.54678" lon="1.8416394">
        <ele>145.0</ele>
        <time>2022-02-10T10:26:44Z</time>
      </trkpt>
      <trkpt lat="47.54676" lon="1.8416607">
        <ele>145.0</ele>
        <time>2022-02-10T10:26:45Z</time>
      </trkpt>
      <trkpt lat="47.546753" lon="1.8416758">
        <ele>145.0</ele>
        <time>2022-02-10T10:26:46Z</time>
      </trkpt>
      <trkpt lat="47.54674" lon="1.8416873">
        <ele>145.0</ele>
        <time>2022-02-10T10:26:47Z</time>
      </trkpt>
      <trkpt lat="47.546734" lon="1.8417035">
        <ele>145.0</ele>
        <time>2022-02-10T10:26:48Z</time>
      </trkpt>
      <trkpt lat="47.546726" lon="1.8417188">
        <ele>145.0</ele>
        <time>2022-02-10T10:26:49Z</time>
      </trkpt>
      <trkpt lat="47.546715" lon="1.8417333">
        <ele>145.0</ele>
        <time>2022-02-10T10:26:50Z</time>
      </trkpt>
      <trkpt lat="47.546703" lon="1.8417457">
        <ele>145.0</ele>
        <time>2022-02-10T10:26:51Z</time>
      </trkpt>
      <trkpt lat="47.546684" lon="1.8417567">
        <ele>144.0</ele>
        <time>2022-02-10T10:26:52Z</time>
      </trkpt>
      <trkpt lat="47.546673" lon="1.8417662">
        <ele>145.0</ele>
        <time>2022-02-10T10:26:53Z</time>
      </trkpt>
      <trkpt lat="47.546665" lon="1.8417774">
        <ele>145.0</ele>
        <time>2022-02-10T10:26:54Z</time>
      </trkpt>
      <trkpt lat="47.546654" lon="1.8417903">
        <ele>145.0</ele>
        <time>2022-02-10T10:26:55Z</time>
      </trkpt>
      <trkpt lat="47.546642" lon="1.8417994">
        <ele>145.0</ele>
        <time>2022-02-10T10:26:56Z</time>
      </trkpt>
      <trkpt lat="47.54664" lon="1.841811">
        <ele>145.0</ele>
        <time>2022-02-10T10:26:57Z</time>
      </trkpt>
      <trkpt lat="47.54663" lon="1.8418214">
        <ele>145.0</ele>
        <time>2022-02-10T10:26:58Z</time>
      </trkpt>
      <trkpt lat="47.54662" lon="1.8418355">
        <ele>145.0</ele>
        <time>2022-02-10T10:26:59Z</time>
      </trkpt>
      <trkpt lat="47.546608" lon="1.8418493">
        <ele>145.0</ele>
        <time>2022-02-10T10:27:00Z</time>
      </trkpt>
      <trkpt lat="47.5466" lon="1.8418632">
        <ele>145.0</ele>
        <time>2022-02-10T10:27:01Z</time>
      </trkpt>
      <trkpt lat="47.546585" lon="1.8418797">
        <ele>145.0</ele>
        <time>2022-02-10T10:27:02Z</time>
      </trkpt>
      <trkpt lat="47.546574" lon="1.8418941">
        <ele>145.0</ele>
        <time>2022-02-10T10:27:03Z</time>
      </trkpt>
      <trkpt lat="47.546562" lon="1.8419075">
        <ele>145.0</ele>
        <time>2022-02-10T10:27:04Z</time>
      </trkpt>
      <trkpt lat="47.54655" lon="1.8419199">
        <ele>146.0</ele>
        <time>2022-02-10T10:27:05Z</time>
      </trkpt>
      <trkpt lat="47.54654" lon="1.8419386">
        <ele>146.0</ele>
        <time>2022-02-10T10:27:06Z</time>
      </trkpt>
      <trkpt lat="47.546528" lon="1.8419526">
        <ele>146.0</ele>
        <time>2022-02-10T10:27:07Z</time>
      </trkpt>
      <trkpt lat="47.546516" lon="1.8419623">
        <ele>146.0</ele>
        <time>2022-02-10T10:27:08Z</time>
      </trkpt>
      <trkpt lat="47.54651" lon="1.8419645">
        <ele>146.0</ele>
        <time>2022-02-10T10:27:09Z</time>
      </trkpt>
      <trkpt lat="47.546497" lon="1.8419741">
        <ele>146.0</ele>
        <time>2022-02-10T10:27:10Z</time>
      </trkpt>
      <trkpt lat="47.546486" lon="1.8419834">
        <ele>146.0</ele>
        <time>2022-02-10T10:27:11Z</time>
      </trkpt>
      <trkpt lat="47.54647" lon="1.8419958">
        <ele>147.0</ele>
        <time>2022-02-10T10:27:12Z</time>
      </trkpt>
      <trkpt lat="47.54646" lon="1.8420079">
        <ele>147.0</ele>
        <time>2022-02-10T10:27:13Z</time>
      </trkpt>
      <trkpt lat="47.546448" lon="1.8420194">
        <ele>146.0</ele>
        <time>2022-02-10T10:27:14Z</time>
      </trkpt>
      <trkpt lat="47.546436" lon="1.8420286">
        <ele>146.0</ele>
        <time>2022-02-10T10:27:15Z</time>
      </trkpt>
      <trkpt lat="47.546425" lon="1.8420438">
        <ele>146.0</ele>
        <time>2022-02-10T10:27:16Z</time>
      </trkpt>
      <trkpt lat="47.546413" lon="1.8420599">
        <ele>146.0</ele>
        <time>2022-02-10T10:27:17Z</time>
      </trkpt>
      <trkpt lat="47.546402" lon="1.8420743">
        <ele>146.0</ele>
        <time>2022-02-10T10:27:18Z</time>
      </trkpt>
      <trkpt lat="47.54639" lon="1.8420837">
        <ele>146.0</ele>
        <time>2022-02-10T10:27:19Z</time>
      </trkpt>
      <trkpt lat="47.546383" lon="1.8420988">
        <ele>146.0</ele>
        <time>2022-02-10T10:27:20Z</time>
      </trkpt>
      <trkpt lat="47.54637" lon="1.8421098">
        <ele>147.0</ele>
        <time>2022-02-10T10:27:21Z</time>
      </trkpt>
      <trkpt lat="47.546364" lon="1.842125">
        <ele>147.0</ele>
        <time>2022-02-10T10:27:22Z</time>
      </trkpt>
      <trkpt lat="47.54636" lon="1.8421406">
        <ele>147.0</ele>
        <time>2022-02-10T10:27:23Z</time>
      </trkpt>
      <trkpt lat="47.546352" lon="1.8421558">
        <ele>146.0</ele>
        <time>2022-02-10T10:27:24Z</time>
      </trkpt>
      <trkpt lat="47.546352" lon="1.8421712">
        <ele>146.0</ele>
        <time>2022-02-10T10:27:25Z</time>
      </trkpt>
      <trkpt lat="47.546352" lon="1.8421924">
        <ele>146.0</ele>
        <time>2022-02-10T10:27:26Z</time>
      </trkpt>
      <trkpt lat="47.54635" lon="1.8422084">
        <ele>145.0</ele>
        <time>2022-02-10T10:27:27Z</time>
      </trkpt>
      <trkpt lat="47.546356" lon="1.8422269">
        <ele>145.0</ele>
        <time>2022-02-10T10:27:28Z</time>
      </trkpt>
      <trkpt lat="47.546356" lon="1.8422408">
        <ele>145.0</ele>
        <time>2022-02-10T10:27:29Z</time>
      </trkpt>
      <trkpt lat="47.546364" lon="1.8422567">
        <ele>145.0</ele>
        <time>2022-02-10T10:27:30Z</time>
      </trkpt>
      <trkpt lat="47.546368" lon="1.8422741">
        <ele>144.0</ele>
        <time>2022-02-10T10:27:31Z</time>
      </trkpt>
      <trkpt lat="47.54637" lon="1.8422887">
        <ele>143.0</ele>
        <time>2022-02-10T10:27:32Z</time>
      </trkpt>
      <trkpt lat="47.546375" lon="1.8423032">
        <ele>143.0</ele>
        <time>2022-02-10T10:27:33Z</time>
      </trkpt>
      <trkpt lat="47.546383" lon="1.842316">
        <ele>143.0</ele>
        <time>2022-02-10T10:27:34Z</time>
      </trkpt>
      <trkpt lat="47.546387" lon="1.842331">
        <ele>143.0</ele>
        <time>2022-02-10T10:27:35Z</time>
      </trkpt>
      <trkpt lat="47.546394" lon="1.8423513">
        <ele>143.0</ele>
        <time>2022-02-10T10:27:36Z</time>
      </trkpt>
      <trkpt lat="47.546394" lon="1.8423725">
        <ele>142.0</ele>
        <time>2022-02-10T10:27:37Z</time>
      </trkpt>
      <trkpt lat="47.546402" lon="1.8423904">
        <ele>143.0</ele>
        <time>2022-02-10T10:27:38Z</time>
      </trkpt>
      <trkpt lat="47.546406" lon="1.8424047">
        <ele>143.0</ele>
        <time>2022-02-10T10:27:39Z</time>
      </trkpt>
      <trkpt lat="47.54641" lon="1.8424171">
        <ele>142.0</ele>
        <time>2022-02-10T10:27:40Z</time>
      </trkpt>
      <trkpt lat="47.54642" lon="1.8424487">
        <ele>143.0</ele>
        <time>2022-02-10T10:27:41Z</time>
      </trkpt>
      <trkpt lat="47.546432" lon="1.8424648">
        <ele>143.0</ele>
        <time>2022-02-10T10:27:42Z</time>
      </trkpt>
      <trkpt lat="47.546432" lon="1.8424648">
        <ele>143.0</ele>
        <time>2022-02-10T10:27:42Z</time>
      </trkpt>
      <trkpt lat="47.546436" lon="1.8424847">
        <ele>143.0</ele>
        <time>2022-02-10T10:27:44Z</time>
      </trkpt>
      <trkpt lat="47.546444" lon="1.842502">
        <ele>142.0</ele>
        <time>2022-02-10T10:27:45Z</time>
      </trkpt>
      <trkpt lat="47.54645" lon="1.8425225">
        <ele>142.0</ele>
        <time>2022-02-10T10:27:46Z</time>
      </trkpt>
      <trkpt lat="47.546455" lon="1.8425443">
        <ele>141.0</ele>
        <time>2022-02-10T10:27:47Z</time>
      </trkpt>
      <trkpt lat="47.546455" lon="1.8425634">
        <ele>141.0</ele>
        <time>2022-02-10T10:27:48Z</time>
      </trkpt>
      <trkpt lat="47.546463" lon="1.8425814">
        <ele>141.0</ele>
        <time>2022-02-10T10:27:49Z</time>
      </trkpt>
      <trkpt lat="47.546467" lon="1.8425939">
        <ele>140.0</ele>
        <time>2022-02-10T10:27:50Z</time>
      </trkpt>
      <trkpt lat="47.546474" lon="1.8426076">
        <ele>140.0</ele>
        <time>2022-02-10T10:27:51Z</time>
      </trkpt>
      <trkpt lat="47.546482" lon="1.8426226">
        <ele>139.0</ele>
        <time>2022-02-10T10:27:52Z</time>
      </trkpt>
      <trkpt lat="47.546486" lon="1.842636">
        <ele>140.0</ele>
        <time>2022-02-10T10:27:53Z</time>
      </trkpt>
      <trkpt lat="47.546494" lon="1.8426492">
        <ele>139.0</ele>
        <time>2022-02-10T10:27:54Z</time>
      </trkpt>
      <trkpt lat="47.5465" lon="1.8426684">
        <ele>139.0</ele>
        <time>2022-02-10T10:27:55Z</time>
      </trkpt>
      <trkpt lat="47.546505" lon="1.8426888">
        <ele>139.0</ele>
        <time>2022-02-10T10:27:56Z</time>
      </trkpt>
      <trkpt lat="47.546513" lon="1.8427081">
        <ele>139.0</ele>
        <time>2022-02-10T10:27:57Z</time>
      </trkpt>
      <trkpt lat="47.54652" lon="1.8427311">
        <ele>139.0</ele>
        <time>2022-02-10T10:27:58Z</time>
      </trkpt>
      <trkpt lat="47.546524" lon="1.8427491">
        <ele>139.0</ele>
        <time>2022-02-10T10:27:59Z</time>
      </trkpt>
      <trkpt lat="47.546524" lon="1.8427672">
        <ele>139.0</ele>
        <time>2022-02-10T10:28:00Z</time>
      </trkpt>
      <trkpt lat="47.546528" lon="1.8427848">
        <ele>138.0</ele>
        <time>2022-02-10T10:28:01Z</time>
      </trkpt>
      <trkpt lat="47.546528" lon="1.8428015">
        <ele>139.0</ele>
        <time>2022-02-10T10:28:02Z</time>
      </trkpt>
      <trkpt lat="47.546535" lon="1.8428178">
        <ele>138.0</ele>
        <time>2022-02-10T10:28:03Z</time>
      </trkpt>
      <trkpt lat="47.54654" lon="1.8428315">
        <ele>138.0</ele>
        <time>2022-02-10T10:28:04Z</time>
      </trkpt>
      <trkpt lat="47.546547" lon="1.8428506">
        <ele>138.0</ele>
        <time>2022-02-10T10:28:05Z</time>
      </trkpt>
      <trkpt lat="47.54655" lon="1.8428686">
        <ele>138.0</ele>
        <time>2022-02-10T10:28:06Z</time>
      </trkpt>
      <trkpt lat="47.546555" lon="1.8428824">
        <ele>138.0</ele>
        <time>2022-02-10T10:28:07Z</time>
      </trkpt>
      <trkpt lat="47.54656" lon="1.8428981">
        <ele>138.0</ele>
        <time>2022-02-10T10:28:08Z</time>
      </trkpt>
      <trkpt lat="47.546566" lon="1.8429152">
        <ele>138.0</ele>
        <time>2022-02-10T10:28:09Z</time>
      </trkpt>
      <trkpt lat="47.546574" lon="1.8429482">
        <ele>137.0</ele>
        <time>2022-02-10T10:28:10Z</time>
      </trkpt>
      <trkpt lat="47.546574" lon="1.8429655">
        <ele>137.0</ele>
        <time>2022-02-10T10:28:11Z</time>
      </trkpt>
      <trkpt lat="47.546577" lon="1.8429798">
        <ele>137.0</ele>
        <time>2022-02-10T10:28:12Z</time>
      </trkpt>
      <trkpt lat="47.546585" lon="1.8429936">
        <ele>137.0</ele>
        <time>2022-02-10T10:28:13Z</time>
      </trkpt>
      <trkpt lat="47.54659" lon="1.8430084">
        <ele>137.0</ele>
        <time>2022-02-10T10:28:14Z</time>
      </trkpt>
      <trkpt lat="47.54659" lon="1.8430233">
        <ele>137.0</ele>
        <time>2022-02-10T10:28:15Z</time>
      </trkpt>
      <trkpt lat="47.546593" lon="1.8430393">
        <ele>136.0</ele>
        <time>2022-02-10T10:28:16Z</time>
      </trkpt>
      <trkpt lat="47.546593" lon="1.8430555">
        <ele>136.0</ele>
        <time>2022-02-10T10:28:17Z</time>
      </trkpt>
      <trkpt lat="47.546597" lon="1.8430705">
        <ele>137.0</ele>
        <time>2022-02-10T10:28:18Z</time>
      </trkpt>
      <trkpt lat="47.5466" lon="1.843086">
        <ele>137.0</ele>
        <time>2022-02-10T10:28:19Z</time>
      </trkpt>
      <trkpt lat="47.5466" lon="1.8431015">
        <ele>137.0</ele>
        <time>2022-02-10T10:28:20Z</time>
      </trkpt>
      <trkpt lat="47.546604" lon="1.8431187">
        <ele>137.0</ele>
        <time>2022-02-10T10:28:21Z</time>
      </trkpt>
      <trkpt lat="47.54661" lon="1.8431339">
        <ele>136.0</ele>
        <time>2022-02-10T10:28:22Z</time>
      </trkpt>
      <trkpt lat="47.54661" lon="1.8431339">
        <ele>136.0</ele>
        <time>2022-02-10T10:28:22Z</time>
      </trkpt>
      <trkpt lat="47.54662" lon="1.8431662">
        <ele>136.0</ele>
        <time>2022-02-10T10:28:24Z</time>
      </trkpt>
      <trkpt lat="47.546623" lon="1.8431809">
        <ele>136.0</ele>
        <time>2022-02-10T10:28:25Z</time>
      </trkpt>
      <trkpt lat="47.54663" lon="1.843196">
        <ele>136.0</ele>
        <time>2022-02-10T10:28:26Z</time>
      </trkpt>
      <trkpt lat="47.54664" lon="1.8432127">
        <ele>136.0</ele>
        <time>2022-02-10T10:28:27Z</time>
      </trkpt>
      <trkpt lat="47.546646" lon="1.8432344">
        <ele>136.0</ele>
        <time>2022-02-10T10:28:28Z</time>
      </trkpt>
      <trkpt lat="47.54665" lon="1.8432565">
        <ele>136.0</ele>
        <time>2022-02-10T10:28:29Z</time>
      </trkpt>
      <trkpt lat="47.54665" lon="1.8432565">
        <ele>136.0</ele>
        <time>2022-02-10T10:28:29Z</time>
      </trkpt>
      <trkpt lat="47.546658" lon="1.8432946">
        <ele>135.0</ele>
        <time>2022-02-10T10:28:32Z</time>
      </trkpt>
      <trkpt lat="47.54666" lon="1.8433137">
        <ele>135.0</ele>
        <time>2022-02-10T10:28:33Z</time>
      </trkpt>
      <trkpt lat="47.54667" lon="1.84333">
        <ele>135.0</ele>
        <time>2022-02-10T10:28:34Z</time>
      </trkpt>
      <trkpt lat="47.546677" lon="1.8433511">
        <ele>135.0</ele>
        <time>2022-02-10T10:28:35Z</time>
      </trkpt>
      <trkpt lat="47.546684" lon="1.843374">
        <ele>135.0</ele>
        <time>2022-02-10T10:28:36Z</time>
      </trkpt>
      <trkpt lat="47.54669" lon="1.8433933">
        <ele>134.0</ele>
        <time>2022-02-10T10:28:37Z</time>
      </trkpt>
      <trkpt lat="47.5467" lon="1.8434103">
        <ele>135.0</ele>
        <time>2022-02-10T10:28:38Z</time>
      </trkpt>
      <trkpt lat="47.546707" lon="1.8434256">
        <ele>135.0</ele>
        <time>2022-02-10T10:28:39Z</time>
      </trkpt>
      <trkpt lat="47.54671" lon="1.8434434">
        <ele>135.0</ele>
        <time>2022-02-10T10:28:40Z</time>
      </trkpt>
      <trkpt lat="47.546722" lon="1.8434635">
        <ele>135.0</ele>
        <time>2022-02-10T10:28:41Z</time>
      </trkpt>
      <trkpt lat="47.54673" lon="1.8434793">
        <ele>135.0</ele>
        <time>2022-02-10T10:28:42Z</time>
      </trkpt>
      <trkpt lat="47.546734" lon="1.8434968">
        <ele>135.0</ele>
        <time>2022-02-10T10:28:43Z</time>
      </trkpt>
      <trkpt lat="47.54674" lon="1.8435171">
        <ele>135.0</ele>
        <time>2022-02-10T10:28:44Z</time>
      </trkpt>
      <trkpt lat="47.54674" lon="1.8435385">
        <ele>136.0</ele>
        <time>2022-02-10T10:28:45Z</time>
      </trkpt>
      <trkpt lat="47.54675" lon="1.8435626">
        <ele>135.0</ele>
        <time>2022-02-10T10:28:46Z</time>
      </trkpt>
      <trkpt lat="47.546753" lon="1.84358">
        <ele>135.0</ele>
        <time>2022-02-10T10:28:47Z</time>
      </trkpt>
      <trkpt lat="47.546757" lon="1.8435961">
        <ele>135.0</ele>
        <time>2022-02-10T10:28:48Z</time>
      </trkpt>
      <trkpt lat="47.54676" lon="1.8436129">
        <ele>135.0</ele>
        <time>2022-02-10T10:28:49Z</time>
      </trkpt>
      <trkpt lat="47.54677" lon="1.8436342">
        <ele>135.0</ele>
        <time>2022-02-10T10:28:50Z</time>
      </trkpt>
      <trkpt lat="47.546776" lon="1.8436495">
        <ele>135.0</ele>
        <time>2022-02-10T10:28:51Z</time>
      </trkpt>
      <trkpt lat="47.54678" lon="1.8436666">
        <ele>135.0</ele>
        <time>2022-02-10T10:28:52Z</time>
      </trkpt>
      <trkpt lat="47.546783" lon="1.843681">
        <ele>135.0</ele>
        <time>2022-02-10T10:28:53Z</time>
      </trkpt>
      <trkpt lat="47.546787" lon="1.8436939">
        <ele>135.0</ele>
        <time>2022-02-10T10:28:54Z</time>
      </trkpt>
      <trkpt lat="47.54679" lon="1.8437092">
        <ele>135.0</ele>
        <time>2022-02-10T10:28:55Z</time>
      </trkpt>
      <trkpt lat="47.5468" lon="1.8437245">
        <ele>135.0</ele>
        <time>2022-02-10T10:28:56Z</time>
      </trkpt>
      <trkpt lat="47.546806" lon="1.8437406">
        <ele>135.0</ele>
        <time>2022-02-10T10:28:57Z</time>
      </trkpt>
      <trkpt lat="47.54681" lon="1.8437583">
        <ele>135.0</ele>
        <time>2022-02-10T10:28:58Z</time>
      </trkpt>
      <trkpt lat="47.54682" lon="1.8437783">
        <ele>135.0</ele>
        <time>2022-02-10T10:28:59Z</time>
      </trkpt>
      <trkpt lat="47.54683" lon="1.8437973">
        <ele>135.0</ele>
        <time>2022-02-10T10:29:00Z</time>
      </trkpt>
      <trkpt lat="47.54683" lon="1.8438144">
        <ele>135.0</ele>
        <time>2022-02-10T10:29:01Z</time>
      </trkpt>
      <trkpt lat="47.546833" lon="1.8438324">
        <ele>135.0</ele>
        <time>2022-02-10T10:29:02Z</time>
      </trkpt>
      <trkpt lat="47.546837" lon="1.8438528">
        <ele>135.0</ele>
        <time>2022-02-10T10:29:03Z</time>
      </trkpt>
      <trkpt lat="47.54684" lon="1.8438731">
        <ele>134.0</ele>
        <time>2022-02-10T10:29:04Z</time>
      </trkpt>
      <trkpt lat="47.54685" lon="1.8438946">
        <ele>134.0</ele>
        <time>2022-02-10T10:29:05Z</time>
      </trkpt>
      <trkpt lat="47.546856" lon="1.8439163">
        <ele>134.0</ele>
        <time>2022-02-10T10:29:06Z</time>
      </trkpt>
      <trkpt lat="47.546864" lon="1.8439379">
        <ele>133.0</ele>
        <time>2022-02-10T10:29:07Z</time>
      </trkpt>
      <trkpt lat="47.546867" lon="1.8439553">
        <ele>132.0</ele>
        <time>2022-02-10T10:29:08Z</time>
      </trkpt>
      <trkpt lat="47.54687" lon="1.8439736">
        <ele>132.0</ele>
        <time>2022-02-10T10:29:09Z</time>
      </trkpt>
      <trkpt lat="47.54688" lon="1.8439903">
        <ele>133.0</ele>
        <time>2022-02-10T10:29:10Z</time>
      </trkpt>
      <trkpt lat="47.546883" lon="1.8440077">
        <ele>133.0</ele>
        <time>2022-02-10T10:29:11Z</time>
      </trkpt>
      <trkpt lat="47.54689" lon="1.8440263">
        <ele>133.0</ele>
        <time>2022-02-10T10:29:12Z</time>
      </trkpt>
      <trkpt lat="47.546894" lon="1.8440408">
        <ele>133.0</ele>
        <time>2022-02-10T10:29:13Z</time>
      </trkpt>
      <trkpt lat="47.546898" lon="1.8440602">
        <ele>133.0</ele>
        <time>2022-02-10T10:29:14Z</time>
      </trkpt>
      <trkpt lat="47.546906" lon="1.8440796">
        <ele>133.0</ele>
        <time>2022-02-10T10:29:15Z</time>
      </trkpt>
      <trkpt lat="47.54691" lon="1.844099">
        <ele>133.0</ele>
        <time>2022-02-10T10:29:16Z</time>
      </trkpt>
      <trkpt lat="47.546913" lon="1.8441136">
        <ele>132.0</ele>
        <time>2022-02-10T10:29:17Z</time>
      </trkpt>
      <trkpt lat="47.54692" lon="1.8441278">
        <ele>132.0</ele>
        <time>2022-02-10T10:29:18Z</time>
      </trkpt>
      <trkpt lat="47.546925" lon="1.8441418">
        <ele>132.0</ele>
        <time>2022-02-10T10:29:19Z</time>
      </trkpt>
      <trkpt lat="47.54693" lon="1.8441565">
        <ele>132.0</ele>
        <time>2022-02-10T10:29:20Z</time>
      </trkpt>
      <trkpt lat="47.546936" lon="1.844175">
        <ele>132.0</ele>
        <time>2022-02-10T10:29:21Z</time>
      </trkpt>
      <trkpt lat="47.546944" lon="1.8441968">
        <ele>131.0</ele>
        <time>2022-02-10T10:29:22Z</time>
      </trkpt>
      <trkpt lat="47.546947" lon="1.8442131">
        <ele>131.0</ele>
        <time>2022-02-10T10:29:23Z</time>
      </trkpt>
      <trkpt lat="47.546947" lon="1.8442302">
        <ele>131.0</ele>
        <time>2022-02-10T10:29:24Z</time>
      </trkpt>
      <trkpt lat="47.546947" lon="1.8442458">
        <ele>131.0</ele>
        <time>2022-02-10T10:29:25Z</time>
      </trkpt>
      <trkpt lat="47.54695" lon="1.8442581">
        <ele>131.0</ele>
        <time>2022-02-10T10:29:26Z</time>
      </trkpt>
      <trkpt lat="47.546955" lon="1.8442696">
        <ele>131.0</ele>
        <time>2022-02-10T10:29:27Z</time>
      </trkpt>
      <trkpt lat="47.54696" lon="1.8442831">
        <ele>131.0</ele>
        <time>2022-02-10T10:29:28Z</time>
      </trkpt>
      <trkpt lat="47.546967" lon="1.8442978">
        <ele>131.0</ele>
        <time>2022-02-10T10:29:29Z</time>
      </trkpt>
      <trkpt lat="47.54697" lon="1.8443118">
        <ele>131.0</ele>
        <time>2022-02-10T10:29:30Z</time>
      </trkpt>
      <trkpt lat="47.546978" lon="1.8443285">
        <ele>132.0</ele>
        <time>2022-02-10T10:29:31Z</time>
      </trkpt>
      <trkpt lat="47.54698" lon="1.8443463">
        <ele>132.0</ele>
        <time>2022-02-10T10:29:32Z</time>
      </trkpt>
      <trkpt lat="47.54699" lon="1.8443673">
        <ele>132.0</ele>
        <time>2022-02-10T10:29:33Z</time>
      </trkpt>
      <trkpt lat="47.546997" lon="1.844389">
        <ele>132.0</ele>
        <time>2022-02-10T10:29:34Z</time>
      </trkpt>
      <trkpt lat="47.547005" lon="1.844408">
        <ele>132.0</ele>
        <time>2022-02-10T10:29:35Z</time>
      </trkpt>
      <trkpt lat="47.547016" lon="1.8444223">
        <ele>131.0</ele>
        <time>2022-02-10T10:29:36Z</time>
      </trkpt>
      <trkpt lat="47.547024" lon="1.8444434">
        <ele>131.0</ele>
        <time>2022-02-10T10:29:37Z</time>
      </trkpt>
      <trkpt lat="47.547035" lon="1.8444645">
        <ele>131.0</ele>
        <time>2022-02-10T10:29:38Z</time>
      </trkpt>
      <trkpt lat="47.54704" lon="1.8444833">
        <ele>131.0</ele>
        <time>2022-02-10T10:29:39Z</time>
      </trkpt>
      <trkpt lat="47.547047" lon="1.8444985">
        <ele>131.0</ele>
        <time>2022-02-10T10:29:40Z</time>
      </trkpt>
      <trkpt lat="47.54705" lon="1.8445175">
        <ele>131.0</ele>
        <time>2022-02-10T10:29:41Z</time>
      </trkpt>
      <trkpt lat="47.54706" lon="1.8445392">
        <ele>131.0</ele>
        <time>2022-02-10T10:29:42Z</time>
      </trkpt>
      <trkpt lat="47.547066" lon="1.8445592">
        <ele>132.0</ele>
        <time>2022-02-10T10:29:43Z</time>
      </trkpt>
      <trkpt lat="47.54707" lon="1.8445761">
        <ele>132.0</ele>
        <time>2022-02-10T10:29:44Z</time>
      </trkpt>
      <trkpt lat="47.547077" lon="1.8445957">
        <ele>131.0</ele>
        <time>2022-02-10T10:29:45Z</time>
      </trkpt>
      <trkpt lat="47.547077" lon="1.8446101">
        <ele>131.0</ele>
        <time>2022-02-10T10:29:46Z</time>
      </trkpt>
      <trkpt lat="47.54709" lon="1.8446273">
        <ele>131.0</ele>
        <time>2022-02-10T10:29:47Z</time>
      </trkpt>
      <trkpt lat="47.547096" lon="1.8446451">
        <ele>131.0</ele>
        <time>2022-02-10T10:29:48Z</time>
      </trkpt>
      <trkpt lat="47.547104" lon="1.8446639">
        <ele>131.0</ele>
        <time>2022-02-10T10:29:49Z</time>
      </trkpt>
      <trkpt lat="47.547108" lon="1.8446832">
        <ele>130.0</ele>
        <time>2022-02-10T10:29:50Z</time>
      </trkpt>
      <trkpt lat="47.54712" lon="1.8447057">
        <ele>130.0</ele>
        <time>2022-02-10T10:29:51Z</time>
      </trkpt>
      <trkpt lat="47.547127" lon="1.8447261">
        <ele>130.0</ele>
        <time>2022-02-10T10:29:52Z</time>
      </trkpt>
      <trkpt lat="47.547127" lon="1.8447406">
        <ele>130.0</ele>
        <time>2022-02-10T10:29:53Z</time>
      </trkpt>
      <trkpt lat="47.54713" lon="1.8447574">
        <ele>130.0</ele>
        <time>2022-02-10T10:29:54Z</time>
      </trkpt>
      <trkpt lat="47.547134" lon="1.8447739">
        <ele>130.0</ele>
        <time>2022-02-10T10:29:55Z</time>
      </trkpt>
      <trkpt lat="47.54714" lon="1.8447907">
        <ele>130.0</ele>
        <time>2022-02-10T10:29:56Z</time>
      </trkpt>
      <trkpt lat="47.547142" lon="1.8448094">
        <ele>130.0</ele>
        <time>2022-02-10T10:29:57Z</time>
      </trkpt>
      <trkpt lat="47.547146" lon="1.8448297">
        <ele>130.0</ele>
        <time>2022-02-10T10:29:58Z</time>
      </trkpt>
      <trkpt lat="47.547153" lon="1.8448486">
        <ele>130.0</ele>
        <time>2022-02-10T10:29:59Z</time>
      </trkpt>
      <trkpt lat="47.547157" lon="1.8448693">
        <ele>130.0</ele>
        <time>2022-02-10T10:30:00Z</time>
      </trkpt>
      <trkpt lat="47.54716" lon="1.844889">
        <ele>130.0</ele>
        <time>2022-02-10T10:30:01Z</time>
      </trkpt>
      <trkpt lat="47.54716" lon="1.8449074">
        <ele>130.0</ele>
        <time>2022-02-10T10:30:02Z</time>
      </trkpt>
      <trkpt lat="47.547165" lon="1.8449246">
        <ele>129.0</ele>
        <time>2022-02-10T10:30:03Z</time>
      </trkpt>
      <trkpt lat="47.547165" lon="1.8449419">
        <ele>129.0</ele>
        <time>2022-02-10T10:30:04Z</time>
      </trkpt>
      <trkpt lat="47.54717" lon="1.8449621">
        <ele>129.0</ele>
        <time>2022-02-10T10:30:05Z</time>
      </trkpt>
      <trkpt lat="47.547173" lon="1.8449847">
        <ele>129.0</ele>
        <time>2022-02-10T10:30:06Z</time>
      </trkpt>
      <trkpt lat="47.547176" lon="1.8450099">
        <ele>128.0</ele>
        <time>2022-02-10T10:30:07Z</time>
      </trkpt>
      <trkpt lat="47.54718" lon="1.8450338">
        <ele>128.0</ele>
        <time>2022-02-10T10:30:08Z</time>
      </trkpt>
      <trkpt lat="47.547184" lon="1.8450558">
        <ele>129.0</ele>
        <time>2022-02-10T10:30:09Z</time>
      </trkpt>
      <trkpt lat="47.547188" lon="1.8450735">
        <ele>129.0</ele>
        <time>2022-02-10T10:30:10Z</time>
      </trkpt>
      <trkpt lat="47.547195" lon="1.8450886">
        <ele>129.0</ele>
        <time>2022-02-10T10:30:11Z</time>
      </trkpt>
      <trkpt lat="47.547203" lon="1.8451068">
        <ele>129.0</ele>
        <time>2022-02-10T10:30:12Z</time>
      </trkpt>
      <trkpt lat="47.547207" lon="1.8451256">
        <ele>129.0</ele>
        <time>2022-02-10T10:30:13Z</time>
      </trkpt>
      <trkpt lat="47.547207" lon="1.8451439">
        <ele>129.0</ele>
        <time>2022-02-10T10:30:14Z</time>
      </trkpt>
      <trkpt lat="47.547215" lon="1.8451626">
        <ele>129.0</ele>
        <time>2022-02-10T10:30:15Z</time>
      </trkpt>
      <trkpt lat="47.547222" lon="1.8451773">
        <ele>129.0</ele>
        <time>2022-02-10T10:30:16Z</time>
      </trkpt>
      <trkpt lat="47.547222" lon="1.8451916">
        <ele>129.0</ele>
        <time>2022-02-10T10:30:17Z</time>
      </trkpt>
      <trkpt lat="47.547222" lon="1.8452066">
        <ele>130.0</ele>
        <time>2022-02-10T10:30:18Z</time>
      </trkpt>
      <trkpt lat="47.54723" lon="1.845223">
        <ele>130.0</ele>
        <time>2022-02-10T10:30:19Z</time>
      </trkpt>
      <trkpt lat="47.54723" lon="1.8452396">
        <ele>130.0</ele>
        <time>2022-02-10T10:30:20Z</time>
      </trkpt>
      <trkpt lat="47.547234" lon="1.8452517">
        <ele>129.0</ele>
        <time>2022-02-10T10:30:21Z</time>
      </trkpt>
      <trkpt lat="47.54723" lon="1.8452665">
        <ele>129.0</ele>
        <time>2022-02-10T10:30:22Z</time>
      </trkpt>
      <trkpt lat="47.54723" lon="1.8452665">
        <ele>129.0</ele>
        <time>2022-02-10T10:30:23Z</time>
      </trkpt>
      <trkpt lat="47.54723" lon="1.8452665">
        <ele>129.0</ele>
        <time>2022-02-10T10:30:24Z</time>
      </trkpt>
      <trkpt lat="47.547234" lon="1.8453054">
        <ele>129.0</ele>
        <time>2022-02-10T10:30:25Z</time>
      </trkpt>
      <trkpt lat="47.547234" lon="1.8453239">
        <ele>129.0</ele>
        <time>2022-02-10T10:30:26Z</time>
      </trkpt>
      <trkpt lat="47.547234" lon="1.845336">
        <ele>129.0</ele>
        <time>2022-02-10T10:30:27Z</time>
      </trkpt>
      <trkpt lat="47.547237" lon="1.84535">
        <ele>128.0</ele>
        <time>2022-02-10T10:30:28Z</time>
      </trkpt>
      <trkpt lat="47.547237" lon="1.84535">
        <ele>128.0</ele>
        <time>2022-02-10T10:30:29Z</time>
      </trkpt>
      <trkpt lat="47.547237" lon="1.84535">
        <ele>128.0</ele>
        <time>2022-02-10T10:30:30Z</time>
      </trkpt>
      <trkpt lat="47.547245" lon="1.8453903">
        <ele>127.0</ele>
        <time>2022-02-10T10:30:31Z</time>
      </trkpt>
      <trkpt lat="47.547245" lon="1.8454102">
        <ele>126.0</ele>
        <time>2022-02-10T10:30:32Z</time>
      </trkpt>
      <trkpt lat="47.547245" lon="1.8454293">
        <ele>127.0</ele>
        <time>2022-02-10T10:30:33Z</time>
      </trkpt>
      <trkpt lat="47.54725" lon="1.8454516">
        <ele>127.0</ele>
        <time>2022-02-10T10:30:34Z</time>
      </trkpt>
      <trkpt lat="47.54725" lon="1.8454813">
        <ele>126.0</ele>
        <time>2022-02-10T10:30:35Z</time>
      </trkpt>
      <trkpt lat="47.54725" lon="1.8455019">
        <ele>126.0</ele>
        <time>2022-02-10T10:30:36Z</time>
      </trkpt>
      <trkpt lat="47.54725" lon="1.8455157">
        <ele>126.0</ele>
        <time>2022-02-10T10:30:37Z</time>
      </trkpt>
      <trkpt lat="47.547245" lon="1.8455268">
        <ele>126.0</ele>
        <time>2022-02-10T10:30:38Z</time>
      </trkpt>
      <trkpt lat="47.547245" lon="1.8455431">
        <ele>126.0</ele>
        <time>2022-02-10T10:30:39Z</time>
      </trkpt>
      <trkpt lat="47.54725" lon="1.8455701">
        <ele>127.0</ele>
        <time>2022-02-10T10:30:40Z</time>
      </trkpt>
      <trkpt lat="47.547253" lon="1.8455958">
        <ele>127.0</ele>
        <time>2022-02-10T10:30:41Z</time>
      </trkpt>
      <trkpt lat="47.547253" lon="1.8456193">
        <ele>129.0</ele>
        <time>2022-02-10T10:30:42Z</time>
      </trkpt>
      <trkpt lat="47.547253" lon="1.8456486">
        <ele>130.0</ele>
        <time>2022-02-10T10:30:43Z</time>
      </trkpt>
      <trkpt lat="47.547253" lon="1.8456779">
        <ele>131.0</ele>
        <time>2022-02-10T10:30:44Z</time>
      </trkpt>
      <trkpt lat="47.54725" lon="1.8457055">
        <ele>132.0</ele>
        <time>2022-02-10T10:30:45Z</time>
      </trkpt>
      <trkpt lat="47.54725" lon="1.8457297">
        <ele>133.0</ele>
        <time>2022-02-10T10:30:46Z</time>
      </trkpt>
      <trkpt lat="47.54725" lon="1.8457519">
        <ele>133.0</ele>
        <time>2022-02-10T10:30:47Z</time>
      </trkpt>
      <trkpt lat="47.54725" lon="1.8457738">
        <ele>134.0</ele>
        <time>2022-02-10T10:30:48Z</time>
      </trkpt>
      <trkpt lat="47.54725" lon="1.8457974">
        <ele>133.0</ele>
        <time>2022-02-10T10:30:49Z</time>
      </trkpt>
      <trkpt lat="47.547253" lon="1.8458259">
        <ele>133.0</ele>
        <time>2022-02-10T10:30:50Z</time>
      </trkpt>
      <trkpt lat="47.547253" lon="1.8458493">
        <ele>134.0</ele>
        <time>2022-02-10T10:30:51Z</time>
      </trkpt>
      <trkpt lat="47.547256" lon="1.8458738">
        <ele>135.0</ele>
        <time>2022-02-10T10:30:52Z</time>
      </trkpt>
      <trkpt lat="47.54726" lon="1.8458961">
        <ele>135.0</ele>
        <time>2022-02-10T10:30:53Z</time>
      </trkpt>
      <trkpt lat="47.547264" lon="1.8459182">
        <ele>135.0</ele>
        <time>2022-02-10T10:30:54Z</time>
      </trkpt>
      <trkpt lat="47.54727" lon="1.8459396">
        <ele>136.0</ele>
        <time>2022-02-10T10:30:55Z</time>
      </trkpt>
      <trkpt lat="47.547276" lon="1.8459566">
        <ele>136.0</ele>
        <time>2022-02-10T10:30:56Z</time>
      </trkpt>
      <trkpt lat="47.547276" lon="1.8459754">
        <ele>136.0</ele>
        <time>2022-02-10T10:30:57Z</time>
      </trkpt>
      <trkpt lat="47.54728" lon="1.8459903">
        <ele>136.0</ele>
        <time>2022-02-10T10:30:58Z</time>
      </trkpt>
      <trkpt lat="47.547287" lon="1.846011">
        <ele>136.0</ele>
        <time>2022-02-10T10:30:59Z</time>
      </trkpt>
      <trkpt lat="47.54729" lon="1.846029">
        <ele>136.0</ele>
        <time>2022-02-10T10:31:00Z</time>
      </trkpt>
      <trkpt lat="47.54729" lon="1.8460457">
        <ele>136.0</ele>
        <time>2022-02-10T10:31:01Z</time>
      </trkpt>
      <trkpt lat="47.54729" lon="1.8460618">
        <ele>137.0</ele>
        <time>2022-02-10T10:31:02Z</time>
      </trkpt>
      <trkpt lat="47.547287" lon="1.8460817">
        <ele>138.0</ele>
        <time>2022-02-10T10:31:03Z</time>
      </trkpt>
      <trkpt lat="47.547287" lon="1.8461022">
        <ele>138.0</ele>
        <time>2022-02-10T10:31:04Z</time>
      </trkpt>
      <trkpt lat="47.547283" lon="1.8461243">
        <ele>138.0</ele>
        <time>2022-02-10T10:31:05Z</time>
      </trkpt>
      <trkpt lat="47.547283" lon="1.8461479">
        <ele>139.0</ele>
        <time>2022-02-10T10:31:06Z</time>
      </trkpt>
      <trkpt lat="47.547283" lon="1.8461711">
        <ele>139.0</ele>
        <time>2022-02-10T10:31:07Z</time>
      </trkpt>
      <trkpt lat="47.547287" lon="1.8461945">
        <ele>138.0</ele>
        <time>2022-02-10T10:31:08Z</time>
      </trkpt>
      <trkpt lat="47.54729" lon="1.8462104">
        <ele>138.0</ele>
        <time>2022-02-10T10:31:09Z</time>
      </trkpt>
      <trkpt lat="47.54729" lon="1.8462212">
        <ele>138.0</ele>
        <time>2022-02-10T10:31:10Z</time>
      </trkpt>
      <trkpt lat="47.54729" lon="1.8462293">
        <ele>138.0</ele>
        <time>2022-02-10T10:31:11Z</time>
      </trkpt>
      <trkpt lat="47.547287" lon="1.8462433">
        <ele>137.0</ele>
        <time>2022-02-10T10:31:12Z</time>
      </trkpt>
      <trkpt lat="47.547283" lon="1.8462574">
        <ele>137.0</ele>
        <time>2022-02-10T10:31:13Z</time>
      </trkpt>
      <trkpt lat="47.547283" lon="1.8462721">
        <ele>137.0</ele>
        <time>2022-02-10T10:31:14Z</time>
      </trkpt>
      <trkpt lat="47.547276" lon="1.8462834">
        <ele>137.0</ele>
        <time>2022-02-10T10:31:15Z</time>
      </trkpt>
      <trkpt lat="47.547268" lon="1.846296">
        <ele>136.0</ele>
        <time>2022-02-10T10:31:16Z</time>
      </trkpt>
      <trkpt lat="47.547264" lon="1.8463104">
        <ele>136.0</ele>
        <time>2022-02-10T10:31:17Z</time>
      </trkpt>
      <trkpt lat="47.547264" lon="1.8463104">
        <ele>136.0</ele>
        <time>2022-02-10T10:31:18Z</time>
      </trkpt>
      <trkpt lat="47.547264" lon="1.8463104">
        <ele>136.0</ele>
        <time>2022-02-10T10:31:19Z</time>
      </trkpt>
      <trkpt lat="47.547253" lon="1.846344">
        <ele>134.0</ele>
        <time>2022-02-10T10:31:20Z</time>
      </trkpt>
      <trkpt lat="47.54725" lon="1.846357">
        <ele>134.0</ele>
        <time>2022-02-10T10:31:21Z</time>
      </trkpt>
      <trkpt lat="47.547245" lon="1.8463736">
        <ele>133.0</ele>
        <time>2022-02-10T10:31:22Z</time>
      </trkpt>
      <trkpt lat="47.54724" lon="1.8463928">
        <ele>132.0</ele>
        <time>2022-02-10T10:31:23Z</time>
      </trkpt>
      <trkpt lat="47.547234" lon="1.8464162">
        <ele>132.0</ele>
        <time>2022-02-10T10:31:24Z</time>
      </trkpt>
      <trkpt lat="47.547234" lon="1.8464385">
        <ele>131.0</ele>
        <time>2022-02-10T10:31:25Z</time>
      </trkpt>
      <trkpt lat="47.54723" lon="1.8464564">
        <ele>131.0</ele>
        <time>2022-02-10T10:31:26Z</time>
      </trkpt>
      <trkpt lat="47.547226" lon="1.8464755">
        <ele>130.0</ele>
        <time>2022-02-10T10:31:27Z</time>
      </trkpt>
      <trkpt lat="47.547222" lon="1.8464907">
        <ele>130.0</ele>
        <time>2022-02-10T10:31:28Z</time>
      </trkpt>
      <trkpt lat="47.547215" lon="1.8465077">
        <ele>131.0</ele>
        <time>2022-02-10T10:31:29Z</time>
      </trkpt>
      <trkpt lat="47.547215" lon="1.8465269">
        <ele>130.0</ele>
        <time>2022-02-10T10:31:30Z</time>
      </trkpt>
      <trkpt lat="47.54721" lon="1.846543">
        <ele>130.0</ele>
        <time>2022-02-10T10:31:31Z</time>
      </trkpt>
      <trkpt lat="47.547207" lon="1.8465637">
        <ele>130.0</ele>
        <time>2022-02-10T10:31:32Z</time>
      </trkpt>
      <trkpt lat="47.547207" lon="1.846587">
        <ele>129.0</ele>
        <time>2022-02-10T10:31:33Z</time>
      </trkpt>
      <trkpt lat="47.547203" lon="1.8466063">
        <ele>130.0</ele>
        <time>2022-02-10T10:31:34Z</time>
      </trkpt>
      <trkpt lat="47.547195" lon="1.8466206">
        <ele>130.0</ele>
        <time>2022-02-10T10:31:35Z</time>
      </trkpt>
      <trkpt lat="47.547195" lon="1.8466396">
        <ele>130.0</ele>
        <time>2022-02-10T10:31:36Z</time>
      </trkpt>
      <trkpt lat="47.54719" lon="1.8466569">
        <ele>130.0</ele>
        <time>2022-02-10T10:31:37Z</time>
      </trkpt>
      <trkpt lat="47.547188" lon="1.8466697">
        <ele>129.0</ele>
        <time>2022-02-10T10:31:38Z</time>
      </trkpt>
      <trkpt lat="47.54718" lon="1.8466877">
        <ele>129.0</ele>
        <time>2022-02-10T10:31:39Z</time>
      </trkpt>
      <trkpt lat="47.547176" lon="1.8467087">
        <ele>129.0</ele>
        <time>2022-02-10T10:31:40Z</time>
      </trkpt>
      <trkpt lat="47.547173" lon="1.8467292">
        <ele>129.0</ele>
        <time>2022-02-10T10:31:41Z</time>
      </trkpt>
      <trkpt lat="47.54717" lon="1.8467531">
        <ele>129.0</ele>
        <time>2022-02-10T10:31:42Z</time>
      </trkpt>
      <trkpt lat="47.54716" lon="1.8467747">
        <ele>129.0</ele>
        <time>2022-02-10T10:31:43Z</time>
      </trkpt>
      <trkpt lat="47.54716" lon="1.8467934">
        <ele>129.0</ele>
        <time>2022-02-10T10:31:44Z</time>
      </trkpt>
      <trkpt lat="47.547157" lon="1.8468099">
        <ele>129.0</ele>
        <time>2022-02-10T10:31:45Z</time>
      </trkpt>
      <trkpt lat="47.547157" lon="1.8468305">
        <ele>129.0</ele>
        <time>2022-02-10T10:31:46Z</time>
      </trkpt>
      <trkpt lat="47.547157" lon="1.8468486">
        <ele>128.0</ele>
        <time>2022-02-10T10:31:47Z</time>
      </trkpt>
      <trkpt lat="47.547157" lon="1.8468734">
        <ele>128.0</ele>
        <time>2022-02-10T10:31:48Z</time>
      </trkpt>
      <trkpt lat="47.547157" lon="1.8468964">
        <ele>128.0</ele>
        <time>2022-02-10T10:31:49Z</time>
      </trkpt>
      <trkpt lat="47.547157" lon="1.8469173">
        <ele>127.0</ele>
        <time>2022-02-10T10:31:50Z</time>
      </trkpt>
      <trkpt lat="47.547153" lon="1.8469394">
        <ele>127.0</ele>
        <time>2022-02-10T10:31:51Z</time>
      </trkpt>
      <trkpt lat="47.547153" lon="1.8469589">
        <ele>126.0</ele>
        <time>2022-02-10T10:31:52Z</time>
      </trkpt>
      <trkpt lat="47.547153" lon="1.8469764">
        <ele>126.0</ele>
        <time>2022-02-10T10:31:53Z</time>
      </trkpt>
      <trkpt lat="47.547153" lon="1.8469968">
        <ele>126.0</ele>
        <time>2022-02-10T10:31:54Z</time>
      </trkpt>
      <trkpt lat="47.547153" lon="1.8470175">
        <ele>127.0</ele>
        <time>2022-02-10T10:31:55Z</time>
      </trkpt>
      <trkpt lat="47.54715" lon="1.8470341">
        <ele>126.0</ele>
        <time>2022-02-10T10:31:56Z</time>
      </trkpt>
      <trkpt lat="47.547153" lon="1.8470528">
        <ele>126.0</ele>
        <time>2022-02-10T10:31:57Z</time>
      </trkpt>
      <trkpt lat="47.547153" lon="1.8470705">
        <ele>126.0</ele>
        <time>2022-02-10T10:31:58Z</time>
      </trkpt>
      <trkpt lat="47.547153" lon="1.8470912">
        <ele>126.0</ele>
        <time>2022-02-10T10:31:59Z</time>
      </trkpt>
      <trkpt lat="47.547157" lon="1.8471102">
        <ele>126.0</ele>
        <time>2022-02-10T10:32:00Z</time>
      </trkpt>
      <trkpt lat="47.547157" lon="1.8471302">
        <ele>126.0</ele>
        <time>2022-02-10T10:32:01Z</time>
      </trkpt>
      <trkpt lat="47.547157" lon="1.8471469">
        <ele>126.0</ele>
        <time>2022-02-10T10:32:02Z</time>
      </trkpt>
      <trkpt lat="47.547157" lon="1.8471671">
        <ele>127.0</ele>
        <time>2022-02-10T10:32:03Z</time>
      </trkpt>
      <trkpt lat="47.547157" lon="1.8471836">
        <ele>127.0</ele>
        <time>2022-02-10T10:32:04Z</time>
      </trkpt>
      <trkpt lat="47.54716" lon="1.8472025">
        <ele>127.0</ele>
        <time>2022-02-10T10:32:05Z</time>
      </trkpt>
      <trkpt lat="47.547157" lon="1.8472162">
        <ele>127.0</ele>
        <time>2022-02-10T10:32:06Z</time>
      </trkpt>
      <trkpt lat="47.547153" lon="1.8472307">
        <ele>127.0</ele>
        <time>2022-02-10T10:32:07Z</time>
      </trkpt>
      <trkpt lat="47.54715" lon="1.8472501">
        <ele>127.0</ele>
        <time>2022-02-10T10:32:08Z</time>
      </trkpt>
      <trkpt lat="47.547142" lon="1.8472694">
        <ele>127.0</ele>
        <time>2022-02-10T10:32:09Z</time>
      </trkpt>
      <trkpt lat="47.54714" lon="1.8472857">
        <ele>127.0</ele>
        <time>2022-02-10T10:32:10Z</time>
      </trkpt>
      <trkpt lat="47.54713" lon="1.8473028">
        <ele>127.0</ele>
        <time>2022-02-10T10:32:11Z</time>
      </trkpt>
      <trkpt lat="47.547123" lon="1.8473232">
        <ele>127.0</ele>
        <time>2022-02-10T10:32:12Z</time>
      </trkpt>
      <trkpt lat="47.54712" lon="1.8473426">
        <ele>127.0</ele>
        <time>2022-02-10T10:32:13Z</time>
      </trkpt>
      <trkpt lat="47.54712" lon="1.8473647">
        <ele>127.0</ele>
        <time>2022-02-10T10:32:14Z</time>
      </trkpt>
      <trkpt lat="47.54711" lon="1.847385">
        <ele>128.0</ele>
        <time>2022-02-10T10:32:15Z</time>
      </trkpt>
      <trkpt lat="47.547104" lon="1.8474041">
        <ele>128.0</ele>
        <time>2022-02-10T10:32:16Z</time>
      </trkpt>
      <trkpt lat="47.5471" lon="1.8474171">
        <ele>128.0</ele>
        <time>2022-02-10T10:32:17Z</time>
      </trkpt>
      <trkpt lat="47.547096" lon="1.847435">
        <ele>128.0</ele>
        <time>2022-02-10T10:32:18Z</time>
      </trkpt>
      <trkpt lat="47.547092" lon="1.8474475">
        <ele>128.0</ele>
        <time>2022-02-10T10:32:19Z</time>
      </trkpt>
      <trkpt lat="47.547092" lon="1.8474638">
        <ele>129.0</ele>
        <time>2022-02-10T10:32:20Z</time>
      </trkpt>
      <trkpt lat="47.54709" lon="1.8474786">
        <ele>129.0</ele>
        <time>2022-02-10T10:32:21Z</time>
      </trkpt>
      <trkpt lat="47.54709" lon="1.8474933">
        <ele>129.0</ele>
        <time>2022-02-10T10:32:22Z</time>
      </trkpt>
      <trkpt lat="47.547085" lon="1.8475087">
        <ele>130.0</ele>
        <time>2022-02-10T10:32:23Z</time>
      </trkpt>
      <trkpt lat="47.54708" lon="1.8475274">
        <ele>130.0</ele>
        <time>2022-02-10T10:32:24Z</time>
      </trkpt>
      <trkpt lat="47.547077" lon="1.8475442">
        <ele>130.0</ele>
        <time>2022-02-10T10:32:25Z</time>
      </trkpt>
      <trkpt lat="47.547073" lon="1.8475597">
        <ele>130.0</ele>
        <time>2022-02-10T10:32:26Z</time>
      </trkpt>
      <trkpt lat="47.54707" lon="1.8475771">
        <ele>130.0</ele>
        <time>2022-02-10T10:32:27Z</time>
      </trkpt>
      <trkpt lat="47.54707" lon="1.8475945">
        <ele>130.0</ele>
        <time>2022-02-10T10:32:28Z</time>
      </trkpt>
      <trkpt lat="47.54707" lon="1.8476082">
        <ele>129.0</ele>
        <time>2022-02-10T10:32:29Z</time>
      </trkpt>
      <trkpt lat="47.54707" lon="1.8476268">
        <ele>129.0</ele>
        <time>2022-02-10T10:32:30Z</time>
      </trkpt>
      <trkpt lat="47.547062" lon="1.8476506">
        <ele>129.0</ele>
        <time>2022-02-10T10:32:31Z</time>
      </trkpt>
      <trkpt lat="47.54706" lon="1.8476729">
        <ele>129.0</ele>
        <time>2022-02-10T10:32:32Z</time>
      </trkpt>
      <trkpt lat="47.547054" lon="1.8476908">
        <ele>129.0</ele>
        <time>2022-02-10T10:32:33Z</time>
      </trkpt>
      <trkpt lat="47.54705" lon="1.8477118">
        <ele>129.0</ele>
        <time>2022-02-10T10:32:34Z</time>
      </trkpt>
      <trkpt lat="47.547047" lon="1.8477347">
        <ele>129.0</ele>
        <time>2022-02-10T10:32:35Z</time>
      </trkpt>
      <trkpt lat="47.547043" lon="1.8477567">
        <ele>129.0</ele>
        <time>2022-02-10T10:32:36Z</time>
      </trkpt>
      <trkpt lat="47.54704" lon="1.8477821">
        <ele>129.0</ele>
        <time>2022-02-10T10:32:37Z</time>
      </trkpt>
      <trkpt lat="47.547035" lon="1.8477997">
        <ele>129.0</ele>
        <time>2022-02-10T10:32:38Z</time>
      </trkpt>
      <trkpt lat="47.54703" lon="1.8478146">
        <ele>129.0</ele>
        <time>2022-02-10T10:32:39Z</time>
      </trkpt>
      <trkpt lat="47.547028" lon="1.8478298">
        <ele>129.0</ele>
        <time>2022-02-10T10:32:40Z</time>
      </trkpt>
      <trkpt lat="47.54702" lon="1.8478413">
        <ele>129.0</ele>
        <time>2022-02-10T10:32:41Z</time>
      </trkpt>
      <trkpt lat="47.54702" lon="1.8478603">
        <ele>129.0</ele>
        <time>2022-02-10T10:32:42Z</time>
      </trkpt>
      <trkpt lat="47.547024" lon="1.8478788">
        <ele>129.0</ele>
        <time>2022-02-10T10:32:43Z</time>
      </trkpt>
      <trkpt lat="47.54702" lon="1.8478944">
        <ele>129.0</ele>
        <time>2022-02-10T10:32:44Z</time>
      </trkpt>
      <trkpt lat="47.547016" lon="1.8479097">
        <ele>129.0</ele>
        <time>2022-02-10T10:32:45Z</time>
      </trkpt>
      <trkpt lat="47.547012" lon="1.8479241">
        <ele>129.0</ele>
        <time>2022-02-10T10:32:46Z</time>
      </trkpt>
      <trkpt lat="47.547012" lon="1.8479409">
        <ele>129.0</ele>
        <time>2022-02-10T10:32:47Z</time>
      </trkpt>
      <trkpt lat="47.547005" lon="1.8479601">
        <ele>129.0</ele>
        <time>2022-02-10T10:32:48Z</time>
      </trkpt>
      <trkpt lat="47.546993" lon="1.8479764">
        <ele>128.0</ele>
        <time>2022-02-10T10:32:49Z</time>
      </trkpt>
      <trkpt lat="47.54699" lon="1.8479962">
        <ele>128.0</ele>
        <time>2022-02-10T10:32:50Z</time>
      </trkpt>
      <trkpt lat="47.546986" lon="1.8480146">
        <ele>129.0</ele>
        <time>2022-02-10T10:32:51Z</time>
      </trkpt>
      <trkpt lat="47.546986" lon="1.8480299">
        <ele>128.0</ele>
        <time>2022-02-10T10:32:52Z</time>
      </trkpt>
      <trkpt lat="47.54698" lon="1.8480465">
        <ele>129.0</ele>
        <time>2022-02-10T10:32:53Z</time>
      </trkpt>
      <trkpt lat="47.546974" lon="1.8480648">
        <ele>129.0</ele>
        <time>2022-02-10T10:32:54Z</time>
      </trkpt>
      <trkpt lat="47.54697" lon="1.8480867">
        <ele>130.0</ele>
        <time>2022-02-10T10:32:55Z</time>
      </trkpt>
      <trkpt lat="47.546963" lon="1.8481098">
        <ele>130.0</ele>
        <time>2022-02-10T10:32:56Z</time>
      </trkpt>
      <trkpt lat="47.54696" lon="1.8481319">
        <ele>130.0</ele>
        <time>2022-02-10T10:32:57Z</time>
      </trkpt>
      <trkpt lat="47.546955" lon="1.8481501">
        <ele>129.0</ele>
        <time>2022-02-10T10:32:58Z</time>
      </trkpt>
      <trkpt lat="47.54695" lon="1.8481658">
        <ele>129.0</ele>
        <time>2022-02-10T10:32:59Z</time>
      </trkpt>
      <trkpt lat="47.546944" lon="1.8481828">
        <ele>129.0</ele>
        <time>2022-02-10T10:33:00Z</time>
      </trkpt>
      <trkpt lat="47.54694" lon="1.8481963">
        <ele>129.0</ele>
        <time>2022-02-10T10:33:01Z</time>
      </trkpt>
      <trkpt lat="47.546936" lon="1.848209">
        <ele>128.0</ele>
        <time>2022-02-10T10:33:02Z</time>
      </trkpt>
      <trkpt lat="47.546925" lon="1.8482244">
        <ele>128.0</ele>
        <time>2022-02-10T10:33:03Z</time>
      </trkpt>
      <trkpt lat="47.54692" lon="1.8482342">
        <ele>128.0</ele>
        <time>2022-02-10T10:33:04Z</time>
      </trkpt>
      <trkpt lat="47.546917" lon="1.8482463">
        <ele>129.0</ele>
        <time>2022-02-10T10:33:05Z</time>
      </trkpt>
      <trkpt lat="47.546917" lon="1.8482463">
        <ele>129.0</ele>
        <time>2022-02-10T10:33:06Z</time>
      </trkpt>
      <trkpt lat="47.546917" lon="1.8482463">
        <ele>129.0</ele>
        <time>2022-02-10T10:33:07Z</time>
      </trkpt>
      <trkpt lat="47.546898" lon="1.8482792">
        <ele>129.0</ele>
        <time>2022-02-10T10:33:08Z</time>
      </trkpt>
      <trkpt lat="47.54689" lon="1.8482894">
        <ele>129.0</ele>
        <time>2022-02-10T10:33:09Z</time>
      </trkpt>
      <trkpt lat="47.546883" lon="1.8482997">
        <ele>128.0</ele>
        <time>2022-02-10T10:33:10Z</time>
      </trkpt>
      <trkpt lat="47.54688" lon="1.8483069">
        <ele>128.0</ele>
        <time>2022-02-10T10:33:11Z</time>
      </trkpt>
      <trkpt lat="47.54687" lon="1.848322">
        <ele>129.0</ele>
        <time>2022-02-10T10:33:12Z</time>
      </trkpt>
      <trkpt lat="47.54686" lon="1.8483361">
        <ele>128.0</ele>
        <time>2022-02-10T10:33:13Z</time>
      </trkpt>
      <trkpt lat="47.546852" lon="1.8483518">
        <ele>129.0</ele>
        <time>2022-02-10T10:33:14Z</time>
      </trkpt>
      <trkpt lat="47.546844" lon="1.8483691">
        <ele>129.0</ele>
        <time>2022-02-10T10:33:15Z</time>
      </trkpt>
      <trkpt lat="47.54684" lon="1.8483838">
        <ele>128.0</ele>
        <time>2022-02-10T10:33:16Z</time>
      </trkpt>
      <trkpt lat="47.546833" lon="1.8483955">
        <ele>128.0</ele>
        <time>2022-02-10T10:33:17Z</time>
      </trkpt>
      <trkpt lat="47.546825" lon="1.8484042">
        <ele>128.0</ele>
        <time>2022-02-10T10:33:18Z</time>
      </trkpt>
      <trkpt lat="47.546818" lon="1.8484102">
        <ele>128.0</ele>
        <time>2022-02-10T10:33:19Z</time>
      </trkpt>
      <trkpt lat="47.546818" lon="1.8484102">
        <ele>128.0</ele>
        <time>2022-02-10T10:33:20Z</time>
      </trkpt>
      <trkpt lat="47.546818" lon="1.8484102">
        <ele>128.0</ele>
        <time>2022-02-10T10:33:21Z</time>
      </trkpt>
      <trkpt lat="47.546806" lon="1.8484354">
        <ele>127.0</ele>
        <time>2022-02-10T10:33:22Z</time>
      </trkpt>
      <trkpt lat="47.546803" lon="1.8484495">
        <ele>126.0</ele>
        <time>2022-02-10T10:33:23Z</time>
      </trkpt>
      <trkpt lat="47.5468" lon="1.8484603">
        <ele>127.0</ele>
        <time>2022-02-10T10:33:24Z</time>
      </trkpt>
      <trkpt lat="47.546795" lon="1.8484741">
        <ele>126.0</ele>
        <time>2022-02-10T10:33:25Z</time>
      </trkpt>
      <trkpt lat="47.546795" lon="1.8484741">
        <ele>126.0</ele>
        <time>2022-02-10T10:33:26Z</time>
      </trkpt>
      <trkpt lat="47.546783" lon="1.8484997">
        <ele>126.0</ele>
        <time>2022-02-10T10:33:27Z</time>
      </trkpt>
      <trkpt lat="47.546776" lon="1.8485131">
        <ele>125.0</ele>
        <time>2022-02-10T10:33:28Z</time>
      </trkpt>
      <trkpt lat="47.54677" lon="1.8485317">
        <ele>125.0</ele>
        <time>2022-02-10T10:33:29Z</time>
      </trkpt>
      <trkpt lat="47.546764" lon="1.8485501">
        <ele>124.0</ele>
        <time>2022-02-10T10:33:30Z</time>
      </trkpt>
      <trkpt lat="47.546757" lon="1.8485655">
        <ele>123.0</ele>
        <time>2022-02-10T10:33:31Z</time>
      </trkpt>
      <trkpt lat="47.546745" lon="1.8485814">
        <ele>123.0</ele>
        <time>2022-02-10T10:33:32Z</time>
      </trkpt>
      <trkpt lat="47.546738" lon="1.8485967">
        <ele>123.0</ele>
        <time>2022-02-10T10:33:33Z</time>
      </trkpt>
      <trkpt lat="47.546726" lon="1.8486128">
        <ele>122.0</ele>
        <time>2022-02-10T10:33:34Z</time>
      </trkpt>
      <trkpt lat="47.546722" lon="1.8486282">
        <ele>122.0</ele>
        <time>2022-02-10T10:33:35Z</time>
      </trkpt>
      <trkpt lat="47.546722" lon="1.8486282">
        <ele>122.0</ele>
        <time>2022-02-10T10:33:36Z</time>
      </trkpt>
      <trkpt lat="47.546722" lon="1.8486282">
        <ele>122.0</ele>
        <time>2022-02-10T10:33:37Z</time>
      </trkpt>
      <trkpt lat="47.546703" lon="1.848658">
        <ele>121.0</ele>
        <time>2022-02-10T10:33:38Z</time>
      </trkpt>
      <trkpt lat="47.546696" lon="1.848666">
        <ele>121.0</ele>
        <time>2022-02-10T10:33:39Z</time>
      </trkpt>
      <trkpt lat="47.54669" lon="1.8486766">
        <ele>121.0</ele>
        <time>2022-02-10T10:33:40Z</time>
      </trkpt>
      <trkpt lat="47.546684" lon="1.8486899">
        <ele>121.0</ele>
        <time>2022-02-10T10:33:41Z</time>
      </trkpt>
      <trkpt lat="47.54668" lon="1.848707">
        <ele>121.0</ele>
        <time>2022-02-10T10:33:42Z</time>
      </trkpt>
      <trkpt lat="47.546673" lon="1.8487267">
        <ele>121.0</ele>
        <time>2022-02-10T10:33:43Z</time>
      </trkpt>
      <trkpt lat="47.54667" lon="1.848748">
        <ele>122.0</ele>
        <time>2022-02-10T10:33:44Z</time>
      </trkpt>
      <trkpt lat="47.54666" lon="1.8487704">
        <ele>121.0</ele>
        <time>2022-02-10T10:33:45Z</time>
      </trkpt>
      <trkpt lat="47.546654" lon="1.848788">
        <ele>121.0</ele>
        <time>2022-02-10T10:33:46Z</time>
      </trkpt>
      <trkpt lat="47.546642" lon="1.8488035">
        <ele>121.0</ele>
        <time>2022-02-10T10:33:47Z</time>
      </trkpt>
      <trkpt lat="47.54664" lon="1.8488245">
        <ele>121.0</ele>
        <time>2022-02-10T10:33:48Z</time>
      </trkpt>
      <trkpt lat="47.546635" lon="1.8488457">
        <ele>121.0</ele>
        <time>2022-02-10T10:33:49Z</time>
      </trkpt>
      <trkpt lat="47.546627" lon="1.8488703">
        <ele>121.0</ele>
        <time>2022-02-10T10:33:50Z</time>
      </trkpt>
      <trkpt lat="47.546616" lon="1.8488908">
        <ele>121.0</ele>
        <time>2022-02-10T10:33:51Z</time>
      </trkpt>
      <trkpt lat="47.546608" lon="1.8489121">
        <ele>121.0</ele>
        <time>2022-02-10T10:33:52Z</time>
      </trkpt>
      <trkpt lat="47.5466" lon="1.8489301">
        <ele>121.0</ele>
        <time>2022-02-10T10:33:53Z</time>
      </trkpt>
      <trkpt lat="47.546593" lon="1.8489484">
        <ele>122.0</ele>
        <time>2022-02-10T10:33:54Z</time>
      </trkpt>
      <trkpt lat="47.546585" lon="1.8489673">
        <ele>121.0</ele>
        <time>2022-02-10T10:33:55Z</time>
      </trkpt>
      <trkpt lat="47.546577" lon="1.8489858">
        <ele>121.0</ele>
        <time>2022-02-10T10:33:56Z</time>
      </trkpt>
      <trkpt lat="47.54657" lon="1.849005">
        <ele>121.0</ele>
        <time>2022-02-10T10:33:57Z</time>
      </trkpt>
      <trkpt lat="47.546566" lon="1.8490225">
        <ele>122.0</ele>
        <time>2022-02-10T10:33:58Z</time>
      </trkpt>
      <trkpt lat="47.54656" lon="1.8490412">
        <ele>122.0</ele>
        <time>2022-02-10T10:33:59Z</time>
      </trkpt>
      <trkpt lat="47.54655" lon="1.8490611">
        <ele>122.0</ele>
        <time>2022-02-10T10:34:00Z</time>
      </trkpt>
      <trkpt lat="47.546543" lon="1.8490818">
        <ele>123.0</ele>
        <time>2022-02-10T10:34:01Z</time>
      </trkpt>
      <trkpt lat="47.546535" lon="1.8491048">
        <ele>123.0</ele>
        <time>2022-02-10T10:34:02Z</time>
      </trkpt>
      <trkpt lat="47.546524" lon="1.8491191">
        <ele>123.0</ele>
        <time>2022-02-10T10:34:03Z</time>
      </trkpt>
      <trkpt lat="47.546516" lon="1.8491277">
        <ele>123.0</ele>
        <time>2022-02-10T10:34:04Z</time>
      </trkpt>
      <trkpt lat="47.546505" lon="1.8491408">
        <ele>124.0</ele>
        <time>2022-02-10T10:34:05Z</time>
      </trkpt>
      <trkpt lat="47.546494" lon="1.8491503">
        <ele>124.0</ele>
        <time>2022-02-10T10:34:06Z</time>
      </trkpt>
      <trkpt lat="47.546486" lon="1.8491589">
        <ele>124.0</ele>
        <time>2022-02-10T10:34:07Z</time>
      </trkpt>
      <trkpt lat="47.54648" lon="1.849178">
        <ele>126.0</ele>
        <time>2022-02-10T10:34:08Z</time>
      </trkpt>
      <trkpt lat="47.546474" lon="1.849199">
        <ele>127.0</ele>
        <time>2022-02-10T10:34:09Z</time>
      </trkpt>
      <trkpt lat="47.546467" lon="1.8492178">
        <ele>129.0</ele>
        <time>2022-02-10T10:34:10Z</time>
      </trkpt>
      <trkpt lat="47.546463" lon="1.8492324">
        <ele>129.0</ele>
        <time>2022-02-10T10:34:11Z</time>
      </trkpt>
      <trkpt lat="47.54645" lon="1.8492415">
        <ele>130.0</ele>
        <time>2022-02-10T10:34:12Z</time>
      </trkpt>
      <trkpt lat="47.54644" lon="1.8492488">
        <ele>131.0</ele>
        <time>2022-02-10T10:34:13Z</time>
      </trkpt>
      <trkpt lat="47.546425" lon="1.8492588">
        <ele>131.0</ele>
        <time>2022-02-10T10:34:14Z</time>
      </trkpt>
      <trkpt lat="47.546413" lon="1.8492641">
        <ele>132.0</ele>
        <time>2022-02-10T10:34:15Z</time>
      </trkpt>
      <trkpt lat="47.546406" lon="1.849267">
        <ele>132.0</ele>
        <time>2022-02-10T10:34:16Z</time>
      </trkpt>
      <trkpt lat="47.546394" lon="1.8492709">
        <ele>133.0</ele>
        <time>2022-02-10T10:34:17Z</time>
      </trkpt>
      <trkpt lat="47.546383" lon="1.8492709">
        <ele>134.0</ele>
        <time>2022-02-10T10:34:18Z</time>
      </trkpt>
      <trkpt lat="47.546375" lon="1.8492683">
        <ele>135.0</ele>
        <time>2022-02-10T10:34:19Z</time>
      </trkpt>
      <trkpt lat="47.546364" lon="1.849265">
        <ele>136.0</ele>
        <time>2022-02-10T10:34:20Z</time>
      </trkpt>
      <trkpt lat="47.546356" lon="1.8492615">
        <ele>138.0</ele>
        <time>2022-02-10T10:34:21Z</time>
      </trkpt>
      <trkpt lat="47.54635" lon="1.8492595">
        <ele>138.0</ele>
        <time>2022-02-10T10:34:22Z</time>
      </trkpt>
      <trkpt lat="47.54634" lon="1.8492557">
        <ele>138.0</ele>
        <time>2022-02-10T10:34:23Z</time>
      </trkpt>
      <trkpt lat="47.54633" lon="1.8492526">
        <ele>138.0</ele>
        <time>2022-02-10T10:34:24Z</time>
      </trkpt>
      <trkpt lat="47.54632" lon="1.8492526">
        <ele>139.0</ele>
        <time>2022-02-10T10:34:25Z</time>
      </trkpt>
      <trkpt lat="47.546314" lon="1.849247">
        <ele>139.0</ele>
        <time>2022-02-10T10:34:26Z</time>
      </trkpt>
      <trkpt lat="47.546303" lon="1.8492439">
        <ele>139.0</ele>
        <time>2022-02-10T10:34:27Z</time>
      </trkpt>
      <trkpt lat="47.546295" lon="1.849244">
        <ele>139.0</ele>
        <time>2022-02-10T10:34:28Z</time>
      </trkpt>
      <trkpt lat="47.54628" lon="1.8492413">
        <ele>139.0</ele>
        <time>2022-02-10T10:34:29Z</time>
      </trkpt>
      <trkpt lat="47.546272" lon="1.8492383">
        <ele>139.0</ele>
        <time>2022-02-10T10:34:30Z</time>
      </trkpt>
      <trkpt lat="47.54626" lon="1.8492347">
        <ele>139.0</ele>
        <time>2022-02-10T10:34:31Z</time>
      </trkpt>
      <trkpt lat="47.546253" lon="1.8492268">
        <ele>139.0</ele>
        <time>2022-02-10T10:34:32Z</time>
      </trkpt>
      <trkpt lat="47.546246" lon="1.849222">
        <ele>139.0</ele>
        <time>2022-02-10T10:34:33Z</time>
      </trkpt>
      <trkpt lat="47.546238" lon="1.849219">
        <ele>139.0</ele>
        <time>2022-02-10T10:34:34Z</time>
      </trkpt>
      <trkpt lat="47.54623" lon="1.8492113">
        <ele>139.0</ele>
        <time>2022-02-10T10:34:35Z</time>
      </trkpt>
      <trkpt lat="47.54622" lon="1.8492092">
        <ele>139.0</ele>
        <time>2022-02-10T10:34:36Z</time>
      </trkpt>
      <trkpt lat="47.546207" lon="1.8492056">
        <ele>139.0</ele>
        <time>2022-02-10T10:34:37Z</time>
      </trkpt>
      <trkpt lat="47.5462" lon="1.8491967">
        <ele>140.0</ele>
        <time>2022-02-10T10:34:38Z</time>
      </trkpt>
      <trkpt lat="47.546192" lon="1.8491886">
        <ele>140.0</ele>
        <time>2022-02-10T10:34:39Z</time>
      </trkpt>
      <trkpt lat="47.54618" lon="1.8491831">
        <ele>140.0</ele>
        <time>2022-02-10T10:34:40Z</time>
      </trkpt>
      <trkpt lat="47.54617" lon="1.849176">
        <ele>141.0</ele>
        <time>2022-02-10T10:34:41Z</time>
      </trkpt>
      <trkpt lat="47.546154" lon="1.8491678">
        <ele>141.0</ele>
        <time>2022-02-10T10:34:42Z</time>
      </trkpt>
      <trkpt lat="47.546143" lon="1.849163">
        <ele>142.0</ele>
        <time>2022-02-10T10:34:43Z</time>
      </trkpt>
      <trkpt lat="47.546135" lon="1.849158">
        <ele>142.0</ele>
        <time>2022-02-10T10:34:44Z</time>
      </trkpt>
      <trkpt lat="47.546124" lon="1.8491516">
        <ele>142.0</ele>
        <time>2022-02-10T10:34:45Z</time>
      </trkpt>
      <trkpt lat="47.546112" lon="1.8491461">
        <ele>142.0</ele>
        <time>2022-02-10T10:34:46Z</time>
      </trkpt>
      <trkpt lat="47.5461" lon="1.8491378">
        <ele>143.0</ele>
        <time>2022-02-10T10:34:47Z</time>
      </trkpt>
      <trkpt lat="47.546093" lon="1.849129">
        <ele>143.0</ele>
        <time>2022-02-10T10:34:48Z</time>
      </trkpt>
      <trkpt lat="47.54608" lon="1.8491219">
        <ele>144.0</ele>
        <time>2022-02-10T10:34:49Z</time>
      </trkpt>
      <trkpt lat="47.54607" lon="1.8491158">
        <ele>144.0</ele>
        <time>2022-02-10T10:34:50Z</time>
      </trkpt>
      <trkpt lat="47.546062" lon="1.8491117">
        <ele>144.0</ele>
        <time>2022-02-10T10:34:51Z</time>
      </trkpt>
      <trkpt lat="47.54605" lon="1.8491079">
        <ele>145.0</ele>
        <time>2022-02-10T10:34:52Z</time>
      </trkpt>
      <trkpt lat="47.54604" lon="1.8491043">
        <ele>145.0</ele>
        <time>2022-02-10T10:34:53Z</time>
      </trkpt>
      <trkpt lat="47.54603" lon="1.8490993">
        <ele>145.0</ele>
        <time>2022-02-10T10:34:54Z</time>
      </trkpt>
      <trkpt lat="47.546017" lon="1.8490951">
        <ele>146.0</ele>
        <time>2022-02-10T10:34:55Z</time>
      </trkpt>
      <trkpt lat="47.546005" lon="1.8490872">
        <ele>146.0</ele>
        <time>2022-02-10T10:34:56Z</time>
      </trkpt>
      <trkpt lat="47.545994" lon="1.849081">
        <ele>146.0</ele>
        <time>2022-02-10T10:34:57Z</time>
      </trkpt>
      <trkpt lat="47.545982" lon="1.8490756">
        <ele>145.0</ele>
        <time>2022-02-10T10:34:58Z</time>
      </trkpt>
      <trkpt lat="47.545967" lon="1.8490682">
        <ele>145.0</ele>
        <time>2022-02-10T10:34:59Z</time>
      </trkpt>
      <trkpt lat="47.545956" lon="1.8490638">
        <ele>145.0</ele>
        <time>2022-02-10T10:35:00Z</time>
      </trkpt>
      <trkpt lat="47.545944" lon="1.8490597">
        <ele>146.0</ele>
        <time>2022-02-10T10:35:01Z</time>
      </trkpt>
      <trkpt lat="47.545933" lon="1.8490603">
        <ele>146.0</ele>
        <time>2022-02-10T10:35:02Z</time>
      </trkpt>
      <trkpt lat="47.545925" lon="1.8490636">
        <ele>145.0</ele>
        <time>2022-02-10T10:35:03Z</time>
      </trkpt>
      <trkpt lat="47.54592" lon="1.8490602">
        <ele>145.0</ele>
        <time>2022-02-10T10:35:04Z</time>
      </trkpt>
      <trkpt lat="47.545918" lon="1.8490552">
        <ele>144.0</ele>
        <time>2022-02-10T10:35:05Z</time>
      </trkpt>
      <trkpt lat="47.54591" lon="1.8490497">
        <ele>143.0</ele>
        <time>2022-02-10T10:35:06Z</time>
      </trkpt>
      <trkpt lat="47.545902" lon="1.8490503">
        <ele>143.0</ele>
        <time>2022-02-10T10:35:07Z</time>
      </trkpt>
      <trkpt lat="47.54589" lon="1.849051">
        <ele>143.0</ele>
        <time>2022-02-10T10:35:08Z</time>
      </trkpt>
      <trkpt lat="47.545883" lon="1.8490453">
        <ele>143.0</ele>
        <time>2022-02-10T10:35:09Z</time>
      </trkpt>
      <trkpt lat="47.54587" lon="1.849043">
        <ele>143.0</ele>
        <time>2022-02-10T10:35:10Z</time>
      </trkpt>
      <trkpt lat="47.54586" lon="1.8490354">
        <ele>143.0</ele>
        <time>2022-02-10T10:35:11Z</time>
      </trkpt>
      <trkpt lat="47.545853" lon="1.8490332">
        <ele>143.0</ele>
        <time>2022-02-10T10:35:12Z</time>
      </trkpt>
      <trkpt lat="47.545845" lon="1.8490337">
        <ele>143.0</ele>
        <time>2022-02-10T10:35:13Z</time>
      </trkpt>
      <trkpt lat="47.545834" lon="1.8490282">
        <ele>143.0</ele>
        <time>2022-02-10T10:35:14Z</time>
      </trkpt>
      <trkpt lat="47.54583" lon="1.8490213">
        <ele>143.0</ele>
        <time>2022-02-10T10:35:15Z</time>
      </trkpt>
      <trkpt lat="47.54582" lon="1.8490143">
        <ele>142.0</ele>
        <time>2022-02-10T10:35:16Z</time>
      </trkpt>
      <trkpt lat="47.54581" lon="1.8490084">
        <ele>142.0</ele>
        <time>2022-02-10T10:35:17Z</time>
      </trkpt>
      <trkpt lat="47.5458" lon="1.8490016">
        <ele>142.0</ele>
        <time>2022-02-10T10:35:18Z</time>
      </trkpt>
      <trkpt lat="47.54579" lon="1.8489999">
        <ele>143.0</ele>
        <time>2022-02-10T10:35:19Z</time>
      </trkpt>
      <trkpt lat="47.54578" lon="1.8489964">
        <ele>143.0</ele>
        <time>2022-02-10T10:35:20Z</time>
      </trkpt>
      <trkpt lat="47.54577" lon="1.8489937">
        <ele>143.0</ele>
        <time>2022-02-10T10:35:21Z</time>
      </trkpt>
      <trkpt lat="47.545753" lon="1.848991">
        <ele>143.0</ele>
        <time>2022-02-10T10:35:22Z</time>
      </trkpt>
      <trkpt lat="47.545742" lon="1.8489915">
        <ele>144.0</ele>
        <time>2022-02-10T10:35:23Z</time>
      </trkpt>
      <trkpt lat="47.545734" lon="1.8489919">
        <ele>143.0</ele>
        <time>2022-02-10T10:35:24Z</time>
      </trkpt>
      <trkpt lat="47.545723" lon="1.8489879">
        <ele>144.0</ele>
        <time>2022-02-10T10:35:25Z</time>
      </trkpt>
      <trkpt lat="47.54571" lon="1.8489879">
        <ele>144.0</ele>
        <time>2022-02-10T10:35:26Z</time>
      </trkpt>
      <trkpt lat="47.545704" lon="1.8489873">
        <ele>144.0</ele>
        <time>2022-02-10T10:35:27Z</time>
      </trkpt>
      <trkpt lat="47.545692" lon="1.8489876">
        <ele>144.0</ele>
        <time>2022-02-10T10:35:28Z</time>
      </trkpt>
      <trkpt lat="47.545685" lon="1.8489823">
        <ele>145.0</ele>
        <time>2022-02-10T10:35:29Z</time>
      </trkpt>
      <trkpt lat="47.545677" lon="1.8489804">
        <ele>145.0</ele>
        <time>2022-02-10T10:35:30Z</time>
      </trkpt>
      <trkpt lat="47.54567" lon="1.848979">
        <ele>145.0</ele>
        <time>2022-02-10T10:35:31Z</time>
      </trkpt>
      <trkpt lat="47.54566" lon="1.8489801">
        <ele>145.0</ele>
        <time>2022-02-10T10:35:32Z</time>
      </trkpt>
      <trkpt lat="47.545647" lon="1.8489752">
        <ele>144.0</ele>
        <time>2022-02-10T10:35:33Z</time>
      </trkpt>
      <trkpt lat="47.545635" lon="1.8489674">
        <ele>144.0</ele>
        <time>2022-02-10T10:35:34Z</time>
      </trkpt>
      <trkpt lat="47.545624" lon="1.8489666">
        <ele>144.0</ele>
        <time>2022-02-10T10:35:35Z</time>
      </trkpt>
      <trkpt lat="47.54562" lon="1.8489631">
        <ele>145.0</ele>
        <time>2022-02-10T10:35:36Z</time>
      </trkpt>
      <trkpt lat="47.54561" lon="1.8489578">
        <ele>145.0</ele>
        <time>2022-02-10T10:35:37Z</time>
      </trkpt>
      <trkpt lat="47.545597" lon="1.8489606">
        <ele>146.0</ele>
        <time>2022-02-10T10:35:38Z</time>
      </trkpt>
      <trkpt lat="47.545586" lon="1.8489608">
        <ele>146.0</ele>
        <time>2022-02-10T10:35:39Z</time>
      </trkpt>
      <trkpt lat="47.545574" lon="1.8489654">
        <ele>146.0</ele>
        <time>2022-02-10T10:35:40Z</time>
      </trkpt>
      <trkpt lat="47.545563" lon="1.8489631">
        <ele>146.0</ele>
        <time>2022-02-10T10:35:41Z</time>
      </trkpt>
      <trkpt lat="47.54555" lon="1.8489535">
        <ele>146.0</ele>
        <time>2022-02-10T10:35:42Z</time>
      </trkpt>
      <trkpt lat="47.54554" lon="1.8489488">
        <ele>146.0</ele>
        <time>2022-02-10T10:35:43Z</time>
      </trkpt>
      <trkpt lat="47.54553" lon="1.8489462">
        <ele>147.0</ele>
        <time>2022-02-10T10:35:44Z</time>
      </trkpt>
      <trkpt lat="47.545513" lon="1.8489422">
        <ele>147.0</ele>
        <time>2022-02-10T10:35:45Z</time>
      </trkpt>
      <trkpt lat="47.5455" lon="1.8489361">
        <ele>146.0</ele>
        <time>2022-02-10T10:35:46Z</time>
      </trkpt>
      <trkpt lat="47.545494" lon="1.8489349">
        <ele>146.0</ele>
        <time>2022-02-10T10:35:47Z</time>
      </trkpt>
      <trkpt lat="47.545486" lon="1.8489318">
        <ele>146.0</ele>
        <time>2022-02-10T10:35:48Z</time>
      </trkpt>
      <trkpt lat="47.54548" lon="1.8489326">
        <ele>146.0</ele>
        <time>2022-02-10T10:35:49Z</time>
      </trkpt>
      <trkpt lat="47.545467" lon="1.848932">
        <ele>146.0</ele>
        <time>2022-02-10T10:35:50Z</time>
      </trkpt>
      <trkpt lat="47.54546" lon="1.8489298">
        <ele>145.0</ele>
        <time>2022-02-10T10:35:51Z</time>
      </trkpt>
      <trkpt lat="47.545444" lon="1.8489294">
        <ele>144.0</ele>
        <time>2022-02-10T10:35:52Z</time>
      </trkpt>
      <trkpt lat="47.545437" lon="1.848925">
        <ele>144.0</ele>
        <time>2022-02-10T10:35:53Z</time>
      </trkpt>
      <trkpt lat="47.54542" lon="1.8489276">
        <ele>144.0</ele>
        <time>2022-02-10T10:35:54Z</time>
      </trkpt>
      <trkpt lat="47.545406" lon="1.848927">
        <ele>144.0</ele>
        <time>2022-02-10T10:35:55Z</time>
      </trkpt>
      <trkpt lat="47.545395" lon="1.8489246">
        <ele>144.0</ele>
        <time>2022-02-10T10:35:56Z</time>
      </trkpt>
      <trkpt lat="47.545387" lon="1.8489169">
        <ele>144.0</ele>
        <time>2022-02-10T10:35:57Z</time>
      </trkpt>
      <trkpt lat="47.545372" lon="1.8489106">
        <ele>145.0</ele>
        <time>2022-02-10T10:35:58Z</time>
      </trkpt>
      <trkpt lat="47.545357" lon="1.8489066">
        <ele>145.0</ele>
        <time>2022-02-10T10:35:59Z</time>
      </trkpt>
      <trkpt lat="47.545345" lon="1.8489082">
        <ele>144.0</ele>
        <time>2022-02-10T10:36:00Z</time>
      </trkpt>
      <trkpt lat="47.54534" lon="1.8488994">
        <ele>144.0</ele>
        <time>2022-02-10T10:36:01Z</time>
      </trkpt>
      <trkpt lat="47.545334" lon="1.8488963">
        <ele>144.0</ele>
        <time>2022-02-10T10:36:02Z</time>
      </trkpt>
      <trkpt lat="47.545322" lon="1.8488951">
        <ele>143.0</ele>
        <time>2022-02-10T10:36:03Z</time>
      </trkpt>
      <trkpt lat="47.54531" lon="1.8488932">
        <ele>144.0</ele>
        <time>2022-02-10T10:36:04Z</time>
      </trkpt>
      <trkpt lat="47.5453" lon="1.8488904">
        <ele>143.0</ele>
        <time>2022-02-10T10:36:05Z</time>
      </trkpt>
      <trkpt lat="47.54529" lon="1.8488897">
        <ele>143.0</ele>
        <time>2022-02-10T10:36:06Z</time>
      </trkpt>
      <trkpt lat="47.54528" lon="1.8488922">
        <ele>143.0</ele>
        <time>2022-02-10T10:36:07Z</time>
      </trkpt>
      <trkpt lat="47.54527" lon="1.8488909">
        <ele>143.0</ele>
        <time>2022-02-10T10:36:08Z</time>
      </trkpt>
      <trkpt lat="47.545254" lon="1.8488952">
        <ele>143.0</ele>
        <time>2022-02-10T10:36:09Z</time>
      </trkpt>
      <trkpt lat="47.545246" lon="1.8488927">
        <ele>142.0</ele>
        <time>2022-02-10T10:36:10Z</time>
      </trkpt>
      <trkpt lat="47.545235" lon="1.8488896">
        <ele>142.0</ele>
        <time>2022-02-10T10:36:11Z</time>
      </trkpt>
      <trkpt lat="47.545227" lon="1.8488868">
        <ele>143.0</ele>
        <time>2022-02-10T10:36:12Z</time>
      </trkpt>
      <trkpt lat="47.54522" lon="1.8488849">
        <ele>144.0</ele>
        <time>2022-02-10T10:36:13Z</time>
      </trkpt>
      <trkpt lat="47.545208" lon="1.8488843">
        <ele>144.0</ele>
        <time>2022-02-10T10:36:14Z</time>
      </trkpt>
      <trkpt lat="47.545197" lon="1.8488818">
        <ele>144.0</ele>
        <time>2022-02-10T10:36:15Z</time>
      </trkpt>
      <trkpt lat="47.54519" lon="1.8488833">
        <ele>144.0</ele>
        <time>2022-02-10T10:36:16Z</time>
      </trkpt>
      <trkpt lat="47.54518" lon="1.8488816">
        <ele>144.0</ele>
        <time>2022-02-10T10:36:17Z</time>
      </trkpt>
      <trkpt lat="47.545166" lon="1.8488858">
        <ele>144.0</ele>
        <time>2022-02-10T10:36:18Z</time>
      </trkpt>
      <trkpt lat="47.54515" lon="1.8488907">
        <ele>144.0</ele>
        <time>2022-02-10T10:36:19Z</time>
      </trkpt>
      <trkpt lat="47.54514" lon="1.8488915">
        <ele>144.0</ele>
        <time>2022-02-10T10:36:20Z</time>
      </trkpt>
      <trkpt lat="47.545128" lon="1.8488946">
        <ele>144.0</ele>
        <time>2022-02-10T10:36:21Z</time>
      </trkpt>
      <trkpt lat="47.545116" lon="1.8488996">
        <ele>144.0</ele>
        <time>2022-02-10T10:36:22Z</time>
      </trkpt>
      <trkpt lat="47.54511" lon="1.8489085">
        <ele>144.0</ele>
        <time>2022-02-10T10:36:23Z</time>
      </trkpt>
      <trkpt lat="47.5451" lon="1.8489127">
        <ele>144.0</ele>
        <time>2022-02-10T10:36:24Z</time>
      </trkpt>
      <trkpt lat="47.54509" lon="1.8489203">
        <ele>144.0</ele>
        <time>2022-02-10T10:36:25Z</time>
      </trkpt>
      <trkpt lat="47.54508" lon="1.8489274">
        <ele>145.0</ele>
        <time>2022-02-10T10:36:26Z</time>
      </trkpt>
      <trkpt lat="47.54507" lon="1.8489414">
        <ele>145.0</ele>
        <time>2022-02-10T10:36:27Z</time>
      </trkpt>
      <trkpt lat="47.545063" lon="1.8489553">
        <ele>144.0</ele>
        <time>2022-02-10T10:36:28Z</time>
      </trkpt>
      <trkpt lat="47.54505" lon="1.8489655">
        <ele>145.0</ele>
        <time>2022-02-10T10:36:29Z</time>
      </trkpt>
      <trkpt lat="47.54504" lon="1.8489767">
        <ele>144.0</ele>
        <time>2022-02-10T10:36:30Z</time>
      </trkpt>
      <trkpt lat="47.54503" lon="1.8489869">
        <ele>144.0</ele>
        <time>2022-02-10T10:36:31Z</time>
      </trkpt>
      <trkpt lat="47.545017" lon="1.8489996">
        <ele>144.0</ele>
        <time>2022-02-10T10:36:32Z</time>
      </trkpt>
      <trkpt lat="47.545006" lon="1.849009">
        <ele>145.0</ele>
        <time>2022-02-10T10:36:33Z</time>
      </trkpt>
      <trkpt lat="47.545" lon="1.8490162">
        <ele>145.0</ele>
        <time>2022-02-10T10:36:34Z</time>
      </trkpt>
      <trkpt lat="47.54499" lon="1.8490194">
        <ele>145.0</ele>
        <time>2022-02-10T10:36:35Z</time>
      </trkpt>
      <trkpt lat="47.544983" lon="1.8490266">
        <ele>145.0</ele>
        <time>2022-02-10T10:36:36Z</time>
      </trkpt>
      <trkpt lat="47.54497" lon="1.8490269">
        <ele>145.0</ele>
        <time>2022-02-10T10:36:37Z</time>
      </trkpt>
      <trkpt lat="47.54496" lon="1.8490226">
        <ele>145.0</ele>
        <time>2022-02-10T10:36:38Z</time>
      </trkpt>
      <trkpt lat="47.54495" lon="1.8490216">
        <ele>145.0</ele>
        <time>2022-02-10T10:36:39Z</time>
      </trkpt>
      <trkpt lat="47.544933" lon="1.8490165">
        <ele>145.0</ele>
        <time>2022-02-10T10:36:40Z</time>
      </trkpt>
      <trkpt lat="47.54492" lon="1.8490134">
        <ele>145.0</ele>
        <time>2022-02-10T10:36:41Z</time>
      </trkpt>
      <trkpt lat="47.544907" lon="1.849011">
        <ele>145.0</ele>
        <time>2022-02-10T10:36:42Z</time>
      </trkpt>
      <trkpt lat="47.544895" lon="1.8490046">
        <ele>145.0</ele>
        <time>2022-02-10T10:36:43Z</time>
      </trkpt>
      <trkpt lat="47.544884" lon="1.8489941">
        <ele>145.0</ele>
        <time>2022-02-10T10:36:44Z</time>
      </trkpt>
      <trkpt lat="47.54487" lon="1.8489916">
        <ele>146.0</ele>
        <time>2022-02-10T10:36:45Z</time>
      </trkpt>
      <trkpt lat="47.544857" lon="1.8489858">
        <ele>146.0</ele>
        <time>2022-02-10T10:36:46Z</time>
      </trkpt>
      <trkpt lat="47.54485" lon="1.848978">
        <ele>147.0</ele>
        <time>2022-02-10T10:36:47Z</time>
      </trkpt>
      <trkpt lat="47.54484" lon="1.8489745">
        <ele>147.0</ele>
        <time>2022-02-10T10:36:48Z</time>
      </trkpt>
      <trkpt lat="47.544834" lon="1.8489687">
        <ele>147.0</ele>
        <time>2022-02-10T10:36:49Z</time>
      </trkpt>
      <trkpt lat="47.544823" lon="1.8489563">
        <ele>146.0</ele>
        <time>2022-02-10T10:36:50Z</time>
      </trkpt>
      <trkpt lat="47.54481" lon="1.8489512">
        <ele>146.0</ele>
        <time>2022-02-10T10:36:51Z</time>
      </trkpt>
      <trkpt lat="47.5448" lon="1.8489474">
        <ele>146.0</ele>
        <time>2022-02-10T10:36:52Z</time>
      </trkpt>
      <trkpt lat="47.544792" lon="1.8489474">
        <ele>145.0</ele>
        <time>2022-02-10T10:36:53Z</time>
      </trkpt>
      <trkpt lat="47.54479" lon="1.8489492">
        <ele>145.0</ele>
        <time>2022-02-10T10:36:54Z</time>
      </trkpt>
      <trkpt lat="47.544785" lon="1.8489509">
        <ele>145.0</ele>
        <time>2022-02-10T10:36:55Z</time>
      </trkpt>
      <trkpt lat="47.544777" lon="1.8489518">
        <ele>145.0</ele>
        <time>2022-02-10T10:36:56Z</time>
      </trkpt>
      <trkpt lat="47.544777" lon="1.8489518">
        <ele>145.0</ele>
        <time>2022-02-10T10:36:57Z</time>
      </trkpt>
      <trkpt lat="47.544777" lon="1.8489518">
        <ele>145.0</ele>
        <time>2022-02-10T10:36:58Z</time>
      </trkpt>
      <trkpt lat="47.544777" lon="1.8489518">
        <ele>145.0</ele>
        <time>2022-02-10T10:36:58Z</time>
      </trkpt>
    </trkseg>
    <trkseg>
      <trkpt lat="47.544777" lon="1.8489518">
        <ele>145.0</ele>
        <time>2022-02-10T10:36:58Z</time>
      </trkpt>
      <trkpt lat="47.54471" lon="1.8489586">
        <ele>143.0</ele>
        <time>2022-02-10T10:37:06Z</time>
      </trkpt>
      <trkpt lat="47.54469" lon="1.8489529">
        <ele>143.0</ele>
        <time>2022-02-10T10:37:07Z</time>
      </trkpt>
      <trkpt lat="47.544674" lon="1.8489513">
        <ele>143.0</ele>
        <time>2022-02-10T10:37:08Z</time>
      </trkpt>
      <trkpt lat="47.544662" lon="1.8489516">
        <ele>143.0</ele>
        <time>2022-02-10T10:37:09Z</time>
      </trkpt>
      <trkpt lat="47.544647" lon="1.8489516">
        <ele>143.0</ele>
        <time>2022-02-10T10:37:10Z</time>
      </trkpt>
      <trkpt lat="47.544636" lon="1.848951">
        <ele>144.0</ele>
        <time>2022-02-10T10:37:11Z</time>
      </trkpt>
      <trkpt lat="47.544624" lon="1.8489438">
        <ele>144.0</ele>
        <time>2022-02-10T10:37:12Z</time>
      </trkpt>
      <trkpt lat="47.544624" lon="1.8489349">
        <ele>143.0</ele>
        <time>2022-02-10T10:37:13Z</time>
      </trkpt>
      <trkpt lat="47.544632" lon="1.8489275">
        <ele>142.0</ele>
        <time>2022-02-10T10:37:14Z</time>
      </trkpt>
      <trkpt lat="47.544632" lon="1.8489301">
        <ele>142.0</ele>
        <time>2022-02-10T10:37:15Z</time>
      </trkpt>
      <trkpt lat="47.544636" lon="1.8489295">
        <ele>142.0</ele>
        <time>2022-02-10T10:37:16Z</time>
      </trkpt>
      <trkpt lat="47.544636" lon="1.8489295">
        <ele>142.0</ele>
        <time>2022-02-10T10:37:17Z</time>
      </trkpt>
      <trkpt lat="47.544636" lon="1.8489295">
        <ele>142.0</ele>
        <time>2022-02-10T10:37:17Z</time>
      </trkpt>
    </trkseg>
    <trkseg>
      <trkpt lat="47.544636" lon="1.8489295">
        <ele>142.0</ele>
        <time>2022-02-10T10:37:17Z</time>
      </trkpt>
      <trkpt lat="47.544643" lon="1.8488631">
        <ele>141.0</ele>
        <time>2022-02-10T10:37:51Z</time>
      </trkpt>
      <trkpt lat="47.544643" lon="1.8488615">
        <ele>141.0</ele>
        <time>2022-02-10T10:37:52Z</time>
      </trkpt>
      <trkpt lat="47.544643" lon="1.8488592">
        <ele>141.0</ele>
        <time>2022-02-10T10:37:53Z</time>
      </trkpt>
      <trkpt lat="47.544643" lon="1.8488592">
        <ele>141.0</ele>
        <time>2022-02-10T10:37:54Z</time>
      </trkpt>
      <trkpt lat="47.544643" lon="1.8488592">
        <ele>141.0</ele>
        <time>2022-02-10T10:37:54Z</time>
      </trkpt>
    </trkseg>
    <trkseg>
      <trkpt lat="47.544643" lon="1.8488592">
        <ele>141.0</ele>
        <time>2022-02-10T10:37:54Z</time>
      </trkpt>
    </trkseg>
  </trk>
  <exerciseinfo>
    <exercisetype>1001</exercisetype>
    <distance>10784.02</distance>
    <elevationgain>0.0</elevationgain>
    <avggradient>0.14615330504298094</avggradient>
    <duration>8514374</duration>
    <avgspeed>1.2667711</avgspeed>
  </exerciseinfo>
</gpx>